<?xml version="1.0" encoding="UTF-8" standalone="no" ?>
<gpx xmlns="http://www.topografix.com/GPX/1/1" xmlns:xsi="http://www.w3.org/2001/XMLSchema-instance" xsi:schemaLocation="http://www.topografix.com/GPX/1/1 http://www.topografix.com/GPX/1/1/gpx.xsd" version="1.1" creator="VisuGPX - https://www.visugpx.com">
  <metadata>
    <name>28/08/2021</name>
    <desc><![CDATA[boucle au départ de Couraduque vers le col du Soulor et retour]]></desc>
  </metadata>
  <trk>
    <name><![CDATA[28/08/2021_1]]></name>
    <trkseg>
      <trkpt lat="42.99065" lon="-0.20227">
        <ele>1374.6</ele>
        <time>2021-08-28T06:55:12Z</time>
      </trkpt>
      <trkpt lat="42.99064" lon="-0.20227">
        <ele>1365.2</ele>
        <time>2021-08-28T06:55:21Z</time>
      </trkpt>
      <trkpt lat="42.99063" lon="-0.20237">
        <ele>1365</ele>
        <time>2021-08-28T06:55:25Z</time>
      </trkpt>
      <trkpt lat="42.99064" lon="-0.20243">
        <ele>1365</ele>
        <time>2021-08-28T06:55:27Z</time>
      </trkpt>
      <trkpt lat="42.99064" lon="-0.20247">
        <ele>1365</ele>
        <time>2021-08-28T06:55:28Z</time>
      </trkpt>
      <trkpt lat="42.99066" lon="-0.2025">
        <ele>1365</ele>
        <time>2021-08-28T06:55:29Z</time>
      </trkpt>
      <trkpt lat="42.99067" lon="-0.20253">
        <ele>1365</ele>
        <time>2021-08-28T06:55:30Z</time>
      </trkpt>
      <trkpt lat="42.9907" lon="-0.20257">
        <ele>1365</ele>
        <time>2021-08-28T06:55:32Z</time>
      </trkpt>
      <trkpt lat="42.99073" lon="-0.20259">
        <ele>1365</ele>
        <time>2021-08-28T06:55:33Z</time>
      </trkpt>
      <trkpt lat="42.99075" lon="-0.20261">
        <ele>1365</ele>
        <time>2021-08-28T06:55:34Z</time>
      </trkpt>
      <trkpt lat="42.99078" lon="-0.20263">
        <ele>1365</ele>
        <time>2021-08-28T06:55:35Z</time>
      </trkpt>
      <trkpt lat="42.99085" lon="-0.20269">
        <ele>1365</ele>
        <time>2021-08-28T06:55:37Z</time>
      </trkpt>
      <trkpt lat="42.99091" lon="-0.20277">
        <ele>1365</ele>
        <time>2021-08-28T06:55:39Z</time>
      </trkpt>
      <trkpt lat="42.99094" lon="-0.2028">
        <ele>1365</ele>
        <time>2021-08-28T06:55:40Z</time>
      </trkpt>
      <trkpt lat="42.99096" lon="-0.20284">
        <ele>1365</ele>
        <time>2021-08-28T06:55:41Z</time>
      </trkpt>
      <trkpt lat="42.99099" lon="-0.20288">
        <ele>1365.2</ele>
        <time>2021-08-28T06:55:42Z</time>
      </trkpt>
      <trkpt lat="42.99102" lon="-0.20291">
        <ele>1365.2</ele>
        <time>2021-08-28T06:55:43Z</time>
      </trkpt>
      <trkpt lat="42.99108" lon="-0.20296">
        <ele>1365.4</ele>
        <time>2021-08-28T06:55:45Z</time>
      </trkpt>
      <trkpt lat="42.99114" lon="-0.203">
        <ele>1365.6</ele>
        <time>2021-08-28T06:55:47Z</time>
      </trkpt>
      <trkpt lat="42.99117" lon="-0.20302">
        <ele>1365.6</ele>
        <time>2021-08-28T06:55:48Z</time>
      </trkpt>
      <trkpt lat="42.9912" lon="-0.20306">
        <ele>1365.6</ele>
        <time>2021-08-28T06:55:49Z</time>
      </trkpt>
      <trkpt lat="42.99122" lon="-0.2031">
        <ele>1365.8</ele>
        <time>2021-08-28T06:55:50Z</time>
      </trkpt>
      <trkpt lat="42.99123" lon="-0.20314">
        <ele>1365.8</ele>
        <time>2021-08-28T06:55:51Z</time>
      </trkpt>
      <trkpt lat="42.99124" lon="-0.20317">
        <ele>1365.8</ele>
        <time>2021-08-28T06:55:52Z</time>
      </trkpt>
      <trkpt lat="42.99125" lon="-0.20321">
        <ele>1365.8</ele>
        <time>2021-08-28T06:55:53Z</time>
      </trkpt>
      <trkpt lat="42.99126" lon="-0.20324">
        <ele>1365.8</ele>
        <time>2021-08-28T06:55:54Z</time>
      </trkpt>
      <trkpt lat="42.99126" lon="-0.20327">
        <ele>1366</ele>
        <time>2021-08-28T06:55:55Z</time>
      </trkpt>
      <trkpt lat="42.99126" lon="-0.2033">
        <ele>1366.2</ele>
        <time>2021-08-28T06:55:56Z</time>
      </trkpt>
      <trkpt lat="42.99126" lon="-0.20333">
        <ele>1366.2</ele>
        <time>2021-08-28T06:55:57Z</time>
      </trkpt>
      <trkpt lat="42.99125" lon="-0.20335">
        <ele>1366.4</ele>
        <time>2021-08-28T06:55:58Z</time>
      </trkpt>
      <trkpt lat="42.99125" lon="-0.20338">
        <ele>1366.4</ele>
        <time>2021-08-28T06:55:59Z</time>
      </trkpt>
      <trkpt lat="42.99125" lon="-0.2034">
        <ele>1366.6</ele>
        <time>2021-08-28T06:56:00Z</time>
      </trkpt>
      <trkpt lat="42.99126" lon="-0.20343">
        <ele>1366.6</ele>
        <time>2021-08-28T06:56:01Z</time>
      </trkpt>
      <trkpt lat="42.99127" lon="-0.20344">
        <ele>1366.8</ele>
        <time>2021-08-28T06:56:02Z</time>
      </trkpt>
      <trkpt lat="42.99129" lon="-0.20346">
        <ele>1367</ele>
        <time>2021-08-28T06:56:03Z</time>
      </trkpt>
      <trkpt lat="42.99131" lon="-0.20346">
        <ele>1367.8</ele>
        <time>2021-08-28T06:56:04Z</time>
      </trkpt>
      <trkpt lat="42.99133" lon="-0.20347">
        <ele>1368</ele>
        <time>2021-08-28T06:56:05Z</time>
      </trkpt>
      <trkpt lat="42.99135" lon="-0.20347">
        <ele>1368.2</ele>
        <time>2021-08-28T06:56:06Z</time>
      </trkpt>
      <trkpt lat="42.99136" lon="-0.20347">
        <ele>1368.4</ele>
        <time>2021-08-28T06:56:07Z</time>
      </trkpt>
      <trkpt lat="42.99138" lon="-0.20348">
        <ele>1368.6</ele>
        <time>2021-08-28T06:56:08Z</time>
      </trkpt>
      <trkpt lat="42.99141" lon="-0.20348">
        <ele>1368.8</ele>
        <time>2021-08-28T06:56:09Z</time>
      </trkpt>
      <trkpt lat="42.99144" lon="-0.20348">
        <ele>1369</ele>
        <time>2021-08-28T06:56:10Z</time>
      </trkpt>
      <trkpt lat="42.99147" lon="-0.20347">
        <ele>1369</ele>
        <time>2021-08-28T06:56:11Z</time>
      </trkpt>
      <trkpt lat="42.9915" lon="-0.20347">
        <ele>1369.2</ele>
        <time>2021-08-28T06:56:12Z</time>
      </trkpt>
      <trkpt lat="42.99153" lon="-0.20346">
        <ele>1369.2</ele>
        <time>2021-08-28T06:56:13Z</time>
      </trkpt>
      <trkpt lat="42.99156" lon="-0.20347">
        <ele>1369.4</ele>
        <time>2021-08-28T06:56:14Z</time>
      </trkpt>
      <trkpt lat="42.99159" lon="-0.20347">
        <ele>1369.6</ele>
        <time>2021-08-28T06:56:15Z</time>
      </trkpt>
      <trkpt lat="42.99161" lon="-0.20349">
        <ele>1369.6</ele>
        <time>2021-08-28T06:56:16Z</time>
      </trkpt>
      <trkpt lat="42.99164" lon="-0.20351">
        <ele>1369.8</ele>
        <time>2021-08-28T06:56:17Z</time>
      </trkpt>
      <trkpt lat="42.99166" lon="-0.20352">
        <ele>1370</ele>
        <time>2021-08-28T06:56:18Z</time>
      </trkpt>
      <trkpt lat="42.99168" lon="-0.20354">
        <ele>1370.2</ele>
        <time>2021-08-28T06:56:19Z</time>
      </trkpt>
      <trkpt lat="42.9917" lon="-0.20356">
        <ele>1370.4</ele>
        <time>2021-08-28T06:56:20Z</time>
      </trkpt>
      <trkpt lat="42.99172" lon="-0.20357">
        <ele>1370.6</ele>
        <time>2021-08-28T06:56:21Z</time>
      </trkpt>
      <trkpt lat="42.99173" lon="-0.20359">
        <ele>1370.8</ele>
        <time>2021-08-28T06:56:22Z</time>
      </trkpt>
      <trkpt lat="42.99175" lon="-0.2036">
        <ele>1371.2</ele>
        <time>2021-08-28T06:56:23Z</time>
      </trkpt>
      <trkpt lat="42.99177" lon="-0.20362">
        <ele>1371.4</ele>
        <time>2021-08-28T06:56:24Z</time>
      </trkpt>
      <trkpt lat="42.99178" lon="-0.20363">
        <ele>1371.8</ele>
        <time>2021-08-28T06:56:25Z</time>
      </trkpt>
      <trkpt lat="42.9918" lon="-0.20366">
        <ele>1371.8</ele>
        <time>2021-08-28T06:56:26Z</time>
      </trkpt>
      <trkpt lat="42.99181" lon="-0.20368">
        <ele>1372.4</ele>
        <time>2021-08-28T06:56:27Z</time>
      </trkpt>
      <trkpt lat="42.99182" lon="-0.20369">
        <ele>1372.6</ele>
        <time>2021-08-28T06:56:28Z</time>
      </trkpt>
      <trkpt lat="42.99184" lon="-0.20371">
        <ele>1372.8</ele>
        <time>2021-08-28T06:56:29Z</time>
      </trkpt>
      <trkpt lat="42.99185" lon="-0.20373">
        <ele>1373</ele>
        <time>2021-08-28T06:56:30Z</time>
      </trkpt>
      <trkpt lat="42.99187" lon="-0.20375">
        <ele>1373</ele>
        <time>2021-08-28T06:56:31Z</time>
      </trkpt>
      <trkpt lat="42.99189" lon="-0.20376">
        <ele>1373.2</ele>
        <time>2021-08-28T06:56:32Z</time>
      </trkpt>
      <trkpt lat="42.99191" lon="-0.20378">
        <ele>1373.4</ele>
        <time>2021-08-28T06:56:33Z</time>
      </trkpt>
      <trkpt lat="42.99193" lon="-0.20379">
        <ele>1373.8</ele>
        <time>2021-08-28T06:56:34Z</time>
      </trkpt>
      <trkpt lat="42.99195" lon="-0.2038">
        <ele>1374.2</ele>
        <time>2021-08-28T06:56:35Z</time>
      </trkpt>
      <trkpt lat="42.99197" lon="-0.20381">
        <ele>1374.4</ele>
        <time>2021-08-28T06:56:36Z</time>
      </trkpt>
      <trkpt lat="42.99199" lon="-0.20382">
        <ele>1374.6</ele>
        <time>2021-08-28T06:56:37Z</time>
      </trkpt>
      <trkpt lat="42.99202" lon="-0.20384">
        <ele>1374.8</ele>
        <time>2021-08-28T06:56:38Z</time>
      </trkpt>
      <trkpt lat="42.99203" lon="-0.20385">
        <ele>1375</ele>
        <time>2021-08-28T06:56:39Z</time>
      </trkpt>
      <trkpt lat="42.99205" lon="-0.20385">
        <ele>1375.2</ele>
        <time>2021-08-28T06:56:40Z</time>
      </trkpt>
      <trkpt lat="42.99207" lon="-0.20386">
        <ele>1375.4</ele>
        <time>2021-08-28T06:56:41Z</time>
      </trkpt>
      <trkpt lat="42.99209" lon="-0.20386">
        <ele>1375.6</ele>
        <time>2021-08-28T06:56:42Z</time>
      </trkpt>
      <trkpt lat="42.99211" lon="-0.20386">
        <ele>1375.6</ele>
        <time>2021-08-28T06:56:43Z</time>
      </trkpt>
      <trkpt lat="42.99212" lon="-0.20387">
        <ele>1375.8</ele>
        <time>2021-08-28T06:56:44Z</time>
      </trkpt>
      <trkpt lat="42.99214" lon="-0.20388">
        <ele>1375.8</ele>
        <time>2021-08-28T06:56:45Z</time>
      </trkpt>
      <trkpt lat="42.99216" lon="-0.20389">
        <ele>1376</ele>
        <time>2021-08-28T06:56:46Z</time>
      </trkpt>
      <trkpt lat="42.99217" lon="-0.2039">
        <ele>1376.2</ele>
        <time>2021-08-28T06:56:47Z</time>
      </trkpt>
      <trkpt lat="42.99218" lon="-0.20392">
        <ele>1376.2</ele>
        <time>2021-08-28T06:56:48Z</time>
      </trkpt>
      <trkpt lat="42.99219" lon="-0.20393">
        <ele>1376.4</ele>
        <time>2021-08-28T06:56:49Z</time>
      </trkpt>
      <trkpt lat="42.9922" lon="-0.20394">
        <ele>1376.4</ele>
        <time>2021-08-28T06:56:50Z</time>
      </trkpt>
      <trkpt lat="42.99222" lon="-0.20395">
        <ele>1376.6</ele>
        <time>2021-08-28T06:56:51Z</time>
      </trkpt>
      <trkpt lat="42.99224" lon="-0.20396">
        <ele>1376.8</ele>
        <time>2021-08-28T06:56:52Z</time>
      </trkpt>
      <trkpt lat="42.99225" lon="-0.20397">
        <ele>1377.2</ele>
        <time>2021-08-28T06:56:53Z</time>
      </trkpt>
      <trkpt lat="42.99226" lon="-0.20398">
        <ele>1377.4</ele>
        <time>2021-08-28T06:56:54Z</time>
      </trkpt>
      <trkpt lat="42.99228" lon="-0.20399">
        <ele>1377.8</ele>
        <time>2021-08-28T06:56:55Z</time>
      </trkpt>
      <trkpt lat="42.99229" lon="-0.204">
        <ele>1378.2</ele>
        <time>2021-08-28T06:56:56Z</time>
      </trkpt>
      <trkpt lat="42.99231" lon="-0.20401">
        <ele>1378.2</ele>
        <time>2021-08-28T06:56:57Z</time>
      </trkpt>
      <trkpt lat="42.99233" lon="-0.20403">
        <ele>1378.6</ele>
        <time>2021-08-28T06:56:58Z</time>
      </trkpt>
      <trkpt lat="42.99235" lon="-0.20405">
        <ele>1378.6</ele>
        <time>2021-08-28T06:56:59Z</time>
      </trkpt>
      <trkpt lat="42.99236" lon="-0.20407">
        <ele>1379</ele>
        <time>2021-08-28T06:57:00Z</time>
      </trkpt>
      <trkpt lat="42.99237" lon="-0.20411">
        <ele>1379</ele>
        <time>2021-08-28T06:57:01Z</time>
      </trkpt>
      <trkpt lat="42.99239" lon="-0.20413">
        <ele>1379.2</ele>
        <time>2021-08-28T06:57:02Z</time>
      </trkpt>
      <trkpt lat="42.99241" lon="-0.20414">
        <ele>1379.2</ele>
        <time>2021-08-28T06:57:03Z</time>
      </trkpt>
      <trkpt lat="42.99243" lon="-0.20416">
        <ele>1379.6</ele>
        <time>2021-08-28T06:57:04Z</time>
      </trkpt>
      <trkpt lat="42.99244" lon="-0.20418">
        <ele>1379.6</ele>
        <time>2021-08-28T06:57:05Z</time>
      </trkpt>
      <trkpt lat="42.99246" lon="-0.2042">
        <ele>1379.8</ele>
        <time>2021-08-28T06:57:06Z</time>
      </trkpt>
      <trkpt lat="42.99248" lon="-0.20421">
        <ele>1380</ele>
        <time>2021-08-28T06:57:07Z</time>
      </trkpt>
      <trkpt lat="42.99249" lon="-0.20424">
        <ele>1380.2</ele>
        <time>2021-08-28T06:57:08Z</time>
      </trkpt>
      <trkpt lat="42.9925" lon="-0.20426">
        <ele>1380.6</ele>
        <time>2021-08-28T06:57:09Z</time>
      </trkpt>
      <trkpt lat="42.99251" lon="-0.20428">
        <ele>1380.8</ele>
        <time>2021-08-28T06:57:10Z</time>
      </trkpt>
      <trkpt lat="42.99253" lon="-0.2043">
        <ele>1381.2</ele>
        <time>2021-08-28T06:57:11Z</time>
      </trkpt>
      <trkpt lat="42.99254" lon="-0.20431">
        <ele>1381.4</ele>
        <time>2021-08-28T06:57:12Z</time>
      </trkpt>
      <trkpt lat="42.99255" lon="-0.20434">
        <ele>1381.8</ele>
        <time>2021-08-28T06:57:13Z</time>
      </trkpt>
      <trkpt lat="42.99256" lon="-0.20436">
        <ele>1381.8</ele>
        <time>2021-08-28T06:57:14Z</time>
      </trkpt>
      <trkpt lat="42.99258" lon="-0.20438">
        <ele>1382</ele>
        <time>2021-08-28T06:57:15Z</time>
      </trkpt>
      <trkpt lat="42.99259" lon="-0.20441">
        <ele>1382.2</ele>
        <time>2021-08-28T06:57:16Z</time>
      </trkpt>
      <trkpt lat="42.9926" lon="-0.20442">
        <ele>1382.4</ele>
        <time>2021-08-28T06:57:17Z</time>
      </trkpt>
      <trkpt lat="42.99261" lon="-0.20444">
        <ele>1382.4</ele>
        <time>2021-08-28T06:57:18Z</time>
      </trkpt>
      <trkpt lat="42.99262" lon="-0.20446">
        <ele>1382.6</ele>
        <time>2021-08-28T06:57:19Z</time>
      </trkpt>
      <trkpt lat="42.99263" lon="-0.20447">
        <ele>1382.6</ele>
        <time>2021-08-28T06:57:20Z</time>
      </trkpt>
      <trkpt lat="42.99265" lon="-0.20449">
        <ele>1382.8</ele>
        <time>2021-08-28T06:57:21Z</time>
      </trkpt>
      <trkpt lat="42.99266" lon="-0.2045">
        <ele>1382.8</ele>
        <time>2021-08-28T06:57:22Z</time>
      </trkpt>
      <trkpt lat="42.99268" lon="-0.20451">
        <ele>1383.2</ele>
        <time>2021-08-28T06:57:23Z</time>
      </trkpt>
      <trkpt lat="42.99269" lon="-0.20452">
        <ele>1383.4</ele>
        <time>2021-08-28T06:57:24Z</time>
      </trkpt>
      <trkpt lat="42.99271" lon="-0.20454">
        <ele>1383.6</ele>
        <time>2021-08-28T06:57:25Z</time>
      </trkpt>
      <trkpt lat="42.99273" lon="-0.20455">
        <ele>1383.8</ele>
        <time>2021-08-28T06:57:26Z</time>
      </trkpt>
      <trkpt lat="42.99275" lon="-0.20457">
        <ele>1383.8</ele>
        <time>2021-08-28T06:57:27Z</time>
      </trkpt>
      <trkpt lat="42.99277" lon="-0.20458">
        <ele>1384</ele>
        <time>2021-08-28T06:57:28Z</time>
      </trkpt>
      <trkpt lat="42.99278" lon="-0.20459">
        <ele>1384.2</ele>
        <time>2021-08-28T06:57:29Z</time>
      </trkpt>
      <trkpt lat="42.99279" lon="-0.2046">
        <ele>1384.4</ele>
        <time>2021-08-28T06:57:30Z</time>
      </trkpt>
      <trkpt lat="42.99281" lon="-0.20461">
        <ele>1384.6</ele>
        <time>2021-08-28T06:57:31Z</time>
      </trkpt>
      <trkpt lat="42.99282" lon="-0.20462">
        <ele>1384.8</ele>
        <time>2021-08-28T06:57:32Z</time>
      </trkpt>
      <trkpt lat="42.99284" lon="-0.20463">
        <ele>1384.8</ele>
        <time>2021-08-28T06:57:33Z</time>
      </trkpt>
      <trkpt lat="42.99286" lon="-0.20464">
        <ele>1385</ele>
        <time>2021-08-28T06:57:34Z</time>
      </trkpt>
      <trkpt lat="42.99287" lon="-0.20465">
        <ele>1384.8</ele>
        <time>2021-08-28T06:57:35Z</time>
      </trkpt>
      <trkpt lat="42.99289" lon="-0.20466">
        <ele>1384.8</ele>
        <time>2021-08-28T06:57:36Z</time>
      </trkpt>
      <trkpt lat="42.99291" lon="-0.20466">
        <ele>1385</ele>
        <time>2021-08-28T06:57:37Z</time>
      </trkpt>
      <trkpt lat="42.99292" lon="-0.20466">
        <ele>1385</ele>
        <time>2021-08-28T06:57:38Z</time>
      </trkpt>
      <trkpt lat="42.99293" lon="-0.20466">
        <ele>1385.2</ele>
        <time>2021-08-28T06:57:39Z</time>
      </trkpt>
      <trkpt lat="42.99294" lon="-0.20466">
        <ele>1385.4</ele>
        <time>2021-08-28T06:57:40Z</time>
      </trkpt>
      <trkpt lat="42.99296" lon="-0.20465">
        <ele>1385.4</ele>
        <time>2021-08-28T06:57:41Z</time>
      </trkpt>
      <trkpt lat="42.99297" lon="-0.20464">
        <ele>1385.6</ele>
        <time>2021-08-28T06:57:42Z</time>
      </trkpt>
      <trkpt lat="42.99299" lon="-0.20464">
        <ele>1385.8</ele>
        <time>2021-08-28T06:57:43Z</time>
      </trkpt>
      <trkpt lat="42.993" lon="-0.20464">
        <ele>1385.8</ele>
        <time>2021-08-28T06:57:44Z</time>
      </trkpt>
      <trkpt lat="42.99302" lon="-0.20464">
        <ele>1386</ele>
        <time>2021-08-28T06:57:45Z</time>
      </trkpt>
      <trkpt lat="42.99303" lon="-0.20463">
        <ele>1386</ele>
        <time>2021-08-28T06:57:46Z</time>
      </trkpt>
      <trkpt lat="42.99305" lon="-0.20463">
        <ele>1386.2</ele>
        <time>2021-08-28T06:57:47Z</time>
      </trkpt>
      <trkpt lat="42.99307" lon="-0.20463">
        <ele>1386.2</ele>
        <time>2021-08-28T06:57:48Z</time>
      </trkpt>
      <trkpt lat="42.99309" lon="-0.20462">
        <ele>1386.4</ele>
        <time>2021-08-28T06:57:49Z</time>
      </trkpt>
      <trkpt lat="42.99311" lon="-0.20463">
        <ele>1386.6</ele>
        <time>2021-08-28T06:57:50Z</time>
      </trkpt>
      <trkpt lat="42.99313" lon="-0.20463">
        <ele>1386.8</ele>
        <time>2021-08-28T06:57:51Z</time>
      </trkpt>
      <trkpt lat="42.99316" lon="-0.20463">
        <ele>1387</ele>
        <time>2021-08-28T06:57:52Z</time>
      </trkpt>
      <trkpt lat="42.99318" lon="-0.20462">
        <ele>1387</ele>
        <time>2021-08-28T06:57:53Z</time>
      </trkpt>
      <trkpt lat="42.9932" lon="-0.20462">
        <ele>1387</ele>
        <time>2021-08-28T06:57:54Z</time>
      </trkpt>
      <trkpt lat="42.99322" lon="-0.20462">
        <ele>1387.2</ele>
        <time>2021-08-28T06:57:55Z</time>
      </trkpt>
      <trkpt lat="42.99324" lon="-0.20461">
        <ele>1387.2</ele>
        <time>2021-08-28T06:57:56Z</time>
      </trkpt>
      <trkpt lat="42.99328" lon="-0.20461">
        <ele>1387.4</ele>
        <time>2021-08-28T06:57:57Z</time>
      </trkpt>
      <trkpt lat="42.99331" lon="-0.2046">
        <ele>1387.6</ele>
        <time>2021-08-28T06:57:58Z</time>
      </trkpt>
      <trkpt lat="42.99335" lon="-0.2046">
        <ele>1387.6</ele>
        <time>2021-08-28T06:57:59Z</time>
      </trkpt>
      <trkpt lat="42.99339" lon="-0.20461">
        <ele>1387.8</ele>
        <time>2021-08-28T06:58:00Z</time>
      </trkpt>
      <trkpt lat="42.99342" lon="-0.20462">
        <ele>1387.8</ele>
        <time>2021-08-28T06:58:01Z</time>
      </trkpt>
      <trkpt lat="42.99346" lon="-0.20463">
        <ele>1387.8</ele>
        <time>2021-08-28T06:58:02Z</time>
      </trkpt>
      <trkpt lat="42.9935" lon="-0.20465">
        <ele>1387.8</ele>
        <time>2021-08-28T06:58:03Z</time>
      </trkpt>
      <trkpt lat="42.99353" lon="-0.20468">
        <ele>1387.8</ele>
        <time>2021-08-28T06:58:04Z</time>
      </trkpt>
      <trkpt lat="42.99356" lon="-0.20473">
        <ele>1387.8</ele>
        <time>2021-08-28T06:58:05Z</time>
      </trkpt>
      <trkpt lat="42.99359" lon="-0.20477">
        <ele>1387.8</ele>
        <time>2021-08-28T06:58:06Z</time>
      </trkpt>
      <trkpt lat="42.99362" lon="-0.20482">
        <ele>1387.6</ele>
        <time>2021-08-28T06:58:07Z</time>
      </trkpt>
      <trkpt lat="42.99366" lon="-0.20486">
        <ele>1387.6</ele>
        <time>2021-08-28T06:58:08Z</time>
      </trkpt>
      <trkpt lat="42.99369" lon="-0.20492">
        <ele>1387.6</ele>
        <time>2021-08-28T06:58:09Z</time>
      </trkpt>
      <trkpt lat="42.99372" lon="-0.20497">
        <ele>1387.6</ele>
        <time>2021-08-28T06:58:10Z</time>
      </trkpt>
      <trkpt lat="42.99375" lon="-0.20503">
        <ele>1387.4</ele>
        <time>2021-08-28T06:58:11Z</time>
      </trkpt>
      <trkpt lat="42.99378" lon="-0.20508">
        <ele>1387.4</ele>
        <time>2021-08-28T06:58:12Z</time>
      </trkpt>
      <trkpt lat="42.9938" lon="-0.20514">
        <ele>1387.4</ele>
        <time>2021-08-28T06:58:13Z</time>
      </trkpt>
      <trkpt lat="42.99388" lon="-0.20531">
        <ele>1387.2</ele>
        <time>2021-08-28T06:58:16Z</time>
      </trkpt>
      <trkpt lat="42.99399" lon="-0.20556">
        <ele>1387.2</ele>
        <time>2021-08-28T06:58:21Z</time>
      </trkpt>
      <trkpt lat="42.99402" lon="-0.2056">
        <ele>1387.2</ele>
        <time>2021-08-28T06:58:22Z</time>
      </trkpt>
      <trkpt lat="42.99405" lon="-0.20564">
        <ele>1387.4</ele>
        <time>2021-08-28T06:58:23Z</time>
      </trkpt>
      <trkpt lat="42.99408" lon="-0.20567">
        <ele>1387.4</ele>
        <time>2021-08-28T06:58:24Z</time>
      </trkpt>
      <trkpt lat="42.99412" lon="-0.20571">
        <ele>1387.4</ele>
        <time>2021-08-28T06:58:25Z</time>
      </trkpt>
      <trkpt lat="42.99415" lon="-0.20574">
        <ele>1387.6</ele>
        <time>2021-08-28T06:58:26Z</time>
      </trkpt>
      <trkpt lat="42.99417" lon="-0.20576">
        <ele>1387.6</ele>
        <time>2021-08-28T06:58:27Z</time>
      </trkpt>
      <trkpt lat="42.9942" lon="-0.20579">
        <ele>1387.6</ele>
        <time>2021-08-28T06:58:28Z</time>
      </trkpt>
      <trkpt lat="42.99423" lon="-0.20582">
        <ele>1387.6</ele>
        <time>2021-08-28T06:58:29Z</time>
      </trkpt>
      <trkpt lat="42.99427" lon="-0.20586">
        <ele>1387.6</ele>
        <time>2021-08-28T06:58:30Z</time>
      </trkpt>
      <trkpt lat="42.99442" lon="-0.20597">
        <ele>1388</ele>
        <time>2021-08-28T06:58:34Z</time>
      </trkpt>
      <trkpt lat="42.99454" lon="-0.20602">
        <ele>1388</ele>
        <time>2021-08-28T06:58:37Z</time>
      </trkpt>
      <trkpt lat="42.99457" lon="-0.20604">
        <ele>1388.4</ele>
        <time>2021-08-28T06:58:38Z</time>
      </trkpt>
      <trkpt lat="42.9946" lon="-0.20604">
        <ele>1388.2</ele>
        <time>2021-08-28T06:58:39Z</time>
      </trkpt>
      <trkpt lat="42.99464" lon="-0.20604">
        <ele>1388.2</ele>
        <time>2021-08-28T06:58:40Z</time>
      </trkpt>
      <trkpt lat="42.99468" lon="-0.20603">
        <ele>1388.4</ele>
        <time>2021-08-28T06:58:41Z</time>
      </trkpt>
      <trkpt lat="42.99471" lon="-0.20602">
        <ele>1388.6</ele>
        <time>2021-08-28T06:58:42Z</time>
      </trkpt>
      <trkpt lat="42.99474" lon="-0.20602">
        <ele>1388.8</ele>
        <time>2021-08-28T06:58:43Z</time>
      </trkpt>
      <trkpt lat="42.99476" lon="-0.20601">
        <ele>1389</ele>
        <time>2021-08-28T06:58:44Z</time>
      </trkpt>
      <trkpt lat="42.99479" lon="-0.20601">
        <ele>1389.2</ele>
        <time>2021-08-28T06:58:45Z</time>
      </trkpt>
      <trkpt lat="42.99487" lon="-0.20597">
        <ele>1389.8</ele>
        <time>2021-08-28T06:58:48Z</time>
      </trkpt>
      <trkpt lat="42.9949" lon="-0.20597">
        <ele>1390</ele>
        <time>2021-08-28T06:58:49Z</time>
      </trkpt>
      <trkpt lat="42.99492" lon="-0.20596">
        <ele>1390.2</ele>
        <time>2021-08-28T06:58:50Z</time>
      </trkpt>
      <trkpt lat="42.99495" lon="-0.20595">
        <ele>1390.4</ele>
        <time>2021-08-28T06:58:51Z</time>
      </trkpt>
      <trkpt lat="42.99497" lon="-0.20593">
        <ele>1390.6</ele>
        <time>2021-08-28T06:58:52Z</time>
      </trkpt>
      <trkpt lat="42.99499" lon="-0.20591">
        <ele>1390.6</ele>
        <time>2021-08-28T06:58:53Z</time>
      </trkpt>
      <trkpt lat="42.99502" lon="-0.20591">
        <ele>1391</ele>
        <time>2021-08-28T06:58:54Z</time>
      </trkpt>
      <trkpt lat="42.99505" lon="-0.20591">
        <ele>1391.2</ele>
        <time>2021-08-28T06:58:55Z</time>
      </trkpt>
      <trkpt lat="42.99509" lon="-0.2059">
        <ele>1391.6</ele>
        <time>2021-08-28T06:58:56Z</time>
      </trkpt>
      <trkpt lat="42.99512" lon="-0.20589">
        <ele>1391.6</ele>
        <time>2021-08-28T06:58:57Z</time>
      </trkpt>
      <trkpt lat="42.99515" lon="-0.20588">
        <ele>1391.8</ele>
        <time>2021-08-28T06:58:58Z</time>
      </trkpt>
      <trkpt lat="42.99519" lon="-0.20586">
        <ele>1391.8</ele>
        <time>2021-08-28T06:58:59Z</time>
      </trkpt>
      <trkpt lat="42.99522" lon="-0.20584">
        <ele>1391.8</ele>
        <time>2021-08-28T06:59:00Z</time>
      </trkpt>
      <trkpt lat="42.99525" lon="-0.20581">
        <ele>1392</ele>
        <time>2021-08-28T06:59:01Z</time>
      </trkpt>
      <trkpt lat="42.99527" lon="-0.20579">
        <ele>1392</ele>
        <time>2021-08-28T06:59:02Z</time>
      </trkpt>
      <trkpt lat="42.9953" lon="-0.20577">
        <ele>1392</ele>
        <time>2021-08-28T06:59:03Z</time>
      </trkpt>
      <trkpt lat="42.99533" lon="-0.20575">
        <ele>1392</ele>
        <time>2021-08-28T06:59:04Z</time>
      </trkpt>
      <trkpt lat="42.99535" lon="-0.20573">
        <ele>1392.2</ele>
        <time>2021-08-28T06:59:05Z</time>
      </trkpt>
      <trkpt lat="42.99538" lon="-0.20571">
        <ele>1392.2</ele>
        <time>2021-08-28T06:59:06Z</time>
      </trkpt>
      <trkpt lat="42.9954" lon="-0.20568">
        <ele>1392.4</ele>
        <time>2021-08-28T06:59:07Z</time>
      </trkpt>
      <trkpt lat="42.99542" lon="-0.20566">
        <ele>1392.6</ele>
        <time>2021-08-28T06:59:08Z</time>
      </trkpt>
      <trkpt lat="42.99544" lon="-0.20563">
        <ele>1392.8</ele>
        <time>2021-08-28T06:59:09Z</time>
      </trkpt>
      <trkpt lat="42.99547" lon="-0.20559">
        <ele>1392.8</ele>
        <time>2021-08-28T06:59:10Z</time>
      </trkpt>
      <trkpt lat="42.99549" lon="-0.20555">
        <ele>1393.2</ele>
        <time>2021-08-28T06:59:11Z</time>
      </trkpt>
      <trkpt lat="42.99551" lon="-0.20551">
        <ele>1393.2</ele>
        <time>2021-08-28T06:59:12Z</time>
      </trkpt>
      <trkpt lat="42.99554" lon="-0.20547">
        <ele>1393.4</ele>
        <time>2021-08-28T06:59:13Z</time>
      </trkpt>
      <trkpt lat="42.99555" lon="-0.20542">
        <ele>1393.4</ele>
        <time>2021-08-28T06:59:14Z</time>
      </trkpt>
      <trkpt lat="42.99557" lon="-0.20537">
        <ele>1393.6</ele>
        <time>2021-08-28T06:59:15Z</time>
      </trkpt>
      <trkpt lat="42.99558" lon="-0.20532">
        <ele>1393.6</ele>
        <time>2021-08-28T06:59:16Z</time>
      </trkpt>
      <trkpt lat="42.99559" lon="-0.20527">
        <ele>1393.6</ele>
        <time>2021-08-28T06:59:17Z</time>
      </trkpt>
      <trkpt lat="42.99561" lon="-0.20522">
        <ele>1393.6</ele>
        <time>2021-08-28T06:59:18Z</time>
      </trkpt>
      <trkpt lat="42.99564" lon="-0.20518">
        <ele>1393.6</ele>
        <time>2021-08-28T06:59:19Z</time>
      </trkpt>
      <trkpt lat="42.99567" lon="-0.20515">
        <ele>1393.4</ele>
        <time>2021-08-28T06:59:20Z</time>
      </trkpt>
      <trkpt lat="42.99571" lon="-0.20511">
        <ele>1393.4</ele>
        <time>2021-08-28T06:59:21Z</time>
      </trkpt>
      <trkpt lat="42.99575" lon="-0.20508">
        <ele>1393.4</ele>
        <time>2021-08-28T06:59:22Z</time>
      </trkpt>
      <trkpt lat="42.99581" lon="-0.20503">
        <ele>1393.4</ele>
        <time>2021-08-28T06:59:23Z</time>
      </trkpt>
      <trkpt lat="42.99587" lon="-0.20498">
        <ele>1393.2</ele>
        <time>2021-08-28T06:59:24Z</time>
      </trkpt>
      <trkpt lat="42.99593" lon="-0.20493">
        <ele>1393</ele>
        <time>2021-08-28T06:59:25Z</time>
      </trkpt>
      <trkpt lat="42.99606" lon="-0.20482">
        <ele>1391.8</ele>
        <time>2021-08-28T06:59:27Z</time>
      </trkpt>
      <trkpt lat="42.99611" lon="-0.20477">
        <ele>1391.2</ele>
        <time>2021-08-28T06:59:28Z</time>
      </trkpt>
      <trkpt lat="42.99617" lon="-0.20471">
        <ele>1391</ele>
        <time>2021-08-28T06:59:29Z</time>
      </trkpt>
      <trkpt lat="42.99623" lon="-0.20465">
        <ele>1390.8</ele>
        <time>2021-08-28T06:59:30Z</time>
      </trkpt>
      <trkpt lat="42.99628" lon="-0.20459">
        <ele>1390.4</ele>
        <time>2021-08-28T06:59:31Z</time>
      </trkpt>
      <trkpt lat="42.99643" lon="-0.2044">
        <ele>1389.8</ele>
        <time>2021-08-28T06:59:34Z</time>
      </trkpt>
      <trkpt lat="42.99648" lon="-0.20435">
        <ele>1389.6</ele>
        <time>2021-08-28T06:59:35Z</time>
      </trkpt>
      <trkpt lat="42.99653" lon="-0.20433">
        <ele>1389.4</ele>
        <time>2021-08-28T06:59:36Z</time>
      </trkpt>
      <trkpt lat="42.99658" lon="-0.20434">
        <ele>1389.2</ele>
        <time>2021-08-28T06:59:37Z</time>
      </trkpt>
      <trkpt lat="42.99662" lon="-0.20436">
        <ele>1389.2</ele>
        <time>2021-08-28T06:59:38Z</time>
      </trkpt>
      <trkpt lat="42.99666" lon="-0.20438">
        <ele>1389.2</ele>
        <time>2021-08-28T06:59:39Z</time>
      </trkpt>
      <trkpt lat="42.99669" lon="-0.2044">
        <ele>1389</ele>
        <time>2021-08-28T06:59:40Z</time>
      </trkpt>
      <trkpt lat="42.99672" lon="-0.20443">
        <ele>1388.8</ele>
        <time>2021-08-28T06:59:41Z</time>
      </trkpt>
      <trkpt lat="42.99675" lon="-0.20446">
        <ele>1388.8</ele>
        <time>2021-08-28T06:59:42Z</time>
      </trkpt>
      <trkpt lat="42.99686" lon="-0.20456">
        <ele>1388.8</ele>
        <time>2021-08-28T06:59:45Z</time>
      </trkpt>
      <trkpt lat="42.99702" lon="-0.20463">
        <ele>1388.4</ele>
        <time>2021-08-28T06:59:48Z</time>
      </trkpt>
      <trkpt lat="42.99709" lon="-0.20466">
        <ele>1388.4</ele>
        <time>2021-08-28T06:59:49Z</time>
      </trkpt>
      <trkpt lat="42.9972" lon="-0.20473">
        <ele>1387.6</ele>
        <time>2021-08-28T06:59:51Z</time>
      </trkpt>
      <trkpt lat="42.99726" lon="-0.20476">
        <ele>1387.2</ele>
        <time>2021-08-28T06:59:52Z</time>
      </trkpt>
      <trkpt lat="42.99732" lon="-0.2048">
        <ele>1387</ele>
        <time>2021-08-28T06:59:53Z</time>
      </trkpt>
      <trkpt lat="42.99736" lon="-0.20482">
        <ele>1386.8</ele>
        <time>2021-08-28T06:59:54Z</time>
      </trkpt>
      <trkpt lat="42.99741" lon="-0.20483">
        <ele>1386.8</ele>
        <time>2021-08-28T06:59:55Z</time>
      </trkpt>
      <trkpt lat="42.99745" lon="-0.20484">
        <ele>1386.6</ele>
        <time>2021-08-28T06:59:56Z</time>
      </trkpt>
      <trkpt lat="42.9975" lon="-0.20485">
        <ele>1386.6</ele>
        <time>2021-08-28T06:59:57Z</time>
      </trkpt>
      <trkpt lat="42.99754" lon="-0.20487">
        <ele>1386.6</ele>
        <time>2021-08-28T06:59:58Z</time>
      </trkpt>
      <trkpt lat="42.99759" lon="-0.20488">
        <ele>1386.6</ele>
        <time>2021-08-28T06:59:59Z</time>
      </trkpt>
      <trkpt lat="42.99788" lon="-0.20496">
        <ele>1386.8</ele>
        <time>2021-08-28T07:00:05Z</time>
      </trkpt>
      <trkpt lat="42.99793" lon="-0.20497">
        <ele>1387</ele>
        <time>2021-08-28T07:00:06Z</time>
      </trkpt>
      <trkpt lat="42.99797" lon="-0.20499">
        <ele>1387</ele>
        <time>2021-08-28T07:00:07Z</time>
      </trkpt>
      <trkpt lat="42.9981" lon="-0.20505">
        <ele>1387.2</ele>
        <time>2021-08-28T07:00:10Z</time>
      </trkpt>
      <trkpt lat="42.99818" lon="-0.20508">
        <ele>1387.4</ele>
        <time>2021-08-28T07:00:12Z</time>
      </trkpt>
      <trkpt lat="42.99823" lon="-0.20507">
        <ele>1387.6</ele>
        <time>2021-08-28T07:00:13Z</time>
      </trkpt>
      <trkpt lat="42.99828" lon="-0.20507">
        <ele>1387.6</ele>
        <time>2021-08-28T07:00:14Z</time>
      </trkpt>
      <trkpt lat="42.99837" lon="-0.20507">
        <ele>1387.8</ele>
        <time>2021-08-28T07:00:16Z</time>
      </trkpt>
      <trkpt lat="42.99841" lon="-0.20507">
        <ele>1387.8</ele>
        <time>2021-08-28T07:00:17Z</time>
      </trkpt>
      <trkpt lat="42.99845" lon="-0.20506">
        <ele>1387.8</ele>
        <time>2021-08-28T07:00:18Z</time>
      </trkpt>
      <trkpt lat="42.9985" lon="-0.20506">
        <ele>1387.8</ele>
        <time>2021-08-28T07:00:19Z</time>
      </trkpt>
      <trkpt lat="42.99855" lon="-0.20506">
        <ele>1388</ele>
        <time>2021-08-28T07:00:20Z</time>
      </trkpt>
      <trkpt lat="42.99858" lon="-0.20507">
        <ele>1388</ele>
        <time>2021-08-28T07:00:21Z</time>
      </trkpt>
      <trkpt lat="42.99862" lon="-0.20506">
        <ele>1388</ele>
        <time>2021-08-28T07:00:22Z</time>
      </trkpt>
      <trkpt lat="42.99866" lon="-0.20504">
        <ele>1388.2</ele>
        <time>2021-08-28T07:00:23Z</time>
      </trkpt>
      <trkpt lat="42.99875" lon="-0.20498">
        <ele>1388.2</ele>
        <time>2021-08-28T07:00:25Z</time>
      </trkpt>
      <trkpt lat="42.99878" lon="-0.20496">
        <ele>1388.8</ele>
        <time>2021-08-28T07:00:26Z</time>
      </trkpt>
      <trkpt lat="42.99881" lon="-0.20494">
        <ele>1389</ele>
        <time>2021-08-28T07:00:27Z</time>
      </trkpt>
      <trkpt lat="42.99885" lon="-0.20494">
        <ele>1389.2</ele>
        <time>2021-08-28T07:00:28Z</time>
      </trkpt>
      <trkpt lat="42.99889" lon="-0.20493">
        <ele>1389.2</ele>
        <time>2021-08-28T07:00:29Z</time>
      </trkpt>
      <trkpt lat="42.99892" lon="-0.20495">
        <ele>1389.4</ele>
        <time>2021-08-28T07:00:30Z</time>
      </trkpt>
      <trkpt lat="42.99898" lon="-0.20506">
        <ele>1389.6</ele>
        <time>2021-08-28T07:00:32Z</time>
      </trkpt>
      <trkpt lat="42.99899" lon="-0.20512">
        <ele>1389.6</ele>
        <time>2021-08-28T07:00:33Z</time>
      </trkpt>
      <trkpt lat="42.99899" lon="-0.20522">
        <ele>1389.8</ele>
        <time>2021-08-28T07:00:35Z</time>
      </trkpt>
      <trkpt lat="42.99899" lon="-0.20526">
        <ele>1389.8</ele>
        <time>2021-08-28T07:00:36Z</time>
      </trkpt>
      <trkpt lat="42.99898" lon="-0.20531">
        <ele>1390</ele>
        <time>2021-08-28T07:00:37Z</time>
      </trkpt>
      <trkpt lat="42.99897" lon="-0.20536">
        <ele>1390.2</ele>
        <time>2021-08-28T07:00:38Z</time>
      </trkpt>
      <trkpt lat="42.99895" lon="-0.20544">
        <ele>1390.2</ele>
        <time>2021-08-28T07:00:40Z</time>
      </trkpt>
      <trkpt lat="42.99893" lon="-0.20548">
        <ele>1390.4</ele>
        <time>2021-08-28T07:00:41Z</time>
      </trkpt>
      <trkpt lat="42.99892" lon="-0.20552">
        <ele>1390.4</ele>
        <time>2021-08-28T07:00:42Z</time>
      </trkpt>
      <trkpt lat="42.99892" lon="-0.20557">
        <ele>1390.6</ele>
        <time>2021-08-28T07:00:43Z</time>
      </trkpt>
      <trkpt lat="42.99891" lon="-0.20561">
        <ele>1390.6</ele>
        <time>2021-08-28T07:00:44Z</time>
      </trkpt>
      <trkpt lat="42.9989" lon="-0.20566">
        <ele>1390.8</ele>
        <time>2021-08-28T07:00:45Z</time>
      </trkpt>
      <trkpt lat="42.99889" lon="-0.20571">
        <ele>1391</ele>
        <time>2021-08-28T07:00:46Z</time>
      </trkpt>
      <trkpt lat="42.99889" lon="-0.20576">
        <ele>1391.2</ele>
        <time>2021-08-28T07:00:47Z</time>
      </trkpt>
      <trkpt lat="42.99887" lon="-0.20581">
        <ele>1391.4</ele>
        <time>2021-08-28T07:00:48Z</time>
      </trkpt>
      <trkpt lat="42.99886" lon="-0.20587">
        <ele>1391.4</ele>
        <time>2021-08-28T07:00:49Z</time>
      </trkpt>
      <trkpt lat="42.99885" lon="-0.20592">
        <ele>1391.6</ele>
        <time>2021-08-28T07:00:50Z</time>
      </trkpt>
      <trkpt lat="42.99884" lon="-0.20599">
        <ele>1391.6</ele>
        <time>2021-08-28T07:00:51Z</time>
      </trkpt>
      <trkpt lat="42.99883" lon="-0.20606">
        <ele>1391.8</ele>
        <time>2021-08-28T07:00:52Z</time>
      </trkpt>
      <trkpt lat="42.99881" lon="-0.20613">
        <ele>1391.8</ele>
        <time>2021-08-28T07:00:53Z</time>
      </trkpt>
      <trkpt lat="42.99879" lon="-0.2062">
        <ele>1391.8</ele>
        <time>2021-08-28T07:00:54Z</time>
      </trkpt>
      <trkpt lat="42.99878" lon="-0.20627">
        <ele>1391.8</ele>
        <time>2021-08-28T07:00:55Z</time>
      </trkpt>
      <trkpt lat="42.99875" lon="-0.20635">
        <ele>1391.8</ele>
        <time>2021-08-28T07:00:56Z</time>
      </trkpt>
      <trkpt lat="42.99874" lon="-0.20642">
        <ele>1391.8</ele>
        <time>2021-08-28T07:00:57Z</time>
      </trkpt>
      <trkpt lat="42.99871" lon="-0.20652">
        <ele>1391.6</ele>
        <time>2021-08-28T07:00:58Z</time>
      </trkpt>
      <trkpt lat="42.9987" lon="-0.20659">
        <ele>1391.6</ele>
        <time>2021-08-28T07:00:59Z</time>
      </trkpt>
      <trkpt lat="42.99868" lon="-0.20671">
        <ele>1391</ele>
        <time>2021-08-28T07:01:00Z</time>
      </trkpt>
      <trkpt lat="42.99868" lon="-0.20681">
        <ele>1390.6</ele>
        <time>2021-08-28T07:01:01Z</time>
      </trkpt>
      <trkpt lat="42.99869" lon="-0.20691">
        <ele>1390.2</ele>
        <time>2021-08-28T07:01:02Z</time>
      </trkpt>
      <trkpt lat="42.9987" lon="-0.20713">
        <ele>1389.8</ele>
        <time>2021-08-28T07:01:04Z</time>
      </trkpt>
      <trkpt lat="42.99873" lon="-0.20734">
        <ele>1389.4</ele>
        <time>2021-08-28T07:01:06Z</time>
      </trkpt>
      <trkpt lat="42.99873" lon="-0.20742">
        <ele>1388.8</ele>
        <time>2021-08-28T07:01:07Z</time>
      </trkpt>
      <trkpt lat="42.99873" lon="-0.20754">
        <ele>1388.4</ele>
        <time>2021-08-28T07:01:08Z</time>
      </trkpt>
      <trkpt lat="42.99872" lon="-0.20764">
        <ele>1388</ele>
        <time>2021-08-28T07:01:09Z</time>
      </trkpt>
      <trkpt lat="42.99873" lon="-0.20773">
        <ele>1388</ele>
        <time>2021-08-28T07:01:10Z</time>
      </trkpt>
      <trkpt lat="42.99873" lon="-0.2078">
        <ele>1387.6</ele>
        <time>2021-08-28T07:01:11Z</time>
      </trkpt>
      <trkpt lat="42.99873" lon="-0.20789">
        <ele>1387.4</ele>
        <time>2021-08-28T07:01:12Z</time>
      </trkpt>
      <trkpt lat="42.99874" lon="-0.20797">
        <ele>1387.2</ele>
        <time>2021-08-28T07:01:13Z</time>
      </trkpt>
      <trkpt lat="42.99874" lon="-0.20804">
        <ele>1387</ele>
        <time>2021-08-28T07:01:14Z</time>
      </trkpt>
      <trkpt lat="42.99875" lon="-0.2081">
        <ele>1387</ele>
        <time>2021-08-28T07:01:15Z</time>
      </trkpt>
      <trkpt lat="42.99875" lon="-0.20815">
        <ele>1387</ele>
        <time>2021-08-28T07:01:16Z</time>
      </trkpt>
      <trkpt lat="42.99875" lon="-0.20823">
        <ele>1386.8</ele>
        <time>2021-08-28T07:01:17Z</time>
      </trkpt>
      <trkpt lat="42.99875" lon="-0.20829">
        <ele>1387</ele>
        <time>2021-08-28T07:01:18Z</time>
      </trkpt>
      <trkpt lat="42.99876" lon="-0.20842">
        <ele>1387.2</ele>
        <time>2021-08-28T07:01:20Z</time>
      </trkpt>
      <trkpt lat="42.99877" lon="-0.20855">
        <ele>1387.4</ele>
        <time>2021-08-28T07:01:22Z</time>
      </trkpt>
      <trkpt lat="42.99878" lon="-0.20861">
        <ele>1387.4</ele>
        <time>2021-08-28T07:01:23Z</time>
      </trkpt>
      <trkpt lat="42.99878" lon="-0.20866">
        <ele>1387.6</ele>
        <time>2021-08-28T07:01:24Z</time>
      </trkpt>
      <trkpt lat="42.99878" lon="-0.2087">
        <ele>1387.6</ele>
        <time>2021-08-28T07:01:25Z</time>
      </trkpt>
      <trkpt lat="42.99879" lon="-0.20875">
        <ele>1387.6</ele>
        <time>2021-08-28T07:01:26Z</time>
      </trkpt>
      <trkpt lat="42.99879" lon="-0.20879">
        <ele>1387.8</ele>
        <time>2021-08-28T07:01:27Z</time>
      </trkpt>
      <trkpt lat="42.9988" lon="-0.20883">
        <ele>1388</ele>
        <time>2021-08-28T07:01:28Z</time>
      </trkpt>
      <trkpt lat="42.9988" lon="-0.20886">
        <ele>1388.4</ele>
        <time>2021-08-28T07:01:29Z</time>
      </trkpt>
      <trkpt lat="42.99881" lon="-0.20891">
        <ele>1389</ele>
        <time>2021-08-28T07:01:30Z</time>
      </trkpt>
      <trkpt lat="42.99881" lon="-0.20895">
        <ele>1389.2</ele>
        <time>2021-08-28T07:01:31Z</time>
      </trkpt>
      <trkpt lat="42.99883" lon="-0.20904">
        <ele>1389.8</ele>
        <time>2021-08-28T07:01:34Z</time>
      </trkpt>
      <trkpt lat="42.99884" lon="-0.20907">
        <ele>1390.2</ele>
        <time>2021-08-28T07:01:35Z</time>
      </trkpt>
      <trkpt lat="42.99884" lon="-0.2091">
        <ele>1390.4</ele>
        <time>2021-08-28T07:01:36Z</time>
      </trkpt>
      <trkpt lat="42.99885" lon="-0.20912">
        <ele>1390.6</ele>
        <time>2021-08-28T07:01:37Z</time>
      </trkpt>
      <trkpt lat="42.99886" lon="-0.20915">
        <ele>1390.8</ele>
        <time>2021-08-28T07:01:38Z</time>
      </trkpt>
      <trkpt lat="42.99887" lon="-0.20917">
        <ele>1390.8</ele>
        <time>2021-08-28T07:01:39Z</time>
      </trkpt>
      <trkpt lat="42.99888" lon="-0.2092">
        <ele>1391.2</ele>
        <time>2021-08-28T07:01:40Z</time>
      </trkpt>
      <trkpt lat="42.9989" lon="-0.20922">
        <ele>1391.6</ele>
        <time>2021-08-28T07:01:41Z</time>
      </trkpt>
      <trkpt lat="42.99891" lon="-0.20924">
        <ele>1391.8</ele>
        <time>2021-08-28T07:01:42Z</time>
      </trkpt>
      <trkpt lat="42.99892" lon="-0.20927">
        <ele>1392</ele>
        <time>2021-08-28T07:01:43Z</time>
      </trkpt>
      <trkpt lat="42.99893" lon="-0.20929">
        <ele>1392.2</ele>
        <time>2021-08-28T07:01:44Z</time>
      </trkpt>
      <trkpt lat="42.99894" lon="-0.20931">
        <ele>1392.4</ele>
        <time>2021-08-28T07:01:45Z</time>
      </trkpt>
      <trkpt lat="42.99895" lon="-0.20934">
        <ele>1392.8</ele>
        <time>2021-08-28T07:01:46Z</time>
      </trkpt>
      <trkpt lat="42.99896" lon="-0.20936">
        <ele>1393.2</ele>
        <time>2021-08-28T07:01:47Z</time>
      </trkpt>
      <trkpt lat="42.99897" lon="-0.20938">
        <ele>1393.6</ele>
        <time>2021-08-28T07:01:48Z</time>
      </trkpt>
      <trkpt lat="42.99897" lon="-0.2094">
        <ele>1393.8</ele>
        <time>2021-08-28T07:01:49Z</time>
      </trkpt>
      <trkpt lat="42.99897" lon="-0.20943">
        <ele>1394</ele>
        <time>2021-08-28T07:01:50Z</time>
      </trkpt>
      <trkpt lat="42.99898" lon="-0.20946">
        <ele>1394.2</ele>
        <time>2021-08-28T07:01:51Z</time>
      </trkpt>
      <trkpt lat="42.99898" lon="-0.20948">
        <ele>1394.6</ele>
        <time>2021-08-28T07:01:52Z</time>
      </trkpt>
      <trkpt lat="42.99898" lon="-0.20951">
        <ele>1394.8</ele>
        <time>2021-08-28T07:01:53Z</time>
      </trkpt>
      <trkpt lat="42.99898" lon="-0.20953">
        <ele>1395.2</ele>
        <time>2021-08-28T07:01:54Z</time>
      </trkpt>
      <trkpt lat="42.99898" lon="-0.20956">
        <ele>1395.4</ele>
        <time>2021-08-28T07:01:55Z</time>
      </trkpt>
      <trkpt lat="42.99897" lon="-0.20959">
        <ele>1395.6</ele>
        <time>2021-08-28T07:01:56Z</time>
      </trkpt>
      <trkpt lat="42.99895" lon="-0.20962">
        <ele>1395.8</ele>
        <time>2021-08-28T07:01:57Z</time>
      </trkpt>
      <trkpt lat="42.99894" lon="-0.20965">
        <ele>1396</ele>
        <time>2021-08-28T07:01:58Z</time>
      </trkpt>
      <trkpt lat="42.99892" lon="-0.20968">
        <ele>1396.2</ele>
        <time>2021-08-28T07:01:59Z</time>
      </trkpt>
      <trkpt lat="42.99891" lon="-0.20971">
        <ele>1396.2</ele>
        <time>2021-08-28T07:02:00Z</time>
      </trkpt>
      <trkpt lat="42.99889" lon="-0.20974">
        <ele>1396.4</ele>
        <time>2021-08-28T07:02:01Z</time>
      </trkpt>
      <trkpt lat="42.99886" lon="-0.20977">
        <ele>1396.6</ele>
        <time>2021-08-28T07:02:02Z</time>
      </trkpt>
      <trkpt lat="42.99884" lon="-0.2098">
        <ele>1396.6</ele>
        <time>2021-08-28T07:02:03Z</time>
      </trkpt>
      <trkpt lat="42.99882" lon="-0.20983">
        <ele>1396.8</ele>
        <time>2021-08-28T07:02:04Z</time>
      </trkpt>
      <trkpt lat="42.9988" lon="-0.20987">
        <ele>1396.8</ele>
        <time>2021-08-28T07:02:05Z</time>
      </trkpt>
      <trkpt lat="42.99877" lon="-0.20989">
        <ele>1397</ele>
        <time>2021-08-28T07:02:06Z</time>
      </trkpt>
      <trkpt lat="42.99875" lon="-0.20992">
        <ele>1397</ele>
        <time>2021-08-28T07:02:07Z</time>
      </trkpt>
      <trkpt lat="42.99873" lon="-0.20996">
        <ele>1397.2</ele>
        <time>2021-08-28T07:02:08Z</time>
      </trkpt>
      <trkpt lat="42.9987" lon="-0.20999">
        <ele>1397.2</ele>
        <time>2021-08-28T07:02:09Z</time>
      </trkpt>
      <trkpt lat="42.99868" lon="-0.21003">
        <ele>1397.2</ele>
        <time>2021-08-28T07:02:10Z</time>
      </trkpt>
      <trkpt lat="42.99864" lon="-0.21007">
        <ele>1397.2</ele>
        <time>2021-08-28T07:02:11Z</time>
      </trkpt>
      <trkpt lat="42.99861" lon="-0.21011">
        <ele>1397.2</ele>
        <time>2021-08-28T07:02:12Z</time>
      </trkpt>
      <trkpt lat="42.99858" lon="-0.21015">
        <ele>1397.2</ele>
        <time>2021-08-28T07:02:13Z</time>
      </trkpt>
      <trkpt lat="42.99853" lon="-0.21018">
        <ele>1397.2</ele>
        <time>2021-08-28T07:02:14Z</time>
      </trkpt>
      <trkpt lat="42.99849" lon="-0.21022">
        <ele>1397.2</ele>
        <time>2021-08-28T07:02:15Z</time>
      </trkpt>
      <trkpt lat="42.99846" lon="-0.21025">
        <ele>1397.2</ele>
        <time>2021-08-28T07:02:16Z</time>
      </trkpt>
      <trkpt lat="42.99842" lon="-0.21028">
        <ele>1397.2</ele>
        <time>2021-08-28T07:02:17Z</time>
      </trkpt>
      <trkpt lat="42.99838" lon="-0.2103">
        <ele>1397.2</ele>
        <time>2021-08-28T07:02:18Z</time>
      </trkpt>
      <trkpt lat="42.99834" lon="-0.21033">
        <ele>1396.8</ele>
        <time>2021-08-28T07:02:19Z</time>
      </trkpt>
      <trkpt lat="42.9983" lon="-0.21035">
        <ele>1396.8</ele>
        <time>2021-08-28T07:02:20Z</time>
      </trkpt>
      <trkpt lat="42.99826" lon="-0.21038">
        <ele>1396.8</ele>
        <time>2021-08-28T07:02:21Z</time>
      </trkpt>
      <trkpt lat="42.99821" lon="-0.2104">
        <ele>1396.8</ele>
        <time>2021-08-28T07:02:22Z</time>
      </trkpt>
      <trkpt lat="42.99799" lon="-0.21051">
        <ele>1396.4</ele>
        <time>2021-08-28T07:02:27Z</time>
      </trkpt>
      <trkpt lat="42.99788" lon="-0.21055">
        <ele>1396.6</ele>
        <time>2021-08-28T07:02:30Z</time>
      </trkpt>
      <trkpt lat="42.99785" lon="-0.21056">
        <ele>1396.6</ele>
        <time>2021-08-28T07:02:31Z</time>
      </trkpt>
      <trkpt lat="42.99782" lon="-0.21058">
        <ele>1396.8</ele>
        <time>2021-08-28T07:02:32Z</time>
      </trkpt>
      <trkpt lat="42.99779" lon="-0.21058">
        <ele>1396.8</ele>
        <time>2021-08-28T07:02:33Z</time>
      </trkpt>
      <trkpt lat="42.99776" lon="-0.2106">
        <ele>1397.4</ele>
        <time>2021-08-28T07:02:34Z</time>
      </trkpt>
      <trkpt lat="42.99772" lon="-0.21061">
        <ele>1397.6</ele>
        <time>2021-08-28T07:02:35Z</time>
      </trkpt>
      <trkpt lat="42.99754" lon="-0.21069">
        <ele>1398.6</ele>
        <time>2021-08-28T07:02:40Z</time>
      </trkpt>
      <trkpt lat="42.99739" lon="-0.21075">
        <ele>1399.6</ele>
        <time>2021-08-28T07:02:45Z</time>
      </trkpt>
      <trkpt lat="42.99736" lon="-0.21076">
        <ele>1399.8</ele>
        <time>2021-08-28T07:02:46Z</time>
      </trkpt>
      <trkpt lat="42.99734" lon="-0.21077">
        <ele>1400</ele>
        <time>2021-08-28T07:02:47Z</time>
      </trkpt>
      <trkpt lat="42.99731" lon="-0.2108">
        <ele>1400.2</ele>
        <time>2021-08-28T07:02:48Z</time>
      </trkpt>
      <trkpt lat="42.99729" lon="-0.21082">
        <ele>1400.6</ele>
        <time>2021-08-28T07:02:49Z</time>
      </trkpt>
      <trkpt lat="42.99728" lon="-0.21083">
        <ele>1400.8</ele>
        <time>2021-08-28T07:02:50Z</time>
      </trkpt>
      <trkpt lat="42.99726" lon="-0.21086">
        <ele>1401</ele>
        <time>2021-08-28T07:02:51Z</time>
      </trkpt>
      <trkpt lat="42.99724" lon="-0.21088">
        <ele>1401.4</ele>
        <time>2021-08-28T07:02:52Z</time>
      </trkpt>
      <trkpt lat="42.99722" lon="-0.21091">
        <ele>1402</ele>
        <time>2021-08-28T07:02:53Z</time>
      </trkpt>
      <trkpt lat="42.99718" lon="-0.21094">
        <ele>1402.2</ele>
        <time>2021-08-28T07:02:54Z</time>
      </trkpt>
      <trkpt lat="42.99715" lon="-0.21096">
        <ele>1402.4</ele>
        <time>2021-08-28T07:02:55Z</time>
      </trkpt>
      <trkpt lat="42.99712" lon="-0.21099">
        <ele>1402.6</ele>
        <time>2021-08-28T07:02:56Z</time>
      </trkpt>
      <trkpt lat="42.99709" lon="-0.21102">
        <ele>1403</ele>
        <time>2021-08-28T07:02:57Z</time>
      </trkpt>
      <trkpt lat="42.99706" lon="-0.21105">
        <ele>1402.8</ele>
        <time>2021-08-28T07:02:58Z</time>
      </trkpt>
      <trkpt lat="42.99702" lon="-0.21109">
        <ele>1403</ele>
        <time>2021-08-28T07:02:59Z</time>
      </trkpt>
      <trkpt lat="42.99699" lon="-0.21113">
        <ele>1403.2</ele>
        <time>2021-08-28T07:03:00Z</time>
      </trkpt>
      <trkpt lat="42.99696" lon="-0.21117">
        <ele>1403.2</ele>
        <time>2021-08-28T07:03:01Z</time>
      </trkpt>
      <trkpt lat="42.99694" lon="-0.21121">
        <ele>1403.2</ele>
        <time>2021-08-28T07:03:02Z</time>
      </trkpt>
      <trkpt lat="42.99692" lon="-0.21126">
        <ele>1403.2</ele>
        <time>2021-08-28T07:03:03Z</time>
      </trkpt>
      <trkpt lat="42.99689" lon="-0.21131">
        <ele>1403.4</ele>
        <time>2021-08-28T07:03:04Z</time>
      </trkpt>
      <trkpt lat="42.99686" lon="-0.21136">
        <ele>1403.4</ele>
        <time>2021-08-28T07:03:05Z</time>
      </trkpt>
      <trkpt lat="42.99682" lon="-0.21142">
        <ele>1403.4</ele>
        <time>2021-08-28T07:03:06Z</time>
      </trkpt>
      <trkpt lat="42.99679" lon="-0.21147">
        <ele>1403.6</ele>
        <time>2021-08-28T07:03:07Z</time>
      </trkpt>
      <trkpt lat="42.99676" lon="-0.21152">
        <ele>1403.6</ele>
        <time>2021-08-28T07:03:08Z</time>
      </trkpt>
      <trkpt lat="42.99672" lon="-0.21157">
        <ele>1403.6</ele>
        <time>2021-08-28T07:03:09Z</time>
      </trkpt>
      <trkpt lat="42.99669" lon="-0.21161">
        <ele>1403.6</ele>
        <time>2021-08-28T07:03:10Z</time>
      </trkpt>
      <trkpt lat="42.99666" lon="-0.21164">
        <ele>1403.6</ele>
        <time>2021-08-28T07:03:11Z</time>
      </trkpt>
      <trkpt lat="42.99663" lon="-0.21167">
        <ele>1403.6</ele>
        <time>2021-08-28T07:03:12Z</time>
      </trkpt>
      <trkpt lat="42.9966" lon="-0.2117">
        <ele>1403.6</ele>
        <time>2021-08-28T07:03:13Z</time>
      </trkpt>
      <trkpt lat="42.99657" lon="-0.21173">
        <ele>1403.8</ele>
        <time>2021-08-28T07:03:14Z</time>
      </trkpt>
      <trkpt lat="42.99654" lon="-0.21174">
        <ele>1403.8</ele>
        <time>2021-08-28T07:03:15Z</time>
      </trkpt>
      <trkpt lat="42.9965" lon="-0.21176">
        <ele>1404</ele>
        <time>2021-08-28T07:03:16Z</time>
      </trkpt>
      <trkpt lat="42.99647" lon="-0.21177">
        <ele>1404</ele>
        <time>2021-08-28T07:03:17Z</time>
      </trkpt>
      <trkpt lat="42.99644" lon="-0.21178">
        <ele>1404.2</ele>
        <time>2021-08-28T07:03:18Z</time>
      </trkpt>
      <trkpt lat="42.9964" lon="-0.21179">
        <ele>1404.4</ele>
        <time>2021-08-28T07:03:19Z</time>
      </trkpt>
      <trkpt lat="42.99637" lon="-0.2118">
        <ele>1404.4</ele>
        <time>2021-08-28T07:03:20Z</time>
      </trkpt>
      <trkpt lat="42.99634" lon="-0.21181">
        <ele>1404.6</ele>
        <time>2021-08-28T07:03:21Z</time>
      </trkpt>
      <trkpt lat="42.9963" lon="-0.21181">
        <ele>1404.8</ele>
        <time>2021-08-28T07:03:22Z</time>
      </trkpt>
      <trkpt lat="42.99627" lon="-0.21182">
        <ele>1404.8</ele>
        <time>2021-08-28T07:03:23Z</time>
      </trkpt>
      <trkpt lat="42.99624" lon="-0.21182">
        <ele>1405</ele>
        <time>2021-08-28T07:03:24Z</time>
      </trkpt>
      <trkpt lat="42.99621" lon="-0.21182">
        <ele>1405.2</ele>
        <time>2021-08-28T07:03:25Z</time>
      </trkpt>
      <trkpt lat="42.99618" lon="-0.21181">
        <ele>1405.2</ele>
        <time>2021-08-28T07:03:26Z</time>
      </trkpt>
      <trkpt lat="42.99616" lon="-0.21181">
        <ele>1405.6</ele>
        <time>2021-08-28T07:03:27Z</time>
      </trkpt>
      <trkpt lat="42.99613" lon="-0.21181">
        <ele>1405.8</ele>
        <time>2021-08-28T07:03:28Z</time>
      </trkpt>
      <trkpt lat="42.9961" lon="-0.2118">
        <ele>1406</ele>
        <time>2021-08-28T07:03:29Z</time>
      </trkpt>
      <trkpt lat="42.99607" lon="-0.2118">
        <ele>1406.2</ele>
        <time>2021-08-28T07:03:30Z</time>
      </trkpt>
      <trkpt lat="42.99605" lon="-0.2118">
        <ele>1406.4</ele>
        <time>2021-08-28T07:03:31Z</time>
      </trkpt>
      <trkpt lat="42.99602" lon="-0.2118">
        <ele>1406.6</ele>
        <time>2021-08-28T07:03:32Z</time>
      </trkpt>
      <trkpt lat="42.996" lon="-0.2118">
        <ele>1407</ele>
        <time>2021-08-28T07:03:33Z</time>
      </trkpt>
      <trkpt lat="42.99597" lon="-0.21179">
        <ele>1407.2</ele>
        <time>2021-08-28T07:03:34Z</time>
      </trkpt>
      <trkpt lat="42.99595" lon="-0.21179">
        <ele>1407.6</ele>
        <time>2021-08-28T07:03:35Z</time>
      </trkpt>
      <trkpt lat="42.99592" lon="-0.21178">
        <ele>1408</ele>
        <time>2021-08-28T07:03:36Z</time>
      </trkpt>
      <trkpt lat="42.99589" lon="-0.21178">
        <ele>1408</ele>
        <time>2021-08-28T07:03:37Z</time>
      </trkpt>
      <trkpt lat="42.99586" lon="-0.21177">
        <ele>1408.2</ele>
        <time>2021-08-28T07:03:38Z</time>
      </trkpt>
      <trkpt lat="42.99584" lon="-0.21177">
        <ele>1408.4</ele>
        <time>2021-08-28T07:03:39Z</time>
      </trkpt>
      <trkpt lat="42.99581" lon="-0.21176">
        <ele>1408.8</ele>
        <time>2021-08-28T07:03:40Z</time>
      </trkpt>
      <trkpt lat="42.99578" lon="-0.21176">
        <ele>1408.8</ele>
        <time>2021-08-28T07:03:41Z</time>
      </trkpt>
      <trkpt lat="42.99577" lon="-0.21176">
        <ele>1409</ele>
        <time>2021-08-28T07:03:42Z</time>
      </trkpt>
      <trkpt lat="42.99574" lon="-0.21176">
        <ele>1409.2</ele>
        <time>2021-08-28T07:03:43Z</time>
      </trkpt>
      <trkpt lat="42.99571" lon="-0.21176">
        <ele>1409.4</ele>
        <time>2021-08-28T07:03:44Z</time>
      </trkpt>
      <trkpt lat="42.99568" lon="-0.21175">
        <ele>1409.6</ele>
        <time>2021-08-28T07:03:45Z</time>
      </trkpt>
      <trkpt lat="42.99566" lon="-0.21174">
        <ele>1409.8</ele>
        <time>2021-08-28T07:03:46Z</time>
      </trkpt>
      <trkpt lat="42.99563" lon="-0.21173">
        <ele>1410</ele>
        <time>2021-08-28T07:03:47Z</time>
      </trkpt>
      <trkpt lat="42.99561" lon="-0.21173">
        <ele>1410.2</ele>
        <time>2021-08-28T07:03:48Z</time>
      </trkpt>
      <trkpt lat="42.99559" lon="-0.21172">
        <ele>1410.4</ele>
        <time>2021-08-28T07:03:49Z</time>
      </trkpt>
      <trkpt lat="42.99556" lon="-0.21171">
        <ele>1410.6</ele>
        <time>2021-08-28T07:03:50Z</time>
      </trkpt>
      <trkpt lat="42.99553" lon="-0.21171">
        <ele>1410.6</ele>
        <time>2021-08-28T07:03:51Z</time>
      </trkpt>
      <trkpt lat="42.99551" lon="-0.21171">
        <ele>1410.8</ele>
        <time>2021-08-28T07:03:52Z</time>
      </trkpt>
      <trkpt lat="42.99548" lon="-0.2117">
        <ele>1411</ele>
        <time>2021-08-28T07:03:53Z</time>
      </trkpt>
      <trkpt lat="42.99545" lon="-0.2117">
        <ele>1411.2</ele>
        <time>2021-08-28T07:03:54Z</time>
      </trkpt>
      <trkpt lat="42.99543" lon="-0.21169">
        <ele>1411.2</ele>
        <time>2021-08-28T07:03:55Z</time>
      </trkpt>
      <trkpt lat="42.9954" lon="-0.21168">
        <ele>1411.4</ele>
        <time>2021-08-28T07:03:56Z</time>
      </trkpt>
      <trkpt lat="42.99538" lon="-0.21168">
        <ele>1411.6</ele>
        <time>2021-08-28T07:03:57Z</time>
      </trkpt>
      <trkpt lat="42.99535" lon="-0.21167">
        <ele>1411.8</ele>
        <time>2021-08-28T07:03:58Z</time>
      </trkpt>
      <trkpt lat="42.99533" lon="-0.21167">
        <ele>1411.8</ele>
        <time>2021-08-28T07:03:59Z</time>
      </trkpt>
      <trkpt lat="42.99531" lon="-0.21166">
        <ele>1412</ele>
        <time>2021-08-28T07:04:00Z</time>
      </trkpt>
      <trkpt lat="42.99528" lon="-0.21165">
        <ele>1412.2</ele>
        <time>2021-08-28T07:04:01Z</time>
      </trkpt>
      <trkpt lat="42.99526" lon="-0.21164">
        <ele>1412.2</ele>
        <time>2021-08-28T07:04:02Z</time>
      </trkpt>
      <trkpt lat="42.99523" lon="-0.21163">
        <ele>1412.4</ele>
        <time>2021-08-28T07:04:03Z</time>
      </trkpt>
      <trkpt lat="42.99521" lon="-0.21162">
        <ele>1412.4</ele>
        <time>2021-08-28T07:04:04Z</time>
      </trkpt>
      <trkpt lat="42.99519" lon="-0.21161">
        <ele>1412.6</ele>
        <time>2021-08-28T07:04:05Z</time>
      </trkpt>
      <trkpt lat="42.99516" lon="-0.2116">
        <ele>1412.8</ele>
        <time>2021-08-28T07:04:06Z</time>
      </trkpt>
      <trkpt lat="42.99514" lon="-0.21159">
        <ele>1413.2</ele>
        <time>2021-08-28T07:04:07Z</time>
      </trkpt>
      <trkpt lat="42.99512" lon="-0.21159">
        <ele>1413.4</ele>
        <time>2021-08-28T07:04:08Z</time>
      </trkpt>
      <trkpt lat="42.99509" lon="-0.21158">
        <ele>1413.6</ele>
        <time>2021-08-28T07:04:09Z</time>
      </trkpt>
      <trkpt lat="42.99507" lon="-0.21158">
        <ele>1413.6</ele>
        <time>2021-08-28T07:04:10Z</time>
      </trkpt>
      <trkpt lat="42.99505" lon="-0.21157">
        <ele>1413.8</ele>
        <time>2021-08-28T07:04:11Z</time>
      </trkpt>
      <trkpt lat="42.99504" lon="-0.21156">
        <ele>1414</ele>
        <time>2021-08-28T07:04:12Z</time>
      </trkpt>
      <trkpt lat="42.99502" lon="-0.21156">
        <ele>1414.2</ele>
        <time>2021-08-28T07:04:13Z</time>
      </trkpt>
      <trkpt lat="42.995" lon="-0.21155">
        <ele>1414.4</ele>
        <time>2021-08-28T07:04:14Z</time>
      </trkpt>
      <trkpt lat="42.99499" lon="-0.21154">
        <ele>1414.6</ele>
        <time>2021-08-28T07:04:15Z</time>
      </trkpt>
      <trkpt lat="42.99497" lon="-0.21154">
        <ele>1415</ele>
        <time>2021-08-28T07:04:16Z</time>
      </trkpt>
      <trkpt lat="42.99495" lon="-0.21153">
        <ele>1415.2</ele>
        <time>2021-08-28T07:04:17Z</time>
      </trkpt>
      <trkpt lat="42.99494" lon="-0.21151">
        <ele>1415.2</ele>
        <time>2021-08-28T07:04:18Z</time>
      </trkpt>
      <trkpt lat="42.99492" lon="-0.21151">
        <ele>1415.2</ele>
        <time>2021-08-28T07:04:19Z</time>
      </trkpt>
      <trkpt lat="42.9949" lon="-0.2115">
        <ele>1415.6</ele>
        <time>2021-08-28T07:04:20Z</time>
      </trkpt>
      <trkpt lat="42.99488" lon="-0.21149">
        <ele>1415.8</ele>
        <time>2021-08-28T07:04:21Z</time>
      </trkpt>
      <trkpt lat="42.99487" lon="-0.21148">
        <ele>1416.2</ele>
        <time>2021-08-28T07:04:22Z</time>
      </trkpt>
      <trkpt lat="42.99485" lon="-0.21146">
        <ele>1416.2</ele>
        <time>2021-08-28T07:04:23Z</time>
      </trkpt>
      <trkpt lat="42.99484" lon="-0.21145">
        <ele>1416.6</ele>
        <time>2021-08-28T07:04:24Z</time>
      </trkpt>
      <trkpt lat="42.99482" lon="-0.21144">
        <ele>1416.6</ele>
        <time>2021-08-28T07:04:25Z</time>
      </trkpt>
      <trkpt lat="42.9948" lon="-0.21143">
        <ele>1417.2</ele>
        <time>2021-08-28T07:04:26Z</time>
      </trkpt>
      <trkpt lat="42.99479" lon="-0.21142">
        <ele>1417.2</ele>
        <time>2021-08-28T07:04:27Z</time>
      </trkpt>
      <trkpt lat="42.99477" lon="-0.21141">
        <ele>1417.6</ele>
        <time>2021-08-28T07:04:28Z</time>
      </trkpt>
      <trkpt lat="42.99476" lon="-0.2114">
        <ele>1417.6</ele>
        <time>2021-08-28T07:04:29Z</time>
      </trkpt>
      <trkpt lat="42.99474" lon="-0.21139">
        <ele>1417.8</ele>
        <time>2021-08-28T07:04:30Z</time>
      </trkpt>
      <trkpt lat="42.99472" lon="-0.21138">
        <ele>1418</ele>
        <time>2021-08-28T07:04:31Z</time>
      </trkpt>
      <trkpt lat="42.9947" lon="-0.21137">
        <ele>1418.2</ele>
        <time>2021-08-28T07:04:32Z</time>
      </trkpt>
      <trkpt lat="42.99469" lon="-0.21136">
        <ele>1418.4</ele>
        <time>2021-08-28T07:04:33Z</time>
      </trkpt>
      <trkpt lat="42.99467" lon="-0.21135">
        <ele>1418.6</ele>
        <time>2021-08-28T07:04:34Z</time>
      </trkpt>
      <trkpt lat="42.99465" lon="-0.21133">
        <ele>1418.8</ele>
        <time>2021-08-28T07:04:35Z</time>
      </trkpt>
      <trkpt lat="42.99463" lon="-0.21132">
        <ele>1419</ele>
        <time>2021-08-28T07:04:36Z</time>
      </trkpt>
      <trkpt lat="42.99461" lon="-0.21132">
        <ele>1419</ele>
        <time>2021-08-28T07:04:37Z</time>
      </trkpt>
      <trkpt lat="42.99459" lon="-0.21131">
        <ele>1419.2</ele>
        <time>2021-08-28T07:04:38Z</time>
      </trkpt>
      <trkpt lat="42.99457" lon="-0.21131">
        <ele>1419.4</ele>
        <time>2021-08-28T07:04:39Z</time>
      </trkpt>
      <trkpt lat="42.99455" lon="-0.21131">
        <ele>1419.6</ele>
        <time>2021-08-28T07:04:40Z</time>
      </trkpt>
      <trkpt lat="42.99453" lon="-0.21132">
        <ele>1419.8</ele>
        <time>2021-08-28T07:04:41Z</time>
      </trkpt>
      <trkpt lat="42.99451" lon="-0.21132">
        <ele>1419.8</ele>
        <time>2021-08-28T07:04:42Z</time>
      </trkpt>
      <trkpt lat="42.99449" lon="-0.21133">
        <ele>1420.2</ele>
        <time>2021-08-28T07:04:43Z</time>
      </trkpt>
      <trkpt lat="42.99447" lon="-0.21133">
        <ele>1420.2</ele>
        <time>2021-08-28T07:04:44Z</time>
      </trkpt>
      <trkpt lat="42.99445" lon="-0.21134">
        <ele>1420.4</ele>
        <time>2021-08-28T07:04:45Z</time>
      </trkpt>
      <trkpt lat="42.99443" lon="-0.21134">
        <ele>1420.6</ele>
        <time>2021-08-28T07:04:46Z</time>
      </trkpt>
      <trkpt lat="42.99441" lon="-0.21135">
        <ele>1420.6</ele>
        <time>2021-08-28T07:04:47Z</time>
      </trkpt>
      <trkpt lat="42.99438" lon="-0.21135">
        <ele>1420.6</ele>
        <time>2021-08-28T07:04:48Z</time>
      </trkpt>
      <trkpt lat="42.99436" lon="-0.21136">
        <ele>1420.8</ele>
        <time>2021-08-28T07:04:49Z</time>
      </trkpt>
      <trkpt lat="42.99434" lon="-0.21136">
        <ele>1420.8</ele>
        <time>2021-08-28T07:04:50Z</time>
      </trkpt>
      <trkpt lat="42.99431" lon="-0.21136">
        <ele>1420.8</ele>
        <time>2021-08-28T07:04:51Z</time>
      </trkpt>
      <trkpt lat="42.99429" lon="-0.21136">
        <ele>1420.8</ele>
        <time>2021-08-28T07:04:52Z</time>
      </trkpt>
      <trkpt lat="42.99427" lon="-0.21136">
        <ele>1420.8</ele>
        <time>2021-08-28T07:04:53Z</time>
      </trkpt>
      <trkpt lat="42.99424" lon="-0.21136">
        <ele>1420.8</ele>
        <time>2021-08-28T07:04:54Z</time>
      </trkpt>
      <trkpt lat="42.99421" lon="-0.21135">
        <ele>1420.8</ele>
        <time>2021-08-28T07:04:55Z</time>
      </trkpt>
      <trkpt lat="42.99418" lon="-0.21135">
        <ele>1420.6</ele>
        <time>2021-08-28T07:04:56Z</time>
      </trkpt>
      <trkpt lat="42.99414" lon="-0.21136">
        <ele>1420.6</ele>
        <time>2021-08-28T07:04:57Z</time>
      </trkpt>
      <trkpt lat="42.9941" lon="-0.21137">
        <ele>1420.4</ele>
        <time>2021-08-28T07:04:58Z</time>
      </trkpt>
      <trkpt lat="42.99405" lon="-0.21137">
        <ele>1420.4</ele>
        <time>2021-08-28T07:04:59Z</time>
      </trkpt>
      <trkpt lat="42.99399" lon="-0.21137">
        <ele>1420.2</ele>
        <time>2021-08-28T07:05:00Z</time>
      </trkpt>
      <trkpt lat="42.99393" lon="-0.21137">
        <ele>1420.2</ele>
        <time>2021-08-28T07:05:01Z</time>
      </trkpt>
      <trkpt lat="42.99387" lon="-0.21137">
        <ele>1420</ele>
        <time>2021-08-28T07:05:02Z</time>
      </trkpt>
      <trkpt lat="42.99373" lon="-0.21137">
        <ele>1419.4</ele>
        <time>2021-08-28T07:05:04Z</time>
      </trkpt>
      <trkpt lat="42.99365" lon="-0.21137">
        <ele>1419.2</ele>
        <time>2021-08-28T07:05:05Z</time>
      </trkpt>
      <trkpt lat="42.99357" lon="-0.21136">
        <ele>1418.6</ele>
        <time>2021-08-28T07:05:06Z</time>
      </trkpt>
      <trkpt lat="42.99338" lon="-0.21134">
        <ele>1418</ele>
        <time>2021-08-28T07:05:08Z</time>
      </trkpt>
      <trkpt lat="42.99321" lon="-0.2113">
        <ele>1417.2</ele>
        <time>2021-08-28T07:05:10Z</time>
      </trkpt>
      <trkpt lat="42.99313" lon="-0.2113">
        <ele>1416.4</ele>
        <time>2021-08-28T07:05:11Z</time>
      </trkpt>
      <trkpt lat="42.99296" lon="-0.2113">
        <ele>1415.2</ele>
        <time>2021-08-28T07:05:13Z</time>
      </trkpt>
      <trkpt lat="42.99287" lon="-0.21131">
        <ele>1414.8</ele>
        <time>2021-08-28T07:05:14Z</time>
      </trkpt>
      <trkpt lat="42.9928" lon="-0.21131">
        <ele>1414.2</ele>
        <time>2021-08-28T07:05:15Z</time>
      </trkpt>
      <trkpt lat="42.99271" lon="-0.21132">
        <ele>1414</ele>
        <time>2021-08-28T07:05:16Z</time>
      </trkpt>
      <trkpt lat="42.99254" lon="-0.21132">
        <ele>1413</ele>
        <time>2021-08-28T07:05:18Z</time>
      </trkpt>
      <trkpt lat="42.99246" lon="-0.21133">
        <ele>1412.4</ele>
        <time>2021-08-28T07:05:19Z</time>
      </trkpt>
      <trkpt lat="42.99239" lon="-0.21134">
        <ele>1412.4</ele>
        <time>2021-08-28T07:05:20Z</time>
      </trkpt>
      <trkpt lat="42.99234" lon="-0.21136">
        <ele>1412.2</ele>
        <time>2021-08-28T07:05:21Z</time>
      </trkpt>
      <trkpt lat="42.99231" lon="-0.2114">
        <ele>1412.2</ele>
        <time>2021-08-28T07:05:22Z</time>
      </trkpt>
      <trkpt lat="42.99228" lon="-0.21144">
        <ele>1412</ele>
        <time>2021-08-28T07:05:23Z</time>
      </trkpt>
      <trkpt lat="42.99224" lon="-0.21149">
        <ele>1412</ele>
        <time>2021-08-28T07:05:24Z</time>
      </trkpt>
      <trkpt lat="42.99221" lon="-0.21153">
        <ele>1412.2</ele>
        <time>2021-08-28T07:05:25Z</time>
      </trkpt>
      <trkpt lat="42.99218" lon="-0.21157">
        <ele>1412.2</ele>
        <time>2021-08-28T07:05:26Z</time>
      </trkpt>
      <trkpt lat="42.99216" lon="-0.2116">
        <ele>1412.4</ele>
        <time>2021-08-28T07:05:27Z</time>
      </trkpt>
      <trkpt lat="42.99214" lon="-0.21164">
        <ele>1412.4</ele>
        <time>2021-08-28T07:05:28Z</time>
      </trkpt>
      <trkpt lat="42.99213" lon="-0.21167">
        <ele>1412.6</ele>
        <time>2021-08-28T07:05:29Z</time>
      </trkpt>
      <trkpt lat="42.99212" lon="-0.2117">
        <ele>1413</ele>
        <time>2021-08-28T07:05:30Z</time>
      </trkpt>
      <trkpt lat="42.99211" lon="-0.21173">
        <ele>1413.2</ele>
        <time>2021-08-28T07:05:31Z</time>
      </trkpt>
      <trkpt lat="42.99206" lon="-0.21182">
        <ele>1414</ele>
        <time>2021-08-28T07:05:34Z</time>
      </trkpt>
      <trkpt lat="42.99204" lon="-0.21185">
        <ele>1414</ele>
        <time>2021-08-28T07:05:35Z</time>
      </trkpt>
      <trkpt lat="42.99202" lon="-0.21188">
        <ele>1414.2</ele>
        <time>2021-08-28T07:05:36Z</time>
      </trkpt>
      <trkpt lat="42.992" lon="-0.2119">
        <ele>1414.4</ele>
        <time>2021-08-28T07:05:37Z</time>
      </trkpt>
      <trkpt lat="42.99194" lon="-0.21195">
        <ele>1415</ele>
        <time>2021-08-28T07:05:40Z</time>
      </trkpt>
      <trkpt lat="42.99192" lon="-0.21198">
        <ele>1415</ele>
        <time>2021-08-28T07:05:41Z</time>
      </trkpt>
      <trkpt lat="42.9919" lon="-0.212">
        <ele>1415.2</ele>
        <time>2021-08-28T07:05:42Z</time>
      </trkpt>
      <trkpt lat="42.99186" lon="-0.21206">
        <ele>1415.6</ele>
        <time>2021-08-28T07:05:44Z</time>
      </trkpt>
      <trkpt lat="42.99184" lon="-0.21208">
        <ele>1415.6</ele>
        <time>2021-08-28T07:05:45Z</time>
      </trkpt>
      <trkpt lat="42.99182" lon="-0.21211">
        <ele>1415.8</ele>
        <time>2021-08-28T07:05:46Z</time>
      </trkpt>
      <trkpt lat="42.9918" lon="-0.21213">
        <ele>1416</ele>
        <time>2021-08-28T07:05:47Z</time>
      </trkpt>
      <trkpt lat="42.99178" lon="-0.21216">
        <ele>1416.2</ele>
        <time>2021-08-28T07:05:48Z</time>
      </trkpt>
      <trkpt lat="42.99174" lon="-0.21223">
        <ele>1416.6</ele>
        <time>2021-08-28T07:05:50Z</time>
      </trkpt>
      <trkpt lat="42.99172" lon="-0.21226">
        <ele>1416.8</ele>
        <time>2021-08-28T07:05:51Z</time>
      </trkpt>
      <trkpt lat="42.99171" lon="-0.21229">
        <ele>1417.2</ele>
        <time>2021-08-28T07:05:52Z</time>
      </trkpt>
      <trkpt lat="42.9917" lon="-0.21232">
        <ele>1417.4</ele>
        <time>2021-08-28T07:05:53Z</time>
      </trkpt>
      <trkpt lat="42.99168" lon="-0.21235">
        <ele>1417.6</ele>
        <time>2021-08-28T07:05:54Z</time>
      </trkpt>
      <trkpt lat="42.99167" lon="-0.21238">
        <ele>1417.6</ele>
        <time>2021-08-28T07:05:55Z</time>
      </trkpt>
      <trkpt lat="42.99165" lon="-0.21241">
        <ele>1417.8</ele>
        <time>2021-08-28T07:05:56Z</time>
      </trkpt>
      <trkpt lat="42.99163" lon="-0.21245">
        <ele>1418</ele>
        <time>2021-08-28T07:05:57Z</time>
      </trkpt>
      <trkpt lat="42.99161" lon="-0.21248">
        <ele>1418.2</ele>
        <time>2021-08-28T07:05:58Z</time>
      </trkpt>
      <trkpt lat="42.9916" lon="-0.21251">
        <ele>1418.2</ele>
        <time>2021-08-28T07:05:59Z</time>
      </trkpt>
      <trkpt lat="42.99158" lon="-0.21253">
        <ele>1418.4</ele>
        <time>2021-08-28T07:06:00Z</time>
      </trkpt>
      <trkpt lat="42.99156" lon="-0.21256">
        <ele>1418.6</ele>
        <time>2021-08-28T07:06:01Z</time>
      </trkpt>
      <trkpt lat="42.99154" lon="-0.21258">
        <ele>1418.8</ele>
        <time>2021-08-28T07:06:02Z</time>
      </trkpt>
      <trkpt lat="42.99153" lon="-0.21262">
        <ele>1419</ele>
        <time>2021-08-28T07:06:03Z</time>
      </trkpt>
      <trkpt lat="42.99151" lon="-0.21265">
        <ele>1419</ele>
        <time>2021-08-28T07:06:04Z</time>
      </trkpt>
      <trkpt lat="42.99148" lon="-0.21269">
        <ele>1419.2</ele>
        <time>2021-08-28T07:06:05Z</time>
      </trkpt>
      <trkpt lat="42.99146" lon="-0.21273">
        <ele>1419.4</ele>
        <time>2021-08-28T07:06:06Z</time>
      </trkpt>
      <trkpt lat="42.99144" lon="-0.21276">
        <ele>1419.6</ele>
        <time>2021-08-28T07:06:07Z</time>
      </trkpt>
      <trkpt lat="42.99142" lon="-0.2128">
        <ele>1419.6</ele>
        <time>2021-08-28T07:06:08Z</time>
      </trkpt>
      <trkpt lat="42.9914" lon="-0.21284">
        <ele>1419.6</ele>
        <time>2021-08-28T07:06:09Z</time>
      </trkpt>
      <trkpt lat="42.99138" lon="-0.21287">
        <ele>1419.8</ele>
        <time>2021-08-28T07:06:10Z</time>
      </trkpt>
      <trkpt lat="42.99136" lon="-0.21292">
        <ele>1419.8</ele>
        <time>2021-08-28T07:06:11Z</time>
      </trkpt>
      <trkpt lat="42.99135" lon="-0.21297">
        <ele>1419.8</ele>
        <time>2021-08-28T07:06:12Z</time>
      </trkpt>
      <trkpt lat="42.99133" lon="-0.21302">
        <ele>1419.8</ele>
        <time>2021-08-28T07:06:13Z</time>
      </trkpt>
      <trkpt lat="42.99131" lon="-0.21308">
        <ele>1419.8</ele>
        <time>2021-08-28T07:06:14Z</time>
      </trkpt>
      <trkpt lat="42.99129" lon="-0.21315">
        <ele>1419.6</ele>
        <time>2021-08-28T07:06:15Z</time>
      </trkpt>
      <trkpt lat="42.99127" lon="-0.21321">
        <ele>1419.6</ele>
        <time>2021-08-28T07:06:16Z</time>
      </trkpt>
      <trkpt lat="42.99126" lon="-0.21327">
        <ele>1419.4</ele>
        <time>2021-08-28T07:06:17Z</time>
      </trkpt>
      <trkpt lat="42.99124" lon="-0.21336">
        <ele>1419.4</ele>
        <time>2021-08-28T07:06:18Z</time>
      </trkpt>
      <trkpt lat="42.99123" lon="-0.21343">
        <ele>1419.2</ele>
        <time>2021-08-28T07:06:19Z</time>
      </trkpt>
      <trkpt lat="42.99122" lon="-0.21352">
        <ele>1418.8</ele>
        <time>2021-08-28T07:06:20Z</time>
      </trkpt>
      <trkpt lat="42.9912" lon="-0.21361">
        <ele>1418.8</ele>
        <time>2021-08-28T07:06:21Z</time>
      </trkpt>
      <trkpt lat="42.99118" lon="-0.21371">
        <ele>1418.2</ele>
        <time>2021-08-28T07:06:22Z</time>
      </trkpt>
      <trkpt lat="42.99116" lon="-0.21383">
        <ele>1418</ele>
        <time>2021-08-28T07:06:23Z</time>
      </trkpt>
      <trkpt lat="42.99112" lon="-0.21403">
        <ele>1416.8</ele>
        <time>2021-08-28T07:06:25Z</time>
      </trkpt>
      <trkpt lat="42.9911" lon="-0.21411">
        <ele>1416</ele>
        <time>2021-08-28T07:06:26Z</time>
      </trkpt>
      <trkpt lat="42.99108" lon="-0.21424">
        <ele>1415.4</ele>
        <time>2021-08-28T07:06:27Z</time>
      </trkpt>
      <trkpt lat="42.99106" lon="-0.21432">
        <ele>1415.2</ele>
        <time>2021-08-28T07:06:28Z</time>
      </trkpt>
      <trkpt lat="42.99103" lon="-0.21443">
        <ele>1414.2</ele>
        <time>2021-08-28T07:06:29Z</time>
      </trkpt>
      <trkpt lat="42.99097" lon="-0.21467">
        <ele>1412.8</ele>
        <time>2021-08-28T07:06:31Z</time>
      </trkpt>
      <trkpt lat="42.99094" lon="-0.21477">
        <ele>1412.6</ele>
        <time>2021-08-28T07:06:32Z</time>
      </trkpt>
      <trkpt lat="42.9909" lon="-0.21486">
        <ele>1412.2</ele>
        <time>2021-08-28T07:06:33Z</time>
      </trkpt>
      <trkpt lat="42.99088" lon="-0.21497">
        <ele>1412</ele>
        <time>2021-08-28T07:06:34Z</time>
      </trkpt>
      <trkpt lat="42.99087" lon="-0.21508">
        <ele>1411.2</ele>
        <time>2021-08-28T07:06:35Z</time>
      </trkpt>
      <trkpt lat="42.99085" lon="-0.21519">
        <ele>1411</ele>
        <time>2021-08-28T07:06:36Z</time>
      </trkpt>
      <trkpt lat="42.99085" lon="-0.21531">
        <ele>1410.2</ele>
        <time>2021-08-28T07:06:37Z</time>
      </trkpt>
      <trkpt lat="42.99084" lon="-0.21543">
        <ele>1409.8</ele>
        <time>2021-08-28T07:06:38Z</time>
      </trkpt>
      <trkpt lat="42.99083" lon="-0.21567">
        <ele>1408.8</ele>
        <time>2021-08-28T07:06:40Z</time>
      </trkpt>
      <trkpt lat="42.99083" lon="-0.2158">
        <ele>1408</ele>
        <time>2021-08-28T07:06:41Z</time>
      </trkpt>
      <trkpt lat="42.99084" lon="-0.21606">
        <ele>1407.4</ele>
        <time>2021-08-28T07:06:43Z</time>
      </trkpt>
      <trkpt lat="42.99084" lon="-0.21633">
        <ele>1406.2</ele>
        <time>2021-08-28T07:06:45Z</time>
      </trkpt>
      <trkpt lat="42.99085" lon="-0.21646">
        <ele>1405.2</ele>
        <time>2021-08-28T07:06:46Z</time>
      </trkpt>
      <trkpt lat="42.99085" lon="-0.21658">
        <ele>1404.6</ele>
        <time>2021-08-28T07:06:47Z</time>
      </trkpt>
      <trkpt lat="42.99085" lon="-0.21669">
        <ele>1403.8</ele>
        <time>2021-08-28T07:06:48Z</time>
      </trkpt>
      <trkpt lat="42.99085" lon="-0.21679">
        <ele>1403.4</ele>
        <time>2021-08-28T07:06:49Z</time>
      </trkpt>
      <trkpt lat="42.99086" lon="-0.21686">
        <ele>1402.4</ele>
        <time>2021-08-28T07:06:50Z</time>
      </trkpt>
      <trkpt lat="42.99086" lon="-0.21694">
        <ele>1402</ele>
        <time>2021-08-28T07:06:51Z</time>
      </trkpt>
      <trkpt lat="42.99088" lon="-0.21697">
        <ele>1401</ele>
        <time>2021-08-28T07:06:52Z</time>
      </trkpt>
      <trkpt lat="42.99091" lon="-0.21698">
        <ele>1400.4</ele>
        <time>2021-08-28T07:06:53Z</time>
      </trkpt>
      <trkpt lat="42.99093" lon="-0.21695">
        <ele>1399.8</ele>
        <time>2021-08-28T07:06:54Z</time>
      </trkpt>
      <trkpt lat="42.99094" lon="-0.2169">
        <ele>1399.6</ele>
        <time>2021-08-28T07:06:55Z</time>
      </trkpt>
      <trkpt lat="42.99095" lon="-0.21683">
        <ele>1398.8</ele>
        <time>2021-08-28T07:06:56Z</time>
      </trkpt>
      <trkpt lat="42.99098" lon="-0.21657">
        <ele>1397.6</ele>
        <time>2021-08-28T07:06:59Z</time>
      </trkpt>
      <trkpt lat="42.99101" lon="-0.21629">
        <ele>1396.4</ele>
        <time>2021-08-28T07:07:02Z</time>
      </trkpt>
      <trkpt lat="42.99104" lon="-0.2161">
        <ele>1395</ele>
        <time>2021-08-28T07:07:04Z</time>
      </trkpt>
      <trkpt lat="42.99105" lon="-0.21604">
        <ele>1394.6</ele>
        <time>2021-08-28T07:07:05Z</time>
      </trkpt>
      <trkpt lat="42.99105" lon="-0.21599">
        <ele>1394</ele>
        <time>2021-08-28T07:07:06Z</time>
      </trkpt>
      <trkpt lat="42.99107" lon="-0.21595">
        <ele>1393.6</ele>
        <time>2021-08-28T07:07:07Z</time>
      </trkpt>
      <trkpt lat="42.99109" lon="-0.21594">
        <ele>1393.2</ele>
        <time>2021-08-28T07:07:08Z</time>
      </trkpt>
      <trkpt lat="42.99112" lon="-0.21595">
        <ele>1392.4</ele>
        <time>2021-08-28T07:07:09Z</time>
      </trkpt>
      <trkpt lat="42.99113" lon="-0.21598">
        <ele>1392</ele>
        <time>2021-08-28T07:07:10Z</time>
      </trkpt>
      <trkpt lat="42.99113" lon="-0.21603">
        <ele>1391.4</ele>
        <time>2021-08-28T07:07:11Z</time>
      </trkpt>
      <trkpt lat="42.99113" lon="-0.21607">
        <ele>1391.2</ele>
        <time>2021-08-28T07:07:12Z</time>
      </trkpt>
      <trkpt lat="42.99113" lon="-0.21613">
        <ele>1390.8</ele>
        <time>2021-08-28T07:07:13Z</time>
      </trkpt>
      <trkpt lat="42.99112" lon="-0.2162">
        <ele>1390.8</ele>
        <time>2021-08-28T07:07:14Z</time>
      </trkpt>
      <trkpt lat="42.99112" lon="-0.21637">
        <ele>1390.4</ele>
        <time>2021-08-28T07:07:16Z</time>
      </trkpt>
      <trkpt lat="42.99112" lon="-0.21666">
        <ele>1389.2</ele>
        <time>2021-08-28T07:07:19Z</time>
      </trkpt>
      <trkpt lat="42.99112" lon="-0.21675">
        <ele>1388.8</ele>
        <time>2021-08-28T07:07:20Z</time>
      </trkpt>
      <trkpt lat="42.99111" lon="-0.21684">
        <ele>1387.8</ele>
        <time>2021-08-28T07:07:21Z</time>
      </trkpt>
      <trkpt lat="42.99111" lon="-0.21693">
        <ele>1387.4</ele>
        <time>2021-08-28T07:07:22Z</time>
      </trkpt>
      <trkpt lat="42.9911" lon="-0.21702">
        <ele>1387</ele>
        <time>2021-08-28T07:07:23Z</time>
      </trkpt>
      <trkpt lat="42.99109" lon="-0.2172">
        <ele>1386.4</ele>
        <time>2021-08-28T07:07:25Z</time>
      </trkpt>
      <trkpt lat="42.99108" lon="-0.21728">
        <ele>1386.2</ele>
        <time>2021-08-28T07:07:26Z</time>
      </trkpt>
      <trkpt lat="42.99106" lon="-0.21752">
        <ele>1385.8</ele>
        <time>2021-08-28T07:07:29Z</time>
      </trkpt>
      <trkpt lat="42.99107" lon="-0.21759">
        <ele>1385.8</ele>
        <time>2021-08-28T07:07:30Z</time>
      </trkpt>
      <trkpt lat="42.9911" lon="-0.21764">
        <ele>1385.6</ele>
        <time>2021-08-28T07:07:31Z</time>
      </trkpt>
      <trkpt lat="42.99115" lon="-0.21766">
        <ele>1385.6</ele>
        <time>2021-08-28T07:07:32Z</time>
      </trkpt>
      <trkpt lat="42.99119" lon="-0.21765">
        <ele>1385.6</ele>
        <time>2021-08-28T07:07:33Z</time>
      </trkpt>
      <trkpt lat="42.99123" lon="-0.21763">
        <ele>1385.4</ele>
        <time>2021-08-28T07:07:34Z</time>
      </trkpt>
      <trkpt lat="42.99126" lon="-0.21759">
        <ele>1385.4</ele>
        <time>2021-08-28T07:07:35Z</time>
      </trkpt>
      <trkpt lat="42.99129" lon="-0.21756">
        <ele>1385.4</ele>
        <time>2021-08-28T07:07:36Z</time>
      </trkpt>
      <trkpt lat="42.99133" lon="-0.21752">
        <ele>1385.4</ele>
        <time>2021-08-28T07:07:37Z</time>
      </trkpt>
      <trkpt lat="42.99142" lon="-0.21744">
        <ele>1385.4</ele>
        <time>2021-08-28T07:07:40Z</time>
      </trkpt>
      <trkpt lat="42.99145" lon="-0.21742">
        <ele>1385.6</ele>
        <time>2021-08-28T07:07:41Z</time>
      </trkpt>
      <trkpt lat="42.99148" lon="-0.2174">
        <ele>1385.6</ele>
        <time>2021-08-28T07:07:42Z</time>
      </trkpt>
      <trkpt lat="42.99151" lon="-0.21738">
        <ele>1385.6</ele>
        <time>2021-08-28T07:07:43Z</time>
      </trkpt>
      <trkpt lat="42.99154" lon="-0.21737">
        <ele>1385.6</ele>
        <time>2021-08-28T07:07:44Z</time>
      </trkpt>
      <trkpt lat="42.99157" lon="-0.21736">
        <ele>1385.8</ele>
        <time>2021-08-28T07:07:45Z</time>
      </trkpt>
      <trkpt lat="42.99159" lon="-0.21735">
        <ele>1385.8</ele>
        <time>2021-08-28T07:07:46Z</time>
      </trkpt>
      <trkpt lat="42.99162" lon="-0.21733">
        <ele>1386</ele>
        <time>2021-08-28T07:07:47Z</time>
      </trkpt>
      <trkpt lat="42.99164" lon="-0.21732">
        <ele>1386.2</ele>
        <time>2021-08-28T07:07:48Z</time>
      </trkpt>
      <trkpt lat="42.99166" lon="-0.2173">
        <ele>1386.2</ele>
        <time>2021-08-28T07:07:49Z</time>
      </trkpt>
      <trkpt lat="42.99171" lon="-0.21726">
        <ele>1386.6</ele>
        <time>2021-08-28T07:07:51Z</time>
      </trkpt>
      <trkpt lat="42.99173" lon="-0.21726">
        <ele>1386.6</ele>
        <time>2021-08-28T07:07:52Z</time>
      </trkpt>
      <trkpt lat="42.99176" lon="-0.21725">
        <ele>1386.8</ele>
        <time>2021-08-28T07:07:53Z</time>
      </trkpt>
      <trkpt lat="42.99178" lon="-0.21725">
        <ele>1386.8</ele>
        <time>2021-08-28T07:07:54Z</time>
      </trkpt>
      <trkpt lat="42.9918" lon="-0.21725">
        <ele>1387.2</ele>
        <time>2021-08-28T07:07:55Z</time>
      </trkpt>
      <trkpt lat="42.99182" lon="-0.21724">
        <ele>1387.2</ele>
        <time>2021-08-28T07:07:56Z</time>
      </trkpt>
      <trkpt lat="42.99184" lon="-0.21724">
        <ele>1387.4</ele>
        <time>2021-08-28T07:07:57Z</time>
      </trkpt>
      <trkpt lat="42.99185" lon="-0.21724">
        <ele>1387.4</ele>
        <time>2021-08-28T07:07:58Z</time>
      </trkpt>
      <trkpt lat="42.99187" lon="-0.21723">
        <ele>1387.6</ele>
        <time>2021-08-28T07:07:59Z</time>
      </trkpt>
      <trkpt lat="42.99189" lon="-0.21724">
        <ele>1388</ele>
        <time>2021-08-28T07:08:00Z</time>
      </trkpt>
      <trkpt lat="42.99191" lon="-0.21725">
        <ele>1388.2</ele>
        <time>2021-08-28T07:08:01Z</time>
      </trkpt>
      <trkpt lat="42.99193" lon="-0.21725">
        <ele>1388.4</ele>
        <time>2021-08-28T07:08:02Z</time>
      </trkpt>
      <trkpt lat="42.99195" lon="-0.21726">
        <ele>1388.8</ele>
        <time>2021-08-28T07:08:03Z</time>
      </trkpt>
      <trkpt lat="42.99197" lon="-0.21726">
        <ele>1389</ele>
        <time>2021-08-28T07:08:04Z</time>
      </trkpt>
      <trkpt lat="42.99198" lon="-0.21727">
        <ele>1389.4</ele>
        <time>2021-08-28T07:08:05Z</time>
      </trkpt>
      <trkpt lat="42.992" lon="-0.21728">
        <ele>1389.6</ele>
        <time>2021-08-28T07:08:06Z</time>
      </trkpt>
      <trkpt lat="42.99202" lon="-0.2173">
        <ele>1390.2</ele>
        <time>2021-08-28T07:08:07Z</time>
      </trkpt>
      <trkpt lat="42.99204" lon="-0.21731">
        <ele>1390.4</ele>
        <time>2021-08-28T07:08:08Z</time>
      </trkpt>
      <trkpt lat="42.99205" lon="-0.21733">
        <ele>1390.6</ele>
        <time>2021-08-28T07:08:09Z</time>
      </trkpt>
      <trkpt lat="42.99207" lon="-0.21734">
        <ele>1390.8</ele>
        <time>2021-08-28T07:08:10Z</time>
      </trkpt>
      <trkpt lat="42.99209" lon="-0.21736">
        <ele>1391</ele>
        <time>2021-08-28T07:08:11Z</time>
      </trkpt>
      <trkpt lat="42.9921" lon="-0.21738">
        <ele>1391.4</ele>
        <time>2021-08-28T07:08:12Z</time>
      </trkpt>
      <trkpt lat="42.99211" lon="-0.21739">
        <ele>1391.6</ele>
        <time>2021-08-28T07:08:13Z</time>
      </trkpt>
      <trkpt lat="42.99212" lon="-0.21741">
        <ele>1392</ele>
        <time>2021-08-28T07:08:14Z</time>
      </trkpt>
      <trkpt lat="42.99213" lon="-0.21743">
        <ele>1392.2</ele>
        <time>2021-08-28T07:08:15Z</time>
      </trkpt>
      <trkpt lat="42.99214" lon="-0.21746">
        <ele>1392.4</ele>
        <time>2021-08-28T07:08:16Z</time>
      </trkpt>
      <trkpt lat="42.99215" lon="-0.21748">
        <ele>1392.6</ele>
        <time>2021-08-28T07:08:17Z</time>
      </trkpt>
      <trkpt lat="42.99217" lon="-0.2175">
        <ele>1392.6</ele>
        <time>2021-08-28T07:08:18Z</time>
      </trkpt>
      <trkpt lat="42.99218" lon="-0.21752">
        <ele>1392.8</ele>
        <time>2021-08-28T07:08:19Z</time>
      </trkpt>
      <trkpt lat="42.9922" lon="-0.21755">
        <ele>1392.8</ele>
        <time>2021-08-28T07:08:20Z</time>
      </trkpt>
      <trkpt lat="42.99222" lon="-0.21758">
        <ele>1393</ele>
        <time>2021-08-28T07:08:21Z</time>
      </trkpt>
      <trkpt lat="42.99225" lon="-0.21761">
        <ele>1393.4</ele>
        <time>2021-08-28T07:08:22Z</time>
      </trkpt>
      <trkpt lat="42.99229" lon="-0.21762">
        <ele>1393.6</ele>
        <time>2021-08-28T07:08:23Z</time>
      </trkpt>
      <trkpt lat="42.99231" lon="-0.21763">
        <ele>1393.6</ele>
        <time>2021-08-28T07:08:24Z</time>
      </trkpt>
      <trkpt lat="42.99234" lon="-0.21763">
        <ele>1393.6</ele>
        <time>2021-08-28T07:08:25Z</time>
      </trkpt>
      <trkpt lat="42.99237" lon="-0.21763">
        <ele>1393.6</ele>
        <time>2021-08-28T07:08:26Z</time>
      </trkpt>
      <trkpt lat="42.99239" lon="-0.21763">
        <ele>1393.4</ele>
        <time>2021-08-28T07:08:27Z</time>
      </trkpt>
      <trkpt lat="42.99242" lon="-0.21763">
        <ele>1393.4</ele>
        <time>2021-08-28T07:08:28Z</time>
      </trkpt>
      <trkpt lat="42.99244" lon="-0.21763">
        <ele>1393.4</ele>
        <time>2021-08-28T07:08:29Z</time>
      </trkpt>
      <trkpt lat="42.99247" lon="-0.21764">
        <ele>1393.4</ele>
        <time>2021-08-28T07:08:30Z</time>
      </trkpt>
      <trkpt lat="42.9925" lon="-0.21764">
        <ele>1393.4</ele>
        <time>2021-08-28T07:08:31Z</time>
      </trkpt>
      <trkpt lat="42.99252" lon="-0.21764">
        <ele>1393.2</ele>
        <time>2021-08-28T07:08:32Z</time>
      </trkpt>
      <trkpt lat="42.99254" lon="-0.21764">
        <ele>1393.2</ele>
        <time>2021-08-28T07:08:33Z</time>
      </trkpt>
      <trkpt lat="42.99257" lon="-0.21764">
        <ele>1393.2</ele>
        <time>2021-08-28T07:08:34Z</time>
      </trkpt>
      <trkpt lat="42.99259" lon="-0.21764">
        <ele>1393.4</ele>
        <time>2021-08-28T07:08:35Z</time>
      </trkpt>
      <trkpt lat="42.99261" lon="-0.21764">
        <ele>1393.4</ele>
        <time>2021-08-28T07:08:36Z</time>
      </trkpt>
      <trkpt lat="42.99263" lon="-0.21765">
        <ele>1393.4</ele>
        <time>2021-08-28T07:08:37Z</time>
      </trkpt>
      <trkpt lat="42.99266" lon="-0.21765">
        <ele>1393.4</ele>
        <time>2021-08-28T07:08:38Z</time>
      </trkpt>
      <trkpt lat="42.99268" lon="-0.21765">
        <ele>1393.6</ele>
        <time>2021-08-28T07:08:39Z</time>
      </trkpt>
      <trkpt lat="42.9927" lon="-0.21765">
        <ele>1393.6</ele>
        <time>2021-08-28T07:08:40Z</time>
      </trkpt>
      <trkpt lat="42.99272" lon="-0.21765">
        <ele>1393.8</ele>
        <time>2021-08-28T07:08:41Z</time>
      </trkpt>
      <trkpt lat="42.99274" lon="-0.21765">
        <ele>1393.8</ele>
        <time>2021-08-28T07:08:42Z</time>
      </trkpt>
      <trkpt lat="42.99275" lon="-0.21765">
        <ele>1394</ele>
        <time>2021-08-28T07:08:43Z</time>
      </trkpt>
      <trkpt lat="42.99277" lon="-0.21765">
        <ele>1394.2</ele>
        <time>2021-08-28T07:08:44Z</time>
      </trkpt>
      <trkpt lat="42.99284" lon="-0.21765">
        <ele>1394.6</ele>
        <time>2021-08-28T07:08:47Z</time>
      </trkpt>
      <trkpt lat="42.99285" lon="-0.21765">
        <ele>1394.8</ele>
        <time>2021-08-28T07:08:48Z</time>
      </trkpt>
      <trkpt lat="42.99287" lon="-0.21765">
        <ele>1395</ele>
        <time>2021-08-28T07:08:49Z</time>
      </trkpt>
      <trkpt lat="42.99288" lon="-0.21765">
        <ele>1395.2</ele>
        <time>2021-08-28T07:08:50Z</time>
      </trkpt>
      <trkpt lat="42.9929" lon="-0.21765">
        <ele>1395.4</ele>
        <time>2021-08-28T07:08:51Z</time>
      </trkpt>
      <trkpt lat="42.99292" lon="-0.21765">
        <ele>1395.6</ele>
        <time>2021-08-28T07:08:52Z</time>
      </trkpt>
      <trkpt lat="42.99293" lon="-0.21766">
        <ele>1395.6</ele>
        <time>2021-08-28T07:08:53Z</time>
      </trkpt>
      <trkpt lat="42.99295" lon="-0.21767">
        <ele>1395.8</ele>
        <time>2021-08-28T07:08:54Z</time>
      </trkpt>
      <trkpt lat="42.99297" lon="-0.21767">
        <ele>1396</ele>
        <time>2021-08-28T07:08:55Z</time>
      </trkpt>
      <trkpt lat="42.99299" lon="-0.21768">
        <ele>1396</ele>
        <time>2021-08-28T07:08:56Z</time>
      </trkpt>
      <trkpt lat="42.99301" lon="-0.21769">
        <ele>1396.2</ele>
        <time>2021-08-28T07:08:57Z</time>
      </trkpt>
      <trkpt lat="42.99302" lon="-0.2177">
        <ele>1396.4</ele>
        <time>2021-08-28T07:08:58Z</time>
      </trkpt>
      <trkpt lat="42.99304" lon="-0.21772">
        <ele>1396.6</ele>
        <time>2021-08-28T07:08:59Z</time>
      </trkpt>
      <trkpt lat="42.99305" lon="-0.21773">
        <ele>1396.8</ele>
        <time>2021-08-28T07:09:00Z</time>
      </trkpt>
      <trkpt lat="42.99307" lon="-0.21775">
        <ele>1396.8</ele>
        <time>2021-08-28T07:09:01Z</time>
      </trkpt>
      <trkpt lat="42.99309" lon="-0.21777">
        <ele>1396.8</ele>
        <time>2021-08-28T07:09:02Z</time>
      </trkpt>
      <trkpt lat="42.9931" lon="-0.21779">
        <ele>1397</ele>
        <time>2021-08-28T07:09:03Z</time>
      </trkpt>
      <trkpt lat="42.99311" lon="-0.2178">
        <ele>1397</ele>
        <time>2021-08-28T07:09:04Z</time>
      </trkpt>
      <trkpt lat="42.99312" lon="-0.21781">
        <ele>1397</ele>
        <time>2021-08-28T07:09:05Z</time>
      </trkpt>
      <trkpt lat="42.99313" lon="-0.21782">
        <ele>1397.2</ele>
        <time>2021-08-28T07:09:06Z</time>
      </trkpt>
      <trkpt lat="42.99315" lon="-0.21782">
        <ele>1397.2</ele>
        <time>2021-08-28T07:09:07Z</time>
      </trkpt>
      <trkpt lat="42.99317" lon="-0.21783">
        <ele>1397.6</ele>
        <time>2021-08-28T07:09:08Z</time>
      </trkpt>
      <trkpt lat="42.99318" lon="-0.21784">
        <ele>1397.8</ele>
        <time>2021-08-28T07:09:09Z</time>
      </trkpt>
      <trkpt lat="42.9932" lon="-0.21786">
        <ele>1398</ele>
        <time>2021-08-28T07:09:10Z</time>
      </trkpt>
      <trkpt lat="42.99322" lon="-0.21787">
        <ele>1398.2</ele>
        <time>2021-08-28T07:09:11Z</time>
      </trkpt>
      <trkpt lat="42.99323" lon="-0.21788">
        <ele>1398.2</ele>
        <time>2021-08-28T07:09:12Z</time>
      </trkpt>
      <trkpt lat="42.99324" lon="-0.21789">
        <ele>1398.4</ele>
        <time>2021-08-28T07:09:13Z</time>
      </trkpt>
      <trkpt lat="42.99326" lon="-0.2179">
        <ele>1398.4</ele>
        <time>2021-08-28T07:09:14Z</time>
      </trkpt>
      <trkpt lat="42.99327" lon="-0.21791">
        <ele>1398.8</ele>
        <time>2021-08-28T07:09:15Z</time>
      </trkpt>
      <trkpt lat="42.99329" lon="-0.21792">
        <ele>1398.8</ele>
        <time>2021-08-28T07:09:16Z</time>
      </trkpt>
      <trkpt lat="42.9933" lon="-0.21794">
        <ele>1399.2</ele>
        <time>2021-08-28T07:09:17Z</time>
      </trkpt>
      <trkpt lat="42.99332" lon="-0.21795">
        <ele>1399.2</ele>
        <time>2021-08-28T07:09:18Z</time>
      </trkpt>
      <trkpt lat="42.99334" lon="-0.21796">
        <ele>1399.6</ele>
        <time>2021-08-28T07:09:19Z</time>
      </trkpt>
      <trkpt lat="42.99336" lon="-0.21798">
        <ele>1399.8</ele>
        <time>2021-08-28T07:09:20Z</time>
      </trkpt>
      <trkpt lat="42.99338" lon="-0.21799">
        <ele>1400.2</ele>
        <time>2021-08-28T07:09:21Z</time>
      </trkpt>
      <trkpt lat="42.99339" lon="-0.21801">
        <ele>1400.4</ele>
        <time>2021-08-28T07:09:22Z</time>
      </trkpt>
      <trkpt lat="42.99341" lon="-0.21802">
        <ele>1400.6</ele>
        <time>2021-08-28T07:09:23Z</time>
      </trkpt>
      <trkpt lat="42.99343" lon="-0.21803">
        <ele>1400.8</ele>
        <time>2021-08-28T07:09:24Z</time>
      </trkpt>
      <trkpt lat="42.99344" lon="-0.21805">
        <ele>1400.8</ele>
        <time>2021-08-28T07:09:25Z</time>
      </trkpt>
      <trkpt lat="42.99346" lon="-0.21807">
        <ele>1401</ele>
        <time>2021-08-28T07:09:26Z</time>
      </trkpt>
      <trkpt lat="42.99347" lon="-0.21809">
        <ele>1401.2</ele>
        <time>2021-08-28T07:09:27Z</time>
      </trkpt>
      <trkpt lat="42.99348" lon="-0.21811">
        <ele>1401.2</ele>
        <time>2021-08-28T07:09:28Z</time>
      </trkpt>
      <trkpt lat="42.99349" lon="-0.21814">
        <ele>1401.6</ele>
        <time>2021-08-28T07:09:29Z</time>
      </trkpt>
      <trkpt lat="42.9935" lon="-0.21817">
        <ele>1401.6</ele>
        <time>2021-08-28T07:09:30Z</time>
      </trkpt>
      <trkpt lat="42.9935" lon="-0.21819">
        <ele>1401.8</ele>
        <time>2021-08-28T07:09:31Z</time>
      </trkpt>
      <trkpt lat="42.9935" lon="-0.21822">
        <ele>1402</ele>
        <time>2021-08-28T07:09:32Z</time>
      </trkpt>
      <trkpt lat="42.9935" lon="-0.21824">
        <ele>1402</ele>
        <time>2021-08-28T07:09:33Z</time>
      </trkpt>
      <trkpt lat="42.9935" lon="-0.21827">
        <ele>1402.2</ele>
        <time>2021-08-28T07:09:34Z</time>
      </trkpt>
      <trkpt lat="42.9935" lon="-0.21829">
        <ele>1402.2</ele>
        <time>2021-08-28T07:09:35Z</time>
      </trkpt>
      <trkpt lat="42.99349" lon="-0.21832">
        <ele>1402.4</ele>
        <time>2021-08-28T07:09:36Z</time>
      </trkpt>
      <trkpt lat="42.99349" lon="-0.21835">
        <ele>1402.4</ele>
        <time>2021-08-28T07:09:37Z</time>
      </trkpt>
      <trkpt lat="42.99348" lon="-0.21837">
        <ele>1402.6</ele>
        <time>2021-08-28T07:09:38Z</time>
      </trkpt>
      <trkpt lat="42.99347" lon="-0.2184">
        <ele>1402.6</ele>
        <time>2021-08-28T07:09:39Z</time>
      </trkpt>
      <trkpt lat="42.99347" lon="-0.21842">
        <ele>1402.6</ele>
        <time>2021-08-28T07:09:40Z</time>
      </trkpt>
      <trkpt lat="42.99346" lon="-0.21845">
        <ele>1402.8</ele>
        <time>2021-08-28T07:09:41Z</time>
      </trkpt>
      <trkpt lat="42.99346" lon="-0.21848">
        <ele>1402.8</ele>
        <time>2021-08-28T07:09:42Z</time>
      </trkpt>
      <trkpt lat="42.99345" lon="-0.2185">
        <ele>1403</ele>
        <time>2021-08-28T07:09:43Z</time>
      </trkpt>
      <trkpt lat="42.99345" lon="-0.21852">
        <ele>1403.2</ele>
        <time>2021-08-28T07:09:44Z</time>
      </trkpt>
      <trkpt lat="42.99344" lon="-0.21855">
        <ele>1403.4</ele>
        <time>2021-08-28T07:09:45Z</time>
      </trkpt>
      <trkpt lat="42.99343" lon="-0.21857">
        <ele>1403.4</ele>
        <time>2021-08-28T07:09:46Z</time>
      </trkpt>
      <trkpt lat="42.99343" lon="-0.21859">
        <ele>1403.6</ele>
        <time>2021-08-28T07:09:47Z</time>
      </trkpt>
      <trkpt lat="42.99342" lon="-0.21861">
        <ele>1403.8</ele>
        <time>2021-08-28T07:09:48Z</time>
      </trkpt>
      <trkpt lat="42.99341" lon="-0.21864">
        <ele>1403.8</ele>
        <time>2021-08-28T07:09:49Z</time>
      </trkpt>
      <trkpt lat="42.9934" lon="-0.21866">
        <ele>1404</ele>
        <time>2021-08-28T07:09:50Z</time>
      </trkpt>
      <trkpt lat="42.9934" lon="-0.21868">
        <ele>1404.2</ele>
        <time>2021-08-28T07:09:51Z</time>
      </trkpt>
      <trkpt lat="42.99339" lon="-0.2187">
        <ele>1404.4</ele>
        <time>2021-08-28T07:09:52Z</time>
      </trkpt>
      <trkpt lat="42.99339" lon="-0.21873">
        <ele>1404.8</ele>
        <time>2021-08-28T07:09:53Z</time>
      </trkpt>
      <trkpt lat="42.99338" lon="-0.21875">
        <ele>1404.8</ele>
        <time>2021-08-28T07:09:54Z</time>
      </trkpt>
      <trkpt lat="42.99337" lon="-0.21878">
        <ele>1405</ele>
        <time>2021-08-28T07:09:55Z</time>
      </trkpt>
      <trkpt lat="42.99337" lon="-0.2188">
        <ele>1405</ele>
        <time>2021-08-28T07:09:56Z</time>
      </trkpt>
      <trkpt lat="42.99336" lon="-0.21882">
        <ele>1405.4</ele>
        <time>2021-08-28T07:09:57Z</time>
      </trkpt>
      <trkpt lat="42.99335" lon="-0.21885">
        <ele>1405.6</ele>
        <time>2021-08-28T07:09:58Z</time>
      </trkpt>
      <trkpt lat="42.99335" lon="-0.21887">
        <ele>1405.8</ele>
        <time>2021-08-28T07:09:59Z</time>
      </trkpt>
      <trkpt lat="42.99334" lon="-0.21889">
        <ele>1405.8</ele>
        <time>2021-08-28T07:10:00Z</time>
      </trkpt>
      <trkpt lat="42.99333" lon="-0.21891">
        <ele>1406.2</ele>
        <time>2021-08-28T07:10:01Z</time>
      </trkpt>
      <trkpt lat="42.99333" lon="-0.21893">
        <ele>1406.2</ele>
        <time>2021-08-28T07:10:02Z</time>
      </trkpt>
      <trkpt lat="42.99333" lon="-0.21896">
        <ele>1406.4</ele>
        <time>2021-08-28T07:10:03Z</time>
      </trkpt>
      <trkpt lat="42.99332" lon="-0.21899">
        <ele>1406.4</ele>
        <time>2021-08-28T07:10:04Z</time>
      </trkpt>
      <trkpt lat="42.99332" lon="-0.21901">
        <ele>1406.6</ele>
        <time>2021-08-28T07:10:05Z</time>
      </trkpt>
      <trkpt lat="42.99331" lon="-0.21904">
        <ele>1406.8</ele>
        <time>2021-08-28T07:10:06Z</time>
      </trkpt>
      <trkpt lat="42.99331" lon="-0.21906">
        <ele>1407</ele>
        <time>2021-08-28T07:10:07Z</time>
      </trkpt>
      <trkpt lat="42.9933" lon="-0.21909">
        <ele>1407.2</ele>
        <time>2021-08-28T07:10:08Z</time>
      </trkpt>
      <trkpt lat="42.99329" lon="-0.21911">
        <ele>1407.2</ele>
        <time>2021-08-28T07:10:09Z</time>
      </trkpt>
      <trkpt lat="42.99329" lon="-0.21914">
        <ele>1407.4</ele>
        <time>2021-08-28T07:10:10Z</time>
      </trkpt>
      <trkpt lat="42.99328" lon="-0.21916">
        <ele>1407.8</ele>
        <time>2021-08-28T07:10:11Z</time>
      </trkpt>
      <trkpt lat="42.99328" lon="-0.21918">
        <ele>1407.8</ele>
        <time>2021-08-28T07:10:12Z</time>
      </trkpt>
      <trkpt lat="42.99328" lon="-0.2192">
        <ele>1408.2</ele>
        <time>2021-08-28T07:10:13Z</time>
      </trkpt>
      <trkpt lat="42.99327" lon="-0.21923">
        <ele>1408.4</ele>
        <time>2021-08-28T07:10:14Z</time>
      </trkpt>
      <trkpt lat="42.99327" lon="-0.21925">
        <ele>1408.4</ele>
        <time>2021-08-28T07:10:15Z</time>
      </trkpt>
      <trkpt lat="42.99326" lon="-0.21927">
        <ele>1408.8</ele>
        <time>2021-08-28T07:10:16Z</time>
      </trkpt>
      <trkpt lat="42.99325" lon="-0.2193">
        <ele>1408.8</ele>
        <time>2021-08-28T07:10:17Z</time>
      </trkpt>
      <trkpt lat="42.99325" lon="-0.21932">
        <ele>1409.2</ele>
        <time>2021-08-28T07:10:18Z</time>
      </trkpt>
      <trkpt lat="42.99324" lon="-0.21935">
        <ele>1409.2</ele>
        <time>2021-08-28T07:10:19Z</time>
      </trkpt>
      <trkpt lat="42.99324" lon="-0.21937">
        <ele>1409.4</ele>
        <time>2021-08-28T07:10:20Z</time>
      </trkpt>
      <trkpt lat="42.99323" lon="-0.2194">
        <ele>1409.4</ele>
        <time>2021-08-28T07:10:21Z</time>
      </trkpt>
      <trkpt lat="42.99322" lon="-0.21943">
        <ele>1409.8</ele>
        <time>2021-08-28T07:10:22Z</time>
      </trkpt>
      <trkpt lat="42.99322" lon="-0.21946">
        <ele>1409.8</ele>
        <time>2021-08-28T07:10:23Z</time>
      </trkpt>
      <trkpt lat="42.99321" lon="-0.21948">
        <ele>1410</ele>
        <time>2021-08-28T07:10:24Z</time>
      </trkpt>
      <trkpt lat="42.99321" lon="-0.2195">
        <ele>1410</ele>
        <time>2021-08-28T07:10:25Z</time>
      </trkpt>
      <trkpt lat="42.99321" lon="-0.21953">
        <ele>1410.2</ele>
        <time>2021-08-28T07:10:26Z</time>
      </trkpt>
      <trkpt lat="42.9932" lon="-0.21955">
        <ele>1410.4</ele>
        <time>2021-08-28T07:10:27Z</time>
      </trkpt>
      <trkpt lat="42.99319" lon="-0.21957">
        <ele>1410.6</ele>
        <time>2021-08-28T07:10:28Z</time>
      </trkpt>
      <trkpt lat="42.99319" lon="-0.2196">
        <ele>1410.6</ele>
        <time>2021-08-28T07:10:29Z</time>
      </trkpt>
      <trkpt lat="42.99318" lon="-0.21962">
        <ele>1410.8</ele>
        <time>2021-08-28T07:10:30Z</time>
      </trkpt>
      <trkpt lat="42.99316" lon="-0.21965">
        <ele>1410.8</ele>
        <time>2021-08-28T07:10:31Z</time>
      </trkpt>
      <trkpt lat="42.99316" lon="-0.21967">
        <ele>1411.2</ele>
        <time>2021-08-28T07:10:32Z</time>
      </trkpt>
      <trkpt lat="42.99315" lon="-0.21969">
        <ele>1411.2</ele>
        <time>2021-08-28T07:10:33Z</time>
      </trkpt>
      <trkpt lat="42.99314" lon="-0.21971">
        <ele>1411.4</ele>
        <time>2021-08-28T07:10:34Z</time>
      </trkpt>
      <trkpt lat="42.99314" lon="-0.21973">
        <ele>1411.6</ele>
        <time>2021-08-28T07:10:35Z</time>
      </trkpt>
      <trkpt lat="42.99313" lon="-0.21975">
        <ele>1411.6</ele>
        <time>2021-08-28T07:10:36Z</time>
      </trkpt>
      <trkpt lat="42.99312" lon="-0.21978">
        <ele>1411.8</ele>
        <time>2021-08-28T07:10:37Z</time>
      </trkpt>
      <trkpt lat="42.99312" lon="-0.2198">
        <ele>1412</ele>
        <time>2021-08-28T07:10:38Z</time>
      </trkpt>
      <trkpt lat="42.99311" lon="-0.21982">
        <ele>1412.4</ele>
        <time>2021-08-28T07:10:39Z</time>
      </trkpt>
      <trkpt lat="42.99311" lon="-0.21984">
        <ele>1412.4</ele>
        <time>2021-08-28T07:10:40Z</time>
      </trkpt>
      <trkpt lat="42.9931" lon="-0.21987">
        <ele>1412.8</ele>
        <time>2021-08-28T07:10:41Z</time>
      </trkpt>
      <trkpt lat="42.99309" lon="-0.21989">
        <ele>1412.8</ele>
        <time>2021-08-28T07:10:42Z</time>
      </trkpt>
      <trkpt lat="42.99308" lon="-0.21991">
        <ele>1413</ele>
        <time>2021-08-28T07:10:43Z</time>
      </trkpt>
      <trkpt lat="42.99307" lon="-0.21993">
        <ele>1413.2</ele>
        <time>2021-08-28T07:10:44Z</time>
      </trkpt>
      <trkpt lat="42.99306" lon="-0.21995">
        <ele>1413.6</ele>
        <time>2021-08-28T07:10:45Z</time>
      </trkpt>
      <trkpt lat="42.99305" lon="-0.21997">
        <ele>1413.6</ele>
        <time>2021-08-28T07:10:46Z</time>
      </trkpt>
      <trkpt lat="42.99304" lon="-0.21999">
        <ele>1413.8</ele>
        <time>2021-08-28T07:10:47Z</time>
      </trkpt>
      <trkpt lat="42.99303" lon="-0.22001">
        <ele>1414</ele>
        <time>2021-08-28T07:10:48Z</time>
      </trkpt>
      <trkpt lat="42.99302" lon="-0.22003">
        <ele>1414.2</ele>
        <time>2021-08-28T07:10:49Z</time>
      </trkpt>
      <trkpt lat="42.99301" lon="-0.22005">
        <ele>1414.4</ele>
        <time>2021-08-28T07:10:50Z</time>
      </trkpt>
      <trkpt lat="42.99301" lon="-0.22007">
        <ele>1414.6</ele>
        <time>2021-08-28T07:10:51Z</time>
      </trkpt>
      <trkpt lat="42.99301" lon="-0.22009">
        <ele>1414.8</ele>
        <time>2021-08-28T07:10:52Z</time>
      </trkpt>
      <trkpt lat="42.993" lon="-0.22011">
        <ele>1415</ele>
        <time>2021-08-28T07:10:53Z</time>
      </trkpt>
      <trkpt lat="42.993" lon="-0.22013">
        <ele>1415</ele>
        <time>2021-08-28T07:10:54Z</time>
      </trkpt>
      <trkpt lat="42.99299" lon="-0.22015">
        <ele>1415.2</ele>
        <time>2021-08-28T07:10:55Z</time>
      </trkpt>
      <trkpt lat="42.99298" lon="-0.22016">
        <ele>1415.2</ele>
        <time>2021-08-28T07:10:56Z</time>
      </trkpt>
      <trkpt lat="42.99298" lon="-0.22018">
        <ele>1415.4</ele>
        <time>2021-08-28T07:10:57Z</time>
      </trkpt>
      <trkpt lat="42.99297" lon="-0.22019">
        <ele>1415.6</ele>
        <time>2021-08-28T07:10:58Z</time>
      </trkpt>
      <trkpt lat="42.99297" lon="-0.22021">
        <ele>1415.6</ele>
        <time>2021-08-28T07:10:59Z</time>
      </trkpt>
      <trkpt lat="42.99296" lon="-0.22023">
        <ele>1415.8</ele>
        <time>2021-08-28T07:11:00Z</time>
      </trkpt>
      <trkpt lat="42.99296" lon="-0.22025">
        <ele>1415.8</ele>
        <time>2021-08-28T07:11:01Z</time>
      </trkpt>
      <trkpt lat="42.99295" lon="-0.22027">
        <ele>1416</ele>
        <time>2021-08-28T07:11:02Z</time>
      </trkpt>
      <trkpt lat="42.99294" lon="-0.22029">
        <ele>1416</ele>
        <time>2021-08-28T07:11:03Z</time>
      </trkpt>
      <trkpt lat="42.99294" lon="-0.22031">
        <ele>1416.2</ele>
        <time>2021-08-28T07:11:04Z</time>
      </trkpt>
      <trkpt lat="42.99292" lon="-0.22032">
        <ele>1416.2</ele>
        <time>2021-08-28T07:11:05Z</time>
      </trkpt>
      <trkpt lat="42.99291" lon="-0.22033">
        <ele>1416.4</ele>
        <time>2021-08-28T07:11:06Z</time>
      </trkpt>
      <trkpt lat="42.99289" lon="-0.22033">
        <ele>1416.4</ele>
        <time>2021-08-28T07:11:07Z</time>
      </trkpt>
      <trkpt lat="42.99288" lon="-0.22033">
        <ele>1416.8</ele>
        <time>2021-08-28T07:11:08Z</time>
      </trkpt>
      <trkpt lat="42.99287" lon="-0.22032">
        <ele>1417</ele>
        <time>2021-08-28T07:11:09Z</time>
      </trkpt>
      <trkpt lat="42.99286" lon="-0.22031">
        <ele>1417.2</ele>
        <time>2021-08-28T07:11:10Z</time>
      </trkpt>
      <trkpt lat="42.99285" lon="-0.22029">
        <ele>1417.2</ele>
        <time>2021-08-28T07:11:11Z</time>
      </trkpt>
      <trkpt lat="42.99285" lon="-0.22027">
        <ele>1417.4</ele>
        <time>2021-08-28T07:11:12Z</time>
      </trkpt>
      <trkpt lat="42.99286" lon="-0.22024">
        <ele>1417.4</ele>
        <time>2021-08-28T07:11:13Z</time>
      </trkpt>
      <trkpt lat="42.99286" lon="-0.22022">
        <ele>1417.8</ele>
        <time>2021-08-28T07:11:14Z</time>
      </trkpt>
      <trkpt lat="42.99286" lon="-0.2202">
        <ele>1417.8</ele>
        <time>2021-08-28T07:11:15Z</time>
      </trkpt>
      <trkpt lat="42.99286" lon="-0.22018">
        <ele>1418</ele>
        <time>2021-08-28T07:11:16Z</time>
      </trkpt>
      <trkpt lat="42.99287" lon="-0.22016">
        <ele>1418</ele>
        <time>2021-08-28T07:11:17Z</time>
      </trkpt>
      <trkpt lat="42.99287" lon="-0.22014">
        <ele>1418</ele>
        <time>2021-08-28T07:11:18Z</time>
      </trkpt>
      <trkpt lat="42.99288" lon="-0.22012">
        <ele>1418</ele>
        <time>2021-08-28T07:11:19Z</time>
      </trkpt>
      <trkpt lat="42.99287" lon="-0.22009">
        <ele>1418.2</ele>
        <time>2021-08-28T07:11:20Z</time>
      </trkpt>
      <trkpt lat="42.99288" lon="-0.22007">
        <ele>1418.2</ele>
        <time>2021-08-28T07:11:21Z</time>
      </trkpt>
      <trkpt lat="42.99288" lon="-0.22004">
        <ele>1418.2</ele>
        <time>2021-08-28T07:11:22Z</time>
      </trkpt>
      <trkpt lat="42.99289" lon="-0.22002">
        <ele>1418.6</ele>
        <time>2021-08-28T07:11:23Z</time>
      </trkpt>
      <trkpt lat="42.99289" lon="-0.22">
        <ele>1418.8</ele>
        <time>2021-08-28T07:11:24Z</time>
      </trkpt>
      <trkpt lat="42.99289" lon="-0.21999">
        <ele>1419</ele>
        <time>2021-08-28T07:11:25Z</time>
      </trkpt>
      <trkpt lat="42.99289" lon="-0.21997">
        <ele>1419</ele>
        <time>2021-08-28T07:11:26Z</time>
      </trkpt>
      <trkpt lat="42.99289" lon="-0.21995">
        <ele>1419.2</ele>
        <time>2021-08-28T07:11:27Z</time>
      </trkpt>
      <trkpt lat="42.99288" lon="-0.21992">
        <ele>1419.2</ele>
        <time>2021-08-28T07:11:28Z</time>
      </trkpt>
      <trkpt lat="42.99288" lon="-0.2199">
        <ele>1419.4</ele>
        <time>2021-08-28T07:11:29Z</time>
      </trkpt>
      <trkpt lat="42.99288" lon="-0.21988">
        <ele>1419.4</ele>
        <time>2021-08-28T07:11:30Z</time>
      </trkpt>
      <trkpt lat="42.99287" lon="-0.21985">
        <ele>1419.4</ele>
        <time>2021-08-28T07:11:31Z</time>
      </trkpt>
      <trkpt lat="42.99287" lon="-0.21983">
        <ele>1419.4</ele>
        <time>2021-08-28T07:11:32Z</time>
      </trkpt>
      <trkpt lat="42.99287" lon="-0.2198">
        <ele>1419.6</ele>
        <time>2021-08-28T07:11:33Z</time>
      </trkpt>
      <trkpt lat="42.99287" lon="-0.21978">
        <ele>1419.6</ele>
        <time>2021-08-28T07:11:34Z</time>
      </trkpt>
      <trkpt lat="42.99287" lon="-0.21975">
        <ele>1419.6</ele>
        <time>2021-08-28T07:11:35Z</time>
      </trkpt>
      <trkpt lat="42.99288" lon="-0.21972">
        <ele>1419.8</ele>
        <time>2021-08-28T07:11:36Z</time>
      </trkpt>
      <trkpt lat="42.99288" lon="-0.21969">
        <ele>1419.8</ele>
        <time>2021-08-28T07:11:37Z</time>
      </trkpt>
      <trkpt lat="42.99288" lon="-0.21967">
        <ele>1420</ele>
        <time>2021-08-28T07:11:38Z</time>
      </trkpt>
      <trkpt lat="42.99288" lon="-0.21964">
        <ele>1420</ele>
        <time>2021-08-28T07:11:39Z</time>
      </trkpt>
      <trkpt lat="42.99288" lon="-0.21962">
        <ele>1420.2</ele>
        <time>2021-08-28T07:11:40Z</time>
      </trkpt>
      <trkpt lat="42.99288" lon="-0.21959">
        <ele>1420.2</ele>
        <time>2021-08-28T07:11:41Z</time>
      </trkpt>
      <trkpt lat="42.99288" lon="-0.21957">
        <ele>1420.4</ele>
        <time>2021-08-28T07:11:42Z</time>
      </trkpt>
      <trkpt lat="42.99288" lon="-0.21956">
        <ele>1420.4</ele>
        <time>2021-08-28T07:11:43Z</time>
      </trkpt>
      <trkpt lat="42.99288" lon="-0.21954">
        <ele>1420.6</ele>
        <time>2021-08-28T07:11:44Z</time>
      </trkpt>
      <trkpt lat="42.99288" lon="-0.21945">
        <ele>1420.8</ele>
        <time>2021-08-28T07:11:47Z</time>
      </trkpt>
      <trkpt lat="42.99288" lon="-0.21941">
        <ele>1420.8</ele>
        <time>2021-08-28T07:11:49Z</time>
      </trkpt>
      <trkpt lat="42.99288" lon="-0.21939">
        <ele>1421.2</ele>
        <time>2021-08-28T07:11:50Z</time>
      </trkpt>
      <trkpt lat="42.99288" lon="-0.21937">
        <ele>1421.2</ele>
        <time>2021-08-28T07:11:51Z</time>
      </trkpt>
      <trkpt lat="42.99288" lon="-0.21922">
        <ele>1421.6</ele>
        <time>2021-08-28T07:11:57Z</time>
      </trkpt>
      <trkpt lat="42.99286" lon="-0.21915">
        <ele>1422</ele>
        <time>2021-08-28T07:12:00Z</time>
      </trkpt>
      <trkpt lat="42.99282" lon="-0.21907">
        <ele>1422.2</ele>
        <time>2021-08-28T07:12:04Z</time>
      </trkpt>
      <trkpt lat="42.99278" lon="-0.21904">
        <ele>1422.6</ele>
        <time>2021-08-28T07:12:07Z</time>
      </trkpt>
      <trkpt lat="42.99276" lon="-0.21903">
        <ele>1422.6</ele>
        <time>2021-08-28T07:12:08Z</time>
      </trkpt>
      <trkpt lat="42.99275" lon="-0.21903">
        <ele>1422.8</ele>
        <time>2021-08-28T07:12:09Z</time>
      </trkpt>
      <trkpt lat="42.99274" lon="-0.21903">
        <ele>1423</ele>
        <time>2021-08-28T07:12:10Z</time>
      </trkpt>
      <trkpt lat="42.99273" lon="-0.21905">
        <ele>1423</ele>
        <time>2021-08-28T07:12:11Z</time>
      </trkpt>
      <trkpt lat="42.99271" lon="-0.21908">
        <ele>1423.4</ele>
        <time>2021-08-28T07:12:13Z</time>
      </trkpt>
      <trkpt lat="42.99271" lon="-0.2191">
        <ele>1423.6</ele>
        <time>2021-08-28T07:12:14Z</time>
      </trkpt>
      <trkpt lat="42.99271" lon="-0.21912">
        <ele>1423.8</ele>
        <time>2021-08-28T07:12:15Z</time>
      </trkpt>
      <trkpt lat="42.99271" lon="-0.21914">
        <ele>1424</ele>
        <time>2021-08-28T07:12:16Z</time>
      </trkpt>
      <trkpt lat="42.99272" lon="-0.21916">
        <ele>1424.2</ele>
        <time>2021-08-28T07:12:17Z</time>
      </trkpt>
      <trkpt lat="42.99272" lon="-0.21918">
        <ele>1424.4</ele>
        <time>2021-08-28T07:12:18Z</time>
      </trkpt>
      <trkpt lat="42.99272" lon="-0.21919">
        <ele>1424.6</ele>
        <time>2021-08-28T07:12:19Z</time>
      </trkpt>
      <trkpt lat="42.99272" lon="-0.21921">
        <ele>1424.8</ele>
        <time>2021-08-28T07:12:20Z</time>
      </trkpt>
      <trkpt lat="42.99271" lon="-0.21923">
        <ele>1425</ele>
        <time>2021-08-28T07:12:21Z</time>
      </trkpt>
      <trkpt lat="42.9927" lon="-0.21925">
        <ele>1425.2</ele>
        <time>2021-08-28T07:12:22Z</time>
      </trkpt>
      <trkpt lat="42.99269" lon="-0.21927">
        <ele>1425.4</ele>
        <time>2021-08-28T07:12:23Z</time>
      </trkpt>
      <trkpt lat="42.99268" lon="-0.21928">
        <ele>1425.4</ele>
        <time>2021-08-28T07:12:24Z</time>
      </trkpt>
      <trkpt lat="42.99267" lon="-0.2193">
        <ele>1425.6</ele>
        <time>2021-08-28T07:12:25Z</time>
      </trkpt>
      <trkpt lat="42.99266" lon="-0.21932">
        <ele>1425.8</ele>
        <time>2021-08-28T07:12:26Z</time>
      </trkpt>
      <trkpt lat="42.99265" lon="-0.21934">
        <ele>1425.6</ele>
        <time>2021-08-28T07:12:27Z</time>
      </trkpt>
      <trkpt lat="42.99265" lon="-0.21936">
        <ele>1425.8</ele>
        <time>2021-08-28T07:12:28Z</time>
      </trkpt>
      <trkpt lat="42.99264" lon="-0.21937">
        <ele>1426</ele>
        <time>2021-08-28T07:12:29Z</time>
      </trkpt>
      <trkpt lat="42.99263" lon="-0.21939">
        <ele>1426</ele>
        <time>2021-08-28T07:12:30Z</time>
      </trkpt>
      <trkpt lat="42.99262" lon="-0.21941">
        <ele>1426.2</ele>
        <time>2021-08-28T07:12:31Z</time>
      </trkpt>
      <trkpt lat="42.99262" lon="-0.21944">
        <ele>1426.4</ele>
        <time>2021-08-28T07:12:32Z</time>
      </trkpt>
      <trkpt lat="42.99261" lon="-0.21946">
        <ele>1426.4</ele>
        <time>2021-08-28T07:12:33Z</time>
      </trkpt>
      <trkpt lat="42.99261" lon="-0.21947">
        <ele>1426.6</ele>
        <time>2021-08-28T07:12:34Z</time>
      </trkpt>
      <trkpt lat="42.9926" lon="-0.21949">
        <ele>1426.6</ele>
        <time>2021-08-28T07:12:35Z</time>
      </trkpt>
      <trkpt lat="42.99259" lon="-0.21951">
        <ele>1426.8</ele>
        <time>2021-08-28T07:12:36Z</time>
      </trkpt>
      <trkpt lat="42.99259" lon="-0.21953">
        <ele>1427</ele>
        <time>2021-08-28T07:12:37Z</time>
      </trkpt>
      <trkpt lat="42.99258" lon="-0.21955">
        <ele>1427.2</ele>
        <time>2021-08-28T07:12:38Z</time>
      </trkpt>
      <trkpt lat="42.99258" lon="-0.21956">
        <ele>1427.2</ele>
        <time>2021-08-28T07:12:39Z</time>
      </trkpt>
      <trkpt lat="42.99257" lon="-0.21958">
        <ele>1427.4</ele>
        <time>2021-08-28T07:12:40Z</time>
      </trkpt>
      <trkpt lat="42.99257" lon="-0.21959">
        <ele>1427.6</ele>
        <time>2021-08-28T07:12:41Z</time>
      </trkpt>
      <trkpt lat="42.99256" lon="-0.21961">
        <ele>1427.6</ele>
        <time>2021-08-28T07:12:42Z</time>
      </trkpt>
      <trkpt lat="42.99255" lon="-0.21962">
        <ele>1427.8</ele>
        <time>2021-08-28T07:12:43Z</time>
      </trkpt>
      <trkpt lat="42.99254" lon="-0.21964">
        <ele>1427.8</ele>
        <time>2021-08-28T07:12:44Z</time>
      </trkpt>
      <trkpt lat="42.99253" lon="-0.21966">
        <ele>1428</ele>
        <time>2021-08-28T07:12:45Z</time>
      </trkpt>
      <trkpt lat="42.99253" lon="-0.21968">
        <ele>1428.2</ele>
        <time>2021-08-28T07:12:46Z</time>
      </trkpt>
      <trkpt lat="42.99253" lon="-0.2197">
        <ele>1428.4</ele>
        <time>2021-08-28T07:12:47Z</time>
      </trkpt>
      <trkpt lat="42.99253" lon="-0.21973">
        <ele>1428.6</ele>
        <time>2021-08-28T07:12:48Z</time>
      </trkpt>
      <trkpt lat="42.99252" lon="-0.21975">
        <ele>1428.6</ele>
        <time>2021-08-28T07:12:49Z</time>
      </trkpt>
      <trkpt lat="42.99251" lon="-0.21977">
        <ele>1428.8</ele>
        <time>2021-08-28T07:12:50Z</time>
      </trkpt>
      <trkpt lat="42.9925" lon="-0.21979">
        <ele>1429</ele>
        <time>2021-08-28T07:12:51Z</time>
      </trkpt>
      <trkpt lat="42.99249" lon="-0.21981">
        <ele>1429</ele>
        <time>2021-08-28T07:12:52Z</time>
      </trkpt>
      <trkpt lat="42.99249" lon="-0.21984">
        <ele>1429.2</ele>
        <time>2021-08-28T07:12:53Z</time>
      </trkpt>
      <trkpt lat="42.99249" lon="-0.21986">
        <ele>1429.2</ele>
        <time>2021-08-28T07:12:54Z</time>
      </trkpt>
      <trkpt lat="42.99248" lon="-0.21987">
        <ele>1429.4</ele>
        <time>2021-08-28T07:12:55Z</time>
      </trkpt>
      <trkpt lat="42.99247" lon="-0.2199">
        <ele>1429.6</ele>
        <time>2021-08-28T07:12:56Z</time>
      </trkpt>
      <trkpt lat="42.99246" lon="-0.21991">
        <ele>1429.6</ele>
        <time>2021-08-28T07:12:57Z</time>
      </trkpt>
      <trkpt lat="42.99245" lon="-0.21993">
        <ele>1429.6</ele>
        <time>2021-08-28T07:12:58Z</time>
      </trkpt>
      <trkpt lat="42.99244" lon="-0.21994">
        <ele>1429.8</ele>
        <time>2021-08-28T07:12:59Z</time>
      </trkpt>
      <trkpt lat="42.99243" lon="-0.21996">
        <ele>1429.8</ele>
        <time>2021-08-28T07:13:00Z</time>
      </trkpt>
      <trkpt lat="42.99242" lon="-0.21997">
        <ele>1430</ele>
        <time>2021-08-28T07:13:01Z</time>
      </trkpt>
      <trkpt lat="42.99241" lon="-0.21999">
        <ele>1430.2</ele>
        <time>2021-08-28T07:13:02Z</time>
      </trkpt>
      <trkpt lat="42.9924" lon="-0.22">
        <ele>1430.2</ele>
        <time>2021-08-28T07:13:03Z</time>
      </trkpt>
      <trkpt lat="42.99238" lon="-0.22001">
        <ele>1430.4</ele>
        <time>2021-08-28T07:13:04Z</time>
      </trkpt>
      <trkpt lat="42.99237" lon="-0.22002">
        <ele>1430.4</ele>
        <time>2021-08-28T07:13:05Z</time>
      </trkpt>
      <trkpt lat="42.99236" lon="-0.22003">
        <ele>1430.4</ele>
        <time>2021-08-28T07:13:06Z</time>
      </trkpt>
      <trkpt lat="42.99235" lon="-0.22005">
        <ele>1430.6</ele>
        <time>2021-08-28T07:13:07Z</time>
      </trkpt>
      <trkpt lat="42.99234" lon="-0.22006">
        <ele>1430.8</ele>
        <time>2021-08-28T07:13:08Z</time>
      </trkpt>
      <trkpt lat="42.99232" lon="-0.22009">
        <ele>1431</ele>
        <time>2021-08-28T07:13:09Z</time>
      </trkpt>
      <trkpt lat="42.99231" lon="-0.2201">
        <ele>1431.2</ele>
        <time>2021-08-28T07:13:10Z</time>
      </trkpt>
      <trkpt lat="42.9923" lon="-0.22013">
        <ele>1431.2</ele>
        <time>2021-08-28T07:13:11Z</time>
      </trkpt>
      <trkpt lat="42.99229" lon="-0.22015">
        <ele>1431.4</ele>
        <time>2021-08-28T07:13:12Z</time>
      </trkpt>
      <trkpt lat="42.99228" lon="-0.22017">
        <ele>1431.6</ele>
        <time>2021-08-28T07:13:13Z</time>
      </trkpt>
      <trkpt lat="42.99227" lon="-0.22018">
        <ele>1431.8</ele>
        <time>2021-08-28T07:13:14Z</time>
      </trkpt>
      <trkpt lat="42.99226" lon="-0.2202">
        <ele>1432</ele>
        <time>2021-08-28T07:13:15Z</time>
      </trkpt>
      <trkpt lat="42.99225" lon="-0.22022">
        <ele>1432</ele>
        <time>2021-08-28T07:13:16Z</time>
      </trkpt>
      <trkpt lat="42.99224" lon="-0.22024">
        <ele>1432.2</ele>
        <time>2021-08-28T07:13:17Z</time>
      </trkpt>
      <trkpt lat="42.99224" lon="-0.22026">
        <ele>1432.2</ele>
        <time>2021-08-28T07:13:18Z</time>
      </trkpt>
      <trkpt lat="42.99223" lon="-0.22028">
        <ele>1432.4</ele>
        <time>2021-08-28T07:13:19Z</time>
      </trkpt>
      <trkpt lat="42.99223" lon="-0.2203">
        <ele>1432.6</ele>
        <time>2021-08-28T07:13:20Z</time>
      </trkpt>
      <trkpt lat="42.99222" lon="-0.22033">
        <ele>1432.6</ele>
        <time>2021-08-28T07:13:21Z</time>
      </trkpt>
      <trkpt lat="42.99221" lon="-0.22035">
        <ele>1432.6</ele>
        <time>2021-08-28T07:13:22Z</time>
      </trkpt>
      <trkpt lat="42.9922" lon="-0.22037">
        <ele>1432.8</ele>
        <time>2021-08-28T07:13:23Z</time>
      </trkpt>
      <trkpt lat="42.99219" lon="-0.2204">
        <ele>1433</ele>
        <time>2021-08-28T07:13:24Z</time>
      </trkpt>
      <trkpt lat="42.99218" lon="-0.22042">
        <ele>1433</ele>
        <time>2021-08-28T07:13:25Z</time>
      </trkpt>
      <trkpt lat="42.99217" lon="-0.22045">
        <ele>1433</ele>
        <time>2021-08-28T07:13:26Z</time>
      </trkpt>
      <trkpt lat="42.99216" lon="-0.22047">
        <ele>1433.2</ele>
        <time>2021-08-28T07:13:27Z</time>
      </trkpt>
      <trkpt lat="42.99215" lon="-0.22049">
        <ele>1433.4</ele>
        <time>2021-08-28T07:13:28Z</time>
      </trkpt>
      <trkpt lat="42.99214" lon="-0.22051">
        <ele>1433.6</ele>
        <time>2021-08-28T07:13:29Z</time>
      </trkpt>
      <trkpt lat="42.99213" lon="-0.22053">
        <ele>1433.8</ele>
        <time>2021-08-28T07:13:30Z</time>
      </trkpt>
      <trkpt lat="42.99212" lon="-0.22055">
        <ele>1434</ele>
        <time>2021-08-28T07:13:31Z</time>
      </trkpt>
      <trkpt lat="42.99211" lon="-0.22056">
        <ele>1434</ele>
        <time>2021-08-28T07:13:32Z</time>
      </trkpt>
      <trkpt lat="42.99211" lon="-0.22058">
        <ele>1434.2</ele>
        <time>2021-08-28T07:13:33Z</time>
      </trkpt>
      <trkpt lat="42.99211" lon="-0.2206">
        <ele>1434.4</ele>
        <time>2021-08-28T07:13:34Z</time>
      </trkpt>
      <trkpt lat="42.99211" lon="-0.22062">
        <ele>1434.6</ele>
        <time>2021-08-28T07:13:35Z</time>
      </trkpt>
      <trkpt lat="42.99212" lon="-0.22064">
        <ele>1434.6</ele>
        <time>2021-08-28T07:13:36Z</time>
      </trkpt>
      <trkpt lat="42.99211" lon="-0.22066">
        <ele>1434.8</ele>
        <time>2021-08-28T07:13:37Z</time>
      </trkpt>
      <trkpt lat="42.99211" lon="-0.22068">
        <ele>1435</ele>
        <time>2021-08-28T07:13:38Z</time>
      </trkpt>
      <trkpt lat="42.99211" lon="-0.2207">
        <ele>1435.2</ele>
        <time>2021-08-28T07:13:39Z</time>
      </trkpt>
      <trkpt lat="42.9921" lon="-0.22072">
        <ele>1435.2</ele>
        <time>2021-08-28T07:13:40Z</time>
      </trkpt>
      <trkpt lat="42.99211" lon="-0.22074">
        <ele>1435.6</ele>
        <time>2021-08-28T07:13:41Z</time>
      </trkpt>
      <trkpt lat="42.99211" lon="-0.22076">
        <ele>1435.8</ele>
        <time>2021-08-28T07:13:42Z</time>
      </trkpt>
      <trkpt lat="42.99211" lon="-0.22078">
        <ele>1436</ele>
        <time>2021-08-28T07:13:43Z</time>
      </trkpt>
      <trkpt lat="42.99212" lon="-0.22081">
        <ele>1436.4</ele>
        <time>2021-08-28T07:13:44Z</time>
      </trkpt>
      <trkpt lat="42.99212" lon="-0.22083">
        <ele>1436.6</ele>
        <time>2021-08-28T07:13:45Z</time>
      </trkpt>
      <trkpt lat="42.99213" lon="-0.22085">
        <ele>1436.8</ele>
        <time>2021-08-28T07:13:46Z</time>
      </trkpt>
      <trkpt lat="42.99213" lon="-0.22087">
        <ele>1437</ele>
        <time>2021-08-28T07:13:47Z</time>
      </trkpt>
      <trkpt lat="42.99213" lon="-0.22089">
        <ele>1437.6</ele>
        <time>2021-08-28T07:13:48Z</time>
      </trkpt>
      <trkpt lat="42.99214" lon="-0.22091">
        <ele>1437.6</ele>
        <time>2021-08-28T07:13:49Z</time>
      </trkpt>
      <trkpt lat="42.99214" lon="-0.22093">
        <ele>1437.8</ele>
        <time>2021-08-28T07:13:50Z</time>
      </trkpt>
      <trkpt lat="42.99215" lon="-0.22095">
        <ele>1437.8</ele>
        <time>2021-08-28T07:13:51Z</time>
      </trkpt>
      <trkpt lat="42.99215" lon="-0.22098">
        <ele>1438</ele>
        <time>2021-08-28T07:13:52Z</time>
      </trkpt>
      <trkpt lat="42.99216" lon="-0.221">
        <ele>1438</ele>
        <time>2021-08-28T07:13:53Z</time>
      </trkpt>
      <trkpt lat="42.99216" lon="-0.22102">
        <ele>1438.2</ele>
        <time>2021-08-28T07:13:54Z</time>
      </trkpt>
      <trkpt lat="42.99217" lon="-0.22105">
        <ele>1438.2</ele>
        <time>2021-08-28T07:13:55Z</time>
      </trkpt>
      <trkpt lat="42.99217" lon="-0.22107">
        <ele>1438.4</ele>
        <time>2021-08-28T07:13:56Z</time>
      </trkpt>
      <trkpt lat="42.99216" lon="-0.22109">
        <ele>1438.4</ele>
        <time>2021-08-28T07:13:57Z</time>
      </trkpt>
      <trkpt lat="42.99216" lon="-0.22112">
        <ele>1438.6</ele>
        <time>2021-08-28T07:13:58Z</time>
      </trkpt>
      <trkpt lat="42.99217" lon="-0.22114">
        <ele>1438.6</ele>
        <time>2021-08-28T07:13:59Z</time>
      </trkpt>
      <trkpt lat="42.99218" lon="-0.22117">
        <ele>1439</ele>
        <time>2021-08-28T07:14:00Z</time>
      </trkpt>
      <trkpt lat="42.99218" lon="-0.22119">
        <ele>1439</ele>
        <time>2021-08-28T07:14:01Z</time>
      </trkpt>
      <trkpt lat="42.99219" lon="-0.22122">
        <ele>1439.2</ele>
        <time>2021-08-28T07:14:02Z</time>
      </trkpt>
      <trkpt lat="42.99219" lon="-0.22124">
        <ele>1439.2</ele>
        <time>2021-08-28T07:14:03Z</time>
      </trkpt>
      <trkpt lat="42.9922" lon="-0.22127">
        <ele>1439.2</ele>
        <time>2021-08-28T07:14:04Z</time>
      </trkpt>
      <trkpt lat="42.99221" lon="-0.22129">
        <ele>1439.4</ele>
        <time>2021-08-28T07:14:05Z</time>
      </trkpt>
      <trkpt lat="42.99221" lon="-0.22132">
        <ele>1439.4</ele>
        <time>2021-08-28T07:14:06Z</time>
      </trkpt>
      <trkpt lat="42.99222" lon="-0.22134">
        <ele>1439.6</ele>
        <time>2021-08-28T07:14:07Z</time>
      </trkpt>
      <trkpt lat="42.99222" lon="-0.22135">
        <ele>1439.6</ele>
        <time>2021-08-28T07:14:08Z</time>
      </trkpt>
      <trkpt lat="42.99222" lon="-0.22137">
        <ele>1440</ele>
        <time>2021-08-28T07:14:09Z</time>
      </trkpt>
      <trkpt lat="42.99222" lon="-0.22139">
        <ele>1440</ele>
        <time>2021-08-28T07:14:10Z</time>
      </trkpt>
      <trkpt lat="42.99223" lon="-0.22142">
        <ele>1440.2</ele>
        <time>2021-08-28T07:14:11Z</time>
      </trkpt>
      <trkpt lat="42.99223" lon="-0.22144">
        <ele>1440.2</ele>
        <time>2021-08-28T07:14:12Z</time>
      </trkpt>
      <trkpt lat="42.99223" lon="-0.22146">
        <ele>1440.2</ele>
        <time>2021-08-28T07:14:13Z</time>
      </trkpt>
      <trkpt lat="42.99222" lon="-0.22148">
        <ele>1440.2</ele>
        <time>2021-08-28T07:14:14Z</time>
      </trkpt>
      <trkpt lat="42.99221" lon="-0.22151">
        <ele>1440.4</ele>
        <time>2021-08-28T07:14:15Z</time>
      </trkpt>
      <trkpt lat="42.9922" lon="-0.22152">
        <ele>1440.4</ele>
        <time>2021-08-28T07:14:16Z</time>
      </trkpt>
      <trkpt lat="42.99218" lon="-0.22154">
        <ele>1440.6</ele>
        <time>2021-08-28T07:14:17Z</time>
      </trkpt>
      <trkpt lat="42.99216" lon="-0.22155">
        <ele>1440.6</ele>
        <time>2021-08-28T07:14:18Z</time>
      </trkpt>
      <trkpt lat="42.99214" lon="-0.22155">
        <ele>1440.8</ele>
        <time>2021-08-28T07:14:19Z</time>
      </trkpt>
      <trkpt lat="42.99213" lon="-0.22154">
        <ele>1441</ele>
        <time>2021-08-28T07:14:20Z</time>
      </trkpt>
      <trkpt lat="42.99212" lon="-0.22152">
        <ele>1441</ele>
        <time>2021-08-28T07:14:21Z</time>
      </trkpt>
      <trkpt lat="42.99211" lon="-0.2215">
        <ele>1441.4</ele>
        <time>2021-08-28T07:14:22Z</time>
      </trkpt>
      <trkpt lat="42.9921" lon="-0.22148">
        <ele>1441.6</ele>
        <time>2021-08-28T07:14:23Z</time>
      </trkpt>
      <trkpt lat="42.9921" lon="-0.22145">
        <ele>1441.8</ele>
        <time>2021-08-28T07:14:24Z</time>
      </trkpt>
      <trkpt lat="42.9921" lon="-0.22143">
        <ele>1441.8</ele>
        <time>2021-08-28T07:14:25Z</time>
      </trkpt>
      <trkpt lat="42.99209" lon="-0.2214">
        <ele>1442</ele>
        <time>2021-08-28T07:14:26Z</time>
      </trkpt>
      <trkpt lat="42.99209" lon="-0.22138">
        <ele>1442</ele>
        <time>2021-08-28T07:14:27Z</time>
      </trkpt>
      <trkpt lat="42.99208" lon="-0.22135">
        <ele>1442.2</ele>
        <time>2021-08-28T07:14:28Z</time>
      </trkpt>
      <trkpt lat="42.99208" lon="-0.22133">
        <ele>1442.2</ele>
        <time>2021-08-28T07:14:29Z</time>
      </trkpt>
      <trkpt lat="42.99207" lon="-0.22131">
        <ele>1442.4</ele>
        <time>2021-08-28T07:14:30Z</time>
      </trkpt>
      <trkpt lat="42.99206" lon="-0.22129">
        <ele>1442.4</ele>
        <time>2021-08-28T07:14:31Z</time>
      </trkpt>
      <trkpt lat="42.99205" lon="-0.22127">
        <ele>1442.6</ele>
        <time>2021-08-28T07:14:32Z</time>
      </trkpt>
      <trkpt lat="42.99205" lon="-0.22125">
        <ele>1442.6</ele>
        <time>2021-08-28T07:14:33Z</time>
      </trkpt>
      <trkpt lat="42.99203" lon="-0.22123">
        <ele>1442.8</ele>
        <time>2021-08-28T07:14:34Z</time>
      </trkpt>
      <trkpt lat="42.99203" lon="-0.22121">
        <ele>1443</ele>
        <time>2021-08-28T07:14:35Z</time>
      </trkpt>
      <trkpt lat="42.99202" lon="-0.2212">
        <ele>1443</ele>
        <time>2021-08-28T07:14:36Z</time>
      </trkpt>
      <trkpt lat="42.99201" lon="-0.22118">
        <ele>1443</ele>
        <time>2021-08-28T07:14:37Z</time>
      </trkpt>
      <trkpt lat="42.992" lon="-0.22117">
        <ele>1443.2</ele>
        <time>2021-08-28T07:14:38Z</time>
      </trkpt>
      <trkpt lat="42.99199" lon="-0.22115">
        <ele>1443.2</ele>
        <time>2021-08-28T07:14:39Z</time>
      </trkpt>
      <trkpt lat="42.99198" lon="-0.22113">
        <ele>1443.4</ele>
        <time>2021-08-28T07:14:40Z</time>
      </trkpt>
      <trkpt lat="42.99197" lon="-0.2211">
        <ele>1443.4</ele>
        <time>2021-08-28T07:14:41Z</time>
      </trkpt>
      <trkpt lat="42.99195" lon="-0.22108">
        <ele>1443.6</ele>
        <time>2021-08-28T07:14:42Z</time>
      </trkpt>
      <trkpt lat="42.99194" lon="-0.22106">
        <ele>1443.8</ele>
        <time>2021-08-28T07:14:43Z</time>
      </trkpt>
      <trkpt lat="42.99193" lon="-0.22104">
        <ele>1443.8</ele>
        <time>2021-08-28T07:14:44Z</time>
      </trkpt>
      <trkpt lat="42.99192" lon="-0.22103">
        <ele>1444</ele>
        <time>2021-08-28T07:14:45Z</time>
      </trkpt>
      <trkpt lat="42.99191" lon="-0.22101">
        <ele>1444.2</ele>
        <time>2021-08-28T07:14:46Z</time>
      </trkpt>
      <trkpt lat="42.9919" lon="-0.22099">
        <ele>1444.2</ele>
        <time>2021-08-28T07:14:47Z</time>
      </trkpt>
      <trkpt lat="42.99188" lon="-0.22098">
        <ele>1444.2</ele>
        <time>2021-08-28T07:14:48Z</time>
      </trkpt>
      <trkpt lat="42.99187" lon="-0.22096">
        <ele>1444.4</ele>
        <time>2021-08-28T07:14:49Z</time>
      </trkpt>
      <trkpt lat="42.99185" lon="-0.22095">
        <ele>1444.4</ele>
        <time>2021-08-28T07:14:50Z</time>
      </trkpt>
      <trkpt lat="42.99184" lon="-0.22093">
        <ele>1444.6</ele>
        <time>2021-08-28T07:14:51Z</time>
      </trkpt>
      <trkpt lat="42.99183" lon="-0.22092">
        <ele>1444.6</ele>
        <time>2021-08-28T07:14:52Z</time>
      </trkpt>
      <trkpt lat="42.99181" lon="-0.2209">
        <ele>1444.6</ele>
        <time>2021-08-28T07:14:53Z</time>
      </trkpt>
      <trkpt lat="42.9918" lon="-0.22088">
        <ele>1444.8</ele>
        <time>2021-08-28T07:14:54Z</time>
      </trkpt>
      <trkpt lat="42.99178" lon="-0.22087">
        <ele>1444.8</ele>
        <time>2021-08-28T07:14:55Z</time>
      </trkpt>
      <trkpt lat="42.99177" lon="-0.22085">
        <ele>1444.8</ele>
        <time>2021-08-28T07:14:56Z</time>
      </trkpt>
      <trkpt lat="42.99176" lon="-0.22083">
        <ele>1445</ele>
        <time>2021-08-28T07:14:57Z</time>
      </trkpt>
      <trkpt lat="42.99174" lon="-0.22081">
        <ele>1445</ele>
        <time>2021-08-28T07:14:58Z</time>
      </trkpt>
      <trkpt lat="42.99172" lon="-0.22078">
        <ele>1445</ele>
        <time>2021-08-28T07:14:59Z</time>
      </trkpt>
      <trkpt lat="42.99169" lon="-0.22074">
        <ele>1445</ele>
        <time>2021-08-28T07:15:01Z</time>
      </trkpt>
      <trkpt lat="42.99158" lon="-0.22058">
        <ele>1444.8</ele>
        <time>2021-08-28T07:15:09Z</time>
      </trkpt>
      <trkpt lat="42.99156" lon="-0.22057">
        <ele>1444.8</ele>
        <time>2021-08-28T07:15:10Z</time>
      </trkpt>
      <trkpt lat="42.99155" lon="-0.22055">
        <ele>1444.8</ele>
        <time>2021-08-28T07:15:11Z</time>
      </trkpt>
      <trkpt lat="42.99152" lon="-0.22053">
        <ele>1444.8</ele>
        <time>2021-08-28T07:15:13Z</time>
      </trkpt>
      <trkpt lat="42.9915" lon="-0.22052">
        <ele>1445</ele>
        <time>2021-08-28T07:15:14Z</time>
      </trkpt>
      <trkpt lat="42.99148" lon="-0.22051">
        <ele>1445</ele>
        <time>2021-08-28T07:15:15Z</time>
      </trkpt>
      <trkpt lat="42.99147" lon="-0.22049">
        <ele>1445</ele>
        <time>2021-08-28T07:15:16Z</time>
      </trkpt>
      <trkpt lat="42.99145" lon="-0.22048">
        <ele>1445</ele>
        <time>2021-08-28T07:15:17Z</time>
      </trkpt>
      <trkpt lat="42.99144" lon="-0.22047">
        <ele>1445.2</ele>
        <time>2021-08-28T07:15:18Z</time>
      </trkpt>
      <trkpt lat="42.99142" lon="-0.22046">
        <ele>1445.2</ele>
        <time>2021-08-28T07:15:19Z</time>
      </trkpt>
      <trkpt lat="42.99141" lon="-0.22045">
        <ele>1445.4</ele>
        <time>2021-08-28T07:15:20Z</time>
      </trkpt>
      <trkpt lat="42.99139" lon="-0.22044">
        <ele>1445.6</ele>
        <time>2021-08-28T07:15:21Z</time>
      </trkpt>
      <trkpt lat="42.99138" lon="-0.22043">
        <ele>1445.8</ele>
        <time>2021-08-28T07:15:22Z</time>
      </trkpt>
      <trkpt lat="42.99137" lon="-0.22043">
        <ele>1446</ele>
        <time>2021-08-28T07:15:23Z</time>
      </trkpt>
      <trkpt lat="42.99136" lon="-0.22042">
        <ele>1446</ele>
        <time>2021-08-28T07:15:24Z</time>
      </trkpt>
      <trkpt lat="42.99135" lon="-0.22041">
        <ele>1446.2</ele>
        <time>2021-08-28T07:15:25Z</time>
      </trkpt>
      <trkpt lat="42.99133" lon="-0.2204">
        <ele>1446.2</ele>
        <time>2021-08-28T07:15:26Z</time>
      </trkpt>
      <trkpt lat="42.99132" lon="-0.22039">
        <ele>1446.4</ele>
        <time>2021-08-28T07:15:27Z</time>
      </trkpt>
      <trkpt lat="42.9913" lon="-0.22038">
        <ele>1446.4</ele>
        <time>2021-08-28T07:15:28Z</time>
      </trkpt>
      <trkpt lat="42.99125" lon="-0.22034">
        <ele>1446.8</ele>
        <time>2021-08-28T07:15:31Z</time>
      </trkpt>
      <trkpt lat="42.9912" lon="-0.22032">
        <ele>1446.8</ele>
        <time>2021-08-28T07:15:33Z</time>
      </trkpt>
      <trkpt lat="42.9911" lon="-0.2203">
        <ele>1446.8</ele>
        <time>2021-08-28T07:15:36Z</time>
      </trkpt>
      <trkpt lat="42.99103" lon="-0.22029">
        <ele>1446.4</ele>
        <time>2021-08-28T07:15:38Z</time>
      </trkpt>
      <trkpt lat="42.991" lon="-0.22029">
        <ele>1446.4</ele>
        <time>2021-08-28T07:15:39Z</time>
      </trkpt>
      <trkpt lat="42.99098" lon="-0.22029">
        <ele>1446.4</ele>
        <time>2021-08-28T07:15:40Z</time>
      </trkpt>
      <trkpt lat="42.99096" lon="-0.22029">
        <ele>1446.4</ele>
        <time>2021-08-28T07:15:41Z</time>
      </trkpt>
      <trkpt lat="42.99095" lon="-0.22029">
        <ele>1446.4</ele>
        <time>2021-08-28T07:15:42Z</time>
      </trkpt>
      <trkpt lat="42.99093" lon="-0.22029">
        <ele>1446.4</ele>
        <time>2021-08-28T07:15:43Z</time>
      </trkpt>
      <trkpt lat="42.99092" lon="-0.2203">
        <ele>1446.4</ele>
        <time>2021-08-28T07:15:44Z</time>
      </trkpt>
      <trkpt lat="42.9909" lon="-0.22031">
        <ele>1446.4</ele>
        <time>2021-08-28T07:15:45Z</time>
      </trkpt>
      <trkpt lat="42.99089" lon="-0.22032">
        <ele>1446.8</ele>
        <time>2021-08-28T07:15:46Z</time>
      </trkpt>
      <trkpt lat="42.99088" lon="-0.22034">
        <ele>1447.2</ele>
        <time>2021-08-28T07:15:47Z</time>
      </trkpt>
      <trkpt lat="42.99087" lon="-0.22036">
        <ele>1447.4</ele>
        <time>2021-08-28T07:15:48Z</time>
      </trkpt>
      <trkpt lat="42.99087" lon="-0.22038">
        <ele>1447.6</ele>
        <time>2021-08-28T07:15:49Z</time>
      </trkpt>
      <trkpt lat="42.99087" lon="-0.2204">
        <ele>1448</ele>
        <time>2021-08-28T07:15:50Z</time>
      </trkpt>
      <trkpt lat="42.99087" lon="-0.22041">
        <ele>1448.2</ele>
        <time>2021-08-28T07:15:51Z</time>
      </trkpt>
      <trkpt lat="42.99087" lon="-0.22043">
        <ele>1448.2</ele>
        <time>2021-08-28T07:15:52Z</time>
      </trkpt>
      <trkpt lat="42.99088" lon="-0.22045">
        <ele>1448.4</ele>
        <time>2021-08-28T07:15:53Z</time>
      </trkpt>
      <trkpt lat="42.99089" lon="-0.22047">
        <ele>1448.8</ele>
        <time>2021-08-28T07:15:54Z</time>
      </trkpt>
      <trkpt lat="42.99089" lon="-0.22048">
        <ele>1448.8</ele>
        <time>2021-08-28T07:15:55Z</time>
      </trkpt>
      <trkpt lat="42.9909" lon="-0.2205">
        <ele>1449</ele>
        <time>2021-08-28T07:15:56Z</time>
      </trkpt>
      <trkpt lat="42.99091" lon="-0.22051">
        <ele>1449.2</ele>
        <time>2021-08-28T07:15:57Z</time>
      </trkpt>
      <trkpt lat="42.99093" lon="-0.22052">
        <ele>1449.8</ele>
        <time>2021-08-28T07:15:58Z</time>
      </trkpt>
      <trkpt lat="42.99094" lon="-0.22054">
        <ele>1450</ele>
        <time>2021-08-28T07:15:59Z</time>
      </trkpt>
      <trkpt lat="42.99094" lon="-0.22055">
        <ele>1450.2</ele>
        <time>2021-08-28T07:16:00Z</time>
      </trkpt>
      <trkpt lat="42.99095" lon="-0.22056">
        <ele>1450.4</ele>
        <time>2021-08-28T07:16:01Z</time>
      </trkpt>
      <trkpt lat="42.99096" lon="-0.22058">
        <ele>1450.6</ele>
        <time>2021-08-28T07:16:02Z</time>
      </trkpt>
      <trkpt lat="42.99096" lon="-0.2206">
        <ele>1450.8</ele>
        <time>2021-08-28T07:16:03Z</time>
      </trkpt>
      <trkpt lat="42.99097" lon="-0.22061">
        <ele>1451</ele>
        <time>2021-08-28T07:16:04Z</time>
      </trkpt>
      <trkpt lat="42.99098" lon="-0.22063">
        <ele>1451.4</ele>
        <time>2021-08-28T07:16:05Z</time>
      </trkpt>
      <trkpt lat="42.99099" lon="-0.22065">
        <ele>1451.6</ele>
        <time>2021-08-28T07:16:06Z</time>
      </trkpt>
      <trkpt lat="42.991" lon="-0.22067">
        <ele>1451.8</ele>
        <time>2021-08-28T07:16:07Z</time>
      </trkpt>
      <trkpt lat="42.991" lon="-0.22069">
        <ele>1452</ele>
        <time>2021-08-28T07:16:08Z</time>
      </trkpt>
      <trkpt lat="42.99101" lon="-0.22071">
        <ele>1452.2</ele>
        <time>2021-08-28T07:16:09Z</time>
      </trkpt>
      <trkpt lat="42.99101" lon="-0.22073">
        <ele>1452.4</ele>
        <time>2021-08-28T07:16:10Z</time>
      </trkpt>
      <trkpt lat="42.99101" lon="-0.22076">
        <ele>1452.6</ele>
        <time>2021-08-28T07:16:11Z</time>
      </trkpt>
      <trkpt lat="42.99102" lon="-0.22077">
        <ele>1452.6</ele>
        <time>2021-08-28T07:16:12Z</time>
      </trkpt>
      <trkpt lat="42.99102" lon="-0.22079">
        <ele>1453</ele>
        <time>2021-08-28T07:16:13Z</time>
      </trkpt>
      <trkpt lat="42.99103" lon="-0.22081">
        <ele>1453.2</ele>
        <time>2021-08-28T07:16:14Z</time>
      </trkpt>
      <trkpt lat="42.99104" lon="-0.22083">
        <ele>1453.4</ele>
        <time>2021-08-28T07:16:15Z</time>
      </trkpt>
      <trkpt lat="42.99104" lon="-0.22085">
        <ele>1453.4</ele>
        <time>2021-08-28T07:16:16Z</time>
      </trkpt>
      <trkpt lat="42.99104" lon="-0.22087">
        <ele>1453.6</ele>
        <time>2021-08-28T07:16:17Z</time>
      </trkpt>
      <trkpt lat="42.99105" lon="-0.22089">
        <ele>1453.8</ele>
        <time>2021-08-28T07:16:18Z</time>
      </trkpt>
      <trkpt lat="42.99105" lon="-0.2209">
        <ele>1454</ele>
        <time>2021-08-28T07:16:19Z</time>
      </trkpt>
      <trkpt lat="42.99106" lon="-0.22092">
        <ele>1454</ele>
        <time>2021-08-28T07:16:20Z</time>
      </trkpt>
      <trkpt lat="42.99106" lon="-0.22093">
        <ele>1454.2</ele>
        <time>2021-08-28T07:16:21Z</time>
      </trkpt>
      <trkpt lat="42.99107" lon="-0.22095">
        <ele>1454.4</ele>
        <time>2021-08-28T07:16:22Z</time>
      </trkpt>
      <trkpt lat="42.99107" lon="-0.22097">
        <ele>1454.6</ele>
        <time>2021-08-28T07:16:23Z</time>
      </trkpt>
      <trkpt lat="42.99107" lon="-0.22098">
        <ele>1454.8</ele>
        <time>2021-08-28T07:16:24Z</time>
      </trkpt>
      <trkpt lat="42.99108" lon="-0.221">
        <ele>1454.8</ele>
        <time>2021-08-28T07:16:25Z</time>
      </trkpt>
      <trkpt lat="42.99108" lon="-0.22101">
        <ele>1454.8</ele>
        <time>2021-08-28T07:16:26Z</time>
      </trkpt>
      <trkpt lat="42.99108" lon="-0.22103">
        <ele>1455</ele>
        <time>2021-08-28T07:16:27Z</time>
      </trkpt>
      <trkpt lat="42.99108" lon="-0.22105">
        <ele>1455</ele>
        <time>2021-08-28T07:16:28Z</time>
      </trkpt>
      <trkpt lat="42.99108" lon="-0.22107">
        <ele>1455.2</ele>
        <time>2021-08-28T07:16:29Z</time>
      </trkpt>
      <trkpt lat="42.99109" lon="-0.22109">
        <ele>1455.6</ele>
        <time>2021-08-28T07:16:30Z</time>
      </trkpt>
      <trkpt lat="42.99109" lon="-0.22111">
        <ele>1455.8</ele>
        <time>2021-08-28T07:16:31Z</time>
      </trkpt>
      <trkpt lat="42.99109" lon="-0.22113">
        <ele>1456</ele>
        <time>2021-08-28T07:16:32Z</time>
      </trkpt>
      <trkpt lat="42.99109" lon="-0.22115">
        <ele>1456</ele>
        <time>2021-08-28T07:16:33Z</time>
      </trkpt>
      <trkpt lat="42.99109" lon="-0.22116">
        <ele>1456.2</ele>
        <time>2021-08-28T07:16:34Z</time>
      </trkpt>
      <trkpt lat="42.99109" lon="-0.22118">
        <ele>1456.2</ele>
        <time>2021-08-28T07:16:35Z</time>
      </trkpt>
      <trkpt lat="42.99109" lon="-0.22121">
        <ele>1456.6</ele>
        <time>2021-08-28T07:16:36Z</time>
      </trkpt>
      <trkpt lat="42.99109" lon="-0.22123">
        <ele>1456.8</ele>
        <time>2021-08-28T07:16:37Z</time>
      </trkpt>
      <trkpt lat="42.9911" lon="-0.22125">
        <ele>1456.8</ele>
        <time>2021-08-28T07:16:38Z</time>
      </trkpt>
      <trkpt lat="42.9911" lon="-0.22127">
        <ele>1457</ele>
        <time>2021-08-28T07:16:39Z</time>
      </trkpt>
      <trkpt lat="42.99112" lon="-0.2213">
        <ele>1457.2</ele>
        <time>2021-08-28T07:16:40Z</time>
      </trkpt>
      <trkpt lat="42.99112" lon="-0.2213">
        <ele>1457.2</ele>
        <time>2021-08-28T07:16:41Z</time>
      </trkpt>
      <trkpt lat="42.99113" lon="-0.22133">
        <ele>1457.4</ele>
        <time>2021-08-28T07:16:42Z</time>
      </trkpt>
      <trkpt lat="42.99114" lon="-0.22135">
        <ele>1457.6</ele>
        <time>2021-08-28T07:16:43Z</time>
      </trkpt>
      <trkpt lat="42.99114" lon="-0.22135">
        <ele>1457.6</ele>
        <time>2021-08-28T07:16:44Z</time>
      </trkpt>
      <trkpt lat="42.99115" lon="-0.22136">
        <ele>1457.8</ele>
        <time>2021-08-28T07:16:45Z</time>
      </trkpt>
      <trkpt lat="42.99116" lon="-0.22138">
        <ele>1457.8</ele>
        <time>2021-08-28T07:16:46Z</time>
      </trkpt>
      <trkpt lat="42.99118" lon="-0.22141">
        <ele>1458</ele>
        <time>2021-08-28T07:16:47Z</time>
      </trkpt>
      <trkpt lat="42.99118" lon="-0.22142">
        <ele>1458</ele>
        <time>2021-08-28T07:16:48Z</time>
      </trkpt>
      <trkpt lat="42.99119" lon="-0.22144">
        <ele>1458.2</ele>
        <time>2021-08-28T07:16:49Z</time>
      </trkpt>
      <trkpt lat="42.9912" lon="-0.22145">
        <ele>1458.4</ele>
        <time>2021-08-28T07:16:50Z</time>
      </trkpt>
      <trkpt lat="42.99121" lon="-0.22147">
        <ele>1458.6</ele>
        <time>2021-08-28T07:16:51Z</time>
      </trkpt>
      <trkpt lat="42.99121" lon="-0.22147">
        <ele>1458.8</ele>
        <time>2021-08-28T07:16:52Z</time>
      </trkpt>
      <trkpt lat="42.99122" lon="-0.22148">
        <ele>1459</ele>
        <time>2021-08-28T07:16:53Z</time>
      </trkpt>
      <trkpt lat="42.99122" lon="-0.2215">
        <ele>1459</ele>
        <time>2021-08-28T07:16:54Z</time>
      </trkpt>
      <trkpt lat="42.99123" lon="-0.22151">
        <ele>1459.2</ele>
        <time>2021-08-28T07:16:55Z</time>
      </trkpt>
      <trkpt lat="42.99124" lon="-0.22152">
        <ele>1459.4</ele>
        <time>2021-08-28T07:16:56Z</time>
      </trkpt>
      <trkpt lat="42.99125" lon="-0.22154">
        <ele>1459.6</ele>
        <time>2021-08-28T07:16:57Z</time>
      </trkpt>
      <trkpt lat="42.99125" lon="-0.22155">
        <ele>1459.8</ele>
        <time>2021-08-28T07:16:58Z</time>
      </trkpt>
      <trkpt lat="42.99126" lon="-0.22159">
        <ele>1460.2</ele>
        <time>2021-08-28T07:16:59Z</time>
      </trkpt>
      <trkpt lat="42.99126" lon="-0.22159">
        <ele>1460.4</ele>
        <time>2021-08-28T07:17:00Z</time>
      </trkpt>
      <trkpt lat="42.99126" lon="-0.22161">
        <ele>1460.6</ele>
        <time>2021-08-28T07:17:01Z</time>
      </trkpt>
      <trkpt lat="42.99127" lon="-0.22162">
        <ele>1460.6</ele>
        <time>2021-08-28T07:17:02Z</time>
      </trkpt>
      <trkpt lat="42.99128" lon="-0.22165">
        <ele>1461</ele>
        <time>2021-08-28T07:17:03Z</time>
      </trkpt>
      <trkpt lat="42.99128" lon="-0.22165">
        <ele>1461.4</ele>
        <time>2021-08-28T07:17:04Z</time>
      </trkpt>
      <trkpt lat="42.9913" lon="-0.22168">
        <ele>1461.4</ele>
        <time>2021-08-28T07:17:05Z</time>
      </trkpt>
      <trkpt lat="42.9913" lon="-0.22168">
        <ele>1461.8</ele>
        <time>2021-08-28T07:17:06Z</time>
      </trkpt>
      <trkpt lat="42.99131" lon="-0.2217">
        <ele>1462</ele>
        <time>2021-08-28T07:17:07Z</time>
      </trkpt>
      <trkpt lat="42.99132" lon="-0.22172">
        <ele>1462.2</ele>
        <time>2021-08-28T07:17:08Z</time>
      </trkpt>
      <trkpt lat="42.99132" lon="-0.22172">
        <ele>1462.4</ele>
        <time>2021-08-28T07:17:09Z</time>
      </trkpt>
      <trkpt lat="42.99133" lon="-0.22175">
        <ele>1462.6</ele>
        <time>2021-08-28T07:17:10Z</time>
      </trkpt>
      <trkpt lat="42.99134" lon="-0.22176">
        <ele>1462.6</ele>
        <time>2021-08-28T07:17:11Z</time>
      </trkpt>
      <trkpt lat="42.99134" lon="-0.22178">
        <ele>1462.8</ele>
        <time>2021-08-28T07:17:12Z</time>
      </trkpt>
      <trkpt lat="42.99134" lon="-0.22178">
        <ele>1463</ele>
        <time>2021-08-28T07:17:13Z</time>
      </trkpt>
      <trkpt lat="42.99135" lon="-0.2218">
        <ele>1463.4</ele>
        <time>2021-08-28T07:17:14Z</time>
      </trkpt>
      <trkpt lat="42.99135" lon="-0.22181">
        <ele>1463.4</ele>
        <time>2021-08-28T07:17:15Z</time>
      </trkpt>
      <trkpt lat="42.99135" lon="-0.22182">
        <ele>1463.6</ele>
        <time>2021-08-28T07:17:16Z</time>
      </trkpt>
      <trkpt lat="42.99137" lon="-0.22186">
        <ele>1463.6</ele>
        <time>2021-08-28T07:17:17Z</time>
      </trkpt>
      <trkpt lat="42.99137" lon="-0.22187">
        <ele>1463.8</ele>
        <time>2021-08-28T07:17:18Z</time>
      </trkpt>
      <trkpt lat="42.99138" lon="-0.22189">
        <ele>1464</ele>
        <time>2021-08-28T07:17:19Z</time>
      </trkpt>
      <trkpt lat="42.99138" lon="-0.22189">
        <ele>1464</ele>
        <time>2021-08-28T07:17:20Z</time>
      </trkpt>
      <trkpt lat="42.99138" lon="-0.22193">
        <ele>1464.2</ele>
        <time>2021-08-28T07:17:21Z</time>
      </trkpt>
      <trkpt lat="42.99139" lon="-0.22194">
        <ele>1464.4</ele>
        <time>2021-08-28T07:17:22Z</time>
      </trkpt>
      <trkpt lat="42.99139" lon="-0.22194">
        <ele>1464.8</ele>
        <time>2021-08-28T07:17:23Z</time>
      </trkpt>
      <trkpt lat="42.99139" lon="-0.22198">
        <ele>1464.8</ele>
        <time>2021-08-28T07:17:24Z</time>
      </trkpt>
      <trkpt lat="42.99139" lon="-0.222">
        <ele>1465.2</ele>
        <time>2021-08-28T07:17:25Z</time>
      </trkpt>
      <trkpt lat="42.9914" lon="-0.22201">
        <ele>1465.4</ele>
        <time>2021-08-28T07:17:26Z</time>
      </trkpt>
      <trkpt lat="42.9914" lon="-0.22203">
        <ele>1465.6</ele>
        <time>2021-08-28T07:17:27Z</time>
      </trkpt>
      <trkpt lat="42.9914" lon="-0.22204">
        <ele>1465.8</ele>
        <time>2021-08-28T07:17:28Z</time>
      </trkpt>
      <trkpt lat="42.9914" lon="-0.22206">
        <ele>1466</ele>
        <time>2021-08-28T07:17:29Z</time>
      </trkpt>
      <trkpt lat="42.99141" lon="-0.22208">
        <ele>1466.2</ele>
        <time>2021-08-28T07:17:30Z</time>
      </trkpt>
      <trkpt lat="42.99141" lon="-0.22209">
        <ele>1466.4</ele>
        <time>2021-08-28T07:17:31Z</time>
      </trkpt>
      <trkpt lat="42.99141" lon="-0.2221">
        <ele>1466.6</ele>
        <time>2021-08-28T07:17:32Z</time>
      </trkpt>
      <trkpt lat="42.99142" lon="-0.22212">
        <ele>1466.8</ele>
        <time>2021-08-28T07:17:33Z</time>
      </trkpt>
      <trkpt lat="42.99142" lon="-0.22214">
        <ele>1466.8</ele>
        <time>2021-08-28T07:17:34Z</time>
      </trkpt>
      <trkpt lat="42.99142" lon="-0.22214">
        <ele>1467</ele>
        <time>2021-08-28T07:17:35Z</time>
      </trkpt>
      <trkpt lat="42.99143" lon="-0.22217">
        <ele>1467.2</ele>
        <time>2021-08-28T07:17:36Z</time>
      </trkpt>
      <trkpt lat="42.99143" lon="-0.22219">
        <ele>1467.4</ele>
        <time>2021-08-28T07:17:37Z</time>
      </trkpt>
      <trkpt lat="42.99143" lon="-0.2222">
        <ele>1467.6</ele>
        <time>2021-08-28T07:17:38Z</time>
      </trkpt>
      <trkpt lat="42.99142" lon="-0.22222">
        <ele>1467.8</ele>
        <time>2021-08-28T07:17:39Z</time>
      </trkpt>
      <trkpt lat="42.99142" lon="-0.22223">
        <ele>1467.8</ele>
        <time>2021-08-28T07:17:40Z</time>
      </trkpt>
      <trkpt lat="42.99141" lon="-0.22225">
        <ele>1468</ele>
        <time>2021-08-28T07:17:41Z</time>
      </trkpt>
      <trkpt lat="42.9914" lon="-0.22226">
        <ele>1468</ele>
        <time>2021-08-28T07:17:42Z</time>
      </trkpt>
      <trkpt lat="42.99139" lon="-0.22228">
        <ele>1468.2</ele>
        <time>2021-08-28T07:17:43Z</time>
      </trkpt>
      <trkpt lat="42.99138" lon="-0.22229">
        <ele>1468.4</ele>
        <time>2021-08-28T07:17:44Z</time>
      </trkpt>
      <trkpt lat="42.99137" lon="-0.22229">
        <ele>1468.6</ele>
        <time>2021-08-28T07:17:45Z</time>
      </trkpt>
      <trkpt lat="42.99136" lon="-0.2223">
        <ele>1468.8</ele>
        <time>2021-08-28T07:17:46Z</time>
      </trkpt>
      <trkpt lat="42.99134" lon="-0.2223">
        <ele>1468.8</ele>
        <time>2021-08-28T07:17:47Z</time>
      </trkpt>
      <trkpt lat="42.99133" lon="-0.2223">
        <ele>1469</ele>
        <time>2021-08-28T07:17:48Z</time>
      </trkpt>
      <trkpt lat="42.99132" lon="-0.2223">
        <ele>1469</ele>
        <time>2021-08-28T07:17:49Z</time>
      </trkpt>
      <trkpt lat="42.99131" lon="-0.22228">
        <ele>1469.4</ele>
        <time>2021-08-28T07:17:50Z</time>
      </trkpt>
      <trkpt lat="42.9913" lon="-0.22227">
        <ele>1469.4</ele>
        <time>2021-08-28T07:17:51Z</time>
      </trkpt>
      <trkpt lat="42.99129" lon="-0.22226">
        <ele>1469.8</ele>
        <time>2021-08-28T07:17:52Z</time>
      </trkpt>
      <trkpt lat="42.99129" lon="-0.22226">
        <ele>1469.8</ele>
        <time>2021-08-28T07:17:53Z</time>
      </trkpt>
      <trkpt lat="42.99126" lon="-0.22225">
        <ele>1470</ele>
        <time>2021-08-28T07:17:54Z</time>
      </trkpt>
      <trkpt lat="42.99125" lon="-0.22224">
        <ele>1470</ele>
        <time>2021-08-28T07:17:55Z</time>
      </trkpt>
      <trkpt lat="42.99124" lon="-0.22223">
        <ele>1470.2</ele>
        <time>2021-08-28T07:17:56Z</time>
      </trkpt>
      <trkpt lat="42.99124" lon="-0.22223">
        <ele>1470.2</ele>
        <time>2021-08-28T07:17:57Z</time>
      </trkpt>
      <trkpt lat="42.9912" lon="-0.22221">
        <ele>1470.4</ele>
        <time>2021-08-28T07:17:58Z</time>
      </trkpt>
      <trkpt lat="42.99119" lon="-0.22221">
        <ele>1470.6</ele>
        <time>2021-08-28T07:17:59Z</time>
      </trkpt>
      <trkpt lat="42.99119" lon="-0.22221">
        <ele>1470.6</ele>
        <time>2021-08-28T07:18:00Z</time>
      </trkpt>
      <trkpt lat="42.99117" lon="-0.2222">
        <ele>1470.8</ele>
        <time>2021-08-28T07:18:01Z</time>
      </trkpt>
      <trkpt lat="42.99116" lon="-0.22219">
        <ele>1471</ele>
        <time>2021-08-28T07:18:02Z</time>
      </trkpt>
      <trkpt lat="42.99113" lon="-0.22217">
        <ele>1471</ele>
        <time>2021-08-28T07:18:03Z</time>
      </trkpt>
      <trkpt lat="42.99113" lon="-0.22217">
        <ele>1471</ele>
        <time>2021-08-28T07:18:04Z</time>
      </trkpt>
      <trkpt lat="42.99111" lon="-0.22216">
        <ele>1471</ele>
        <time>2021-08-28T07:18:05Z</time>
      </trkpt>
      <trkpt lat="42.9911" lon="-0.22215">
        <ele>1471</ele>
        <time>2021-08-28T07:18:06Z</time>
      </trkpt>
      <trkpt lat="42.99108" lon="-0.22214">
        <ele>1471.2</ele>
        <time>2021-08-28T07:18:07Z</time>
      </trkpt>
      <trkpt lat="42.99108" lon="-0.22214">
        <ele>1471.2</ele>
        <time>2021-08-28T07:18:08Z</time>
      </trkpt>
      <trkpt lat="42.99107" lon="-0.22213">
        <ele>1471.4</ele>
        <time>2021-08-28T07:18:09Z</time>
      </trkpt>
      <trkpt lat="42.99104" lon="-0.2221">
        <ele>1471.4</ele>
        <time>2021-08-28T07:18:10Z</time>
      </trkpt>
      <trkpt lat="42.99104" lon="-0.22209">
        <ele>1471.6</ele>
        <time>2021-08-28T07:18:11Z</time>
      </trkpt>
      <trkpt lat="42.99104" lon="-0.22209">
        <ele>1471.6</ele>
        <time>2021-08-28T07:18:12Z</time>
      </trkpt>
      <trkpt lat="42.99103" lon="-0.22208">
        <ele>1471.6</ele>
        <time>2021-08-28T07:18:13Z</time>
      </trkpt>
      <trkpt lat="42.99102" lon="-0.22206">
        <ele>1471.8</ele>
        <time>2021-08-28T07:18:14Z</time>
      </trkpt>
      <trkpt lat="42.991" lon="-0.22204">
        <ele>1471.8</ele>
        <time>2021-08-28T07:18:15Z</time>
      </trkpt>
      <trkpt lat="42.99099" lon="-0.22202">
        <ele>1472</ele>
        <time>2021-08-28T07:18:16Z</time>
      </trkpt>
      <trkpt lat="42.99099" lon="-0.22202">
        <ele>1472.2</ele>
        <time>2021-08-28T07:18:17Z</time>
      </trkpt>
      <trkpt lat="42.99098" lon="-0.222">
        <ele>1472.2</ele>
        <time>2021-08-28T07:18:18Z</time>
      </trkpt>
      <trkpt lat="42.99097" lon="-0.22199">
        <ele>1472.6</ele>
        <time>2021-08-28T07:18:19Z</time>
      </trkpt>
      <trkpt lat="42.99096" lon="-0.22199">
        <ele>1472.6</ele>
        <time>2021-08-28T07:18:20Z</time>
      </trkpt>
      <trkpt lat="42.99096" lon="-0.22199">
        <ele>1473</ele>
        <time>2021-08-28T07:18:21Z</time>
      </trkpt>
      <trkpt lat="42.99093" lon="-0.22201">
        <ele>1473</ele>
        <time>2021-08-28T07:18:22Z</time>
      </trkpt>
      <trkpt lat="42.99093" lon="-0.22203">
        <ele>1473.2</ele>
        <time>2021-08-28T07:18:23Z</time>
      </trkpt>
      <trkpt lat="42.99092" lon="-0.22205">
        <ele>1473.6</ele>
        <time>2021-08-28T07:18:24Z</time>
      </trkpt>
      <trkpt lat="42.99092" lon="-0.22206">
        <ele>1473.6</ele>
        <time>2021-08-28T07:18:25Z</time>
      </trkpt>
      <trkpt lat="42.99092" lon="-0.22208">
        <ele>1473.8</ele>
        <time>2021-08-28T07:18:26Z</time>
      </trkpt>
      <trkpt lat="42.99092" lon="-0.2221">
        <ele>1473.8</ele>
        <time>2021-08-28T07:18:27Z</time>
      </trkpt>
      <trkpt lat="42.99092" lon="-0.22211">
        <ele>1473.8</ele>
        <time>2021-08-28T07:18:28Z</time>
      </trkpt>
      <trkpt lat="42.99093" lon="-0.22213">
        <ele>1473.8</ele>
        <time>2021-08-28T07:18:29Z</time>
      </trkpt>
      <trkpt lat="42.99093" lon="-0.22214">
        <ele>1474</ele>
        <time>2021-08-28T07:18:30Z</time>
      </trkpt>
      <trkpt lat="42.99094" lon="-0.22216">
        <ele>1474.2</ele>
        <time>2021-08-28T07:18:31Z</time>
      </trkpt>
      <trkpt lat="42.99095" lon="-0.22217">
        <ele>1474.6</ele>
        <time>2021-08-28T07:18:32Z</time>
      </trkpt>
      <trkpt lat="42.99095" lon="-0.22217">
        <ele>1474.8</ele>
        <time>2021-08-28T07:18:33Z</time>
      </trkpt>
      <trkpt lat="42.99096" lon="-0.2222">
        <ele>1474.8</ele>
        <time>2021-08-28T07:18:34Z</time>
      </trkpt>
      <trkpt lat="42.99097" lon="-0.22222">
        <ele>1475</ele>
        <time>2021-08-28T07:18:35Z</time>
      </trkpt>
      <trkpt lat="42.99098" lon="-0.22224">
        <ele>1475.2</ele>
        <time>2021-08-28T07:18:36Z</time>
      </trkpt>
      <trkpt lat="42.99098" lon="-0.22225">
        <ele>1475.2</ele>
        <time>2021-08-28T07:18:37Z</time>
      </trkpt>
      <trkpt lat="42.99099" lon="-0.22227">
        <ele>1475.6</ele>
        <time>2021-08-28T07:18:38Z</time>
      </trkpt>
      <trkpt lat="42.99099" lon="-0.22229">
        <ele>1475.6</ele>
        <time>2021-08-28T07:18:39Z</time>
      </trkpt>
      <trkpt lat="42.991" lon="-0.2223">
        <ele>1475.8</ele>
        <time>2021-08-28T07:18:40Z</time>
      </trkpt>
      <trkpt lat="42.99101" lon="-0.22232">
        <ele>1476</ele>
        <time>2021-08-28T07:18:41Z</time>
      </trkpt>
      <trkpt lat="42.99101" lon="-0.22233">
        <ele>1476.2</ele>
        <time>2021-08-28T07:18:42Z</time>
      </trkpt>
      <trkpt lat="42.99101" lon="-0.22234">
        <ele>1476.4</ele>
        <time>2021-08-28T07:18:43Z</time>
      </trkpt>
      <trkpt lat="42.99102" lon="-0.22236">
        <ele>1476.6</ele>
        <time>2021-08-28T07:18:44Z</time>
      </trkpt>
      <trkpt lat="42.99102" lon="-0.22238">
        <ele>1477</ele>
        <time>2021-08-28T07:18:45Z</time>
      </trkpt>
      <trkpt lat="42.99102" lon="-0.22238">
        <ele>1477</ele>
        <time>2021-08-28T07:18:46Z</time>
      </trkpt>
      <trkpt lat="42.99103" lon="-0.22241">
        <ele>1477.2</ele>
        <time>2021-08-28T07:18:47Z</time>
      </trkpt>
      <trkpt lat="42.99103" lon="-0.22243">
        <ele>1477.4</ele>
        <time>2021-08-28T07:18:48Z</time>
      </trkpt>
      <trkpt lat="42.99104" lon="-0.22244">
        <ele>1477.8</ele>
        <time>2021-08-28T07:18:49Z</time>
      </trkpt>
      <trkpt lat="42.99104" lon="-0.22246">
        <ele>1478</ele>
        <time>2021-08-28T07:18:50Z</time>
      </trkpt>
      <trkpt lat="42.99105" lon="-0.22247">
        <ele>1478</ele>
        <time>2021-08-28T07:18:51Z</time>
      </trkpt>
      <trkpt lat="42.99105" lon="-0.22249">
        <ele>1478.2</ele>
        <time>2021-08-28T07:18:52Z</time>
      </trkpt>
      <trkpt lat="42.99105" lon="-0.2225">
        <ele>1478.4</ele>
        <time>2021-08-28T07:18:53Z</time>
      </trkpt>
      <trkpt lat="42.99105" lon="-0.22252">
        <ele>1478.6</ele>
        <time>2021-08-28T07:18:54Z</time>
      </trkpt>
      <trkpt lat="42.99106" lon="-0.22254">
        <ele>1478.8</ele>
        <time>2021-08-28T07:18:55Z</time>
      </trkpt>
      <trkpt lat="42.99106" lon="-0.22256">
        <ele>1479</ele>
        <time>2021-08-28T07:18:56Z</time>
      </trkpt>
      <trkpt lat="42.99107" lon="-0.22258">
        <ele>1479.2</ele>
        <time>2021-08-28T07:18:57Z</time>
      </trkpt>
      <trkpt lat="42.99107" lon="-0.22259">
        <ele>1479.2</ele>
        <time>2021-08-28T07:18:58Z</time>
      </trkpt>
      <trkpt lat="42.99108" lon="-0.22261">
        <ele>1479.4</ele>
        <time>2021-08-28T07:18:59Z</time>
      </trkpt>
      <trkpt lat="42.99108" lon="-0.22263">
        <ele>1479.4</ele>
        <time>2021-08-28T07:19:00Z</time>
      </trkpt>
      <trkpt lat="42.99108" lon="-0.22265">
        <ele>1479.6</ele>
        <time>2021-08-28T07:19:01Z</time>
      </trkpt>
      <trkpt lat="42.99109" lon="-0.22266">
        <ele>1479.6</ele>
        <time>2021-08-28T07:19:02Z</time>
      </trkpt>
      <trkpt lat="42.99109" lon="-0.22268">
        <ele>1479.8</ele>
        <time>2021-08-28T07:19:03Z</time>
      </trkpt>
      <trkpt lat="42.9911" lon="-0.2227">
        <ele>1480.2</ele>
        <time>2021-08-28T07:19:04Z</time>
      </trkpt>
      <trkpt lat="42.99111" lon="-0.22272">
        <ele>1480.2</ele>
        <time>2021-08-28T07:19:05Z</time>
      </trkpt>
      <trkpt lat="42.99111" lon="-0.22274">
        <ele>1480.4</ele>
        <time>2021-08-28T07:19:06Z</time>
      </trkpt>
      <trkpt lat="42.99111" lon="-0.22276">
        <ele>1480.6</ele>
        <time>2021-08-28T07:19:07Z</time>
      </trkpt>
      <trkpt lat="42.99112" lon="-0.22278">
        <ele>1480.8</ele>
        <time>2021-08-28T07:19:08Z</time>
      </trkpt>
      <trkpt lat="42.99112" lon="-0.22279">
        <ele>1481</ele>
        <time>2021-08-28T07:19:09Z</time>
      </trkpt>
      <trkpt lat="42.99113" lon="-0.22281">
        <ele>1481.4</ele>
        <time>2021-08-28T07:19:10Z</time>
      </trkpt>
      <trkpt lat="42.99113" lon="-0.22282">
        <ele>1481.4</ele>
        <time>2021-08-28T07:19:11Z</time>
      </trkpt>
      <trkpt lat="42.99114" lon="-0.22284">
        <ele>1481.6</ele>
        <time>2021-08-28T07:19:12Z</time>
      </trkpt>
      <trkpt lat="42.99115" lon="-0.22285">
        <ele>1481.6</ele>
        <time>2021-08-28T07:19:13Z</time>
      </trkpt>
      <trkpt lat="42.99115" lon="-0.22287">
        <ele>1482</ele>
        <time>2021-08-28T07:19:14Z</time>
      </trkpt>
      <trkpt lat="42.99116" lon="-0.22289">
        <ele>1482</ele>
        <time>2021-08-28T07:19:15Z</time>
      </trkpt>
      <trkpt lat="42.99117" lon="-0.2229">
        <ele>1482.4</ele>
        <time>2021-08-28T07:19:16Z</time>
      </trkpt>
      <trkpt lat="42.99117" lon="-0.2229">
        <ele>1482.6</ele>
        <time>2021-08-28T07:19:17Z</time>
      </trkpt>
      <trkpt lat="42.99118" lon="-0.22293">
        <ele>1482.8</ele>
        <time>2021-08-28T07:19:18Z</time>
      </trkpt>
      <trkpt lat="42.99118" lon="-0.22295">
        <ele>1483</ele>
        <time>2021-08-28T07:19:19Z</time>
      </trkpt>
      <trkpt lat="42.99118" lon="-0.22296">
        <ele>1483</ele>
        <time>2021-08-28T07:19:20Z</time>
      </trkpt>
      <trkpt lat="42.99119" lon="-0.22298">
        <ele>1483.2</ele>
        <time>2021-08-28T07:19:21Z</time>
      </trkpt>
      <trkpt lat="42.99119" lon="-0.22298">
        <ele>1483.4</ele>
        <time>2021-08-28T07:19:22Z</time>
      </trkpt>
      <trkpt lat="42.99119" lon="-0.22302">
        <ele>1483.8</ele>
        <time>2021-08-28T07:19:23Z</time>
      </trkpt>
      <trkpt lat="42.99119" lon="-0.22304">
        <ele>1484</ele>
        <time>2021-08-28T07:19:24Z</time>
      </trkpt>
      <trkpt lat="42.99119" lon="-0.22305">
        <ele>1484.2</ele>
        <time>2021-08-28T07:19:25Z</time>
      </trkpt>
      <trkpt lat="42.9912" lon="-0.22307">
        <ele>1484.4</ele>
        <time>2021-08-28T07:19:26Z</time>
      </trkpt>
      <trkpt lat="42.9912" lon="-0.22309">
        <ele>1484.6</ele>
        <time>2021-08-28T07:19:27Z</time>
      </trkpt>
      <trkpt lat="42.9912" lon="-0.22311">
        <ele>1484.8</ele>
        <time>2021-08-28T07:19:28Z</time>
      </trkpt>
      <trkpt lat="42.99121" lon="-0.22313">
        <ele>1485</ele>
        <time>2021-08-28T07:19:29Z</time>
      </trkpt>
      <trkpt lat="42.99121" lon="-0.22314">
        <ele>1485.2</ele>
        <time>2021-08-28T07:19:30Z</time>
      </trkpt>
      <trkpt lat="42.99121" lon="-0.22316">
        <ele>1485.2</ele>
        <time>2021-08-28T07:19:31Z</time>
      </trkpt>
      <trkpt lat="42.99122" lon="-0.22318">
        <ele>1485.4</ele>
        <time>2021-08-28T07:19:32Z</time>
      </trkpt>
      <trkpt lat="42.99122" lon="-0.2232">
        <ele>1485.4</ele>
        <time>2021-08-28T07:19:33Z</time>
      </trkpt>
      <trkpt lat="42.99123" lon="-0.22322">
        <ele>1485.6</ele>
        <time>2021-08-28T07:19:34Z</time>
      </trkpt>
      <trkpt lat="42.99123" lon="-0.22324">
        <ele>1486</ele>
        <time>2021-08-28T07:19:35Z</time>
      </trkpt>
      <trkpt lat="42.99123" lon="-0.22325">
        <ele>1486.2</ele>
        <time>2021-08-28T07:19:36Z</time>
      </trkpt>
      <trkpt lat="42.99123" lon="-0.22328">
        <ele>1486.6</ele>
        <time>2021-08-28T07:19:37Z</time>
      </trkpt>
      <trkpt lat="42.99123" lon="-0.22329">
        <ele>1486.8</ele>
        <time>2021-08-28T07:19:38Z</time>
      </trkpt>
      <trkpt lat="42.99123" lon="-0.22331">
        <ele>1487</ele>
        <time>2021-08-28T07:19:39Z</time>
      </trkpt>
      <trkpt lat="42.99124" lon="-0.22333">
        <ele>1487.2</ele>
        <time>2021-08-28T07:19:40Z</time>
      </trkpt>
      <trkpt lat="42.99124" lon="-0.22334">
        <ele>1487.4</ele>
        <time>2021-08-28T07:19:41Z</time>
      </trkpt>
      <trkpt lat="42.99124" lon="-0.22336">
        <ele>1487.6</ele>
        <time>2021-08-28T07:19:42Z</time>
      </trkpt>
      <trkpt lat="42.99124" lon="-0.22338">
        <ele>1487.6</ele>
        <time>2021-08-28T07:19:43Z</time>
      </trkpt>
      <trkpt lat="42.99124" lon="-0.22339">
        <ele>1488</ele>
        <time>2021-08-28T07:19:44Z</time>
      </trkpt>
      <trkpt lat="42.99124" lon="-0.22341">
        <ele>1488</ele>
        <time>2021-08-28T07:19:45Z</time>
      </trkpt>
      <trkpt lat="42.99124" lon="-0.22343">
        <ele>1488.2</ele>
        <time>2021-08-28T07:19:46Z</time>
      </trkpt>
      <trkpt lat="42.99124" lon="-0.22344">
        <ele>1488.2</ele>
        <time>2021-08-28T07:19:47Z</time>
      </trkpt>
      <trkpt lat="42.99125" lon="-0.22346">
        <ele>1488.4</ele>
        <time>2021-08-28T07:19:48Z</time>
      </trkpt>
      <trkpt lat="42.99125" lon="-0.22347">
        <ele>1488.4</ele>
        <time>2021-08-28T07:19:49Z</time>
      </trkpt>
      <trkpt lat="42.99125" lon="-0.22349">
        <ele>1488.8</ele>
        <time>2021-08-28T07:19:50Z</time>
      </trkpt>
      <trkpt lat="42.99125" lon="-0.2235">
        <ele>1488.8</ele>
        <time>2021-08-28T07:19:51Z</time>
      </trkpt>
      <trkpt lat="42.99125" lon="-0.22351">
        <ele>1489</ele>
        <time>2021-08-28T07:19:52Z</time>
      </trkpt>
      <trkpt lat="42.99125" lon="-0.22353">
        <ele>1489</ele>
        <time>2021-08-28T07:19:53Z</time>
      </trkpt>
      <trkpt lat="42.99125" lon="-0.22355">
        <ele>1489.2</ele>
        <time>2021-08-28T07:19:54Z</time>
      </trkpt>
      <trkpt lat="42.99126" lon="-0.22356">
        <ele>1489.4</ele>
        <time>2021-08-28T07:19:55Z</time>
      </trkpt>
      <trkpt lat="42.99126" lon="-0.22358">
        <ele>1489.6</ele>
        <time>2021-08-28T07:19:56Z</time>
      </trkpt>
      <trkpt lat="42.99126" lon="-0.2236">
        <ele>1489.6</ele>
        <time>2021-08-28T07:19:57Z</time>
      </trkpt>
      <trkpt lat="42.99127" lon="-0.22361">
        <ele>1489.8</ele>
        <time>2021-08-28T07:19:58Z</time>
      </trkpt>
      <trkpt lat="42.99127" lon="-0.22363">
        <ele>1490</ele>
        <time>2021-08-28T07:19:59Z</time>
      </trkpt>
      <trkpt lat="42.99127" lon="-0.22365">
        <ele>1490.2</ele>
        <time>2021-08-28T07:20:00Z</time>
      </trkpt>
      <trkpt lat="42.99127" lon="-0.22368">
        <ele>1490.6</ele>
        <time>2021-08-28T07:20:01Z</time>
      </trkpt>
      <trkpt lat="42.99127" lon="-0.2237">
        <ele>1490.8</ele>
        <time>2021-08-28T07:20:02Z</time>
      </trkpt>
      <trkpt lat="42.99127" lon="-0.22372">
        <ele>1491</ele>
        <time>2021-08-28T07:20:03Z</time>
      </trkpt>
      <trkpt lat="42.99127" lon="-0.22374">
        <ele>1491.2</ele>
        <time>2021-08-28T07:20:04Z</time>
      </trkpt>
      <trkpt lat="42.99127" lon="-0.22374">
        <ele>1491.4</ele>
        <time>2021-08-28T07:20:05Z</time>
      </trkpt>
      <trkpt lat="42.99128" lon="-0.22377">
        <ele>1491.6</ele>
        <time>2021-08-28T07:20:06Z</time>
      </trkpt>
      <trkpt lat="42.99128" lon="-0.22378">
        <ele>1491.6</ele>
        <time>2021-08-28T07:20:07Z</time>
      </trkpt>
      <trkpt lat="42.99128" lon="-0.2238">
        <ele>1491.8</ele>
        <time>2021-08-28T07:20:08Z</time>
      </trkpt>
      <trkpt lat="42.99128" lon="-0.22381">
        <ele>1492</ele>
        <time>2021-08-28T07:20:09Z</time>
      </trkpt>
      <trkpt lat="42.99129" lon="-0.22383">
        <ele>1492.2</ele>
        <time>2021-08-28T07:20:10Z</time>
      </trkpt>
      <trkpt lat="42.99129" lon="-0.22385">
        <ele>1492.4</ele>
        <time>2021-08-28T07:20:11Z</time>
      </trkpt>
      <trkpt lat="42.99129" lon="-0.22386">
        <ele>1492.6</ele>
        <time>2021-08-28T07:20:12Z</time>
      </trkpt>
      <trkpt lat="42.9913" lon="-0.22388">
        <ele>1493</ele>
        <time>2021-08-28T07:20:13Z</time>
      </trkpt>
      <trkpt lat="42.9913" lon="-0.22388">
        <ele>1492.8</ele>
        <time>2021-08-28T07:20:14Z</time>
      </trkpt>
      <trkpt lat="42.9913" lon="-0.22391">
        <ele>1493.4</ele>
        <time>2021-08-28T07:20:15Z</time>
      </trkpt>
      <trkpt lat="42.99131" lon="-0.22393">
        <ele>1493.4</ele>
        <time>2021-08-28T07:20:16Z</time>
      </trkpt>
      <trkpt lat="42.9913" lon="-0.22394">
        <ele>1493.6</ele>
        <time>2021-08-28T07:20:17Z</time>
      </trkpt>
      <trkpt lat="42.9913" lon="-0.22396">
        <ele>1493.6</ele>
        <time>2021-08-28T07:20:18Z</time>
      </trkpt>
      <trkpt lat="42.9913" lon="-0.22398">
        <ele>1494</ele>
        <time>2021-08-28T07:20:19Z</time>
      </trkpt>
      <trkpt lat="42.9913" lon="-0.224">
        <ele>1494.4</ele>
        <time>2021-08-28T07:20:20Z</time>
      </trkpt>
      <trkpt lat="42.9913" lon="-0.22401">
        <ele>1494.6</ele>
        <time>2021-08-28T07:20:21Z</time>
      </trkpt>
      <trkpt lat="42.9913" lon="-0.22403">
        <ele>1494.8</ele>
        <time>2021-08-28T07:20:22Z</time>
      </trkpt>
      <trkpt lat="42.9913" lon="-0.22405">
        <ele>1494.8</ele>
        <time>2021-08-28T07:20:23Z</time>
      </trkpt>
      <trkpt lat="42.9913" lon="-0.22407">
        <ele>1495</ele>
        <time>2021-08-28T07:20:24Z</time>
      </trkpt>
      <trkpt lat="42.9913" lon="-0.22409">
        <ele>1495.2</ele>
        <time>2021-08-28T07:20:25Z</time>
      </trkpt>
      <trkpt lat="42.9913" lon="-0.22411">
        <ele>1495.4</ele>
        <time>2021-08-28T07:20:26Z</time>
      </trkpt>
      <trkpt lat="42.9913" lon="-0.22413">
        <ele>1495.6</ele>
        <time>2021-08-28T07:20:27Z</time>
      </trkpt>
      <trkpt lat="42.9913" lon="-0.22415">
        <ele>1495.8</ele>
        <time>2021-08-28T07:20:28Z</time>
      </trkpt>
      <trkpt lat="42.9913" lon="-0.22416">
        <ele>1495.8</ele>
        <time>2021-08-28T07:20:29Z</time>
      </trkpt>
      <trkpt lat="42.9913" lon="-0.22418">
        <ele>1496.2</ele>
        <time>2021-08-28T07:20:30Z</time>
      </trkpt>
      <trkpt lat="42.9913" lon="-0.2242">
        <ele>1496.2</ele>
        <time>2021-08-28T07:20:31Z</time>
      </trkpt>
      <trkpt lat="42.99131" lon="-0.22422">
        <ele>1496.6</ele>
        <time>2021-08-28T07:20:32Z</time>
      </trkpt>
      <trkpt lat="42.99131" lon="-0.22424">
        <ele>1496.6</ele>
        <time>2021-08-28T07:20:33Z</time>
      </trkpt>
      <trkpt lat="42.99131" lon="-0.22426">
        <ele>1496.8</ele>
        <time>2021-08-28T07:20:34Z</time>
      </trkpt>
      <trkpt lat="42.99131" lon="-0.22428">
        <ele>1497</ele>
        <time>2021-08-28T07:20:35Z</time>
      </trkpt>
      <trkpt lat="42.99132" lon="-0.22429">
        <ele>1497.2</ele>
        <time>2021-08-28T07:20:36Z</time>
      </trkpt>
      <trkpt lat="42.99132" lon="-0.22431">
        <ele>1497.4</ele>
        <time>2021-08-28T07:20:37Z</time>
      </trkpt>
      <trkpt lat="42.99132" lon="-0.22433">
        <ele>1497.4</ele>
        <time>2021-08-28T07:20:38Z</time>
      </trkpt>
      <trkpt lat="42.99133" lon="-0.22434">
        <ele>1497.6</ele>
        <time>2021-08-28T07:20:39Z</time>
      </trkpt>
      <trkpt lat="42.99133" lon="-0.22436">
        <ele>1497.8</ele>
        <time>2021-08-28T07:20:40Z</time>
      </trkpt>
      <trkpt lat="42.99133" lon="-0.22437">
        <ele>1498.2</ele>
        <time>2021-08-28T07:20:41Z</time>
      </trkpt>
      <trkpt lat="42.99133" lon="-0.22439">
        <ele>1498.2</ele>
        <time>2021-08-28T07:20:42Z</time>
      </trkpt>
      <trkpt lat="42.99133" lon="-0.2244">
        <ele>1498.4</ele>
        <time>2021-08-28T07:20:43Z</time>
      </trkpt>
      <trkpt lat="42.99133" lon="-0.22441">
        <ele>1498.6</ele>
        <time>2021-08-28T07:20:44Z</time>
      </trkpt>
      <trkpt lat="42.99133" lon="-0.22443">
        <ele>1498.8</ele>
        <time>2021-08-28T07:20:45Z</time>
      </trkpt>
      <trkpt lat="42.99133" lon="-0.22444">
        <ele>1498.8</ele>
        <time>2021-08-28T07:20:46Z</time>
      </trkpt>
      <trkpt lat="42.99134" lon="-0.22447">
        <ele>1499.2</ele>
        <time>2021-08-28T07:20:47Z</time>
      </trkpt>
      <trkpt lat="42.99134" lon="-0.22448">
        <ele>1499.2</ele>
        <time>2021-08-28T07:20:48Z</time>
      </trkpt>
      <trkpt lat="42.99134" lon="-0.2245">
        <ele>1499.4</ele>
        <time>2021-08-28T07:20:49Z</time>
      </trkpt>
      <trkpt lat="42.99135" lon="-0.22451">
        <ele>1499.4</ele>
        <time>2021-08-28T07:20:50Z</time>
      </trkpt>
      <trkpt lat="42.99135" lon="-0.22453">
        <ele>1499.6</ele>
        <time>2021-08-28T07:20:51Z</time>
      </trkpt>
      <trkpt lat="42.99135" lon="-0.22454">
        <ele>1499.8</ele>
        <time>2021-08-28T07:20:52Z</time>
      </trkpt>
      <trkpt lat="42.99135" lon="-0.22456">
        <ele>1499.8</ele>
        <time>2021-08-28T07:20:53Z</time>
      </trkpt>
      <trkpt lat="42.99136" lon="-0.22457">
        <ele>1500</ele>
        <time>2021-08-28T07:20:54Z</time>
      </trkpt>
      <trkpt lat="42.99136" lon="-0.22459">
        <ele>1500</ele>
        <time>2021-08-28T07:20:55Z</time>
      </trkpt>
      <trkpt lat="42.99136" lon="-0.22461">
        <ele>1500.2</ele>
        <time>2021-08-28T07:20:56Z</time>
      </trkpt>
      <trkpt lat="42.99137" lon="-0.22463">
        <ele>1500.2</ele>
        <time>2021-08-28T07:20:57Z</time>
      </trkpt>
      <trkpt lat="42.99137" lon="-0.22464">
        <ele>1500.2</ele>
        <time>2021-08-28T07:20:58Z</time>
      </trkpt>
      <trkpt lat="42.99137" lon="-0.22466">
        <ele>1500.6</ele>
        <time>2021-08-28T07:20:59Z</time>
      </trkpt>
      <trkpt lat="42.99137" lon="-0.22468">
        <ele>1500.8</ele>
        <time>2021-08-28T07:21:00Z</time>
      </trkpt>
      <trkpt lat="42.99138" lon="-0.22469">
        <ele>1501</ele>
        <time>2021-08-28T07:21:01Z</time>
      </trkpt>
      <trkpt lat="42.99138" lon="-0.2247">
        <ele>1501.2</ele>
        <time>2021-08-28T07:21:02Z</time>
      </trkpt>
      <trkpt lat="42.99138" lon="-0.22472">
        <ele>1501.6</ele>
        <time>2021-08-28T07:21:03Z</time>
      </trkpt>
      <trkpt lat="42.99138" lon="-0.22474">
        <ele>1501.8</ele>
        <time>2021-08-28T07:21:04Z</time>
      </trkpt>
      <trkpt lat="42.99138" lon="-0.22476">
        <ele>1501.8</ele>
        <time>2021-08-28T07:21:05Z</time>
      </trkpt>
      <trkpt lat="42.99139" lon="-0.22477">
        <ele>1502.2</ele>
        <time>2021-08-28T07:21:06Z</time>
      </trkpt>
      <trkpt lat="42.99139" lon="-0.22479">
        <ele>1502.2</ele>
        <time>2021-08-28T07:21:07Z</time>
      </trkpt>
      <trkpt lat="42.99139" lon="-0.22481">
        <ele>1502.4</ele>
        <time>2021-08-28T07:21:08Z</time>
      </trkpt>
      <trkpt lat="42.99139" lon="-0.22483">
        <ele>1502.6</ele>
        <time>2021-08-28T07:21:09Z</time>
      </trkpt>
      <trkpt lat="42.99139" lon="-0.22485">
        <ele>1502.8</ele>
        <time>2021-08-28T07:21:10Z</time>
      </trkpt>
      <trkpt lat="42.9914" lon="-0.22487">
        <ele>1503</ele>
        <time>2021-08-28T07:21:11Z</time>
      </trkpt>
      <trkpt lat="42.9914" lon="-0.22488">
        <ele>1503.2</ele>
        <time>2021-08-28T07:21:12Z</time>
      </trkpt>
      <trkpt lat="42.9914" lon="-0.2249">
        <ele>1503.2</ele>
        <time>2021-08-28T07:21:13Z</time>
      </trkpt>
      <trkpt lat="42.9914" lon="-0.22491">
        <ele>1503.4</ele>
        <time>2021-08-28T07:21:14Z</time>
      </trkpt>
      <trkpt lat="42.9914" lon="-0.22493">
        <ele>1503.6</ele>
        <time>2021-08-28T07:21:15Z</time>
      </trkpt>
      <trkpt lat="42.9914" lon="-0.22495">
        <ele>1503.6</ele>
        <time>2021-08-28T07:21:16Z</time>
      </trkpt>
      <trkpt lat="42.99141" lon="-0.22496">
        <ele>1503.8</ele>
        <time>2021-08-28T07:21:17Z</time>
      </trkpt>
      <trkpt lat="42.99141" lon="-0.22498">
        <ele>1504</ele>
        <time>2021-08-28T07:21:18Z</time>
      </trkpt>
      <trkpt lat="42.99142" lon="-0.22499">
        <ele>1504.2</ele>
        <time>2021-08-28T07:21:19Z</time>
      </trkpt>
      <trkpt lat="42.99142" lon="-0.22501">
        <ele>1504.2</ele>
        <time>2021-08-28T07:21:20Z</time>
      </trkpt>
      <trkpt lat="42.99143" lon="-0.22503">
        <ele>1504.4</ele>
        <time>2021-08-28T07:21:21Z</time>
      </trkpt>
      <trkpt lat="42.99143" lon="-0.22505">
        <ele>1504.4</ele>
        <time>2021-08-28T07:21:22Z</time>
      </trkpt>
      <trkpt lat="42.99144" lon="-0.22506">
        <ele>1504.6</ele>
        <time>2021-08-28T07:21:23Z</time>
      </trkpt>
      <trkpt lat="42.99144" lon="-0.22508">
        <ele>1504.8</ele>
        <time>2021-08-28T07:21:24Z</time>
      </trkpt>
      <trkpt lat="42.99144" lon="-0.22509">
        <ele>1505</ele>
        <time>2021-08-28T07:21:25Z</time>
      </trkpt>
      <trkpt lat="42.99144" lon="-0.2251">
        <ele>1505.2</ele>
        <time>2021-08-28T07:21:26Z</time>
      </trkpt>
      <trkpt lat="42.99144" lon="-0.22512">
        <ele>1505.4</ele>
        <time>2021-08-28T07:21:27Z</time>
      </trkpt>
      <trkpt lat="42.99144" lon="-0.22514">
        <ele>1505.4</ele>
        <time>2021-08-28T07:21:28Z</time>
      </trkpt>
      <trkpt lat="42.99144" lon="-0.22516">
        <ele>1505.6</ele>
        <time>2021-08-28T07:21:29Z</time>
      </trkpt>
      <trkpt lat="42.99145" lon="-0.22517">
        <ele>1505.6</ele>
        <time>2021-08-28T07:21:30Z</time>
      </trkpt>
      <trkpt lat="42.99145" lon="-0.22518">
        <ele>1505.8</ele>
        <time>2021-08-28T07:21:31Z</time>
      </trkpt>
      <trkpt lat="42.99145" lon="-0.2252">
        <ele>1505.8</ele>
        <time>2021-08-28T07:21:32Z</time>
      </trkpt>
      <trkpt lat="42.99146" lon="-0.22521">
        <ele>1506</ele>
        <time>2021-08-28T07:21:33Z</time>
      </trkpt>
      <trkpt lat="42.99146" lon="-0.22523">
        <ele>1506</ele>
        <time>2021-08-28T07:21:34Z</time>
      </trkpt>
      <trkpt lat="42.99146" lon="-0.22524">
        <ele>1506.4</ele>
        <time>2021-08-28T07:21:35Z</time>
      </trkpt>
      <trkpt lat="42.99147" lon="-0.22525">
        <ele>1506.6</ele>
        <time>2021-08-28T07:21:36Z</time>
      </trkpt>
      <trkpt lat="42.99147" lon="-0.22527">
        <ele>1506.8</ele>
        <time>2021-08-28T07:21:37Z</time>
      </trkpt>
      <trkpt lat="42.99148" lon="-0.22528">
        <ele>1506.8</ele>
        <time>2021-08-28T07:21:38Z</time>
      </trkpt>
      <trkpt lat="42.99148" lon="-0.2253">
        <ele>1507.2</ele>
        <time>2021-08-28T07:21:39Z</time>
      </trkpt>
      <trkpt lat="42.99148" lon="-0.22531">
        <ele>1507.4</ele>
        <time>2021-08-28T07:21:40Z</time>
      </trkpt>
      <trkpt lat="42.99149" lon="-0.22533">
        <ele>1507.6</ele>
        <time>2021-08-28T07:21:41Z</time>
      </trkpt>
      <trkpt lat="42.99149" lon="-0.22534">
        <ele>1507.6</ele>
        <time>2021-08-28T07:21:42Z</time>
      </trkpt>
      <trkpt lat="42.9915" lon="-0.22536">
        <ele>1507.8</ele>
        <time>2021-08-28T07:21:43Z</time>
      </trkpt>
      <trkpt lat="42.9915" lon="-0.22538">
        <ele>1508</ele>
        <time>2021-08-28T07:21:44Z</time>
      </trkpt>
      <trkpt lat="42.9915" lon="-0.22539">
        <ele>1508</ele>
        <time>2021-08-28T07:21:45Z</time>
      </trkpt>
      <trkpt lat="42.99151" lon="-0.22541">
        <ele>1508.2</ele>
        <time>2021-08-28T07:21:46Z</time>
      </trkpt>
      <trkpt lat="42.99151" lon="-0.22543">
        <ele>1508.4</ele>
        <time>2021-08-28T07:21:47Z</time>
      </trkpt>
      <trkpt lat="42.99152" lon="-0.22545">
        <ele>1508.6</ele>
        <time>2021-08-28T07:21:48Z</time>
      </trkpt>
      <trkpt lat="42.99152" lon="-0.22547">
        <ele>1508.6</ele>
        <time>2021-08-28T07:21:49Z</time>
      </trkpt>
      <trkpt lat="42.99153" lon="-0.22548">
        <ele>1509</ele>
        <time>2021-08-28T07:21:50Z</time>
      </trkpt>
      <trkpt lat="42.99153" lon="-0.2255">
        <ele>1509</ele>
        <time>2021-08-28T07:21:51Z</time>
      </trkpt>
      <trkpt lat="42.99154" lon="-0.22551">
        <ele>1509.4</ele>
        <time>2021-08-28T07:21:52Z</time>
      </trkpt>
      <trkpt lat="42.99155" lon="-0.22552">
        <ele>1509.4</ele>
        <time>2021-08-28T07:21:53Z</time>
      </trkpt>
      <trkpt lat="42.99156" lon="-0.22554">
        <ele>1509.6</ele>
        <time>2021-08-28T07:21:54Z</time>
      </trkpt>
      <trkpt lat="42.99158" lon="-0.22556">
        <ele>1509.6</ele>
        <time>2021-08-28T07:21:55Z</time>
      </trkpt>
      <trkpt lat="42.99159" lon="-0.22557">
        <ele>1510</ele>
        <time>2021-08-28T07:21:56Z</time>
      </trkpt>
      <trkpt lat="42.9916" lon="-0.22559">
        <ele>1510</ele>
        <time>2021-08-28T07:21:57Z</time>
      </trkpt>
      <trkpt lat="42.99161" lon="-0.2256">
        <ele>1510.2</ele>
        <time>2021-08-28T07:21:58Z</time>
      </trkpt>
      <trkpt lat="42.99162" lon="-0.22562">
        <ele>1510.2</ele>
        <time>2021-08-28T07:21:59Z</time>
      </trkpt>
      <trkpt lat="42.99163" lon="-0.22563">
        <ele>1510.6</ele>
        <time>2021-08-28T07:22:00Z</time>
      </trkpt>
      <trkpt lat="42.99163" lon="-0.22565">
        <ele>1510.8</ele>
        <time>2021-08-28T07:22:01Z</time>
      </trkpt>
      <trkpt lat="42.99163" lon="-0.22566">
        <ele>1510.8</ele>
        <time>2021-08-28T07:22:02Z</time>
      </trkpt>
      <trkpt lat="42.99164" lon="-0.22568">
        <ele>1511</ele>
        <time>2021-08-28T07:22:03Z</time>
      </trkpt>
      <trkpt lat="42.99164" lon="-0.22569">
        <ele>1511.4</ele>
        <time>2021-08-28T07:22:04Z</time>
      </trkpt>
      <trkpt lat="42.99164" lon="-0.2257">
        <ele>1511.6</ele>
        <time>2021-08-28T07:22:05Z</time>
      </trkpt>
      <trkpt lat="42.99165" lon="-0.22571">
        <ele>1511.8</ele>
        <time>2021-08-28T07:22:06Z</time>
      </trkpt>
      <trkpt lat="42.99165" lon="-0.22572">
        <ele>1512.2</ele>
        <time>2021-08-28T07:22:07Z</time>
      </trkpt>
      <trkpt lat="42.99165" lon="-0.22574">
        <ele>1512.2</ele>
        <time>2021-08-28T07:22:08Z</time>
      </trkpt>
      <trkpt lat="42.99165" lon="-0.22575">
        <ele>1512.6</ele>
        <time>2021-08-28T07:22:09Z</time>
      </trkpt>
      <trkpt lat="42.99165" lon="-0.22575">
        <ele>1512.8</ele>
        <time>2021-08-28T07:22:10Z</time>
      </trkpt>
      <trkpt lat="42.99165" lon="-0.22575">
        <ele>1513</ele>
        <time>2021-08-28T07:22:11Z</time>
      </trkpt>
      <trkpt lat="42.99165" lon="-0.22575">
        <ele>1513.6</ele>
        <time>2021-08-28T07:22:13Z</time>
      </trkpt>
      <trkpt lat="42.99165" lon="-0.22575">
        <ele>1514.8</ele>
        <time>2021-08-28T07:22:21Z</time>
      </trkpt>
      <trkpt lat="42.99165" lon="-0.22575">
        <ele>1514.8</ele>
        <time>2021-08-28T07:22:24Z</time>
      </trkpt>
      <trkpt lat="42.99166" lon="-0.22577">
        <ele>1514.8</ele>
        <time>2021-08-28T07:22:26Z</time>
      </trkpt>
      <trkpt lat="42.99167" lon="-0.22579">
        <ele>1514.8</ele>
        <time>2021-08-28T07:22:27Z</time>
      </trkpt>
      <trkpt lat="42.99167" lon="-0.22581">
        <ele>1514.8</ele>
        <time>2021-08-28T07:22:28Z</time>
      </trkpt>
      <trkpt lat="42.99167" lon="-0.22584">
        <ele>1514.8</ele>
        <time>2021-08-28T07:22:29Z</time>
      </trkpt>
      <trkpt lat="42.99167" lon="-0.22586">
        <ele>1515.2</ele>
        <time>2021-08-28T07:22:30Z</time>
      </trkpt>
      <trkpt lat="42.99167" lon="-0.22589">
        <ele>1515.2</ele>
        <time>2021-08-28T07:22:31Z</time>
      </trkpt>
      <trkpt lat="42.99167" lon="-0.22592">
        <ele>1515.4</ele>
        <time>2021-08-28T07:22:32Z</time>
      </trkpt>
      <trkpt lat="42.99167" lon="-0.22594">
        <ele>1515.4</ele>
        <time>2021-08-28T07:22:33Z</time>
      </trkpt>
      <trkpt lat="42.99166" lon="-0.22596">
        <ele>1515.4</ele>
        <time>2021-08-28T07:22:34Z</time>
      </trkpt>
      <trkpt lat="42.99166" lon="-0.22598">
        <ele>1515.6</ele>
        <time>2021-08-28T07:22:35Z</time>
      </trkpt>
      <trkpt lat="42.99165" lon="-0.226">
        <ele>1515.6</ele>
        <time>2021-08-28T07:22:36Z</time>
      </trkpt>
      <trkpt lat="42.99164" lon="-0.22602">
        <ele>1515.8</ele>
        <time>2021-08-28T07:22:37Z</time>
      </trkpt>
      <trkpt lat="42.99163" lon="-0.22604">
        <ele>1516</ele>
        <time>2021-08-28T07:22:38Z</time>
      </trkpt>
      <trkpt lat="42.99163" lon="-0.22606">
        <ele>1516.2</ele>
        <time>2021-08-28T07:22:39Z</time>
      </trkpt>
      <trkpt lat="42.99162" lon="-0.22608">
        <ele>1516.4</ele>
        <time>2021-08-28T07:22:40Z</time>
      </trkpt>
      <trkpt lat="42.99162" lon="-0.22608">
        <ele>1516.6</ele>
        <time>2021-08-28T07:22:41Z</time>
      </trkpt>
      <trkpt lat="42.9916" lon="-0.22612">
        <ele>1516.8</ele>
        <time>2021-08-28T07:22:42Z</time>
      </trkpt>
      <trkpt lat="42.99159" lon="-0.22614">
        <ele>1517</ele>
        <time>2021-08-28T07:22:43Z</time>
      </trkpt>
      <trkpt lat="42.99158" lon="-0.22616">
        <ele>1517</ele>
        <time>2021-08-28T07:22:44Z</time>
      </trkpt>
      <trkpt lat="42.99157" lon="-0.22617">
        <ele>1517</ele>
        <time>2021-08-28T07:22:45Z</time>
      </trkpt>
      <trkpt lat="42.99156" lon="-0.22619">
        <ele>1517</ele>
        <time>2021-08-28T07:22:46Z</time>
      </trkpt>
      <trkpt lat="42.99155" lon="-0.2262">
        <ele>1517.2</ele>
        <time>2021-08-28T07:22:47Z</time>
      </trkpt>
      <trkpt lat="42.99154" lon="-0.22621">
        <ele>1517.2</ele>
        <time>2021-08-28T07:22:48Z</time>
      </trkpt>
      <trkpt lat="42.99153" lon="-0.22622">
        <ele>1517.4</ele>
        <time>2021-08-28T07:22:49Z</time>
      </trkpt>
      <trkpt lat="42.99152" lon="-0.22623">
        <ele>1517.4</ele>
        <time>2021-08-28T07:22:50Z</time>
      </trkpt>
      <trkpt lat="42.99151" lon="-0.22625">
        <ele>1517.6</ele>
        <time>2021-08-28T07:22:51Z</time>
      </trkpt>
      <trkpt lat="42.9915" lon="-0.22626">
        <ele>1517.6</ele>
        <time>2021-08-28T07:22:52Z</time>
      </trkpt>
      <trkpt lat="42.99149" lon="-0.22628">
        <ele>1517.8</ele>
        <time>2021-08-28T07:22:53Z</time>
      </trkpt>
      <trkpt lat="42.99149" lon="-0.22629">
        <ele>1518</ele>
        <time>2021-08-28T07:22:54Z</time>
      </trkpt>
      <trkpt lat="42.99148" lon="-0.2263">
        <ele>1518.2</ele>
        <time>2021-08-28T07:22:55Z</time>
      </trkpt>
      <trkpt lat="42.99147" lon="-0.22631">
        <ele>1518.2</ele>
        <time>2021-08-28T07:22:56Z</time>
      </trkpt>
      <trkpt lat="42.99146" lon="-0.22633">
        <ele>1518.4</ele>
        <time>2021-08-28T07:22:57Z</time>
      </trkpt>
      <trkpt lat="42.99145" lon="-0.22634">
        <ele>1518.4</ele>
        <time>2021-08-28T07:22:58Z</time>
      </trkpt>
      <trkpt lat="42.99144" lon="-0.22636">
        <ele>1518.6</ele>
        <time>2021-08-28T07:22:59Z</time>
      </trkpt>
      <trkpt lat="42.99144" lon="-0.22637">
        <ele>1518.6</ele>
        <time>2021-08-28T07:23:00Z</time>
      </trkpt>
      <trkpt lat="42.99143" lon="-0.22638">
        <ele>1518.8</ele>
        <time>2021-08-28T07:23:01Z</time>
      </trkpt>
      <trkpt lat="42.99143" lon="-0.22638">
        <ele>1518.8</ele>
        <time>2021-08-28T07:23:02Z</time>
      </trkpt>
      <trkpt lat="42.99143" lon="-0.22638">
        <ele>1518.8</ele>
        <time>2021-08-28T07:23:04Z</time>
      </trkpt>
      <trkpt lat="42.99143" lon="-0.22638">
        <ele>1519</ele>
        <time>2021-08-28T07:23:38Z</time>
      </trkpt>
      <trkpt lat="42.9914" lon="-0.22641">
        <ele>1518.8</ele>
        <time>2021-08-28T07:24:31Z</time>
      </trkpt>
      <trkpt lat="42.99135" lon="-0.22645">
        <ele>1518.8</ele>
        <time>2021-08-28T07:24:33Z</time>
      </trkpt>
      <trkpt lat="42.99114" lon="-0.22667">
        <ele>1518.4</ele>
        <time>2021-08-28T07:24:40Z</time>
      </trkpt>
      <trkpt lat="42.99107" lon="-0.22674">
        <ele>1518.2</ele>
        <time>2021-08-28T07:24:42Z</time>
      </trkpt>
      <trkpt lat="42.99104" lon="-0.22678">
        <ele>1518</ele>
        <time>2021-08-28T07:24:43Z</time>
      </trkpt>
      <trkpt lat="42.99101" lon="-0.22681">
        <ele>1518</ele>
        <time>2021-08-28T07:24:44Z</time>
      </trkpt>
      <trkpt lat="42.99097" lon="-0.22684">
        <ele>1517.8</ele>
        <time>2021-08-28T07:24:45Z</time>
      </trkpt>
      <trkpt lat="42.99088" lon="-0.22691">
        <ele>1517.4</ele>
        <time>2021-08-28T07:24:48Z</time>
      </trkpt>
      <trkpt lat="42.99085" lon="-0.22694">
        <ele>1517.2</ele>
        <time>2021-08-28T07:24:49Z</time>
      </trkpt>
      <trkpt lat="42.99076" lon="-0.22702">
        <ele>1517</ele>
        <time>2021-08-28T07:24:52Z</time>
      </trkpt>
      <trkpt lat="42.99073" lon="-0.22704">
        <ele>1517</ele>
        <time>2021-08-28T07:24:53Z</time>
      </trkpt>
      <trkpt lat="42.9907" lon="-0.22705">
        <ele>1517</ele>
        <time>2021-08-28T07:24:54Z</time>
      </trkpt>
      <trkpt lat="42.99067" lon="-0.22707">
        <ele>1517</ele>
        <time>2021-08-28T07:24:55Z</time>
      </trkpt>
      <trkpt lat="42.99064" lon="-0.22709">
        <ele>1517</ele>
        <time>2021-08-28T07:24:56Z</time>
      </trkpt>
      <trkpt lat="42.99061" lon="-0.22711">
        <ele>1517</ele>
        <time>2021-08-28T07:24:57Z</time>
      </trkpt>
      <trkpt lat="42.99057" lon="-0.22712">
        <ele>1517</ele>
        <time>2021-08-28T07:24:58Z</time>
      </trkpt>
      <trkpt lat="42.99053" lon="-0.22714">
        <ele>1517</ele>
        <time>2021-08-28T07:24:59Z</time>
      </trkpt>
      <trkpt lat="42.9905" lon="-0.22714">
        <ele>1517</ele>
        <time>2021-08-28T07:25:00Z</time>
      </trkpt>
      <trkpt lat="42.99029" lon="-0.22712">
        <ele>1517.4</ele>
        <time>2021-08-28T07:25:06Z</time>
      </trkpt>
      <trkpt lat="42.99015" lon="-0.22705">
        <ele>1518</ele>
        <time>2021-08-28T07:25:11Z</time>
      </trkpt>
      <trkpt lat="42.99012" lon="-0.22704">
        <ele>1518</ele>
        <time>2021-08-28T07:25:12Z</time>
      </trkpt>
      <trkpt lat="42.99008" lon="-0.22702">
        <ele>1518.2</ele>
        <time>2021-08-28T07:25:13Z</time>
      </trkpt>
      <trkpt lat="42.99006" lon="-0.227">
        <ele>1518.4</ele>
        <time>2021-08-28T07:25:14Z</time>
      </trkpt>
      <trkpt lat="42.99003" lon="-0.22697">
        <ele>1518.6</ele>
        <time>2021-08-28T07:25:15Z</time>
      </trkpt>
      <trkpt lat="42.99001" lon="-0.22695">
        <ele>1518.8</ele>
        <time>2021-08-28T07:25:16Z</time>
      </trkpt>
      <trkpt lat="42.98998" lon="-0.22693">
        <ele>1519</ele>
        <time>2021-08-28T07:25:17Z</time>
      </trkpt>
      <trkpt lat="42.98996" lon="-0.22691">
        <ele>1519</ele>
        <time>2021-08-28T07:25:18Z</time>
      </trkpt>
      <trkpt lat="42.98993" lon="-0.22689">
        <ele>1519.2</ele>
        <time>2021-08-28T07:25:19Z</time>
      </trkpt>
      <trkpt lat="42.98991" lon="-0.22687">
        <ele>1519.4</ele>
        <time>2021-08-28T07:25:20Z</time>
      </trkpt>
      <trkpt lat="42.98988" lon="-0.22685">
        <ele>1519.4</ele>
        <time>2021-08-28T07:25:21Z</time>
      </trkpt>
      <trkpt lat="42.98986" lon="-0.22683">
        <ele>1519.6</ele>
        <time>2021-08-28T07:25:22Z</time>
      </trkpt>
      <trkpt lat="42.98977" lon="-0.22679">
        <ele>1520.4</ele>
        <time>2021-08-28T07:25:25Z</time>
      </trkpt>
      <trkpt lat="42.98974" lon="-0.22677">
        <ele>1520.6</ele>
        <time>2021-08-28T07:25:26Z</time>
      </trkpt>
      <trkpt lat="42.98971" lon="-0.22676">
        <ele>1520.8</ele>
        <time>2021-08-28T07:25:27Z</time>
      </trkpt>
      <trkpt lat="42.98967" lon="-0.22675">
        <ele>1521</ele>
        <time>2021-08-28T07:25:28Z</time>
      </trkpt>
      <trkpt lat="42.98964" lon="-0.22674">
        <ele>1521.2</ele>
        <time>2021-08-28T07:25:29Z</time>
      </trkpt>
      <trkpt lat="42.98961" lon="-0.22673">
        <ele>1521.2</ele>
        <time>2021-08-28T07:25:30Z</time>
      </trkpt>
      <trkpt lat="42.98958" lon="-0.22672">
        <ele>1521.4</ele>
        <time>2021-08-28T07:25:31Z</time>
      </trkpt>
      <trkpt lat="42.98955" lon="-0.22671">
        <ele>1521.4</ele>
        <time>2021-08-28T07:25:32Z</time>
      </trkpt>
      <trkpt lat="42.98952" lon="-0.2267">
        <ele>1521.4</ele>
        <time>2021-08-28T07:25:33Z</time>
      </trkpt>
      <trkpt lat="42.98948" lon="-0.2267">
        <ele>1521.4</ele>
        <time>2021-08-28T07:25:34Z</time>
      </trkpt>
      <trkpt lat="42.98944" lon="-0.2267">
        <ele>1521.8</ele>
        <time>2021-08-28T07:25:35Z</time>
      </trkpt>
      <trkpt lat="42.98941" lon="-0.2267">
        <ele>1522</ele>
        <time>2021-08-28T07:25:36Z</time>
      </trkpt>
      <trkpt lat="42.98937" lon="-0.22671">
        <ele>1522.2</ele>
        <time>2021-08-28T07:25:37Z</time>
      </trkpt>
      <trkpt lat="42.98934" lon="-0.22672">
        <ele>1522.2</ele>
        <time>2021-08-28T07:25:38Z</time>
      </trkpt>
      <trkpt lat="42.9893" lon="-0.22673">
        <ele>1522.4</ele>
        <time>2021-08-28T07:25:39Z</time>
      </trkpt>
      <trkpt lat="42.98926" lon="-0.22674">
        <ele>1522.4</ele>
        <time>2021-08-28T07:25:40Z</time>
      </trkpt>
      <trkpt lat="42.98923" lon="-0.22675">
        <ele>1522.4</ele>
        <time>2021-08-28T07:25:41Z</time>
      </trkpt>
      <trkpt lat="42.98919" lon="-0.22677">
        <ele>1522.4</ele>
        <time>2021-08-28T07:25:42Z</time>
      </trkpt>
      <trkpt lat="42.98916" lon="-0.22679">
        <ele>1522.6</ele>
        <time>2021-08-28T07:25:43Z</time>
      </trkpt>
      <trkpt lat="42.98912" lon="-0.22682">
        <ele>1522.6</ele>
        <time>2021-08-28T07:25:44Z</time>
      </trkpt>
      <trkpt lat="42.98908" lon="-0.22684">
        <ele>1522.8</ele>
        <time>2021-08-28T07:25:45Z</time>
      </trkpt>
      <trkpt lat="42.98904" lon="-0.22685">
        <ele>1522.8</ele>
        <time>2021-08-28T07:25:46Z</time>
      </trkpt>
      <trkpt lat="42.989" lon="-0.22687">
        <ele>1522.8</ele>
        <time>2021-08-28T07:25:47Z</time>
      </trkpt>
      <trkpt lat="42.98897" lon="-0.22689">
        <ele>1522.8</ele>
        <time>2021-08-28T07:25:48Z</time>
      </trkpt>
      <trkpt lat="42.98893" lon="-0.22691">
        <ele>1522.8</ele>
        <time>2021-08-28T07:25:49Z</time>
      </trkpt>
      <trkpt lat="42.98889" lon="-0.22693">
        <ele>1522.8</ele>
        <time>2021-08-28T07:25:50Z</time>
      </trkpt>
      <trkpt lat="42.98886" lon="-0.22694">
        <ele>1523</ele>
        <time>2021-08-28T07:25:51Z</time>
      </trkpt>
      <trkpt lat="42.98882" lon="-0.22695">
        <ele>1523</ele>
        <time>2021-08-28T07:25:52Z</time>
      </trkpt>
      <trkpt lat="42.98878" lon="-0.22696">
        <ele>1523</ele>
        <time>2021-08-28T07:25:53Z</time>
      </trkpt>
      <trkpt lat="42.98874" lon="-0.22698">
        <ele>1523.2</ele>
        <time>2021-08-28T07:25:54Z</time>
      </trkpt>
      <trkpt lat="42.9887" lon="-0.22699">
        <ele>1523.2</ele>
        <time>2021-08-28T07:25:55Z</time>
      </trkpt>
      <trkpt lat="42.98867" lon="-0.227">
        <ele>1523.4</ele>
        <time>2021-08-28T07:25:56Z</time>
      </trkpt>
      <trkpt lat="42.98863" lon="-0.22701">
        <ele>1523.4</ele>
        <time>2021-08-28T07:25:57Z</time>
      </trkpt>
      <trkpt lat="42.98848" lon="-0.22705">
        <ele>1523.8</ele>
        <time>2021-08-28T07:26:01Z</time>
      </trkpt>
      <trkpt lat="42.98845" lon="-0.22706">
        <ele>1523.8</ele>
        <time>2021-08-28T07:26:02Z</time>
      </trkpt>
      <trkpt lat="42.98822" lon="-0.22719">
        <ele>1524.8</ele>
        <time>2021-08-28T07:26:08Z</time>
      </trkpt>
      <trkpt lat="42.98817" lon="-0.22721">
        <ele>1524.8</ele>
        <time>2021-08-28T07:26:09Z</time>
      </trkpt>
      <trkpt lat="42.98805" lon="-0.22726">
        <ele>1525</ele>
        <time>2021-08-28T07:26:12Z</time>
      </trkpt>
      <trkpt lat="42.98795" lon="-0.22733">
        <ele>1525</ele>
        <time>2021-08-28T07:26:15Z</time>
      </trkpt>
      <trkpt lat="42.98784" lon="-0.2274">
        <ele>1525.2</ele>
        <time>2021-08-28T07:26:18Z</time>
      </trkpt>
      <trkpt lat="42.98777" lon="-0.22744">
        <ele>1525.2</ele>
        <time>2021-08-28T07:26:20Z</time>
      </trkpt>
      <trkpt lat="42.98773" lon="-0.22745">
        <ele>1525.2</ele>
        <time>2021-08-28T07:26:21Z</time>
      </trkpt>
      <trkpt lat="42.98769" lon="-0.22746">
        <ele>1525.2</ele>
        <time>2021-08-28T07:26:22Z</time>
      </trkpt>
      <trkpt lat="42.98766" lon="-0.22748">
        <ele>1525.4</ele>
        <time>2021-08-28T07:26:23Z</time>
      </trkpt>
      <trkpt lat="42.98754" lon="-0.22752">
        <ele>1525.6</ele>
        <time>2021-08-28T07:26:26Z</time>
      </trkpt>
      <trkpt lat="42.98733" lon="-0.22758">
        <ele>1526</ele>
        <time>2021-08-28T07:26:31Z</time>
      </trkpt>
      <trkpt lat="42.98718" lon="-0.22767">
        <ele>1526</ele>
        <time>2021-08-28T07:26:35Z</time>
      </trkpt>
      <trkpt lat="42.98712" lon="-0.22773">
        <ele>1526.2</ele>
        <time>2021-08-28T07:26:37Z</time>
      </trkpt>
      <trkpt lat="42.98709" lon="-0.22777">
        <ele>1526.2</ele>
        <time>2021-08-28T07:26:38Z</time>
      </trkpt>
      <trkpt lat="42.98701" lon="-0.22795">
        <ele>1526.6</ele>
        <time>2021-08-28T07:26:42Z</time>
      </trkpt>
      <trkpt lat="42.98699" lon="-0.228">
        <ele>1526.6</ele>
        <time>2021-08-28T07:26:43Z</time>
      </trkpt>
      <trkpt lat="42.98695" lon="-0.22808">
        <ele>1526.6</ele>
        <time>2021-08-28T07:26:45Z</time>
      </trkpt>
      <trkpt lat="42.98688" lon="-0.22815">
        <ele>1526.8</ele>
        <time>2021-08-28T07:26:47Z</time>
      </trkpt>
      <trkpt lat="42.98685" lon="-0.22818">
        <ele>1526.8</ele>
        <time>2021-08-28T07:26:48Z</time>
      </trkpt>
      <trkpt lat="42.98681" lon="-0.2282">
        <ele>1526.8</ele>
        <time>2021-08-28T07:26:49Z</time>
      </trkpt>
      <trkpt lat="42.98677" lon="-0.22822">
        <ele>1527</ele>
        <time>2021-08-28T07:26:50Z</time>
      </trkpt>
      <trkpt lat="42.98665" lon="-0.22824">
        <ele>1527</ele>
        <time>2021-08-28T07:26:53Z</time>
      </trkpt>
      <trkpt lat="42.98635" lon="-0.22823">
        <ele>1527</ele>
        <time>2021-08-28T07:26:59Z</time>
      </trkpt>
      <trkpt lat="42.98629" lon="-0.22823">
        <ele>1526.8</ele>
        <time>2021-08-28T07:27:00Z</time>
      </trkpt>
      <trkpt lat="42.98617" lon="-0.22825">
        <ele>1526.8</ele>
        <time>2021-08-28T07:27:02Z</time>
      </trkpt>
      <trkpt lat="42.98599" lon="-0.22831">
        <ele>1526.6</ele>
        <time>2021-08-28T07:27:05Z</time>
      </trkpt>
      <trkpt lat="42.98581" lon="-0.2284">
        <ele>1526</ele>
        <time>2021-08-28T07:27:08Z</time>
      </trkpt>
      <trkpt lat="42.98575" lon="-0.22843">
        <ele>1525.6</ele>
        <time>2021-08-28T07:27:09Z</time>
      </trkpt>
      <trkpt lat="42.98564" lon="-0.2285">
        <ele>1525.2</ele>
        <time>2021-08-28T07:27:11Z</time>
      </trkpt>
      <trkpt lat="42.98553" lon="-0.22858">
        <ele>1524.6</ele>
        <time>2021-08-28T07:27:13Z</time>
      </trkpt>
      <trkpt lat="42.98538" lon="-0.22872">
        <ele>1523.6</ele>
        <time>2021-08-28T07:27:16Z</time>
      </trkpt>
      <trkpt lat="42.98533" lon="-0.22877">
        <ele>1523.6</ele>
        <time>2021-08-28T07:27:17Z</time>
      </trkpt>
      <trkpt lat="42.98529" lon="-0.22883">
        <ele>1523.4</ele>
        <time>2021-08-28T07:27:18Z</time>
      </trkpt>
      <trkpt lat="42.98526" lon="-0.2289">
        <ele>1523.4</ele>
        <time>2021-08-28T07:27:19Z</time>
      </trkpt>
      <trkpt lat="42.98524" lon="-0.22898">
        <ele>1523.2</ele>
        <time>2021-08-28T07:27:20Z</time>
      </trkpt>
      <trkpt lat="42.98523" lon="-0.22906">
        <ele>1523.2</ele>
        <time>2021-08-28T07:27:21Z</time>
      </trkpt>
      <trkpt lat="42.98521" lon="-0.22915">
        <ele>1523</ele>
        <time>2021-08-28T07:27:22Z</time>
      </trkpt>
      <trkpt lat="42.9852" lon="-0.22924">
        <ele>1523</ele>
        <time>2021-08-28T07:27:23Z</time>
      </trkpt>
      <trkpt lat="42.9852" lon="-0.22933">
        <ele>1522.8</ele>
        <time>2021-08-28T07:27:24Z</time>
      </trkpt>
      <trkpt lat="42.9852" lon="-0.22942">
        <ele>1522.6</ele>
        <time>2021-08-28T07:27:25Z</time>
      </trkpt>
      <trkpt lat="42.98522" lon="-0.22951">
        <ele>1522.2</ele>
        <time>2021-08-28T07:27:26Z</time>
      </trkpt>
      <trkpt lat="42.98527" lon="-0.22979">
        <ele>1521.2</ele>
        <time>2021-08-28T07:27:29Z</time>
      </trkpt>
      <trkpt lat="42.98529" lon="-0.22988">
        <ele>1520.8</ele>
        <time>2021-08-28T07:27:30Z</time>
      </trkpt>
      <trkpt lat="42.98533" lon="-0.22996">
        <ele>1520.4</ele>
        <time>2021-08-28T07:27:31Z</time>
      </trkpt>
      <trkpt lat="42.98538" lon="-0.23004">
        <ele>1519.8</ele>
        <time>2021-08-28T07:27:32Z</time>
      </trkpt>
      <trkpt lat="42.98542" lon="-0.23011">
        <ele>1519</ele>
        <time>2021-08-28T07:27:33Z</time>
      </trkpt>
      <trkpt lat="42.98548" lon="-0.23017">
        <ele>1518.6</ele>
        <time>2021-08-28T07:27:34Z</time>
      </trkpt>
      <trkpt lat="42.98553" lon="-0.23024">
        <ele>1517.8</ele>
        <time>2021-08-28T07:27:35Z</time>
      </trkpt>
      <trkpt lat="42.98558" lon="-0.23032">
        <ele>1517.4</ele>
        <time>2021-08-28T07:27:36Z</time>
      </trkpt>
      <trkpt lat="42.98561" lon="-0.2304">
        <ele>1516.2</ele>
        <time>2021-08-28T07:27:37Z</time>
      </trkpt>
      <trkpt lat="42.98564" lon="-0.23049">
        <ele>1515.8</ele>
        <time>2021-08-28T07:27:38Z</time>
      </trkpt>
      <trkpt lat="42.98567" lon="-0.23058">
        <ele>1515</ele>
        <time>2021-08-28T07:27:39Z</time>
      </trkpt>
      <trkpt lat="42.98569" lon="-0.23067">
        <ele>1514.8</ele>
        <time>2021-08-28T07:27:40Z</time>
      </trkpt>
      <trkpt lat="42.98572" lon="-0.23077">
        <ele>1514</ele>
        <time>2021-08-28T07:27:41Z</time>
      </trkpt>
      <trkpt lat="42.98577" lon="-0.23097">
        <ele>1512.8</ele>
        <time>2021-08-28T07:27:43Z</time>
      </trkpt>
      <trkpt lat="42.98578" lon="-0.23108">
        <ele>1512.4</ele>
        <time>2021-08-28T07:27:44Z</time>
      </trkpt>
      <trkpt lat="42.9858" lon="-0.23119">
        <ele>1511.6</ele>
        <time>2021-08-28T07:27:45Z</time>
      </trkpt>
      <trkpt lat="42.98581" lon="-0.23141">
        <ele>1510.4</ele>
        <time>2021-08-28T07:27:47Z</time>
      </trkpt>
      <trkpt lat="42.98582" lon="-0.23168">
        <ele>1509.4</ele>
        <time>2021-08-28T07:27:49Z</time>
      </trkpt>
      <trkpt lat="42.98579" lon="-0.23205">
        <ele>1507.4</ele>
        <time>2021-08-28T07:27:52Z</time>
      </trkpt>
      <trkpt lat="42.98576" lon="-0.23233">
        <ele>1506.2</ele>
        <time>2021-08-28T07:27:54Z</time>
      </trkpt>
      <trkpt lat="42.98575" lon="-0.23244">
        <ele>1505.4</ele>
        <time>2021-08-28T07:27:55Z</time>
      </trkpt>
      <trkpt lat="42.98573" lon="-0.23255">
        <ele>1504.2</ele>
        <time>2021-08-28T07:27:56Z</time>
      </trkpt>
      <trkpt lat="42.98572" lon="-0.23265">
        <ele>1504</ele>
        <time>2021-08-28T07:27:57Z</time>
      </trkpt>
      <trkpt lat="42.9857" lon="-0.23274">
        <ele>1503</ele>
        <time>2021-08-28T07:27:58Z</time>
      </trkpt>
      <trkpt lat="42.98569" lon="-0.23283">
        <ele>1502.6</ele>
        <time>2021-08-28T07:27:59Z</time>
      </trkpt>
      <trkpt lat="42.98568" lon="-0.23291">
        <ele>1502.2</ele>
        <time>2021-08-28T07:28:00Z</time>
      </trkpt>
      <trkpt lat="42.98567" lon="-0.23298">
        <ele>1502</ele>
        <time>2021-08-28T07:28:01Z</time>
      </trkpt>
      <trkpt lat="42.98567" lon="-0.23305">
        <ele>1502</ele>
        <time>2021-08-28T07:28:02Z</time>
      </trkpt>
      <trkpt lat="42.98567" lon="-0.23312">
        <ele>1502</ele>
        <time>2021-08-28T07:28:03Z</time>
      </trkpt>
      <trkpt lat="42.98569" lon="-0.23319">
        <ele>1502</ele>
        <time>2021-08-28T07:28:04Z</time>
      </trkpt>
      <trkpt lat="42.98571" lon="-0.23323">
        <ele>1502</ele>
        <time>2021-08-28T07:28:05Z</time>
      </trkpt>
      <trkpt lat="42.98575" lon="-0.23329">
        <ele>1502</ele>
        <time>2021-08-28T07:28:06Z</time>
      </trkpt>
      <trkpt lat="42.98578" lon="-0.23335">
        <ele>1502</ele>
        <time>2021-08-28T07:28:07Z</time>
      </trkpt>
      <trkpt lat="42.98581" lon="-0.23341">
        <ele>1502.2</ele>
        <time>2021-08-28T07:28:08Z</time>
      </trkpt>
      <trkpt lat="42.98585" lon="-0.23354">
        <ele>1502.2</ele>
        <time>2021-08-28T07:28:10Z</time>
      </trkpt>
      <trkpt lat="42.98586" lon="-0.23362">
        <ele>1502.2</ele>
        <time>2021-08-28T07:28:11Z</time>
      </trkpt>
      <trkpt lat="42.98587" lon="-0.2337">
        <ele>1502.2</ele>
        <time>2021-08-28T07:28:12Z</time>
      </trkpt>
      <trkpt lat="42.98587" lon="-0.23378">
        <ele>1502.2</ele>
        <time>2021-08-28T07:28:13Z</time>
      </trkpt>
      <trkpt lat="42.98586" lon="-0.23387">
        <ele>1502</ele>
        <time>2021-08-28T07:28:14Z</time>
      </trkpt>
      <trkpt lat="42.98585" lon="-0.23406">
        <ele>1501.8</ele>
        <time>2021-08-28T07:28:16Z</time>
      </trkpt>
      <trkpt lat="42.98584" lon="-0.23427">
        <ele>1501.2</ele>
        <time>2021-08-28T07:28:18Z</time>
      </trkpt>
      <trkpt lat="42.98583" lon="-0.23439">
        <ele>1500.8</ele>
        <time>2021-08-28T07:28:19Z</time>
      </trkpt>
      <trkpt lat="42.98581" lon="-0.2345">
        <ele>1500.4</ele>
        <time>2021-08-28T07:28:20Z</time>
      </trkpt>
      <trkpt lat="42.98574" lon="-0.23472">
        <ele>1499.4</ele>
        <time>2021-08-28T07:28:22Z</time>
      </trkpt>
      <trkpt lat="42.98568" lon="-0.23492">
        <ele>1498.4</ele>
        <time>2021-08-28T07:28:24Z</time>
      </trkpt>
      <trkpt lat="42.98564" lon="-0.23501">
        <ele>1497.8</ele>
        <time>2021-08-28T07:28:25Z</time>
      </trkpt>
      <trkpt lat="42.9856" lon="-0.2351">
        <ele>1497.4</ele>
        <time>2021-08-28T07:28:26Z</time>
      </trkpt>
      <trkpt lat="42.98555" lon="-0.23518">
        <ele>1496.4</ele>
        <time>2021-08-28T07:28:27Z</time>
      </trkpt>
      <trkpt lat="42.9855" lon="-0.23537">
        <ele>1495.4</ele>
        <time>2021-08-28T07:28:29Z</time>
      </trkpt>
      <trkpt lat="42.9855" lon="-0.23546">
        <ele>1494.8</ele>
        <time>2021-08-28T07:28:30Z</time>
      </trkpt>
      <trkpt lat="42.98551" lon="-0.23555">
        <ele>1493.8</ele>
        <time>2021-08-28T07:28:31Z</time>
      </trkpt>
      <trkpt lat="42.98551" lon="-0.23565">
        <ele>1493.4</ele>
        <time>2021-08-28T07:28:32Z</time>
      </trkpt>
      <trkpt lat="42.98551" lon="-0.23574">
        <ele>1492.6</ele>
        <time>2021-08-28T07:28:33Z</time>
      </trkpt>
      <trkpt lat="42.98551" lon="-0.23606">
        <ele>1491.2</ele>
        <time>2021-08-28T07:28:36Z</time>
      </trkpt>
      <trkpt lat="42.98553" lon="-0.23617">
        <ele>1491</ele>
        <time>2021-08-28T07:28:37Z</time>
      </trkpt>
      <trkpt lat="42.98558" lon="-0.23638">
        <ele>1490.4</ele>
        <time>2021-08-28T07:28:39Z</time>
      </trkpt>
      <trkpt lat="42.98559" lon="-0.23649">
        <ele>1489.4</ele>
        <time>2021-08-28T07:28:40Z</time>
      </trkpt>
      <trkpt lat="42.9856" lon="-0.23659">
        <ele>1488.8</ele>
        <time>2021-08-28T07:28:41Z</time>
      </trkpt>
      <trkpt lat="42.9856" lon="-0.23669">
        <ele>1488.2</ele>
        <time>2021-08-28T07:28:42Z</time>
      </trkpt>
      <trkpt lat="42.9856" lon="-0.23681">
        <ele>1488</ele>
        <time>2021-08-28T07:28:43Z</time>
      </trkpt>
      <trkpt lat="42.98562" lon="-0.23705">
        <ele>1487.2</ele>
        <time>2021-08-28T07:28:45Z</time>
      </trkpt>
      <trkpt lat="42.98563" lon="-0.23717">
        <ele>1485.6</ele>
        <time>2021-08-28T07:28:46Z</time>
      </trkpt>
      <trkpt lat="42.98568" lon="-0.23741">
        <ele>1484.2</ele>
        <time>2021-08-28T07:28:48Z</time>
      </trkpt>
      <trkpt lat="42.98571" lon="-0.23751">
        <ele>1483.8</ele>
        <time>2021-08-28T07:28:49Z</time>
      </trkpt>
      <trkpt lat="42.98574" lon="-0.23761">
        <ele>1482.8</ele>
        <time>2021-08-28T07:28:50Z</time>
      </trkpt>
      <trkpt lat="42.98576" lon="-0.23771">
        <ele>1482</ele>
        <time>2021-08-28T07:28:51Z</time>
      </trkpt>
      <trkpt lat="42.98578" lon="-0.23782">
        <ele>1480.4</ele>
        <time>2021-08-28T07:28:52Z</time>
      </trkpt>
      <trkpt lat="42.98579" lon="-0.23792">
        <ele>1479.8</ele>
        <time>2021-08-28T07:28:53Z</time>
      </trkpt>
      <trkpt lat="42.98581" lon="-0.23803">
        <ele>1478.4</ele>
        <time>2021-08-28T07:28:54Z</time>
      </trkpt>
      <trkpt lat="42.98584" lon="-0.23813">
        <ele>1477.8</ele>
        <time>2021-08-28T07:28:55Z</time>
      </trkpt>
      <trkpt lat="42.98587" lon="-0.23822">
        <ele>1477.2</ele>
        <time>2021-08-28T07:28:56Z</time>
      </trkpt>
      <trkpt lat="42.98591" lon="-0.23831">
        <ele>1476.6</ele>
        <time>2021-08-28T07:28:57Z</time>
      </trkpt>
      <trkpt lat="42.98595" lon="-0.23839">
        <ele>1476.4</ele>
        <time>2021-08-28T07:28:58Z</time>
      </trkpt>
      <trkpt lat="42.98599" lon="-0.23846">
        <ele>1475.8</ele>
        <time>2021-08-28T07:28:59Z</time>
      </trkpt>
      <trkpt lat="42.98604" lon="-0.23853">
        <ele>1475.6</ele>
        <time>2021-08-28T07:29:00Z</time>
      </trkpt>
      <trkpt lat="42.9861" lon="-0.23859">
        <ele>1475.2</ele>
        <time>2021-08-28T07:29:01Z</time>
      </trkpt>
      <trkpt lat="42.98614" lon="-0.23863">
        <ele>1474.8</ele>
        <time>2021-08-28T07:29:02Z</time>
      </trkpt>
      <trkpt lat="42.98621" lon="-0.23869">
        <ele>1474.2</ele>
        <time>2021-08-28T07:29:03Z</time>
      </trkpt>
      <trkpt lat="42.98626" lon="-0.23873">
        <ele>1473.8</ele>
        <time>2021-08-28T07:29:04Z</time>
      </trkpt>
      <trkpt lat="42.98632" lon="-0.23877">
        <ele>1473.6</ele>
        <time>2021-08-28T07:29:05Z</time>
      </trkpt>
      <trkpt lat="42.98637" lon="-0.23881">
        <ele>1473.4</ele>
        <time>2021-08-28T07:29:06Z</time>
      </trkpt>
      <trkpt lat="42.98643" lon="-0.23884">
        <ele>1473</ele>
        <time>2021-08-28T07:29:07Z</time>
      </trkpt>
      <trkpt lat="42.98647" lon="-0.23888">
        <ele>1472.6</ele>
        <time>2021-08-28T07:29:08Z</time>
      </trkpt>
      <trkpt lat="42.98651" lon="-0.23892">
        <ele>1472.2</ele>
        <time>2021-08-28T07:29:09Z</time>
      </trkpt>
      <trkpt lat="42.98655" lon="-0.23897">
        <ele>1472</ele>
        <time>2021-08-28T07:29:10Z</time>
      </trkpt>
      <trkpt lat="42.98658" lon="-0.23901">
        <ele>1471.4</ele>
        <time>2021-08-28T07:29:11Z</time>
      </trkpt>
      <trkpt lat="42.9866" lon="-0.23906">
        <ele>1471.2</ele>
        <time>2021-08-28T07:29:12Z</time>
      </trkpt>
      <trkpt lat="42.98662" lon="-0.23909">
        <ele>1470.6</ele>
        <time>2021-08-28T07:29:13Z</time>
      </trkpt>
      <trkpt lat="42.98663" lon="-0.23913">
        <ele>1470.4</ele>
        <time>2021-08-28T07:29:14Z</time>
      </trkpt>
      <trkpt lat="42.98664" lon="-0.23916">
        <ele>1470</ele>
        <time>2021-08-28T07:29:15Z</time>
      </trkpt>
      <trkpt lat="42.98663" lon="-0.2392">
        <ele>1469.6</ele>
        <time>2021-08-28T07:29:16Z</time>
      </trkpt>
      <trkpt lat="42.98662" lon="-0.23925">
        <ele>1469.6</ele>
        <time>2021-08-28T07:29:17Z</time>
      </trkpt>
      <trkpt lat="42.98662" lon="-0.23929">
        <ele>1469.4</ele>
        <time>2021-08-28T07:29:18Z</time>
      </trkpt>
      <trkpt lat="42.98663" lon="-0.23934">
        <ele>1469.4</ele>
        <time>2021-08-28T07:29:19Z</time>
      </trkpt>
      <trkpt lat="42.98664" lon="-0.23937">
        <ele>1469.4</ele>
        <time>2021-08-28T07:29:20Z</time>
      </trkpt>
      <trkpt lat="42.98665" lon="-0.23942">
        <ele>1469.2</ele>
        <time>2021-08-28T07:29:21Z</time>
      </trkpt>
      <trkpt lat="42.98667" lon="-0.23946">
        <ele>1469.2</ele>
        <time>2021-08-28T07:29:22Z</time>
      </trkpt>
      <trkpt lat="42.98667" lon="-0.2395">
        <ele>1469.2</ele>
        <time>2021-08-28T07:29:23Z</time>
      </trkpt>
      <trkpt lat="42.98665" lon="-0.2396">
        <ele>1469</ele>
        <time>2021-08-28T07:29:25Z</time>
      </trkpt>
      <trkpt lat="42.98665" lon="-0.23965">
        <ele>1469</ele>
        <time>2021-08-28T07:29:26Z</time>
      </trkpt>
      <trkpt lat="42.98665" lon="-0.23971">
        <ele>1468.8</ele>
        <time>2021-08-28T07:29:27Z</time>
      </trkpt>
      <trkpt lat="42.98665" lon="-0.23984">
        <ele>1468.4</ele>
        <time>2021-08-28T07:29:29Z</time>
      </trkpt>
      <trkpt lat="42.98664" lon="-0.2399">
        <ele>1468.2</ele>
        <time>2021-08-28T07:29:30Z</time>
      </trkpt>
      <trkpt lat="42.98657" lon="-0.24034">
        <ele>1467</ele>
        <time>2021-08-28T07:29:36Z</time>
      </trkpt>
      <trkpt lat="42.98648" lon="-0.24071">
        <ele>1465.8</ele>
        <time>2021-08-28T07:29:40Z</time>
      </trkpt>
      <trkpt lat="42.98646" lon="-0.2408">
        <ele>1465.2</ele>
        <time>2021-08-28T07:29:41Z</time>
      </trkpt>
      <trkpt lat="42.98641" lon="-0.24101">
        <ele>1464.6</ele>
        <time>2021-08-28T07:29:43Z</time>
      </trkpt>
      <trkpt lat="42.98637" lon="-0.24133">
        <ele>1464</ele>
        <time>2021-08-28T07:29:46Z</time>
      </trkpt>
      <trkpt lat="42.98636" lon="-0.24144">
        <ele>1463.4</ele>
        <time>2021-08-28T07:29:47Z</time>
      </trkpt>
      <trkpt lat="42.98636" lon="-0.24155">
        <ele>1462.8</ele>
        <time>2021-08-28T07:29:48Z</time>
      </trkpt>
      <trkpt lat="42.98635" lon="-0.24166">
        <ele>1461.4</ele>
        <time>2021-08-28T07:29:49Z</time>
      </trkpt>
      <trkpt lat="42.98632" lon="-0.24187">
        <ele>1459.6</ele>
        <time>2021-08-28T07:29:51Z</time>
      </trkpt>
      <trkpt lat="42.98629" lon="-0.24209">
        <ele>1458.4</ele>
        <time>2021-08-28T07:29:53Z</time>
      </trkpt>
      <trkpt lat="42.98628" lon="-0.24229">
        <ele>1457.2</ele>
        <time>2021-08-28T07:29:55Z</time>
      </trkpt>
      <trkpt lat="42.98629" lon="-0.24251">
        <ele>1456</ele>
        <time>2021-08-28T07:29:57Z</time>
      </trkpt>
      <trkpt lat="42.98629" lon="-0.24272">
        <ele>1454.6</ele>
        <time>2021-08-28T07:29:59Z</time>
      </trkpt>
      <trkpt lat="42.98628" lon="-0.24292">
        <ele>1453</ele>
        <time>2021-08-28T07:30:01Z</time>
      </trkpt>
      <trkpt lat="42.98627" lon="-0.24305">
        <ele>1451.6</ele>
        <time>2021-08-28T07:30:02Z</time>
      </trkpt>
      <trkpt lat="42.98625" lon="-0.2434">
        <ele>1450.2</ele>
        <time>2021-08-28T07:30:05Z</time>
      </trkpt>
      <trkpt lat="42.98625" lon="-0.24364">
        <ele>1448.8</ele>
        <time>2021-08-28T07:30:07Z</time>
      </trkpt>
      <trkpt lat="42.98623" lon="-0.24385">
        <ele>1448.2</ele>
        <time>2021-08-28T07:30:09Z</time>
      </trkpt>
      <trkpt lat="42.98623" lon="-0.24392">
        <ele>1447.8</ele>
        <time>2021-08-28T07:30:10Z</time>
      </trkpt>
      <trkpt lat="42.98623" lon="-0.24402">
        <ele>1447.6</ele>
        <time>2021-08-28T07:30:11Z</time>
      </trkpt>
      <trkpt lat="42.98623" lon="-0.2441">
        <ele>1445.6</ele>
        <time>2021-08-28T07:30:12Z</time>
      </trkpt>
      <trkpt lat="42.98623" lon="-0.24418">
        <ele>1445.2</ele>
        <time>2021-08-28T07:30:13Z</time>
      </trkpt>
      <trkpt lat="42.98623" lon="-0.24424">
        <ele>1444.4</ele>
        <time>2021-08-28T07:30:14Z</time>
      </trkpt>
      <trkpt lat="42.98623" lon="-0.24432">
        <ele>1444.2</ele>
        <time>2021-08-28T07:30:15Z</time>
      </trkpt>
      <trkpt lat="42.98623" lon="-0.2444">
        <ele>1444</ele>
        <time>2021-08-28T07:30:16Z</time>
      </trkpt>
      <trkpt lat="42.98623" lon="-0.24446">
        <ele>1443.8</ele>
        <time>2021-08-28T07:30:17Z</time>
      </trkpt>
      <trkpt lat="42.98623" lon="-0.24453">
        <ele>1443.8</ele>
        <time>2021-08-28T07:30:18Z</time>
      </trkpt>
      <trkpt lat="42.98624" lon="-0.24459">
        <ele>1443.8</ele>
        <time>2021-08-28T07:30:19Z</time>
      </trkpt>
      <trkpt lat="42.98624" lon="-0.24463">
        <ele>1443.8</ele>
        <time>2021-08-28T07:30:20Z</time>
      </trkpt>
      <trkpt lat="42.98624" lon="-0.2447">
        <ele>1444</ele>
        <time>2021-08-28T07:30:21Z</time>
      </trkpt>
      <trkpt lat="42.98625" lon="-0.24486">
        <ele>1444.4</ele>
        <time>2021-08-28T07:30:24Z</time>
      </trkpt>
      <trkpt lat="42.98626" lon="-0.24492">
        <ele>1444.4</ele>
        <time>2021-08-28T07:30:25Z</time>
      </trkpt>
      <trkpt lat="42.98626" lon="-0.24497">
        <ele>1444.6</ele>
        <time>2021-08-28T07:30:26Z</time>
      </trkpt>
      <trkpt lat="42.98627" lon="-0.24502">
        <ele>1444.6</ele>
        <time>2021-08-28T07:30:27Z</time>
      </trkpt>
      <trkpt lat="42.98628" lon="-0.24506">
        <ele>1444.6</ele>
        <time>2021-08-28T07:30:28Z</time>
      </trkpt>
      <trkpt lat="42.98629" lon="-0.24512">
        <ele>1444.8</ele>
        <time>2021-08-28T07:30:29Z</time>
      </trkpt>
      <trkpt lat="42.98629" lon="-0.24517">
        <ele>1444.8</ele>
        <time>2021-08-28T07:30:30Z</time>
      </trkpt>
      <trkpt lat="42.9863" lon="-0.24522">
        <ele>1445</ele>
        <time>2021-08-28T07:30:31Z</time>
      </trkpt>
      <trkpt lat="42.98631" lon="-0.24527">
        <ele>1445.2</ele>
        <time>2021-08-28T07:30:32Z</time>
      </trkpt>
      <trkpt lat="42.98631" lon="-0.24531">
        <ele>1445.4</ele>
        <time>2021-08-28T07:30:33Z</time>
      </trkpt>
      <trkpt lat="42.98632" lon="-0.2454">
        <ele>1445.6</ele>
        <time>2021-08-28T07:30:35Z</time>
      </trkpt>
      <trkpt lat="42.98632" lon="-0.24544">
        <ele>1445.8</ele>
        <time>2021-08-28T07:30:36Z</time>
      </trkpt>
      <trkpt lat="42.98632" lon="-0.24548">
        <ele>1446</ele>
        <time>2021-08-28T07:30:37Z</time>
      </trkpt>
      <trkpt lat="42.98632" lon="-0.24552">
        <ele>1446</ele>
        <time>2021-08-28T07:30:38Z</time>
      </trkpt>
      <trkpt lat="42.98632" lon="-0.24557">
        <ele>1446.2</ele>
        <time>2021-08-28T07:30:39Z</time>
      </trkpt>
      <trkpt lat="42.98632" lon="-0.2456">
        <ele>1446.4</ele>
        <time>2021-08-28T07:30:40Z</time>
      </trkpt>
      <trkpt lat="42.98631" lon="-0.24564">
        <ele>1446.6</ele>
        <time>2021-08-28T07:30:41Z</time>
      </trkpt>
      <trkpt lat="42.98631" lon="-0.24567">
        <ele>1446.8</ele>
        <time>2021-08-28T07:30:42Z</time>
      </trkpt>
      <trkpt lat="42.9863" lon="-0.2457">
        <ele>1447</ele>
        <time>2021-08-28T07:30:43Z</time>
      </trkpt>
      <trkpt lat="42.98629" lon="-0.24574">
        <ele>1447.2</ele>
        <time>2021-08-28T07:30:44Z</time>
      </trkpt>
      <trkpt lat="42.98628" lon="-0.24577">
        <ele>1447.4</ele>
        <time>2021-08-28T07:30:45Z</time>
      </trkpt>
      <trkpt lat="42.98627" lon="-0.2458">
        <ele>1447.6</ele>
        <time>2021-08-28T07:30:46Z</time>
      </trkpt>
      <trkpt lat="42.98626" lon="-0.24582">
        <ele>1447.6</ele>
        <time>2021-08-28T07:30:47Z</time>
      </trkpt>
      <trkpt lat="42.98625" lon="-0.24585">
        <ele>1448</ele>
        <time>2021-08-28T07:30:48Z</time>
      </trkpt>
      <trkpt lat="42.98624" lon="-0.24587">
        <ele>1448</ele>
        <time>2021-08-28T07:30:49Z</time>
      </trkpt>
      <trkpt lat="42.98622" lon="-0.24589">
        <ele>1448.2</ele>
        <time>2021-08-28T07:30:50Z</time>
      </trkpt>
      <trkpt lat="42.9862" lon="-0.2459">
        <ele>1448.4</ele>
        <time>2021-08-28T07:30:51Z</time>
      </trkpt>
      <trkpt lat="42.98619" lon="-0.24592">
        <ele>1448.8</ele>
        <time>2021-08-28T07:30:52Z</time>
      </trkpt>
      <trkpt lat="42.98617" lon="-0.24593">
        <ele>1449</ele>
        <time>2021-08-28T07:30:53Z</time>
      </trkpt>
      <trkpt lat="42.98615" lon="-0.24593">
        <ele>1449.2</ele>
        <time>2021-08-28T07:30:54Z</time>
      </trkpt>
      <trkpt lat="42.98613" lon="-0.24594">
        <ele>1449.2</ele>
        <time>2021-08-28T07:30:55Z</time>
      </trkpt>
      <trkpt lat="42.98611" lon="-0.24595">
        <ele>1449.4</ele>
        <time>2021-08-28T07:30:56Z</time>
      </trkpt>
      <trkpt lat="42.98609" lon="-0.24595">
        <ele>1449.4</ele>
        <time>2021-08-28T07:30:57Z</time>
      </trkpt>
      <trkpt lat="42.98607" lon="-0.24596">
        <ele>1449.6</ele>
        <time>2021-08-28T07:30:58Z</time>
      </trkpt>
      <trkpt lat="42.98605" lon="-0.24596">
        <ele>1449.6</ele>
        <time>2021-08-28T07:30:59Z</time>
      </trkpt>
      <trkpt lat="42.98602" lon="-0.24597">
        <ele>1449.8</ele>
        <time>2021-08-28T07:31:00Z</time>
      </trkpt>
      <trkpt lat="42.986" lon="-0.24597">
        <ele>1450</ele>
        <time>2021-08-28T07:31:01Z</time>
      </trkpt>
      <trkpt lat="42.98598" lon="-0.24598">
        <ele>1450.2</ele>
        <time>2021-08-28T07:31:02Z</time>
      </trkpt>
      <trkpt lat="42.98596" lon="-0.24598">
        <ele>1450.4</ele>
        <time>2021-08-28T07:31:03Z</time>
      </trkpt>
      <trkpt lat="42.98594" lon="-0.24599">
        <ele>1450.6</ele>
        <time>2021-08-28T07:31:04Z</time>
      </trkpt>
      <trkpt lat="42.98591" lon="-0.24599">
        <ele>1450.6</ele>
        <time>2021-08-28T07:31:05Z</time>
      </trkpt>
      <trkpt lat="42.98589" lon="-0.246">
        <ele>1450.8</ele>
        <time>2021-08-28T07:31:06Z</time>
      </trkpt>
      <trkpt lat="42.98586" lon="-0.24601">
        <ele>1451</ele>
        <time>2021-08-28T07:31:07Z</time>
      </trkpt>
      <trkpt lat="42.98584" lon="-0.24601">
        <ele>1451</ele>
        <time>2021-08-28T07:31:08Z</time>
      </trkpt>
      <trkpt lat="42.98582" lon="-0.24602">
        <ele>1451.2</ele>
        <time>2021-08-28T07:31:09Z</time>
      </trkpt>
      <trkpt lat="42.98579" lon="-0.24602">
        <ele>1451.4</ele>
        <time>2021-08-28T07:31:10Z</time>
      </trkpt>
      <trkpt lat="42.98576" lon="-0.24603">
        <ele>1451.6</ele>
        <time>2021-08-28T07:31:11Z</time>
      </trkpt>
      <trkpt lat="42.98574" lon="-0.24603">
        <ele>1451.6</ele>
        <time>2021-08-28T07:31:12Z</time>
      </trkpt>
      <trkpt lat="42.98572" lon="-0.24604">
        <ele>1452</ele>
        <time>2021-08-28T07:31:13Z</time>
      </trkpt>
      <trkpt lat="42.98569" lon="-0.24604">
        <ele>1452</ele>
        <time>2021-08-28T07:31:14Z</time>
      </trkpt>
      <trkpt lat="42.98567" lon="-0.24604">
        <ele>1452.2</ele>
        <time>2021-08-28T07:31:15Z</time>
      </trkpt>
      <trkpt lat="42.98565" lon="-0.24604">
        <ele>1452.2</ele>
        <time>2021-08-28T07:31:16Z</time>
      </trkpt>
      <trkpt lat="42.98563" lon="-0.24604">
        <ele>1452.2</ele>
        <time>2021-08-28T07:31:17Z</time>
      </trkpt>
      <trkpt lat="42.9856" lon="-0.24604">
        <ele>1452.4</ele>
        <time>2021-08-28T07:31:18Z</time>
      </trkpt>
      <trkpt lat="42.98558" lon="-0.24604">
        <ele>1452.8</ele>
        <time>2021-08-28T07:31:19Z</time>
      </trkpt>
      <trkpt lat="42.98555" lon="-0.24604">
        <ele>1452.8</ele>
        <time>2021-08-28T07:31:20Z</time>
      </trkpt>
      <trkpt lat="42.98553" lon="-0.24604">
        <ele>1453</ele>
        <time>2021-08-28T07:31:21Z</time>
      </trkpt>
      <trkpt lat="42.98551" lon="-0.24604">
        <ele>1453</ele>
        <time>2021-08-28T07:31:22Z</time>
      </trkpt>
      <trkpt lat="42.98548" lon="-0.24603">
        <ele>1453.2</ele>
        <time>2021-08-28T07:31:23Z</time>
      </trkpt>
      <trkpt lat="42.98546" lon="-0.24603">
        <ele>1453.2</ele>
        <time>2021-08-28T07:31:24Z</time>
      </trkpt>
      <trkpt lat="42.98544" lon="-0.24602">
        <ele>1453.4</ele>
        <time>2021-08-28T07:31:25Z</time>
      </trkpt>
      <trkpt lat="42.98542" lon="-0.24601">
        <ele>1453.4</ele>
        <time>2021-08-28T07:31:26Z</time>
      </trkpt>
      <trkpt lat="42.9854" lon="-0.246">
        <ele>1453.8</ele>
        <time>2021-08-28T07:31:27Z</time>
      </trkpt>
      <trkpt lat="42.98538" lon="-0.24599">
        <ele>1454</ele>
        <time>2021-08-28T07:31:28Z</time>
      </trkpt>
      <trkpt lat="42.98536" lon="-0.24597">
        <ele>1454</ele>
        <time>2021-08-28T07:31:29Z</time>
      </trkpt>
      <trkpt lat="42.98534" lon="-0.24596">
        <ele>1454.2</ele>
        <time>2021-08-28T07:31:30Z</time>
      </trkpt>
      <trkpt lat="42.98532" lon="-0.24595">
        <ele>1454.2</ele>
        <time>2021-08-28T07:31:31Z</time>
      </trkpt>
      <trkpt lat="42.9853" lon="-0.24594">
        <ele>1454.4</ele>
        <time>2021-08-28T07:31:32Z</time>
      </trkpt>
      <trkpt lat="42.98529" lon="-0.24592">
        <ele>1454.6</ele>
        <time>2021-08-28T07:31:33Z</time>
      </trkpt>
      <trkpt lat="42.98527" lon="-0.2459">
        <ele>1455</ele>
        <time>2021-08-28T07:31:34Z</time>
      </trkpt>
      <trkpt lat="42.98525" lon="-0.24588">
        <ele>1455.2</ele>
        <time>2021-08-28T07:31:35Z</time>
      </trkpt>
      <trkpt lat="42.98524" lon="-0.24586">
        <ele>1455.4</ele>
        <time>2021-08-28T07:31:36Z</time>
      </trkpt>
      <trkpt lat="42.98523" lon="-0.24584">
        <ele>1455.6</ele>
        <time>2021-08-28T07:31:37Z</time>
      </trkpt>
      <trkpt lat="42.98521" lon="-0.24582">
        <ele>1455.8</ele>
        <time>2021-08-28T07:31:38Z</time>
      </trkpt>
      <trkpt lat="42.9852" lon="-0.24581">
        <ele>1455.8</ele>
        <time>2021-08-28T07:31:39Z</time>
      </trkpt>
      <trkpt lat="42.98519" lon="-0.24579">
        <ele>1456</ele>
        <time>2021-08-28T07:31:40Z</time>
      </trkpt>
      <trkpt lat="42.98518" lon="-0.24577">
        <ele>1456.2</ele>
        <time>2021-08-28T07:31:41Z</time>
      </trkpt>
      <trkpt lat="42.98517" lon="-0.24574">
        <ele>1456.2</ele>
        <time>2021-08-28T07:31:42Z</time>
      </trkpt>
      <trkpt lat="42.98516" lon="-0.24572">
        <ele>1456.4</ele>
        <time>2021-08-28T07:31:43Z</time>
      </trkpt>
      <trkpt lat="42.98515" lon="-0.2457">
        <ele>1456.8</ele>
        <time>2021-08-28T07:31:44Z</time>
      </trkpt>
      <trkpt lat="42.98514" lon="-0.24569">
        <ele>1456.8</ele>
        <time>2021-08-28T07:31:45Z</time>
      </trkpt>
      <trkpt lat="42.98513" lon="-0.24567">
        <ele>1457</ele>
        <time>2021-08-28T07:31:46Z</time>
      </trkpt>
      <trkpt lat="42.98511" lon="-0.24565">
        <ele>1457</ele>
        <time>2021-08-28T07:31:47Z</time>
      </trkpt>
      <trkpt lat="42.9851" lon="-0.24563">
        <ele>1457.2</ele>
        <time>2021-08-28T07:31:48Z</time>
      </trkpt>
      <trkpt lat="42.98509" lon="-0.24561">
        <ele>1457.4</ele>
        <time>2021-08-28T07:31:49Z</time>
      </trkpt>
      <trkpt lat="42.98508" lon="-0.24559">
        <ele>1457.6</ele>
        <time>2021-08-28T07:31:50Z</time>
      </trkpt>
      <trkpt lat="42.98507" lon="-0.24557">
        <ele>1457.8</ele>
        <time>2021-08-28T07:31:51Z</time>
      </trkpt>
      <trkpt lat="42.98506" lon="-0.24556">
        <ele>1457.8</ele>
        <time>2021-08-28T07:31:52Z</time>
      </trkpt>
      <trkpt lat="42.98505" lon="-0.24555">
        <ele>1458.2</ele>
        <time>2021-08-28T07:31:53Z</time>
      </trkpt>
      <trkpt lat="42.98504" lon="-0.24553">
        <ele>1458.4</ele>
        <time>2021-08-28T07:31:54Z</time>
      </trkpt>
      <trkpt lat="42.98503" lon="-0.24551">
        <ele>1458.6</ele>
        <time>2021-08-28T07:31:55Z</time>
      </trkpt>
      <trkpt lat="42.98501" lon="-0.2455">
        <ele>1458.8</ele>
        <time>2021-08-28T07:31:56Z</time>
      </trkpt>
      <trkpt lat="42.985" lon="-0.24548">
        <ele>1459</ele>
        <time>2021-08-28T07:31:57Z</time>
      </trkpt>
      <trkpt lat="42.98499" lon="-0.24546">
        <ele>1459.2</ele>
        <time>2021-08-28T07:31:58Z</time>
      </trkpt>
      <trkpt lat="42.98498" lon="-0.24544">
        <ele>1459.6</ele>
        <time>2021-08-28T07:31:59Z</time>
      </trkpt>
      <trkpt lat="42.98497" lon="-0.24543">
        <ele>1459.6</ele>
        <time>2021-08-28T07:32:00Z</time>
      </trkpt>
      <trkpt lat="42.98496" lon="-0.24541">
        <ele>1459.8</ele>
        <time>2021-08-28T07:32:01Z</time>
      </trkpt>
      <trkpt lat="42.98494" lon="-0.2454">
        <ele>1460</ele>
        <time>2021-08-28T07:32:02Z</time>
      </trkpt>
      <trkpt lat="42.98493" lon="-0.24538">
        <ele>1460.4</ele>
        <time>2021-08-28T07:32:03Z</time>
      </trkpt>
      <trkpt lat="42.98492" lon="-0.24536">
        <ele>1460.2</ele>
        <time>2021-08-28T07:32:04Z</time>
      </trkpt>
      <trkpt lat="42.98491" lon="-0.24535">
        <ele>1460.4</ele>
        <time>2021-08-28T07:32:05Z</time>
      </trkpt>
      <trkpt lat="42.9849" lon="-0.24533">
        <ele>1460.4</ele>
        <time>2021-08-28T07:32:06Z</time>
      </trkpt>
      <trkpt lat="42.98488" lon="-0.24532">
        <ele>1460.6</ele>
        <time>2021-08-28T07:32:07Z</time>
      </trkpt>
      <trkpt lat="42.98487" lon="-0.2453">
        <ele>1460.6</ele>
        <time>2021-08-28T07:32:08Z</time>
      </trkpt>
      <trkpt lat="42.98486" lon="-0.24528">
        <ele>1460.8</ele>
        <time>2021-08-28T07:32:09Z</time>
      </trkpt>
      <trkpt lat="42.98484" lon="-0.24527">
        <ele>1461</ele>
        <time>2021-08-28T07:32:10Z</time>
      </trkpt>
      <trkpt lat="42.98483" lon="-0.24526">
        <ele>1461.2</ele>
        <time>2021-08-28T07:32:11Z</time>
      </trkpt>
      <trkpt lat="42.98481" lon="-0.24525">
        <ele>1461.4</ele>
        <time>2021-08-28T07:32:12Z</time>
      </trkpt>
      <trkpt lat="42.98479" lon="-0.24522">
        <ele>1461.6</ele>
        <time>2021-08-28T07:32:13Z</time>
      </trkpt>
      <trkpt lat="42.98478" lon="-0.24521">
        <ele>1462</ele>
        <time>2021-08-28T07:32:14Z</time>
      </trkpt>
      <trkpt lat="42.98476" lon="-0.24519">
        <ele>1462.2</ele>
        <time>2021-08-28T07:32:15Z</time>
      </trkpt>
      <trkpt lat="42.98475" lon="-0.24518">
        <ele>1462.4</ele>
        <time>2021-08-28T07:32:16Z</time>
      </trkpt>
      <trkpt lat="42.98473" lon="-0.24517">
        <ele>1462.4</ele>
        <time>2021-08-28T07:32:17Z</time>
      </trkpt>
      <trkpt lat="42.98472" lon="-0.24515">
        <ele>1462.4</ele>
        <time>2021-08-28T07:32:18Z</time>
      </trkpt>
      <trkpt lat="42.9847" lon="-0.24513">
        <ele>1462.6</ele>
        <time>2021-08-28T07:32:19Z</time>
      </trkpt>
      <trkpt lat="42.98469" lon="-0.24511">
        <ele>1462.8</ele>
        <time>2021-08-28T07:32:20Z</time>
      </trkpt>
      <trkpt lat="42.98467" lon="-0.2451">
        <ele>1462.8</ele>
        <time>2021-08-28T07:32:21Z</time>
      </trkpt>
      <trkpt lat="42.98465" lon="-0.24509">
        <ele>1463</ele>
        <time>2021-08-28T07:32:22Z</time>
      </trkpt>
      <trkpt lat="42.98463" lon="-0.24507">
        <ele>1463</ele>
        <time>2021-08-28T07:32:23Z</time>
      </trkpt>
      <trkpt lat="42.98461" lon="-0.24505">
        <ele>1463.2</ele>
        <time>2021-08-28T07:32:24Z</time>
      </trkpt>
      <trkpt lat="42.9846" lon="-0.24503">
        <ele>1463.2</ele>
        <time>2021-08-28T07:32:25Z</time>
      </trkpt>
      <trkpt lat="42.98458" lon="-0.24501">
        <ele>1463.4</ele>
        <time>2021-08-28T07:32:26Z</time>
      </trkpt>
      <trkpt lat="42.98457" lon="-0.245">
        <ele>1463.4</ele>
        <time>2021-08-28T07:32:27Z</time>
      </trkpt>
      <trkpt lat="42.98455" lon="-0.24498">
        <ele>1463.6</ele>
        <time>2021-08-28T07:32:28Z</time>
      </trkpt>
      <trkpt lat="42.98453" lon="-0.24496">
        <ele>1463.6</ele>
        <time>2021-08-28T07:32:29Z</time>
      </trkpt>
      <trkpt lat="42.98451" lon="-0.24494">
        <ele>1463.8</ele>
        <time>2021-08-28T07:32:30Z</time>
      </trkpt>
      <trkpt lat="42.98449" lon="-0.24492">
        <ele>1463.8</ele>
        <time>2021-08-28T07:32:31Z</time>
      </trkpt>
      <trkpt lat="42.98447" lon="-0.2449">
        <ele>1464</ele>
        <time>2021-08-28T07:32:32Z</time>
      </trkpt>
      <trkpt lat="42.98445" lon="-0.24488">
        <ele>1464.2</ele>
        <time>2021-08-28T07:32:33Z</time>
      </trkpt>
      <trkpt lat="42.98443" lon="-0.24487">
        <ele>1464.4</ele>
        <time>2021-08-28T07:32:34Z</time>
      </trkpt>
      <trkpt lat="42.98441" lon="-0.24485">
        <ele>1464.6</ele>
        <time>2021-08-28T07:32:35Z</time>
      </trkpt>
      <trkpt lat="42.98439" lon="-0.24483">
        <ele>1464.6</ele>
        <time>2021-08-28T07:32:36Z</time>
      </trkpt>
      <trkpt lat="42.98437" lon="-0.24481">
        <ele>1464.6</ele>
        <time>2021-08-28T07:32:37Z</time>
      </trkpt>
      <trkpt lat="42.98434" lon="-0.24478">
        <ele>1464.8</ele>
        <time>2021-08-28T07:32:38Z</time>
      </trkpt>
      <trkpt lat="42.98432" lon="-0.24476">
        <ele>1464.8</ele>
        <time>2021-08-28T07:32:39Z</time>
      </trkpt>
      <trkpt lat="42.9843" lon="-0.24474">
        <ele>1464.8</ele>
        <time>2021-08-28T07:32:40Z</time>
      </trkpt>
      <trkpt lat="42.98427" lon="-0.24473">
        <ele>1465</ele>
        <time>2021-08-28T07:32:41Z</time>
      </trkpt>
      <trkpt lat="42.98425" lon="-0.24472">
        <ele>1465</ele>
        <time>2021-08-28T07:32:42Z</time>
      </trkpt>
      <trkpt lat="42.98422" lon="-0.24471">
        <ele>1465</ele>
        <time>2021-08-28T07:32:43Z</time>
      </trkpt>
      <trkpt lat="42.9842" lon="-0.2447">
        <ele>1465</ele>
        <time>2021-08-28T07:32:44Z</time>
      </trkpt>
      <trkpt lat="42.98418" lon="-0.24469">
        <ele>1465.2</ele>
        <time>2021-08-28T07:32:45Z</time>
      </trkpt>
      <trkpt lat="42.98416" lon="-0.24469">
        <ele>1465.2</ele>
        <time>2021-08-28T07:32:46Z</time>
      </trkpt>
      <trkpt lat="42.98414" lon="-0.24467">
        <ele>1465.2</ele>
        <time>2021-08-28T07:32:47Z</time>
      </trkpt>
      <trkpt lat="42.98412" lon="-0.24467">
        <ele>1465.2</ele>
        <time>2021-08-28T07:32:48Z</time>
      </trkpt>
      <trkpt lat="42.9841" lon="-0.24465">
        <ele>1465.4</ele>
        <time>2021-08-28T07:32:49Z</time>
      </trkpt>
      <trkpt lat="42.98408" lon="-0.24464">
        <ele>1465.4</ele>
        <time>2021-08-28T07:32:50Z</time>
      </trkpt>
      <trkpt lat="42.98406" lon="-0.24463">
        <ele>1465.6</ele>
        <time>2021-08-28T07:32:51Z</time>
      </trkpt>
      <trkpt lat="42.98404" lon="-0.24461">
        <ele>1465.6</ele>
        <time>2021-08-28T07:32:52Z</time>
      </trkpt>
      <trkpt lat="42.98402" lon="-0.2446">
        <ele>1465.8</ele>
        <time>2021-08-28T07:32:53Z</time>
      </trkpt>
      <trkpt lat="42.98395" lon="-0.24457">
        <ele>1466.4</ele>
        <time>2021-08-28T07:32:56Z</time>
      </trkpt>
      <trkpt lat="42.9839" lon="-0.24454">
        <ele>1466.6</ele>
        <time>2021-08-28T07:32:58Z</time>
      </trkpt>
      <trkpt lat="42.9838" lon="-0.24452">
        <ele>1466.8</ele>
        <time>2021-08-28T07:33:02Z</time>
      </trkpt>
      <trkpt lat="42.98377" lon="-0.24451">
        <ele>1466.8</ele>
        <time>2021-08-28T07:33:03Z</time>
      </trkpt>
      <trkpt lat="42.98375" lon="-0.24451">
        <ele>1467</ele>
        <time>2021-08-28T07:33:04Z</time>
      </trkpt>
      <trkpt lat="42.98372" lon="-0.2445">
        <ele>1467</ele>
        <time>2021-08-28T07:33:05Z</time>
      </trkpt>
      <trkpt lat="42.98369" lon="-0.24448">
        <ele>1467</ele>
        <time>2021-08-28T07:33:06Z</time>
      </trkpt>
      <trkpt lat="42.98366" lon="-0.24447">
        <ele>1467</ele>
        <time>2021-08-28T07:33:07Z</time>
      </trkpt>
      <trkpt lat="42.98363" lon="-0.24446">
        <ele>1467.2</ele>
        <time>2021-08-28T07:33:08Z</time>
      </trkpt>
      <trkpt lat="42.98361" lon="-0.24446">
        <ele>1467.2</ele>
        <time>2021-08-28T07:33:09Z</time>
      </trkpt>
      <trkpt lat="42.98358" lon="-0.24445">
        <ele>1467.4</ele>
        <time>2021-08-28T07:33:10Z</time>
      </trkpt>
      <trkpt lat="42.98353" lon="-0.24445">
        <ele>1467.6</ele>
        <time>2021-08-28T07:33:12Z</time>
      </trkpt>
      <trkpt lat="42.98351" lon="-0.24445">
        <ele>1467.6</ele>
        <time>2021-08-28T07:33:13Z</time>
      </trkpt>
      <trkpt lat="42.98348" lon="-0.24445">
        <ele>1467.6</ele>
        <time>2021-08-28T07:33:14Z</time>
      </trkpt>
      <trkpt lat="42.98346" lon="-0.24445">
        <ele>1467.8</ele>
        <time>2021-08-28T07:33:15Z</time>
      </trkpt>
      <trkpt lat="42.98343" lon="-0.24446">
        <ele>1467.8</ele>
        <time>2021-08-28T07:33:16Z</time>
      </trkpt>
      <trkpt lat="42.98341" lon="-0.24447">
        <ele>1467.8</ele>
        <time>2021-08-28T07:33:17Z</time>
      </trkpt>
      <trkpt lat="42.98339" lon="-0.24448">
        <ele>1468</ele>
        <time>2021-08-28T07:33:18Z</time>
      </trkpt>
      <trkpt lat="42.9833" lon="-0.24449">
        <ele>1468.4</ele>
        <time>2021-08-28T07:33:21Z</time>
      </trkpt>
      <trkpt lat="42.98326" lon="-0.24449">
        <ele>1468.6</ele>
        <time>2021-08-28T07:33:23Z</time>
      </trkpt>
      <trkpt lat="42.98319" lon="-0.24446">
        <ele>1469</ele>
        <time>2021-08-28T07:33:26Z</time>
      </trkpt>
      <trkpt lat="42.98315" lon="-0.24442">
        <ele>1469.2</ele>
        <time>2021-08-28T07:33:28Z</time>
      </trkpt>
      <trkpt lat="42.98302" lon="-0.24425">
        <ele>1469.4</ele>
        <time>2021-08-28T07:33:33Z</time>
      </trkpt>
      <trkpt lat="42.98291" lon="-0.24418">
        <ele>1469.4</ele>
        <time>2021-08-28T07:33:36Z</time>
      </trkpt>
      <trkpt lat="42.98288" lon="-0.24418">
        <ele>1469.4</ele>
        <time>2021-08-28T07:33:37Z</time>
      </trkpt>
      <trkpt lat="42.98285" lon="-0.24419">
        <ele>1469.4</ele>
        <time>2021-08-28T07:33:38Z</time>
      </trkpt>
      <trkpt lat="42.98283" lon="-0.24421">
        <ele>1469.4</ele>
        <time>2021-08-28T07:33:39Z</time>
      </trkpt>
      <trkpt lat="42.9828" lon="-0.24423">
        <ele>1469.4</ele>
        <time>2021-08-28T07:33:40Z</time>
      </trkpt>
      <trkpt lat="42.98279" lon="-0.24425">
        <ele>1469.4</ele>
        <time>2021-08-28T07:33:41Z</time>
      </trkpt>
      <trkpt lat="42.98277" lon="-0.24428">
        <ele>1469.4</ele>
        <time>2021-08-28T07:33:42Z</time>
      </trkpt>
      <trkpt lat="42.98276" lon="-0.24431">
        <ele>1469.4</ele>
        <time>2021-08-28T07:33:43Z</time>
      </trkpt>
      <trkpt lat="42.98275" lon="-0.24434">
        <ele>1469.8</ele>
        <time>2021-08-28T07:33:44Z</time>
      </trkpt>
      <trkpt lat="42.98274" lon="-0.24436">
        <ele>1469.8</ele>
        <time>2021-08-28T07:33:45Z</time>
      </trkpt>
      <trkpt lat="42.98273" lon="-0.24439">
        <ele>1470</ele>
        <time>2021-08-28T07:33:46Z</time>
      </trkpt>
      <trkpt lat="42.98269" lon="-0.24446">
        <ele>1470.4</ele>
        <time>2021-08-28T07:33:49Z</time>
      </trkpt>
      <trkpt lat="42.98263" lon="-0.24454">
        <ele>1470.8</ele>
        <time>2021-08-28T07:33:52Z</time>
      </trkpt>
      <trkpt lat="42.9825" lon="-0.2447">
        <ele>1471.6</ele>
        <time>2021-08-28T07:33:59Z</time>
      </trkpt>
      <trkpt lat="42.98246" lon="-0.24473">
        <ele>1471.8</ele>
        <time>2021-08-28T07:34:01Z</time>
      </trkpt>
      <trkpt lat="42.98244" lon="-0.24475">
        <ele>1472</ele>
        <time>2021-08-28T07:34:02Z</time>
      </trkpt>
      <trkpt lat="42.98242" lon="-0.24476">
        <ele>1472.2</ele>
        <time>2021-08-28T07:34:03Z</time>
      </trkpt>
      <trkpt lat="42.9824" lon="-0.24476">
        <ele>1472.2</ele>
        <time>2021-08-28T07:34:04Z</time>
      </trkpt>
      <trkpt lat="42.98237" lon="-0.24476">
        <ele>1472.4</ele>
        <time>2021-08-28T07:34:05Z</time>
      </trkpt>
      <trkpt lat="42.98235" lon="-0.24476">
        <ele>1472.6</ele>
        <time>2021-08-28T07:34:06Z</time>
      </trkpt>
      <trkpt lat="42.98232" lon="-0.24475">
        <ele>1472.8</ele>
        <time>2021-08-28T07:34:07Z</time>
      </trkpt>
      <trkpt lat="42.98229" lon="-0.24475">
        <ele>1472.8</ele>
        <time>2021-08-28T07:34:08Z</time>
      </trkpt>
      <trkpt lat="42.98227" lon="-0.24474">
        <ele>1472.8</ele>
        <time>2021-08-28T07:34:09Z</time>
      </trkpt>
      <trkpt lat="42.98224" lon="-0.24474">
        <ele>1473</ele>
        <time>2021-08-28T07:34:10Z</time>
      </trkpt>
      <trkpt lat="42.98221" lon="-0.24474">
        <ele>1473</ele>
        <time>2021-08-28T07:34:11Z</time>
      </trkpt>
      <trkpt lat="42.98218" lon="-0.24474">
        <ele>1473</ele>
        <time>2021-08-28T07:34:12Z</time>
      </trkpt>
      <trkpt lat="42.98216" lon="-0.24474">
        <ele>1473.2</ele>
        <time>2021-08-28T07:34:13Z</time>
      </trkpt>
      <trkpt lat="42.98214" lon="-0.24474">
        <ele>1473.2</ele>
        <time>2021-08-28T07:34:14Z</time>
      </trkpt>
      <trkpt lat="42.98212" lon="-0.24475">
        <ele>1473.4</ele>
        <time>2021-08-28T07:34:15Z</time>
      </trkpt>
      <trkpt lat="42.98209" lon="-0.24476">
        <ele>1473.6</ele>
        <time>2021-08-28T07:34:16Z</time>
      </trkpt>
      <trkpt lat="42.98207" lon="-0.24477">
        <ele>1473.6</ele>
        <time>2021-08-28T07:34:17Z</time>
      </trkpt>
      <trkpt lat="42.98205" lon="-0.24478">
        <ele>1473.8</ele>
        <time>2021-08-28T07:34:18Z</time>
      </trkpt>
      <trkpt lat="42.98203" lon="-0.24479">
        <ele>1473.8</ele>
        <time>2021-08-28T07:34:19Z</time>
      </trkpt>
      <trkpt lat="42.98201" lon="-0.2448">
        <ele>1474</ele>
        <time>2021-08-28T07:34:20Z</time>
      </trkpt>
      <trkpt lat="42.98198" lon="-0.24482">
        <ele>1474.2</ele>
        <time>2021-08-28T07:34:21Z</time>
      </trkpt>
      <trkpt lat="42.98196" lon="-0.24483">
        <ele>1474.4</ele>
        <time>2021-08-28T07:34:22Z</time>
      </trkpt>
      <trkpt lat="42.98194" lon="-0.24484">
        <ele>1474.6</ele>
        <time>2021-08-28T07:34:23Z</time>
      </trkpt>
      <trkpt lat="42.98192" lon="-0.24485">
        <ele>1474.8</ele>
        <time>2021-08-28T07:34:24Z</time>
      </trkpt>
      <trkpt lat="42.9819" lon="-0.24486">
        <ele>1474.8</ele>
        <time>2021-08-28T07:34:25Z</time>
      </trkpt>
      <trkpt lat="42.98187" lon="-0.24487">
        <ele>1475.2</ele>
        <time>2021-08-28T07:34:26Z</time>
      </trkpt>
      <trkpt lat="42.98185" lon="-0.24489">
        <ele>1475.2</ele>
        <time>2021-08-28T07:34:27Z</time>
      </trkpt>
      <trkpt lat="42.98183" lon="-0.2449">
        <ele>1475.6</ele>
        <time>2021-08-28T07:34:28Z</time>
      </trkpt>
      <trkpt lat="42.9818" lon="-0.24491">
        <ele>1475.6</ele>
        <time>2021-08-28T07:34:29Z</time>
      </trkpt>
      <trkpt lat="42.98178" lon="-0.24492">
        <ele>1475.8</ele>
        <time>2021-08-28T07:34:30Z</time>
      </trkpt>
      <trkpt lat="42.98177" lon="-0.24494">
        <ele>1475.8</ele>
        <time>2021-08-28T07:34:31Z</time>
      </trkpt>
      <trkpt lat="42.98175" lon="-0.24495">
        <ele>1476</ele>
        <time>2021-08-28T07:34:32Z</time>
      </trkpt>
      <trkpt lat="42.98173" lon="-0.24496">
        <ele>1476.2</ele>
        <time>2021-08-28T07:34:33Z</time>
      </trkpt>
      <trkpt lat="42.98171" lon="-0.24497">
        <ele>1476.4</ele>
        <time>2021-08-28T07:34:34Z</time>
      </trkpt>
      <trkpt lat="42.98169" lon="-0.24498">
        <ele>1476.4</ele>
        <time>2021-08-28T07:34:35Z</time>
      </trkpt>
      <trkpt lat="42.98167" lon="-0.245">
        <ele>1476.6</ele>
        <time>2021-08-28T07:34:36Z</time>
      </trkpt>
      <trkpt lat="42.98165" lon="-0.24501">
        <ele>1476.6</ele>
        <time>2021-08-28T07:34:37Z</time>
      </trkpt>
      <trkpt lat="42.98163" lon="-0.24502">
        <ele>1477</ele>
        <time>2021-08-28T07:34:38Z</time>
      </trkpt>
      <trkpt lat="42.98161" lon="-0.24503">
        <ele>1477</ele>
        <time>2021-08-28T07:34:39Z</time>
      </trkpt>
      <trkpt lat="42.98159" lon="-0.24504">
        <ele>1477.2</ele>
        <time>2021-08-28T07:34:40Z</time>
      </trkpt>
      <trkpt lat="42.98157" lon="-0.24505">
        <ele>1477.2</ele>
        <time>2021-08-28T07:34:41Z</time>
      </trkpt>
      <trkpt lat="42.98155" lon="-0.24506">
        <ele>1477.4</ele>
        <time>2021-08-28T07:34:42Z</time>
      </trkpt>
      <trkpt lat="42.98152" lon="-0.24507">
        <ele>1477.6</ele>
        <time>2021-08-28T07:34:43Z</time>
      </trkpt>
      <trkpt lat="42.9815" lon="-0.24508">
        <ele>1477.8</ele>
        <time>2021-08-28T07:34:44Z</time>
      </trkpt>
      <trkpt lat="42.98148" lon="-0.24509">
        <ele>1478</ele>
        <time>2021-08-28T07:34:45Z</time>
      </trkpt>
      <trkpt lat="42.98146" lon="-0.2451">
        <ele>1478</ele>
        <time>2021-08-28T07:34:46Z</time>
      </trkpt>
      <trkpt lat="42.98144" lon="-0.24512">
        <ele>1478</ele>
        <time>2021-08-28T07:34:47Z</time>
      </trkpt>
      <trkpt lat="42.98142" lon="-0.24513">
        <ele>1478</ele>
        <time>2021-08-28T07:34:48Z</time>
      </trkpt>
      <trkpt lat="42.9814" lon="-0.24514">
        <ele>1478.2</ele>
        <time>2021-08-28T07:34:49Z</time>
      </trkpt>
      <trkpt lat="42.98139" lon="-0.24516">
        <ele>1478.2</ele>
        <time>2021-08-28T07:34:50Z</time>
      </trkpt>
      <trkpt lat="42.98137" lon="-0.24518">
        <ele>1478.4</ele>
        <time>2021-08-28T07:34:51Z</time>
      </trkpt>
      <trkpt lat="42.98135" lon="-0.2452">
        <ele>1478.4</ele>
        <time>2021-08-28T07:34:52Z</time>
      </trkpt>
      <trkpt lat="42.98133" lon="-0.24521">
        <ele>1478.6</ele>
        <time>2021-08-28T07:34:53Z</time>
      </trkpt>
      <trkpt lat="42.98132" lon="-0.24523">
        <ele>1478.6</ele>
        <time>2021-08-28T07:34:54Z</time>
      </trkpt>
      <trkpt lat="42.9813" lon="-0.24525">
        <ele>1479</ele>
        <time>2021-08-28T07:34:55Z</time>
      </trkpt>
      <trkpt lat="42.98129" lon="-0.24526">
        <ele>1479</ele>
        <time>2021-08-28T07:34:56Z</time>
      </trkpt>
      <trkpt lat="42.98127" lon="-0.24529">
        <ele>1479.2</ele>
        <time>2021-08-28T07:34:57Z</time>
      </trkpt>
      <trkpt lat="42.98126" lon="-0.24531">
        <ele>1479.4</ele>
        <time>2021-08-28T07:34:58Z</time>
      </trkpt>
      <trkpt lat="42.98125" lon="-0.24533">
        <ele>1479.4</ele>
        <time>2021-08-28T07:34:59Z</time>
      </trkpt>
      <trkpt lat="42.98123" lon="-0.24535">
        <ele>1479.4</ele>
        <time>2021-08-28T07:35:00Z</time>
      </trkpt>
      <trkpt lat="42.98122" lon="-0.24537">
        <ele>1479.6</ele>
        <time>2021-08-28T07:35:01Z</time>
      </trkpt>
      <trkpt lat="42.98121" lon="-0.24539">
        <ele>1479.8</ele>
        <time>2021-08-28T07:35:02Z</time>
      </trkpt>
      <trkpt lat="42.9812" lon="-0.24541">
        <ele>1480</ele>
        <time>2021-08-28T07:35:03Z</time>
      </trkpt>
      <trkpt lat="42.98119" lon="-0.24543">
        <ele>1480.2</ele>
        <time>2021-08-28T07:35:04Z</time>
      </trkpt>
      <trkpt lat="42.98118" lon="-0.24545">
        <ele>1480.4</ele>
        <time>2021-08-28T07:35:05Z</time>
      </trkpt>
      <trkpt lat="42.98116" lon="-0.24547">
        <ele>1480.4</ele>
        <time>2021-08-28T07:35:06Z</time>
      </trkpt>
      <trkpt lat="42.98115" lon="-0.24549">
        <ele>1480.6</ele>
        <time>2021-08-28T07:35:07Z</time>
      </trkpt>
      <trkpt lat="42.98114" lon="-0.24551">
        <ele>1480.6</ele>
        <time>2021-08-28T07:35:08Z</time>
      </trkpt>
      <trkpt lat="42.98113" lon="-0.24553">
        <ele>1480.6</ele>
        <time>2021-08-28T07:35:09Z</time>
      </trkpt>
      <trkpt lat="42.98111" lon="-0.24556">
        <ele>1480.8</ele>
        <time>2021-08-28T07:35:10Z</time>
      </trkpt>
      <trkpt lat="42.9811" lon="-0.24559">
        <ele>1480.8</ele>
        <time>2021-08-28T07:35:11Z</time>
      </trkpt>
      <trkpt lat="42.98109" lon="-0.24561">
        <ele>1481</ele>
        <time>2021-08-28T07:35:12Z</time>
      </trkpt>
      <trkpt lat="42.98108" lon="-0.24563">
        <ele>1481.2</ele>
        <time>2021-08-28T07:35:13Z</time>
      </trkpt>
      <trkpt lat="42.98106" lon="-0.24565">
        <ele>1481.6</ele>
        <time>2021-08-28T07:35:14Z</time>
      </trkpt>
      <trkpt lat="42.98105" lon="-0.24567">
        <ele>1481.8</ele>
        <time>2021-08-28T07:35:15Z</time>
      </trkpt>
      <trkpt lat="42.98104" lon="-0.24569">
        <ele>1482.2</ele>
        <time>2021-08-28T07:35:16Z</time>
      </trkpt>
      <trkpt lat="42.98102" lon="-0.24571">
        <ele>1482.2</ele>
        <time>2021-08-28T07:35:17Z</time>
      </trkpt>
      <trkpt lat="42.98101" lon="-0.24573">
        <ele>1482.4</ele>
        <time>2021-08-28T07:35:18Z</time>
      </trkpt>
      <trkpt lat="42.981" lon="-0.24576">
        <ele>1482.6</ele>
        <time>2021-08-28T07:35:19Z</time>
      </trkpt>
      <trkpt lat="42.98098" lon="-0.24578">
        <ele>1483</ele>
        <time>2021-08-28T07:35:20Z</time>
      </trkpt>
      <trkpt lat="42.98097" lon="-0.2458">
        <ele>1483.2</ele>
        <time>2021-08-28T07:35:21Z</time>
      </trkpt>
      <trkpt lat="42.98096" lon="-0.24581">
        <ele>1483.2</ele>
        <time>2021-08-28T07:35:22Z</time>
      </trkpt>
      <trkpt lat="42.98094" lon="-0.24583">
        <ele>1483.4</ele>
        <time>2021-08-28T07:35:23Z</time>
      </trkpt>
      <trkpt lat="42.98093" lon="-0.24585">
        <ele>1483.4</ele>
        <time>2021-08-28T07:35:24Z</time>
      </trkpt>
      <trkpt lat="42.98091" lon="-0.24587">
        <ele>1483.6</ele>
        <time>2021-08-28T07:35:25Z</time>
      </trkpt>
      <trkpt lat="42.9809" lon="-0.24589">
        <ele>1483.8</ele>
        <time>2021-08-28T07:35:26Z</time>
      </trkpt>
      <trkpt lat="42.98089" lon="-0.2459">
        <ele>1483.8</ele>
        <time>2021-08-28T07:35:27Z</time>
      </trkpt>
      <trkpt lat="42.98088" lon="-0.24592">
        <ele>1484</ele>
        <time>2021-08-28T07:35:28Z</time>
      </trkpt>
      <trkpt lat="42.98086" lon="-0.24594">
        <ele>1484</ele>
        <time>2021-08-28T07:35:29Z</time>
      </trkpt>
      <trkpt lat="42.98085" lon="-0.24595">
        <ele>1484.2</ele>
        <time>2021-08-28T07:35:30Z</time>
      </trkpt>
      <trkpt lat="42.98083" lon="-0.24597">
        <ele>1484.2</ele>
        <time>2021-08-28T07:35:31Z</time>
      </trkpt>
      <trkpt lat="42.98082" lon="-0.24599">
        <ele>1484.2</ele>
        <time>2021-08-28T07:35:32Z</time>
      </trkpt>
      <trkpt lat="42.98081" lon="-0.246">
        <ele>1484.4</ele>
        <time>2021-08-28T07:35:33Z</time>
      </trkpt>
      <trkpt lat="42.98079" lon="-0.24602">
        <ele>1484.4</ele>
        <time>2021-08-28T07:35:34Z</time>
      </trkpt>
      <trkpt lat="42.98078" lon="-0.24604">
        <ele>1484.8</ele>
        <time>2021-08-28T07:35:35Z</time>
      </trkpt>
      <trkpt lat="42.98077" lon="-0.24605">
        <ele>1484.8</ele>
        <time>2021-08-28T07:35:36Z</time>
      </trkpt>
      <trkpt lat="42.98076" lon="-0.24608">
        <ele>1484.8</ele>
        <time>2021-08-28T07:35:37Z</time>
      </trkpt>
      <trkpt lat="42.98075" lon="-0.2461">
        <ele>1485</ele>
        <time>2021-08-28T07:35:38Z</time>
      </trkpt>
      <trkpt lat="42.98074" lon="-0.24612">
        <ele>1485</ele>
        <time>2021-08-28T07:35:39Z</time>
      </trkpt>
      <trkpt lat="42.98073" lon="-0.24614">
        <ele>1485.2</ele>
        <time>2021-08-28T07:35:40Z</time>
      </trkpt>
      <trkpt lat="42.98073" lon="-0.24617">
        <ele>1485.2</ele>
        <time>2021-08-28T07:35:41Z</time>
      </trkpt>
      <trkpt lat="42.98072" lon="-0.24619">
        <ele>1485.2</ele>
        <time>2021-08-28T07:35:42Z</time>
      </trkpt>
      <trkpt lat="42.98072" lon="-0.24622">
        <ele>1485.4</ele>
        <time>2021-08-28T07:35:43Z</time>
      </trkpt>
      <trkpt lat="42.98071" lon="-0.24625">
        <ele>1485.4</ele>
        <time>2021-08-28T07:35:44Z</time>
      </trkpt>
      <trkpt lat="42.98071" lon="-0.24628">
        <ele>1485.6</ele>
        <time>2021-08-28T07:35:45Z</time>
      </trkpt>
      <trkpt lat="42.9807" lon="-0.2463">
        <ele>1485.8</ele>
        <time>2021-08-28T07:35:46Z</time>
      </trkpt>
      <trkpt lat="42.9807" lon="-0.24633">
        <ele>1486</ele>
        <time>2021-08-28T07:35:47Z</time>
      </trkpt>
      <trkpt lat="42.98069" lon="-0.24636">
        <ele>1486</ele>
        <time>2021-08-28T07:35:48Z</time>
      </trkpt>
      <trkpt lat="42.98069" lon="-0.24638">
        <ele>1486.2</ele>
        <time>2021-08-28T07:35:49Z</time>
      </trkpt>
      <trkpt lat="42.98069" lon="-0.24642">
        <ele>1486.2</ele>
        <time>2021-08-28T07:35:50Z</time>
      </trkpt>
      <trkpt lat="42.98068" lon="-0.24645">
        <ele>1486.2</ele>
        <time>2021-08-28T07:35:51Z</time>
      </trkpt>
      <trkpt lat="42.98068" lon="-0.24647">
        <ele>1486.4</ele>
        <time>2021-08-28T07:35:52Z</time>
      </trkpt>
      <trkpt lat="42.98068" lon="-0.2465">
        <ele>1486.4</ele>
        <time>2021-08-28T07:35:53Z</time>
      </trkpt>
      <trkpt lat="42.98068" lon="-0.24653">
        <ele>1486.6</ele>
        <time>2021-08-28T07:35:54Z</time>
      </trkpt>
      <trkpt lat="42.98067" lon="-0.24655">
        <ele>1486.8</ele>
        <time>2021-08-28T07:35:55Z</time>
      </trkpt>
      <trkpt lat="42.98067" lon="-0.24658">
        <ele>1487</ele>
        <time>2021-08-28T07:35:56Z</time>
      </trkpt>
      <trkpt lat="42.98066" lon="-0.2466">
        <ele>1487</ele>
        <time>2021-08-28T07:35:57Z</time>
      </trkpt>
      <trkpt lat="42.98066" lon="-0.24662">
        <ele>1487.2</ele>
        <time>2021-08-28T07:35:58Z</time>
      </trkpt>
      <trkpt lat="42.98066" lon="-0.24664">
        <ele>1487.4</ele>
        <time>2021-08-28T07:35:59Z</time>
      </trkpt>
      <trkpt lat="42.98066" lon="-0.24667">
        <ele>1487.6</ele>
        <time>2021-08-28T07:36:00Z</time>
      </trkpt>
      <trkpt lat="42.98065" lon="-0.24669">
        <ele>1487.6</ele>
        <time>2021-08-28T07:36:01Z</time>
      </trkpt>
      <trkpt lat="42.98065" lon="-0.24671">
        <ele>1487.8</ele>
        <time>2021-08-28T07:36:02Z</time>
      </trkpt>
      <trkpt lat="42.98065" lon="-0.24673">
        <ele>1488.2</ele>
        <time>2021-08-28T07:36:03Z</time>
      </trkpt>
      <trkpt lat="42.98065" lon="-0.24675">
        <ele>1488.4</ele>
        <time>2021-08-28T07:36:04Z</time>
      </trkpt>
      <trkpt lat="42.98065" lon="-0.24677">
        <ele>1488.6</ele>
        <time>2021-08-28T07:36:05Z</time>
      </trkpt>
      <trkpt lat="42.98064" lon="-0.24679">
        <ele>1489</ele>
        <time>2021-08-28T07:36:06Z</time>
      </trkpt>
      <trkpt lat="42.98064" lon="-0.24681">
        <ele>1489.2</ele>
        <time>2021-08-28T07:36:07Z</time>
      </trkpt>
      <trkpt lat="42.98064" lon="-0.24684">
        <ele>1489.4</ele>
        <time>2021-08-28T07:36:08Z</time>
      </trkpt>
      <trkpt lat="42.98064" lon="-0.24686">
        <ele>1489.4</ele>
        <time>2021-08-28T07:36:09Z</time>
      </trkpt>
      <trkpt lat="42.98064" lon="-0.24689">
        <ele>1489.6</ele>
        <time>2021-08-28T07:36:10Z</time>
      </trkpt>
      <trkpt lat="42.98065" lon="-0.24691">
        <ele>1490.2</ele>
        <time>2021-08-28T07:36:11Z</time>
      </trkpt>
      <trkpt lat="42.98065" lon="-0.24693">
        <ele>1490.4</ele>
        <time>2021-08-28T07:36:12Z</time>
      </trkpt>
      <trkpt lat="42.98065" lon="-0.24695">
        <ele>1490.6</ele>
        <time>2021-08-28T07:36:13Z</time>
      </trkpt>
      <trkpt lat="42.98065" lon="-0.24697">
        <ele>1490.8</ele>
        <time>2021-08-28T07:36:14Z</time>
      </trkpt>
      <trkpt lat="42.98065" lon="-0.247">
        <ele>1491</ele>
        <time>2021-08-28T07:36:15Z</time>
      </trkpt>
      <trkpt lat="42.98065" lon="-0.24702">
        <ele>1491</ele>
        <time>2021-08-28T07:36:16Z</time>
      </trkpt>
      <trkpt lat="42.98064" lon="-0.24704">
        <ele>1491.2</ele>
        <time>2021-08-28T07:36:17Z</time>
      </trkpt>
      <trkpt lat="42.98062" lon="-0.24705">
        <ele>1491.4</ele>
        <time>2021-08-28T07:36:18Z</time>
      </trkpt>
      <trkpt lat="42.98061" lon="-0.24706">
        <ele>1491.6</ele>
        <time>2021-08-28T07:36:19Z</time>
      </trkpt>
      <trkpt lat="42.9806" lon="-0.24705">
        <ele>1491.8</ele>
        <time>2021-08-28T07:36:20Z</time>
      </trkpt>
      <trkpt lat="42.98058" lon="-0.24704">
        <ele>1492</ele>
        <time>2021-08-28T07:36:21Z</time>
      </trkpt>
      <trkpt lat="42.98057" lon="-0.24703">
        <ele>1492.2</ele>
        <time>2021-08-28T07:36:22Z</time>
      </trkpt>
      <trkpt lat="42.98057" lon="-0.24701">
        <ele>1492.4</ele>
        <time>2021-08-28T07:36:23Z</time>
      </trkpt>
      <trkpt lat="42.98057" lon="-0.24699">
        <ele>1492.6</ele>
        <time>2021-08-28T07:36:24Z</time>
      </trkpt>
      <trkpt lat="42.98057" lon="-0.24696">
        <ele>1492.8</ele>
        <time>2021-08-28T07:36:25Z</time>
      </trkpt>
      <trkpt lat="42.98057" lon="-0.24694">
        <ele>1493</ele>
        <time>2021-08-28T07:36:26Z</time>
      </trkpt>
      <trkpt lat="42.98057" lon="-0.24692">
        <ele>1493.2</ele>
        <time>2021-08-28T07:36:27Z</time>
      </trkpt>
      <trkpt lat="42.98058" lon="-0.24689">
        <ele>1493.2</ele>
        <time>2021-08-28T07:36:28Z</time>
      </trkpt>
      <trkpt lat="42.98058" lon="-0.24687">
        <ele>1493.4</ele>
        <time>2021-08-28T07:36:29Z</time>
      </trkpt>
      <trkpt lat="42.98058" lon="-0.24685">
        <ele>1493.4</ele>
        <time>2021-08-28T07:36:30Z</time>
      </trkpt>
      <trkpt lat="42.98058" lon="-0.24683">
        <ele>1493.6</ele>
        <time>2021-08-28T07:36:31Z</time>
      </trkpt>
      <trkpt lat="42.98058" lon="-0.24681">
        <ele>1493.6</ele>
        <time>2021-08-28T07:36:32Z</time>
      </trkpt>
      <trkpt lat="42.98058" lon="-0.2468">
        <ele>1493.8</ele>
        <time>2021-08-28T07:36:33Z</time>
      </trkpt>
      <trkpt lat="42.98057" lon="-0.24677">
        <ele>1494</ele>
        <time>2021-08-28T07:36:34Z</time>
      </trkpt>
      <trkpt lat="42.98057" lon="-0.24675">
        <ele>1494.2</ele>
        <time>2021-08-28T07:36:35Z</time>
      </trkpt>
      <trkpt lat="42.98057" lon="-0.24673">
        <ele>1494.2</ele>
        <time>2021-08-28T07:36:36Z</time>
      </trkpt>
      <trkpt lat="42.98057" lon="-0.24671">
        <ele>1494.4</ele>
        <time>2021-08-28T07:36:37Z</time>
      </trkpt>
      <trkpt lat="42.98057" lon="-0.2467">
        <ele>1494.4</ele>
        <time>2021-08-28T07:36:38Z</time>
      </trkpt>
      <trkpt lat="42.98057" lon="-0.24669">
        <ele>1494.6</ele>
        <time>2021-08-28T07:36:39Z</time>
      </trkpt>
      <trkpt lat="42.98056" lon="-0.24668">
        <ele>1494.8</ele>
        <time>2021-08-28T07:36:40Z</time>
      </trkpt>
      <trkpt lat="42.98056" lon="-0.24668">
        <ele>1494.8</ele>
        <time>2021-08-28T07:36:41Z</time>
      </trkpt>
      <trkpt lat="42.98056" lon="-0.24668">
        <ele>1495</ele>
        <time>2021-08-28T07:36:42Z</time>
      </trkpt>
      <trkpt lat="42.98056" lon="-0.24668">
        <ele>1495.2</ele>
        <time>2021-08-28T07:36:43Z</time>
      </trkpt>
      <trkpt lat="42.98056" lon="-0.24668">
        <ele>1495.6</ele>
        <time>2021-08-28T07:37:00Z</time>
      </trkpt>
      <trkpt lat="42.98055" lon="-0.24661">
        <ele>1495.4</ele>
        <time>2021-08-28T07:37:46Z</time>
      </trkpt>
      <trkpt lat="42.98052" lon="-0.24653">
        <ele>1495.4</ele>
        <time>2021-08-28T07:37:49Z</time>
      </trkpt>
      <trkpt lat="42.98049" lon="-0.24641">
        <ele>1496.2</ele>
        <time>2021-08-28T07:37:54Z</time>
      </trkpt>
      <trkpt lat="42.98049" lon="-0.24638">
        <ele>1496.4</ele>
        <time>2021-08-28T07:37:55Z</time>
      </trkpt>
      <trkpt lat="42.98049" lon="-0.24629">
        <ele>1497</ele>
        <time>2021-08-28T07:37:59Z</time>
      </trkpt>
      <trkpt lat="42.98049" lon="-0.24627">
        <ele>1497.4</ele>
        <time>2021-08-28T07:38:00Z</time>
      </trkpt>
      <trkpt lat="42.98048" lon="-0.24625">
        <ele>1497.6</ele>
        <time>2021-08-28T07:38:01Z</time>
      </trkpt>
      <trkpt lat="42.98048" lon="-0.24622">
        <ele>1497.8</ele>
        <time>2021-08-28T07:38:02Z</time>
      </trkpt>
      <trkpt lat="42.98048" lon="-0.24619">
        <ele>1497.8</ele>
        <time>2021-08-28T07:38:03Z</time>
      </trkpt>
      <trkpt lat="42.98049" lon="-0.24611">
        <ele>1498.2</ele>
        <time>2021-08-28T07:38:06Z</time>
      </trkpt>
      <trkpt lat="42.98049" lon="-0.24608">
        <ele>1498.4</ele>
        <time>2021-08-28T07:38:07Z</time>
      </trkpt>
      <trkpt lat="42.9805" lon="-0.24605">
        <ele>1498.8</ele>
        <time>2021-08-28T07:38:08Z</time>
      </trkpt>
      <trkpt lat="42.98049" lon="-0.24602">
        <ele>1498.8</ele>
        <time>2021-08-28T07:38:09Z</time>
      </trkpt>
      <trkpt lat="42.9805" lon="-0.24599">
        <ele>1499.2</ele>
        <time>2021-08-28T07:38:10Z</time>
      </trkpt>
      <trkpt lat="42.9805" lon="-0.24596">
        <ele>1499.4</ele>
        <time>2021-08-28T07:38:11Z</time>
      </trkpt>
      <trkpt lat="42.98051" lon="-0.24593">
        <ele>1499.6</ele>
        <time>2021-08-28T07:38:12Z</time>
      </trkpt>
      <trkpt lat="42.98052" lon="-0.2459">
        <ele>1499.6</ele>
        <time>2021-08-28T07:38:13Z</time>
      </trkpt>
      <trkpt lat="42.98053" lon="-0.24587">
        <ele>1500</ele>
        <time>2021-08-28T07:38:14Z</time>
      </trkpt>
      <trkpt lat="42.98054" lon="-0.24584">
        <ele>1500</ele>
        <time>2021-08-28T07:38:15Z</time>
      </trkpt>
      <trkpt lat="42.98054" lon="-0.2458">
        <ele>1500</ele>
        <time>2021-08-28T07:38:16Z</time>
      </trkpt>
      <trkpt lat="42.98055" lon="-0.24577">
        <ele>1500.2</ele>
        <time>2021-08-28T07:38:17Z</time>
      </trkpt>
      <trkpt lat="42.98056" lon="-0.24574">
        <ele>1500.2</ele>
        <time>2021-08-28T07:38:18Z</time>
      </trkpt>
      <trkpt lat="42.98057" lon="-0.24571">
        <ele>1500.4</ele>
        <time>2021-08-28T07:38:19Z</time>
      </trkpt>
      <trkpt lat="42.98058" lon="-0.24568">
        <ele>1500.4</ele>
        <time>2021-08-28T07:38:20Z</time>
      </trkpt>
      <trkpt lat="42.9806" lon="-0.24566">
        <ele>1500.6</ele>
        <time>2021-08-28T07:38:21Z</time>
      </trkpt>
      <trkpt lat="42.98061" lon="-0.24563">
        <ele>1500.6</ele>
        <time>2021-08-28T07:38:22Z</time>
      </trkpt>
      <trkpt lat="42.98062" lon="-0.24561">
        <ele>1500.6</ele>
        <time>2021-08-28T07:38:23Z</time>
      </trkpt>
      <trkpt lat="42.98063" lon="-0.24558">
        <ele>1500.6</ele>
        <time>2021-08-28T07:38:24Z</time>
      </trkpt>
      <trkpt lat="42.98065" lon="-0.24556">
        <ele>1500.8</ele>
        <time>2021-08-28T07:38:25Z</time>
      </trkpt>
      <trkpt lat="42.98065" lon="-0.24554">
        <ele>1500.8</ele>
        <time>2021-08-28T07:38:26Z</time>
      </trkpt>
      <trkpt lat="42.98067" lon="-0.24551">
        <ele>1500.8</ele>
        <time>2021-08-28T07:38:27Z</time>
      </trkpt>
      <trkpt lat="42.98068" lon="-0.24549">
        <ele>1501</ele>
        <time>2021-08-28T07:38:28Z</time>
      </trkpt>
      <trkpt lat="42.98068" lon="-0.24547">
        <ele>1501.2</ele>
        <time>2021-08-28T07:38:29Z</time>
      </trkpt>
      <trkpt lat="42.98069" lon="-0.24545">
        <ele>1501.4</ele>
        <time>2021-08-28T07:38:30Z</time>
      </trkpt>
      <trkpt lat="42.98069" lon="-0.24542">
        <ele>1501.6</ele>
        <time>2021-08-28T07:38:31Z</time>
      </trkpt>
      <trkpt lat="42.9807" lon="-0.2454">
        <ele>1501.6</ele>
        <time>2021-08-28T07:38:32Z</time>
      </trkpt>
      <trkpt lat="42.9807" lon="-0.24537">
        <ele>1501.8</ele>
        <time>2021-08-28T07:38:33Z</time>
      </trkpt>
      <trkpt lat="42.9807" lon="-0.24535">
        <ele>1501.8</ele>
        <time>2021-08-28T07:38:34Z</time>
      </trkpt>
      <trkpt lat="42.9807" lon="-0.24532">
        <ele>1502</ele>
        <time>2021-08-28T07:38:35Z</time>
      </trkpt>
      <trkpt lat="42.9807" lon="-0.24529">
        <ele>1502.2</ele>
        <time>2021-08-28T07:38:36Z</time>
      </trkpt>
      <trkpt lat="42.9807" lon="-0.24527">
        <ele>1502.4</ele>
        <time>2021-08-28T07:38:37Z</time>
      </trkpt>
      <trkpt lat="42.98069" lon="-0.24524">
        <ele>1502.6</ele>
        <time>2021-08-28T07:38:38Z</time>
      </trkpt>
      <trkpt lat="42.98068" lon="-0.24521">
        <ele>1502.8</ele>
        <time>2021-08-28T07:38:39Z</time>
      </trkpt>
      <trkpt lat="42.98067" lon="-0.24519">
        <ele>1503</ele>
        <time>2021-08-28T07:38:40Z</time>
      </trkpt>
      <trkpt lat="42.98066" lon="-0.24517">
        <ele>1503</ele>
        <time>2021-08-28T07:38:41Z</time>
      </trkpt>
      <trkpt lat="42.98065" lon="-0.24514">
        <ele>1503.2</ele>
        <time>2021-08-28T07:38:42Z</time>
      </trkpt>
      <trkpt lat="42.98064" lon="-0.24511">
        <ele>1503.4</ele>
        <time>2021-08-28T07:38:43Z</time>
      </trkpt>
      <trkpt lat="42.98063" lon="-0.24509">
        <ele>1503.4</ele>
        <time>2021-08-28T07:38:44Z</time>
      </trkpt>
      <trkpt lat="42.98063" lon="-0.24507">
        <ele>1503.6</ele>
        <time>2021-08-28T07:38:45Z</time>
      </trkpt>
      <trkpt lat="42.98062" lon="-0.24503">
        <ele>1503.8</ele>
        <time>2021-08-28T07:38:46Z</time>
      </trkpt>
      <trkpt lat="42.98061" lon="-0.24501">
        <ele>1504</ele>
        <time>2021-08-28T07:38:47Z</time>
      </trkpt>
      <trkpt lat="42.9806" lon="-0.24498">
        <ele>1504.4</ele>
        <time>2021-08-28T07:38:48Z</time>
      </trkpt>
      <trkpt lat="42.98059" lon="-0.24496">
        <ele>1504.2</ele>
        <time>2021-08-28T07:38:49Z</time>
      </trkpt>
      <trkpt lat="42.98059" lon="-0.24494">
        <ele>1504.6</ele>
        <time>2021-08-28T07:38:50Z</time>
      </trkpt>
      <trkpt lat="42.98059" lon="-0.24491">
        <ele>1504.6</ele>
        <time>2021-08-28T07:38:51Z</time>
      </trkpt>
      <trkpt lat="42.98059" lon="-0.24489">
        <ele>1504.6</ele>
        <time>2021-08-28T07:38:52Z</time>
      </trkpt>
      <trkpt lat="42.98059" lon="-0.24486">
        <ele>1505</ele>
        <time>2021-08-28T07:38:53Z</time>
      </trkpt>
      <trkpt lat="42.98059" lon="-0.24484">
        <ele>1505.2</ele>
        <time>2021-08-28T07:38:54Z</time>
      </trkpt>
      <trkpt lat="42.9806" lon="-0.24481">
        <ele>1505</ele>
        <time>2021-08-28T07:38:55Z</time>
      </trkpt>
      <trkpt lat="42.98061" lon="-0.24478">
        <ele>1505.2</ele>
        <time>2021-08-28T07:38:56Z</time>
      </trkpt>
      <trkpt lat="42.98063" lon="-0.24476">
        <ele>1505.2</ele>
        <time>2021-08-28T07:38:57Z</time>
      </trkpt>
      <trkpt lat="42.98064" lon="-0.24473">
        <ele>1505.4</ele>
        <time>2021-08-28T07:38:58Z</time>
      </trkpt>
      <trkpt lat="42.98065" lon="-0.24471">
        <ele>1505.6</ele>
        <time>2021-08-28T07:38:59Z</time>
      </trkpt>
      <trkpt lat="42.98067" lon="-0.2447">
        <ele>1505.6</ele>
        <time>2021-08-28T07:39:00Z</time>
      </trkpt>
      <trkpt lat="42.98068" lon="-0.24468">
        <ele>1505.8</ele>
        <time>2021-08-28T07:39:01Z</time>
      </trkpt>
      <trkpt lat="42.9807" lon="-0.24466">
        <ele>1505.8</ele>
        <time>2021-08-28T07:39:02Z</time>
      </trkpt>
      <trkpt lat="42.98072" lon="-0.24465">
        <ele>1506</ele>
        <time>2021-08-28T07:39:03Z</time>
      </trkpt>
      <trkpt lat="42.98073" lon="-0.24464">
        <ele>1506</ele>
        <time>2021-08-28T07:39:04Z</time>
      </trkpt>
      <trkpt lat="42.98075" lon="-0.24462">
        <ele>1506.2</ele>
        <time>2021-08-28T07:39:05Z</time>
      </trkpt>
      <trkpt lat="42.98077" lon="-0.24461">
        <ele>1506.4</ele>
        <time>2021-08-28T07:39:06Z</time>
      </trkpt>
      <trkpt lat="42.98079" lon="-0.2446">
        <ele>1506.4</ele>
        <time>2021-08-28T07:39:07Z</time>
      </trkpt>
      <trkpt lat="42.9808" lon="-0.24459">
        <ele>1506.6</ele>
        <time>2021-08-28T07:39:08Z</time>
      </trkpt>
      <trkpt lat="42.98082" lon="-0.24458">
        <ele>1506.8</ele>
        <time>2021-08-28T07:39:09Z</time>
      </trkpt>
      <trkpt lat="42.98084" lon="-0.24456">
        <ele>1506.8</ele>
        <time>2021-08-28T07:39:10Z</time>
      </trkpt>
      <trkpt lat="42.98086" lon="-0.24455">
        <ele>1507</ele>
        <time>2021-08-28T07:39:11Z</time>
      </trkpt>
      <trkpt lat="42.98088" lon="-0.24454">
        <ele>1507</ele>
        <time>2021-08-28T07:39:12Z</time>
      </trkpt>
      <trkpt lat="42.9809" lon="-0.24452">
        <ele>1507.2</ele>
        <time>2021-08-28T07:39:13Z</time>
      </trkpt>
      <trkpt lat="42.98092" lon="-0.24451">
        <ele>1507.2</ele>
        <time>2021-08-28T07:39:14Z</time>
      </trkpt>
      <trkpt lat="42.98094" lon="-0.2445">
        <ele>1507.4</ele>
        <time>2021-08-28T07:39:15Z</time>
      </trkpt>
      <trkpt lat="42.98096" lon="-0.24448">
        <ele>1507.6</ele>
        <time>2021-08-28T07:39:16Z</time>
      </trkpt>
      <trkpt lat="42.98098" lon="-0.24447">
        <ele>1507.8</ele>
        <time>2021-08-28T07:39:17Z</time>
      </trkpt>
      <trkpt lat="42.981" lon="-0.24446">
        <ele>1508</ele>
        <time>2021-08-28T07:39:18Z</time>
      </trkpt>
      <trkpt lat="42.98101" lon="-0.24445">
        <ele>1508.2</ele>
        <time>2021-08-28T07:39:19Z</time>
      </trkpt>
      <trkpt lat="42.98103" lon="-0.24444">
        <ele>1508.4</ele>
        <time>2021-08-28T07:39:20Z</time>
      </trkpt>
      <trkpt lat="42.98105" lon="-0.24443">
        <ele>1508.4</ele>
        <time>2021-08-28T07:39:21Z</time>
      </trkpt>
      <trkpt lat="42.98107" lon="-0.24442">
        <ele>1508.6</ele>
        <time>2021-08-28T07:39:22Z</time>
      </trkpt>
      <trkpt lat="42.98109" lon="-0.24442">
        <ele>1508.6</ele>
        <time>2021-08-28T07:39:23Z</time>
      </trkpt>
      <trkpt lat="42.9811" lon="-0.24441">
        <ele>1508.6</ele>
        <time>2021-08-28T07:39:24Z</time>
      </trkpt>
      <trkpt lat="42.98112" lon="-0.24441">
        <ele>1508.8</ele>
        <time>2021-08-28T07:39:25Z</time>
      </trkpt>
      <trkpt lat="42.98113" lon="-0.2444">
        <ele>1508.8</ele>
        <time>2021-08-28T07:39:26Z</time>
      </trkpt>
      <trkpt lat="42.98115" lon="-0.2444">
        <ele>1509</ele>
        <time>2021-08-28T07:39:27Z</time>
      </trkpt>
      <trkpt lat="42.98117" lon="-0.24439">
        <ele>1509.2</ele>
        <time>2021-08-28T07:39:28Z</time>
      </trkpt>
      <trkpt lat="42.98119" lon="-0.24439">
        <ele>1509.4</ele>
        <time>2021-08-28T07:39:29Z</time>
      </trkpt>
      <trkpt lat="42.9812" lon="-0.24438">
        <ele>1509.8</ele>
        <time>2021-08-28T07:39:30Z</time>
      </trkpt>
      <trkpt lat="42.98122" lon="-0.24436">
        <ele>1510</ele>
        <time>2021-08-28T07:39:31Z</time>
      </trkpt>
      <trkpt lat="42.98124" lon="-0.24435">
        <ele>1510.2</ele>
        <time>2021-08-28T07:39:32Z</time>
      </trkpt>
      <trkpt lat="42.98125" lon="-0.24434">
        <ele>1510.4</ele>
        <time>2021-08-28T07:39:33Z</time>
      </trkpt>
      <trkpt lat="42.98126" lon="-0.24433">
        <ele>1510.6</ele>
        <time>2021-08-28T07:39:34Z</time>
      </trkpt>
      <trkpt lat="42.98128" lon="-0.24433">
        <ele>1510.8</ele>
        <time>2021-08-28T07:39:35Z</time>
      </trkpt>
      <trkpt lat="42.98129" lon="-0.24432">
        <ele>1511</ele>
        <time>2021-08-28T07:39:36Z</time>
      </trkpt>
      <trkpt lat="42.98131" lon="-0.24431">
        <ele>1511</ele>
        <time>2021-08-28T07:39:37Z</time>
      </trkpt>
      <trkpt lat="42.98133" lon="-0.2443">
        <ele>1511.2</ele>
        <time>2021-08-28T07:39:38Z</time>
      </trkpt>
      <trkpt lat="42.98135" lon="-0.24428">
        <ele>1511.4</ele>
        <time>2021-08-28T07:39:39Z</time>
      </trkpt>
      <trkpt lat="42.98136" lon="-0.24427">
        <ele>1511.6</ele>
        <time>2021-08-28T07:39:40Z</time>
      </trkpt>
      <trkpt lat="42.98138" lon="-0.24425">
        <ele>1511.8</ele>
        <time>2021-08-28T07:39:41Z</time>
      </trkpt>
      <trkpt lat="42.98139" lon="-0.24423">
        <ele>1512</ele>
        <time>2021-08-28T07:39:42Z</time>
      </trkpt>
      <trkpt lat="42.98141" lon="-0.24421">
        <ele>1512.2</ele>
        <time>2021-08-28T07:39:43Z</time>
      </trkpt>
      <trkpt lat="42.98142" lon="-0.24419">
        <ele>1512.4</ele>
        <time>2021-08-28T07:39:44Z</time>
      </trkpt>
      <trkpt lat="42.98143" lon="-0.24417">
        <ele>1512.6</ele>
        <time>2021-08-28T07:39:45Z</time>
      </trkpt>
      <trkpt lat="42.98144" lon="-0.24414">
        <ele>1512.8</ele>
        <time>2021-08-28T07:39:46Z</time>
      </trkpt>
      <trkpt lat="42.98144" lon="-0.24412">
        <ele>1513</ele>
        <time>2021-08-28T07:39:47Z</time>
      </trkpt>
      <trkpt lat="42.98145" lon="-0.24409">
        <ele>1513</ele>
        <time>2021-08-28T07:39:48Z</time>
      </trkpt>
      <trkpt lat="42.98145" lon="-0.24406">
        <ele>1513.2</ele>
        <time>2021-08-28T07:39:49Z</time>
      </trkpt>
      <trkpt lat="42.98145" lon="-0.24403">
        <ele>1513.4</ele>
        <time>2021-08-28T07:39:50Z</time>
      </trkpt>
      <trkpt lat="42.98145" lon="-0.244">
        <ele>1513.6</ele>
        <time>2021-08-28T07:39:51Z</time>
      </trkpt>
      <trkpt lat="42.98145" lon="-0.24397">
        <ele>1513.6</ele>
        <time>2021-08-28T07:39:52Z</time>
      </trkpt>
      <trkpt lat="42.98145" lon="-0.24394">
        <ele>1513.8</ele>
        <time>2021-08-28T07:39:53Z</time>
      </trkpt>
      <trkpt lat="42.98145" lon="-0.24391">
        <ele>1513.8</ele>
        <time>2021-08-28T07:39:54Z</time>
      </trkpt>
      <trkpt lat="42.98145" lon="-0.24388">
        <ele>1514</ele>
        <time>2021-08-28T07:39:55Z</time>
      </trkpt>
      <trkpt lat="42.98145" lon="-0.24384">
        <ele>1514</ele>
        <time>2021-08-28T07:39:56Z</time>
      </trkpt>
      <trkpt lat="42.98145" lon="-0.24381">
        <ele>1514.4</ele>
        <time>2021-08-28T07:39:57Z</time>
      </trkpt>
      <trkpt lat="42.98145" lon="-0.24378">
        <ele>1514.4</ele>
        <time>2021-08-28T07:39:58Z</time>
      </trkpt>
      <trkpt lat="42.98146" lon="-0.24376">
        <ele>1514.6</ele>
        <time>2021-08-28T07:39:59Z</time>
      </trkpt>
      <trkpt lat="42.98147" lon="-0.24373">
        <ele>1514.6</ele>
        <time>2021-08-28T07:40:00Z</time>
      </trkpt>
      <trkpt lat="42.98148" lon="-0.24371">
        <ele>1514.6</ele>
        <time>2021-08-28T07:40:01Z</time>
      </trkpt>
      <trkpt lat="42.98149" lon="-0.24369">
        <ele>1514.6</ele>
        <time>2021-08-28T07:40:02Z</time>
      </trkpt>
      <trkpt lat="42.9815" lon="-0.24367">
        <ele>1514.6</ele>
        <time>2021-08-28T07:40:03Z</time>
      </trkpt>
      <trkpt lat="42.98151" lon="-0.24365">
        <ele>1514.8</ele>
        <time>2021-08-28T07:40:04Z</time>
      </trkpt>
      <trkpt lat="42.98153" lon="-0.24363">
        <ele>1514.8</ele>
        <time>2021-08-28T07:40:05Z</time>
      </trkpt>
      <trkpt lat="42.98154" lon="-0.24361">
        <ele>1515</ele>
        <time>2021-08-28T07:40:06Z</time>
      </trkpt>
      <trkpt lat="42.98156" lon="-0.24359">
        <ele>1515</ele>
        <time>2021-08-28T07:40:07Z</time>
      </trkpt>
      <trkpt lat="42.98158" lon="-0.24357">
        <ele>1515</ele>
        <time>2021-08-28T07:40:08Z</time>
      </trkpt>
      <trkpt lat="42.98159" lon="-0.24355">
        <ele>1515.2</ele>
        <time>2021-08-28T07:40:09Z</time>
      </trkpt>
      <trkpt lat="42.98161" lon="-0.24353">
        <ele>1515.4</ele>
        <time>2021-08-28T07:40:10Z</time>
      </trkpt>
      <trkpt lat="42.98162" lon="-0.24352">
        <ele>1515.4</ele>
        <time>2021-08-28T07:40:11Z</time>
      </trkpt>
      <trkpt lat="42.98164" lon="-0.24349">
        <ele>1515.6</ele>
        <time>2021-08-28T07:40:12Z</time>
      </trkpt>
      <trkpt lat="42.98165" lon="-0.24347">
        <ele>1515.8</ele>
        <time>2021-08-28T07:40:13Z</time>
      </trkpt>
      <trkpt lat="42.98167" lon="-0.24346">
        <ele>1516</ele>
        <time>2021-08-28T07:40:14Z</time>
      </trkpt>
      <trkpt lat="42.98168" lon="-0.24344">
        <ele>1516.2</ele>
        <time>2021-08-28T07:40:15Z</time>
      </trkpt>
      <trkpt lat="42.98169" lon="-0.24342">
        <ele>1516.4</ele>
        <time>2021-08-28T07:40:16Z</time>
      </trkpt>
      <trkpt lat="42.9817" lon="-0.2434">
        <ele>1516.4</ele>
        <time>2021-08-28T07:40:17Z</time>
      </trkpt>
      <trkpt lat="42.98171" lon="-0.24338">
        <ele>1516.4</ele>
        <time>2021-08-28T07:40:18Z</time>
      </trkpt>
      <trkpt lat="42.98173" lon="-0.24336">
        <ele>1516.6</ele>
        <time>2021-08-28T07:40:19Z</time>
      </trkpt>
      <trkpt lat="42.98174" lon="-0.24335">
        <ele>1516.6</ele>
        <time>2021-08-28T07:40:20Z</time>
      </trkpt>
      <trkpt lat="42.98176" lon="-0.24333">
        <ele>1516.8</ele>
        <time>2021-08-28T07:40:21Z</time>
      </trkpt>
      <trkpt lat="42.98177" lon="-0.24332">
        <ele>1517</ele>
        <time>2021-08-28T07:40:22Z</time>
      </trkpt>
      <trkpt lat="42.98179" lon="-0.2433">
        <ele>1517.2</ele>
        <time>2021-08-28T07:40:23Z</time>
      </trkpt>
      <trkpt lat="42.9818" lon="-0.24329">
        <ele>1517.4</ele>
        <time>2021-08-28T07:40:24Z</time>
      </trkpt>
      <trkpt lat="42.98182" lon="-0.24327">
        <ele>1517.6</ele>
        <time>2021-08-28T07:40:25Z</time>
      </trkpt>
      <trkpt lat="42.98184" lon="-0.24326">
        <ele>1517.6</ele>
        <time>2021-08-28T07:40:26Z</time>
      </trkpt>
      <trkpt lat="42.98185" lon="-0.24324">
        <ele>1517.8</ele>
        <time>2021-08-28T07:40:27Z</time>
      </trkpt>
      <trkpt lat="42.98187" lon="-0.24323">
        <ele>1518</ele>
        <time>2021-08-28T07:40:28Z</time>
      </trkpt>
      <trkpt lat="42.98188" lon="-0.24322">
        <ele>1518.2</ele>
        <time>2021-08-28T07:40:29Z</time>
      </trkpt>
      <trkpt lat="42.9819" lon="-0.24321">
        <ele>1518.4</ele>
        <time>2021-08-28T07:40:30Z</time>
      </trkpt>
      <trkpt lat="42.98192" lon="-0.2432">
        <ele>1518.4</ele>
        <time>2021-08-28T07:40:31Z</time>
      </trkpt>
      <trkpt lat="42.98194" lon="-0.24318">
        <ele>1518.6</ele>
        <time>2021-08-28T07:40:32Z</time>
      </trkpt>
      <trkpt lat="42.98195" lon="-0.24317">
        <ele>1518.8</ele>
        <time>2021-08-28T07:40:33Z</time>
      </trkpt>
      <trkpt lat="42.98196" lon="-0.24316">
        <ele>1518.8</ele>
        <time>2021-08-28T07:40:34Z</time>
      </trkpt>
      <trkpt lat="42.98198" lon="-0.24314">
        <ele>1519.2</ele>
        <time>2021-08-28T07:40:35Z</time>
      </trkpt>
      <trkpt lat="42.982" lon="-0.24312">
        <ele>1519.4</ele>
        <time>2021-08-28T07:40:36Z</time>
      </trkpt>
      <trkpt lat="42.98202" lon="-0.2431">
        <ele>1519.6</ele>
        <time>2021-08-28T07:40:37Z</time>
      </trkpt>
      <trkpt lat="42.98203" lon="-0.24309">
        <ele>1519.6</ele>
        <time>2021-08-28T07:40:38Z</time>
      </trkpt>
      <trkpt lat="42.98205" lon="-0.24307">
        <ele>1519.8</ele>
        <time>2021-08-28T07:40:39Z</time>
      </trkpt>
      <trkpt lat="42.98207" lon="-0.24305">
        <ele>1520</ele>
        <time>2021-08-28T07:40:40Z</time>
      </trkpt>
      <trkpt lat="42.98209" lon="-0.24303">
        <ele>1520</ele>
        <time>2021-08-28T07:40:41Z</time>
      </trkpt>
      <trkpt lat="42.9821" lon="-0.24301">
        <ele>1520</ele>
        <time>2021-08-28T07:40:42Z</time>
      </trkpt>
      <trkpt lat="42.98212" lon="-0.24299">
        <ele>1520.2</ele>
        <time>2021-08-28T07:40:43Z</time>
      </trkpt>
      <trkpt lat="42.98213" lon="-0.24297">
        <ele>1520.2</ele>
        <time>2021-08-28T07:40:44Z</time>
      </trkpt>
      <trkpt lat="42.98215" lon="-0.24295">
        <ele>1520.4</ele>
        <time>2021-08-28T07:40:45Z</time>
      </trkpt>
      <trkpt lat="42.98216" lon="-0.24293">
        <ele>1520.4</ele>
        <time>2021-08-28T07:40:46Z</time>
      </trkpt>
      <trkpt lat="42.98218" lon="-0.24291">
        <ele>1520.6</ele>
        <time>2021-08-28T07:40:47Z</time>
      </trkpt>
      <trkpt lat="42.9822" lon="-0.24288">
        <ele>1520.8</ele>
        <time>2021-08-28T07:40:48Z</time>
      </trkpt>
      <trkpt lat="42.98221" lon="-0.24286">
        <ele>1520.8</ele>
        <time>2021-08-28T07:40:49Z</time>
      </trkpt>
      <trkpt lat="42.98222" lon="-0.24284">
        <ele>1520.8</ele>
        <time>2021-08-28T07:40:50Z</time>
      </trkpt>
      <trkpt lat="42.98223" lon="-0.24281">
        <ele>1520.8</ele>
        <time>2021-08-28T07:40:51Z</time>
      </trkpt>
      <trkpt lat="42.98224" lon="-0.24279">
        <ele>1521</ele>
        <time>2021-08-28T07:40:52Z</time>
      </trkpt>
      <trkpt lat="42.98225" lon="-0.24277">
        <ele>1521</ele>
        <time>2021-08-28T07:40:53Z</time>
      </trkpt>
      <trkpt lat="42.98227" lon="-0.24274">
        <ele>1521.4</ele>
        <time>2021-08-28T07:40:54Z</time>
      </trkpt>
      <trkpt lat="42.98228" lon="-0.24271">
        <ele>1521.6</ele>
        <time>2021-08-28T07:40:55Z</time>
      </trkpt>
      <trkpt lat="42.98228" lon="-0.24269">
        <ele>1521.8</ele>
        <time>2021-08-28T07:40:56Z</time>
      </trkpt>
      <trkpt lat="42.9823" lon="-0.24266">
        <ele>1521.8</ele>
        <time>2021-08-28T07:40:57Z</time>
      </trkpt>
      <trkpt lat="42.9823" lon="-0.24264">
        <ele>1522</ele>
        <time>2021-08-28T07:40:58Z</time>
      </trkpt>
      <trkpt lat="42.98231" lon="-0.24261">
        <ele>1522</ele>
        <time>2021-08-28T07:40:59Z</time>
      </trkpt>
      <trkpt lat="42.98231" lon="-0.24259">
        <ele>1522</ele>
        <time>2021-08-28T07:41:00Z</time>
      </trkpt>
      <trkpt lat="42.98232" lon="-0.24256">
        <ele>1522</ele>
        <time>2021-08-28T07:41:01Z</time>
      </trkpt>
      <trkpt lat="42.98232" lon="-0.24254">
        <ele>1522.2</ele>
        <time>2021-08-28T07:41:02Z</time>
      </trkpt>
      <trkpt lat="42.98233" lon="-0.24251">
        <ele>1522.2</ele>
        <time>2021-08-28T07:41:03Z</time>
      </trkpt>
      <trkpt lat="42.98233" lon="-0.24248">
        <ele>1522.4</ele>
        <time>2021-08-28T07:41:04Z</time>
      </trkpt>
      <trkpt lat="42.98233" lon="-0.24246">
        <ele>1522.6</ele>
        <time>2021-08-28T07:41:05Z</time>
      </trkpt>
      <trkpt lat="42.98234" lon="-0.24243">
        <ele>1522.8</ele>
        <time>2021-08-28T07:41:06Z</time>
      </trkpt>
      <trkpt lat="42.98234" lon="-0.24241">
        <ele>1523</ele>
        <time>2021-08-28T07:41:07Z</time>
      </trkpt>
      <trkpt lat="42.98235" lon="-0.24238">
        <ele>1523.2</ele>
        <time>2021-08-28T07:41:08Z</time>
      </trkpt>
      <trkpt lat="42.98236" lon="-0.24235">
        <ele>1523.4</ele>
        <time>2021-08-28T07:41:09Z</time>
      </trkpt>
      <trkpt lat="42.98236" lon="-0.24232">
        <ele>1523.6</ele>
        <time>2021-08-28T07:41:10Z</time>
      </trkpt>
      <trkpt lat="42.98237" lon="-0.2423">
        <ele>1523.8</ele>
        <time>2021-08-28T07:41:11Z</time>
      </trkpt>
      <trkpt lat="42.98237" lon="-0.24227">
        <ele>1523.8</ele>
        <time>2021-08-28T07:41:12Z</time>
      </trkpt>
      <trkpt lat="42.98238" lon="-0.24224">
        <ele>1524</ele>
        <time>2021-08-28T07:41:13Z</time>
      </trkpt>
      <trkpt lat="42.98238" lon="-0.24222">
        <ele>1524</ele>
        <time>2021-08-28T07:41:14Z</time>
      </trkpt>
      <trkpt lat="42.98238" lon="-0.2422">
        <ele>1524.2</ele>
        <time>2021-08-28T07:41:15Z</time>
      </trkpt>
      <trkpt lat="42.98239" lon="-0.24217">
        <ele>1524.2</ele>
        <time>2021-08-28T07:41:16Z</time>
      </trkpt>
      <trkpt lat="42.9824" lon="-0.24214">
        <ele>1524.4</ele>
        <time>2021-08-28T07:41:17Z</time>
      </trkpt>
      <trkpt lat="42.98241" lon="-0.24212">
        <ele>1524.4</ele>
        <time>2021-08-28T07:41:18Z</time>
      </trkpt>
      <trkpt lat="42.98242" lon="-0.24209">
        <ele>1524.6</ele>
        <time>2021-08-28T07:41:19Z</time>
      </trkpt>
      <trkpt lat="42.98243" lon="-0.24206">
        <ele>1524.6</ele>
        <time>2021-08-28T07:41:20Z</time>
      </trkpt>
      <trkpt lat="42.98244" lon="-0.24204">
        <ele>1524.8</ele>
        <time>2021-08-28T07:41:21Z</time>
      </trkpt>
      <trkpt lat="42.98245" lon="-0.24201">
        <ele>1524.8</ele>
        <time>2021-08-28T07:41:22Z</time>
      </trkpt>
      <trkpt lat="42.98246" lon="-0.24199">
        <ele>1525</ele>
        <time>2021-08-28T07:41:23Z</time>
      </trkpt>
      <trkpt lat="42.98247" lon="-0.24197">
        <ele>1525</ele>
        <time>2021-08-28T07:41:24Z</time>
      </trkpt>
      <trkpt lat="42.98248" lon="-0.24194">
        <ele>1525.2</ele>
        <time>2021-08-28T07:41:25Z</time>
      </trkpt>
      <trkpt lat="42.98249" lon="-0.24192">
        <ele>1525.4</ele>
        <time>2021-08-28T07:41:26Z</time>
      </trkpt>
      <trkpt lat="42.9825" lon="-0.2419">
        <ele>1525.4</ele>
        <time>2021-08-28T07:41:27Z</time>
      </trkpt>
      <trkpt lat="42.98251" lon="-0.24187">
        <ele>1525.6</ele>
        <time>2021-08-28T07:41:28Z</time>
      </trkpt>
      <trkpt lat="42.98252" lon="-0.24185">
        <ele>1525.6</ele>
        <time>2021-08-28T07:41:29Z</time>
      </trkpt>
      <trkpt lat="42.98253" lon="-0.24183">
        <ele>1526</ele>
        <time>2021-08-28T07:41:30Z</time>
      </trkpt>
      <trkpt lat="42.98254" lon="-0.24181">
        <ele>1526.2</ele>
        <time>2021-08-28T07:41:31Z</time>
      </trkpt>
      <trkpt lat="42.98254" lon="-0.24179">
        <ele>1526.4</ele>
        <time>2021-08-28T07:41:32Z</time>
      </trkpt>
      <trkpt lat="42.98255" lon="-0.24177">
        <ele>1526.4</ele>
        <time>2021-08-28T07:41:33Z</time>
      </trkpt>
      <trkpt lat="42.98256" lon="-0.24175">
        <ele>1526.8</ele>
        <time>2021-08-28T07:41:34Z</time>
      </trkpt>
      <trkpt lat="42.98257" lon="-0.24173">
        <ele>1527</ele>
        <time>2021-08-28T07:41:35Z</time>
      </trkpt>
      <trkpt lat="42.98258" lon="-0.24171">
        <ele>1527.2</ele>
        <time>2021-08-28T07:41:36Z</time>
      </trkpt>
      <trkpt lat="42.98259" lon="-0.24168">
        <ele>1527.4</ele>
        <time>2021-08-28T07:41:37Z</time>
      </trkpt>
      <trkpt lat="42.98259" lon="-0.24167">
        <ele>1527.4</ele>
        <time>2021-08-28T07:41:38Z</time>
      </trkpt>
      <trkpt lat="42.9826" lon="-0.24164">
        <ele>1527.6</ele>
        <time>2021-08-28T07:41:39Z</time>
      </trkpt>
      <trkpt lat="42.98261" lon="-0.24162">
        <ele>1527.8</ele>
        <time>2021-08-28T07:41:40Z</time>
      </trkpt>
      <trkpt lat="42.98262" lon="-0.2416">
        <ele>1528</ele>
        <time>2021-08-28T07:41:41Z</time>
      </trkpt>
      <trkpt lat="42.98264" lon="-0.24158">
        <ele>1528.4</ele>
        <time>2021-08-28T07:41:42Z</time>
      </trkpt>
      <trkpt lat="42.98265" lon="-0.24157">
        <ele>1528.4</ele>
        <time>2021-08-28T07:41:43Z</time>
      </trkpt>
      <trkpt lat="42.98266" lon="-0.24155">
        <ele>1528.6</ele>
        <time>2021-08-28T07:41:44Z</time>
      </trkpt>
      <trkpt lat="42.98266" lon="-0.24153">
        <ele>1528.6</ele>
        <time>2021-08-28T07:41:45Z</time>
      </trkpt>
      <trkpt lat="42.98267" lon="-0.2415">
        <ele>1528.8</ele>
        <time>2021-08-28T07:41:46Z</time>
      </trkpt>
      <trkpt lat="42.98268" lon="-0.24148">
        <ele>1528.8</ele>
        <time>2021-08-28T07:41:47Z</time>
      </trkpt>
      <trkpt lat="42.98268" lon="-0.24145">
        <ele>1529</ele>
        <time>2021-08-28T07:41:48Z</time>
      </trkpt>
      <trkpt lat="42.9827" lon="-0.24143">
        <ele>1529.2</ele>
        <time>2021-08-28T07:41:49Z</time>
      </trkpt>
      <trkpt lat="42.9827" lon="-0.24141">
        <ele>1529.4</ele>
        <time>2021-08-28T07:41:50Z</time>
      </trkpt>
      <trkpt lat="42.98272" lon="-0.24139">
        <ele>1529.6</ele>
        <time>2021-08-28T07:41:51Z</time>
      </trkpt>
      <trkpt lat="42.98273" lon="-0.24137">
        <ele>1529.8</ele>
        <time>2021-08-28T07:41:52Z</time>
      </trkpt>
      <trkpt lat="42.98274" lon="-0.24136">
        <ele>1530</ele>
        <time>2021-08-28T07:41:53Z</time>
      </trkpt>
      <trkpt lat="42.98275" lon="-0.24134">
        <ele>1530.2</ele>
        <time>2021-08-28T07:41:54Z</time>
      </trkpt>
      <trkpt lat="42.98276" lon="-0.24132">
        <ele>1530.4</ele>
        <time>2021-08-28T07:41:55Z</time>
      </trkpt>
      <trkpt lat="42.98277" lon="-0.2413">
        <ele>1530.6</ele>
        <time>2021-08-28T07:41:56Z</time>
      </trkpt>
      <trkpt lat="42.98277" lon="-0.24129">
        <ele>1530.8</ele>
        <time>2021-08-28T07:41:57Z</time>
      </trkpt>
      <trkpt lat="42.98278" lon="-0.24126">
        <ele>1530.8</ele>
        <time>2021-08-28T07:41:58Z</time>
      </trkpt>
      <trkpt lat="42.98278" lon="-0.24124">
        <ele>1531</ele>
        <time>2021-08-28T07:41:59Z</time>
      </trkpt>
      <trkpt lat="42.98278" lon="-0.24122">
        <ele>1531.2</ele>
        <time>2021-08-28T07:42:00Z</time>
      </trkpt>
      <trkpt lat="42.98278" lon="-0.2412">
        <ele>1531.4</ele>
        <time>2021-08-28T07:42:01Z</time>
      </trkpt>
      <trkpt lat="42.98279" lon="-0.24118">
        <ele>1531.4</ele>
        <time>2021-08-28T07:42:02Z</time>
      </trkpt>
      <trkpt lat="42.98278" lon="-0.24117">
        <ele>1531.6</ele>
        <time>2021-08-28T07:42:03Z</time>
      </trkpt>
      <trkpt lat="42.98278" lon="-0.24115">
        <ele>1531.8</ele>
        <time>2021-08-28T07:42:04Z</time>
      </trkpt>
      <trkpt lat="42.98278" lon="-0.24114">
        <ele>1532</ele>
        <time>2021-08-28T07:42:05Z</time>
      </trkpt>
      <trkpt lat="42.98277" lon="-0.24112">
        <ele>1532.2</ele>
        <time>2021-08-28T07:42:06Z</time>
      </trkpt>
      <trkpt lat="42.98277" lon="-0.2411">
        <ele>1532.6</ele>
        <time>2021-08-28T07:42:07Z</time>
      </trkpt>
      <trkpt lat="42.98277" lon="-0.24109">
        <ele>1532.6</ele>
        <time>2021-08-28T07:42:08Z</time>
      </trkpt>
      <trkpt lat="42.98277" lon="-0.24107">
        <ele>1532.8</ele>
        <time>2021-08-28T07:42:09Z</time>
      </trkpt>
      <trkpt lat="42.98277" lon="-0.24105">
        <ele>1533</ele>
        <time>2021-08-28T07:42:10Z</time>
      </trkpt>
      <trkpt lat="42.98277" lon="-0.24104">
        <ele>1533.2</ele>
        <time>2021-08-28T07:42:11Z</time>
      </trkpt>
      <trkpt lat="42.98276" lon="-0.24102">
        <ele>1533.2</ele>
        <time>2021-08-28T07:42:12Z</time>
      </trkpt>
      <trkpt lat="42.98275" lon="-0.24101">
        <ele>1533.4</ele>
        <time>2021-08-28T07:42:13Z</time>
      </trkpt>
      <trkpt lat="42.98275" lon="-0.241">
        <ele>1533.4</ele>
        <time>2021-08-28T07:42:14Z</time>
      </trkpt>
      <trkpt lat="42.98274" lon="-0.241">
        <ele>1533.4</ele>
        <time>2021-08-28T07:42:15Z</time>
      </trkpt>
      <trkpt lat="42.98274" lon="-0.241">
        <ele>1533.6</ele>
        <time>2021-08-28T07:42:16Z</time>
      </trkpt>
      <trkpt lat="42.98274" lon="-0.241">
        <ele>1533.4</ele>
        <time>2021-08-28T07:43:25Z</time>
      </trkpt>
      <trkpt lat="42.98274" lon="-0.241">
        <ele>1533.2</ele>
        <time>2021-08-28T07:43:34Z</time>
      </trkpt>
      <trkpt lat="42.98274" lon="-0.241">
        <ele>1533</ele>
        <time>2021-08-28T07:43:46Z</time>
      </trkpt>
      <trkpt lat="42.98274" lon="-0.24096">
        <ele>1533</ele>
        <time>2021-08-28T07:43:48Z</time>
      </trkpt>
      <trkpt lat="42.98274" lon="-0.24095">
        <ele>1533</ele>
        <time>2021-08-28T07:43:49Z</time>
      </trkpt>
      <trkpt lat="42.98276" lon="-0.24094">
        <ele>1533</ele>
        <time>2021-08-28T07:43:50Z</time>
      </trkpt>
      <trkpt lat="42.98277" lon="-0.24093">
        <ele>1533</ele>
        <time>2021-08-28T07:43:51Z</time>
      </trkpt>
      <trkpt lat="42.9828" lon="-0.24095">
        <ele>1533</ele>
        <time>2021-08-28T07:43:53Z</time>
      </trkpt>
      <trkpt lat="42.9828" lon="-0.24097">
        <ele>1533</ele>
        <time>2021-08-28T07:43:54Z</time>
      </trkpt>
      <trkpt lat="42.9828" lon="-0.24098">
        <ele>1533</ele>
        <time>2021-08-28T07:43:55Z</time>
      </trkpt>
      <trkpt lat="42.9828" lon="-0.24101">
        <ele>1533</ele>
        <time>2021-08-28T07:43:56Z</time>
      </trkpt>
      <trkpt lat="42.98279" lon="-0.24106">
        <ele>1533.2</ele>
        <time>2021-08-28T07:43:58Z</time>
      </trkpt>
      <trkpt lat="42.98278" lon="-0.24108">
        <ele>1533.2</ele>
        <time>2021-08-28T07:43:59Z</time>
      </trkpt>
      <trkpt lat="42.98273" lon="-0.24119">
        <ele>1533.4</ele>
        <time>2021-08-28T07:44:04Z</time>
      </trkpt>
      <trkpt lat="42.98268" lon="-0.24126">
        <ele>1533.4</ele>
        <time>2021-08-28T07:44:07Z</time>
      </trkpt>
      <trkpt lat="42.98259" lon="-0.24145">
        <ele>1533.2</ele>
        <time>2021-08-28T07:44:13Z</time>
      </trkpt>
      <trkpt lat="42.98257" lon="-0.24148">
        <ele>1533</ele>
        <time>2021-08-28T07:44:14Z</time>
      </trkpt>
      <trkpt lat="42.98251" lon="-0.24161">
        <ele>1532.8</ele>
        <time>2021-08-28T07:44:19Z</time>
      </trkpt>
      <trkpt lat="42.98239" lon="-0.24186">
        <ele>1532.6</ele>
        <time>2021-08-28T07:44:26Z</time>
      </trkpt>
      <trkpt lat="42.98227" lon="-0.24218">
        <ele>1532.2</ele>
        <time>2021-08-28T07:44:33Z</time>
      </trkpt>
      <trkpt lat="42.98225" lon="-0.24224">
        <ele>1532.2</ele>
        <time>2021-08-28T07:44:34Z</time>
      </trkpt>
      <trkpt lat="42.98222" lon="-0.24238">
        <ele>1532</ele>
        <time>2021-08-28T07:44:36Z</time>
      </trkpt>
      <trkpt lat="42.98218" lon="-0.24253">
        <ele>1531.8</ele>
        <time>2021-08-28T07:44:38Z</time>
      </trkpt>
      <trkpt lat="42.98207" lon="-0.24275">
        <ele>1531</ele>
        <time>2021-08-28T07:44:41Z</time>
      </trkpt>
      <trkpt lat="42.98202" lon="-0.24282">
        <ele>1530.8</ele>
        <time>2021-08-28T07:44:42Z</time>
      </trkpt>
      <trkpt lat="42.98197" lon="-0.24288">
        <ele>1530.6</ele>
        <time>2021-08-28T07:44:43Z</time>
      </trkpt>
      <trkpt lat="42.98186" lon="-0.24299">
        <ele>1529.8</ele>
        <time>2021-08-28T07:44:45Z</time>
      </trkpt>
      <trkpt lat="42.98179" lon="-0.24306">
        <ele>1529.8</ele>
        <time>2021-08-28T07:44:46Z</time>
      </trkpt>
      <trkpt lat="42.98167" lon="-0.24318">
        <ele>1529.2</ele>
        <time>2021-08-28T07:44:48Z</time>
      </trkpt>
      <trkpt lat="42.98157" lon="-0.24328">
        <ele>1528.8</ele>
        <time>2021-08-28T07:44:50Z</time>
      </trkpt>
      <trkpt lat="42.98153" lon="-0.24333">
        <ele>1528.6</ele>
        <time>2021-08-28T07:44:51Z</time>
      </trkpt>
      <trkpt lat="42.98148" lon="-0.24339">
        <ele>1528.4</ele>
        <time>2021-08-28T07:44:52Z</time>
      </trkpt>
      <trkpt lat="42.98144" lon="-0.24344">
        <ele>1528.2</ele>
        <time>2021-08-28T07:44:53Z</time>
      </trkpt>
      <trkpt lat="42.98142" lon="-0.24347">
        <ele>1528</ele>
        <time>2021-08-28T07:44:54Z</time>
      </trkpt>
      <trkpt lat="42.9814" lon="-0.2435">
        <ele>1528</ele>
        <time>2021-08-28T07:44:55Z</time>
      </trkpt>
      <trkpt lat="42.98139" lon="-0.24353">
        <ele>1527.8</ele>
        <time>2021-08-28T07:44:56Z</time>
      </trkpt>
      <trkpt lat="42.98138" lon="-0.24353">
        <ele>1527.8</ele>
        <time>2021-08-28T07:44:57Z</time>
      </trkpt>
      <trkpt lat="42.98138" lon="-0.24352">
        <ele>1527.4</ele>
        <time>2021-08-28T07:44:58Z</time>
      </trkpt>
      <trkpt lat="42.98138" lon="-0.24351">
        <ele>1527.2</ele>
        <time>2021-08-28T07:44:59Z</time>
      </trkpt>
      <trkpt lat="42.98139" lon="-0.24349">
        <ele>1527</ele>
        <time>2021-08-28T07:45:00Z</time>
      </trkpt>
      <trkpt lat="42.9814" lon="-0.24347">
        <ele>1527</ele>
        <time>2021-08-28T07:45:01Z</time>
      </trkpt>
      <trkpt lat="42.98143" lon="-0.24344">
        <ele>1526.8</ele>
        <time>2021-08-28T07:45:03Z</time>
      </trkpt>
      <trkpt lat="42.98145" lon="-0.24341">
        <ele>1526.8</ele>
        <time>2021-08-28T07:45:04Z</time>
      </trkpt>
      <trkpt lat="42.98159" lon="-0.24326">
        <ele>1526.8</ele>
        <time>2021-08-28T07:45:10Z</time>
      </trkpt>
      <trkpt lat="42.98179" lon="-0.24307">
        <ele>1527</ele>
        <time>2021-08-28T07:45:18Z</time>
      </trkpt>
      <trkpt lat="42.98189" lon="-0.24296">
        <ele>1527.2</ele>
        <time>2021-08-28T07:45:22Z</time>
      </trkpt>
      <trkpt lat="42.98192" lon="-0.24293">
        <ele>1527.4</ele>
        <time>2021-08-28T07:45:23Z</time>
      </trkpt>
      <trkpt lat="42.98208" lon="-0.24275">
        <ele>1528.2</ele>
        <time>2021-08-28T07:45:29Z</time>
      </trkpt>
      <trkpt lat="42.98219" lon="-0.2425">
        <ele>1528.6</ele>
        <time>2021-08-28T07:45:36Z</time>
      </trkpt>
      <trkpt lat="42.9822" lon="-0.24247">
        <ele>1528.8</ele>
        <time>2021-08-28T07:45:37Z</time>
      </trkpt>
      <trkpt lat="42.98221" lon="-0.24243">
        <ele>1528.8</ele>
        <time>2021-08-28T07:45:38Z</time>
      </trkpt>
      <trkpt lat="42.98222" lon="-0.2424">
        <ele>1529</ele>
        <time>2021-08-28T07:45:39Z</time>
      </trkpt>
      <trkpt lat="42.98223" lon="-0.24237">
        <ele>1529.2</ele>
        <time>2021-08-28T07:45:40Z</time>
      </trkpt>
      <trkpt lat="42.98224" lon="-0.24234">
        <ele>1529.4</ele>
        <time>2021-08-28T07:45:41Z</time>
      </trkpt>
      <trkpt lat="42.98225" lon="-0.24231">
        <ele>1529.4</ele>
        <time>2021-08-28T07:45:42Z</time>
      </trkpt>
      <trkpt lat="42.98225" lon="-0.24228">
        <ele>1529.6</ele>
        <time>2021-08-28T07:45:43Z</time>
      </trkpt>
      <trkpt lat="42.98226" lon="-0.24224">
        <ele>1529.8</ele>
        <time>2021-08-28T07:45:44Z</time>
      </trkpt>
      <trkpt lat="42.98228" lon="-0.24221">
        <ele>1530</ele>
        <time>2021-08-28T07:45:45Z</time>
      </trkpt>
      <trkpt lat="42.98228" lon="-0.24217">
        <ele>1530.2</ele>
        <time>2021-08-28T07:45:46Z</time>
      </trkpt>
      <trkpt lat="42.98232" lon="-0.24203">
        <ele>1530.6</ele>
        <time>2021-08-28T07:45:50Z</time>
      </trkpt>
      <trkpt lat="42.98233" lon="-0.242">
        <ele>1531</ele>
        <time>2021-08-28T07:45:51Z</time>
      </trkpt>
      <trkpt lat="42.98234" lon="-0.24196">
        <ele>1531</ele>
        <time>2021-08-28T07:45:52Z</time>
      </trkpt>
      <trkpt lat="42.98236" lon="-0.24193">
        <ele>1531</ele>
        <time>2021-08-28T07:45:53Z</time>
      </trkpt>
      <trkpt lat="42.98237" lon="-0.2419">
        <ele>1531.2</ele>
        <time>2021-08-28T07:45:54Z</time>
      </trkpt>
      <trkpt lat="42.98238" lon="-0.24187">
        <ele>1531.4</ele>
        <time>2021-08-28T07:45:55Z</time>
      </trkpt>
      <trkpt lat="42.9824" lon="-0.24183">
        <ele>1531.4</ele>
        <time>2021-08-28T07:45:56Z</time>
      </trkpt>
      <trkpt lat="42.98242" lon="-0.2418">
        <ele>1531.6</ele>
        <time>2021-08-28T07:45:57Z</time>
      </trkpt>
      <trkpt lat="42.98243" lon="-0.24176">
        <ele>1531.6</ele>
        <time>2021-08-28T07:45:58Z</time>
      </trkpt>
      <trkpt lat="42.98245" lon="-0.24172">
        <ele>1531.8</ele>
        <time>2021-08-28T07:45:59Z</time>
      </trkpt>
      <trkpt lat="42.98247" lon="-0.24168">
        <ele>1531.8</ele>
        <time>2021-08-28T07:46:00Z</time>
      </trkpt>
      <trkpt lat="42.98249" lon="-0.24164">
        <ele>1532</ele>
        <time>2021-08-28T07:46:01Z</time>
      </trkpt>
      <trkpt lat="42.98251" lon="-0.24161">
        <ele>1532.2</ele>
        <time>2021-08-28T07:46:02Z</time>
      </trkpt>
      <trkpt lat="42.98253" lon="-0.24158">
        <ele>1532.2</ele>
        <time>2021-08-28T07:46:03Z</time>
      </trkpt>
      <trkpt lat="42.98255" lon="-0.24154">
        <ele>1532.2</ele>
        <time>2021-08-28T07:46:04Z</time>
      </trkpt>
      <trkpt lat="42.98256" lon="-0.2415">
        <ele>1532.4</ele>
        <time>2021-08-28T07:46:05Z</time>
      </trkpt>
      <trkpt lat="42.98258" lon="-0.24146">
        <ele>1532.6</ele>
        <time>2021-08-28T07:46:06Z</time>
      </trkpt>
      <trkpt lat="42.98259" lon="-0.24142">
        <ele>1532.6</ele>
        <time>2021-08-28T07:46:07Z</time>
      </trkpt>
      <trkpt lat="42.98261" lon="-0.24138">
        <ele>1532.8</ele>
        <time>2021-08-28T07:46:08Z</time>
      </trkpt>
      <trkpt lat="42.98263" lon="-0.24134">
        <ele>1532.8</ele>
        <time>2021-08-28T07:46:09Z</time>
      </trkpt>
      <trkpt lat="42.98265" lon="-0.2413">
        <ele>1533</ele>
        <time>2021-08-28T07:46:10Z</time>
      </trkpt>
      <trkpt lat="42.98267" lon="-0.24126">
        <ele>1533</ele>
        <time>2021-08-28T07:46:11Z</time>
      </trkpt>
      <trkpt lat="42.98269" lon="-0.24123">
        <ele>1533</ele>
        <time>2021-08-28T07:46:12Z</time>
      </trkpt>
      <trkpt lat="42.98271" lon="-0.2412">
        <ele>1533.2</ele>
        <time>2021-08-28T07:46:13Z</time>
      </trkpt>
      <trkpt lat="42.98273" lon="-0.24117">
        <ele>1533.2</ele>
        <time>2021-08-28T07:46:14Z</time>
      </trkpt>
      <trkpt lat="42.98276" lon="-0.24114">
        <ele>1533.2</ele>
        <time>2021-08-28T07:46:15Z</time>
      </trkpt>
      <trkpt lat="42.98277" lon="-0.24111">
        <ele>1533.2</ele>
        <time>2021-08-28T07:46:16Z</time>
      </trkpt>
      <trkpt lat="42.98278" lon="-0.24108">
        <ele>1533.2</ele>
        <time>2021-08-28T07:46:17Z</time>
      </trkpt>
      <trkpt lat="42.98278" lon="-0.24104">
        <ele>1533.4</ele>
        <time>2021-08-28T07:46:18Z</time>
      </trkpt>
      <trkpt lat="42.98277" lon="-0.24102">
        <ele>1533.6</ele>
        <time>2021-08-28T07:46:19Z</time>
      </trkpt>
      <trkpt lat="42.98275" lon="-0.241">
        <ele>1533.6</ele>
        <time>2021-08-28T07:46:20Z</time>
      </trkpt>
      <trkpt lat="42.98272" lon="-0.24099">
        <ele>1533.8</ele>
        <time>2021-08-28T07:46:21Z</time>
      </trkpt>
      <trkpt lat="42.9827" lon="-0.24099">
        <ele>1533.8</ele>
        <time>2021-08-28T07:46:22Z</time>
      </trkpt>
      <trkpt lat="42.98267" lon="-0.24099">
        <ele>1534</ele>
        <time>2021-08-28T07:46:23Z</time>
      </trkpt>
      <trkpt lat="42.98265" lon="-0.241">
        <ele>1534.2</ele>
        <time>2021-08-28T07:46:24Z</time>
      </trkpt>
      <trkpt lat="42.98262" lon="-0.24101">
        <ele>1534.2</ele>
        <time>2021-08-28T07:46:25Z</time>
      </trkpt>
      <trkpt lat="42.9826" lon="-0.24102">
        <ele>1534.2</ele>
        <time>2021-08-28T07:46:26Z</time>
      </trkpt>
      <trkpt lat="42.98258" lon="-0.24104">
        <ele>1534.4</ele>
        <time>2021-08-28T07:46:27Z</time>
      </trkpt>
      <trkpt lat="42.98256" lon="-0.24105">
        <ele>1534.4</ele>
        <time>2021-08-28T07:46:28Z</time>
      </trkpt>
      <trkpt lat="42.98253" lon="-0.24106">
        <ele>1534.4</ele>
        <time>2021-08-28T07:46:29Z</time>
      </trkpt>
      <trkpt lat="42.98251" lon="-0.24106">
        <ele>1534.4</ele>
        <time>2021-08-28T07:46:30Z</time>
      </trkpt>
      <trkpt lat="42.98248" lon="-0.24106">
        <ele>1534.6</ele>
        <time>2021-08-28T07:46:31Z</time>
      </trkpt>
      <trkpt lat="42.98246" lon="-0.24106">
        <ele>1534.8</ele>
        <time>2021-08-28T07:46:32Z</time>
      </trkpt>
      <trkpt lat="42.98236" lon="-0.24104">
        <ele>1535.2</ele>
        <time>2021-08-28T07:46:36Z</time>
      </trkpt>
      <trkpt lat="42.98234" lon="-0.24103">
        <ele>1535.4</ele>
        <time>2021-08-28T07:46:37Z</time>
      </trkpt>
      <trkpt lat="42.98227" lon="-0.24097">
        <ele>1535.8</ele>
        <time>2021-08-28T07:46:41Z</time>
      </trkpt>
      <trkpt lat="42.98219" lon="-0.24087">
        <ele>1536</ele>
        <time>2021-08-28T07:46:45Z</time>
      </trkpt>
      <trkpt lat="42.98218" lon="-0.24084">
        <ele>1536.2</ele>
        <time>2021-08-28T07:46:46Z</time>
      </trkpt>
      <trkpt lat="42.98207" lon="-0.24069">
        <ele>1536.2</ele>
        <time>2021-08-28T07:46:52Z</time>
      </trkpt>
      <trkpt lat="42.98203" lon="-0.24069">
        <ele>1536.2</ele>
        <time>2021-08-28T07:46:53Z</time>
      </trkpt>
      <trkpt lat="42.98195" lon="-0.24076">
        <ele>1536</ele>
        <time>2021-08-28T07:46:56Z</time>
      </trkpt>
      <trkpt lat="42.98192" lon="-0.24079">
        <ele>1535.8</ele>
        <time>2021-08-28T07:46:57Z</time>
      </trkpt>
      <trkpt lat="42.98189" lon="-0.24083">
        <ele>1535.6</ele>
        <time>2021-08-28T07:46:58Z</time>
      </trkpt>
      <trkpt lat="42.98179" lon="-0.24089">
        <ele>1535.4</ele>
        <time>2021-08-28T07:47:01Z</time>
      </trkpt>
      <trkpt lat="42.98174" lon="-0.24088">
        <ele>1535</ele>
        <time>2021-08-28T07:47:02Z</time>
      </trkpt>
      <trkpt lat="42.9817" lon="-0.24086">
        <ele>1534.8</ele>
        <time>2021-08-28T07:47:03Z</time>
      </trkpt>
      <trkpt lat="42.98166" lon="-0.24083">
        <ele>1534.8</ele>
        <time>2021-08-28T07:47:04Z</time>
      </trkpt>
      <trkpt lat="42.98162" lon="-0.2408">
        <ele>1534.4</ele>
        <time>2021-08-28T07:47:05Z</time>
      </trkpt>
      <trkpt lat="42.98158" lon="-0.24078">
        <ele>1534.4</ele>
        <time>2021-08-28T07:47:06Z</time>
      </trkpt>
      <trkpt lat="42.98154" lon="-0.24076">
        <ele>1534</ele>
        <time>2021-08-28T07:47:07Z</time>
      </trkpt>
      <trkpt lat="42.9815" lon="-0.24074">
        <ele>1533.8</ele>
        <time>2021-08-28T07:47:08Z</time>
      </trkpt>
      <trkpt lat="42.98144" lon="-0.24071">
        <ele>1533.2</ele>
        <time>2021-08-28T07:47:10Z</time>
      </trkpt>
      <trkpt lat="42.98141" lon="-0.24069">
        <ele>1533</ele>
        <time>2021-08-28T07:47:11Z</time>
      </trkpt>
      <trkpt lat="42.98137" lon="-0.24068">
        <ele>1532.6</ele>
        <time>2021-08-28T07:47:12Z</time>
      </trkpt>
      <trkpt lat="42.98135" lon="-0.24069">
        <ele>1532</ele>
        <time>2021-08-28T07:47:13Z</time>
      </trkpt>
      <trkpt lat="42.98132" lon="-0.2407">
        <ele>1531.8</ele>
        <time>2021-08-28T07:47:14Z</time>
      </trkpt>
      <trkpt lat="42.98131" lon="-0.24071">
        <ele>1531.2</ele>
        <time>2021-08-28T07:47:15Z</time>
      </trkpt>
      <trkpt lat="42.98129" lon="-0.24073">
        <ele>1531</ele>
        <time>2021-08-28T07:47:16Z</time>
      </trkpt>
      <trkpt lat="42.98128" lon="-0.24075">
        <ele>1530.4</ele>
        <time>2021-08-28T07:47:17Z</time>
      </trkpt>
      <trkpt lat="42.98127" lon="-0.24076">
        <ele>1530.2</ele>
        <time>2021-08-28T07:47:18Z</time>
      </trkpt>
      <trkpt lat="42.98126" lon="-0.24078">
        <ele>1530</ele>
        <time>2021-08-28T07:47:19Z</time>
      </trkpt>
      <trkpt lat="42.98125" lon="-0.2408">
        <ele>1530</ele>
        <time>2021-08-28T07:47:20Z</time>
      </trkpt>
      <trkpt lat="42.98125" lon="-0.24081">
        <ele>1529.8</ele>
        <time>2021-08-28T07:47:21Z</time>
      </trkpt>
      <trkpt lat="42.98124" lon="-0.24081">
        <ele>1529.8</ele>
        <time>2021-08-28T07:47:22Z</time>
      </trkpt>
      <trkpt lat="42.98124" lon="-0.24081">
        <ele>1529.8</ele>
        <time>2021-08-28T07:47:24Z</time>
      </trkpt>
      <trkpt lat="42.98125" lon="-0.2408">
        <ele>1530</ele>
        <time>2021-08-28T07:47:38Z</time>
      </trkpt>
      <trkpt lat="42.9813" lon="-0.24071">
        <ele>1529.8</ele>
        <time>2021-08-28T07:47:43Z</time>
      </trkpt>
      <trkpt lat="42.98133" lon="-0.2407">
        <ele>1529.8</ele>
        <time>2021-08-28T07:47:44Z</time>
      </trkpt>
      <trkpt lat="42.98135" lon="-0.24069">
        <ele>1529.8</ele>
        <time>2021-08-28T07:47:45Z</time>
      </trkpt>
      <trkpt lat="42.98137" lon="-0.24069">
        <ele>1529.6</ele>
        <time>2021-08-28T07:47:46Z</time>
      </trkpt>
      <trkpt lat="42.98138" lon="-0.24069">
        <ele>1529.6</ele>
        <time>2021-08-28T07:47:47Z</time>
      </trkpt>
      <trkpt lat="42.9814" lon="-0.2407">
        <ele>1529.6</ele>
        <time>2021-08-28T07:47:48Z</time>
      </trkpt>
      <trkpt lat="42.98142" lon="-0.24071">
        <ele>1529.6</ele>
        <time>2021-08-28T07:47:49Z</time>
      </trkpt>
      <trkpt lat="42.98144" lon="-0.24072">
        <ele>1529.6</ele>
        <time>2021-08-28T07:47:50Z</time>
      </trkpt>
      <trkpt lat="42.98156" lon="-0.24078">
        <ele>1530.2</ele>
        <time>2021-08-28T07:47:57Z</time>
      </trkpt>
      <trkpt lat="42.98158" lon="-0.24079">
        <ele>1530.4</ele>
        <time>2021-08-28T07:47:58Z</time>
      </trkpt>
      <trkpt lat="42.9816" lon="-0.24079">
        <ele>1530.8</ele>
        <time>2021-08-28T07:47:59Z</time>
      </trkpt>
      <trkpt lat="42.98161" lon="-0.24079">
        <ele>1531.2</ele>
        <time>2021-08-28T07:48:00Z</time>
      </trkpt>
      <trkpt lat="42.98164" lon="-0.24082">
        <ele>1531.6</ele>
        <time>2021-08-28T07:48:02Z</time>
      </trkpt>
      <trkpt lat="42.98166" lon="-0.24083">
        <ele>1531.8</ele>
        <time>2021-08-28T07:48:03Z</time>
      </trkpt>
      <trkpt lat="42.98168" lon="-0.24084">
        <ele>1532</ele>
        <time>2021-08-28T07:48:04Z</time>
      </trkpt>
      <trkpt lat="42.98171" lon="-0.24087">
        <ele>1532.2</ele>
        <time>2021-08-28T07:48:06Z</time>
      </trkpt>
      <trkpt lat="42.98175" lon="-0.2409">
        <ele>1532.6</ele>
        <time>2021-08-28T07:48:08Z</time>
      </trkpt>
      <trkpt lat="42.98178" lon="-0.24093">
        <ele>1533.2</ele>
        <time>2021-08-28T07:48:10Z</time>
      </trkpt>
      <trkpt lat="42.9818" lon="-0.24093">
        <ele>1533.2</ele>
        <time>2021-08-28T07:48:11Z</time>
      </trkpt>
      <trkpt lat="42.98181" lon="-0.24092">
        <ele>1533.4</ele>
        <time>2021-08-28T07:48:12Z</time>
      </trkpt>
      <trkpt lat="42.98182" lon="-0.24091">
        <ele>1533.4</ele>
        <time>2021-08-28T07:48:13Z</time>
      </trkpt>
      <trkpt lat="42.98184" lon="-0.2409">
        <ele>1533.4</ele>
        <time>2021-08-28T07:48:14Z</time>
      </trkpt>
      <trkpt lat="42.98186" lon="-0.24089">
        <ele>1533.4</ele>
        <time>2021-08-28T07:48:15Z</time>
      </trkpt>
      <trkpt lat="42.98187" lon="-0.24087">
        <ele>1533.6</ele>
        <time>2021-08-28T07:48:16Z</time>
      </trkpt>
      <trkpt lat="42.98189" lon="-0.24086">
        <ele>1533.6</ele>
        <time>2021-08-28T07:48:17Z</time>
      </trkpt>
      <trkpt lat="42.9819" lon="-0.24085">
        <ele>1533.8</ele>
        <time>2021-08-28T07:48:18Z</time>
      </trkpt>
      <trkpt lat="42.98192" lon="-0.24083">
        <ele>1533.8</ele>
        <time>2021-08-28T07:48:19Z</time>
      </trkpt>
      <trkpt lat="42.98193" lon="-0.24081">
        <ele>1534</ele>
        <time>2021-08-28T07:48:20Z</time>
      </trkpt>
      <trkpt lat="42.98195" lon="-0.24079">
        <ele>1534.2</ele>
        <time>2021-08-28T07:48:21Z</time>
      </trkpt>
      <trkpt lat="42.98197" lon="-0.24078">
        <ele>1534.2</ele>
        <time>2021-08-28T07:48:22Z</time>
      </trkpt>
      <trkpt lat="42.98198" lon="-0.24076">
        <ele>1534.2</ele>
        <time>2021-08-28T07:48:23Z</time>
      </trkpt>
      <trkpt lat="42.982" lon="-0.24074">
        <ele>1534.4</ele>
        <time>2021-08-28T07:48:24Z</time>
      </trkpt>
      <trkpt lat="42.98201" lon="-0.24073">
        <ele>1534.4</ele>
        <time>2021-08-28T07:48:25Z</time>
      </trkpt>
      <trkpt lat="42.98203" lon="-0.24071">
        <ele>1534.6</ele>
        <time>2021-08-28T07:48:26Z</time>
      </trkpt>
      <trkpt lat="42.98205" lon="-0.2407">
        <ele>1534.6</ele>
        <time>2021-08-28T07:48:27Z</time>
      </trkpt>
      <trkpt lat="42.98206" lon="-0.2407">
        <ele>1534.6</ele>
        <time>2021-08-28T07:48:28Z</time>
      </trkpt>
      <trkpt lat="42.98208" lon="-0.2407">
        <ele>1534.6</ele>
        <time>2021-08-28T07:48:29Z</time>
      </trkpt>
      <trkpt lat="42.9821" lon="-0.24071">
        <ele>1534.8</ele>
        <time>2021-08-28T07:48:30Z</time>
      </trkpt>
      <trkpt lat="42.98211" lon="-0.24072">
        <ele>1535</ele>
        <time>2021-08-28T07:48:31Z</time>
      </trkpt>
      <trkpt lat="42.98213" lon="-0.24074">
        <ele>1535.2</ele>
        <time>2021-08-28T07:48:32Z</time>
      </trkpt>
      <trkpt lat="42.98214" lon="-0.24075">
        <ele>1535.2</ele>
        <time>2021-08-28T07:48:33Z</time>
      </trkpt>
      <trkpt lat="42.98215" lon="-0.24077">
        <ele>1535.4</ele>
        <time>2021-08-28T07:48:34Z</time>
      </trkpt>
      <trkpt lat="42.98215" lon="-0.24079">
        <ele>1535.6</ele>
        <time>2021-08-28T07:48:35Z</time>
      </trkpt>
      <trkpt lat="42.98217" lon="-0.24081">
        <ele>1535.8</ele>
        <time>2021-08-28T07:48:36Z</time>
      </trkpt>
      <trkpt lat="42.98217" lon="-0.24084">
        <ele>1536</ele>
        <time>2021-08-28T07:48:37Z</time>
      </trkpt>
      <trkpt lat="42.98218" lon="-0.24086">
        <ele>1536.2</ele>
        <time>2021-08-28T07:48:38Z</time>
      </trkpt>
      <trkpt lat="42.9822" lon="-0.24089">
        <ele>1536.4</ele>
        <time>2021-08-28T07:48:39Z</time>
      </trkpt>
      <trkpt lat="42.98222" lon="-0.24091">
        <ele>1536.4</ele>
        <time>2021-08-28T07:48:40Z</time>
      </trkpt>
      <trkpt lat="42.98223" lon="-0.24094">
        <ele>1536.4</ele>
        <time>2021-08-28T07:48:41Z</time>
      </trkpt>
      <trkpt lat="42.98225" lon="-0.24096">
        <ele>1536.6</ele>
        <time>2021-08-28T07:48:42Z</time>
      </trkpt>
      <trkpt lat="42.98228" lon="-0.24098">
        <ele>1536.6</ele>
        <time>2021-08-28T07:48:43Z</time>
      </trkpt>
      <trkpt lat="42.98229" lon="-0.241">
        <ele>1536.6</ele>
        <time>2021-08-28T07:48:44Z</time>
      </trkpt>
      <trkpt lat="42.98232" lon="-0.24102">
        <ele>1536.6</ele>
        <time>2021-08-28T07:48:45Z</time>
      </trkpt>
      <trkpt lat="42.98234" lon="-0.24104">
        <ele>1536.6</ele>
        <time>2021-08-28T07:48:46Z</time>
      </trkpt>
      <trkpt lat="42.98236" lon="-0.24106">
        <ele>1536.6</ele>
        <time>2021-08-28T07:48:47Z</time>
      </trkpt>
      <trkpt lat="42.98239" lon="-0.24107">
        <ele>1536.6</ele>
        <time>2021-08-28T07:48:48Z</time>
      </trkpt>
      <trkpt lat="42.98242" lon="-0.24108">
        <ele>1536.6</ele>
        <time>2021-08-28T07:48:49Z</time>
      </trkpt>
      <trkpt lat="42.98245" lon="-0.24109">
        <ele>1536.4</ele>
        <time>2021-08-28T07:48:50Z</time>
      </trkpt>
      <trkpt lat="42.98248" lon="-0.24109">
        <ele>1536.4</ele>
        <time>2021-08-28T07:48:51Z</time>
      </trkpt>
      <trkpt lat="42.98252" lon="-0.24108">
        <ele>1536.4</ele>
        <time>2021-08-28T07:48:52Z</time>
      </trkpt>
      <trkpt lat="42.98268" lon="-0.241">
        <ele>1535.6</ele>
        <time>2021-08-28T07:48:57Z</time>
      </trkpt>
      <trkpt lat="42.98271" lon="-0.24099">
        <ele>1535.4</ele>
        <time>2021-08-28T07:48:58Z</time>
      </trkpt>
      <trkpt lat="42.98276" lon="-0.24103">
        <ele>1535.2</ele>
        <time>2021-08-28T07:49:00Z</time>
      </trkpt>
      <trkpt lat="42.98277" lon="-0.24106">
        <ele>1535</ele>
        <time>2021-08-28T07:49:01Z</time>
      </trkpt>
      <trkpt lat="42.98275" lon="-0.24114">
        <ele>1534.8</ele>
        <time>2021-08-28T07:49:03Z</time>
      </trkpt>
      <trkpt lat="42.98274" lon="-0.24117">
        <ele>1534.8</ele>
        <time>2021-08-28T07:49:04Z</time>
      </trkpt>
      <trkpt lat="42.98272" lon="-0.24121">
        <ele>1534.6</ele>
        <time>2021-08-28T07:49:05Z</time>
      </trkpt>
      <trkpt lat="42.9827" lon="-0.24124">
        <ele>1534.6</ele>
        <time>2021-08-28T07:49:06Z</time>
      </trkpt>
      <trkpt lat="42.98268" lon="-0.24127">
        <ele>1534.4</ele>
        <time>2021-08-28T07:49:07Z</time>
      </trkpt>
      <trkpt lat="42.98266" lon="-0.24131">
        <ele>1534.2</ele>
        <time>2021-08-28T07:49:08Z</time>
      </trkpt>
      <trkpt lat="42.98264" lon="-0.24135">
        <ele>1534.2</ele>
        <time>2021-08-28T07:49:09Z</time>
      </trkpt>
      <trkpt lat="42.98253" lon="-0.24159">
        <ele>1533.8</ele>
        <time>2021-08-28T07:49:14Z</time>
      </trkpt>
      <trkpt lat="42.98238" lon="-0.2419">
        <ele>1533.6</ele>
        <time>2021-08-28T07:49:20Z</time>
      </trkpt>
      <trkpt lat="42.98226" lon="-0.24224">
        <ele>1532.8</ele>
        <time>2021-08-28T07:49:25Z</time>
      </trkpt>
      <trkpt lat="42.98224" lon="-0.24232">
        <ele>1532.6</ele>
        <time>2021-08-28T07:49:26Z</time>
      </trkpt>
      <trkpt lat="42.98222" lon="-0.2424">
        <ele>1532.4</ele>
        <time>2021-08-28T07:49:27Z</time>
      </trkpt>
      <trkpt lat="42.98216" lon="-0.24257">
        <ele>1532.2</ele>
        <time>2021-08-28T07:49:29Z</time>
      </trkpt>
      <trkpt lat="42.98211" lon="-0.24266">
        <ele>1531.8</ele>
        <time>2021-08-28T07:49:30Z</time>
      </trkpt>
      <trkpt lat="42.98207" lon="-0.24274">
        <ele>1531.6</ele>
        <time>2021-08-28T07:49:31Z</time>
      </trkpt>
      <trkpt lat="42.98202" lon="-0.24281">
        <ele>1531.2</ele>
        <time>2021-08-28T07:49:32Z</time>
      </trkpt>
      <trkpt lat="42.9819" lon="-0.24294">
        <ele>1530.8</ele>
        <time>2021-08-28T07:49:34Z</time>
      </trkpt>
      <trkpt lat="42.98184" lon="-0.24301">
        <ele>1530.4</ele>
        <time>2021-08-28T07:49:35Z</time>
      </trkpt>
      <trkpt lat="42.98178" lon="-0.24306">
        <ele>1530</ele>
        <time>2021-08-28T07:49:36Z</time>
      </trkpt>
      <trkpt lat="42.98167" lon="-0.24318">
        <ele>1529.2</ele>
        <time>2021-08-28T07:49:38Z</time>
      </trkpt>
      <trkpt lat="42.98161" lon="-0.24324">
        <ele>1529</ele>
        <time>2021-08-28T07:49:39Z</time>
      </trkpt>
      <trkpt lat="42.98144" lon="-0.24342">
        <ele>1528.4</ele>
        <time>2021-08-28T07:49:42Z</time>
      </trkpt>
      <trkpt lat="42.98138" lon="-0.24348">
        <ele>1528.2</ele>
        <time>2021-08-28T07:49:43Z</time>
      </trkpt>
      <trkpt lat="42.98133" lon="-0.24354">
        <ele>1528.2</ele>
        <time>2021-08-28T07:49:44Z</time>
      </trkpt>
      <trkpt lat="42.98123" lon="-0.24365">
        <ele>1528</ele>
        <time>2021-08-28T07:49:46Z</time>
      </trkpt>
      <trkpt lat="42.98095" lon="-0.24395">
        <ele>1527.2</ele>
        <time>2021-08-28T07:49:51Z</time>
      </trkpt>
      <trkpt lat="42.98075" lon="-0.24408">
        <ele>1526</ele>
        <time>2021-08-28T07:49:54Z</time>
      </trkpt>
      <trkpt lat="42.98055" lon="-0.24423">
        <ele>1525.4</ele>
        <time>2021-08-28T07:49:57Z</time>
      </trkpt>
      <trkpt lat="42.98039" lon="-0.24442">
        <ele>1524.6</ele>
        <time>2021-08-28T07:50:00Z</time>
      </trkpt>
      <trkpt lat="42.98029" lon="-0.24459">
        <ele>1524</ele>
        <time>2021-08-28T07:50:02Z</time>
      </trkpt>
      <trkpt lat="42.98026" lon="-0.24468">
        <ele>1523.6</ele>
        <time>2021-08-28T07:50:03Z</time>
      </trkpt>
      <trkpt lat="42.98023" lon="-0.24475">
        <ele>1523</ele>
        <time>2021-08-28T07:50:04Z</time>
      </trkpt>
      <trkpt lat="42.98021" lon="-0.24497">
        <ele>1522.6</ele>
        <time>2021-08-28T07:50:06Z</time>
      </trkpt>
      <trkpt lat="42.98021" lon="-0.24507">
        <ele>1522.6</ele>
        <time>2021-08-28T07:50:07Z</time>
      </trkpt>
      <trkpt lat="42.98022" lon="-0.24518">
        <ele>1522.2</ele>
        <time>2021-08-28T07:50:08Z</time>
      </trkpt>
      <trkpt lat="42.98023" lon="-0.24526">
        <ele>1522.2</ele>
        <time>2021-08-28T07:50:09Z</time>
      </trkpt>
      <trkpt lat="42.98023" lon="-0.24538">
        <ele>1522</ele>
        <time>2021-08-28T07:50:10Z</time>
      </trkpt>
      <trkpt lat="42.9802" lon="-0.24574">
        <ele>1521.2</ele>
        <time>2021-08-28T07:50:14Z</time>
      </trkpt>
      <trkpt lat="42.9802" lon="-0.24582">
        <ele>1521</ele>
        <time>2021-08-28T07:50:15Z</time>
      </trkpt>
      <trkpt lat="42.98019" lon="-0.2459">
        <ele>1520.8</ele>
        <time>2021-08-28T07:50:16Z</time>
      </trkpt>
      <trkpt lat="42.98018" lon="-0.24598">
        <ele>1520.6</ele>
        <time>2021-08-28T07:50:17Z</time>
      </trkpt>
      <trkpt lat="42.98017" lon="-0.24606">
        <ele>1520.6</ele>
        <time>2021-08-28T07:50:18Z</time>
      </trkpt>
      <trkpt lat="42.98016" lon="-0.24614">
        <ele>1520.6</ele>
        <time>2021-08-28T07:50:19Z</time>
      </trkpt>
      <trkpt lat="42.98015" lon="-0.2463">
        <ele>1520.4</ele>
        <time>2021-08-28T07:50:21Z</time>
      </trkpt>
      <trkpt lat="42.98013" lon="-0.24639">
        <ele>1520.2</ele>
        <time>2021-08-28T07:50:22Z</time>
      </trkpt>
      <trkpt lat="42.98005" lon="-0.24661">
        <ele>1519.8</ele>
        <time>2021-08-28T07:50:25Z</time>
      </trkpt>
      <trkpt lat="42.98002" lon="-0.24667">
        <ele>1519.8</ele>
        <time>2021-08-28T07:50:26Z</time>
      </trkpt>
      <trkpt lat="42.97998" lon="-0.2467">
        <ele>1519.6</ele>
        <time>2021-08-28T07:50:27Z</time>
      </trkpt>
      <trkpt lat="42.97994" lon="-0.24673">
        <ele>1519.6</ele>
        <time>2021-08-28T07:50:28Z</time>
      </trkpt>
      <trkpt lat="42.9799" lon="-0.24675">
        <ele>1519.4</ele>
        <time>2021-08-28T07:50:29Z</time>
      </trkpt>
      <trkpt lat="42.97986" lon="-0.24678">
        <ele>1519.2</ele>
        <time>2021-08-28T07:50:30Z</time>
      </trkpt>
      <trkpt lat="42.97982" lon="-0.24681">
        <ele>1519.2</ele>
        <time>2021-08-28T07:50:31Z</time>
      </trkpt>
      <trkpt lat="42.97979" lon="-0.24684">
        <ele>1519.2</ele>
        <time>2021-08-28T07:50:32Z</time>
      </trkpt>
      <trkpt lat="42.97975" lon="-0.24687">
        <ele>1519.2</ele>
        <time>2021-08-28T07:50:33Z</time>
      </trkpt>
      <trkpt lat="42.97947" lon="-0.24701">
        <ele>1518.6</ele>
        <time>2021-08-28T07:50:39Z</time>
      </trkpt>
      <trkpt lat="42.97934" lon="-0.24702">
        <ele>1518.6</ele>
        <time>2021-08-28T07:50:41Z</time>
      </trkpt>
      <trkpt lat="42.97924" lon="-0.24706">
        <ele>1518.4</ele>
        <time>2021-08-28T07:50:43Z</time>
      </trkpt>
      <trkpt lat="42.97919" lon="-0.24708">
        <ele>1518.4</ele>
        <time>2021-08-28T07:50:44Z</time>
      </trkpt>
      <trkpt lat="42.97908" lon="-0.24712">
        <ele>1517.8</ele>
        <time>2021-08-28T07:50:46Z</time>
      </trkpt>
      <trkpt lat="42.97898" lon="-0.24718">
        <ele>1517.4</ele>
        <time>2021-08-28T07:50:48Z</time>
      </trkpt>
      <trkpt lat="42.9789" lon="-0.24727">
        <ele>1517</ele>
        <time>2021-08-28T07:50:50Z</time>
      </trkpt>
      <trkpt lat="42.97886" lon="-0.24732">
        <ele>1517</ele>
        <time>2021-08-28T07:50:51Z</time>
      </trkpt>
      <trkpt lat="42.97881" lon="-0.24736">
        <ele>1517</ele>
        <time>2021-08-28T07:50:52Z</time>
      </trkpt>
      <trkpt lat="42.9786" lon="-0.24755">
        <ele>1516.8</ele>
        <time>2021-08-28T07:50:56Z</time>
      </trkpt>
      <trkpt lat="42.97849" lon="-0.24762">
        <ele>1516.6</ele>
        <time>2021-08-28T07:50:58Z</time>
      </trkpt>
      <trkpt lat="42.97838" lon="-0.2477">
        <ele>1516.4</ele>
        <time>2021-08-28T07:51:00Z</time>
      </trkpt>
      <trkpt lat="42.97826" lon="-0.24774">
        <ele>1516.2</ele>
        <time>2021-08-28T07:51:02Z</time>
      </trkpt>
      <trkpt lat="42.97814" lon="-0.24774">
        <ele>1515.8</ele>
        <time>2021-08-28T07:51:04Z</time>
      </trkpt>
      <trkpt lat="42.97808" lon="-0.24773">
        <ele>1515.6</ele>
        <time>2021-08-28T07:51:05Z</time>
      </trkpt>
      <trkpt lat="42.97802" lon="-0.24772">
        <ele>1515.4</ele>
        <time>2021-08-28T07:51:06Z</time>
      </trkpt>
      <trkpt lat="42.97768" lon="-0.24756">
        <ele>1514.6</ele>
        <time>2021-08-28T07:51:11Z</time>
      </trkpt>
      <trkpt lat="42.97762" lon="-0.24752">
        <ele>1514.2</ele>
        <time>2021-08-28T07:51:12Z</time>
      </trkpt>
      <trkpt lat="42.97758" lon="-0.24747">
        <ele>1514</ele>
        <time>2021-08-28T07:51:13Z</time>
      </trkpt>
      <trkpt lat="42.97754" lon="-0.24741">
        <ele>1513.6</ele>
        <time>2021-08-28T07:51:14Z</time>
      </trkpt>
      <trkpt lat="42.97751" lon="-0.24733">
        <ele>1513.4</ele>
        <time>2021-08-28T07:51:15Z</time>
      </trkpt>
      <trkpt lat="42.97748" lon="-0.24726">
        <ele>1513</ele>
        <time>2021-08-28T07:51:16Z</time>
      </trkpt>
      <trkpt lat="42.97745" lon="-0.24718">
        <ele>1512.8</ele>
        <time>2021-08-28T07:51:17Z</time>
      </trkpt>
      <trkpt lat="42.9774" lon="-0.24711">
        <ele>1512.6</ele>
        <time>2021-08-28T07:51:18Z</time>
      </trkpt>
      <trkpt lat="42.97735" lon="-0.24706">
        <ele>1512.2</ele>
        <time>2021-08-28T07:51:19Z</time>
      </trkpt>
      <trkpt lat="42.9773" lon="-0.24702">
        <ele>1511.8</ele>
        <time>2021-08-28T07:51:20Z</time>
      </trkpt>
      <trkpt lat="42.97723" lon="-0.24699">
        <ele>1511.4</ele>
        <time>2021-08-28T07:51:21Z</time>
      </trkpt>
      <trkpt lat="42.97717" lon="-0.24697">
        <ele>1511</ele>
        <time>2021-08-28T07:51:22Z</time>
      </trkpt>
      <trkpt lat="42.9771" lon="-0.24695">
        <ele>1511</ele>
        <time>2021-08-28T07:51:23Z</time>
      </trkpt>
      <trkpt lat="42.97696" lon="-0.24691">
        <ele>1510.6</ele>
        <time>2021-08-28T07:51:25Z</time>
      </trkpt>
      <trkpt lat="42.97683" lon="-0.24687">
        <ele>1510.4</ele>
        <time>2021-08-28T07:51:27Z</time>
      </trkpt>
      <trkpt lat="42.97676" lon="-0.24686">
        <ele>1510.2</ele>
        <time>2021-08-28T07:51:28Z</time>
      </trkpt>
      <trkpt lat="42.97648" lon="-0.24687">
        <ele>1509.6</ele>
        <time>2021-08-28T07:51:32Z</time>
      </trkpt>
      <trkpt lat="42.97635" lon="-0.24692">
        <ele>1509.4</ele>
        <time>2021-08-28T07:51:34Z</time>
      </trkpt>
      <trkpt lat="42.97623" lon="-0.24702">
        <ele>1509</ele>
        <time>2021-08-28T07:51:36Z</time>
      </trkpt>
      <trkpt lat="42.97617" lon="-0.24708">
        <ele>1508.6</ele>
        <time>2021-08-28T07:51:37Z</time>
      </trkpt>
      <trkpt lat="42.97612" lon="-0.24714">
        <ele>1508.2</ele>
        <time>2021-08-28T07:51:38Z</time>
      </trkpt>
      <trkpt lat="42.97607" lon="-0.24719">
        <ele>1507.8</ele>
        <time>2021-08-28T07:51:39Z</time>
      </trkpt>
      <trkpt lat="42.97603" lon="-0.24724">
        <ele>1507.8</ele>
        <time>2021-08-28T07:51:40Z</time>
      </trkpt>
      <trkpt lat="42.97598" lon="-0.24728">
        <ele>1507.6</ele>
        <time>2021-08-28T07:51:41Z</time>
      </trkpt>
      <trkpt lat="42.97593" lon="-0.24732">
        <ele>1507.6</ele>
        <time>2021-08-28T07:51:42Z</time>
      </trkpt>
      <trkpt lat="42.97589" lon="-0.24734">
        <ele>1507.6</ele>
        <time>2021-08-28T07:51:43Z</time>
      </trkpt>
      <trkpt lat="42.97584" lon="-0.24737">
        <ele>1507.6</ele>
        <time>2021-08-28T07:51:44Z</time>
      </trkpt>
      <trkpt lat="42.9758" lon="-0.24739">
        <ele>1507.6</ele>
        <time>2021-08-28T07:51:45Z</time>
      </trkpt>
      <trkpt lat="42.97576" lon="-0.24742">
        <ele>1507.6</ele>
        <time>2021-08-28T07:51:46Z</time>
      </trkpt>
      <trkpt lat="42.97573" lon="-0.24744">
        <ele>1507.6</ele>
        <time>2021-08-28T07:51:47Z</time>
      </trkpt>
      <trkpt lat="42.97569" lon="-0.24746">
        <ele>1507.8</ele>
        <time>2021-08-28T07:51:48Z</time>
      </trkpt>
      <trkpt lat="42.97565" lon="-0.24749">
        <ele>1508.2</ele>
        <time>2021-08-28T07:51:49Z</time>
      </trkpt>
      <trkpt lat="42.97561" lon="-0.24751">
        <ele>1508.2</ele>
        <time>2021-08-28T07:51:50Z</time>
      </trkpt>
      <trkpt lat="42.97551" lon="-0.24756">
        <ele>1508.4</ele>
        <time>2021-08-28T07:51:52Z</time>
      </trkpt>
      <trkpt lat="42.97546" lon="-0.24758">
        <ele>1508.6</ele>
        <time>2021-08-28T07:51:53Z</time>
      </trkpt>
      <trkpt lat="42.97541" lon="-0.24759">
        <ele>1508.6</ele>
        <time>2021-08-28T07:51:54Z</time>
      </trkpt>
      <trkpt lat="42.97536" lon="-0.24758">
        <ele>1508.6</ele>
        <time>2021-08-28T07:51:55Z</time>
      </trkpt>
      <trkpt lat="42.97532" lon="-0.24755">
        <ele>1508.6</ele>
        <time>2021-08-28T07:51:56Z</time>
      </trkpt>
      <trkpt lat="42.97529" lon="-0.24751">
        <ele>1508.6</ele>
        <time>2021-08-28T07:51:57Z</time>
      </trkpt>
      <trkpt lat="42.97527" lon="-0.24746">
        <ele>1508.6</ele>
        <time>2021-08-28T07:51:58Z</time>
      </trkpt>
      <trkpt lat="42.97524" lon="-0.24741">
        <ele>1508.6</ele>
        <time>2021-08-28T07:51:59Z</time>
      </trkpt>
      <trkpt lat="42.97522" lon="-0.24736">
        <ele>1508.6</ele>
        <time>2021-08-28T07:52:00Z</time>
      </trkpt>
      <trkpt lat="42.97519" lon="-0.24732">
        <ele>1508.6</ele>
        <time>2021-08-28T07:52:01Z</time>
      </trkpt>
      <trkpt lat="42.97516" lon="-0.24729">
        <ele>1508.6</ele>
        <time>2021-08-28T07:52:02Z</time>
      </trkpt>
      <trkpt lat="42.97513" lon="-0.24726">
        <ele>1508.6</ele>
        <time>2021-08-28T07:52:03Z</time>
      </trkpt>
      <trkpt lat="42.97509" lon="-0.24725">
        <ele>1508.6</ele>
        <time>2021-08-28T07:52:04Z</time>
      </trkpt>
      <trkpt lat="42.97506" lon="-0.24724">
        <ele>1508.6</ele>
        <time>2021-08-28T07:52:05Z</time>
      </trkpt>
      <trkpt lat="42.97502" lon="-0.24724">
        <ele>1508.6</ele>
        <time>2021-08-28T07:52:06Z</time>
      </trkpt>
      <trkpt lat="42.97498" lon="-0.24725">
        <ele>1508.8</ele>
        <time>2021-08-28T07:52:07Z</time>
      </trkpt>
      <trkpt lat="42.97495" lon="-0.24727">
        <ele>1509</ele>
        <time>2021-08-28T07:52:08Z</time>
      </trkpt>
      <trkpt lat="42.97491" lon="-0.24728">
        <ele>1509</ele>
        <time>2021-08-28T07:52:09Z</time>
      </trkpt>
      <trkpt lat="42.97487" lon="-0.2473">
        <ele>1509</ele>
        <time>2021-08-28T07:52:10Z</time>
      </trkpt>
      <trkpt lat="42.97484" lon="-0.24731">
        <ele>1509.2</ele>
        <time>2021-08-28T07:52:11Z</time>
      </trkpt>
      <trkpt lat="42.97476" lon="-0.24732">
        <ele>1509.2</ele>
        <time>2021-08-28T07:52:13Z</time>
      </trkpt>
      <trkpt lat="42.97473" lon="-0.24732">
        <ele>1509.2</ele>
        <time>2021-08-28T07:52:14Z</time>
      </trkpt>
      <trkpt lat="42.97464" lon="-0.2473">
        <ele>1509.4</ele>
        <time>2021-08-28T07:52:17Z</time>
      </trkpt>
      <trkpt lat="42.97461" lon="-0.2473">
        <ele>1509.6</ele>
        <time>2021-08-28T07:52:18Z</time>
      </trkpt>
      <trkpt lat="42.97458" lon="-0.2473">
        <ele>1509.6</ele>
        <time>2021-08-28T07:52:19Z</time>
      </trkpt>
      <trkpt lat="42.97445" lon="-0.24732">
        <ele>1510.6</ele>
        <time>2021-08-28T07:52:23Z</time>
      </trkpt>
      <trkpt lat="42.97442" lon="-0.24733">
        <ele>1510.6</ele>
        <time>2021-08-28T07:52:24Z</time>
      </trkpt>
      <trkpt lat="42.97435" lon="-0.24737">
        <ele>1511.2</ele>
        <time>2021-08-28T07:52:27Z</time>
      </trkpt>
      <trkpt lat="42.97432" lon="-0.24738">
        <ele>1511.4</ele>
        <time>2021-08-28T07:52:28Z</time>
      </trkpt>
      <trkpt lat="42.9743" lon="-0.24738">
        <ele>1511.4</ele>
        <time>2021-08-28T07:52:29Z</time>
      </trkpt>
      <trkpt lat="42.97428" lon="-0.24739">
        <ele>1511.6</ele>
        <time>2021-08-28T07:52:30Z</time>
      </trkpt>
      <trkpt lat="42.97426" lon="-0.24741">
        <ele>1511.8</ele>
        <time>2021-08-28T07:52:31Z</time>
      </trkpt>
      <trkpt lat="42.97424" lon="-0.24742">
        <ele>1512.2</ele>
        <time>2021-08-28T07:52:32Z</time>
      </trkpt>
      <trkpt lat="42.97423" lon="-0.24744">
        <ele>1512.2</ele>
        <time>2021-08-28T07:52:33Z</time>
      </trkpt>
      <trkpt lat="42.97421" lon="-0.24746">
        <ele>1512.6</ele>
        <time>2021-08-28T07:52:34Z</time>
      </trkpt>
      <trkpt lat="42.97419" lon="-0.24747">
        <ele>1512.8</ele>
        <time>2021-08-28T07:52:35Z</time>
      </trkpt>
      <trkpt lat="42.97417" lon="-0.24749">
        <ele>1513</ele>
        <time>2021-08-28T07:52:36Z</time>
      </trkpt>
      <trkpt lat="42.97416" lon="-0.2475">
        <ele>1513.2</ele>
        <time>2021-08-28T07:52:37Z</time>
      </trkpt>
      <trkpt lat="42.97414" lon="-0.24752">
        <ele>1513.6</ele>
        <time>2021-08-28T07:52:38Z</time>
      </trkpt>
      <trkpt lat="42.97412" lon="-0.24752">
        <ele>1513.8</ele>
        <time>2021-08-28T07:52:39Z</time>
      </trkpt>
      <trkpt lat="42.9741" lon="-0.24753">
        <ele>1514.2</ele>
        <time>2021-08-28T07:52:40Z</time>
      </trkpt>
      <trkpt lat="42.97408" lon="-0.24754">
        <ele>1514.4</ele>
        <time>2021-08-28T07:52:41Z</time>
      </trkpt>
      <trkpt lat="42.97406" lon="-0.24756">
        <ele>1514.6</ele>
        <time>2021-08-28T07:52:42Z</time>
      </trkpt>
      <trkpt lat="42.97404" lon="-0.24756">
        <ele>1514.8</ele>
        <time>2021-08-28T07:52:43Z</time>
      </trkpt>
      <trkpt lat="42.97402" lon="-0.24757">
        <ele>1515</ele>
        <time>2021-08-28T07:52:44Z</time>
      </trkpt>
      <trkpt lat="42.974" lon="-0.24758">
        <ele>1515.2</ele>
        <time>2021-08-28T07:52:45Z</time>
      </trkpt>
      <trkpt lat="42.97399" lon="-0.24759">
        <ele>1515.6</ele>
        <time>2021-08-28T07:52:46Z</time>
      </trkpt>
      <trkpt lat="42.97398" lon="-0.2476">
        <ele>1515.6</ele>
        <time>2021-08-28T07:52:47Z</time>
      </trkpt>
      <trkpt lat="42.97396" lon="-0.2476">
        <ele>1515.8</ele>
        <time>2021-08-28T07:52:48Z</time>
      </trkpt>
      <trkpt lat="42.97394" lon="-0.2476">
        <ele>1516</ele>
        <time>2021-08-28T07:52:49Z</time>
      </trkpt>
      <trkpt lat="42.97392" lon="-0.24761">
        <ele>1516.2</ele>
        <time>2021-08-28T07:52:50Z</time>
      </trkpt>
      <trkpt lat="42.9739" lon="-0.24762">
        <ele>1516.4</ele>
        <time>2021-08-28T07:52:51Z</time>
      </trkpt>
      <trkpt lat="42.97388" lon="-0.24762">
        <ele>1516.6</ele>
        <time>2021-08-28T07:52:52Z</time>
      </trkpt>
      <trkpt lat="42.97387" lon="-0.24761">
        <ele>1516.8</ele>
        <time>2021-08-28T07:52:53Z</time>
      </trkpt>
      <trkpt lat="42.97384" lon="-0.24761">
        <ele>1517</ele>
        <time>2021-08-28T07:52:54Z</time>
      </trkpt>
      <trkpt lat="42.97382" lon="-0.2476">
        <ele>1517.2</ele>
        <time>2021-08-28T07:52:55Z</time>
      </trkpt>
      <trkpt lat="42.9738" lon="-0.2476">
        <ele>1517.4</ele>
        <time>2021-08-28T07:52:56Z</time>
      </trkpt>
      <trkpt lat="42.97378" lon="-0.2476">
        <ele>1517.6</ele>
        <time>2021-08-28T07:52:57Z</time>
      </trkpt>
      <trkpt lat="42.97376" lon="-0.2476">
        <ele>1517.8</ele>
        <time>2021-08-28T07:52:58Z</time>
      </trkpt>
      <trkpt lat="42.97373" lon="-0.24759">
        <ele>1518</ele>
        <time>2021-08-28T07:52:59Z</time>
      </trkpt>
      <trkpt lat="42.97371" lon="-0.24759">
        <ele>1518.2</ele>
        <time>2021-08-28T07:53:00Z</time>
      </trkpt>
      <trkpt lat="42.97369" lon="-0.24758">
        <ele>1518.4</ele>
        <time>2021-08-28T07:53:01Z</time>
      </trkpt>
      <trkpt lat="42.97367" lon="-0.24757">
        <ele>1518.4</ele>
        <time>2021-08-28T07:53:02Z</time>
      </trkpt>
      <trkpt lat="42.97365" lon="-0.24756">
        <ele>1518.6</ele>
        <time>2021-08-28T07:53:03Z</time>
      </trkpt>
      <trkpt lat="42.97364" lon="-0.24755">
        <ele>1518.8</ele>
        <time>2021-08-28T07:53:04Z</time>
      </trkpt>
      <trkpt lat="42.97362" lon="-0.24755">
        <ele>1518.8</ele>
        <time>2021-08-28T07:53:05Z</time>
      </trkpt>
      <trkpt lat="42.9736" lon="-0.24755">
        <ele>1519</ele>
        <time>2021-08-28T07:53:06Z</time>
      </trkpt>
      <trkpt lat="42.97358" lon="-0.24754">
        <ele>1519.4</ele>
        <time>2021-08-28T07:53:07Z</time>
      </trkpt>
      <trkpt lat="42.97356" lon="-0.24755">
        <ele>1519.6</ele>
        <time>2021-08-28T07:53:08Z</time>
      </trkpt>
      <trkpt lat="42.97355" lon="-0.24755">
        <ele>1519.6</ele>
        <time>2021-08-28T07:53:09Z</time>
      </trkpt>
      <trkpt lat="42.97353" lon="-0.24755">
        <ele>1519.8</ele>
        <time>2021-08-28T07:53:10Z</time>
      </trkpt>
      <trkpt lat="42.97352" lon="-0.24755">
        <ele>1520</ele>
        <time>2021-08-28T07:53:11Z</time>
      </trkpt>
      <trkpt lat="42.9735" lon="-0.24756">
        <ele>1520.4</ele>
        <time>2021-08-28T07:53:12Z</time>
      </trkpt>
      <trkpt lat="42.97349" lon="-0.24757">
        <ele>1520.6</ele>
        <time>2021-08-28T07:53:13Z</time>
      </trkpt>
      <trkpt lat="42.97348" lon="-0.24758">
        <ele>1521</ele>
        <time>2021-08-28T07:53:14Z</time>
      </trkpt>
      <trkpt lat="42.97346" lon="-0.24759">
        <ele>1521.2</ele>
        <time>2021-08-28T07:53:15Z</time>
      </trkpt>
      <trkpt lat="42.97344" lon="-0.2476">
        <ele>1521.4</ele>
        <time>2021-08-28T07:53:16Z</time>
      </trkpt>
      <trkpt lat="42.97343" lon="-0.24761">
        <ele>1521.6</ele>
        <time>2021-08-28T07:53:17Z</time>
      </trkpt>
      <trkpt lat="42.97342" lon="-0.24761">
        <ele>1522.2</ele>
        <time>2021-08-28T07:53:18Z</time>
      </trkpt>
      <trkpt lat="42.9734" lon="-0.24761">
        <ele>1522.4</ele>
        <time>2021-08-28T07:53:19Z</time>
      </trkpt>
      <trkpt lat="42.97339" lon="-0.24761">
        <ele>1522.6</ele>
        <time>2021-08-28T07:53:20Z</time>
      </trkpt>
      <trkpt lat="42.97337" lon="-0.24762">
        <ele>1522.6</ele>
        <time>2021-08-28T07:53:21Z</time>
      </trkpt>
      <trkpt lat="42.97335" lon="-0.24763">
        <ele>1523</ele>
        <time>2021-08-28T07:53:22Z</time>
      </trkpt>
      <trkpt lat="42.97333" lon="-0.24763">
        <ele>1523.2</ele>
        <time>2021-08-28T07:53:23Z</time>
      </trkpt>
      <trkpt lat="42.97331" lon="-0.24764">
        <ele>1523.4</ele>
        <time>2021-08-28T07:53:24Z</time>
      </trkpt>
      <trkpt lat="42.9733" lon="-0.24764">
        <ele>1523.4</ele>
        <time>2021-08-28T07:53:25Z</time>
      </trkpt>
      <trkpt lat="42.97328" lon="-0.24765">
        <ele>1523.6</ele>
        <time>2021-08-28T07:53:26Z</time>
      </trkpt>
      <trkpt lat="42.97327" lon="-0.24765">
        <ele>1524</ele>
        <time>2021-08-28T07:53:27Z</time>
      </trkpt>
      <trkpt lat="42.97324" lon="-0.24766">
        <ele>1524</ele>
        <time>2021-08-28T07:53:28Z</time>
      </trkpt>
      <trkpt lat="42.97322" lon="-0.24767">
        <ele>1524.2</ele>
        <time>2021-08-28T07:53:29Z</time>
      </trkpt>
      <trkpt lat="42.9732" lon="-0.24767">
        <ele>1524.4</ele>
        <time>2021-08-28T07:53:30Z</time>
      </trkpt>
      <trkpt lat="42.97318" lon="-0.24768">
        <ele>1524.4</ele>
        <time>2021-08-28T07:53:31Z</time>
      </trkpt>
      <trkpt lat="42.97317" lon="-0.24768">
        <ele>1524.4</ele>
        <time>2021-08-28T07:53:32Z</time>
      </trkpt>
      <trkpt lat="42.97315" lon="-0.24769">
        <ele>1524.6</ele>
        <time>2021-08-28T07:53:33Z</time>
      </trkpt>
      <trkpt lat="42.97313" lon="-0.24769">
        <ele>1524.6</ele>
        <time>2021-08-28T07:53:34Z</time>
      </trkpt>
      <trkpt lat="42.9731" lon="-0.2477">
        <ele>1524.8</ele>
        <time>2021-08-28T07:53:35Z</time>
      </trkpt>
      <trkpt lat="42.97308" lon="-0.24771">
        <ele>1525</ele>
        <time>2021-08-28T07:53:36Z</time>
      </trkpt>
      <trkpt lat="42.97306" lon="-0.24772">
        <ele>1525.2</ele>
        <time>2021-08-28T07:53:37Z</time>
      </trkpt>
      <trkpt lat="42.97305" lon="-0.24773">
        <ele>1525.4</ele>
        <time>2021-08-28T07:53:38Z</time>
      </trkpt>
      <trkpt lat="42.97303" lon="-0.24775">
        <ele>1525.4</ele>
        <time>2021-08-28T07:53:39Z</time>
      </trkpt>
      <trkpt lat="42.97301" lon="-0.24776">
        <ele>1525.6</ele>
        <time>2021-08-28T07:53:40Z</time>
      </trkpt>
      <trkpt lat="42.97299" lon="-0.24777">
        <ele>1525.6</ele>
        <time>2021-08-28T07:53:41Z</time>
      </trkpt>
      <trkpt lat="42.97298" lon="-0.24779">
        <ele>1525.6</ele>
        <time>2021-08-28T07:53:42Z</time>
      </trkpt>
      <trkpt lat="42.97296" lon="-0.2478">
        <ele>1525.8</ele>
        <time>2021-08-28T07:53:43Z</time>
      </trkpt>
      <trkpt lat="42.97295" lon="-0.24781">
        <ele>1526</ele>
        <time>2021-08-28T07:53:44Z</time>
      </trkpt>
      <trkpt lat="42.97293" lon="-0.24782">
        <ele>1526</ele>
        <time>2021-08-28T07:53:45Z</time>
      </trkpt>
      <trkpt lat="42.97291" lon="-0.24784">
        <ele>1526.2</ele>
        <time>2021-08-28T07:53:46Z</time>
      </trkpt>
      <trkpt lat="42.9729" lon="-0.24785">
        <ele>1526.4</ele>
        <time>2021-08-28T07:53:47Z</time>
      </trkpt>
      <trkpt lat="42.97289" lon="-0.24787">
        <ele>1526.6</ele>
        <time>2021-08-28T07:53:48Z</time>
      </trkpt>
      <trkpt lat="42.97288" lon="-0.24789">
        <ele>1526.6</ele>
        <time>2021-08-28T07:53:49Z</time>
      </trkpt>
      <trkpt lat="42.97287" lon="-0.24791">
        <ele>1526.8</ele>
        <time>2021-08-28T07:53:50Z</time>
      </trkpt>
      <trkpt lat="42.97286" lon="-0.24793">
        <ele>1527</ele>
        <time>2021-08-28T07:53:51Z</time>
      </trkpt>
      <trkpt lat="42.97284" lon="-0.24795">
        <ele>1527.2</ele>
        <time>2021-08-28T07:53:52Z</time>
      </trkpt>
      <trkpt lat="42.97283" lon="-0.24798">
        <ele>1527.2</ele>
        <time>2021-08-28T07:53:53Z</time>
      </trkpt>
      <trkpt lat="42.97282" lon="-0.24799">
        <ele>1527.4</ele>
        <time>2021-08-28T07:53:54Z</time>
      </trkpt>
      <trkpt lat="42.9728" lon="-0.24802">
        <ele>1527.4</ele>
        <time>2021-08-28T07:53:55Z</time>
      </trkpt>
      <trkpt lat="42.97279" lon="-0.24803">
        <ele>1527.6</ele>
        <time>2021-08-28T07:53:56Z</time>
      </trkpt>
      <trkpt lat="42.97278" lon="-0.24805">
        <ele>1527.6</ele>
        <time>2021-08-28T07:53:57Z</time>
      </trkpt>
      <trkpt lat="42.97277" lon="-0.24807">
        <ele>1527.8</ele>
        <time>2021-08-28T07:53:58Z</time>
      </trkpt>
      <trkpt lat="42.97276" lon="-0.2481">
        <ele>1528</ele>
        <time>2021-08-28T07:53:59Z</time>
      </trkpt>
      <trkpt lat="42.97274" lon="-0.24812">
        <ele>1528.2</ele>
        <time>2021-08-28T07:54:00Z</time>
      </trkpt>
      <trkpt lat="42.97273" lon="-0.24814">
        <ele>1528.2</ele>
        <time>2021-08-28T07:54:01Z</time>
      </trkpt>
      <trkpt lat="42.97271" lon="-0.24817">
        <ele>1528.4</ele>
        <time>2021-08-28T07:54:02Z</time>
      </trkpt>
      <trkpt lat="42.97271" lon="-0.24819">
        <ele>1528.4</ele>
        <time>2021-08-28T07:54:03Z</time>
      </trkpt>
      <trkpt lat="42.9727" lon="-0.24821">
        <ele>1528.6</ele>
        <time>2021-08-28T07:54:04Z</time>
      </trkpt>
      <trkpt lat="42.97268" lon="-0.24824">
        <ele>1528.6</ele>
        <time>2021-08-28T07:54:05Z</time>
      </trkpt>
      <trkpt lat="42.97267" lon="-0.24826">
        <ele>1528.6</ele>
        <time>2021-08-28T07:54:06Z</time>
      </trkpt>
      <trkpt lat="42.97265" lon="-0.24829">
        <ele>1528.8</ele>
        <time>2021-08-28T07:54:07Z</time>
      </trkpt>
      <trkpt lat="42.97264" lon="-0.24832">
        <ele>1528.8</ele>
        <time>2021-08-28T07:54:08Z</time>
      </trkpt>
      <trkpt lat="42.97263" lon="-0.24834">
        <ele>1529</ele>
        <time>2021-08-28T07:54:09Z</time>
      </trkpt>
      <trkpt lat="42.97262" lon="-0.24837">
        <ele>1529</ele>
        <time>2021-08-28T07:54:10Z</time>
      </trkpt>
      <trkpt lat="42.9726" lon="-0.24841">
        <ele>1529.2</ele>
        <time>2021-08-28T07:54:11Z</time>
      </trkpt>
      <trkpt lat="42.97259" lon="-0.24843">
        <ele>1529.2</ele>
        <time>2021-08-28T07:54:12Z</time>
      </trkpt>
      <trkpt lat="42.97258" lon="-0.24846">
        <ele>1529.2</ele>
        <time>2021-08-28T07:54:13Z</time>
      </trkpt>
      <trkpt lat="42.97257" lon="-0.24848">
        <ele>1529.2</ele>
        <time>2021-08-28T07:54:14Z</time>
      </trkpt>
      <trkpt lat="42.97256" lon="-0.24851">
        <ele>1529.2</ele>
        <time>2021-08-28T07:54:15Z</time>
      </trkpt>
      <trkpt lat="42.97254" lon="-0.24853">
        <ele>1529.2</ele>
        <time>2021-08-28T07:54:16Z</time>
      </trkpt>
      <trkpt lat="42.97253" lon="-0.24856">
        <ele>1529.4</ele>
        <time>2021-08-28T07:54:17Z</time>
      </trkpt>
      <trkpt lat="42.97252" lon="-0.24858">
        <ele>1529.4</ele>
        <time>2021-08-28T07:54:18Z</time>
      </trkpt>
      <trkpt lat="42.97251" lon="-0.2486">
        <ele>1529.6</ele>
        <time>2021-08-28T07:54:19Z</time>
      </trkpt>
      <trkpt lat="42.97249" lon="-0.24862">
        <ele>1529.6</ele>
        <time>2021-08-28T07:54:20Z</time>
      </trkpt>
      <trkpt lat="42.97248" lon="-0.24864">
        <ele>1529.8</ele>
        <time>2021-08-28T07:54:21Z</time>
      </trkpt>
      <trkpt lat="42.97246" lon="-0.24866">
        <ele>1529.8</ele>
        <time>2021-08-28T07:54:22Z</time>
      </trkpt>
      <trkpt lat="42.97245" lon="-0.24868">
        <ele>1529.8</ele>
        <time>2021-08-28T07:54:23Z</time>
      </trkpt>
      <trkpt lat="42.97244" lon="-0.24869">
        <ele>1530</ele>
        <time>2021-08-28T07:54:24Z</time>
      </trkpt>
      <trkpt lat="42.97242" lon="-0.24872">
        <ele>1530</ele>
        <time>2021-08-28T07:54:25Z</time>
      </trkpt>
      <trkpt lat="42.97241" lon="-0.24873">
        <ele>1530.2</ele>
        <time>2021-08-28T07:54:26Z</time>
      </trkpt>
      <trkpt lat="42.9724" lon="-0.24875">
        <ele>1530.4</ele>
        <time>2021-08-28T07:54:27Z</time>
      </trkpt>
      <trkpt lat="42.97238" lon="-0.24877">
        <ele>1530.6</ele>
        <time>2021-08-28T07:54:28Z</time>
      </trkpt>
      <trkpt lat="42.97236" lon="-0.24879">
        <ele>1530.6</ele>
        <time>2021-08-28T07:54:29Z</time>
      </trkpt>
      <trkpt lat="42.97225" lon="-0.24892">
        <ele>1531.4</ele>
        <time>2021-08-28T07:54:34Z</time>
      </trkpt>
      <trkpt lat="42.97223" lon="-0.24895">
        <ele>1531.4</ele>
        <time>2021-08-28T07:54:35Z</time>
      </trkpt>
      <trkpt lat="42.97219" lon="-0.249">
        <ele>1531.4</ele>
        <time>2021-08-28T07:54:36Z</time>
      </trkpt>
      <trkpt lat="42.97215" lon="-0.24904">
        <ele>1531.4</ele>
        <time>2021-08-28T07:54:37Z</time>
      </trkpt>
      <trkpt lat="42.97211" lon="-0.24908">
        <ele>1531.4</ele>
        <time>2021-08-28T07:54:38Z</time>
      </trkpt>
      <trkpt lat="42.97207" lon="-0.24913">
        <ele>1531.4</ele>
        <time>2021-08-28T07:54:39Z</time>
      </trkpt>
      <trkpt lat="42.97204" lon="-0.24921">
        <ele>1531.4</ele>
        <time>2021-08-28T07:54:40Z</time>
      </trkpt>
      <trkpt lat="42.97202" lon="-0.24928">
        <ele>1531.2</ele>
        <time>2021-08-28T07:54:41Z</time>
      </trkpt>
      <trkpt lat="42.972" lon="-0.24935">
        <ele>1530.6</ele>
        <time>2021-08-28T07:54:42Z</time>
      </trkpt>
      <trkpt lat="42.97199" lon="-0.24941">
        <ele>1530.4</ele>
        <time>2021-08-28T07:54:43Z</time>
      </trkpt>
      <trkpt lat="42.97198" lon="-0.24947">
        <ele>1530.2</ele>
        <time>2021-08-28T07:54:44Z</time>
      </trkpt>
      <trkpt lat="42.97197" lon="-0.24953">
        <ele>1530.2</ele>
        <time>2021-08-28T07:54:45Z</time>
      </trkpt>
      <trkpt lat="42.97196" lon="-0.24956">
        <ele>1530</ele>
        <time>2021-08-28T07:54:46Z</time>
      </trkpt>
      <trkpt lat="42.97195" lon="-0.24961">
        <ele>1530</ele>
        <time>2021-08-28T07:54:47Z</time>
      </trkpt>
      <trkpt lat="42.97194" lon="-0.24965">
        <ele>1530</ele>
        <time>2021-08-28T07:54:48Z</time>
      </trkpt>
      <trkpt lat="42.97192" lon="-0.24969">
        <ele>1530</ele>
        <time>2021-08-28T07:54:49Z</time>
      </trkpt>
      <trkpt lat="42.97188" lon="-0.24988">
        <ele>1530.2</ele>
        <time>2021-08-28T07:54:53Z</time>
      </trkpt>
      <trkpt lat="42.97187" lon="-0.24992">
        <ele>1530.2</ele>
        <time>2021-08-28T07:54:54Z</time>
      </trkpt>
      <trkpt lat="42.97187" lon="-0.24997">
        <ele>1530.2</ele>
        <time>2021-08-28T07:54:55Z</time>
      </trkpt>
      <trkpt lat="42.97185" lon="-0.25028">
        <ele>1530.6</ele>
        <time>2021-08-28T07:55:00Z</time>
      </trkpt>
      <trkpt lat="42.97184" lon="-0.25034">
        <ele>1530.6</ele>
        <time>2021-08-28T07:55:01Z</time>
      </trkpt>
      <trkpt lat="42.97179" lon="-0.25077">
        <ele>1530.2</ele>
        <time>2021-08-28T07:55:08Z</time>
      </trkpt>
      <trkpt lat="42.97178" lon="-0.25083">
        <ele>1530.2</ele>
        <time>2021-08-28T07:55:09Z</time>
      </trkpt>
      <trkpt lat="42.97177" lon="-0.25088">
        <ele>1530.2</ele>
        <time>2021-08-28T07:55:10Z</time>
      </trkpt>
      <trkpt lat="42.97176" lon="-0.25095">
        <ele>1530.2</ele>
        <time>2021-08-28T07:55:11Z</time>
      </trkpt>
      <trkpt lat="42.97175" lon="-0.25099">
        <ele>1530.6</ele>
        <time>2021-08-28T07:55:12Z</time>
      </trkpt>
      <trkpt lat="42.97174" lon="-0.25105">
        <ele>1530.6</ele>
        <time>2021-08-28T07:55:13Z</time>
      </trkpt>
      <trkpt lat="42.97173" lon="-0.25109">
        <ele>1530.6</ele>
        <time>2021-08-28T07:55:14Z</time>
      </trkpt>
      <trkpt lat="42.97173" lon="-0.25114">
        <ele>1530.8</ele>
        <time>2021-08-28T07:55:15Z</time>
      </trkpt>
      <trkpt lat="42.97172" lon="-0.25118">
        <ele>1531</ele>
        <time>2021-08-28T07:55:16Z</time>
      </trkpt>
      <trkpt lat="42.97172" lon="-0.25123">
        <ele>1531</ele>
        <time>2021-08-28T07:55:17Z</time>
      </trkpt>
      <trkpt lat="42.97171" lon="-0.25128">
        <ele>1531.4</ele>
        <time>2021-08-28T07:55:18Z</time>
      </trkpt>
      <trkpt lat="42.97171" lon="-0.25133">
        <ele>1531.4</ele>
        <time>2021-08-28T07:55:19Z</time>
      </trkpt>
      <trkpt lat="42.97173" lon="-0.25147">
        <ele>1531.4</ele>
        <time>2021-08-28T07:55:21Z</time>
      </trkpt>
      <trkpt lat="42.97175" lon="-0.25158">
        <ele>1531.6</ele>
        <time>2021-08-28T07:55:23Z</time>
      </trkpt>
      <trkpt lat="42.97177" lon="-0.25165">
        <ele>1531.6</ele>
        <time>2021-08-28T07:55:24Z</time>
      </trkpt>
      <trkpt lat="42.97183" lon="-0.25193">
        <ele>1531.2</ele>
        <time>2021-08-28T07:55:28Z</time>
      </trkpt>
      <trkpt lat="42.97191" lon="-0.25224">
        <ele>1530.4</ele>
        <time>2021-08-28T07:55:32Z</time>
      </trkpt>
      <trkpt lat="42.97197" lon="-0.2524">
        <ele>1530.2</ele>
        <time>2021-08-28T07:55:34Z</time>
      </trkpt>
      <trkpt lat="42.972" lon="-0.2525">
        <ele>1530</ele>
        <time>2021-08-28T07:55:35Z</time>
      </trkpt>
      <trkpt lat="42.97206" lon="-0.25278">
        <ele>1529.4</ele>
        <time>2021-08-28T07:55:38Z</time>
      </trkpt>
      <trkpt lat="42.97207" lon="-0.25288">
        <ele>1529.2</ele>
        <time>2021-08-28T07:55:39Z</time>
      </trkpt>
      <trkpt lat="42.97207" lon="-0.25298">
        <ele>1528.8</ele>
        <time>2021-08-28T07:55:40Z</time>
      </trkpt>
      <trkpt lat="42.97207" lon="-0.25308">
        <ele>1528.4</ele>
        <time>2021-08-28T07:55:41Z</time>
      </trkpt>
      <trkpt lat="42.97207" lon="-0.25317">
        <ele>1528</ele>
        <time>2021-08-28T07:55:42Z</time>
      </trkpt>
      <trkpt lat="42.97206" lon="-0.25326">
        <ele>1527.4</ele>
        <time>2021-08-28T07:55:43Z</time>
      </trkpt>
      <trkpt lat="42.97206" lon="-0.25334">
        <ele>1527.4</ele>
        <time>2021-08-28T07:55:44Z</time>
      </trkpt>
      <trkpt lat="42.97205" lon="-0.25342">
        <ele>1527</ele>
        <time>2021-08-28T07:55:45Z</time>
      </trkpt>
      <trkpt lat="42.97205" lon="-0.2535">
        <ele>1526.8</ele>
        <time>2021-08-28T07:55:46Z</time>
      </trkpt>
      <trkpt lat="42.97203" lon="-0.25368">
        <ele>1526.6</ele>
        <time>2021-08-28T07:55:48Z</time>
      </trkpt>
      <trkpt lat="42.97202" lon="-0.25378">
        <ele>1526.4</ele>
        <time>2021-08-28T07:55:49Z</time>
      </trkpt>
      <trkpt lat="42.97196" lon="-0.25408">
        <ele>1525.6</ele>
        <time>2021-08-28T07:55:52Z</time>
      </trkpt>
      <trkpt lat="42.97193" lon="-0.25419">
        <ele>1525.2</ele>
        <time>2021-08-28T07:55:53Z</time>
      </trkpt>
      <trkpt lat="42.97181" lon="-0.25449">
        <ele>1523.8</ele>
        <time>2021-08-28T07:55:56Z</time>
      </trkpt>
      <trkpt lat="42.97177" lon="-0.25459">
        <ele>1523.2</ele>
        <time>2021-08-28T07:55:57Z</time>
      </trkpt>
      <trkpt lat="42.97173" lon="-0.2547">
        <ele>1522.4</ele>
        <time>2021-08-28T07:55:58Z</time>
      </trkpt>
      <trkpt lat="42.97165" lon="-0.25492">
        <ele>1521.4</ele>
        <time>2021-08-28T07:56:00Z</time>
      </trkpt>
      <trkpt lat="42.97154" lon="-0.25525">
        <ele>1520.6</ele>
        <time>2021-08-28T07:56:03Z</time>
      </trkpt>
      <trkpt lat="42.9715" lon="-0.25537">
        <ele>1520.2</ele>
        <time>2021-08-28T07:56:04Z</time>
      </trkpt>
      <trkpt lat="42.97146" lon="-0.25547">
        <ele>1519.6</ele>
        <time>2021-08-28T07:56:05Z</time>
      </trkpt>
      <trkpt lat="42.97143" lon="-0.25554">
        <ele>1519.4</ele>
        <time>2021-08-28T07:56:06Z</time>
      </trkpt>
      <trkpt lat="42.97139" lon="-0.25563">
        <ele>1519</ele>
        <time>2021-08-28T07:56:07Z</time>
      </trkpt>
      <trkpt lat="42.97135" lon="-0.25571">
        <ele>1518.8</ele>
        <time>2021-08-28T07:56:08Z</time>
      </trkpt>
      <trkpt lat="42.9713" lon="-0.25576">
        <ele>1518.4</ele>
        <time>2021-08-28T07:56:09Z</time>
      </trkpt>
      <trkpt lat="42.97126" lon="-0.25579">
        <ele>1518.2</ele>
        <time>2021-08-28T07:56:10Z</time>
      </trkpt>
      <trkpt lat="42.97121" lon="-0.25582">
        <ele>1518</ele>
        <time>2021-08-28T07:56:11Z</time>
      </trkpt>
      <trkpt lat="42.97116" lon="-0.2559">
        <ele>1518</ele>
        <time>2021-08-28T07:56:12Z</time>
      </trkpt>
      <trkpt lat="42.97115" lon="-0.25596">
        <ele>1517.8</ele>
        <time>2021-08-28T07:56:13Z</time>
      </trkpt>
      <trkpt lat="42.97114" lon="-0.25604">
        <ele>1517.6</ele>
        <time>2021-08-28T07:56:14Z</time>
      </trkpt>
      <trkpt lat="42.97114" lon="-0.2561">
        <ele>1517</ele>
        <time>2021-08-28T07:56:15Z</time>
      </trkpt>
      <trkpt lat="42.97118" lon="-0.25615">
        <ele>1517</ele>
        <time>2021-08-28T07:56:16Z</time>
      </trkpt>
      <trkpt lat="42.97121" lon="-0.2562">
        <ele>1516.8</ele>
        <time>2021-08-28T07:56:17Z</time>
      </trkpt>
      <trkpt lat="42.97124" lon="-0.25626">
        <ele>1516.6</ele>
        <time>2021-08-28T07:56:18Z</time>
      </trkpt>
      <trkpt lat="42.97126" lon="-0.25631">
        <ele>1516.6</ele>
        <time>2021-08-28T07:56:19Z</time>
      </trkpt>
      <trkpt lat="42.97127" lon="-0.25637">
        <ele>1516.6</ele>
        <time>2021-08-28T07:56:20Z</time>
      </trkpt>
      <trkpt lat="42.9713" lon="-0.25655">
        <ele>1516.6</ele>
        <time>2021-08-28T07:56:23Z</time>
      </trkpt>
      <trkpt lat="42.97131" lon="-0.25661">
        <ele>1516.6</ele>
        <time>2021-08-28T07:56:24Z</time>
      </trkpt>
      <trkpt lat="42.97133" lon="-0.25678">
        <ele>1516.8</ele>
        <time>2021-08-28T07:56:27Z</time>
      </trkpt>
      <trkpt lat="42.97133" lon="-0.25682">
        <ele>1516.8</ele>
        <time>2021-08-28T07:56:28Z</time>
      </trkpt>
      <trkpt lat="42.97133" lon="-0.25687">
        <ele>1517</ele>
        <time>2021-08-28T07:56:29Z</time>
      </trkpt>
      <trkpt lat="42.97133" lon="-0.25691">
        <ele>1517.2</ele>
        <time>2021-08-28T07:56:30Z</time>
      </trkpt>
      <trkpt lat="42.97133" lon="-0.25695">
        <ele>1517.2</ele>
        <time>2021-08-28T07:56:31Z</time>
      </trkpt>
      <trkpt lat="42.97132" lon="-0.25699">
        <ele>1517.2</ele>
        <time>2021-08-28T07:56:32Z</time>
      </trkpt>
      <trkpt lat="42.97131" lon="-0.25702">
        <ele>1517.4</ele>
        <time>2021-08-28T07:56:33Z</time>
      </trkpt>
      <trkpt lat="42.9713" lon="-0.25707">
        <ele>1517.6</ele>
        <time>2021-08-28T07:56:34Z</time>
      </trkpt>
      <trkpt lat="42.9713" lon="-0.25709">
        <ele>1517.8</ele>
        <time>2021-08-28T07:56:35Z</time>
      </trkpt>
      <trkpt lat="42.97129" lon="-0.25713">
        <ele>1518.4</ele>
        <time>2021-08-28T07:56:36Z</time>
      </trkpt>
      <trkpt lat="42.97128" lon="-0.25719">
        <ele>1519.2</ele>
        <time>2021-08-28T07:56:38Z</time>
      </trkpt>
      <trkpt lat="42.97127" lon="-0.25722">
        <ele>1519.4</ele>
        <time>2021-08-28T07:56:39Z</time>
      </trkpt>
      <trkpt lat="42.97126" lon="-0.25725">
        <ele>1519.8</ele>
        <time>2021-08-28T07:56:40Z</time>
      </trkpt>
      <trkpt lat="42.97125" lon="-0.25728">
        <ele>1520</ele>
        <time>2021-08-28T07:56:41Z</time>
      </trkpt>
      <trkpt lat="42.97124" lon="-0.25731">
        <ele>1520.4</ele>
        <time>2021-08-28T07:56:42Z</time>
      </trkpt>
      <trkpt lat="42.97123" lon="-0.25734">
        <ele>1520.6</ele>
        <time>2021-08-28T07:56:43Z</time>
      </trkpt>
      <trkpt lat="42.97122" lon="-0.25737">
        <ele>1521</ele>
        <time>2021-08-28T07:56:44Z</time>
      </trkpt>
      <trkpt lat="42.97121" lon="-0.2574">
        <ele>1521.6</ele>
        <time>2021-08-28T07:56:45Z</time>
      </trkpt>
      <trkpt lat="42.9712" lon="-0.25743">
        <ele>1521.8</ele>
        <time>2021-08-28T07:56:46Z</time>
      </trkpt>
      <trkpt lat="42.97119" lon="-0.25746">
        <ele>1522.2</ele>
        <time>2021-08-28T07:56:47Z</time>
      </trkpt>
      <trkpt lat="42.97118" lon="-0.25749">
        <ele>1522.2</ele>
        <time>2021-08-28T07:56:48Z</time>
      </trkpt>
      <trkpt lat="42.97116" lon="-0.25752">
        <ele>1522.4</ele>
        <time>2021-08-28T07:56:49Z</time>
      </trkpt>
      <trkpt lat="42.97115" lon="-0.25755">
        <ele>1522.6</ele>
        <time>2021-08-28T07:56:50Z</time>
      </trkpt>
      <trkpt lat="42.97114" lon="-0.25759">
        <ele>1522.8</ele>
        <time>2021-08-28T07:56:51Z</time>
      </trkpt>
      <trkpt lat="42.97112" lon="-0.25763">
        <ele>1522.8</ele>
        <time>2021-08-28T07:56:52Z</time>
      </trkpt>
      <trkpt lat="42.97111" lon="-0.25767">
        <ele>1523</ele>
        <time>2021-08-28T07:56:53Z</time>
      </trkpt>
      <trkpt lat="42.97111" lon="-0.25771">
        <ele>1523.2</ele>
        <time>2021-08-28T07:56:54Z</time>
      </trkpt>
      <trkpt lat="42.9711" lon="-0.25775">
        <ele>1523.4</ele>
        <time>2021-08-28T07:56:55Z</time>
      </trkpt>
      <trkpt lat="42.97109" lon="-0.2578">
        <ele>1523.4</ele>
        <time>2021-08-28T07:56:56Z</time>
      </trkpt>
      <trkpt lat="42.97109" lon="-0.25785">
        <ele>1523.6</ele>
        <time>2021-08-28T07:56:57Z</time>
      </trkpt>
      <trkpt lat="42.97109" lon="-0.25789">
        <ele>1523.6</ele>
        <time>2021-08-28T07:56:58Z</time>
      </trkpt>
      <trkpt lat="42.97109" lon="-0.25794">
        <ele>1523.8</ele>
        <time>2021-08-28T07:56:59Z</time>
      </trkpt>
      <trkpt lat="42.97108" lon="-0.25799">
        <ele>1523.8</ele>
        <time>2021-08-28T07:57:00Z</time>
      </trkpt>
      <trkpt lat="42.97108" lon="-0.25805">
        <ele>1523.8</ele>
        <time>2021-08-28T07:57:01Z</time>
      </trkpt>
      <trkpt lat="42.97107" lon="-0.2581">
        <ele>1524</ele>
        <time>2021-08-28T07:57:02Z</time>
      </trkpt>
      <trkpt lat="42.97107" lon="-0.25817">
        <ele>1524</ele>
        <time>2021-08-28T07:57:03Z</time>
      </trkpt>
      <trkpt lat="42.97108" lon="-0.25823">
        <ele>1524</ele>
        <time>2021-08-28T07:57:04Z</time>
      </trkpt>
      <trkpt lat="42.97109" lon="-0.25828">
        <ele>1524</ele>
        <time>2021-08-28T07:57:05Z</time>
      </trkpt>
      <trkpt lat="42.97111" lon="-0.25832">
        <ele>1524</ele>
        <time>2021-08-28T07:57:06Z</time>
      </trkpt>
      <trkpt lat="42.97113" lon="-0.25835">
        <ele>1524.2</ele>
        <time>2021-08-28T07:57:07Z</time>
      </trkpt>
      <trkpt lat="42.97115" lon="-0.25837">
        <ele>1524.2</ele>
        <time>2021-08-28T07:57:08Z</time>
      </trkpt>
      <trkpt lat="42.97117" lon="-0.25839">
        <ele>1524.2</ele>
        <time>2021-08-28T07:57:09Z</time>
      </trkpt>
      <trkpt lat="42.97119" lon="-0.25842">
        <ele>1524.2</ele>
        <time>2021-08-28T07:57:10Z</time>
      </trkpt>
      <trkpt lat="42.97121" lon="-0.25843">
        <ele>1524.2</ele>
        <time>2021-08-28T07:57:11Z</time>
      </trkpt>
      <trkpt lat="42.97123" lon="-0.25845">
        <ele>1524.4</ele>
        <time>2021-08-28T07:57:12Z</time>
      </trkpt>
      <trkpt lat="42.97125" lon="-0.25847">
        <ele>1524.6</ele>
        <time>2021-08-28T07:57:13Z</time>
      </trkpt>
      <trkpt lat="42.97127" lon="-0.25849">
        <ele>1524.8</ele>
        <time>2021-08-28T07:57:14Z</time>
      </trkpt>
      <trkpt lat="42.97129" lon="-0.25852">
        <ele>1524.8</ele>
        <time>2021-08-28T07:57:15Z</time>
      </trkpt>
      <trkpt lat="42.9713" lon="-0.25855">
        <ele>1525</ele>
        <time>2021-08-28T07:57:16Z</time>
      </trkpt>
      <trkpt lat="42.97132" lon="-0.25858">
        <ele>1525</ele>
        <time>2021-08-28T07:57:17Z</time>
      </trkpt>
      <trkpt lat="42.97133" lon="-0.25861">
        <ele>1525.2</ele>
        <time>2021-08-28T07:57:18Z</time>
      </trkpt>
      <trkpt lat="42.97134" lon="-0.25864">
        <ele>1525.4</ele>
        <time>2021-08-28T07:57:19Z</time>
      </trkpt>
      <trkpt lat="42.97134" lon="-0.25867">
        <ele>1525.6</ele>
        <time>2021-08-28T07:57:20Z</time>
      </trkpt>
      <trkpt lat="42.97135" lon="-0.25871">
        <ele>1525.6</ele>
        <time>2021-08-28T07:57:21Z</time>
      </trkpt>
      <trkpt lat="42.97136" lon="-0.25875">
        <ele>1525.8</ele>
        <time>2021-08-28T07:57:22Z</time>
      </trkpt>
      <trkpt lat="42.97136" lon="-0.25878">
        <ele>1525.8</ele>
        <time>2021-08-28T07:57:23Z</time>
      </trkpt>
      <trkpt lat="42.97137" lon="-0.25881">
        <ele>1526</ele>
        <time>2021-08-28T07:57:24Z</time>
      </trkpt>
      <trkpt lat="42.97138" lon="-0.25884">
        <ele>1526.2</ele>
        <time>2021-08-28T07:57:25Z</time>
      </trkpt>
      <trkpt lat="42.97139" lon="-0.25887">
        <ele>1526.4</ele>
        <time>2021-08-28T07:57:26Z</time>
      </trkpt>
      <trkpt lat="42.9714" lon="-0.2589">
        <ele>1526.6</ele>
        <time>2021-08-28T07:57:27Z</time>
      </trkpt>
      <trkpt lat="42.97141" lon="-0.25893">
        <ele>1526.6</ele>
        <time>2021-08-28T07:57:28Z</time>
      </trkpt>
      <trkpt lat="42.97142" lon="-0.25896">
        <ele>1526.6</ele>
        <time>2021-08-28T07:57:29Z</time>
      </trkpt>
      <trkpt lat="42.97143" lon="-0.25898">
        <ele>1526.8</ele>
        <time>2021-08-28T07:57:30Z</time>
      </trkpt>
      <trkpt lat="42.97144" lon="-0.25901">
        <ele>1527</ele>
        <time>2021-08-28T07:57:31Z</time>
      </trkpt>
      <trkpt lat="42.97146" lon="-0.25903">
        <ele>1527</ele>
        <time>2021-08-28T07:57:32Z</time>
      </trkpt>
      <trkpt lat="42.97147" lon="-0.25906">
        <ele>1527.4</ele>
        <time>2021-08-28T07:57:33Z</time>
      </trkpt>
      <trkpt lat="42.97149" lon="-0.25908">
        <ele>1527.4</ele>
        <time>2021-08-28T07:57:34Z</time>
      </trkpt>
      <trkpt lat="42.97151" lon="-0.2591">
        <ele>1527.4</ele>
        <time>2021-08-28T07:57:35Z</time>
      </trkpt>
      <trkpt lat="42.97152" lon="-0.25913">
        <ele>1527.6</ele>
        <time>2021-08-28T07:57:36Z</time>
      </trkpt>
      <trkpt lat="42.97154" lon="-0.25916">
        <ele>1527.6</ele>
        <time>2021-08-28T07:57:37Z</time>
      </trkpt>
      <trkpt lat="42.97155" lon="-0.25918">
        <ele>1527.8</ele>
        <time>2021-08-28T07:57:38Z</time>
      </trkpt>
      <trkpt lat="42.97157" lon="-0.25921">
        <ele>1528</ele>
        <time>2021-08-28T07:57:39Z</time>
      </trkpt>
      <trkpt lat="42.97158" lon="-0.25924">
        <ele>1528</ele>
        <time>2021-08-28T07:57:40Z</time>
      </trkpt>
      <trkpt lat="42.97159" lon="-0.25927">
        <ele>1528.2</ele>
        <time>2021-08-28T07:57:41Z</time>
      </trkpt>
      <trkpt lat="42.9716" lon="-0.2593">
        <ele>1528.4</ele>
        <time>2021-08-28T07:57:42Z</time>
      </trkpt>
      <trkpt lat="42.97161" lon="-0.25933">
        <ele>1528.4</ele>
        <time>2021-08-28T07:57:43Z</time>
      </trkpt>
      <trkpt lat="42.97162" lon="-0.25937">
        <ele>1528.6</ele>
        <time>2021-08-28T07:57:44Z</time>
      </trkpt>
      <trkpt lat="42.97163" lon="-0.2594">
        <ele>1528.6</ele>
        <time>2021-08-28T07:57:45Z</time>
      </trkpt>
      <trkpt lat="42.97164" lon="-0.25944">
        <ele>1528.8</ele>
        <time>2021-08-28T07:57:46Z</time>
      </trkpt>
      <trkpt lat="42.97165" lon="-0.25947">
        <ele>1528.8</ele>
        <time>2021-08-28T07:57:47Z</time>
      </trkpt>
      <trkpt lat="42.97166" lon="-0.25951">
        <ele>1528.8</ele>
        <time>2021-08-28T07:57:48Z</time>
      </trkpt>
      <trkpt lat="42.97167" lon="-0.25955">
        <ele>1528.8</ele>
        <time>2021-08-28T07:57:49Z</time>
      </trkpt>
      <trkpt lat="42.97168" lon="-0.2596">
        <ele>1528.8</ele>
        <time>2021-08-28T07:57:50Z</time>
      </trkpt>
      <trkpt lat="42.97169" lon="-0.25964">
        <ele>1528.8</ele>
        <time>2021-08-28T07:57:51Z</time>
      </trkpt>
      <trkpt lat="42.9717" lon="-0.25968">
        <ele>1529</ele>
        <time>2021-08-28T07:57:52Z</time>
      </trkpt>
      <trkpt lat="42.97171" lon="-0.25971">
        <ele>1529</ele>
        <time>2021-08-28T07:57:53Z</time>
      </trkpt>
      <trkpt lat="42.97173" lon="-0.25976">
        <ele>1529</ele>
        <time>2021-08-28T07:57:54Z</time>
      </trkpt>
      <trkpt lat="42.97175" lon="-0.2598">
        <ele>1529</ele>
        <time>2021-08-28T07:57:55Z</time>
      </trkpt>
      <trkpt lat="42.97177" lon="-0.25985">
        <ele>1529</ele>
        <time>2021-08-28T07:57:56Z</time>
      </trkpt>
      <trkpt lat="42.9718" lon="-0.25996">
        <ele>1529</ele>
        <time>2021-08-28T07:57:58Z</time>
      </trkpt>
      <trkpt lat="42.97182" lon="-0.26003">
        <ele>1529</ele>
        <time>2021-08-28T07:57:59Z</time>
      </trkpt>
      <trkpt lat="42.97193" lon="-0.26045">
        <ele>1528</ele>
        <time>2021-08-28T07:58:04Z</time>
      </trkpt>
      <trkpt lat="42.97199" lon="-0.26073">
        <ele>1526.8</ele>
        <time>2021-08-28T07:58:07Z</time>
      </trkpt>
      <trkpt lat="42.97201" lon="-0.26093">
        <ele>1525.4</ele>
        <time>2021-08-28T07:58:09Z</time>
      </trkpt>
      <trkpt lat="42.97202" lon="-0.26104">
        <ele>1525</ele>
        <time>2021-08-28T07:58:10Z</time>
      </trkpt>
      <trkpt lat="42.97203" lon="-0.26114">
        <ele>1524</ele>
        <time>2021-08-28T07:58:11Z</time>
      </trkpt>
      <trkpt lat="42.97205" lon="-0.26145">
        <ele>1523</ele>
        <time>2021-08-28T07:58:14Z</time>
      </trkpt>
      <trkpt lat="42.97204" lon="-0.26167">
        <ele>1522.2</ele>
        <time>2021-08-28T07:58:16Z</time>
      </trkpt>
      <trkpt lat="42.97204" lon="-0.26179">
        <ele>1521.2</ele>
        <time>2021-08-28T07:58:17Z</time>
      </trkpt>
      <trkpt lat="42.97203" lon="-0.26205">
        <ele>1520</ele>
        <time>2021-08-28T07:58:19Z</time>
      </trkpt>
      <trkpt lat="42.97202" lon="-0.26218">
        <ele>1519.2</ele>
        <time>2021-08-28T07:58:20Z</time>
      </trkpt>
      <trkpt lat="42.97201" lon="-0.26231">
        <ele>1517.8</ele>
        <time>2021-08-28T07:58:21Z</time>
      </trkpt>
      <trkpt lat="42.972" lon="-0.26244">
        <ele>1517.4</ele>
        <time>2021-08-28T07:58:22Z</time>
      </trkpt>
      <trkpt lat="42.97199" lon="-0.26257">
        <ele>1516.2</ele>
        <time>2021-08-28T07:58:23Z</time>
      </trkpt>
      <trkpt lat="42.97197" lon="-0.26269">
        <ele>1515.8</ele>
        <time>2021-08-28T07:58:24Z</time>
      </trkpt>
      <trkpt lat="42.97197" lon="-0.2628">
        <ele>1513.8</ele>
        <time>2021-08-28T07:58:25Z</time>
      </trkpt>
      <trkpt lat="42.97198" lon="-0.26291">
        <ele>1513.2</ele>
        <time>2021-08-28T07:58:26Z</time>
      </trkpt>
      <trkpt lat="42.97198" lon="-0.26302">
        <ele>1512.2</ele>
        <time>2021-08-28T07:58:27Z</time>
      </trkpt>
      <trkpt lat="42.97198" lon="-0.26313">
        <ele>1511.2</ele>
        <time>2021-08-28T07:58:28Z</time>
      </trkpt>
      <trkpt lat="42.97198" lon="-0.26336">
        <ele>1509</ele>
        <time>2021-08-28T07:58:30Z</time>
      </trkpt>
      <trkpt lat="42.97198" lon="-0.26347">
        <ele>1508.6</ele>
        <time>2021-08-28T07:58:31Z</time>
      </trkpt>
      <trkpt lat="42.97198" lon="-0.26357">
        <ele>1508</ele>
        <time>2021-08-28T07:58:32Z</time>
      </trkpt>
      <trkpt lat="42.97197" lon="-0.26367">
        <ele>1507.8</ele>
        <time>2021-08-28T07:58:33Z</time>
      </trkpt>
      <trkpt lat="42.97197" lon="-0.26378">
        <ele>1506.4</ele>
        <time>2021-08-28T07:58:34Z</time>
      </trkpt>
      <trkpt lat="42.97197" lon="-0.26388">
        <ele>1505.6</ele>
        <time>2021-08-28T07:58:35Z</time>
      </trkpt>
      <trkpt lat="42.97198" lon="-0.26398">
        <ele>1504.6</ele>
        <time>2021-08-28T07:58:36Z</time>
      </trkpt>
      <trkpt lat="42.972" lon="-0.26409">
        <ele>1504.4</ele>
        <time>2021-08-28T07:58:37Z</time>
      </trkpt>
      <trkpt lat="42.97202" lon="-0.26419">
        <ele>1503.6</ele>
        <time>2021-08-28T07:58:38Z</time>
      </trkpt>
      <trkpt lat="42.97205" lon="-0.26428">
        <ele>1503</ele>
        <time>2021-08-28T07:58:39Z</time>
      </trkpt>
      <trkpt lat="42.9721" lon="-0.26437">
        <ele>1502.2</ele>
        <time>2021-08-28T07:58:40Z</time>
      </trkpt>
      <trkpt lat="42.97215" lon="-0.26445">
        <ele>1502</ele>
        <time>2021-08-28T07:58:41Z</time>
      </trkpt>
      <trkpt lat="42.9722" lon="-0.26453">
        <ele>1500.8</ele>
        <time>2021-08-28T07:58:42Z</time>
      </trkpt>
      <trkpt lat="42.97227" lon="-0.26471">
        <ele>1500</ele>
        <time>2021-08-28T07:58:44Z</time>
      </trkpt>
      <trkpt lat="42.9723" lon="-0.26481">
        <ele>1499.6</ele>
        <time>2021-08-28T07:58:45Z</time>
      </trkpt>
      <trkpt lat="42.97232" lon="-0.26491">
        <ele>1499.4</ele>
        <time>2021-08-28T07:58:46Z</time>
      </trkpt>
      <trkpt lat="42.97234" lon="-0.26512">
        <ele>1498.6</ele>
        <time>2021-08-28T07:58:48Z</time>
      </trkpt>
      <trkpt lat="42.97234" lon="-0.26532">
        <ele>1498</ele>
        <time>2021-08-28T07:58:50Z</time>
      </trkpt>
      <trkpt lat="42.97233" lon="-0.2654">
        <ele>1497.6</ele>
        <time>2021-08-28T07:58:51Z</time>
      </trkpt>
      <trkpt lat="42.97231" lon="-0.26548">
        <ele>1497.4</ele>
        <time>2021-08-28T07:58:52Z</time>
      </trkpt>
      <trkpt lat="42.97229" lon="-0.26555">
        <ele>1496.6</ele>
        <time>2021-08-28T07:58:53Z</time>
      </trkpt>
      <trkpt lat="42.97229" lon="-0.26562">
        <ele>1496.4</ele>
        <time>2021-08-28T07:58:54Z</time>
      </trkpt>
      <trkpt lat="42.9723" lon="-0.26568">
        <ele>1496</ele>
        <time>2021-08-28T07:58:55Z</time>
      </trkpt>
      <trkpt lat="42.97232" lon="-0.26572">
        <ele>1495.8</ele>
        <time>2021-08-28T07:58:56Z</time>
      </trkpt>
      <trkpt lat="42.97235" lon="-0.26574">
        <ele>1495.6</ele>
        <time>2021-08-28T07:58:57Z</time>
      </trkpt>
      <trkpt lat="42.97237" lon="-0.26575">
        <ele>1495.6</ele>
        <time>2021-08-28T07:58:58Z</time>
      </trkpt>
      <trkpt lat="42.9724" lon="-0.26575">
        <ele>1495.4</ele>
        <time>2021-08-28T07:58:59Z</time>
      </trkpt>
      <trkpt lat="42.97242" lon="-0.26575">
        <ele>1495.2</ele>
        <time>2021-08-28T07:59:00Z</time>
      </trkpt>
      <trkpt lat="42.97245" lon="-0.26575">
        <ele>1495</ele>
        <time>2021-08-28T07:59:01Z</time>
      </trkpt>
      <trkpt lat="42.97254" lon="-0.26572">
        <ele>1494.6</ele>
        <time>2021-08-28T07:59:04Z</time>
      </trkpt>
      <trkpt lat="42.97262" lon="-0.26566">
        <ele>1494.4</ele>
        <time>2021-08-28T07:59:06Z</time>
      </trkpt>
      <trkpt lat="42.97266" lon="-0.26562">
        <ele>1494.2</ele>
        <time>2021-08-28T07:59:07Z</time>
      </trkpt>
      <trkpt lat="42.97269" lon="-0.26558">
        <ele>1494</ele>
        <time>2021-08-28T07:59:08Z</time>
      </trkpt>
      <trkpt lat="42.97274" lon="-0.26547">
        <ele>1493.4</ele>
        <time>2021-08-28T07:59:10Z</time>
      </trkpt>
      <trkpt lat="42.97276" lon="-0.26541">
        <ele>1493.2</ele>
        <time>2021-08-28T07:59:11Z</time>
      </trkpt>
      <trkpt lat="42.97276" lon="-0.26536">
        <ele>1493</ele>
        <time>2021-08-28T07:59:12Z</time>
      </trkpt>
      <trkpt lat="42.97277" lon="-0.2653">
        <ele>1492.8</ele>
        <time>2021-08-28T07:59:13Z</time>
      </trkpt>
      <trkpt lat="42.97278" lon="-0.26525">
        <ele>1492.2</ele>
        <time>2021-08-28T07:59:14Z</time>
      </trkpt>
      <trkpt lat="42.97279" lon="-0.26521">
        <ele>1492</ele>
        <time>2021-08-28T07:59:15Z</time>
      </trkpt>
      <trkpt lat="42.97281" lon="-0.26517">
        <ele>1491.4</ele>
        <time>2021-08-28T07:59:16Z</time>
      </trkpt>
      <trkpt lat="42.97283" lon="-0.26514">
        <ele>1491</ele>
        <time>2021-08-28T07:59:17Z</time>
      </trkpt>
      <trkpt lat="42.97286" lon="-0.26511">
        <ele>1490.4</ele>
        <time>2021-08-28T07:59:18Z</time>
      </trkpt>
      <trkpt lat="42.9729" lon="-0.2651">
        <ele>1490.2</ele>
        <time>2021-08-28T07:59:19Z</time>
      </trkpt>
      <trkpt lat="42.973" lon="-0.26513">
        <ele>1489</ele>
        <time>2021-08-28T07:59:22Z</time>
      </trkpt>
      <trkpt lat="42.97305" lon="-0.26515">
        <ele>1488.6</ele>
        <time>2021-08-28T07:59:23Z</time>
      </trkpt>
      <trkpt lat="42.9731" lon="-0.26517">
        <ele>1487.6</ele>
        <time>2021-08-28T07:59:24Z</time>
      </trkpt>
      <trkpt lat="42.97323" lon="-0.26517">
        <ele>1486.2</ele>
        <time>2021-08-28T07:59:26Z</time>
      </trkpt>
      <trkpt lat="42.97328" lon="-0.26517">
        <ele>1485.8</ele>
        <time>2021-08-28T07:59:27Z</time>
      </trkpt>
      <trkpt lat="42.97333" lon="-0.26519">
        <ele>1485</ele>
        <time>2021-08-28T07:59:28Z</time>
      </trkpt>
      <trkpt lat="42.97337" lon="-0.26524">
        <ele>1484</ele>
        <time>2021-08-28T07:59:29Z</time>
      </trkpt>
      <trkpt lat="42.97339" lon="-0.26531">
        <ele>1483.8</ele>
        <time>2021-08-28T07:59:30Z</time>
      </trkpt>
      <trkpt lat="42.9734" lon="-0.26538">
        <ele>1483</ele>
        <time>2021-08-28T07:59:31Z</time>
      </trkpt>
      <trkpt lat="42.97341" lon="-0.26546">
        <ele>1482.8</ele>
        <time>2021-08-28T07:59:32Z</time>
      </trkpt>
      <trkpt lat="42.97342" lon="-0.26554">
        <ele>1481.8</ele>
        <time>2021-08-28T07:59:33Z</time>
      </trkpt>
      <trkpt lat="42.97342" lon="-0.2656">
        <ele>1481.4</ele>
        <time>2021-08-28T07:59:34Z</time>
      </trkpt>
      <trkpt lat="42.97341" lon="-0.26566">
        <ele>1480.8</ele>
        <time>2021-08-28T07:59:35Z</time>
      </trkpt>
      <trkpt lat="42.9734" lon="-0.26572">
        <ele>1480.2</ele>
        <time>2021-08-28T07:59:36Z</time>
      </trkpt>
      <trkpt lat="42.97338" lon="-0.26578">
        <ele>1479.4</ele>
        <time>2021-08-28T07:59:37Z</time>
      </trkpt>
      <trkpt lat="42.97335" lon="-0.26589">
        <ele>1478.6</ele>
        <time>2021-08-28T07:59:39Z</time>
      </trkpt>
      <trkpt lat="42.97334" lon="-0.26594">
        <ele>1478.4</ele>
        <time>2021-08-28T07:59:40Z</time>
      </trkpt>
      <trkpt lat="42.97332" lon="-0.26598">
        <ele>1478</ele>
        <time>2021-08-28T07:59:41Z</time>
      </trkpt>
      <trkpt lat="42.97331" lon="-0.26603">
        <ele>1477.8</ele>
        <time>2021-08-28T07:59:42Z</time>
      </trkpt>
      <trkpt lat="42.97327" lon="-0.26615">
        <ele>1477</ele>
        <time>2021-08-28T07:59:44Z</time>
      </trkpt>
      <trkpt lat="42.97324" lon="-0.26621">
        <ele>1476.4</ele>
        <time>2021-08-28T07:59:45Z</time>
      </trkpt>
      <trkpt lat="42.9732" lon="-0.26628">
        <ele>1476.2</ele>
        <time>2021-08-28T07:59:46Z</time>
      </trkpt>
      <trkpt lat="42.97313" lon="-0.26642">
        <ele>1475.8</ele>
        <time>2021-08-28T07:59:48Z</time>
      </trkpt>
      <trkpt lat="42.97303" lon="-0.26657">
        <ele>1474.8</ele>
        <time>2021-08-28T07:59:50Z</time>
      </trkpt>
      <trkpt lat="42.97291" lon="-0.2667">
        <ele>1473.6</ele>
        <time>2021-08-28T07:59:52Z</time>
      </trkpt>
      <trkpt lat="42.97277" lon="-0.2668">
        <ele>1471.8</ele>
        <time>2021-08-28T07:59:54Z</time>
      </trkpt>
      <trkpt lat="42.97263" lon="-0.26691">
        <ele>1470.4</ele>
        <time>2021-08-28T07:59:56Z</time>
      </trkpt>
      <trkpt lat="42.97248" lon="-0.26701">
        <ele>1469.2</ele>
        <time>2021-08-28T07:59:58Z</time>
      </trkpt>
      <trkpt lat="42.9724" lon="-0.26705">
        <ele>1468.6</ele>
        <time>2021-08-28T07:59:59Z</time>
      </trkpt>
      <trkpt lat="42.97231" lon="-0.26708">
        <ele>1467.8</ele>
        <time>2021-08-28T08:00:00Z</time>
      </trkpt>
      <trkpt lat="42.97206" lon="-0.26717">
        <ele>1467</ele>
        <time>2021-08-28T08:00:03Z</time>
      </trkpt>
      <trkpt lat="42.97197" lon="-0.26719">
        <ele>1466.8</ele>
        <time>2021-08-28T08:00:04Z</time>
      </trkpt>
      <trkpt lat="42.97188" lon="-0.26721">
        <ele>1466.8</ele>
        <time>2021-08-28T08:00:05Z</time>
      </trkpt>
      <trkpt lat="42.97171" lon="-0.26722">
        <ele>1466.2</ele>
        <time>2021-08-28T08:00:07Z</time>
      </trkpt>
      <trkpt lat="42.97163" lon="-0.26722">
        <ele>1466</ele>
        <time>2021-08-28T08:00:08Z</time>
      </trkpt>
      <trkpt lat="42.97155" lon="-0.26721">
        <ele>1465.2</ele>
        <time>2021-08-28T08:00:09Z</time>
      </trkpt>
      <trkpt lat="42.97148" lon="-0.26722">
        <ele>1464</ele>
        <time>2021-08-28T08:00:10Z</time>
      </trkpt>
      <trkpt lat="42.97142" lon="-0.26723">
        <ele>1463.6</ele>
        <time>2021-08-28T08:00:11Z</time>
      </trkpt>
      <trkpt lat="42.97136" lon="-0.26723">
        <ele>1462.8</ele>
        <time>2021-08-28T08:00:12Z</time>
      </trkpt>
      <trkpt lat="42.97129" lon="-0.26723">
        <ele>1462.2</ele>
        <time>2021-08-28T08:00:13Z</time>
      </trkpt>
      <trkpt lat="42.97125" lon="-0.26722">
        <ele>1462</ele>
        <time>2021-08-28T08:00:14Z</time>
      </trkpt>
      <trkpt lat="42.97118" lon="-0.26721">
        <ele>1461.4</ele>
        <time>2021-08-28T08:00:15Z</time>
      </trkpt>
      <trkpt lat="42.97113" lon="-0.2672">
        <ele>1461</ele>
        <time>2021-08-28T08:00:16Z</time>
      </trkpt>
      <trkpt lat="42.97108" lon="-0.26716">
        <ele>1460</ele>
        <time>2021-08-28T08:00:17Z</time>
      </trkpt>
      <trkpt lat="42.97105" lon="-0.26712">
        <ele>1459.6</ele>
        <time>2021-08-28T08:00:18Z</time>
      </trkpt>
      <trkpt lat="42.97102" lon="-0.26707">
        <ele>1459</ele>
        <time>2021-08-28T08:00:19Z</time>
      </trkpt>
      <trkpt lat="42.97099" lon="-0.267">
        <ele>1458.8</ele>
        <time>2021-08-28T08:00:20Z</time>
      </trkpt>
      <trkpt lat="42.97097" lon="-0.26694">
        <ele>1458.6</ele>
        <time>2021-08-28T08:00:21Z</time>
      </trkpt>
      <trkpt lat="42.97095" lon="-0.26687">
        <ele>1458.4</ele>
        <time>2021-08-28T08:00:22Z</time>
      </trkpt>
      <trkpt lat="42.97094" lon="-0.26682">
        <ele>1457.8</ele>
        <time>2021-08-28T08:00:23Z</time>
      </trkpt>
      <trkpt lat="42.97093" lon="-0.26675">
        <ele>1457.6</ele>
        <time>2021-08-28T08:00:24Z</time>
      </trkpt>
      <trkpt lat="42.97093" lon="-0.2667">
        <ele>1457</ele>
        <time>2021-08-28T08:00:25Z</time>
      </trkpt>
      <trkpt lat="42.97092" lon="-0.26665">
        <ele>1457</ele>
        <time>2021-08-28T08:00:26Z</time>
      </trkpt>
      <trkpt lat="42.97091" lon="-0.2666">
        <ele>1456.6</ele>
        <time>2021-08-28T08:00:27Z</time>
      </trkpt>
      <trkpt lat="42.9709" lon="-0.26656">
        <ele>1456.4</ele>
        <time>2021-08-28T08:00:28Z</time>
      </trkpt>
      <trkpt lat="42.97087" lon="-0.26645">
        <ele>1456.2</ele>
        <time>2021-08-28T08:00:30Z</time>
      </trkpt>
      <trkpt lat="42.97082" lon="-0.26635">
        <ele>1456</ele>
        <time>2021-08-28T08:00:32Z</time>
      </trkpt>
      <trkpt lat="42.97063" lon="-0.26601">
        <ele>1455.6</ele>
        <time>2021-08-28T08:00:38Z</time>
      </trkpt>
      <trkpt lat="42.9706" lon="-0.26595">
        <ele>1455.6</ele>
        <time>2021-08-28T08:00:39Z</time>
      </trkpt>
      <trkpt lat="42.97058" lon="-0.2659">
        <ele>1455.6</ele>
        <time>2021-08-28T08:00:40Z</time>
      </trkpt>
      <trkpt lat="42.97056" lon="-0.26586">
        <ele>1455.4</ele>
        <time>2021-08-28T08:00:41Z</time>
      </trkpt>
      <trkpt lat="42.9705" lon="-0.26568">
        <ele>1455.4</ele>
        <time>2021-08-28T08:00:44Z</time>
      </trkpt>
      <trkpt lat="42.97049" lon="-0.26563">
        <ele>1455.4</ele>
        <time>2021-08-28T08:00:45Z</time>
      </trkpt>
      <trkpt lat="42.97048" lon="-0.26558">
        <ele>1455.4</ele>
        <time>2021-08-28T08:00:46Z</time>
      </trkpt>
      <trkpt lat="42.97043" lon="-0.26538">
        <ele>1455.6</ele>
        <time>2021-08-28T08:00:49Z</time>
      </trkpt>
      <trkpt lat="42.97042" lon="-0.26531">
        <ele>1455.6</ele>
        <time>2021-08-28T08:00:50Z</time>
      </trkpt>
      <trkpt lat="42.97041" lon="-0.26523">
        <ele>1455.6</ele>
        <time>2021-08-28T08:00:51Z</time>
      </trkpt>
      <trkpt lat="42.97039" lon="-0.26506">
        <ele>1455.6</ele>
        <time>2021-08-28T08:00:53Z</time>
      </trkpt>
      <trkpt lat="42.97037" lon="-0.26498">
        <ele>1455.6</ele>
        <time>2021-08-28T08:00:54Z</time>
      </trkpt>
      <trkpt lat="42.97034" lon="-0.2649">
        <ele>1455.4</ele>
        <time>2021-08-28T08:00:55Z</time>
      </trkpt>
      <trkpt lat="42.9703" lon="-0.26483">
        <ele>1455.2</ele>
        <time>2021-08-28T08:00:56Z</time>
      </trkpt>
      <trkpt lat="42.97023" lon="-0.26469">
        <ele>1454.6</ele>
        <time>2021-08-28T08:00:58Z</time>
      </trkpt>
      <trkpt lat="42.97019" lon="-0.26463">
        <ele>1454.2</ele>
        <time>2021-08-28T08:00:59Z</time>
      </trkpt>
      <trkpt lat="42.97014" lon="-0.26459">
        <ele>1454</ele>
        <time>2021-08-28T08:01:00Z</time>
      </trkpt>
      <trkpt lat="42.97009" lon="-0.26456">
        <ele>1453.8</ele>
        <time>2021-08-28T08:01:01Z</time>
      </trkpt>
      <trkpt lat="42.97004" lon="-0.26453">
        <ele>1453.8</ele>
        <time>2021-08-28T08:01:02Z</time>
      </trkpt>
      <trkpt lat="42.96999" lon="-0.26451">
        <ele>1453.6</ele>
        <time>2021-08-28T08:01:03Z</time>
      </trkpt>
      <trkpt lat="42.96996" lon="-0.26449">
        <ele>1453.6</ele>
        <time>2021-08-28T08:01:04Z</time>
      </trkpt>
      <trkpt lat="42.96993" lon="-0.26447">
        <ele>1453.6</ele>
        <time>2021-08-28T08:01:05Z</time>
      </trkpt>
      <trkpt lat="42.9699" lon="-0.26445">
        <ele>1453.6</ele>
        <time>2021-08-28T08:01:06Z</time>
      </trkpt>
      <trkpt lat="42.96988" lon="-0.26442">
        <ele>1453.6</ele>
        <time>2021-08-28T08:01:07Z</time>
      </trkpt>
      <trkpt lat="42.96985" lon="-0.2644">
        <ele>1453.8</ele>
        <time>2021-08-28T08:01:08Z</time>
      </trkpt>
      <trkpt lat="42.96982" lon="-0.26438">
        <ele>1454</ele>
        <time>2021-08-28T08:01:09Z</time>
      </trkpt>
      <trkpt lat="42.96975" lon="-0.26435">
        <ele>1454.4</ele>
        <time>2021-08-28T08:01:11Z</time>
      </trkpt>
      <trkpt lat="42.96972" lon="-0.26436">
        <ele>1454.6</ele>
        <time>2021-08-28T08:01:12Z</time>
      </trkpt>
      <trkpt lat="42.96969" lon="-0.26437">
        <ele>1454.8</ele>
        <time>2021-08-28T08:01:13Z</time>
      </trkpt>
      <trkpt lat="42.96966" lon="-0.26439">
        <ele>1455</ele>
        <time>2021-08-28T08:01:14Z</time>
      </trkpt>
      <trkpt lat="42.96964" lon="-0.2644">
        <ele>1455.2</ele>
        <time>2021-08-28T08:01:15Z</time>
      </trkpt>
      <trkpt lat="42.96961" lon="-0.26442">
        <ele>1455.4</ele>
        <time>2021-08-28T08:01:16Z</time>
      </trkpt>
      <trkpt lat="42.96959" lon="-0.26444">
        <ele>1455.8</ele>
        <time>2021-08-28T08:01:17Z</time>
      </trkpt>
      <trkpt lat="42.96957" lon="-0.26445">
        <ele>1456</ele>
        <time>2021-08-28T08:01:18Z</time>
      </trkpt>
      <trkpt lat="42.96952" lon="-0.26447">
        <ele>1456.4</ele>
        <time>2021-08-28T08:01:20Z</time>
      </trkpt>
      <trkpt lat="42.9695" lon="-0.26448">
        <ele>1456.4</ele>
        <time>2021-08-28T08:01:21Z</time>
      </trkpt>
      <trkpt lat="42.96948" lon="-0.26447">
        <ele>1456.8</ele>
        <time>2021-08-28T08:01:22Z</time>
      </trkpt>
      <trkpt lat="42.96946" lon="-0.26445">
        <ele>1457</ele>
        <time>2021-08-28T08:01:23Z</time>
      </trkpt>
      <trkpt lat="42.96944" lon="-0.26443">
        <ele>1457.4</ele>
        <time>2021-08-28T08:01:24Z</time>
      </trkpt>
      <trkpt lat="42.96942" lon="-0.26441">
        <ele>1457.4</ele>
        <time>2021-08-28T08:01:25Z</time>
      </trkpt>
      <trkpt lat="42.9694" lon="-0.26438">
        <ele>1458</ele>
        <time>2021-08-28T08:01:26Z</time>
      </trkpt>
      <trkpt lat="42.96938" lon="-0.26436">
        <ele>1458.2</ele>
        <time>2021-08-28T08:01:27Z</time>
      </trkpt>
      <trkpt lat="42.96935" lon="-0.26433">
        <ele>1458.4</ele>
        <time>2021-08-28T08:01:28Z</time>
      </trkpt>
      <trkpt lat="42.96932" lon="-0.26432">
        <ele>1458.6</ele>
        <time>2021-08-28T08:01:29Z</time>
      </trkpt>
      <trkpt lat="42.96929" lon="-0.2643">
        <ele>1458.8</ele>
        <time>2021-08-28T08:01:30Z</time>
      </trkpt>
      <trkpt lat="42.96927" lon="-0.26429">
        <ele>1458.8</ele>
        <time>2021-08-28T08:01:31Z</time>
      </trkpt>
      <trkpt lat="42.96924" lon="-0.26427">
        <ele>1459</ele>
        <time>2021-08-28T08:01:32Z</time>
      </trkpt>
      <trkpt lat="42.96922" lon="-0.26425">
        <ele>1459.2</ele>
        <time>2021-08-28T08:01:33Z</time>
      </trkpt>
      <trkpt lat="42.9692" lon="-0.26424">
        <ele>1459.6</ele>
        <time>2021-08-28T08:01:34Z</time>
      </trkpt>
      <trkpt lat="42.96918" lon="-0.26423">
        <ele>1459.8</ele>
        <time>2021-08-28T08:01:35Z</time>
      </trkpt>
      <trkpt lat="42.96917" lon="-0.26422">
        <ele>1460.2</ele>
        <time>2021-08-28T08:01:36Z</time>
      </trkpt>
      <trkpt lat="42.96914" lon="-0.2642">
        <ele>1460.4</ele>
        <time>2021-08-28T08:01:37Z</time>
      </trkpt>
      <trkpt lat="42.96911" lon="-0.26419">
        <ele>1460.8</ele>
        <time>2021-08-28T08:01:38Z</time>
      </trkpt>
      <trkpt lat="42.96909" lon="-0.2642">
        <ele>1460.8</ele>
        <time>2021-08-28T08:01:39Z</time>
      </trkpt>
      <trkpt lat="42.96906" lon="-0.2642">
        <ele>1461</ele>
        <time>2021-08-28T08:01:40Z</time>
      </trkpt>
      <trkpt lat="42.96903" lon="-0.26421">
        <ele>1461.2</ele>
        <time>2021-08-28T08:01:41Z</time>
      </trkpt>
      <trkpt lat="42.969" lon="-0.26422">
        <ele>1461.2</ele>
        <time>2021-08-28T08:01:42Z</time>
      </trkpt>
      <trkpt lat="42.96897" lon="-0.26423">
        <ele>1461.2</ele>
        <time>2021-08-28T08:01:43Z</time>
      </trkpt>
      <trkpt lat="42.96894" lon="-0.26423">
        <ele>1461.2</ele>
        <time>2021-08-28T08:01:44Z</time>
      </trkpt>
      <trkpt lat="42.9689" lon="-0.26423">
        <ele>1461.4</ele>
        <time>2021-08-28T08:01:45Z</time>
      </trkpt>
      <trkpt lat="42.96887" lon="-0.26423">
        <ele>1461.6</ele>
        <time>2021-08-28T08:01:46Z</time>
      </trkpt>
      <trkpt lat="42.96883" lon="-0.26423">
        <ele>1461.4</ele>
        <time>2021-08-28T08:01:47Z</time>
      </trkpt>
      <trkpt lat="42.96879" lon="-0.26422">
        <ele>1461.4</ele>
        <time>2021-08-28T08:01:48Z</time>
      </trkpt>
      <trkpt lat="42.96875" lon="-0.26422">
        <ele>1461.4</ele>
        <time>2021-08-28T08:01:49Z</time>
      </trkpt>
      <trkpt lat="42.9687" lon="-0.26422">
        <ele>1461.4</ele>
        <time>2021-08-28T08:01:50Z</time>
      </trkpt>
      <trkpt lat="42.96866" lon="-0.26423">
        <ele>1461.4</ele>
        <time>2021-08-28T08:01:51Z</time>
      </trkpt>
      <trkpt lat="42.96861" lon="-0.26426">
        <ele>1461.4</ele>
        <time>2021-08-28T08:01:52Z</time>
      </trkpt>
      <trkpt lat="42.96857" lon="-0.26428">
        <ele>1461.2</ele>
        <time>2021-08-28T08:01:53Z</time>
      </trkpt>
      <trkpt lat="42.96853" lon="-0.26431">
        <ele>1461.2</ele>
        <time>2021-08-28T08:01:54Z</time>
      </trkpt>
      <trkpt lat="42.96848" lon="-0.26434">
        <ele>1461</ele>
        <time>2021-08-28T08:01:55Z</time>
      </trkpt>
      <trkpt lat="42.96843" lon="-0.26437">
        <ele>1460.8</ele>
        <time>2021-08-28T08:01:56Z</time>
      </trkpt>
      <trkpt lat="42.96839" lon="-0.26441">
        <ele>1460.8</ele>
        <time>2021-08-28T08:01:57Z</time>
      </trkpt>
      <trkpt lat="42.96835" lon="-0.26447">
        <ele>1460.6</ele>
        <time>2021-08-28T08:01:58Z</time>
      </trkpt>
      <trkpt lat="42.96831" lon="-0.26454">
        <ele>1460</ele>
        <time>2021-08-28T08:01:59Z</time>
      </trkpt>
      <trkpt lat="42.96827" lon="-0.2646">
        <ele>1459.8</ele>
        <time>2021-08-28T08:02:00Z</time>
      </trkpt>
      <trkpt lat="42.96823" lon="-0.26467">
        <ele>1459</ele>
        <time>2021-08-28T08:02:01Z</time>
      </trkpt>
      <trkpt lat="42.96819" lon="-0.26473">
        <ele>1458</ele>
        <time>2021-08-28T08:02:02Z</time>
      </trkpt>
      <trkpt lat="42.96817" lon="-0.26476">
        <ele>1457.6</ele>
        <time>2021-08-28T08:02:03Z</time>
      </trkpt>
      <trkpt lat="42.96812" lon="-0.26481">
        <ele>1456.8</ele>
        <time>2021-08-28T08:02:04Z</time>
      </trkpt>
      <trkpt lat="42.96807" lon="-0.26483">
        <ele>1456.6</ele>
        <time>2021-08-28T08:02:05Z</time>
      </trkpt>
      <trkpt lat="42.96801" lon="-0.26485">
        <ele>1456</ele>
        <time>2021-08-28T08:02:06Z</time>
      </trkpt>
      <trkpt lat="42.96796" lon="-0.26486">
        <ele>1455.8</ele>
        <time>2021-08-28T08:02:07Z</time>
      </trkpt>
      <trkpt lat="42.9679" lon="-0.26487">
        <ele>1455.6</ele>
        <time>2021-08-28T08:02:08Z</time>
      </trkpt>
      <trkpt lat="42.96782" lon="-0.2649">
        <ele>1455.4</ele>
        <time>2021-08-28T08:02:09Z</time>
      </trkpt>
      <trkpt lat="42.96769" lon="-0.26495">
        <ele>1454.2</ele>
        <time>2021-08-28T08:02:11Z</time>
      </trkpt>
      <trkpt lat="42.96761" lon="-0.26497">
        <ele>1453.4</ele>
        <time>2021-08-28T08:02:12Z</time>
      </trkpt>
      <trkpt lat="42.96751" lon="-0.265">
        <ele>1453</ele>
        <time>2021-08-28T08:02:13Z</time>
      </trkpt>
      <trkpt lat="42.96737" lon="-0.26505">
        <ele>1451.8</ele>
        <time>2021-08-28T08:02:15Z</time>
      </trkpt>
      <trkpt lat="42.9673" lon="-0.26508">
        <ele>1451.2</ele>
        <time>2021-08-28T08:02:16Z</time>
      </trkpt>
      <trkpt lat="42.96723" lon="-0.26512">
        <ele>1451</ele>
        <time>2021-08-28T08:02:17Z</time>
      </trkpt>
      <trkpt lat="42.96716" lon="-0.26515">
        <ele>1450.6</ele>
        <time>2021-08-28T08:02:18Z</time>
      </trkpt>
      <trkpt lat="42.96707" lon="-0.26519">
        <ele>1450.2</ele>
        <time>2021-08-28T08:02:19Z</time>
      </trkpt>
      <trkpt lat="42.96701" lon="-0.26521">
        <ele>1449.8</ele>
        <time>2021-08-28T08:02:20Z</time>
      </trkpt>
      <trkpt lat="42.96696" lon="-0.26522">
        <ele>1449.8</ele>
        <time>2021-08-28T08:02:21Z</time>
      </trkpt>
      <trkpt lat="42.96688" lon="-0.26523">
        <ele>1449.6</ele>
        <time>2021-08-28T08:02:22Z</time>
      </trkpt>
      <trkpt lat="42.96681" lon="-0.26522">
        <ele>1449.6</ele>
        <time>2021-08-28T08:02:23Z</time>
      </trkpt>
      <trkpt lat="42.96676" lon="-0.26521">
        <ele>1449.4</ele>
        <time>2021-08-28T08:02:24Z</time>
      </trkpt>
      <trkpt lat="42.9667" lon="-0.2652">
        <ele>1449.2</ele>
        <time>2021-08-28T08:02:25Z</time>
      </trkpt>
      <trkpt lat="42.96663" lon="-0.26518">
        <ele>1449</ele>
        <time>2021-08-28T08:02:26Z</time>
      </trkpt>
      <trkpt lat="42.96658" lon="-0.26516">
        <ele>1449</ele>
        <time>2021-08-28T08:02:27Z</time>
      </trkpt>
      <trkpt lat="42.96653" lon="-0.26514">
        <ele>1448.8</ele>
        <time>2021-08-28T08:02:28Z</time>
      </trkpt>
      <trkpt lat="42.9665" lon="-0.26512">
        <ele>1448.6</ele>
        <time>2021-08-28T08:02:29Z</time>
      </trkpt>
      <trkpt lat="42.96644" lon="-0.26509">
        <ele>1448.6</ele>
        <time>2021-08-28T08:02:30Z</time>
      </trkpt>
      <trkpt lat="42.96621" lon="-0.26497">
        <ele>1448.6</ele>
        <time>2021-08-28T08:02:34Z</time>
      </trkpt>
      <trkpt lat="42.96596" lon="-0.26488">
        <ele>1447.8</ele>
        <time>2021-08-28T08:02:38Z</time>
      </trkpt>
      <trkpt lat="42.9659" lon="-0.26486">
        <ele>1447.2</ele>
        <time>2021-08-28T08:02:39Z</time>
      </trkpt>
      <trkpt lat="42.96583" lon="-0.26485">
        <ele>1447</ele>
        <time>2021-08-28T08:02:40Z</time>
      </trkpt>
      <trkpt lat="42.96561" lon="-0.26478">
        <ele>1446.4</ele>
        <time>2021-08-28T08:02:44Z</time>
      </trkpt>
      <trkpt lat="42.96556" lon="-0.26475">
        <ele>1446.2</ele>
        <time>2021-08-28T08:02:45Z</time>
      </trkpt>
      <trkpt lat="42.9655" lon="-0.26471">
        <ele>1446</ele>
        <time>2021-08-28T08:02:46Z</time>
      </trkpt>
      <trkpt lat="42.96545" lon="-0.26466">
        <ele>1446</ele>
        <time>2021-08-28T08:02:47Z</time>
      </trkpt>
      <trkpt lat="42.9654" lon="-0.26463">
        <ele>1445.8</ele>
        <time>2021-08-28T08:02:48Z</time>
      </trkpt>
      <trkpt lat="42.96524" lon="-0.26454">
        <ele>1445.4</ele>
        <time>2021-08-28T08:02:51Z</time>
      </trkpt>
      <trkpt lat="42.96521" lon="-0.26451">
        <ele>1445.2</ele>
        <time>2021-08-28T08:02:52Z</time>
      </trkpt>
      <trkpt lat="42.96517" lon="-0.26447">
        <ele>1445.2</ele>
        <time>2021-08-28T08:02:53Z</time>
      </trkpt>
      <trkpt lat="42.96512" lon="-0.26441">
        <ele>1445</ele>
        <time>2021-08-28T08:02:54Z</time>
      </trkpt>
      <trkpt lat="42.96509" lon="-0.26437">
        <ele>1445</ele>
        <time>2021-08-28T08:02:55Z</time>
      </trkpt>
      <trkpt lat="42.96505" lon="-0.26431">
        <ele>1445</ele>
        <time>2021-08-28T08:02:56Z</time>
      </trkpt>
      <trkpt lat="42.96499" lon="-0.26421">
        <ele>1445</ele>
        <time>2021-08-28T08:02:58Z</time>
      </trkpt>
      <trkpt lat="42.96496" lon="-0.26417">
        <ele>1445</ele>
        <time>2021-08-28T08:02:59Z</time>
      </trkpt>
      <trkpt lat="42.96492" lon="-0.26412">
        <ele>1445</ele>
        <time>2021-08-28T08:03:00Z</time>
      </trkpt>
      <trkpt lat="42.96489" lon="-0.26408">
        <ele>1445.2</ele>
        <time>2021-08-28T08:03:01Z</time>
      </trkpt>
      <trkpt lat="42.96486" lon="-0.26403">
        <ele>1445.2</ele>
        <time>2021-08-28T08:03:02Z</time>
      </trkpt>
      <trkpt lat="42.96463" lon="-0.26368">
        <ele>1445.4</ele>
        <time>2021-08-28T08:03:08Z</time>
      </trkpt>
      <trkpt lat="42.9644" lon="-0.26333">
        <ele>1444.6</ele>
        <time>2021-08-28T08:03:13Z</time>
      </trkpt>
      <trkpt lat="42.96435" lon="-0.26325">
        <ele>1444.4</ele>
        <time>2021-08-28T08:03:14Z</time>
      </trkpt>
      <trkpt lat="42.96422" lon="-0.26303">
        <ele>1444</ele>
        <time>2021-08-28T08:03:17Z</time>
      </trkpt>
      <trkpt lat="42.96413" lon="-0.26288">
        <ele>1443.2</ele>
        <time>2021-08-28T08:03:19Z</time>
      </trkpt>
      <trkpt lat="42.96404" lon="-0.26275">
        <ele>1442.6</ele>
        <time>2021-08-28T08:03:21Z</time>
      </trkpt>
      <trkpt lat="42.96392" lon="-0.26267">
        <ele>1442.4</ele>
        <time>2021-08-28T08:03:23Z</time>
      </trkpt>
      <trkpt lat="42.96387" lon="-0.26265">
        <ele>1442.2</ele>
        <time>2021-08-28T08:03:24Z</time>
      </trkpt>
      <trkpt lat="42.96382" lon="-0.26264">
        <ele>1442.2</ele>
        <time>2021-08-28T08:03:25Z</time>
      </trkpt>
      <trkpt lat="42.96377" lon="-0.26263">
        <ele>1442.2</ele>
        <time>2021-08-28T08:03:26Z</time>
      </trkpt>
      <trkpt lat="42.96372" lon="-0.26261">
        <ele>1442.2</ele>
        <time>2021-08-28T08:03:27Z</time>
      </trkpt>
      <trkpt lat="42.96368" lon="-0.26259">
        <ele>1442.4</ele>
        <time>2021-08-28T08:03:28Z</time>
      </trkpt>
      <trkpt lat="42.96365" lon="-0.26256">
        <ele>1442.6</ele>
        <time>2021-08-28T08:03:29Z</time>
      </trkpt>
      <trkpt lat="42.96361" lon="-0.26254">
        <ele>1442.8</ele>
        <time>2021-08-28T08:03:30Z</time>
      </trkpt>
      <trkpt lat="42.96357" lon="-0.26252">
        <ele>1442.8</ele>
        <time>2021-08-28T08:03:31Z</time>
      </trkpt>
      <trkpt lat="42.96354" lon="-0.2625">
        <ele>1443</ele>
        <time>2021-08-28T08:03:32Z</time>
      </trkpt>
      <trkpt lat="42.9635" lon="-0.26249">
        <ele>1443.2</ele>
        <time>2021-08-28T08:03:33Z</time>
      </trkpt>
      <trkpt lat="42.96348" lon="-0.26248">
        <ele>1443.2</ele>
        <time>2021-08-28T08:03:34Z</time>
      </trkpt>
      <trkpt lat="42.96345" lon="-0.26247">
        <ele>1443.4</ele>
        <time>2021-08-28T08:03:35Z</time>
      </trkpt>
      <trkpt lat="42.96342" lon="-0.26246">
        <ele>1443.4</ele>
        <time>2021-08-28T08:03:36Z</time>
      </trkpt>
      <trkpt lat="42.9634" lon="-0.26246">
        <ele>1443.8</ele>
        <time>2021-08-28T08:03:37Z</time>
      </trkpt>
      <trkpt lat="42.96335" lon="-0.26244">
        <ele>1444.4</ele>
        <time>2021-08-28T08:03:39Z</time>
      </trkpt>
      <trkpt lat="42.96332" lon="-0.26242">
        <ele>1444.8</ele>
        <time>2021-08-28T08:03:40Z</time>
      </trkpt>
      <trkpt lat="42.96329" lon="-0.26241">
        <ele>1445</ele>
        <time>2021-08-28T08:03:41Z</time>
      </trkpt>
      <trkpt lat="42.96327" lon="-0.2624">
        <ele>1445.4</ele>
        <time>2021-08-28T08:03:42Z</time>
      </trkpt>
      <trkpt lat="42.96325" lon="-0.2624">
        <ele>1445.6</ele>
        <time>2021-08-28T08:03:43Z</time>
      </trkpt>
      <trkpt lat="42.96322" lon="-0.26239">
        <ele>1445.8</ele>
        <time>2021-08-28T08:03:44Z</time>
      </trkpt>
      <trkpt lat="42.9632" lon="-0.26239">
        <ele>1446</ele>
        <time>2021-08-28T08:03:45Z</time>
      </trkpt>
      <trkpt lat="42.96318" lon="-0.26239">
        <ele>1446.2</ele>
        <time>2021-08-28T08:03:46Z</time>
      </trkpt>
      <trkpt lat="42.96316" lon="-0.26239">
        <ele>1446.4</ele>
        <time>2021-08-28T08:03:47Z</time>
      </trkpt>
      <trkpt lat="42.96314" lon="-0.26239">
        <ele>1447</ele>
        <time>2021-08-28T08:03:48Z</time>
      </trkpt>
      <trkpt lat="42.96312" lon="-0.26239">
        <ele>1447.2</ele>
        <time>2021-08-28T08:03:49Z</time>
      </trkpt>
      <trkpt lat="42.9631" lon="-0.26239">
        <ele>1447.6</ele>
        <time>2021-08-28T08:03:50Z</time>
      </trkpt>
      <trkpt lat="42.96309" lon="-0.2624">
        <ele>1447.6</ele>
        <time>2021-08-28T08:03:51Z</time>
      </trkpt>
      <trkpt lat="42.96307" lon="-0.2624">
        <ele>1447.8</ele>
        <time>2021-08-28T08:03:52Z</time>
      </trkpt>
      <trkpt lat="42.96305" lon="-0.26242">
        <ele>1448</ele>
        <time>2021-08-28T08:03:53Z</time>
      </trkpt>
      <trkpt lat="42.96303" lon="-0.26243">
        <ele>1448.2</ele>
        <time>2021-08-28T08:03:54Z</time>
      </trkpt>
      <trkpt lat="42.96302" lon="-0.26245">
        <ele>1448.6</ele>
        <time>2021-08-28T08:03:55Z</time>
      </trkpt>
      <trkpt lat="42.963" lon="-0.26246">
        <ele>1448.8</ele>
        <time>2021-08-28T08:03:56Z</time>
      </trkpt>
      <trkpt lat="42.96298" lon="-0.26248">
        <ele>1449.2</ele>
        <time>2021-08-28T08:03:57Z</time>
      </trkpt>
      <trkpt lat="42.96297" lon="-0.26249">
        <ele>1449.4</ele>
        <time>2021-08-28T08:03:58Z</time>
      </trkpt>
      <trkpt lat="42.96295" lon="-0.2625">
        <ele>1449.8</ele>
        <time>2021-08-28T08:03:59Z</time>
      </trkpt>
      <trkpt lat="42.96294" lon="-0.26251">
        <ele>1450</ele>
        <time>2021-08-28T08:04:00Z</time>
      </trkpt>
      <trkpt lat="42.96292" lon="-0.26252">
        <ele>1450.4</ele>
        <time>2021-08-28T08:04:01Z</time>
      </trkpt>
      <trkpt lat="42.9629" lon="-0.26253">
        <ele>1450.4</ele>
        <time>2021-08-28T08:04:02Z</time>
      </trkpt>
      <trkpt lat="42.96288" lon="-0.26254">
        <ele>1450.6</ele>
        <time>2021-08-28T08:04:03Z</time>
      </trkpt>
      <trkpt lat="42.96287" lon="-0.26255">
        <ele>1450.8</ele>
        <time>2021-08-28T08:04:04Z</time>
      </trkpt>
      <trkpt lat="42.96285" lon="-0.26256">
        <ele>1451</ele>
        <time>2021-08-28T08:04:05Z</time>
      </trkpt>
      <trkpt lat="42.96283" lon="-0.26257">
        <ele>1451.2</ele>
        <time>2021-08-28T08:04:06Z</time>
      </trkpt>
      <trkpt lat="42.96282" lon="-0.26258">
        <ele>1451.6</ele>
        <time>2021-08-28T08:04:07Z</time>
      </trkpt>
      <trkpt lat="42.9628" lon="-0.26259">
        <ele>1452</ele>
        <time>2021-08-28T08:04:08Z</time>
      </trkpt>
      <trkpt lat="42.96278" lon="-0.2626">
        <ele>1452.4</ele>
        <time>2021-08-28T08:04:09Z</time>
      </trkpt>
      <trkpt lat="42.96276" lon="-0.26261">
        <ele>1452.6</ele>
        <time>2021-08-28T08:04:10Z</time>
      </trkpt>
      <trkpt lat="42.96274" lon="-0.26262">
        <ele>1452.8</ele>
        <time>2021-08-28T08:04:11Z</time>
      </trkpt>
      <trkpt lat="42.96272" lon="-0.26263">
        <ele>1453.2</ele>
        <time>2021-08-28T08:04:12Z</time>
      </trkpt>
      <trkpt lat="42.9627" lon="-0.26264">
        <ele>1453.2</ele>
        <time>2021-08-28T08:04:13Z</time>
      </trkpt>
      <trkpt lat="42.96268" lon="-0.26265">
        <ele>1453.4</ele>
        <time>2021-08-28T08:04:14Z</time>
      </trkpt>
      <trkpt lat="42.96266" lon="-0.26266">
        <ele>1453.6</ele>
        <time>2021-08-28T08:04:15Z</time>
      </trkpt>
      <trkpt lat="42.96265" lon="-0.26267">
        <ele>1454</ele>
        <time>2021-08-28T08:04:16Z</time>
      </trkpt>
      <trkpt lat="42.96263" lon="-0.26268">
        <ele>1454</ele>
        <time>2021-08-28T08:04:17Z</time>
      </trkpt>
      <trkpt lat="42.96262" lon="-0.26269">
        <ele>1454.2</ele>
        <time>2021-08-28T08:04:18Z</time>
      </trkpt>
      <trkpt lat="42.9626" lon="-0.26269">
        <ele>1454.4</ele>
        <time>2021-08-28T08:04:19Z</time>
      </trkpt>
      <trkpt lat="42.96258" lon="-0.2627">
        <ele>1454.8</ele>
        <time>2021-08-28T08:04:20Z</time>
      </trkpt>
      <trkpt lat="42.96256" lon="-0.2627">
        <ele>1455</ele>
        <time>2021-08-28T08:04:21Z</time>
      </trkpt>
      <trkpt lat="42.96255" lon="-0.2627">
        <ele>1455.2</ele>
        <time>2021-08-28T08:04:22Z</time>
      </trkpt>
      <trkpt lat="42.96253" lon="-0.26271">
        <ele>1455.4</ele>
        <time>2021-08-28T08:04:23Z</time>
      </trkpt>
      <trkpt lat="42.96251" lon="-0.26271">
        <ele>1455.6</ele>
        <time>2021-08-28T08:04:24Z</time>
      </trkpt>
      <trkpt lat="42.9625" lon="-0.26271">
        <ele>1455.6</ele>
        <time>2021-08-28T08:04:25Z</time>
      </trkpt>
      <trkpt lat="42.96248" lon="-0.26272">
        <ele>1456</ele>
        <time>2021-08-28T08:04:26Z</time>
      </trkpt>
      <trkpt lat="42.96247" lon="-0.26272">
        <ele>1456</ele>
        <time>2021-08-28T08:04:27Z</time>
      </trkpt>
      <trkpt lat="42.96245" lon="-0.26272">
        <ele>1456.2</ele>
        <time>2021-08-28T08:04:28Z</time>
      </trkpt>
      <trkpt lat="42.96243" lon="-0.26272">
        <ele>1456.4</ele>
        <time>2021-08-28T08:04:29Z</time>
      </trkpt>
      <trkpt lat="42.96241" lon="-0.26272">
        <ele>1456.6</ele>
        <time>2021-08-28T08:04:30Z</time>
      </trkpt>
      <trkpt lat="42.96239" lon="-0.26271">
        <ele>1456.8</ele>
        <time>2021-08-28T08:04:31Z</time>
      </trkpt>
      <trkpt lat="42.96237" lon="-0.2627">
        <ele>1457</ele>
        <time>2021-08-28T08:04:32Z</time>
      </trkpt>
      <trkpt lat="42.96236" lon="-0.26268">
        <ele>1457.4</ele>
        <time>2021-08-28T08:04:33Z</time>
      </trkpt>
      <trkpt lat="42.96234" lon="-0.26267">
        <ele>1457.6</ele>
        <time>2021-08-28T08:04:34Z</time>
      </trkpt>
      <trkpt lat="42.96233" lon="-0.26265">
        <ele>1457.8</ele>
        <time>2021-08-28T08:04:35Z</time>
      </trkpt>
      <trkpt lat="42.96232" lon="-0.26262">
        <ele>1457.8</ele>
        <time>2021-08-28T08:04:36Z</time>
      </trkpt>
      <trkpt lat="42.96232" lon="-0.26258">
        <ele>1458</ele>
        <time>2021-08-28T08:04:37Z</time>
      </trkpt>
      <trkpt lat="42.96231" lon="-0.26254">
        <ele>1458.2</ele>
        <time>2021-08-28T08:04:38Z</time>
      </trkpt>
      <trkpt lat="42.96231" lon="-0.26251">
        <ele>1458.2</ele>
        <time>2021-08-28T08:04:39Z</time>
      </trkpt>
      <trkpt lat="42.96231" lon="-0.26248">
        <ele>1458.2</ele>
        <time>2021-08-28T08:04:40Z</time>
      </trkpt>
      <trkpt lat="42.96231" lon="-0.26245">
        <ele>1458.6</ele>
        <time>2021-08-28T08:04:41Z</time>
      </trkpt>
      <trkpt lat="42.96231" lon="-0.26241">
        <ele>1458.6</ele>
        <time>2021-08-28T08:04:42Z</time>
      </trkpt>
      <trkpt lat="42.96231" lon="-0.26236">
        <ele>1458.6</ele>
        <time>2021-08-28T08:04:43Z</time>
      </trkpt>
      <trkpt lat="42.9623" lon="-0.26231">
        <ele>1458.6</ele>
        <time>2021-08-28T08:04:44Z</time>
      </trkpt>
      <trkpt lat="42.96229" lon="-0.26225">
        <ele>1458.6</ele>
        <time>2021-08-28T08:04:45Z</time>
      </trkpt>
      <trkpt lat="42.96228" lon="-0.26219">
        <ele>1458.6</ele>
        <time>2021-08-28T08:04:46Z</time>
      </trkpt>
      <trkpt lat="42.96226" lon="-0.26214">
        <ele>1458.6</ele>
        <time>2021-08-28T08:04:47Z</time>
      </trkpt>
      <trkpt lat="42.96224" lon="-0.26207">
        <ele>1458.6</ele>
        <time>2021-08-28T08:04:48Z</time>
      </trkpt>
      <trkpt lat="42.96221" lon="-0.26201">
        <ele>1458.2</ele>
        <time>2021-08-28T08:04:49Z</time>
      </trkpt>
      <trkpt lat="42.96218" lon="-0.26197">
        <ele>1458</ele>
        <time>2021-08-28T08:04:50Z</time>
      </trkpt>
      <trkpt lat="42.96214" lon="-0.26192">
        <ele>1457.6</ele>
        <time>2021-08-28T08:04:51Z</time>
      </trkpt>
      <trkpt lat="42.9621" lon="-0.26189">
        <ele>1457</ele>
        <time>2021-08-28T08:04:52Z</time>
      </trkpt>
      <trkpt lat="42.96206" lon="-0.26187">
        <ele>1456.6</ele>
        <time>2021-08-28T08:04:53Z</time>
      </trkpt>
      <trkpt lat="42.96201" lon="-0.26185">
        <ele>1456</ele>
        <time>2021-08-28T08:04:54Z</time>
      </trkpt>
      <trkpt lat="42.96196" lon="-0.26182">
        <ele>1455.6</ele>
        <time>2021-08-28T08:04:55Z</time>
      </trkpt>
      <trkpt lat="42.96184" lon="-0.2617">
        <ele>1454.4</ele>
        <time>2021-08-28T08:04:58Z</time>
      </trkpt>
      <trkpt lat="42.9618" lon="-0.26166">
        <ele>1454</ele>
        <time>2021-08-28T08:04:59Z</time>
      </trkpt>
      <trkpt lat="42.96177" lon="-0.26164">
        <ele>1453.8</ele>
        <time>2021-08-28T08:05:00Z</time>
      </trkpt>
      <trkpt lat="42.96174" lon="-0.26162">
        <ele>1453.8</ele>
        <time>2021-08-28T08:05:01Z</time>
      </trkpt>
      <trkpt lat="42.9617" lon="-0.2616">
        <ele>1453.8</ele>
        <time>2021-08-28T08:05:02Z</time>
      </trkpt>
      <trkpt lat="42.96167" lon="-0.26159">
        <ele>1453.6</ele>
        <time>2021-08-28T08:05:03Z</time>
      </trkpt>
      <trkpt lat="42.96157" lon="-0.26157">
        <ele>1453.8</ele>
        <time>2021-08-28T08:05:06Z</time>
      </trkpt>
      <trkpt lat="42.96154" lon="-0.26158">
        <ele>1453.8</ele>
        <time>2021-08-28T08:05:07Z</time>
      </trkpt>
      <trkpt lat="42.9615" lon="-0.26158">
        <ele>1454</ele>
        <time>2021-08-28T08:05:08Z</time>
      </trkpt>
      <trkpt lat="42.96148" lon="-0.26159">
        <ele>1454</ele>
        <time>2021-08-28T08:05:09Z</time>
      </trkpt>
      <trkpt lat="42.96145" lon="-0.26159">
        <ele>1454.2</ele>
        <time>2021-08-28T08:05:10Z</time>
      </trkpt>
      <trkpt lat="42.96143" lon="-0.2616">
        <ele>1454.4</ele>
        <time>2021-08-28T08:05:11Z</time>
      </trkpt>
      <trkpt lat="42.9614" lon="-0.26161">
        <ele>1454.4</ele>
        <time>2021-08-28T08:05:12Z</time>
      </trkpt>
      <trkpt lat="42.96138" lon="-0.26162">
        <ele>1454.8</ele>
        <time>2021-08-28T08:05:13Z</time>
      </trkpt>
      <trkpt lat="42.96136" lon="-0.26163">
        <ele>1455</ele>
        <time>2021-08-28T08:05:14Z</time>
      </trkpt>
      <trkpt lat="42.96134" lon="-0.26164">
        <ele>1455.2</ele>
        <time>2021-08-28T08:05:15Z</time>
      </trkpt>
      <trkpt lat="42.96131" lon="-0.26166">
        <ele>1455.4</ele>
        <time>2021-08-28T08:05:16Z</time>
      </trkpt>
      <trkpt lat="42.96129" lon="-0.26167">
        <ele>1455.6</ele>
        <time>2021-08-28T08:05:17Z</time>
      </trkpt>
      <trkpt lat="42.96126" lon="-0.26168">
        <ele>1455.6</ele>
        <time>2021-08-28T08:05:18Z</time>
      </trkpt>
      <trkpt lat="42.96123" lon="-0.26169">
        <ele>1455.8</ele>
        <time>2021-08-28T08:05:19Z</time>
      </trkpt>
      <trkpt lat="42.96121" lon="-0.2617">
        <ele>1456</ele>
        <time>2021-08-28T08:05:20Z</time>
      </trkpt>
      <trkpt lat="42.96117" lon="-0.26172">
        <ele>1456.4</ele>
        <time>2021-08-28T08:05:22Z</time>
      </trkpt>
      <trkpt lat="42.96112" lon="-0.26175">
        <ele>1456.8</ele>
        <time>2021-08-28T08:05:24Z</time>
      </trkpt>
      <trkpt lat="42.96108" lon="-0.26177">
        <ele>1457.2</ele>
        <time>2021-08-28T08:05:26Z</time>
      </trkpt>
      <trkpt lat="42.96105" lon="-0.26177">
        <ele>1457.4</ele>
        <time>2021-08-28T08:05:27Z</time>
      </trkpt>
      <trkpt lat="42.96098" lon="-0.26179">
        <ele>1458</ele>
        <time>2021-08-28T08:05:30Z</time>
      </trkpt>
      <trkpt lat="42.96096" lon="-0.2618">
        <ele>1458.2</ele>
        <time>2021-08-28T08:05:31Z</time>
      </trkpt>
      <trkpt lat="42.96093" lon="-0.26181">
        <ele>1458.6</ele>
        <time>2021-08-28T08:05:32Z</time>
      </trkpt>
      <trkpt lat="42.96091" lon="-0.26182">
        <ele>1458.6</ele>
        <time>2021-08-28T08:05:33Z</time>
      </trkpt>
      <trkpt lat="42.96089" lon="-0.26183">
        <ele>1459</ele>
        <time>2021-08-28T08:05:34Z</time>
      </trkpt>
      <trkpt lat="42.96087" lon="-0.26184">
        <ele>1459.2</ele>
        <time>2021-08-28T08:05:35Z</time>
      </trkpt>
      <trkpt lat="42.96085" lon="-0.26184">
        <ele>1459.4</ele>
        <time>2021-08-28T08:05:36Z</time>
      </trkpt>
      <trkpt lat="42.96082" lon="-0.26184">
        <ele>1459.4</ele>
        <time>2021-08-28T08:05:37Z</time>
      </trkpt>
      <trkpt lat="42.9608" lon="-0.26182">
        <ele>1459.8</ele>
        <time>2021-08-28T08:05:38Z</time>
      </trkpt>
      <trkpt lat="42.96078" lon="-0.2618">
        <ele>1459.8</ele>
        <time>2021-08-28T08:05:39Z</time>
      </trkpt>
      <trkpt lat="42.96077" lon="-0.26178">
        <ele>1460</ele>
        <time>2021-08-28T08:05:40Z</time>
      </trkpt>
      <trkpt lat="42.96076" lon="-0.26175">
        <ele>1460.2</ele>
        <time>2021-08-28T08:05:41Z</time>
      </trkpt>
      <trkpt lat="42.96075" lon="-0.26173">
        <ele>1460.4</ele>
        <time>2021-08-28T08:05:42Z</time>
      </trkpt>
      <trkpt lat="42.96075" lon="-0.2617">
        <ele>1460.6</ele>
        <time>2021-08-28T08:05:43Z</time>
      </trkpt>
      <trkpt lat="42.96076" lon="-0.26167">
        <ele>1460.8</ele>
        <time>2021-08-28T08:05:44Z</time>
      </trkpt>
      <trkpt lat="42.96076" lon="-0.26164">
        <ele>1461</ele>
        <time>2021-08-28T08:05:45Z</time>
      </trkpt>
      <trkpt lat="42.96077" lon="-0.2616">
        <ele>1461.2</ele>
        <time>2021-08-28T08:05:46Z</time>
      </trkpt>
      <trkpt lat="42.96078" lon="-0.26158">
        <ele>1461.4</ele>
        <time>2021-08-28T08:05:47Z</time>
      </trkpt>
      <trkpt lat="42.96079" lon="-0.26155">
        <ele>1461.6</ele>
        <time>2021-08-28T08:05:48Z</time>
      </trkpt>
      <trkpt lat="42.9608" lon="-0.26153">
        <ele>1461.8</ele>
        <time>2021-08-28T08:05:49Z</time>
      </trkpt>
      <trkpt lat="42.96081" lon="-0.2615">
        <ele>1462</ele>
        <time>2021-08-28T08:05:50Z</time>
      </trkpt>
      <trkpt lat="42.96082" lon="-0.26148">
        <ele>1462.2</ele>
        <time>2021-08-28T08:05:51Z</time>
      </trkpt>
      <trkpt lat="42.96084" lon="-0.26146">
        <ele>1462.2</ele>
        <time>2021-08-28T08:05:52Z</time>
      </trkpt>
      <trkpt lat="42.96086" lon="-0.26145">
        <ele>1462.4</ele>
        <time>2021-08-28T08:05:53Z</time>
      </trkpt>
      <trkpt lat="42.96087" lon="-0.26145">
        <ele>1462.4</ele>
        <time>2021-08-28T08:05:54Z</time>
      </trkpt>
      <trkpt lat="42.96089" lon="-0.26145">
        <ele>1462.6</ele>
        <time>2021-08-28T08:05:55Z</time>
      </trkpt>
      <trkpt lat="42.96091" lon="-0.26145">
        <ele>1462.6</ele>
        <time>2021-08-28T08:05:56Z</time>
      </trkpt>
      <trkpt lat="42.96092" lon="-0.26144">
        <ele>1462.8</ele>
        <time>2021-08-28T08:05:59Z</time>
      </trkpt>
      <trkpt lat="42.96092" lon="-0.26144">
        <ele>1462.8</ele>
        <time>2021-08-28T08:06:01Z</time>
      </trkpt>
      <trkpt lat="42.96092" lon="-0.26144">
        <ele>1462.6</ele>
        <time>2021-08-28T08:06:11Z</time>
      </trkpt>
      <trkpt lat="42.96092" lon="-0.26144">
        <ele>1462.2</ele>
        <time>2021-08-28T08:06:21Z</time>
      </trkpt>
      <trkpt lat="42.96092" lon="-0.26144">
        <ele>1462.6</ele>
        <time>2021-08-28T08:06:48Z</time>
      </trkpt>
      <trkpt lat="42.96092" lon="-0.26144">
        <ele>1462.6</ele>
        <time>2021-08-28T08:06:52Z</time>
      </trkpt>
      <trkpt lat="42.96093" lon="-0.26142">
        <ele>1462.6</ele>
        <time>2021-08-28T08:06:53Z</time>
      </trkpt>
      <trkpt lat="42.96093" lon="-0.26138">
        <ele>1462.6</ele>
        <time>2021-08-28T08:06:55Z</time>
      </trkpt>
      <trkpt lat="42.96094" lon="-0.26129">
        <ele>1462.8</ele>
        <time>2021-08-28T08:06:58Z</time>
      </trkpt>
      <trkpt lat="42.96094" lon="-0.26117">
        <ele>1463.2</ele>
        <time>2021-08-28T08:07:03Z</time>
      </trkpt>
      <trkpt lat="42.96095" lon="-0.26112">
        <ele>1463.2</ele>
        <time>2021-08-28T08:07:06Z</time>
      </trkpt>
      <trkpt lat="42.96095" lon="-0.2611">
        <ele>1463.2</ele>
        <time>2021-08-28T08:07:07Z</time>
      </trkpt>
      <trkpt lat="42.96095" lon="-0.26108">
        <ele>1463.4</ele>
        <time>2021-08-28T08:07:08Z</time>
      </trkpt>
      <trkpt lat="42.96096" lon="-0.26107">
        <ele>1463.4</ele>
        <time>2021-08-28T08:07:09Z</time>
      </trkpt>
      <trkpt lat="42.96097" lon="-0.26105">
        <ele>1463.4</ele>
        <time>2021-08-28T08:07:10Z</time>
      </trkpt>
      <trkpt lat="42.96098" lon="-0.26104">
        <ele>1463.6</ele>
        <time>2021-08-28T08:07:11Z</time>
      </trkpt>
      <trkpt lat="42.96099" lon="-0.26102">
        <ele>1463.6</ele>
        <time>2021-08-28T08:07:12Z</time>
      </trkpt>
      <trkpt lat="42.961" lon="-0.261">
        <ele>1463.6</ele>
        <time>2021-08-28T08:07:13Z</time>
      </trkpt>
      <trkpt lat="42.961" lon="-0.26099">
        <ele>1463.8</ele>
        <time>2021-08-28T08:07:14Z</time>
      </trkpt>
      <trkpt lat="42.961" lon="-0.26097">
        <ele>1463.8</ele>
        <time>2021-08-28T08:07:15Z</time>
      </trkpt>
      <trkpt lat="42.961" lon="-0.26096">
        <ele>1463.8</ele>
        <time>2021-08-28T08:07:16Z</time>
      </trkpt>
      <trkpt lat="42.961" lon="-0.26095">
        <ele>1464</ele>
        <time>2021-08-28T08:07:17Z</time>
      </trkpt>
      <trkpt lat="42.96101" lon="-0.26095">
        <ele>1464.2</ele>
        <time>2021-08-28T08:07:21Z</time>
      </trkpt>
      <trkpt lat="42.96101" lon="-0.26095">
        <ele>1464.4</ele>
        <time>2021-08-28T08:07:29Z</time>
      </trkpt>
      <trkpt lat="42.96101" lon="-0.26095">
        <ele>1464.2</ele>
        <time>2021-08-28T08:08:05Z</time>
      </trkpt>
      <trkpt lat="42.96101" lon="-0.26095">
        <ele>1464.2</ele>
        <time>2021-08-28T08:08:33Z</time>
      </trkpt>
      <trkpt lat="42.96101" lon="-0.26094">
        <ele>1464</ele>
        <time>2021-08-28T08:09:06Z</time>
      </trkpt>
      <trkpt lat="42.96101" lon="-0.26094">
        <ele>1464</ele>
        <time>2021-08-28T08:09:07Z</time>
      </trkpt>
      <trkpt lat="42.96105" lon="-0.26092">
        <ele>1464</ele>
        <time>2021-08-28T08:09:10Z</time>
      </trkpt>
      <trkpt lat="42.96107" lon="-0.26092">
        <ele>1464</ele>
        <time>2021-08-28T08:09:11Z</time>
      </trkpt>
      <trkpt lat="42.96108" lon="-0.26091">
        <ele>1464</ele>
        <time>2021-08-28T08:09:12Z</time>
      </trkpt>
      <trkpt lat="42.96111" lon="-0.2609">
        <ele>1464.2</ele>
        <time>2021-08-28T08:09:14Z</time>
      </trkpt>
      <trkpt lat="42.96113" lon="-0.26088">
        <ele>1464.2</ele>
        <time>2021-08-28T08:09:15Z</time>
      </trkpt>
      <trkpt lat="42.96113" lon="-0.26087">
        <ele>1464.2</ele>
        <time>2021-08-28T08:09:16Z</time>
      </trkpt>
      <trkpt lat="42.96114" lon="-0.26085">
        <ele>1464.4</ele>
        <time>2021-08-28T08:09:17Z</time>
      </trkpt>
      <trkpt lat="42.96114" lon="-0.26083">
        <ele>1464.4</ele>
        <time>2021-08-28T08:09:18Z</time>
      </trkpt>
      <trkpt lat="42.96114" lon="-0.26081">
        <ele>1464.4</ele>
        <time>2021-08-28T08:09:19Z</time>
      </trkpt>
      <trkpt lat="42.96113" lon="-0.26077">
        <ele>1464.8</ele>
        <time>2021-08-28T08:09:21Z</time>
      </trkpt>
      <trkpt lat="42.96115" lon="-0.26073">
        <ele>1465.2</ele>
        <time>2021-08-28T08:09:23Z</time>
      </trkpt>
      <trkpt lat="42.96116" lon="-0.26071">
        <ele>1465.2</ele>
        <time>2021-08-28T08:09:24Z</time>
      </trkpt>
      <trkpt lat="42.96117" lon="-0.26069">
        <ele>1465.4</ele>
        <time>2021-08-28T08:09:25Z</time>
      </trkpt>
      <trkpt lat="42.9612" lon="-0.26064">
        <ele>1466.4</ele>
        <time>2021-08-28T08:09:28Z</time>
      </trkpt>
      <trkpt lat="42.96121" lon="-0.26062">
        <ele>1466.6</ele>
        <time>2021-08-28T08:09:29Z</time>
      </trkpt>
      <trkpt lat="42.96123" lon="-0.26057">
        <ele>1467.6</ele>
        <time>2021-08-28T08:09:32Z</time>
      </trkpt>
      <trkpt lat="42.96124" lon="-0.26056">
        <ele>1467.8</ele>
        <time>2021-08-28T08:09:33Z</time>
      </trkpt>
      <trkpt lat="42.96125" lon="-0.26055">
        <ele>1468.2</ele>
        <time>2021-08-28T08:09:34Z</time>
      </trkpt>
      <trkpt lat="42.96126" lon="-0.26054">
        <ele>1468.4</ele>
        <time>2021-08-28T08:09:35Z</time>
      </trkpt>
      <trkpt lat="42.96128" lon="-0.26053">
        <ele>1468.6</ele>
        <time>2021-08-28T08:09:36Z</time>
      </trkpt>
      <trkpt lat="42.96129" lon="-0.26052">
        <ele>1468.8</ele>
        <time>2021-08-28T08:09:37Z</time>
      </trkpt>
      <trkpt lat="42.9613" lon="-0.26051">
        <ele>1469</ele>
        <time>2021-08-28T08:09:38Z</time>
      </trkpt>
      <trkpt lat="42.96132" lon="-0.2605">
        <ele>1469.4</ele>
        <time>2021-08-28T08:09:39Z</time>
      </trkpt>
      <trkpt lat="42.96133" lon="-0.26049">
        <ele>1469.4</ele>
        <time>2021-08-28T08:09:40Z</time>
      </trkpt>
      <trkpt lat="42.96134" lon="-0.26048">
        <ele>1469.8</ele>
        <time>2021-08-28T08:09:41Z</time>
      </trkpt>
      <trkpt lat="42.96134" lon="-0.26046">
        <ele>1470</ele>
        <time>2021-08-28T08:09:42Z</time>
      </trkpt>
      <trkpt lat="42.96136" lon="-0.26045">
        <ele>1470.2</ele>
        <time>2021-08-28T08:09:43Z</time>
      </trkpt>
      <trkpt lat="42.96137" lon="-0.26044">
        <ele>1470.2</ele>
        <time>2021-08-28T08:09:44Z</time>
      </trkpt>
      <trkpt lat="42.96139" lon="-0.26043">
        <ele>1470.4</ele>
        <time>2021-08-28T08:09:45Z</time>
      </trkpt>
      <trkpt lat="42.96141" lon="-0.26042">
        <ele>1470.6</ele>
        <time>2021-08-28T08:09:46Z</time>
      </trkpt>
      <trkpt lat="42.96142" lon="-0.26041">
        <ele>1470.8</ele>
        <time>2021-08-28T08:09:47Z</time>
      </trkpt>
      <trkpt lat="42.96143" lon="-0.2604">
        <ele>1471</ele>
        <time>2021-08-28T08:09:48Z</time>
      </trkpt>
      <trkpt lat="42.96144" lon="-0.26039">
        <ele>1471</ele>
        <time>2021-08-28T08:09:49Z</time>
      </trkpt>
      <trkpt lat="42.96146" lon="-0.26037">
        <ele>1471.2</ele>
        <time>2021-08-28T08:09:50Z</time>
      </trkpt>
      <trkpt lat="42.96146" lon="-0.26036">
        <ele>1471.4</ele>
        <time>2021-08-28T08:09:51Z</time>
      </trkpt>
      <trkpt lat="42.96147" lon="-0.26035">
        <ele>1471.4</ele>
        <time>2021-08-28T08:09:52Z</time>
      </trkpt>
      <trkpt lat="42.96148" lon="-0.26033">
        <ele>1471.6</ele>
        <time>2021-08-28T08:09:53Z</time>
      </trkpt>
      <trkpt lat="42.96149" lon="-0.26032">
        <ele>1472</ele>
        <time>2021-08-28T08:09:54Z</time>
      </trkpt>
      <trkpt lat="42.9615" lon="-0.26031">
        <ele>1472.2</ele>
        <time>2021-08-28T08:09:55Z</time>
      </trkpt>
      <trkpt lat="42.96151" lon="-0.26029">
        <ele>1472.6</ele>
        <time>2021-08-28T08:09:56Z</time>
      </trkpt>
      <trkpt lat="42.96153" lon="-0.26028">
        <ele>1472.8</ele>
        <time>2021-08-28T08:09:57Z</time>
      </trkpt>
      <trkpt lat="42.96154" lon="-0.26027">
        <ele>1473</ele>
        <time>2021-08-28T08:09:58Z</time>
      </trkpt>
      <trkpt lat="42.96154" lon="-0.26026">
        <ele>1473</ele>
        <time>2021-08-28T08:09:59Z</time>
      </trkpt>
      <trkpt lat="42.96155" lon="-0.26024">
        <ele>1473.2</ele>
        <time>2021-08-28T08:10:00Z</time>
      </trkpt>
      <trkpt lat="42.96156" lon="-0.26023">
        <ele>1473.4</ele>
        <time>2021-08-28T08:10:01Z</time>
      </trkpt>
      <trkpt lat="42.96156" lon="-0.2602">
        <ele>1473.6</ele>
        <time>2021-08-28T08:10:02Z</time>
      </trkpt>
      <trkpt lat="42.96157" lon="-0.26019">
        <ele>1473.8</ele>
        <time>2021-08-28T08:10:03Z</time>
      </trkpt>
      <trkpt lat="42.96158" lon="-0.26018">
        <ele>1474.2</ele>
        <time>2021-08-28T08:10:04Z</time>
      </trkpt>
      <trkpt lat="42.96158" lon="-0.26016">
        <ele>1474.4</ele>
        <time>2021-08-28T08:10:05Z</time>
      </trkpt>
      <trkpt lat="42.96159" lon="-0.26014">
        <ele>1475</ele>
        <time>2021-08-28T08:10:06Z</time>
      </trkpt>
      <trkpt lat="42.9616" lon="-0.26013">
        <ele>1475</ele>
        <time>2021-08-28T08:10:07Z</time>
      </trkpt>
      <trkpt lat="42.96161" lon="-0.26012">
        <ele>1475</ele>
        <time>2021-08-28T08:10:08Z</time>
      </trkpt>
      <trkpt lat="42.96162" lon="-0.26011">
        <ele>1476</ele>
        <time>2021-08-28T08:10:09Z</time>
      </trkpt>
      <trkpt lat="42.96164" lon="-0.2601">
        <ele>1476.2</ele>
        <time>2021-08-28T08:10:10Z</time>
      </trkpt>
      <trkpt lat="42.96165" lon="-0.26009">
        <ele>1476.4</ele>
        <time>2021-08-28T08:10:11Z</time>
      </trkpt>
      <trkpt lat="42.96166" lon="-0.26008">
        <ele>1476.8</ele>
        <time>2021-08-28T08:10:12Z</time>
      </trkpt>
      <trkpt lat="42.96167" lon="-0.26008">
        <ele>1477.2</ele>
        <time>2021-08-28T08:10:13Z</time>
      </trkpt>
      <trkpt lat="42.96169" lon="-0.26007">
        <ele>1477.4</ele>
        <time>2021-08-28T08:10:14Z</time>
      </trkpt>
      <trkpt lat="42.9617" lon="-0.26006">
        <ele>1477.8</ele>
        <time>2021-08-28T08:10:15Z</time>
      </trkpt>
      <trkpt lat="42.96171" lon="-0.26005">
        <ele>1478</ele>
        <time>2021-08-28T08:10:16Z</time>
      </trkpt>
      <trkpt lat="42.96172" lon="-0.26005">
        <ele>1478.4</ele>
        <time>2021-08-28T08:10:17Z</time>
      </trkpt>
      <trkpt lat="42.96173" lon="-0.26004">
        <ele>1478.4</ele>
        <time>2021-08-28T08:10:18Z</time>
      </trkpt>
      <trkpt lat="42.96175" lon="-0.26004">
        <ele>1478.8</ele>
        <time>2021-08-28T08:10:19Z</time>
      </trkpt>
      <trkpt lat="42.96176" lon="-0.26004">
        <ele>1479</ele>
        <time>2021-08-28T08:10:20Z</time>
      </trkpt>
      <trkpt lat="42.96177" lon="-0.26003">
        <ele>1479.4</ele>
        <time>2021-08-28T08:10:21Z</time>
      </trkpt>
      <trkpt lat="42.96179" lon="-0.26001">
        <ele>1479.6</ele>
        <time>2021-08-28T08:10:22Z</time>
      </trkpt>
      <trkpt lat="42.9618" lon="-0.26">
        <ele>1479.8</ele>
        <time>2021-08-28T08:10:23Z</time>
      </trkpt>
      <trkpt lat="42.96181" lon="-0.25999">
        <ele>1480</ele>
        <time>2021-08-28T08:10:24Z</time>
      </trkpt>
      <trkpt lat="42.96182" lon="-0.25997">
        <ele>1480.2</ele>
        <time>2021-08-28T08:10:25Z</time>
      </trkpt>
      <trkpt lat="42.96183" lon="-0.25996">
        <ele>1480.4</ele>
        <time>2021-08-28T08:10:26Z</time>
      </trkpt>
      <trkpt lat="42.96183" lon="-0.25994">
        <ele>1480.6</ele>
        <time>2021-08-28T08:10:27Z</time>
      </trkpt>
      <trkpt lat="42.96184" lon="-0.25993">
        <ele>1480.8</ele>
        <time>2021-08-28T08:10:28Z</time>
      </trkpt>
      <trkpt lat="42.96185" lon="-0.25991">
        <ele>1480.8</ele>
        <time>2021-08-28T08:10:29Z</time>
      </trkpt>
      <trkpt lat="42.96186" lon="-0.2599">
        <ele>1481</ele>
        <time>2021-08-28T08:10:30Z</time>
      </trkpt>
      <trkpt lat="42.96187" lon="-0.25989">
        <ele>1481.2</ele>
        <time>2021-08-28T08:10:31Z</time>
      </trkpt>
      <trkpt lat="42.96188" lon="-0.25988">
        <ele>1481.6</ele>
        <time>2021-08-28T08:10:32Z</time>
      </trkpt>
      <trkpt lat="42.96189" lon="-0.25987">
        <ele>1481.8</ele>
        <time>2021-08-28T08:10:33Z</time>
      </trkpt>
      <trkpt lat="42.9619" lon="-0.25986">
        <ele>1482.2</ele>
        <time>2021-08-28T08:10:34Z</time>
      </trkpt>
      <trkpt lat="42.96191" lon="-0.25985">
        <ele>1482.4</ele>
        <time>2021-08-28T08:10:35Z</time>
      </trkpt>
      <trkpt lat="42.96193" lon="-0.25985">
        <ele>1482.6</ele>
        <time>2021-08-28T08:10:36Z</time>
      </trkpt>
      <trkpt lat="42.96194" lon="-0.25984">
        <ele>1482.6</ele>
        <time>2021-08-28T08:10:37Z</time>
      </trkpt>
      <trkpt lat="42.96196" lon="-0.25984">
        <ele>1482.8</ele>
        <time>2021-08-28T08:10:38Z</time>
      </trkpt>
      <trkpt lat="42.96197" lon="-0.25983">
        <ele>1482.8</ele>
        <time>2021-08-28T08:10:39Z</time>
      </trkpt>
      <trkpt lat="42.96199" lon="-0.25983">
        <ele>1483.2</ele>
        <time>2021-08-28T08:10:40Z</time>
      </trkpt>
      <trkpt lat="42.962" lon="-0.25983">
        <ele>1483.4</ele>
        <time>2021-08-28T08:10:42Z</time>
      </trkpt>
      <trkpt lat="42.96202" lon="-0.25983">
        <ele>1483.6</ele>
        <time>2021-08-28T08:10:43Z</time>
      </trkpt>
      <trkpt lat="42.96203" lon="-0.25982">
        <ele>1483.8</ele>
        <time>2021-08-28T08:10:44Z</time>
      </trkpt>
      <trkpt lat="42.96204" lon="-0.25982">
        <ele>1483.8</ele>
        <time>2021-08-28T08:10:45Z</time>
      </trkpt>
      <trkpt lat="42.96205" lon="-0.25981">
        <ele>1484</ele>
        <time>2021-08-28T08:10:46Z</time>
      </trkpt>
      <trkpt lat="42.96207" lon="-0.25981">
        <ele>1484.2</ele>
        <time>2021-08-28T08:10:47Z</time>
      </trkpt>
      <trkpt lat="42.96208" lon="-0.25981">
        <ele>1484.6</ele>
        <time>2021-08-28T08:10:48Z</time>
      </trkpt>
      <trkpt lat="42.96209" lon="-0.25981">
        <ele>1484.8</ele>
        <time>2021-08-28T08:10:49Z</time>
      </trkpt>
      <trkpt lat="42.9621" lon="-0.25981">
        <ele>1485</ele>
        <time>2021-08-28T08:10:50Z</time>
      </trkpt>
      <trkpt lat="42.96212" lon="-0.2598">
        <ele>1485</ele>
        <time>2021-08-28T08:10:51Z</time>
      </trkpt>
      <trkpt lat="42.96213" lon="-0.2598">
        <ele>1485.4</ele>
        <time>2021-08-28T08:10:52Z</time>
      </trkpt>
      <trkpt lat="42.96215" lon="-0.25979">
        <ele>1485.4</ele>
        <time>2021-08-28T08:10:53Z</time>
      </trkpt>
      <trkpt lat="42.96216" lon="-0.25978">
        <ele>1485.6</ele>
        <time>2021-08-28T08:10:54Z</time>
      </trkpt>
      <trkpt lat="42.96217" lon="-0.25978">
        <ele>1485.8</ele>
        <time>2021-08-28T08:10:55Z</time>
      </trkpt>
      <trkpt lat="42.96218" lon="-0.25977">
        <ele>1486</ele>
        <time>2021-08-28T08:10:56Z</time>
      </trkpt>
      <trkpt lat="42.96219" lon="-0.25977">
        <ele>1486.2</ele>
        <time>2021-08-28T08:10:57Z</time>
      </trkpt>
      <trkpt lat="42.96221" lon="-0.25977">
        <ele>1486.4</ele>
        <time>2021-08-28T08:10:58Z</time>
      </trkpt>
      <trkpt lat="42.96222" lon="-0.25976">
        <ele>1487</ele>
        <time>2021-08-28T08:10:59Z</time>
      </trkpt>
      <trkpt lat="42.96223" lon="-0.25975">
        <ele>1487.2</ele>
        <time>2021-08-28T08:11:00Z</time>
      </trkpt>
      <trkpt lat="42.96225" lon="-0.25975">
        <ele>1487.2</ele>
        <time>2021-08-28T08:11:01Z</time>
      </trkpt>
      <trkpt lat="42.96226" lon="-0.25974">
        <ele>1487.4</ele>
        <time>2021-08-28T08:11:02Z</time>
      </trkpt>
      <trkpt lat="42.96227" lon="-0.25973">
        <ele>1487.6</ele>
        <time>2021-08-28T08:11:03Z</time>
      </trkpt>
      <trkpt lat="42.96228" lon="-0.25972">
        <ele>1487.8</ele>
        <time>2021-08-28T08:11:04Z</time>
      </trkpt>
      <trkpt lat="42.96229" lon="-0.25971">
        <ele>1488.4</ele>
        <time>2021-08-28T08:11:05Z</time>
      </trkpt>
      <trkpt lat="42.96231" lon="-0.25971">
        <ele>1488.6</ele>
        <time>2021-08-28T08:11:06Z</time>
      </trkpt>
      <trkpt lat="42.96232" lon="-0.2597">
        <ele>1488.8</ele>
        <time>2021-08-28T08:11:07Z</time>
      </trkpt>
      <trkpt lat="42.96233" lon="-0.25969">
        <ele>1489</ele>
        <time>2021-08-28T08:11:08Z</time>
      </trkpt>
      <trkpt lat="42.96234" lon="-0.25968">
        <ele>1489.4</ele>
        <time>2021-08-28T08:11:09Z</time>
      </trkpt>
      <trkpt lat="42.96236" lon="-0.25968">
        <ele>1489.4</ele>
        <time>2021-08-28T08:11:10Z</time>
      </trkpt>
      <trkpt lat="42.96237" lon="-0.25967">
        <ele>1489.8</ele>
        <time>2021-08-28T08:11:11Z</time>
      </trkpt>
      <trkpt lat="42.96238" lon="-0.25966">
        <ele>1489.8</ele>
        <time>2021-08-28T08:11:12Z</time>
      </trkpt>
      <trkpt lat="42.96239" lon="-0.25964">
        <ele>1490.2</ele>
        <time>2021-08-28T08:11:13Z</time>
      </trkpt>
      <trkpt lat="42.9624" lon="-0.25963">
        <ele>1490.2</ele>
        <time>2021-08-28T08:11:14Z</time>
      </trkpt>
      <trkpt lat="42.9624" lon="-0.25962">
        <ele>1490.4</ele>
        <time>2021-08-28T08:11:15Z</time>
      </trkpt>
      <trkpt lat="42.96241" lon="-0.25961">
        <ele>1490.4</ele>
        <time>2021-08-28T08:11:16Z</time>
      </trkpt>
      <trkpt lat="42.96242" lon="-0.25959">
        <ele>1490.8</ele>
        <time>2021-08-28T08:11:17Z</time>
      </trkpt>
      <trkpt lat="42.96243" lon="-0.25958">
        <ele>1491</ele>
        <time>2021-08-28T08:11:18Z</time>
      </trkpt>
      <trkpt lat="42.96244" lon="-0.25958">
        <ele>1491</ele>
        <time>2021-08-28T08:11:19Z</time>
      </trkpt>
      <trkpt lat="42.96245" lon="-0.25956">
        <ele>1491.2</ele>
        <time>2021-08-28T08:11:20Z</time>
      </trkpt>
      <trkpt lat="42.96246" lon="-0.25955">
        <ele>1491.4</ele>
        <time>2021-08-28T08:11:21Z</time>
      </trkpt>
      <trkpt lat="42.96247" lon="-0.25954">
        <ele>1491.8</ele>
        <time>2021-08-28T08:11:22Z</time>
      </trkpt>
      <trkpt lat="42.96248" lon="-0.25953">
        <ele>1492</ele>
        <time>2021-08-28T08:11:23Z</time>
      </trkpt>
      <trkpt lat="42.96249" lon="-0.25952">
        <ele>1492.2</ele>
        <time>2021-08-28T08:11:24Z</time>
      </trkpt>
      <trkpt lat="42.96249" lon="-0.2595">
        <ele>1492.4</ele>
        <time>2021-08-28T08:11:25Z</time>
      </trkpt>
      <trkpt lat="42.9625" lon="-0.25949">
        <ele>1492.6</ele>
        <time>2021-08-28T08:11:26Z</time>
      </trkpt>
      <trkpt lat="42.96251" lon="-0.25948">
        <ele>1492.8</ele>
        <time>2021-08-28T08:11:27Z</time>
      </trkpt>
      <trkpt lat="42.96252" lon="-0.25947">
        <ele>1493.2</ele>
        <time>2021-08-28T08:11:28Z</time>
      </trkpt>
      <trkpt lat="42.96252" lon="-0.25946">
        <ele>1493.2</ele>
        <time>2021-08-28T08:11:29Z</time>
      </trkpt>
      <trkpt lat="42.96253" lon="-0.25945">
        <ele>1493.4</ele>
        <time>2021-08-28T08:11:30Z</time>
      </trkpt>
      <trkpt lat="42.96255" lon="-0.25944">
        <ele>1493.4</ele>
        <time>2021-08-28T08:11:31Z</time>
      </trkpt>
      <trkpt lat="42.96255" lon="-0.25942">
        <ele>1493.6</ele>
        <time>2021-08-28T08:11:32Z</time>
      </trkpt>
      <trkpt lat="42.96256" lon="-0.25941">
        <ele>1493.8</ele>
        <time>2021-08-28T08:11:33Z</time>
      </trkpt>
      <trkpt lat="42.96257" lon="-0.2594">
        <ele>1494.2</ele>
        <time>2021-08-28T08:11:34Z</time>
      </trkpt>
      <trkpt lat="42.96258" lon="-0.25938">
        <ele>1494.4</ele>
        <time>2021-08-28T08:11:35Z</time>
      </trkpt>
      <trkpt lat="42.96259" lon="-0.25937">
        <ele>1494.6</ele>
        <time>2021-08-28T08:11:36Z</time>
      </trkpt>
      <trkpt lat="42.9626" lon="-0.25937">
        <ele>1494.8</ele>
        <time>2021-08-28T08:11:37Z</time>
      </trkpt>
      <trkpt lat="42.96262" lon="-0.25936">
        <ele>1495</ele>
        <time>2021-08-28T08:11:38Z</time>
      </trkpt>
      <trkpt lat="42.96263" lon="-0.25936">
        <ele>1495.6</ele>
        <time>2021-08-28T08:11:39Z</time>
      </trkpt>
      <trkpt lat="42.96264" lon="-0.25935">
        <ele>1495.8</ele>
        <time>2021-08-28T08:11:40Z</time>
      </trkpt>
      <trkpt lat="42.96265" lon="-0.25935">
        <ele>1496</ele>
        <time>2021-08-28T08:11:41Z</time>
      </trkpt>
      <trkpt lat="42.96267" lon="-0.25935">
        <ele>1496.2</ele>
        <time>2021-08-28T08:11:42Z</time>
      </trkpt>
      <trkpt lat="42.96268" lon="-0.25935">
        <ele>1496.6</ele>
        <time>2021-08-28T08:11:43Z</time>
      </trkpt>
      <trkpt lat="42.96269" lon="-0.25934">
        <ele>1496.6</ele>
        <time>2021-08-28T08:11:44Z</time>
      </trkpt>
      <trkpt lat="42.96271" lon="-0.25934">
        <ele>1496.8</ele>
        <time>2021-08-28T08:11:45Z</time>
      </trkpt>
      <trkpt lat="42.96272" lon="-0.25934">
        <ele>1497</ele>
        <time>2021-08-28T08:11:46Z</time>
      </trkpt>
      <trkpt lat="42.96274" lon="-0.25933">
        <ele>1497.4</ele>
        <time>2021-08-28T08:11:47Z</time>
      </trkpt>
      <trkpt lat="42.96275" lon="-0.25933">
        <ele>1497.4</ele>
        <time>2021-08-28T08:11:48Z</time>
      </trkpt>
      <trkpt lat="42.96276" lon="-0.25933">
        <ele>1497.8</ele>
        <time>2021-08-28T08:11:49Z</time>
      </trkpt>
      <trkpt lat="42.96277" lon="-0.25932">
        <ele>1498</ele>
        <time>2021-08-28T08:11:50Z</time>
      </trkpt>
      <trkpt lat="42.96278" lon="-0.25932">
        <ele>1498.2</ele>
        <time>2021-08-28T08:11:51Z</time>
      </trkpt>
      <trkpt lat="42.96279" lon="-0.25931">
        <ele>1498.4</ele>
        <time>2021-08-28T08:11:52Z</time>
      </trkpt>
      <trkpt lat="42.9628" lon="-0.25931">
        <ele>1498.6</ele>
        <time>2021-08-28T08:11:53Z</time>
      </trkpt>
      <trkpt lat="42.96281" lon="-0.25931">
        <ele>1498.6</ele>
        <time>2021-08-28T08:11:54Z</time>
      </trkpt>
      <trkpt lat="42.96282" lon="-0.25931">
        <ele>1498.6</ele>
        <time>2021-08-28T08:11:55Z</time>
      </trkpt>
      <trkpt lat="42.96283" lon="-0.25931">
        <ele>1499</ele>
        <time>2021-08-28T08:11:56Z</time>
      </trkpt>
      <trkpt lat="42.96284" lon="-0.2593">
        <ele>1499</ele>
        <time>2021-08-28T08:11:57Z</time>
      </trkpt>
      <trkpt lat="42.96285" lon="-0.2593">
        <ele>1499.2</ele>
        <time>2021-08-28T08:11:58Z</time>
      </trkpt>
      <trkpt lat="42.96287" lon="-0.25929">
        <ele>1499.6</ele>
        <time>2021-08-28T08:11:59Z</time>
      </trkpt>
      <trkpt lat="42.96288" lon="-0.25929">
        <ele>1500</ele>
        <time>2021-08-28T08:12:00Z</time>
      </trkpt>
      <trkpt lat="42.96289" lon="-0.25928">
        <ele>1500.2</ele>
        <time>2021-08-28T08:12:01Z</time>
      </trkpt>
      <trkpt lat="42.9629" lon="-0.25928">
        <ele>1500.4</ele>
        <time>2021-08-28T08:12:02Z</time>
      </trkpt>
      <trkpt lat="42.96291" lon="-0.25928">
        <ele>1500.6</ele>
        <time>2021-08-28T08:12:03Z</time>
      </trkpt>
      <trkpt lat="42.96292" lon="-0.25928">
        <ele>1500.8</ele>
        <time>2021-08-28T08:12:04Z</time>
      </trkpt>
      <trkpt lat="42.96293" lon="-0.25928">
        <ele>1501</ele>
        <time>2021-08-28T08:12:05Z</time>
      </trkpt>
      <trkpt lat="42.96294" lon="-0.25929">
        <ele>1501.4</ele>
        <time>2021-08-28T08:12:06Z</time>
      </trkpt>
      <trkpt lat="42.96296" lon="-0.25929">
        <ele>1501.4</ele>
        <time>2021-08-28T08:12:07Z</time>
      </trkpt>
      <trkpt lat="42.96297" lon="-0.25929">
        <ele>1501.6</ele>
        <time>2021-08-28T08:12:08Z</time>
      </trkpt>
      <trkpt lat="42.96298" lon="-0.25929">
        <ele>1502</ele>
        <time>2021-08-28T08:12:09Z</time>
      </trkpt>
      <trkpt lat="42.96299" lon="-0.25929">
        <ele>1502.2</ele>
        <time>2021-08-28T08:12:10Z</time>
      </trkpt>
      <trkpt lat="42.963" lon="-0.25929">
        <ele>1502.4</ele>
        <time>2021-08-28T08:12:11Z</time>
      </trkpt>
      <trkpt lat="42.96301" lon="-0.25929">
        <ele>1502.6</ele>
        <time>2021-08-28T08:12:12Z</time>
      </trkpt>
      <trkpt lat="42.96302" lon="-0.25929">
        <ele>1502.8</ele>
        <time>2021-08-28T08:12:13Z</time>
      </trkpt>
      <trkpt lat="42.96303" lon="-0.25929">
        <ele>1503</ele>
        <time>2021-08-28T08:12:14Z</time>
      </trkpt>
      <trkpt lat="42.96304" lon="-0.25929">
        <ele>1503.2</ele>
        <time>2021-08-28T08:12:15Z</time>
      </trkpt>
      <trkpt lat="42.96305" lon="-0.25929">
        <ele>1503.4</ele>
        <time>2021-08-28T08:12:16Z</time>
      </trkpt>
      <trkpt lat="42.96307" lon="-0.25928">
        <ele>1503.6</ele>
        <time>2021-08-28T08:12:17Z</time>
      </trkpt>
      <trkpt lat="42.96308" lon="-0.25928">
        <ele>1503.8</ele>
        <time>2021-08-28T08:12:18Z</time>
      </trkpt>
      <trkpt lat="42.96309" lon="-0.25928">
        <ele>1504</ele>
        <time>2021-08-28T08:12:19Z</time>
      </trkpt>
      <trkpt lat="42.9631" lon="-0.25928">
        <ele>1504.4</ele>
        <time>2021-08-28T08:12:20Z</time>
      </trkpt>
      <trkpt lat="42.9631" lon="-0.25928">
        <ele>1504.8</ele>
        <time>2021-08-28T08:12:21Z</time>
      </trkpt>
      <trkpt lat="42.96312" lon="-0.25928">
        <ele>1505</ele>
        <time>2021-08-28T08:12:22Z</time>
      </trkpt>
      <trkpt lat="42.96313" lon="-0.25928">
        <ele>1505.2</ele>
        <time>2021-08-28T08:12:23Z</time>
      </trkpt>
      <trkpt lat="42.96314" lon="-0.25928">
        <ele>1505.6</ele>
        <time>2021-08-28T08:12:24Z</time>
      </trkpt>
      <trkpt lat="42.96315" lon="-0.25927">
        <ele>1505.8</ele>
        <time>2021-08-28T08:12:25Z</time>
      </trkpt>
      <trkpt lat="42.96316" lon="-0.25927">
        <ele>1506</ele>
        <time>2021-08-28T08:12:26Z</time>
      </trkpt>
      <trkpt lat="42.96317" lon="-0.25927">
        <ele>1506.2</ele>
        <time>2021-08-28T08:12:27Z</time>
      </trkpt>
      <trkpt lat="42.96318" lon="-0.25927">
        <ele>1506.8</ele>
        <time>2021-08-28T08:12:28Z</time>
      </trkpt>
      <trkpt lat="42.96319" lon="-0.25927">
        <ele>1506.8</ele>
        <time>2021-08-28T08:12:29Z</time>
      </trkpt>
      <trkpt lat="42.9632" lon="-0.25927">
        <ele>1507.2</ele>
        <time>2021-08-28T08:12:30Z</time>
      </trkpt>
      <trkpt lat="42.96321" lon="-0.25927">
        <ele>1507.4</ele>
        <time>2021-08-28T08:12:31Z</time>
      </trkpt>
      <trkpt lat="42.96321" lon="-0.25926">
        <ele>1507.6</ele>
        <time>2021-08-28T08:12:32Z</time>
      </trkpt>
      <trkpt lat="42.96321" lon="-0.25927">
        <ele>1507.8</ele>
        <time>2021-08-28T08:12:33Z</time>
      </trkpt>
      <trkpt lat="42.96321" lon="-0.25927">
        <ele>1508</ele>
        <time>2021-08-28T08:12:34Z</time>
      </trkpt>
      <trkpt lat="42.96321" lon="-0.25927">
        <ele>1509</ele>
        <time>2021-08-28T08:12:38Z</time>
      </trkpt>
      <trkpt lat="42.96322" lon="-0.25927">
        <ele>1509.2</ele>
        <time>2021-08-28T08:12:39Z</time>
      </trkpt>
      <trkpt lat="42.96322" lon="-0.25927">
        <ele>1509.4</ele>
        <time>2021-08-28T08:12:40Z</time>
      </trkpt>
      <trkpt lat="42.96323" lon="-0.25927">
        <ele>1509.4</ele>
        <time>2021-08-28T08:12:41Z</time>
      </trkpt>
      <trkpt lat="42.96323" lon="-0.25927">
        <ele>1509.6</ele>
        <time>2021-08-28T08:12:42Z</time>
      </trkpt>
      <trkpt lat="42.96324" lon="-0.25927">
        <ele>1509.6</ele>
        <time>2021-08-28T08:12:43Z</time>
      </trkpt>
      <trkpt lat="42.96325" lon="-0.25927">
        <ele>1509.6</ele>
        <time>2021-08-28T08:12:44Z</time>
      </trkpt>
      <trkpt lat="42.96326" lon="-0.25927">
        <ele>1509.8</ele>
        <time>2021-08-28T08:12:45Z</time>
      </trkpt>
      <trkpt lat="42.96327" lon="-0.25927">
        <ele>1509.8</ele>
        <time>2021-08-28T08:12:46Z</time>
      </trkpt>
      <trkpt lat="42.96328" lon="-0.25928">
        <ele>1510.2</ele>
        <time>2021-08-28T08:12:47Z</time>
      </trkpt>
      <trkpt lat="42.96328" lon="-0.25928">
        <ele>1510.2</ele>
        <time>2021-08-28T08:12:48Z</time>
      </trkpt>
      <trkpt lat="42.96329" lon="-0.25927">
        <ele>1511</ele>
        <time>2021-08-28T08:12:54Z</time>
      </trkpt>
      <trkpt lat="42.9633" lon="-0.25927">
        <ele>1511.2</ele>
        <time>2021-08-28T08:12:55Z</time>
      </trkpt>
      <trkpt lat="42.96331" lon="-0.25927">
        <ele>1511.2</ele>
        <time>2021-08-28T08:12:56Z</time>
      </trkpt>
      <trkpt lat="42.96332" lon="-0.25927">
        <ele>1511.4</ele>
        <time>2021-08-28T08:12:57Z</time>
      </trkpt>
      <trkpt lat="42.96334" lon="-0.25928">
        <ele>1511.6</ele>
        <time>2021-08-28T08:12:58Z</time>
      </trkpt>
      <trkpt lat="42.96334" lon="-0.25928">
        <ele>1511.6</ele>
        <time>2021-08-28T08:12:59Z</time>
      </trkpt>
      <trkpt lat="42.96336" lon="-0.25929">
        <ele>1511.6</ele>
        <time>2021-08-28T08:13:00Z</time>
      </trkpt>
      <trkpt lat="42.96337" lon="-0.25929">
        <ele>1511.8</ele>
        <time>2021-08-28T08:13:01Z</time>
      </trkpt>
      <trkpt lat="42.96339" lon="-0.25928">
        <ele>1512</ele>
        <time>2021-08-28T08:13:02Z</time>
      </trkpt>
      <trkpt lat="42.9634" lon="-0.25928">
        <ele>1512.2</ele>
        <time>2021-08-28T08:13:03Z</time>
      </trkpt>
      <trkpt lat="42.96341" lon="-0.25927">
        <ele>1512.4</ele>
        <time>2021-08-28T08:13:04Z</time>
      </trkpt>
      <trkpt lat="42.96343" lon="-0.25926">
        <ele>1512.6</ele>
        <time>2021-08-28T08:13:05Z</time>
      </trkpt>
      <trkpt lat="42.96344" lon="-0.25926">
        <ele>1512.8</ele>
        <time>2021-08-28T08:13:06Z</time>
      </trkpt>
      <trkpt lat="42.96345" lon="-0.25925">
        <ele>1513</ele>
        <time>2021-08-28T08:13:07Z</time>
      </trkpt>
      <trkpt lat="42.96347" lon="-0.25925">
        <ele>1513.4</ele>
        <time>2021-08-28T08:13:08Z</time>
      </trkpt>
      <trkpt lat="42.96348" lon="-0.25925">
        <ele>1513.4</ele>
        <time>2021-08-28T08:13:09Z</time>
      </trkpt>
      <trkpt lat="42.9635" lon="-0.25924">
        <ele>1513.8</ele>
        <time>2021-08-28T08:13:10Z</time>
      </trkpt>
      <trkpt lat="42.96351" lon="-0.25924">
        <ele>1513.8</ele>
        <time>2021-08-28T08:13:11Z</time>
      </trkpt>
      <trkpt lat="42.96353" lon="-0.25924">
        <ele>1514.2</ele>
        <time>2021-08-28T08:13:12Z</time>
      </trkpt>
      <trkpt lat="42.96354" lon="-0.25925">
        <ele>1514.2</ele>
        <time>2021-08-28T08:13:13Z</time>
      </trkpt>
      <trkpt lat="42.96355" lon="-0.25925">
        <ele>1514.6</ele>
        <time>2021-08-28T08:13:14Z</time>
      </trkpt>
      <trkpt lat="42.96356" lon="-0.25925">
        <ele>1515</ele>
        <time>2021-08-28T08:13:15Z</time>
      </trkpt>
      <trkpt lat="42.96357" lon="-0.25925">
        <ele>1515</ele>
        <time>2021-08-28T08:13:16Z</time>
      </trkpt>
      <trkpt lat="42.96358" lon="-0.25925">
        <ele>1515.2</ele>
        <time>2021-08-28T08:13:17Z</time>
      </trkpt>
      <trkpt lat="42.9636" lon="-0.25925">
        <ele>1515.2</ele>
        <time>2021-08-28T08:13:18Z</time>
      </trkpt>
      <trkpt lat="42.96361" lon="-0.25924">
        <ele>1515.4</ele>
        <time>2021-08-28T08:13:19Z</time>
      </trkpt>
      <trkpt lat="42.96361" lon="-0.25924">
        <ele>1515.6</ele>
        <time>2021-08-28T08:13:20Z</time>
      </trkpt>
      <trkpt lat="42.96363" lon="-0.25924">
        <ele>1516</ele>
        <time>2021-08-28T08:13:21Z</time>
      </trkpt>
      <trkpt lat="42.96364" lon="-0.25924">
        <ele>1516.2</ele>
        <time>2021-08-28T08:13:22Z</time>
      </trkpt>
      <trkpt lat="42.96365" lon="-0.25924">
        <ele>1516.6</ele>
        <time>2021-08-28T08:13:23Z</time>
      </trkpt>
      <trkpt lat="42.96366" lon="-0.25925">
        <ele>1516.6</ele>
        <time>2021-08-28T08:13:24Z</time>
      </trkpt>
      <trkpt lat="42.96367" lon="-0.25926">
        <ele>1517</ele>
        <time>2021-08-28T08:13:25Z</time>
      </trkpt>
      <trkpt lat="42.96368" lon="-0.25926">
        <ele>1517.2</ele>
        <time>2021-08-28T08:13:26Z</time>
      </trkpt>
      <trkpt lat="42.9637" lon="-0.25926">
        <ele>1517.4</ele>
        <time>2021-08-28T08:13:27Z</time>
      </trkpt>
      <trkpt lat="42.96371" lon="-0.25926">
        <ele>1517.6</ele>
        <time>2021-08-28T08:13:28Z</time>
      </trkpt>
      <trkpt lat="42.96372" lon="-0.25926">
        <ele>1518</ele>
        <time>2021-08-28T08:13:29Z</time>
      </trkpt>
      <trkpt lat="42.96373" lon="-0.25927">
        <ele>1518</ele>
        <time>2021-08-28T08:13:30Z</time>
      </trkpt>
      <trkpt lat="42.96374" lon="-0.25927">
        <ele>1518.2</ele>
        <time>2021-08-28T08:13:31Z</time>
      </trkpt>
      <trkpt lat="42.96376" lon="-0.25927">
        <ele>1518.6</ele>
        <time>2021-08-28T08:13:32Z</time>
      </trkpt>
      <trkpt lat="42.96377" lon="-0.25927">
        <ele>1518.6</ele>
        <time>2021-08-28T08:13:33Z</time>
      </trkpt>
      <trkpt lat="42.96378" lon="-0.25927">
        <ele>1519</ele>
        <time>2021-08-28T08:13:34Z</time>
      </trkpt>
      <trkpt lat="42.96379" lon="-0.25927">
        <ele>1519</ele>
        <time>2021-08-28T08:13:35Z</time>
      </trkpt>
      <trkpt lat="42.9638" lon="-0.25927">
        <ele>1519.2</ele>
        <time>2021-08-28T08:13:36Z</time>
      </trkpt>
      <trkpt lat="42.96382" lon="-0.25927">
        <ele>1519.2</ele>
        <time>2021-08-28T08:13:37Z</time>
      </trkpt>
      <trkpt lat="42.96383" lon="-0.25928">
        <ele>1519.4</ele>
        <time>2021-08-28T08:13:38Z</time>
      </trkpt>
      <trkpt lat="42.96384" lon="-0.25928">
        <ele>1519.4</ele>
        <time>2021-08-28T08:13:39Z</time>
      </trkpt>
      <trkpt lat="42.96385" lon="-0.25929">
        <ele>1519.6</ele>
        <time>2021-08-28T08:13:40Z</time>
      </trkpt>
      <trkpt lat="42.96386" lon="-0.25929">
        <ele>1519.8</ele>
        <time>2021-08-28T08:13:41Z</time>
      </trkpt>
      <trkpt lat="42.96387" lon="-0.25929">
        <ele>1520.2</ele>
        <time>2021-08-28T08:13:42Z</time>
      </trkpt>
      <trkpt lat="42.96388" lon="-0.2593">
        <ele>1520.4</ele>
        <time>2021-08-28T08:13:43Z</time>
      </trkpt>
      <trkpt lat="42.96389" lon="-0.25931">
        <ele>1520.6</ele>
        <time>2021-08-28T08:13:44Z</time>
      </trkpt>
      <trkpt lat="42.9639" lon="-0.25933">
        <ele>1520.6</ele>
        <time>2021-08-28T08:13:45Z</time>
      </trkpt>
      <trkpt lat="42.96391" lon="-0.25934">
        <ele>1520.8</ele>
        <time>2021-08-28T08:13:46Z</time>
      </trkpt>
      <trkpt lat="42.96392" lon="-0.25935">
        <ele>1521</ele>
        <time>2021-08-28T08:13:47Z</time>
      </trkpt>
      <trkpt lat="42.96393" lon="-0.25936">
        <ele>1521.2</ele>
        <time>2021-08-28T08:13:48Z</time>
      </trkpt>
      <trkpt lat="42.96394" lon="-0.25937">
        <ele>1521.2</ele>
        <time>2021-08-28T08:13:49Z</time>
      </trkpt>
      <trkpt lat="42.96395" lon="-0.25938">
        <ele>1521.4</ele>
        <time>2021-08-28T08:13:50Z</time>
      </trkpt>
      <trkpt lat="42.96396" lon="-0.25938">
        <ele>1521.8</ele>
        <time>2021-08-28T08:13:51Z</time>
      </trkpt>
      <trkpt lat="42.96397" lon="-0.25939">
        <ele>1522</ele>
        <time>2021-08-28T08:13:52Z</time>
      </trkpt>
      <trkpt lat="42.96398" lon="-0.2594">
        <ele>1522.4</ele>
        <time>2021-08-28T08:13:53Z</time>
      </trkpt>
      <trkpt lat="42.96399" lon="-0.2594">
        <ele>1522.6</ele>
        <time>2021-08-28T08:13:54Z</time>
      </trkpt>
      <trkpt lat="42.96401" lon="-0.2594">
        <ele>1523</ele>
        <time>2021-08-28T08:13:55Z</time>
      </trkpt>
      <trkpt lat="42.96402" lon="-0.25941">
        <ele>1523</ele>
        <time>2021-08-28T08:13:56Z</time>
      </trkpt>
      <trkpt lat="42.96403" lon="-0.25941">
        <ele>1523.4</ele>
        <time>2021-08-28T08:13:57Z</time>
      </trkpt>
      <trkpt lat="42.96404" lon="-0.25941">
        <ele>1523.4</ele>
        <time>2021-08-28T08:13:58Z</time>
      </trkpt>
      <trkpt lat="42.96405" lon="-0.25941">
        <ele>1523.6</ele>
        <time>2021-08-28T08:13:59Z</time>
      </trkpt>
      <trkpt lat="42.96407" lon="-0.25942">
        <ele>1523.8</ele>
        <time>2021-08-28T08:14:00Z</time>
      </trkpt>
      <trkpt lat="42.96408" lon="-0.25942">
        <ele>1524</ele>
        <time>2021-08-28T08:14:01Z</time>
      </trkpt>
      <trkpt lat="42.96409" lon="-0.25942">
        <ele>1524</ele>
        <time>2021-08-28T08:14:02Z</time>
      </trkpt>
      <trkpt lat="42.96411" lon="-0.25942">
        <ele>1524.4</ele>
        <time>2021-08-28T08:14:03Z</time>
      </trkpt>
      <trkpt lat="42.96412" lon="-0.25942">
        <ele>1524.6</ele>
        <time>2021-08-28T08:14:04Z</time>
      </trkpt>
      <trkpt lat="42.96413" lon="-0.25942">
        <ele>1524.8</ele>
        <time>2021-08-28T08:14:05Z</time>
      </trkpt>
      <trkpt lat="42.96414" lon="-0.25941">
        <ele>1525.2</ele>
        <time>2021-08-28T08:14:06Z</time>
      </trkpt>
      <trkpt lat="42.96415" lon="-0.25941">
        <ele>1525.2</ele>
        <time>2021-08-28T08:14:07Z</time>
      </trkpt>
      <trkpt lat="42.96416" lon="-0.25941">
        <ele>1525.4</ele>
        <time>2021-08-28T08:14:08Z</time>
      </trkpt>
      <trkpt lat="42.96417" lon="-0.25941">
        <ele>1525.6</ele>
        <time>2021-08-28T08:14:09Z</time>
      </trkpt>
      <trkpt lat="42.96418" lon="-0.25941">
        <ele>1526</ele>
        <time>2021-08-28T08:14:10Z</time>
      </trkpt>
      <trkpt lat="42.9642" lon="-0.25941">
        <ele>1526.2</ele>
        <time>2021-08-28T08:14:11Z</time>
      </trkpt>
      <trkpt lat="42.96421" lon="-0.25941">
        <ele>1526.6</ele>
        <time>2021-08-28T08:14:12Z</time>
      </trkpt>
      <trkpt lat="42.96422" lon="-0.2594">
        <ele>1526.6</ele>
        <time>2021-08-28T08:14:13Z</time>
      </trkpt>
      <trkpt lat="42.96423" lon="-0.2594">
        <ele>1526.8</ele>
        <time>2021-08-28T08:14:14Z</time>
      </trkpt>
      <trkpt lat="42.96424" lon="-0.2594">
        <ele>1527</ele>
        <time>2021-08-28T08:14:15Z</time>
      </trkpt>
      <trkpt lat="42.96425" lon="-0.2594">
        <ele>1527.2</ele>
        <time>2021-08-28T08:14:16Z</time>
      </trkpt>
      <trkpt lat="42.96426" lon="-0.25941">
        <ele>1527.4</ele>
        <time>2021-08-28T08:14:17Z</time>
      </trkpt>
      <trkpt lat="42.96427" lon="-0.25941">
        <ele>1527.6</ele>
        <time>2021-08-28T08:14:18Z</time>
      </trkpt>
      <trkpt lat="42.96428" lon="-0.2594">
        <ele>1527.6</ele>
        <time>2021-08-28T08:14:19Z</time>
      </trkpt>
      <trkpt lat="42.96429" lon="-0.2594">
        <ele>1528</ele>
        <time>2021-08-28T08:14:20Z</time>
      </trkpt>
      <trkpt lat="42.9643" lon="-0.2594">
        <ele>1528.2</ele>
        <time>2021-08-28T08:14:21Z</time>
      </trkpt>
      <trkpt lat="42.96431" lon="-0.2594">
        <ele>1528.4</ele>
        <time>2021-08-28T08:14:22Z</time>
      </trkpt>
      <trkpt lat="42.96432" lon="-0.2594">
        <ele>1528.6</ele>
        <time>2021-08-28T08:14:23Z</time>
      </trkpt>
      <trkpt lat="42.96433" lon="-0.25939">
        <ele>1528.8</ele>
        <time>2021-08-28T08:14:24Z</time>
      </trkpt>
      <trkpt lat="42.96434" lon="-0.25939">
        <ele>1529</ele>
        <time>2021-08-28T08:14:25Z</time>
      </trkpt>
      <trkpt lat="42.96435" lon="-0.25939">
        <ele>1529</ele>
        <time>2021-08-28T08:14:26Z</time>
      </trkpt>
      <trkpt lat="42.96436" lon="-0.25939">
        <ele>1529.4</ele>
        <time>2021-08-28T08:14:27Z</time>
      </trkpt>
      <trkpt lat="42.96438" lon="-0.25938">
        <ele>1529.6</ele>
        <time>2021-08-28T08:14:28Z</time>
      </trkpt>
      <trkpt lat="42.96439" lon="-0.25938">
        <ele>1529.8</ele>
        <time>2021-08-28T08:14:29Z</time>
      </trkpt>
      <trkpt lat="42.9644" lon="-0.25938">
        <ele>1530</ele>
        <time>2021-08-28T08:14:30Z</time>
      </trkpt>
      <trkpt lat="42.96441" lon="-0.25938">
        <ele>1530.2</ele>
        <time>2021-08-28T08:14:31Z</time>
      </trkpt>
      <trkpt lat="42.96442" lon="-0.25938">
        <ele>1530.4</ele>
        <time>2021-08-28T08:14:32Z</time>
      </trkpt>
      <trkpt lat="42.96443" lon="-0.25937">
        <ele>1530.8</ele>
        <time>2021-08-28T08:14:33Z</time>
      </trkpt>
      <trkpt lat="42.96444" lon="-0.25937">
        <ele>1531</ele>
        <time>2021-08-28T08:14:34Z</time>
      </trkpt>
      <trkpt lat="42.96444" lon="-0.25937">
        <ele>1531.2</ele>
        <time>2021-08-28T08:14:35Z</time>
      </trkpt>
      <trkpt lat="42.96444" lon="-0.25937">
        <ele>1532</ele>
        <time>2021-08-28T08:14:39Z</time>
      </trkpt>
      <trkpt lat="42.96445" lon="-0.25937">
        <ele>1532.2</ele>
        <time>2021-08-28T08:14:41Z</time>
      </trkpt>
      <trkpt lat="42.96446" lon="-0.25936">
        <ele>1532.2</ele>
        <time>2021-08-28T08:14:42Z</time>
      </trkpt>
      <trkpt lat="42.96447" lon="-0.25936">
        <ele>1532.4</ele>
        <time>2021-08-28T08:14:43Z</time>
      </trkpt>
      <trkpt lat="42.96447" lon="-0.25936">
        <ele>1532.4</ele>
        <time>2021-08-28T08:14:44Z</time>
      </trkpt>
      <trkpt lat="42.96448" lon="-0.25935">
        <ele>1532.6</ele>
        <time>2021-08-28T08:14:45Z</time>
      </trkpt>
      <trkpt lat="42.96449" lon="-0.25935">
        <ele>1532.6</ele>
        <time>2021-08-28T08:14:46Z</time>
      </trkpt>
      <trkpt lat="42.9645" lon="-0.25935">
        <ele>1532.8</ele>
        <time>2021-08-28T08:14:47Z</time>
      </trkpt>
      <trkpt lat="42.96451" lon="-0.25934">
        <ele>1532.8</ele>
        <time>2021-08-28T08:14:48Z</time>
      </trkpt>
      <trkpt lat="42.96451" lon="-0.25934">
        <ele>1532.8</ele>
        <time>2021-08-28T08:14:49Z</time>
      </trkpt>
      <trkpt lat="42.96452" lon="-0.25933">
        <ele>1533</ele>
        <time>2021-08-28T08:14:50Z</time>
      </trkpt>
      <trkpt lat="42.96452" lon="-0.25932">
        <ele>1533</ele>
        <time>2021-08-28T08:14:51Z</time>
      </trkpt>
      <trkpt lat="42.96452" lon="-0.25932">
        <ele>1533.2</ele>
        <time>2021-08-28T08:14:52Z</time>
      </trkpt>
      <trkpt lat="42.96452" lon="-0.25931">
        <ele>1533.2</ele>
        <time>2021-08-28T08:14:53Z</time>
      </trkpt>
      <trkpt lat="42.96453" lon="-0.25931">
        <ele>1533.6</ele>
        <time>2021-08-28T08:14:54Z</time>
      </trkpt>
      <trkpt lat="42.96454" lon="-0.2593">
        <ele>1533.6</ele>
        <time>2021-08-28T08:14:55Z</time>
      </trkpt>
      <trkpt lat="42.96455" lon="-0.2593">
        <ele>1533.8</ele>
        <time>2021-08-28T08:14:56Z</time>
      </trkpt>
      <trkpt lat="42.96455" lon="-0.2593">
        <ele>1534.2</ele>
        <time>2021-08-28T08:14:57Z</time>
      </trkpt>
      <trkpt lat="42.96457" lon="-0.2593">
        <ele>1534.2</ele>
        <time>2021-08-28T08:14:58Z</time>
      </trkpt>
      <trkpt lat="42.96457" lon="-0.2593">
        <ele>1534.6</ele>
        <time>2021-08-28T08:14:59Z</time>
      </trkpt>
      <trkpt lat="42.96458" lon="-0.2593">
        <ele>1534.6</ele>
        <time>2021-08-28T08:15:00Z</time>
      </trkpt>
      <trkpt lat="42.96458" lon="-0.2593">
        <ele>1534.8</ele>
        <time>2021-08-28T08:15:01Z</time>
      </trkpt>
      <trkpt lat="42.96458" lon="-0.2593">
        <ele>1535.2</ele>
        <time>2021-08-28T08:15:03Z</time>
      </trkpt>
      <trkpt lat="42.96458" lon="-0.2593">
        <ele>1535.8</ele>
        <time>2021-08-28T08:15:10Z</time>
      </trkpt>
      <trkpt lat="42.96458" lon="-0.2593">
        <ele>1535.8</ele>
        <time>2021-08-28T08:15:17Z</time>
      </trkpt>
      <trkpt lat="42.9646" lon="-0.25931">
        <ele>1535.8</ele>
        <time>2021-08-28T08:15:18Z</time>
      </trkpt>
      <trkpt lat="42.96461" lon="-0.25931">
        <ele>1535.8</ele>
        <time>2021-08-28T08:15:19Z</time>
      </trkpt>
      <trkpt lat="42.96463" lon="-0.25931">
        <ele>1535.8</ele>
        <time>2021-08-28T08:15:20Z</time>
      </trkpt>
      <trkpt lat="42.96464" lon="-0.25931">
        <ele>1535.8</ele>
        <time>2021-08-28T08:15:21Z</time>
      </trkpt>
      <trkpt lat="42.96466" lon="-0.25931">
        <ele>1535.8</ele>
        <time>2021-08-28T08:15:22Z</time>
      </trkpt>
      <trkpt lat="42.96471" lon="-0.25933">
        <ele>1536</ele>
        <time>2021-08-28T08:15:26Z</time>
      </trkpt>
      <trkpt lat="42.96474" lon="-0.25933">
        <ele>1536.2</ele>
        <time>2021-08-28T08:15:28Z</time>
      </trkpt>
      <trkpt lat="42.96479" lon="-0.25934">
        <ele>1536.8</ele>
        <time>2021-08-28T08:15:32Z</time>
      </trkpt>
      <trkpt lat="42.9648" lon="-0.25934">
        <ele>1537</ele>
        <time>2021-08-28T08:15:33Z</time>
      </trkpt>
      <trkpt lat="42.96483" lon="-0.25934">
        <ele>1537.2</ele>
        <time>2021-08-28T08:15:35Z</time>
      </trkpt>
      <trkpt lat="42.96484" lon="-0.25935">
        <ele>1537.4</ele>
        <time>2021-08-28T08:15:36Z</time>
      </trkpt>
      <trkpt lat="42.96487" lon="-0.25935">
        <ele>1537.6</ele>
        <time>2021-08-28T08:15:38Z</time>
      </trkpt>
      <trkpt lat="42.96488" lon="-0.25935">
        <ele>1538</ele>
        <time>2021-08-28T08:15:39Z</time>
      </trkpt>
      <trkpt lat="42.96489" lon="-0.25935">
        <ele>1538</ele>
        <time>2021-08-28T08:15:40Z</time>
      </trkpt>
      <trkpt lat="42.9649" lon="-0.25935">
        <ele>1538.4</ele>
        <time>2021-08-28T08:15:41Z</time>
      </trkpt>
      <trkpt lat="42.96494" lon="-0.25934">
        <ele>1538.8</ele>
        <time>2021-08-28T08:15:43Z</time>
      </trkpt>
      <trkpt lat="42.96495" lon="-0.25933">
        <ele>1538.8</ele>
        <time>2021-08-28T08:15:44Z</time>
      </trkpt>
      <trkpt lat="42.96496" lon="-0.25933">
        <ele>1539</ele>
        <time>2021-08-28T08:15:45Z</time>
      </trkpt>
      <trkpt lat="42.96497" lon="-0.25932">
        <ele>1539.2</ele>
        <time>2021-08-28T08:15:46Z</time>
      </trkpt>
      <trkpt lat="42.96498" lon="-0.25932">
        <ele>1539.4</ele>
        <time>2021-08-28T08:15:47Z</time>
      </trkpt>
      <trkpt lat="42.965" lon="-0.25932">
        <ele>1539.6</ele>
        <time>2021-08-28T08:15:48Z</time>
      </trkpt>
      <trkpt lat="42.96501" lon="-0.25932">
        <ele>1539.8</ele>
        <time>2021-08-28T08:15:49Z</time>
      </trkpt>
      <trkpt lat="42.96502" lon="-0.25932">
        <ele>1540</ele>
        <time>2021-08-28T08:15:50Z</time>
      </trkpt>
      <trkpt lat="42.96503" lon="-0.25931">
        <ele>1540.2</ele>
        <time>2021-08-28T08:15:51Z</time>
      </trkpt>
      <trkpt lat="42.96505" lon="-0.25931">
        <ele>1540.4</ele>
        <time>2021-08-28T08:15:52Z</time>
      </trkpt>
      <trkpt lat="42.96506" lon="-0.25931">
        <ele>1540.6</ele>
        <time>2021-08-28T08:15:53Z</time>
      </trkpt>
      <trkpt lat="42.96508" lon="-0.2593">
        <ele>1540.8</ele>
        <time>2021-08-28T08:15:54Z</time>
      </trkpt>
      <trkpt lat="42.96509" lon="-0.2593">
        <ele>1540.8</ele>
        <time>2021-08-28T08:15:55Z</time>
      </trkpt>
      <trkpt lat="42.9651" lon="-0.2593">
        <ele>1541.2</ele>
        <time>2021-08-28T08:15:56Z</time>
      </trkpt>
      <trkpt lat="42.96511" lon="-0.2593">
        <ele>1541.4</ele>
        <time>2021-08-28T08:15:57Z</time>
      </trkpt>
      <trkpt lat="42.96512" lon="-0.25929">
        <ele>1541.6</ele>
        <time>2021-08-28T08:15:58Z</time>
      </trkpt>
      <trkpt lat="42.96513" lon="-0.25929">
        <ele>1541.8</ele>
        <time>2021-08-28T08:15:59Z</time>
      </trkpt>
      <trkpt lat="42.96515" lon="-0.25929">
        <ele>1541.8</ele>
        <time>2021-08-28T08:16:00Z</time>
      </trkpt>
      <trkpt lat="42.96516" lon="-0.25929">
        <ele>1542</ele>
        <time>2021-08-28T08:16:01Z</time>
      </trkpt>
      <trkpt lat="42.96517" lon="-0.25929">
        <ele>1542</ele>
        <time>2021-08-28T08:16:02Z</time>
      </trkpt>
      <trkpt lat="42.96518" lon="-0.25929">
        <ele>1542.2</ele>
        <time>2021-08-28T08:16:03Z</time>
      </trkpt>
      <trkpt lat="42.9652" lon="-0.25928">
        <ele>1542.4</ele>
        <time>2021-08-28T08:16:04Z</time>
      </trkpt>
      <trkpt lat="42.96521" lon="-0.25928">
        <ele>1542.8</ele>
        <time>2021-08-28T08:16:05Z</time>
      </trkpt>
      <trkpt lat="42.96522" lon="-0.25928">
        <ele>1542.8</ele>
        <time>2021-08-28T08:16:06Z</time>
      </trkpt>
      <trkpt lat="42.96524" lon="-0.25927">
        <ele>1543.2</ele>
        <time>2021-08-28T08:16:07Z</time>
      </trkpt>
      <trkpt lat="42.96525" lon="-0.25927">
        <ele>1543.2</ele>
        <time>2021-08-28T08:16:08Z</time>
      </trkpt>
      <trkpt lat="42.96526" lon="-0.25927">
        <ele>1543.4</ele>
        <time>2021-08-28T08:16:09Z</time>
      </trkpt>
      <trkpt lat="42.96527" lon="-0.25927">
        <ele>1543.6</ele>
        <time>2021-08-28T08:16:10Z</time>
      </trkpt>
      <trkpt lat="42.96528" lon="-0.25927">
        <ele>1544</ele>
        <time>2021-08-28T08:16:11Z</time>
      </trkpt>
      <trkpt lat="42.96529" lon="-0.25927">
        <ele>1544.2</ele>
        <time>2021-08-28T08:16:12Z</time>
      </trkpt>
      <trkpt lat="42.9653" lon="-0.25927">
        <ele>1544.6</ele>
        <time>2021-08-28T08:16:13Z</time>
      </trkpt>
      <trkpt lat="42.96532" lon="-0.25926">
        <ele>1544.6</ele>
        <time>2021-08-28T08:16:14Z</time>
      </trkpt>
      <trkpt lat="42.96534" lon="-0.25926">
        <ele>1545</ele>
        <time>2021-08-28T08:16:15Z</time>
      </trkpt>
      <trkpt lat="42.96535" lon="-0.25925">
        <ele>1545.2</ele>
        <time>2021-08-28T08:16:16Z</time>
      </trkpt>
      <trkpt lat="42.96536" lon="-0.25925">
        <ele>1545.4</ele>
        <time>2021-08-28T08:16:17Z</time>
      </trkpt>
      <trkpt lat="42.96537" lon="-0.25925">
        <ele>1545.6</ele>
        <time>2021-08-28T08:16:18Z</time>
      </trkpt>
      <trkpt lat="42.96538" lon="-0.25925">
        <ele>1545.8</ele>
        <time>2021-08-28T08:16:19Z</time>
      </trkpt>
      <trkpt lat="42.9654" lon="-0.25924">
        <ele>1546</ele>
        <time>2021-08-28T08:16:20Z</time>
      </trkpt>
      <trkpt lat="42.96541" lon="-0.25923">
        <ele>1546.4</ele>
        <time>2021-08-28T08:16:21Z</time>
      </trkpt>
      <trkpt lat="42.96542" lon="-0.25923">
        <ele>1546.8</ele>
        <time>2021-08-28T08:16:22Z</time>
      </trkpt>
      <trkpt lat="42.96543" lon="-0.25924">
        <ele>1547</ele>
        <time>2021-08-28T08:16:23Z</time>
      </trkpt>
      <trkpt lat="42.96545" lon="-0.25924">
        <ele>1547.2</ele>
        <time>2021-08-28T08:16:24Z</time>
      </trkpt>
      <trkpt lat="42.96546" lon="-0.25924">
        <ele>1547.2</ele>
        <time>2021-08-28T08:16:25Z</time>
      </trkpt>
      <trkpt lat="42.96547" lon="-0.25924">
        <ele>1547.6</ele>
        <time>2021-08-28T08:16:26Z</time>
      </trkpt>
      <trkpt lat="42.96548" lon="-0.25924">
        <ele>1547.6</ele>
        <time>2021-08-28T08:16:27Z</time>
      </trkpt>
      <trkpt lat="42.96549" lon="-0.25924">
        <ele>1548</ele>
        <time>2021-08-28T08:16:28Z</time>
      </trkpt>
      <trkpt lat="42.96551" lon="-0.25924">
        <ele>1548</ele>
        <time>2021-08-28T08:16:29Z</time>
      </trkpt>
      <trkpt lat="42.96552" lon="-0.25924">
        <ele>1548.4</ele>
        <time>2021-08-28T08:16:30Z</time>
      </trkpt>
      <trkpt lat="42.96553" lon="-0.25923">
        <ele>1548.4</ele>
        <time>2021-08-28T08:16:31Z</time>
      </trkpt>
      <trkpt lat="42.96555" lon="-0.25923">
        <ele>1548.8</ele>
        <time>2021-08-28T08:16:32Z</time>
      </trkpt>
      <trkpt lat="42.96556" lon="-0.25923">
        <ele>1549</ele>
        <time>2021-08-28T08:16:33Z</time>
      </trkpt>
      <trkpt lat="42.96557" lon="-0.25923">
        <ele>1549.2</ele>
        <time>2021-08-28T08:16:34Z</time>
      </trkpt>
      <trkpt lat="42.96558" lon="-0.25923">
        <ele>1549.2</ele>
        <time>2021-08-28T08:16:35Z</time>
      </trkpt>
      <trkpt lat="42.9656" lon="-0.25923">
        <ele>1549.4</ele>
        <time>2021-08-28T08:16:36Z</time>
      </trkpt>
      <trkpt lat="42.96561" lon="-0.25923">
        <ele>1549.4</ele>
        <time>2021-08-28T08:16:37Z</time>
      </trkpt>
      <trkpt lat="42.96562" lon="-0.25923">
        <ele>1549.6</ele>
        <time>2021-08-28T08:16:38Z</time>
      </trkpt>
      <trkpt lat="42.96564" lon="-0.25923">
        <ele>1549.6</ele>
        <time>2021-08-28T08:16:39Z</time>
      </trkpt>
      <trkpt lat="42.96566" lon="-0.25923">
        <ele>1549.8</ele>
        <time>2021-08-28T08:16:40Z</time>
      </trkpt>
      <trkpt lat="42.96567" lon="-0.25923">
        <ele>1549.8</ele>
        <time>2021-08-28T08:16:41Z</time>
      </trkpt>
      <trkpt lat="42.96569" lon="-0.25924">
        <ele>1550</ele>
        <time>2021-08-28T08:16:42Z</time>
      </trkpt>
      <trkpt lat="42.9657" lon="-0.25923">
        <ele>1550</ele>
        <time>2021-08-28T08:16:43Z</time>
      </trkpt>
      <trkpt lat="42.9657" lon="-0.25923">
        <ele>1550.2</ele>
        <time>2021-08-28T08:16:44Z</time>
      </trkpt>
      <trkpt lat="42.96571" lon="-0.25923">
        <ele>1550.2</ele>
        <time>2021-08-28T08:16:45Z</time>
      </trkpt>
      <trkpt lat="42.96572" lon="-0.25924">
        <ele>1550.4</ele>
        <time>2021-08-28T08:16:46Z</time>
      </trkpt>
      <trkpt lat="42.96574" lon="-0.25923">
        <ele>1550.6</ele>
        <time>2021-08-28T08:16:47Z</time>
      </trkpt>
      <trkpt lat="42.96575" lon="-0.25923">
        <ele>1550.8</ele>
        <time>2021-08-28T08:16:48Z</time>
      </trkpt>
      <trkpt lat="42.96577" lon="-0.25923">
        <ele>1551</ele>
        <time>2021-08-28T08:16:49Z</time>
      </trkpt>
      <trkpt lat="42.96578" lon="-0.25922">
        <ele>1551.2</ele>
        <time>2021-08-28T08:16:50Z</time>
      </trkpt>
      <trkpt lat="42.9658" lon="-0.25922">
        <ele>1551.2</ele>
        <time>2021-08-28T08:16:51Z</time>
      </trkpt>
      <trkpt lat="42.96581" lon="-0.25922">
        <ele>1551.4</ele>
        <time>2021-08-28T08:16:52Z</time>
      </trkpt>
      <trkpt lat="42.96583" lon="-0.25921">
        <ele>1551.6</ele>
        <time>2021-08-28T08:16:53Z</time>
      </trkpt>
      <trkpt lat="42.96584" lon="-0.25921">
        <ele>1551.6</ele>
        <time>2021-08-28T08:16:54Z</time>
      </trkpt>
      <trkpt lat="42.96586" lon="-0.25921">
        <ele>1551.8</ele>
        <time>2021-08-28T08:16:55Z</time>
      </trkpt>
      <trkpt lat="42.96587" lon="-0.2592">
        <ele>1551.8</ele>
        <time>2021-08-28T08:16:56Z</time>
      </trkpt>
      <trkpt lat="42.96589" lon="-0.2592">
        <ele>1552</ele>
        <time>2021-08-28T08:16:57Z</time>
      </trkpt>
      <trkpt lat="42.96591" lon="-0.2592">
        <ele>1552.2</ele>
        <time>2021-08-28T08:16:58Z</time>
      </trkpt>
      <trkpt lat="42.96592" lon="-0.2592">
        <ele>1552.2</ele>
        <time>2021-08-28T08:16:59Z</time>
      </trkpt>
      <trkpt lat="42.96593" lon="-0.25919">
        <ele>1552.4</ele>
        <time>2021-08-28T08:17:00Z</time>
      </trkpt>
      <trkpt lat="42.96594" lon="-0.25919">
        <ele>1552.4</ele>
        <time>2021-08-28T08:17:01Z</time>
      </trkpt>
      <trkpt lat="42.96596" lon="-0.25919">
        <ele>1552.6</ele>
        <time>2021-08-28T08:17:02Z</time>
      </trkpt>
      <trkpt lat="42.96597" lon="-0.25918">
        <ele>1552.6</ele>
        <time>2021-08-28T08:17:03Z</time>
      </trkpt>
      <trkpt lat="42.96598" lon="-0.25918">
        <ele>1552.8</ele>
        <time>2021-08-28T08:17:04Z</time>
      </trkpt>
      <trkpt lat="42.96599" lon="-0.25918">
        <ele>1553.2</ele>
        <time>2021-08-28T08:17:05Z</time>
      </trkpt>
      <trkpt lat="42.966" lon="-0.25918">
        <ele>1553.4</ele>
        <time>2021-08-28T08:17:06Z</time>
      </trkpt>
      <trkpt lat="42.96602" lon="-0.25918">
        <ele>1553.6</ele>
        <time>2021-08-28T08:17:07Z</time>
      </trkpt>
      <trkpt lat="42.96603" lon="-0.25918">
        <ele>1553.8</ele>
        <time>2021-08-28T08:17:08Z</time>
      </trkpt>
      <trkpt lat="42.96604" lon="-0.25918">
        <ele>1554.2</ele>
        <time>2021-08-28T08:17:09Z</time>
      </trkpt>
      <trkpt lat="42.96606" lon="-0.25918">
        <ele>1554.4</ele>
        <time>2021-08-28T08:17:10Z</time>
      </trkpt>
      <trkpt lat="42.96607" lon="-0.25918">
        <ele>1554.6</ele>
        <time>2021-08-28T08:17:11Z</time>
      </trkpt>
      <trkpt lat="42.96607" lon="-0.25918">
        <ele>1554.6</ele>
        <time>2021-08-28T08:17:12Z</time>
      </trkpt>
      <trkpt lat="42.96609" lon="-0.25919">
        <ele>1554.8</ele>
        <time>2021-08-28T08:17:13Z</time>
      </trkpt>
      <trkpt lat="42.9661" lon="-0.25918">
        <ele>1555</ele>
        <time>2021-08-28T08:17:14Z</time>
      </trkpt>
      <trkpt lat="42.96611" lon="-0.25918">
        <ele>1555.2</ele>
        <time>2021-08-28T08:17:15Z</time>
      </trkpt>
      <trkpt lat="42.96613" lon="-0.25918">
        <ele>1555.2</ele>
        <time>2021-08-28T08:17:16Z</time>
      </trkpt>
      <trkpt lat="42.96614" lon="-0.25918">
        <ele>1555.6</ele>
        <time>2021-08-28T08:17:17Z</time>
      </trkpt>
      <trkpt lat="42.96615" lon="-0.25918">
        <ele>1555.6</ele>
        <time>2021-08-28T08:17:18Z</time>
      </trkpt>
      <trkpt lat="42.96615" lon="-0.25919">
        <ele>1556</ele>
        <time>2021-08-28T08:17:19Z</time>
      </trkpt>
      <trkpt lat="42.96617" lon="-0.25919">
        <ele>1556.2</ele>
        <time>2021-08-28T08:17:20Z</time>
      </trkpt>
      <trkpt lat="42.96618" lon="-0.2592">
        <ele>1556.4</ele>
        <time>2021-08-28T08:17:21Z</time>
      </trkpt>
      <trkpt lat="42.96619" lon="-0.25921">
        <ele>1556.6</ele>
        <time>2021-08-28T08:17:22Z</time>
      </trkpt>
      <trkpt lat="42.96621" lon="-0.25921">
        <ele>1556.8</ele>
        <time>2021-08-28T08:17:23Z</time>
      </trkpt>
      <trkpt lat="42.96622" lon="-0.25921">
        <ele>1557</ele>
        <time>2021-08-28T08:17:24Z</time>
      </trkpt>
      <trkpt lat="42.96623" lon="-0.25921">
        <ele>1557.4</ele>
        <time>2021-08-28T08:17:25Z</time>
      </trkpt>
      <trkpt lat="42.96625" lon="-0.25922">
        <ele>1557.4</ele>
        <time>2021-08-28T08:17:26Z</time>
      </trkpt>
      <trkpt lat="42.96626" lon="-0.25922">
        <ele>1557.4</ele>
        <time>2021-08-28T08:17:27Z</time>
      </trkpt>
      <trkpt lat="42.96628" lon="-0.25922">
        <ele>1557.6</ele>
        <time>2021-08-28T08:17:28Z</time>
      </trkpt>
      <trkpt lat="42.96629" lon="-0.25923">
        <ele>1557.8</ele>
        <time>2021-08-28T08:17:29Z</time>
      </trkpt>
      <trkpt lat="42.9663" lon="-0.25923">
        <ele>1558</ele>
        <time>2021-08-28T08:17:30Z</time>
      </trkpt>
      <trkpt lat="42.96631" lon="-0.25924">
        <ele>1558.4</ele>
        <time>2021-08-28T08:17:31Z</time>
      </trkpt>
      <trkpt lat="42.96632" lon="-0.25924">
        <ele>1558.6</ele>
        <time>2021-08-28T08:17:32Z</time>
      </trkpt>
      <trkpt lat="42.96633" lon="-0.25924">
        <ele>1558.6</ele>
        <time>2021-08-28T08:17:33Z</time>
      </trkpt>
      <trkpt lat="42.96634" lon="-0.25925">
        <ele>1559</ele>
        <time>2021-08-28T08:17:34Z</time>
      </trkpt>
      <trkpt lat="42.96635" lon="-0.25926">
        <ele>1559.2</ele>
        <time>2021-08-28T08:17:35Z</time>
      </trkpt>
      <trkpt lat="42.96637" lon="-0.25927">
        <ele>1559.4</ele>
        <time>2021-08-28T08:17:36Z</time>
      </trkpt>
      <trkpt lat="42.96638" lon="-0.25928">
        <ele>1559.6</ele>
        <time>2021-08-28T08:17:37Z</time>
      </trkpt>
      <trkpt lat="42.96639" lon="-0.25929">
        <ele>1559.6</ele>
        <time>2021-08-28T08:17:38Z</time>
      </trkpt>
      <trkpt lat="42.9664" lon="-0.25929">
        <ele>1559.8</ele>
        <time>2021-08-28T08:17:39Z</time>
      </trkpt>
      <trkpt lat="42.96641" lon="-0.25929">
        <ele>1560</ele>
        <time>2021-08-28T08:17:40Z</time>
      </trkpt>
      <trkpt lat="42.96642" lon="-0.25929">
        <ele>1560</ele>
        <time>2021-08-28T08:17:41Z</time>
      </trkpt>
      <trkpt lat="42.96643" lon="-0.2593">
        <ele>1560</ele>
        <time>2021-08-28T08:17:42Z</time>
      </trkpt>
      <trkpt lat="42.96645" lon="-0.25931">
        <ele>1560.2</ele>
        <time>2021-08-28T08:17:43Z</time>
      </trkpt>
      <trkpt lat="42.96646" lon="-0.25931">
        <ele>1560.4</ele>
        <time>2021-08-28T08:17:44Z</time>
      </trkpt>
      <trkpt lat="42.96647" lon="-0.25932">
        <ele>1560.6</ele>
        <time>2021-08-28T08:17:45Z</time>
      </trkpt>
      <trkpt lat="42.96648" lon="-0.25933">
        <ele>1560.8</ele>
        <time>2021-08-28T08:17:46Z</time>
      </trkpt>
      <trkpt lat="42.96649" lon="-0.25933">
        <ele>1561</ele>
        <time>2021-08-28T08:17:47Z</time>
      </trkpt>
      <trkpt lat="42.9665" lon="-0.25934">
        <ele>1561.4</ele>
        <time>2021-08-28T08:17:48Z</time>
      </trkpt>
      <trkpt lat="42.96651" lon="-0.25935">
        <ele>1561.4</ele>
        <time>2021-08-28T08:17:49Z</time>
      </trkpt>
      <trkpt lat="42.96652" lon="-0.25936">
        <ele>1561.6</ele>
        <time>2021-08-28T08:17:50Z</time>
      </trkpt>
      <trkpt lat="42.96653" lon="-0.25936">
        <ele>1562</ele>
        <time>2021-08-28T08:17:51Z</time>
      </trkpt>
      <trkpt lat="42.96654" lon="-0.25937">
        <ele>1562</ele>
        <time>2021-08-28T08:17:52Z</time>
      </trkpt>
      <trkpt lat="42.96656" lon="-0.25937">
        <ele>1562.2</ele>
        <time>2021-08-28T08:17:53Z</time>
      </trkpt>
      <trkpt lat="42.96657" lon="-0.25938">
        <ele>1562.4</ele>
        <time>2021-08-28T08:17:54Z</time>
      </trkpt>
      <trkpt lat="42.96658" lon="-0.25939">
        <ele>1562.6</ele>
        <time>2021-08-28T08:17:55Z</time>
      </trkpt>
      <trkpt lat="42.96659" lon="-0.25939">
        <ele>1562.6</ele>
        <time>2021-08-28T08:17:56Z</time>
      </trkpt>
      <trkpt lat="42.9666" lon="-0.2594">
        <ele>1562.8</ele>
        <time>2021-08-28T08:17:57Z</time>
      </trkpt>
      <trkpt lat="42.96661" lon="-0.25941">
        <ele>1563</ele>
        <time>2021-08-28T08:17:58Z</time>
      </trkpt>
      <trkpt lat="42.96662" lon="-0.25943">
        <ele>1563</ele>
        <time>2021-08-28T08:17:59Z</time>
      </trkpt>
      <trkpt lat="42.96663" lon="-0.25944">
        <ele>1563.2</ele>
        <time>2021-08-28T08:18:00Z</time>
      </trkpt>
      <trkpt lat="42.96663" lon="-0.25945">
        <ele>1563.6</ele>
        <time>2021-08-28T08:18:01Z</time>
      </trkpt>
      <trkpt lat="42.96665" lon="-0.25947">
        <ele>1563.6</ele>
        <time>2021-08-28T08:18:02Z</time>
      </trkpt>
      <trkpt lat="42.96666" lon="-0.25948">
        <ele>1563.6</ele>
        <time>2021-08-28T08:18:03Z</time>
      </trkpt>
      <trkpt lat="42.96667" lon="-0.25949">
        <ele>1563.8</ele>
        <time>2021-08-28T08:18:04Z</time>
      </trkpt>
      <trkpt lat="42.96668" lon="-0.25951">
        <ele>1563.8</ele>
        <time>2021-08-28T08:18:05Z</time>
      </trkpt>
      <trkpt lat="42.96669" lon="-0.25952">
        <ele>1564</ele>
        <time>2021-08-28T08:18:06Z</time>
      </trkpt>
      <trkpt lat="42.9667" lon="-0.25952">
        <ele>1564</ele>
        <time>2021-08-28T08:18:07Z</time>
      </trkpt>
      <trkpt lat="42.96672" lon="-0.25953">
        <ele>1564.2</ele>
        <time>2021-08-28T08:18:08Z</time>
      </trkpt>
      <trkpt lat="42.96673" lon="-0.25954">
        <ele>1564.2</ele>
        <time>2021-08-28T08:18:09Z</time>
      </trkpt>
      <trkpt lat="42.96674" lon="-0.25955">
        <ele>1564.2</ele>
        <time>2021-08-28T08:18:10Z</time>
      </trkpt>
      <trkpt lat="42.96675" lon="-0.25956">
        <ele>1564.2</ele>
        <time>2021-08-28T08:18:11Z</time>
      </trkpt>
      <trkpt lat="42.96677" lon="-0.25957">
        <ele>1564.2</ele>
        <time>2021-08-28T08:18:12Z</time>
      </trkpt>
      <trkpt lat="42.96678" lon="-0.25958">
        <ele>1564.2</ele>
        <time>2021-08-28T08:18:13Z</time>
      </trkpt>
      <trkpt lat="42.96679" lon="-0.25959">
        <ele>1564.6</ele>
        <time>2021-08-28T08:18:14Z</time>
      </trkpt>
      <trkpt lat="42.9668" lon="-0.2596">
        <ele>1564.6</ele>
        <time>2021-08-28T08:18:15Z</time>
      </trkpt>
      <trkpt lat="42.96681" lon="-0.25961">
        <ele>1564.6</ele>
        <time>2021-08-28T08:18:16Z</time>
      </trkpt>
      <trkpt lat="42.96681" lon="-0.25961">
        <ele>1564.6</ele>
        <time>2021-08-28T08:18:17Z</time>
      </trkpt>
      <trkpt lat="42.96681" lon="-0.25961">
        <ele>1564.6</ele>
        <time>2021-08-28T08:18:19Z</time>
      </trkpt>
      <trkpt lat="42.96681" lon="-0.25961">
        <ele>1564.6</ele>
        <time>2021-08-28T08:18:31Z</time>
      </trkpt>
      <trkpt lat="42.96685" lon="-0.25967">
        <ele>1564.6</ele>
        <time>2021-08-28T08:18:34Z</time>
      </trkpt>
      <trkpt lat="42.96695" lon="-0.25977">
        <ele>1564.4</ele>
        <time>2021-08-28T08:18:39Z</time>
      </trkpt>
      <trkpt lat="42.96697" lon="-0.25978">
        <ele>1564.4</ele>
        <time>2021-08-28T08:18:40Z</time>
      </trkpt>
      <trkpt lat="42.96698" lon="-0.2598">
        <ele>1564.4</ele>
        <time>2021-08-28T08:18:41Z</time>
      </trkpt>
      <trkpt lat="42.967" lon="-0.25981">
        <ele>1564.4</ele>
        <time>2021-08-28T08:18:42Z</time>
      </trkpt>
      <trkpt lat="42.96702" lon="-0.25982">
        <ele>1564.4</ele>
        <time>2021-08-28T08:18:43Z</time>
      </trkpt>
      <trkpt lat="42.96706" lon="-0.25985">
        <ele>1564.6</ele>
        <time>2021-08-28T08:18:46Z</time>
      </trkpt>
      <trkpt lat="42.96708" lon="-0.25986">
        <ele>1564.6</ele>
        <time>2021-08-28T08:18:47Z</time>
      </trkpt>
      <trkpt lat="42.96709" lon="-0.25986">
        <ele>1564.8</ele>
        <time>2021-08-28T08:18:48Z</time>
      </trkpt>
      <trkpt lat="42.9671" lon="-0.25987">
        <ele>1564.8</ele>
        <time>2021-08-28T08:18:49Z</time>
      </trkpt>
      <trkpt lat="42.96711" lon="-0.25988">
        <ele>1564.8</ele>
        <time>2021-08-28T08:18:50Z</time>
      </trkpt>
      <trkpt lat="42.96712" lon="-0.25989">
        <ele>1565</ele>
        <time>2021-08-28T08:18:51Z</time>
      </trkpt>
      <trkpt lat="42.96713" lon="-0.2599">
        <ele>1564.8</ele>
        <time>2021-08-28T08:18:52Z</time>
      </trkpt>
      <trkpt lat="42.96715" lon="-0.25992">
        <ele>1565</ele>
        <time>2021-08-28T08:18:53Z</time>
      </trkpt>
      <trkpt lat="42.96724" lon="-0.26001">
        <ele>1565.6</ele>
        <time>2021-08-28T08:19:00Z</time>
      </trkpt>
      <trkpt lat="42.96727" lon="-0.26003">
        <ele>1565.8</ele>
        <time>2021-08-28T08:19:02Z</time>
      </trkpt>
      <trkpt lat="42.96728" lon="-0.26004">
        <ele>1566</ele>
        <time>2021-08-28T08:19:03Z</time>
      </trkpt>
      <trkpt lat="42.96729" lon="-0.26005">
        <ele>1566</ele>
        <time>2021-08-28T08:19:04Z</time>
      </trkpt>
      <trkpt lat="42.9673" lon="-0.26006">
        <ele>1566.2</ele>
        <time>2021-08-28T08:19:05Z</time>
      </trkpt>
      <trkpt lat="42.96731" lon="-0.26008">
        <ele>1566.2</ele>
        <time>2021-08-28T08:19:06Z</time>
      </trkpt>
      <trkpt lat="42.96733" lon="-0.26009">
        <ele>1566.2</ele>
        <time>2021-08-28T08:19:07Z</time>
      </trkpt>
      <trkpt lat="42.96734" lon="-0.2601">
        <ele>1566.4</ele>
        <time>2021-08-28T08:19:08Z</time>
      </trkpt>
      <trkpt lat="42.96735" lon="-0.26012">
        <ele>1566.4</ele>
        <time>2021-08-28T08:19:09Z</time>
      </trkpt>
      <trkpt lat="42.96736" lon="-0.26013">
        <ele>1566.6</ele>
        <time>2021-08-28T08:19:10Z</time>
      </trkpt>
      <trkpt lat="42.96739" lon="-0.26016">
        <ele>1566.8</ele>
        <time>2021-08-28T08:19:12Z</time>
      </trkpt>
      <trkpt lat="42.96747" lon="-0.26022">
        <ele>1567.2</ele>
        <time>2021-08-28T08:19:17Z</time>
      </trkpt>
      <trkpt lat="42.9676" lon="-0.26027">
        <ele>1567.4</ele>
        <time>2021-08-28T08:19:24Z</time>
      </trkpt>
      <trkpt lat="42.96772" lon="-0.26035">
        <ele>1567.6</ele>
        <time>2021-08-28T08:19:31Z</time>
      </trkpt>
      <trkpt lat="42.96778" lon="-0.2604">
        <ele>1567.4</ele>
        <time>2021-08-28T08:19:35Z</time>
      </trkpt>
      <trkpt lat="42.9678" lon="-0.2604">
        <ele>1567.4</ele>
        <time>2021-08-28T08:19:36Z</time>
      </trkpt>
      <trkpt lat="42.96782" lon="-0.26041">
        <ele>1567.4</ele>
        <time>2021-08-28T08:19:37Z</time>
      </trkpt>
      <trkpt lat="42.96792" lon="-0.26045">
        <ele>1567.6</ele>
        <time>2021-08-28T08:19:42Z</time>
      </trkpt>
      <trkpt lat="42.96798" lon="-0.26046">
        <ele>1567.6</ele>
        <time>2021-08-28T08:19:45Z</time>
      </trkpt>
      <trkpt lat="42.968" lon="-0.26047">
        <ele>1567.6</ele>
        <time>2021-08-28T08:19:46Z</time>
      </trkpt>
      <trkpt lat="42.96805" lon="-0.2605">
        <ele>1567.8</ele>
        <time>2021-08-28T08:19:49Z</time>
      </trkpt>
      <trkpt lat="42.96807" lon="-0.26051">
        <ele>1567.8</ele>
        <time>2021-08-28T08:19:50Z</time>
      </trkpt>
      <trkpt lat="42.96811" lon="-0.26053">
        <ele>1567.8</ele>
        <time>2021-08-28T08:19:52Z</time>
      </trkpt>
      <trkpt lat="42.96813" lon="-0.26055">
        <ele>1567.8</ele>
        <time>2021-08-28T08:19:53Z</time>
      </trkpt>
      <trkpt lat="42.96817" lon="-0.26057">
        <ele>1567.6</ele>
        <time>2021-08-28T08:19:55Z</time>
      </trkpt>
      <trkpt lat="42.96829" lon="-0.26061">
        <ele>1567.4</ele>
        <time>2021-08-28T08:20:00Z</time>
      </trkpt>
      <trkpt lat="42.96837" lon="-0.26063">
        <ele>1567.4</ele>
        <time>2021-08-28T08:20:04Z</time>
      </trkpt>
      <trkpt lat="42.96843" lon="-0.26065">
        <ele>1567.6</ele>
        <time>2021-08-28T08:20:07Z</time>
      </trkpt>
      <trkpt lat="42.96845" lon="-0.26066">
        <ele>1567.6</ele>
        <time>2021-08-28T08:20:08Z</time>
      </trkpt>
      <trkpt lat="42.96848" lon="-0.26067">
        <ele>1567.6</ele>
        <time>2021-08-28T08:20:09Z</time>
      </trkpt>
      <trkpt lat="42.9685" lon="-0.26068">
        <ele>1567.8</ele>
        <time>2021-08-28T08:20:10Z</time>
      </trkpt>
      <trkpt lat="42.96852" lon="-0.26068">
        <ele>1567.8</ele>
        <time>2021-08-28T08:20:11Z</time>
      </trkpt>
      <trkpt lat="42.96854" lon="-0.26068">
        <ele>1568</ele>
        <time>2021-08-28T08:20:12Z</time>
      </trkpt>
      <trkpt lat="42.96856" lon="-0.26069">
        <ele>1568</ele>
        <time>2021-08-28T08:20:13Z</time>
      </trkpt>
      <trkpt lat="42.96858" lon="-0.26069">
        <ele>1568</ele>
        <time>2021-08-28T08:20:14Z</time>
      </trkpt>
      <trkpt lat="42.9686" lon="-0.26069">
        <ele>1568.2</ele>
        <time>2021-08-28T08:20:15Z</time>
      </trkpt>
      <trkpt lat="42.96864" lon="-0.2607">
        <ele>1568.2</ele>
        <time>2021-08-28T08:20:17Z</time>
      </trkpt>
      <trkpt lat="42.96866" lon="-0.2607">
        <ele>1568.4</ele>
        <time>2021-08-28T08:20:18Z</time>
      </trkpt>
      <trkpt lat="42.96868" lon="-0.2607">
        <ele>1568.4</ele>
        <time>2021-08-28T08:20:19Z</time>
      </trkpt>
      <trkpt lat="42.9687" lon="-0.2607">
        <ele>1568.4</ele>
        <time>2021-08-28T08:20:20Z</time>
      </trkpt>
      <trkpt lat="42.96871" lon="-0.26071">
        <ele>1568.4</ele>
        <time>2021-08-28T08:20:21Z</time>
      </trkpt>
      <trkpt lat="42.96874" lon="-0.26071">
        <ele>1568.4</ele>
        <time>2021-08-28T08:20:22Z</time>
      </trkpt>
      <trkpt lat="42.96875" lon="-0.26071">
        <ele>1568.4</ele>
        <time>2021-08-28T08:20:23Z</time>
      </trkpt>
      <trkpt lat="42.96877" lon="-0.26071">
        <ele>1568.6</ele>
        <time>2021-08-28T08:20:24Z</time>
      </trkpt>
      <trkpt lat="42.96882" lon="-0.26071">
        <ele>1568.8</ele>
        <time>2021-08-28T08:20:26Z</time>
      </trkpt>
      <trkpt lat="42.96889" lon="-0.2607">
        <ele>1569.2</ele>
        <time>2021-08-28T08:20:30Z</time>
      </trkpt>
      <trkpt lat="42.96894" lon="-0.26069">
        <ele>1569.6</ele>
        <time>2021-08-28T08:20:33Z</time>
      </trkpt>
      <trkpt lat="42.96895" lon="-0.26069">
        <ele>1569.8</ele>
        <time>2021-08-28T08:20:34Z</time>
      </trkpt>
      <trkpt lat="42.96897" lon="-0.26068">
        <ele>1569.8</ele>
        <time>2021-08-28T08:20:35Z</time>
      </trkpt>
      <trkpt lat="42.96899" lon="-0.26068">
        <ele>1570</ele>
        <time>2021-08-28T08:20:36Z</time>
      </trkpt>
      <trkpt lat="42.969" lon="-0.26067">
        <ele>1570</ele>
        <time>2021-08-28T08:20:37Z</time>
      </trkpt>
      <trkpt lat="42.96902" lon="-0.26067">
        <ele>1570.2</ele>
        <time>2021-08-28T08:20:38Z</time>
      </trkpt>
      <trkpt lat="42.96903" lon="-0.26067">
        <ele>1570.4</ele>
        <time>2021-08-28T08:20:39Z</time>
      </trkpt>
      <trkpt lat="42.96904" lon="-0.26067">
        <ele>1570.6</ele>
        <time>2021-08-28T08:20:40Z</time>
      </trkpt>
      <trkpt lat="42.96906" lon="-0.26066">
        <ele>1570.8</ele>
        <time>2021-08-28T08:20:41Z</time>
      </trkpt>
      <trkpt lat="42.96907" lon="-0.26066">
        <ele>1571</ele>
        <time>2021-08-28T08:20:42Z</time>
      </trkpt>
      <trkpt lat="42.96909" lon="-0.26066">
        <ele>1571.2</ele>
        <time>2021-08-28T08:20:43Z</time>
      </trkpt>
      <trkpt lat="42.9691" lon="-0.26065">
        <ele>1571.4</ele>
        <time>2021-08-28T08:20:44Z</time>
      </trkpt>
      <trkpt lat="42.96912" lon="-0.26064">
        <ele>1571.6</ele>
        <time>2021-08-28T08:20:45Z</time>
      </trkpt>
      <trkpt lat="42.96913" lon="-0.26064">
        <ele>1571.8</ele>
        <time>2021-08-28T08:20:46Z</time>
      </trkpt>
      <trkpt lat="42.96915" lon="-0.26063">
        <ele>1572</ele>
        <time>2021-08-28T08:20:47Z</time>
      </trkpt>
      <trkpt lat="42.96916" lon="-0.26063">
        <ele>1572.2</ele>
        <time>2021-08-28T08:20:48Z</time>
      </trkpt>
      <trkpt lat="42.96918" lon="-0.26062">
        <ele>1572.2</ele>
        <time>2021-08-28T08:20:49Z</time>
      </trkpt>
      <trkpt lat="42.96919" lon="-0.26062">
        <ele>1572.4</ele>
        <time>2021-08-28T08:20:50Z</time>
      </trkpt>
      <trkpt lat="42.9692" lon="-0.26062">
        <ele>1572.8</ele>
        <time>2021-08-28T08:20:51Z</time>
      </trkpt>
      <trkpt lat="42.96922" lon="-0.26061">
        <ele>1572.8</ele>
        <time>2021-08-28T08:20:52Z</time>
      </trkpt>
      <trkpt lat="42.96923" lon="-0.26061">
        <ele>1573</ele>
        <time>2021-08-28T08:20:53Z</time>
      </trkpt>
      <trkpt lat="42.96925" lon="-0.2606">
        <ele>1573.2</ele>
        <time>2021-08-28T08:20:54Z</time>
      </trkpt>
      <trkpt lat="42.96926" lon="-0.26059">
        <ele>1573.4</ele>
        <time>2021-08-28T08:20:55Z</time>
      </trkpt>
      <trkpt lat="42.96928" lon="-0.26058">
        <ele>1573.6</ele>
        <time>2021-08-28T08:20:56Z</time>
      </trkpt>
      <trkpt lat="42.96928" lon="-0.26057">
        <ele>1573.6</ele>
        <time>2021-08-28T08:20:57Z</time>
      </trkpt>
      <trkpt lat="42.9693" lon="-0.26056">
        <ele>1573.8</ele>
        <time>2021-08-28T08:20:58Z</time>
      </trkpt>
      <trkpt lat="42.96931" lon="-0.26055">
        <ele>1574</ele>
        <time>2021-08-28T08:20:59Z</time>
      </trkpt>
      <trkpt lat="42.96932" lon="-0.26055">
        <ele>1574.2</ele>
        <time>2021-08-28T08:21:00Z</time>
      </trkpt>
      <trkpt lat="42.96934" lon="-0.26054">
        <ele>1574.4</ele>
        <time>2021-08-28T08:21:01Z</time>
      </trkpt>
      <trkpt lat="42.96935" lon="-0.26053">
        <ele>1574.4</ele>
        <time>2021-08-28T08:21:02Z</time>
      </trkpt>
      <trkpt lat="42.96936" lon="-0.26053">
        <ele>1574.6</ele>
        <time>2021-08-28T08:21:03Z</time>
      </trkpt>
      <trkpt lat="42.96938" lon="-0.26052">
        <ele>1575</ele>
        <time>2021-08-28T08:21:04Z</time>
      </trkpt>
      <trkpt lat="42.96939" lon="-0.26051">
        <ele>1575</ele>
        <time>2021-08-28T08:21:05Z</time>
      </trkpt>
      <trkpt lat="42.96941" lon="-0.2605">
        <ele>1575.4</ele>
        <time>2021-08-28T08:21:06Z</time>
      </trkpt>
      <trkpt lat="42.96942" lon="-0.26049">
        <ele>1575.6</ele>
        <time>2021-08-28T08:21:07Z</time>
      </trkpt>
      <trkpt lat="42.96944" lon="-0.26048">
        <ele>1575.6</ele>
        <time>2021-08-28T08:21:08Z</time>
      </trkpt>
      <trkpt lat="42.96945" lon="-0.26047">
        <ele>1576</ele>
        <time>2021-08-28T08:21:09Z</time>
      </trkpt>
      <trkpt lat="42.96946" lon="-0.26045">
        <ele>1576.2</ele>
        <time>2021-08-28T08:21:10Z</time>
      </trkpt>
      <trkpt lat="42.96948" lon="-0.26044">
        <ele>1576</ele>
        <time>2021-08-28T08:21:11Z</time>
      </trkpt>
      <trkpt lat="42.96949" lon="-0.26042">
        <ele>1576.2</ele>
        <time>2021-08-28T08:21:12Z</time>
      </trkpt>
      <trkpt lat="42.9695" lon="-0.26041">
        <ele>1576.4</ele>
        <time>2021-08-28T08:21:13Z</time>
      </trkpt>
      <trkpt lat="42.96952" lon="-0.2604">
        <ele>1576.4</ele>
        <time>2021-08-28T08:21:14Z</time>
      </trkpt>
      <trkpt lat="42.96954" lon="-0.26039">
        <ele>1576.6</ele>
        <time>2021-08-28T08:21:15Z</time>
      </trkpt>
      <trkpt lat="42.96955" lon="-0.26038">
        <ele>1576.6</ele>
        <time>2021-08-28T08:21:16Z</time>
      </trkpt>
      <trkpt lat="42.96957" lon="-0.26036">
        <ele>1576.8</ele>
        <time>2021-08-28T08:21:17Z</time>
      </trkpt>
      <trkpt lat="42.96959" lon="-0.26036">
        <ele>1576.8</ele>
        <time>2021-08-28T08:21:18Z</time>
      </trkpt>
      <trkpt lat="42.9696" lon="-0.26035">
        <ele>1577</ele>
        <time>2021-08-28T08:21:19Z</time>
      </trkpt>
      <trkpt lat="42.96962" lon="-0.26034">
        <ele>1577</ele>
        <time>2021-08-28T08:21:20Z</time>
      </trkpt>
      <trkpt lat="42.96964" lon="-0.26034">
        <ele>1577.2</ele>
        <time>2021-08-28T08:21:21Z</time>
      </trkpt>
      <trkpt lat="42.96965" lon="-0.26034">
        <ele>1577.2</ele>
        <time>2021-08-28T08:21:22Z</time>
      </trkpt>
      <trkpt lat="42.96966" lon="-0.26034">
        <ele>1577.2</ele>
        <time>2021-08-28T08:21:23Z</time>
      </trkpt>
      <trkpt lat="42.96967" lon="-0.26034">
        <ele>1577.4</ele>
        <time>2021-08-28T08:21:24Z</time>
      </trkpt>
      <trkpt lat="42.96968" lon="-0.26034">
        <ele>1577.4</ele>
        <time>2021-08-28T08:21:25Z</time>
      </trkpt>
      <trkpt lat="42.9697" lon="-0.26034">
        <ele>1577.8</ele>
        <time>2021-08-28T08:21:26Z</time>
      </trkpt>
      <trkpt lat="42.96971" lon="-0.26035">
        <ele>1578</ele>
        <time>2021-08-28T08:21:27Z</time>
      </trkpt>
      <trkpt lat="42.96972" lon="-0.26035">
        <ele>1578</ele>
        <time>2021-08-28T08:21:28Z</time>
      </trkpt>
      <trkpt lat="42.96973" lon="-0.26035">
        <ele>1578.4</ele>
        <time>2021-08-28T08:21:29Z</time>
      </trkpt>
      <trkpt lat="42.96974" lon="-0.26036">
        <ele>1578.4</ele>
        <time>2021-08-28T08:21:30Z</time>
      </trkpt>
      <trkpt lat="42.96976" lon="-0.26036">
        <ele>1578.6</ele>
        <time>2021-08-28T08:21:31Z</time>
      </trkpt>
      <trkpt lat="42.96977" lon="-0.26037">
        <ele>1578.8</ele>
        <time>2021-08-28T08:21:32Z</time>
      </trkpt>
      <trkpt lat="42.96977" lon="-0.26037">
        <ele>1579.2</ele>
        <time>2021-08-28T08:21:33Z</time>
      </trkpt>
      <trkpt lat="42.96979" lon="-0.26037">
        <ele>1579.2</ele>
        <time>2021-08-28T08:21:34Z</time>
      </trkpt>
      <trkpt lat="42.9698" lon="-0.26037">
        <ele>1579.6</ele>
        <time>2021-08-28T08:21:35Z</time>
      </trkpt>
      <trkpt lat="42.96981" lon="-0.26038">
        <ele>1579.6</ele>
        <time>2021-08-28T08:21:36Z</time>
      </trkpt>
      <trkpt lat="42.96982" lon="-0.26038">
        <ele>1580</ele>
        <time>2021-08-28T08:21:37Z</time>
      </trkpt>
      <trkpt lat="42.96983" lon="-0.26038">
        <ele>1580.2</ele>
        <time>2021-08-28T08:21:38Z</time>
      </trkpt>
      <trkpt lat="42.96985" lon="-0.26038">
        <ele>1580.4</ele>
        <time>2021-08-28T08:21:39Z</time>
      </trkpt>
      <trkpt lat="42.96986" lon="-0.26039">
        <ele>1580.6</ele>
        <time>2021-08-28T08:21:40Z</time>
      </trkpt>
      <trkpt lat="42.96987" lon="-0.26039">
        <ele>1580.8</ele>
        <time>2021-08-28T08:21:41Z</time>
      </trkpt>
      <trkpt lat="42.96989" lon="-0.2604">
        <ele>1580.8</ele>
        <time>2021-08-28T08:21:42Z</time>
      </trkpt>
      <trkpt lat="42.9699" lon="-0.2604">
        <ele>1581</ele>
        <time>2021-08-28T08:21:43Z</time>
      </trkpt>
      <trkpt lat="42.96991" lon="-0.26041">
        <ele>1581</ele>
        <time>2021-08-28T08:21:44Z</time>
      </trkpt>
      <trkpt lat="42.96993" lon="-0.26041">
        <ele>1581.4</ele>
        <time>2021-08-28T08:21:45Z</time>
      </trkpt>
      <trkpt lat="42.96994" lon="-0.26042">
        <ele>1581.6</ele>
        <time>2021-08-28T08:21:46Z</time>
      </trkpt>
      <trkpt lat="42.96996" lon="-0.26043">
        <ele>1581.8</ele>
        <time>2021-08-28T08:21:47Z</time>
      </trkpt>
      <trkpt lat="42.96997" lon="-0.26043">
        <ele>1581.8</ele>
        <time>2021-08-28T08:21:48Z</time>
      </trkpt>
      <trkpt lat="42.96998" lon="-0.26044">
        <ele>1581.8</ele>
        <time>2021-08-28T08:21:49Z</time>
      </trkpt>
      <trkpt lat="42.97" lon="-0.26044">
        <ele>1582</ele>
        <time>2021-08-28T08:21:50Z</time>
      </trkpt>
      <trkpt lat="42.97002" lon="-0.26045">
        <ele>1582</ele>
        <time>2021-08-28T08:21:51Z</time>
      </trkpt>
      <trkpt lat="42.97003" lon="-0.26045">
        <ele>1582.2</ele>
        <time>2021-08-28T08:21:52Z</time>
      </trkpt>
      <trkpt lat="42.97005" lon="-0.26045">
        <ele>1582.2</ele>
        <time>2021-08-28T08:21:53Z</time>
      </trkpt>
      <trkpt lat="42.97006" lon="-0.26045">
        <ele>1582.2</ele>
        <time>2021-08-28T08:21:54Z</time>
      </trkpt>
      <trkpt lat="42.97008" lon="-0.26044">
        <ele>1582.2</ele>
        <time>2021-08-28T08:21:55Z</time>
      </trkpt>
      <trkpt lat="42.9701" lon="-0.26044">
        <ele>1582.2</ele>
        <time>2021-08-28T08:21:56Z</time>
      </trkpt>
      <trkpt lat="42.97011" lon="-0.26043">
        <ele>1582.4</ele>
        <time>2021-08-28T08:21:57Z</time>
      </trkpt>
      <trkpt lat="42.97013" lon="-0.26043">
        <ele>1582.4</ele>
        <time>2021-08-28T08:21:58Z</time>
      </trkpt>
      <trkpt lat="42.97015" lon="-0.26042">
        <ele>1582.4</ele>
        <time>2021-08-28T08:21:59Z</time>
      </trkpt>
      <trkpt lat="42.97017" lon="-0.26041">
        <ele>1582.4</ele>
        <time>2021-08-28T08:22:00Z</time>
      </trkpt>
      <trkpt lat="42.97018" lon="-0.2604">
        <ele>1582.4</ele>
        <time>2021-08-28T08:22:01Z</time>
      </trkpt>
      <trkpt lat="42.97019" lon="-0.26039">
        <ele>1582.6</ele>
        <time>2021-08-28T08:22:02Z</time>
      </trkpt>
      <trkpt lat="42.9702" lon="-0.26038">
        <ele>1582.6</ele>
        <time>2021-08-28T08:22:03Z</time>
      </trkpt>
      <trkpt lat="42.97022" lon="-0.26037">
        <ele>1582.6</ele>
        <time>2021-08-28T08:22:04Z</time>
      </trkpt>
      <trkpt lat="42.97023" lon="-0.26036">
        <ele>1582.6</ele>
        <time>2021-08-28T08:22:05Z</time>
      </trkpt>
      <trkpt lat="42.97023" lon="-0.26035">
        <ele>1582.8</ele>
        <time>2021-08-28T08:22:06Z</time>
      </trkpt>
      <trkpt lat="42.97024" lon="-0.26034">
        <ele>1582.8</ele>
        <time>2021-08-28T08:22:07Z</time>
      </trkpt>
      <trkpt lat="42.97025" lon="-0.26033">
        <ele>1583</ele>
        <time>2021-08-28T08:22:08Z</time>
      </trkpt>
      <trkpt lat="42.97026" lon="-0.26031">
        <ele>1583</ele>
        <time>2021-08-28T08:22:09Z</time>
      </trkpt>
      <trkpt lat="42.97027" lon="-0.2603">
        <ele>1583</ele>
        <time>2021-08-28T08:22:10Z</time>
      </trkpt>
      <trkpt lat="42.97027" lon="-0.26028">
        <ele>1583.4</ele>
        <time>2021-08-28T08:22:11Z</time>
      </trkpt>
      <trkpt lat="42.97029" lon="-0.26011">
        <ele>1583.8</ele>
        <time>2021-08-28T08:22:19Z</time>
      </trkpt>
      <trkpt lat="42.97028" lon="-0.26007">
        <ele>1584</ele>
        <time>2021-08-28T08:22:21Z</time>
      </trkpt>
      <trkpt lat="42.97028" lon="-0.26005">
        <ele>1584</ele>
        <time>2021-08-28T08:22:22Z</time>
      </trkpt>
      <trkpt lat="42.97027" lon="-0.26001">
        <ele>1584</ele>
        <time>2021-08-28T08:22:25Z</time>
      </trkpt>
      <trkpt lat="42.97026" lon="-0.25999">
        <ele>1584.2</ele>
        <time>2021-08-28T08:22:26Z</time>
      </trkpt>
      <trkpt lat="42.97025" lon="-0.25998">
        <ele>1584.4</ele>
        <time>2021-08-28T08:22:27Z</time>
      </trkpt>
      <trkpt lat="42.97023" lon="-0.25997">
        <ele>1584.6</ele>
        <time>2021-08-28T08:22:28Z</time>
      </trkpt>
      <trkpt lat="42.97022" lon="-0.25996">
        <ele>1584.6</ele>
        <time>2021-08-28T08:22:29Z</time>
      </trkpt>
      <trkpt lat="42.97021" lon="-0.25994">
        <ele>1584.8</ele>
        <time>2021-08-28T08:22:30Z</time>
      </trkpt>
      <trkpt lat="42.97021" lon="-0.25993">
        <ele>1584.8</ele>
        <time>2021-08-28T08:22:31Z</time>
      </trkpt>
      <trkpt lat="42.9702" lon="-0.2599">
        <ele>1585.2</ele>
        <time>2021-08-28T08:22:32Z</time>
      </trkpt>
      <trkpt lat="42.9702" lon="-0.25988">
        <ele>1585.2</ele>
        <time>2021-08-28T08:22:33Z</time>
      </trkpt>
      <trkpt lat="42.97019" lon="-0.25986">
        <ele>1585.4</ele>
        <time>2021-08-28T08:22:34Z</time>
      </trkpt>
      <trkpt lat="42.97015" lon="-0.25967">
        <ele>1585.4</ele>
        <time>2021-08-28T08:22:41Z</time>
      </trkpt>
      <trkpt lat="42.97008" lon="-0.25948">
        <ele>1585.2</ele>
        <time>2021-08-28T08:22:46Z</time>
      </trkpt>
      <trkpt lat="42.97007" lon="-0.25945">
        <ele>1585.2</ele>
        <time>2021-08-28T08:22:47Z</time>
      </trkpt>
      <trkpt lat="42.97006" lon="-0.25943">
        <ele>1585.2</ele>
        <time>2021-08-28T08:22:48Z</time>
      </trkpt>
      <trkpt lat="42.97004" lon="-0.25941">
        <ele>1585.2</ele>
        <time>2021-08-28T08:22:49Z</time>
      </trkpt>
      <trkpt lat="42.97003" lon="-0.25939">
        <ele>1585.2</ele>
        <time>2021-08-28T08:22:50Z</time>
      </trkpt>
      <trkpt lat="42.97002" lon="-0.25938">
        <ele>1585.2</ele>
        <time>2021-08-28T08:22:51Z</time>
      </trkpt>
      <trkpt lat="42.96998" lon="-0.25931">
        <ele>1585.2</ele>
        <time>2021-08-28T08:22:54Z</time>
      </trkpt>
      <trkpt lat="42.96997" lon="-0.2593">
        <ele>1585.4</ele>
        <time>2021-08-28T08:22:55Z</time>
      </trkpt>
      <trkpt lat="42.96996" lon="-0.25928">
        <ele>1585.4</ele>
        <time>2021-08-28T08:22:56Z</time>
      </trkpt>
      <trkpt lat="42.96994" lon="-0.25926">
        <ele>1585.4</ele>
        <time>2021-08-28T08:22:57Z</time>
      </trkpt>
      <trkpt lat="42.96993" lon="-0.25924">
        <ele>1585.4</ele>
        <time>2021-08-28T08:22:58Z</time>
      </trkpt>
      <trkpt lat="42.96985" lon="-0.25915">
        <ele>1586</ele>
        <time>2021-08-28T08:23:04Z</time>
      </trkpt>
      <trkpt lat="42.96983" lon="-0.25914">
        <ele>1586</ele>
        <time>2021-08-28T08:23:05Z</time>
      </trkpt>
      <trkpt lat="42.96982" lon="-0.25912">
        <ele>1586.2</ele>
        <time>2021-08-28T08:23:06Z</time>
      </trkpt>
      <trkpt lat="42.96981" lon="-0.25911">
        <ele>1586.2</ele>
        <time>2021-08-28T08:23:07Z</time>
      </trkpt>
      <trkpt lat="42.9698" lon="-0.25909">
        <ele>1586.2</ele>
        <time>2021-08-28T08:23:08Z</time>
      </trkpt>
      <trkpt lat="42.96979" lon="-0.25907">
        <ele>1586.4</ele>
        <time>2021-08-28T08:23:09Z</time>
      </trkpt>
      <trkpt lat="42.96978" lon="-0.25905">
        <ele>1586.4</ele>
        <time>2021-08-28T08:23:10Z</time>
      </trkpt>
      <trkpt lat="42.96977" lon="-0.25903">
        <ele>1586.6</ele>
        <time>2021-08-28T08:23:11Z</time>
      </trkpt>
      <trkpt lat="42.96964" lon="-0.25881">
        <ele>1587</ele>
        <time>2021-08-28T08:23:20Z</time>
      </trkpt>
      <trkpt lat="42.96956" lon="-0.25866">
        <ele>1586.8</ele>
        <time>2021-08-28T08:23:23Z</time>
      </trkpt>
      <trkpt lat="42.96954" lon="-0.25859">
        <ele>1586.6</ele>
        <time>2021-08-28T08:23:24Z</time>
      </trkpt>
      <trkpt lat="42.9695" lon="-0.25846">
        <ele>1586</ele>
        <time>2021-08-28T08:23:26Z</time>
      </trkpt>
      <trkpt lat="42.96949" lon="-0.2584">
        <ele>1585.4</ele>
        <time>2021-08-28T08:23:27Z</time>
      </trkpt>
      <trkpt lat="42.96948" lon="-0.25833">
        <ele>1585</ele>
        <time>2021-08-28T08:23:28Z</time>
      </trkpt>
      <trkpt lat="42.96947" lon="-0.25826">
        <ele>1584.4</ele>
        <time>2021-08-28T08:23:29Z</time>
      </trkpt>
      <trkpt lat="42.96946" lon="-0.25812">
        <ele>1584</ele>
        <time>2021-08-28T08:23:31Z</time>
      </trkpt>
      <trkpt lat="42.96945" lon="-0.25765">
        <ele>1583.2</ele>
        <time>2021-08-28T08:23:37Z</time>
      </trkpt>
      <trkpt lat="42.96945" lon="-0.25757">
        <ele>1583</ele>
        <time>2021-08-28T08:23:38Z</time>
      </trkpt>
      <trkpt lat="42.96945" lon="-0.25739">
        <ele>1582.2</ele>
        <time>2021-08-28T08:23:40Z</time>
      </trkpt>
      <trkpt lat="42.96946" lon="-0.25721">
        <ele>1581.8</ele>
        <time>2021-08-28T08:23:42Z</time>
      </trkpt>
      <trkpt lat="42.96947" lon="-0.25713">
        <ele>1581.6</ele>
        <time>2021-08-28T08:23:43Z</time>
      </trkpt>
      <trkpt lat="42.96949" lon="-0.25685">
        <ele>1581.2</ele>
        <time>2021-08-28T08:23:46Z</time>
      </trkpt>
      <trkpt lat="42.96953" lon="-0.25651">
        <ele>1580.6</ele>
        <time>2021-08-28T08:23:50Z</time>
      </trkpt>
      <trkpt lat="42.96956" lon="-0.25625">
        <ele>1579.6</ele>
        <time>2021-08-28T08:23:53Z</time>
      </trkpt>
      <trkpt lat="42.96958" lon="-0.25606">
        <ele>1578.4</ele>
        <time>2021-08-28T08:23:55Z</time>
      </trkpt>
      <trkpt lat="42.9696" lon="-0.25597">
        <ele>1577.4</ele>
        <time>2021-08-28T08:23:56Z</time>
      </trkpt>
      <trkpt lat="42.96963" lon="-0.2558">
        <ele>1576.4</ele>
        <time>2021-08-28T08:23:58Z</time>
      </trkpt>
      <trkpt lat="42.96969" lon="-0.25556">
        <ele>1575</ele>
        <time>2021-08-28T08:24:01Z</time>
      </trkpt>
      <trkpt lat="42.96973" lon="-0.2554">
        <ele>1573.6</ele>
        <time>2021-08-28T08:24:03Z</time>
      </trkpt>
      <trkpt lat="42.96974" lon="-0.25531">
        <ele>1573.2</ele>
        <time>2021-08-28T08:24:04Z</time>
      </trkpt>
      <trkpt lat="42.96975" lon="-0.25523">
        <ele>1572.8</ele>
        <time>2021-08-28T08:24:05Z</time>
      </trkpt>
      <trkpt lat="42.96976" lon="-0.25514">
        <ele>1572.6</ele>
        <time>2021-08-28T08:24:06Z</time>
      </trkpt>
      <trkpt lat="42.96977" lon="-0.25506">
        <ele>1571.6</ele>
        <time>2021-08-28T08:24:07Z</time>
      </trkpt>
      <trkpt lat="42.96979" lon="-0.25497">
        <ele>1571.2</ele>
        <time>2021-08-28T08:24:08Z</time>
      </trkpt>
      <trkpt lat="42.96981" lon="-0.25489">
        <ele>1570.2</ele>
        <time>2021-08-28T08:24:09Z</time>
      </trkpt>
      <trkpt lat="42.96984" lon="-0.25472">
        <ele>1569.4</ele>
        <time>2021-08-28T08:24:11Z</time>
      </trkpt>
      <trkpt lat="42.96991" lon="-0.25457">
        <ele>1568.8</ele>
        <time>2021-08-28T08:24:13Z</time>
      </trkpt>
      <trkpt lat="42.96995" lon="-0.25452">
        <ele>1568.8</ele>
        <time>2021-08-28T08:24:14Z</time>
      </trkpt>
      <trkpt lat="42.96998" lon="-0.25447">
        <ele>1568.6</ele>
        <time>2021-08-28T08:24:15Z</time>
      </trkpt>
      <trkpt lat="42.97002" lon="-0.25442">
        <ele>1568.6</ele>
        <time>2021-08-28T08:24:16Z</time>
      </trkpt>
      <trkpt lat="42.97019" lon="-0.25422">
        <ele>1568.2</ele>
        <time>2021-08-28T08:24:20Z</time>
      </trkpt>
      <trkpt lat="42.9703" lon="-0.25408">
        <ele>1567.8</ele>
        <time>2021-08-28T08:24:23Z</time>
      </trkpt>
      <trkpt lat="42.97034" lon="-0.25402">
        <ele>1567.6</ele>
        <time>2021-08-28T08:24:24Z</time>
      </trkpt>
      <trkpt lat="42.97037" lon="-0.25398">
        <ele>1567.6</ele>
        <time>2021-08-28T08:24:25Z</time>
      </trkpt>
      <trkpt lat="42.9704" lon="-0.25393">
        <ele>1567.6</ele>
        <time>2021-08-28T08:24:26Z</time>
      </trkpt>
      <trkpt lat="42.97044" lon="-0.25389">
        <ele>1567.6</ele>
        <time>2021-08-28T08:24:27Z</time>
      </trkpt>
      <trkpt lat="42.97048" lon="-0.25383">
        <ele>1567.6</ele>
        <time>2021-08-28T08:24:28Z</time>
      </trkpt>
      <trkpt lat="42.97068" lon="-0.25346">
        <ele>1567.6</ele>
        <time>2021-08-28T08:24:34Z</time>
      </trkpt>
      <trkpt lat="42.97071" lon="-0.25339">
        <ele>1567.4</ele>
        <time>2021-08-28T08:24:35Z</time>
      </trkpt>
      <trkpt lat="42.97074" lon="-0.2533">
        <ele>1567.4</ele>
        <time>2021-08-28T08:24:36Z</time>
      </trkpt>
      <trkpt lat="42.97078" lon="-0.25315">
        <ele>1567.2</ele>
        <time>2021-08-28T08:24:38Z</time>
      </trkpt>
      <trkpt lat="42.9708" lon="-0.25307">
        <ele>1567</ele>
        <time>2021-08-28T08:24:39Z</time>
      </trkpt>
      <trkpt lat="42.97081" lon="-0.25298">
        <ele>1566.4</ele>
        <time>2021-08-28T08:24:40Z</time>
      </trkpt>
      <trkpt lat="42.97085" lon="-0.25266">
        <ele>1565.8</ele>
        <time>2021-08-28T08:24:44Z</time>
      </trkpt>
      <trkpt lat="42.97085" lon="-0.25257">
        <ele>1565.4</ele>
        <time>2021-08-28T08:24:45Z</time>
      </trkpt>
      <trkpt lat="42.97085" lon="-0.25249">
        <ele>1565.4</ele>
        <time>2021-08-28T08:24:46Z</time>
      </trkpt>
      <trkpt lat="42.97084" lon="-0.25241">
        <ele>1565.2</ele>
        <time>2021-08-28T08:24:47Z</time>
      </trkpt>
      <trkpt lat="42.97084" lon="-0.25235">
        <ele>1565</ele>
        <time>2021-08-28T08:24:48Z</time>
      </trkpt>
      <trkpt lat="42.97084" lon="-0.25228">
        <ele>1565</ele>
        <time>2021-08-28T08:24:49Z</time>
      </trkpt>
      <trkpt lat="42.97083" lon="-0.25221">
        <ele>1564.8</ele>
        <time>2021-08-28T08:24:50Z</time>
      </trkpt>
      <trkpt lat="42.97082" lon="-0.25205">
        <ele>1564.4</ele>
        <time>2021-08-28T08:24:52Z</time>
      </trkpt>
      <trkpt lat="42.97082" lon="-0.25185">
        <ele>1563.8</ele>
        <time>2021-08-28T08:24:54Z</time>
      </trkpt>
      <trkpt lat="42.97082" lon="-0.25175">
        <ele>1562.8</ele>
        <time>2021-08-28T08:24:55Z</time>
      </trkpt>
      <trkpt lat="42.97084" lon="-0.25153">
        <ele>1561.6</ele>
        <time>2021-08-28T08:24:57Z</time>
      </trkpt>
      <trkpt lat="42.97085" lon="-0.2513">
        <ele>1560.2</ele>
        <time>2021-08-28T08:24:59Z</time>
      </trkpt>
      <trkpt lat="42.97086" lon="-0.25107">
        <ele>1559</ele>
        <time>2021-08-28T08:25:01Z</time>
      </trkpt>
      <trkpt lat="42.97089" lon="-0.25056">
        <ele>1557.8</ele>
        <time>2021-08-28T08:25:05Z</time>
      </trkpt>
      <trkpt lat="42.97089" lon="-0.25029">
        <ele>1556.6</ele>
        <time>2021-08-28T08:25:07Z</time>
      </trkpt>
      <trkpt lat="42.9709" lon="-0.25016">
        <ele>1555.4</ele>
        <time>2021-08-28T08:25:08Z</time>
      </trkpt>
      <trkpt lat="42.97093" lon="-0.25003">
        <ele>1554.8</ele>
        <time>2021-08-28T08:25:09Z</time>
      </trkpt>
      <trkpt lat="42.97096" lon="-0.24993">
        <ele>1553.8</ele>
        <time>2021-08-28T08:25:10Z</time>
      </trkpt>
      <trkpt lat="42.971" lon="-0.24983">
        <ele>1553.6</ele>
        <time>2021-08-28T08:25:11Z</time>
      </trkpt>
      <trkpt lat="42.97103" lon="-0.24973">
        <ele>1553</ele>
        <time>2021-08-28T08:25:12Z</time>
      </trkpt>
      <trkpt lat="42.97106" lon="-0.24964">
        <ele>1552.6</ele>
        <time>2021-08-28T08:25:13Z</time>
      </trkpt>
      <trkpt lat="42.97109" lon="-0.24954">
        <ele>1552.2</ele>
        <time>2021-08-28T08:25:14Z</time>
      </trkpt>
      <trkpt lat="42.97116" lon="-0.24933">
        <ele>1551.4</ele>
        <time>2021-08-28T08:25:16Z</time>
      </trkpt>
      <trkpt lat="42.9712" lon="-0.24912">
        <ele>1550.2</ele>
        <time>2021-08-28T08:25:18Z</time>
      </trkpt>
      <trkpt lat="42.97122" lon="-0.24902">
        <ele>1549.8</ele>
        <time>2021-08-28T08:25:19Z</time>
      </trkpt>
      <trkpt lat="42.97124" lon="-0.24892">
        <ele>1549.4</ele>
        <time>2021-08-28T08:25:20Z</time>
      </trkpt>
      <trkpt lat="42.97126" lon="-0.24883">
        <ele>1549.2</ele>
        <time>2021-08-28T08:25:21Z</time>
      </trkpt>
      <trkpt lat="42.9713" lon="-0.24873">
        <ele>1548.8</ele>
        <time>2021-08-28T08:25:22Z</time>
      </trkpt>
      <trkpt lat="42.97134" lon="-0.24864">
        <ele>1548.4</ele>
        <time>2021-08-28T08:25:23Z</time>
      </trkpt>
      <trkpt lat="42.9714" lon="-0.24855">
        <ele>1548</ele>
        <time>2021-08-28T08:25:24Z</time>
      </trkpt>
      <trkpt lat="42.97146" lon="-0.24847">
        <ele>1547</ele>
        <time>2021-08-28T08:25:25Z</time>
      </trkpt>
      <trkpt lat="42.97152" lon="-0.24839">
        <ele>1546.8</ele>
        <time>2021-08-28T08:25:26Z</time>
      </trkpt>
      <trkpt lat="42.97158" lon="-0.24832">
        <ele>1545.2</ele>
        <time>2021-08-28T08:25:27Z</time>
      </trkpt>
      <trkpt lat="42.97164" lon="-0.24829">
        <ele>1544.4</ele>
        <time>2021-08-28T08:25:28Z</time>
      </trkpt>
      <trkpt lat="42.9717" lon="-0.24827">
        <ele>1543.2</ele>
        <time>2021-08-28T08:25:29Z</time>
      </trkpt>
      <trkpt lat="42.97175" lon="-0.24826">
        <ele>1542.6</ele>
        <time>2021-08-28T08:25:30Z</time>
      </trkpt>
      <trkpt lat="42.9718" lon="-0.24825">
        <ele>1541.4</ele>
        <time>2021-08-28T08:25:31Z</time>
      </trkpt>
      <trkpt lat="42.97184" lon="-0.24824">
        <ele>1540.8</ele>
        <time>2021-08-28T08:25:32Z</time>
      </trkpt>
      <trkpt lat="42.97187" lon="-0.24822">
        <ele>1540.2</ele>
        <time>2021-08-28T08:25:33Z</time>
      </trkpt>
      <trkpt lat="42.97191" lon="-0.24821">
        <ele>1540</ele>
        <time>2021-08-28T08:25:34Z</time>
      </trkpt>
      <trkpt lat="42.97194" lon="-0.24819">
        <ele>1539.8</ele>
        <time>2021-08-28T08:25:35Z</time>
      </trkpt>
      <trkpt lat="42.97197" lon="-0.24818">
        <ele>1539.6</ele>
        <time>2021-08-28T08:25:36Z</time>
      </trkpt>
      <trkpt lat="42.97199" lon="-0.24817">
        <ele>1539.6</ele>
        <time>2021-08-28T08:25:37Z</time>
      </trkpt>
      <trkpt lat="42.97209" lon="-0.24812">
        <ele>1539.6</ele>
        <time>2021-08-28T08:25:40Z</time>
      </trkpt>
      <trkpt lat="42.97216" lon="-0.24807">
        <ele>1539.6</ele>
        <time>2021-08-28T08:25:42Z</time>
      </trkpt>
      <trkpt lat="42.97224" lon="-0.24798">
        <ele>1539.4</ele>
        <time>2021-08-28T08:25:44Z</time>
      </trkpt>
      <trkpt lat="42.97232" lon="-0.24788">
        <ele>1539.4</ele>
        <time>2021-08-28T08:25:46Z</time>
      </trkpt>
      <trkpt lat="42.97239" lon="-0.24776">
        <ele>1539</ele>
        <time>2021-08-28T08:25:48Z</time>
      </trkpt>
      <trkpt lat="42.97242" lon="-0.2477">
        <ele>1538.8</ele>
        <time>2021-08-28T08:25:49Z</time>
      </trkpt>
      <trkpt lat="42.97245" lon="-0.24764">
        <ele>1538.4</ele>
        <time>2021-08-28T08:25:50Z</time>
      </trkpt>
      <trkpt lat="42.97249" lon="-0.24759">
        <ele>1538.4</ele>
        <time>2021-08-28T08:25:51Z</time>
      </trkpt>
      <trkpt lat="42.97251" lon="-0.24753">
        <ele>1538.2</ele>
        <time>2021-08-28T08:25:52Z</time>
      </trkpt>
      <trkpt lat="42.97256" lon="-0.2474">
        <ele>1537.8</ele>
        <time>2021-08-28T08:25:54Z</time>
      </trkpt>
      <trkpt lat="42.97262" lon="-0.24723">
        <ele>1537.4</ele>
        <time>2021-08-28T08:25:56Z</time>
      </trkpt>
      <trkpt lat="42.97279" lon="-0.24694">
        <ele>1536.6</ele>
        <time>2021-08-28T08:25:59Z</time>
      </trkpt>
      <trkpt lat="42.97291" lon="-0.24675">
        <ele>1535.4</ele>
        <time>2021-08-28T08:26:01Z</time>
      </trkpt>
      <trkpt lat="42.97296" lon="-0.24665">
        <ele>1534.4</ele>
        <time>2021-08-28T08:26:02Z</time>
      </trkpt>
      <trkpt lat="42.97301" lon="-0.24656">
        <ele>1534</ele>
        <time>2021-08-28T08:26:03Z</time>
      </trkpt>
      <trkpt lat="42.97306" lon="-0.24647">
        <ele>1532</ele>
        <time>2021-08-28T08:26:04Z</time>
      </trkpt>
      <trkpt lat="42.9731" lon="-0.24639">
        <ele>1531</ele>
        <time>2021-08-28T08:26:05Z</time>
      </trkpt>
      <trkpt lat="42.97313" lon="-0.24633">
        <ele>1530.8</ele>
        <time>2021-08-28T08:26:06Z</time>
      </trkpt>
      <trkpt lat="42.97317" lon="-0.24627">
        <ele>1530.6</ele>
        <time>2021-08-28T08:26:07Z</time>
      </trkpt>
      <trkpt lat="42.97321" lon="-0.24622">
        <ele>1530.4</ele>
        <time>2021-08-28T08:26:08Z</time>
      </trkpt>
      <trkpt lat="42.97325" lon="-0.24618">
        <ele>1530.4</ele>
        <time>2021-08-28T08:26:09Z</time>
      </trkpt>
      <trkpt lat="42.97329" lon="-0.24616">
        <ele>1530.4</ele>
        <time>2021-08-28T08:26:10Z</time>
      </trkpt>
      <trkpt lat="42.97334" lon="-0.24614">
        <ele>1530.4</ele>
        <time>2021-08-28T08:26:11Z</time>
      </trkpt>
      <trkpt lat="42.97339" lon="-0.24613">
        <ele>1530.4</ele>
        <time>2021-08-28T08:26:12Z</time>
      </trkpt>
      <trkpt lat="42.97343" lon="-0.24613">
        <ele>1530.4</ele>
        <time>2021-08-28T08:26:13Z</time>
      </trkpt>
      <trkpt lat="42.97347" lon="-0.24613">
        <ele>1530.4</ele>
        <time>2021-08-28T08:26:14Z</time>
      </trkpt>
      <trkpt lat="42.9735" lon="-0.24613">
        <ele>1530.4</ele>
        <time>2021-08-28T08:26:15Z</time>
      </trkpt>
      <trkpt lat="42.97354" lon="-0.24612">
        <ele>1530.6</ele>
        <time>2021-08-28T08:26:16Z</time>
      </trkpt>
      <trkpt lat="42.97362" lon="-0.24612">
        <ele>1530.6</ele>
        <time>2021-08-28T08:26:18Z</time>
      </trkpt>
      <trkpt lat="42.9737" lon="-0.24606">
        <ele>1530.6</ele>
        <time>2021-08-28T08:26:20Z</time>
      </trkpt>
      <trkpt lat="42.97374" lon="-0.246">
        <ele>1530.4</ele>
        <time>2021-08-28T08:26:21Z</time>
      </trkpt>
      <trkpt lat="42.97377" lon="-0.24594">
        <ele>1530.4</ele>
        <time>2021-08-28T08:26:22Z</time>
      </trkpt>
      <trkpt lat="42.9738" lon="-0.24587">
        <ele>1529.8</ele>
        <time>2021-08-28T08:26:23Z</time>
      </trkpt>
      <trkpt lat="42.97384" lon="-0.2458">
        <ele>1529</ele>
        <time>2021-08-28T08:26:24Z</time>
      </trkpt>
      <trkpt lat="42.97388" lon="-0.24573">
        <ele>1528.6</ele>
        <time>2021-08-28T08:26:25Z</time>
      </trkpt>
      <trkpt lat="42.97394" lon="-0.24567">
        <ele>1527.6</ele>
        <time>2021-08-28T08:26:26Z</time>
      </trkpt>
      <trkpt lat="42.97418" lon="-0.24544">
        <ele>1525.6</ele>
        <time>2021-08-28T08:26:30Z</time>
      </trkpt>
      <trkpt lat="42.97424" lon="-0.24538">
        <ele>1524.6</ele>
        <time>2021-08-28T08:26:31Z</time>
      </trkpt>
      <trkpt lat="42.97428" lon="-0.24532">
        <ele>1523.4</ele>
        <time>2021-08-28T08:26:32Z</time>
      </trkpt>
      <trkpt lat="42.97432" lon="-0.24528">
        <ele>1523.2</ele>
        <time>2021-08-28T08:26:33Z</time>
      </trkpt>
      <trkpt lat="42.97434" lon="-0.24523">
        <ele>1522.6</ele>
        <time>2021-08-28T08:26:34Z</time>
      </trkpt>
      <trkpt lat="42.97435" lon="-0.24519">
        <ele>1522.4</ele>
        <time>2021-08-28T08:26:35Z</time>
      </trkpt>
      <trkpt lat="42.97435" lon="-0.24514">
        <ele>1522</ele>
        <time>2021-08-28T08:26:36Z</time>
      </trkpt>
      <trkpt lat="42.97433" lon="-0.2451">
        <ele>1521.8</ele>
        <time>2021-08-28T08:26:37Z</time>
      </trkpt>
      <trkpt lat="42.9743" lon="-0.24508">
        <ele>1521.4</ele>
        <time>2021-08-28T08:26:38Z</time>
      </trkpt>
      <trkpt lat="42.97427" lon="-0.24506">
        <ele>1521.2</ele>
        <time>2021-08-28T08:26:39Z</time>
      </trkpt>
      <trkpt lat="42.97424" lon="-0.24504">
        <ele>1521</ele>
        <time>2021-08-28T08:26:40Z</time>
      </trkpt>
      <trkpt lat="42.97421" lon="-0.245">
        <ele>1521</ele>
        <time>2021-08-28T08:26:41Z</time>
      </trkpt>
      <trkpt lat="42.97417" lon="-0.2449">
        <ele>1520.8</ele>
        <time>2021-08-28T08:26:43Z</time>
      </trkpt>
      <trkpt lat="42.97415" lon="-0.24486">
        <ele>1520.8</ele>
        <time>2021-08-28T08:26:44Z</time>
      </trkpt>
      <trkpt lat="42.97414" lon="-0.24482">
        <ele>1520.6</ele>
        <time>2021-08-28T08:26:45Z</time>
      </trkpt>
      <trkpt lat="42.97411" lon="-0.24479">
        <ele>1520.6</ele>
        <time>2021-08-28T08:26:46Z</time>
      </trkpt>
      <trkpt lat="42.97409" lon="-0.24477">
        <ele>1520.6</ele>
        <time>2021-08-28T08:26:47Z</time>
      </trkpt>
      <trkpt lat="42.97406" lon="-0.24476">
        <ele>1520.4</ele>
        <time>2021-08-28T08:26:48Z</time>
      </trkpt>
      <trkpt lat="42.97404" lon="-0.24475">
        <ele>1520</ele>
        <time>2021-08-28T08:26:49Z</time>
      </trkpt>
      <trkpt lat="42.97401" lon="-0.24475">
        <ele>1519.8</ele>
        <time>2021-08-28T08:26:50Z</time>
      </trkpt>
      <trkpt lat="42.97398" lon="-0.24476">
        <ele>1519</ele>
        <time>2021-08-28T08:26:51Z</time>
      </trkpt>
      <trkpt lat="42.97395" lon="-0.24476">
        <ele>1518.6</ele>
        <time>2021-08-28T08:26:52Z</time>
      </trkpt>
      <trkpt lat="42.97386" lon="-0.24473">
        <ele>1517.2</ele>
        <time>2021-08-28T08:26:55Z</time>
      </trkpt>
      <trkpt lat="42.97383" lon="-0.2447">
        <ele>1517</ele>
        <time>2021-08-28T08:26:56Z</time>
      </trkpt>
      <trkpt lat="42.97382" lon="-0.24466">
        <ele>1516.6</ele>
        <time>2021-08-28T08:26:57Z</time>
      </trkpt>
      <trkpt lat="42.9738" lon="-0.24458">
        <ele>1515.6</ele>
        <time>2021-08-28T08:26:59Z</time>
      </trkpt>
      <trkpt lat="42.9738" lon="-0.24454">
        <ele>1515.4</ele>
        <time>2021-08-28T08:27:00Z</time>
      </trkpt>
      <trkpt lat="42.97383" lon="-0.24449">
        <ele>1514.6</ele>
        <time>2021-08-28T08:27:02Z</time>
      </trkpt>
      <trkpt lat="42.97385" lon="-0.24449">
        <ele>1514.2</ele>
        <time>2021-08-28T08:27:03Z</time>
      </trkpt>
      <trkpt lat="42.9739" lon="-0.24453">
        <ele>1513.4</ele>
        <time>2021-08-28T08:27:05Z</time>
      </trkpt>
      <trkpt lat="42.97394" lon="-0.24457">
        <ele>1513</ele>
        <time>2021-08-28T08:27:06Z</time>
      </trkpt>
      <trkpt lat="42.97402" lon="-0.2446">
        <ele>1512.4</ele>
        <time>2021-08-28T08:27:09Z</time>
      </trkpt>
      <trkpt lat="42.97406" lon="-0.2446">
        <ele>1512.2</ele>
        <time>2021-08-28T08:27:10Z</time>
      </trkpt>
      <trkpt lat="42.97409" lon="-0.24459">
        <ele>1512.2</ele>
        <time>2021-08-28T08:27:11Z</time>
      </trkpt>
      <trkpt lat="42.97413" lon="-0.24458">
        <ele>1512.2</ele>
        <time>2021-08-28T08:27:12Z</time>
      </trkpt>
      <trkpt lat="42.97425" lon="-0.24452">
        <ele>1512</ele>
        <time>2021-08-28T08:27:16Z</time>
      </trkpt>
      <trkpt lat="42.9744" lon="-0.24443">
        <ele>1512</ele>
        <time>2021-08-28T08:27:20Z</time>
      </trkpt>
      <trkpt lat="42.97444" lon="-0.24441">
        <ele>1512</ele>
        <time>2021-08-28T08:27:21Z</time>
      </trkpt>
      <trkpt lat="42.97449" lon="-0.2444">
        <ele>1512</ele>
        <time>2021-08-28T08:27:22Z</time>
      </trkpt>
      <trkpt lat="42.97453" lon="-0.24439">
        <ele>1512</ele>
        <time>2021-08-28T08:27:23Z</time>
      </trkpt>
      <trkpt lat="42.97469" lon="-0.24437">
        <ele>1511.8</ele>
        <time>2021-08-28T08:27:26Z</time>
      </trkpt>
      <trkpt lat="42.97473" lon="-0.24437">
        <ele>1511.8</ele>
        <time>2021-08-28T08:27:27Z</time>
      </trkpt>
      <trkpt lat="42.97488" lon="-0.24434">
        <ele>1511.4</ele>
        <time>2021-08-28T08:27:30Z</time>
      </trkpt>
      <trkpt lat="42.97492" lon="-0.24433">
        <ele>1511.4</ele>
        <time>2021-08-28T08:27:31Z</time>
      </trkpt>
      <trkpt lat="42.97496" lon="-0.24431">
        <ele>1511.4</ele>
        <time>2021-08-28T08:27:32Z</time>
      </trkpt>
      <trkpt lat="42.97511" lon="-0.24422">
        <ele>1511.2</ele>
        <time>2021-08-28T08:27:35Z</time>
      </trkpt>
      <trkpt lat="42.97517" lon="-0.24414">
        <ele>1511.2</ele>
        <time>2021-08-28T08:27:37Z</time>
      </trkpt>
      <trkpt lat="42.97521" lon="-0.2441">
        <ele>1511.2</ele>
        <time>2021-08-28T08:27:38Z</time>
      </trkpt>
      <trkpt lat="42.97525" lon="-0.24406">
        <ele>1511.2</ele>
        <time>2021-08-28T08:27:39Z</time>
      </trkpt>
      <trkpt lat="42.97543" lon="-0.2439">
        <ele>1511.2</ele>
        <time>2021-08-28T08:27:44Z</time>
      </trkpt>
      <trkpt lat="42.97568" lon="-0.24376">
        <ele>1511.2</ele>
        <time>2021-08-28T08:27:49Z</time>
      </trkpt>
      <trkpt lat="42.97572" lon="-0.24373">
        <ele>1511.2</ele>
        <time>2021-08-28T08:27:50Z</time>
      </trkpt>
      <trkpt lat="42.97587" lon="-0.24356">
        <ele>1511.2</ele>
        <time>2021-08-28T08:27:54Z</time>
      </trkpt>
      <trkpt lat="42.97591" lon="-0.24353">
        <ele>1511.2</ele>
        <time>2021-08-28T08:27:55Z</time>
      </trkpt>
      <trkpt lat="42.97595" lon="-0.2435">
        <ele>1511.2</ele>
        <time>2021-08-28T08:27:56Z</time>
      </trkpt>
      <trkpt lat="42.97599" lon="-0.24347">
        <ele>1511.2</ele>
        <time>2021-08-28T08:27:57Z</time>
      </trkpt>
      <trkpt lat="42.97603" lon="-0.24344">
        <ele>1511.2</ele>
        <time>2021-08-28T08:27:58Z</time>
      </trkpt>
      <trkpt lat="42.97607" lon="-0.24341">
        <ele>1511.2</ele>
        <time>2021-08-28T08:27:59Z</time>
      </trkpt>
      <trkpt lat="42.97626" lon="-0.24328">
        <ele>1511.4</ele>
        <time>2021-08-28T08:28:03Z</time>
      </trkpt>
      <trkpt lat="42.9764" lon="-0.24315">
        <ele>1511.2</ele>
        <time>2021-08-28T08:28:06Z</time>
      </trkpt>
      <trkpt lat="42.97643" lon="-0.24312">
        <ele>1511.2</ele>
        <time>2021-08-28T08:28:07Z</time>
      </trkpt>
      <trkpt lat="42.97646" lon="-0.24309">
        <ele>1511.2</ele>
        <time>2021-08-28T08:28:08Z</time>
      </trkpt>
      <trkpt lat="42.97651" lon="-0.24306">
        <ele>1511.2</ele>
        <time>2021-08-28T08:28:09Z</time>
      </trkpt>
      <trkpt lat="42.97655" lon="-0.24303">
        <ele>1511</ele>
        <time>2021-08-28T08:28:10Z</time>
      </trkpt>
      <trkpt lat="42.97658" lon="-0.243">
        <ele>1511</ele>
        <time>2021-08-28T08:28:11Z</time>
      </trkpt>
      <trkpt lat="42.97662" lon="-0.24297">
        <ele>1511</ele>
        <time>2021-08-28T08:28:12Z</time>
      </trkpt>
      <trkpt lat="42.97665" lon="-0.24294">
        <ele>1511</ele>
        <time>2021-08-28T08:28:13Z</time>
      </trkpt>
      <trkpt lat="42.97669" lon="-0.24291">
        <ele>1511</ele>
        <time>2021-08-28T08:28:14Z</time>
      </trkpt>
      <trkpt lat="42.97671" lon="-0.24289">
        <ele>1511</ele>
        <time>2021-08-28T08:28:15Z</time>
      </trkpt>
      <trkpt lat="42.97675" lon="-0.24286">
        <ele>1511</ele>
        <time>2021-08-28T08:28:16Z</time>
      </trkpt>
      <trkpt lat="42.97678" lon="-0.24283">
        <ele>1511.2</ele>
        <time>2021-08-28T08:28:17Z</time>
      </trkpt>
      <trkpt lat="42.97681" lon="-0.24278">
        <ele>1511.2</ele>
        <time>2021-08-28T08:28:18Z</time>
      </trkpt>
      <trkpt lat="42.97682" lon="-0.24276">
        <ele>1511.4</ele>
        <time>2021-08-28T08:28:19Z</time>
      </trkpt>
      <trkpt lat="42.97684" lon="-0.24272">
        <ele>1511.4</ele>
        <time>2021-08-28T08:28:20Z</time>
      </trkpt>
      <trkpt lat="42.97686" lon="-0.24268">
        <ele>1511.6</ele>
        <time>2021-08-28T08:28:21Z</time>
      </trkpt>
      <trkpt lat="42.97689" lon="-0.24266">
        <ele>1511.8</ele>
        <time>2021-08-28T08:28:22Z</time>
      </trkpt>
      <trkpt lat="42.97693" lon="-0.24263">
        <ele>1512</ele>
        <time>2021-08-28T08:28:23Z</time>
      </trkpt>
      <trkpt lat="42.97697" lon="-0.24262">
        <ele>1512</ele>
        <time>2021-08-28T08:28:24Z</time>
      </trkpt>
      <trkpt lat="42.97701" lon="-0.24262">
        <ele>1512</ele>
        <time>2021-08-28T08:28:25Z</time>
      </trkpt>
      <trkpt lat="42.97706" lon="-0.24262">
        <ele>1512.2</ele>
        <time>2021-08-28T08:28:26Z</time>
      </trkpt>
      <trkpt lat="42.9771" lon="-0.24262">
        <ele>1512.2</ele>
        <time>2021-08-28T08:28:27Z</time>
      </trkpt>
      <trkpt lat="42.97715" lon="-0.24261">
        <ele>1512.2</ele>
        <time>2021-08-28T08:28:28Z</time>
      </trkpt>
      <trkpt lat="42.97724" lon="-0.24259">
        <ele>1512.2</ele>
        <time>2021-08-28T08:28:30Z</time>
      </trkpt>
      <trkpt lat="42.97729" lon="-0.24257">
        <ele>1512.2</ele>
        <time>2021-08-28T08:28:31Z</time>
      </trkpt>
      <trkpt lat="42.97734" lon="-0.24256">
        <ele>1512</ele>
        <time>2021-08-28T08:28:32Z</time>
      </trkpt>
      <trkpt lat="42.97743" lon="-0.24254">
        <ele>1512</ele>
        <time>2021-08-28T08:28:34Z</time>
      </trkpt>
      <trkpt lat="42.97751" lon="-0.24253">
        <ele>1511.8</ele>
        <time>2021-08-28T08:28:36Z</time>
      </trkpt>
      <trkpt lat="42.97759" lon="-0.24254">
        <ele>1511.8</ele>
        <time>2021-08-28T08:28:38Z</time>
      </trkpt>
      <trkpt lat="42.97763" lon="-0.24257">
        <ele>1511.8</ele>
        <time>2021-08-28T08:28:39Z</time>
      </trkpt>
      <trkpt lat="42.97778" lon="-0.24265">
        <ele>1512</ele>
        <time>2021-08-28T08:28:42Z</time>
      </trkpt>
      <trkpt lat="42.97782" lon="-0.24266">
        <ele>1512</ele>
        <time>2021-08-28T08:28:43Z</time>
      </trkpt>
      <trkpt lat="42.97786" lon="-0.24266">
        <ele>1512</ele>
        <time>2021-08-28T08:28:44Z</time>
      </trkpt>
      <trkpt lat="42.97789" lon="-0.24265">
        <ele>1512.2</ele>
        <time>2021-08-28T08:28:45Z</time>
      </trkpt>
      <trkpt lat="42.97793" lon="-0.24262">
        <ele>1512.2</ele>
        <time>2021-08-28T08:28:46Z</time>
      </trkpt>
      <trkpt lat="42.97796" lon="-0.24259">
        <ele>1512.4</ele>
        <time>2021-08-28T08:28:47Z</time>
      </trkpt>
      <trkpt lat="42.97799" lon="-0.24255">
        <ele>1512.4</ele>
        <time>2021-08-28T08:28:48Z</time>
      </trkpt>
      <trkpt lat="42.97802" lon="-0.24252">
        <ele>1512.4</ele>
        <time>2021-08-28T08:28:49Z</time>
      </trkpt>
      <trkpt lat="42.97804" lon="-0.24248">
        <ele>1512.6</ele>
        <time>2021-08-28T08:28:50Z</time>
      </trkpt>
      <trkpt lat="42.97808" lon="-0.24243">
        <ele>1512.6</ele>
        <time>2021-08-28T08:28:51Z</time>
      </trkpt>
      <trkpt lat="42.97811" lon="-0.24239">
        <ele>1512.6</ele>
        <time>2021-08-28T08:28:52Z</time>
      </trkpt>
      <trkpt lat="42.97818" lon="-0.24218">
        <ele>1512.8</ele>
        <time>2021-08-28T08:28:56Z</time>
      </trkpt>
      <trkpt lat="42.9782" lon="-0.24209">
        <ele>1513</ele>
        <time>2021-08-28T08:28:58Z</time>
      </trkpt>
      <trkpt lat="42.97821" lon="-0.24198">
        <ele>1513</ele>
        <time>2021-08-28T08:29:00Z</time>
      </trkpt>
      <trkpt lat="42.97822" lon="-0.24193">
        <ele>1513.2</ele>
        <time>2021-08-28T08:29:01Z</time>
      </trkpt>
      <trkpt lat="42.97824" lon="-0.24188">
        <ele>1513.2</ele>
        <time>2021-08-28T08:29:02Z</time>
      </trkpt>
      <trkpt lat="42.97826" lon="-0.24184">
        <ele>1513.4</ele>
        <time>2021-08-28T08:29:03Z</time>
      </trkpt>
      <trkpt lat="42.97829" lon="-0.24181">
        <ele>1513.4</ele>
        <time>2021-08-28T08:29:04Z</time>
      </trkpt>
      <trkpt lat="42.97832" lon="-0.24178">
        <ele>1513.6</ele>
        <time>2021-08-28T08:29:05Z</time>
      </trkpt>
      <trkpt lat="42.97835" lon="-0.24176">
        <ele>1513.8</ele>
        <time>2021-08-28T08:29:06Z</time>
      </trkpt>
      <trkpt lat="42.97838" lon="-0.24174">
        <ele>1513.8</ele>
        <time>2021-08-28T08:29:07Z</time>
      </trkpt>
      <trkpt lat="42.97841" lon="-0.24173">
        <ele>1514</ele>
        <time>2021-08-28T08:29:08Z</time>
      </trkpt>
      <trkpt lat="42.97844" lon="-0.24172">
        <ele>1514</ele>
        <time>2021-08-28T08:29:09Z</time>
      </trkpt>
      <trkpt lat="42.97847" lon="-0.24171">
        <ele>1514.2</ele>
        <time>2021-08-28T08:29:10Z</time>
      </trkpt>
      <trkpt lat="42.9785" lon="-0.2417">
        <ele>1514.2</ele>
        <time>2021-08-28T08:29:11Z</time>
      </trkpt>
      <trkpt lat="42.97852" lon="-0.24169">
        <ele>1514.4</ele>
        <time>2021-08-28T08:29:12Z</time>
      </trkpt>
      <trkpt lat="42.97854" lon="-0.24168">
        <ele>1514.4</ele>
        <time>2021-08-28T08:29:13Z</time>
      </trkpt>
      <trkpt lat="42.97857" lon="-0.24167">
        <ele>1514.8</ele>
        <time>2021-08-28T08:29:14Z</time>
      </trkpt>
      <trkpt lat="42.9786" lon="-0.24165">
        <ele>1515</ele>
        <time>2021-08-28T08:29:15Z</time>
      </trkpt>
      <trkpt lat="42.97862" lon="-0.24164">
        <ele>1515.2</ele>
        <time>2021-08-28T08:29:16Z</time>
      </trkpt>
      <trkpt lat="42.97865" lon="-0.24163">
        <ele>1515.2</ele>
        <time>2021-08-28T08:29:17Z</time>
      </trkpt>
      <trkpt lat="42.97867" lon="-0.24161">
        <ele>1515.4</ele>
        <time>2021-08-28T08:29:18Z</time>
      </trkpt>
      <trkpt lat="42.9787" lon="-0.2416">
        <ele>1515.4</ele>
        <time>2021-08-28T08:29:19Z</time>
      </trkpt>
      <trkpt lat="42.97873" lon="-0.2416">
        <ele>1515.6</ele>
        <time>2021-08-28T08:29:20Z</time>
      </trkpt>
      <trkpt lat="42.97875" lon="-0.24159">
        <ele>1515.8</ele>
        <time>2021-08-28T08:29:21Z</time>
      </trkpt>
      <trkpt lat="42.97878" lon="-0.24158">
        <ele>1516</ele>
        <time>2021-08-28T08:29:22Z</time>
      </trkpt>
      <trkpt lat="42.97881" lon="-0.24158">
        <ele>1516.2</ele>
        <time>2021-08-28T08:29:23Z</time>
      </trkpt>
      <trkpt lat="42.97884" lon="-0.24158">
        <ele>1516.4</ele>
        <time>2021-08-28T08:29:24Z</time>
      </trkpt>
      <trkpt lat="42.97887" lon="-0.24158">
        <ele>1516.6</ele>
        <time>2021-08-28T08:29:25Z</time>
      </trkpt>
      <trkpt lat="42.9789" lon="-0.24159">
        <ele>1516.6</ele>
        <time>2021-08-28T08:29:26Z</time>
      </trkpt>
      <trkpt lat="42.97893" lon="-0.2416">
        <ele>1517</ele>
        <time>2021-08-28T08:29:27Z</time>
      </trkpt>
      <trkpt lat="42.97896" lon="-0.2416">
        <ele>1517</ele>
        <time>2021-08-28T08:29:28Z</time>
      </trkpt>
      <trkpt lat="42.97898" lon="-0.24161">
        <ele>1517.2</ele>
        <time>2021-08-28T08:29:29Z</time>
      </trkpt>
      <trkpt lat="42.97902" lon="-0.24162">
        <ele>1517.2</ele>
        <time>2021-08-28T08:29:30Z</time>
      </trkpt>
      <trkpt lat="42.97905" lon="-0.24163">
        <ele>1517.2</ele>
        <time>2021-08-28T08:29:31Z</time>
      </trkpt>
      <trkpt lat="42.97909" lon="-0.24164">
        <ele>1517.4</ele>
        <time>2021-08-28T08:29:32Z</time>
      </trkpt>
      <trkpt lat="42.97912" lon="-0.24164">
        <ele>1517.4</ele>
        <time>2021-08-28T08:29:33Z</time>
      </trkpt>
      <trkpt lat="42.97916" lon="-0.24163">
        <ele>1517.4</ele>
        <time>2021-08-28T08:29:34Z</time>
      </trkpt>
      <trkpt lat="42.9792" lon="-0.24163">
        <ele>1517.4</ele>
        <time>2021-08-28T08:29:35Z</time>
      </trkpt>
      <trkpt lat="42.97924" lon="-0.24161">
        <ele>1517.4</ele>
        <time>2021-08-28T08:29:36Z</time>
      </trkpt>
      <trkpt lat="42.97927" lon="-0.2416">
        <ele>1517.4</ele>
        <time>2021-08-28T08:29:37Z</time>
      </trkpt>
      <trkpt lat="42.9793" lon="-0.24158">
        <ele>1517.6</ele>
        <time>2021-08-28T08:29:38Z</time>
      </trkpt>
      <trkpt lat="42.97933" lon="-0.24156">
        <ele>1517.6</ele>
        <time>2021-08-28T08:29:39Z</time>
      </trkpt>
      <trkpt lat="42.97936" lon="-0.24154">
        <ele>1517.6</ele>
        <time>2021-08-28T08:29:40Z</time>
      </trkpt>
      <trkpt lat="42.97938" lon="-0.24152">
        <ele>1517.8</ele>
        <time>2021-08-28T08:29:41Z</time>
      </trkpt>
      <trkpt lat="42.97941" lon="-0.2415">
        <ele>1517.8</ele>
        <time>2021-08-28T08:29:42Z</time>
      </trkpt>
      <trkpt lat="42.97944" lon="-0.24148">
        <ele>1518</ele>
        <time>2021-08-28T08:29:43Z</time>
      </trkpt>
      <trkpt lat="42.97947" lon="-0.24146">
        <ele>1518</ele>
        <time>2021-08-28T08:29:44Z</time>
      </trkpt>
      <trkpt lat="42.9795" lon="-0.24145">
        <ele>1518.2</ele>
        <time>2021-08-28T08:29:45Z</time>
      </trkpt>
      <trkpt lat="42.97953" lon="-0.24143">
        <ele>1518.6</ele>
        <time>2021-08-28T08:29:46Z</time>
      </trkpt>
      <trkpt lat="42.97957" lon="-0.24142">
        <ele>1518.6</ele>
        <time>2021-08-28T08:29:47Z</time>
      </trkpt>
      <trkpt lat="42.97959" lon="-0.24142">
        <ele>1518.8</ele>
        <time>2021-08-28T08:29:48Z</time>
      </trkpt>
      <trkpt lat="42.97963" lon="-0.24142">
        <ele>1518.8</ele>
        <time>2021-08-28T08:29:49Z</time>
      </trkpt>
      <trkpt lat="42.97967" lon="-0.24143">
        <ele>1519</ele>
        <time>2021-08-28T08:29:50Z</time>
      </trkpt>
      <trkpt lat="42.9797" lon="-0.24144">
        <ele>1519</ele>
        <time>2021-08-28T08:29:51Z</time>
      </trkpt>
      <trkpt lat="42.97973" lon="-0.24145">
        <ele>1519</ele>
        <time>2021-08-28T08:29:52Z</time>
      </trkpt>
      <trkpt lat="42.97977" lon="-0.24145">
        <ele>1519</ele>
        <time>2021-08-28T08:29:53Z</time>
      </trkpt>
      <trkpt lat="42.9798" lon="-0.24145">
        <ele>1519.2</ele>
        <time>2021-08-28T08:29:54Z</time>
      </trkpt>
      <trkpt lat="42.97984" lon="-0.24145">
        <ele>1519.2</ele>
        <time>2021-08-28T08:29:55Z</time>
      </trkpt>
      <trkpt lat="42.97987" lon="-0.24144">
        <ele>1519.2</ele>
        <time>2021-08-28T08:29:56Z</time>
      </trkpt>
      <trkpt lat="42.97991" lon="-0.24144">
        <ele>1519.2</ele>
        <time>2021-08-28T08:29:57Z</time>
      </trkpt>
      <trkpt lat="42.98003" lon="-0.24144">
        <ele>1519.6</ele>
        <time>2021-08-28T08:30:01Z</time>
      </trkpt>
      <trkpt lat="42.98006" lon="-0.24144">
        <ele>1519.8</ele>
        <time>2021-08-28T08:30:02Z</time>
      </trkpt>
      <trkpt lat="42.98008" lon="-0.24143">
        <ele>1519.8</ele>
        <time>2021-08-28T08:30:03Z</time>
      </trkpt>
      <trkpt lat="42.9801" lon="-0.24142">
        <ele>1520</ele>
        <time>2021-08-28T08:30:04Z</time>
      </trkpt>
      <trkpt lat="42.98013" lon="-0.24142">
        <ele>1520.2</ele>
        <time>2021-08-28T08:30:05Z</time>
      </trkpt>
      <trkpt lat="42.98018" lon="-0.24141">
        <ele>1520.6</ele>
        <time>2021-08-28T08:30:07Z</time>
      </trkpt>
      <trkpt lat="42.98033" lon="-0.24132">
        <ele>1521.2</ele>
        <time>2021-08-28T08:30:12Z</time>
      </trkpt>
      <trkpt lat="42.98035" lon="-0.24129">
        <ele>1521.2</ele>
        <time>2021-08-28T08:30:13Z</time>
      </trkpt>
      <trkpt lat="42.98037" lon="-0.24126">
        <ele>1521.2</ele>
        <time>2021-08-28T08:30:14Z</time>
      </trkpt>
      <trkpt lat="42.98039" lon="-0.24122">
        <ele>1521.4</ele>
        <time>2021-08-28T08:30:15Z</time>
      </trkpt>
      <trkpt lat="42.9804" lon="-0.24119">
        <ele>1521.4</ele>
        <time>2021-08-28T08:30:16Z</time>
      </trkpt>
      <trkpt lat="42.98043" lon="-0.24116">
        <ele>1521.6</ele>
        <time>2021-08-28T08:30:17Z</time>
      </trkpt>
      <trkpt lat="42.98045" lon="-0.24113">
        <ele>1521.6</ele>
        <time>2021-08-28T08:30:18Z</time>
      </trkpt>
      <trkpt lat="42.98047" lon="-0.24109">
        <ele>1521.6</ele>
        <time>2021-08-28T08:30:19Z</time>
      </trkpt>
      <trkpt lat="42.98049" lon="-0.24106">
        <ele>1521.6</ele>
        <time>2021-08-28T08:30:20Z</time>
      </trkpt>
      <trkpt lat="42.98052" lon="-0.24103">
        <ele>1521.6</ele>
        <time>2021-08-28T08:30:21Z</time>
      </trkpt>
      <trkpt lat="42.98056" lon="-0.24101">
        <ele>1521.6</ele>
        <time>2021-08-28T08:30:22Z</time>
      </trkpt>
      <trkpt lat="42.9806" lon="-0.24099">
        <ele>1521.8</ele>
        <time>2021-08-28T08:30:23Z</time>
      </trkpt>
      <trkpt lat="42.98064" lon="-0.24099">
        <ele>1521.8</ele>
        <time>2021-08-28T08:30:24Z</time>
      </trkpt>
      <trkpt lat="42.98068" lon="-0.24098">
        <ele>1521.8</ele>
        <time>2021-08-28T08:30:25Z</time>
      </trkpt>
      <trkpt lat="42.98077" lon="-0.24096">
        <ele>1521.6</ele>
        <time>2021-08-28T08:30:27Z</time>
      </trkpt>
      <trkpt lat="42.98081" lon="-0.24096">
        <ele>1521.6</ele>
        <time>2021-08-28T08:30:28Z</time>
      </trkpt>
      <trkpt lat="42.98085" lon="-0.24095">
        <ele>1521.4</ele>
        <time>2021-08-28T08:30:29Z</time>
      </trkpt>
      <trkpt lat="42.98089" lon="-0.24094">
        <ele>1521.4</ele>
        <time>2021-08-28T08:30:30Z</time>
      </trkpt>
      <trkpt lat="42.98096" lon="-0.24091">
        <ele>1521.2</ele>
        <time>2021-08-28T08:30:32Z</time>
      </trkpt>
      <trkpt lat="42.98099" lon="-0.24088">
        <ele>1521.2</ele>
        <time>2021-08-28T08:30:33Z</time>
      </trkpt>
      <trkpt lat="42.98101" lon="-0.24085">
        <ele>1521.2</ele>
        <time>2021-08-28T08:30:34Z</time>
      </trkpt>
      <trkpt lat="42.98102" lon="-0.24082">
        <ele>1521.2</ele>
        <time>2021-08-28T08:30:35Z</time>
      </trkpt>
      <trkpt lat="42.98103" lon="-0.24078">
        <ele>1521.2</ele>
        <time>2021-08-28T08:30:36Z</time>
      </trkpt>
      <trkpt lat="42.98104" lon="-0.24074">
        <ele>1521.2</ele>
        <time>2021-08-28T08:30:37Z</time>
      </trkpt>
      <trkpt lat="42.98105" lon="-0.2407">
        <ele>1521.2</ele>
        <time>2021-08-28T08:30:38Z</time>
      </trkpt>
      <trkpt lat="42.98107" lon="-0.24066">
        <ele>1521.2</ele>
        <time>2021-08-28T08:30:39Z</time>
      </trkpt>
      <trkpt lat="42.98124" lon="-0.24037">
        <ele>1522</ele>
        <time>2021-08-28T08:30:47Z</time>
      </trkpt>
      <trkpt lat="42.98134" lon="-0.24021">
        <ele>1522.2</ele>
        <time>2021-08-28T08:30:51Z</time>
      </trkpt>
      <trkpt lat="42.98141" lon="-0.2401">
        <ele>1522.4</ele>
        <time>2021-08-28T08:30:54Z</time>
      </trkpt>
      <trkpt lat="42.98148" lon="-0.24002">
        <ele>1522.8</ele>
        <time>2021-08-28T08:30:57Z</time>
      </trkpt>
      <trkpt lat="42.98151" lon="-0.24">
        <ele>1522.8</ele>
        <time>2021-08-28T08:30:58Z</time>
      </trkpt>
      <trkpt lat="42.98154" lon="-0.23998">
        <ele>1522.8</ele>
        <time>2021-08-28T08:30:59Z</time>
      </trkpt>
      <trkpt lat="42.98157" lon="-0.23996">
        <ele>1522.8</ele>
        <time>2021-08-28T08:31:00Z</time>
      </trkpt>
      <trkpt lat="42.9816" lon="-0.23996">
        <ele>1523</ele>
        <time>2021-08-28T08:31:01Z</time>
      </trkpt>
      <trkpt lat="42.98163" lon="-0.23996">
        <ele>1523</ele>
        <time>2021-08-28T08:31:02Z</time>
      </trkpt>
      <trkpt lat="42.98166" lon="-0.23998">
        <ele>1523</ele>
        <time>2021-08-28T08:31:03Z</time>
      </trkpt>
      <trkpt lat="42.98168" lon="-0.24">
        <ele>1523</ele>
        <time>2021-08-28T08:31:04Z</time>
      </trkpt>
      <trkpt lat="42.98169" lon="-0.24003">
        <ele>1523.2</ele>
        <time>2021-08-28T08:31:05Z</time>
      </trkpt>
      <trkpt lat="42.9817" lon="-0.24006">
        <ele>1523.4</ele>
        <time>2021-08-28T08:31:06Z</time>
      </trkpt>
      <trkpt lat="42.98171" lon="-0.24009">
        <ele>1523.6</ele>
        <time>2021-08-28T08:31:07Z</time>
      </trkpt>
      <trkpt lat="42.98172" lon="-0.24012">
        <ele>1524</ele>
        <time>2021-08-28T08:31:08Z</time>
      </trkpt>
      <trkpt lat="42.98173" lon="-0.24016">
        <ele>1524.2</ele>
        <time>2021-08-28T08:31:09Z</time>
      </trkpt>
      <trkpt lat="42.98174" lon="-0.24021">
        <ele>1524.2</ele>
        <time>2021-08-28T08:31:10Z</time>
      </trkpt>
      <trkpt lat="42.98176" lon="-0.24025">
        <ele>1524.4</ele>
        <time>2021-08-28T08:31:11Z</time>
      </trkpt>
      <trkpt lat="42.98179" lon="-0.24028">
        <ele>1524.4</ele>
        <time>2021-08-28T08:31:12Z</time>
      </trkpt>
      <trkpt lat="42.98182" lon="-0.2403">
        <ele>1524.6</ele>
        <time>2021-08-28T08:31:13Z</time>
      </trkpt>
      <trkpt lat="42.98185" lon="-0.24031">
        <ele>1524.6</ele>
        <time>2021-08-28T08:31:14Z</time>
      </trkpt>
      <trkpt lat="42.98188" lon="-0.24032">
        <ele>1524.8</ele>
        <time>2021-08-28T08:31:15Z</time>
      </trkpt>
      <trkpt lat="42.98191" lon="-0.24031">
        <ele>1524.8</ele>
        <time>2021-08-28T08:31:16Z</time>
      </trkpt>
      <trkpt lat="42.98194" lon="-0.2403">
        <ele>1524.8</ele>
        <time>2021-08-28T08:31:17Z</time>
      </trkpt>
      <trkpt lat="42.98197" lon="-0.24029">
        <ele>1524.8</ele>
        <time>2021-08-28T08:31:18Z</time>
      </trkpt>
      <trkpt lat="42.98199" lon="-0.24027">
        <ele>1524.8</ele>
        <time>2021-08-28T08:31:19Z</time>
      </trkpt>
      <trkpt lat="42.98202" lon="-0.24025">
        <ele>1524.8</ele>
        <time>2021-08-28T08:31:20Z</time>
      </trkpt>
      <trkpt lat="42.98205" lon="-0.24023">
        <ele>1524.8</ele>
        <time>2021-08-28T08:31:21Z</time>
      </trkpt>
      <trkpt lat="42.98207" lon="-0.2402">
        <ele>1524.8</ele>
        <time>2021-08-28T08:31:22Z</time>
      </trkpt>
      <trkpt lat="42.9822" lon="-0.24004">
        <ele>1525</ele>
        <time>2021-08-28T08:31:27Z</time>
      </trkpt>
      <trkpt lat="42.98234" lon="-0.23997">
        <ele>1525</ele>
        <time>2021-08-28T08:31:32Z</time>
      </trkpt>
      <trkpt lat="42.98237" lon="-0.23997">
        <ele>1525</ele>
        <time>2021-08-28T08:31:33Z</time>
      </trkpt>
      <trkpt lat="42.98241" lon="-0.23997">
        <ele>1525</ele>
        <time>2021-08-28T08:31:34Z</time>
      </trkpt>
      <trkpt lat="42.98243" lon="-0.23998">
        <ele>1525</ele>
        <time>2021-08-28T08:31:35Z</time>
      </trkpt>
      <trkpt lat="42.98246" lon="-0.23998">
        <ele>1525</ele>
        <time>2021-08-28T08:31:36Z</time>
      </trkpt>
      <trkpt lat="42.98249" lon="-0.23999">
        <ele>1525.2</ele>
        <time>2021-08-28T08:31:37Z</time>
      </trkpt>
      <trkpt lat="42.98252" lon="-0.23999">
        <ele>1525.2</ele>
        <time>2021-08-28T08:31:38Z</time>
      </trkpt>
      <trkpt lat="42.98254" lon="-0.24">
        <ele>1525.2</ele>
        <time>2021-08-28T08:31:39Z</time>
      </trkpt>
      <trkpt lat="42.98257" lon="-0.24">
        <ele>1525.4</ele>
        <time>2021-08-28T08:31:40Z</time>
      </trkpt>
      <trkpt lat="42.98259" lon="-0.24002">
        <ele>1525.6</ele>
        <time>2021-08-28T08:31:41Z</time>
      </trkpt>
      <trkpt lat="42.98262" lon="-0.24004">
        <ele>1526</ele>
        <time>2021-08-28T08:31:42Z</time>
      </trkpt>
      <trkpt lat="42.98263" lon="-0.24006">
        <ele>1526.2</ele>
        <time>2021-08-28T08:31:43Z</time>
      </trkpt>
      <trkpt lat="42.98264" lon="-0.24009">
        <ele>1526.4</ele>
        <time>2021-08-28T08:31:44Z</time>
      </trkpt>
      <trkpt lat="42.98265" lon="-0.24011">
        <ele>1526.6</ele>
        <time>2021-08-28T08:31:45Z</time>
      </trkpt>
      <trkpt lat="42.98266" lon="-0.24014">
        <ele>1526.8</ele>
        <time>2021-08-28T08:31:46Z</time>
      </trkpt>
      <trkpt lat="42.98266" lon="-0.24017">
        <ele>1527</ele>
        <time>2021-08-28T08:31:47Z</time>
      </trkpt>
      <trkpt lat="42.98266" lon="-0.2402">
        <ele>1527.2</ele>
        <time>2021-08-28T08:31:48Z</time>
      </trkpt>
      <trkpt lat="42.98267" lon="-0.24023">
        <ele>1527.2</ele>
        <time>2021-08-28T08:31:49Z</time>
      </trkpt>
      <trkpt lat="42.98268" lon="-0.24025">
        <ele>1527.4</ele>
        <time>2021-08-28T08:31:50Z</time>
      </trkpt>
      <trkpt lat="42.98268" lon="-0.24028">
        <ele>1527.4</ele>
        <time>2021-08-28T08:31:51Z</time>
      </trkpt>
      <trkpt lat="42.98268" lon="-0.24031">
        <ele>1527.8</ele>
        <time>2021-08-28T08:31:52Z</time>
      </trkpt>
      <trkpt lat="42.98268" lon="-0.24034">
        <ele>1527.8</ele>
        <time>2021-08-28T08:31:53Z</time>
      </trkpt>
      <trkpt lat="42.98268" lon="-0.24037">
        <ele>1528</ele>
        <time>2021-08-28T08:31:54Z</time>
      </trkpt>
      <trkpt lat="42.98269" lon="-0.2404">
        <ele>1528.4</ele>
        <time>2021-08-28T08:31:55Z</time>
      </trkpt>
      <trkpt lat="42.98269" lon="-0.24043">
        <ele>1528.6</ele>
        <time>2021-08-28T08:31:56Z</time>
      </trkpt>
      <trkpt lat="42.98269" lon="-0.24046">
        <ele>1528.8</ele>
        <time>2021-08-28T08:31:57Z</time>
      </trkpt>
      <trkpt lat="42.9827" lon="-0.24049">
        <ele>1529</ele>
        <time>2021-08-28T08:31:58Z</time>
      </trkpt>
      <trkpt lat="42.98271" lon="-0.24052">
        <ele>1529</ele>
        <time>2021-08-28T08:31:59Z</time>
      </trkpt>
      <trkpt lat="42.98271" lon="-0.24055">
        <ele>1529.2</ele>
        <time>2021-08-28T08:32:00Z</time>
      </trkpt>
      <trkpt lat="42.98271" lon="-0.24058">
        <ele>1529.2</ele>
        <time>2021-08-28T08:32:01Z</time>
      </trkpt>
      <trkpt lat="42.98272" lon="-0.24061">
        <ele>1529.4</ele>
        <time>2021-08-28T08:32:02Z</time>
      </trkpt>
      <trkpt lat="42.98272" lon="-0.24063">
        <ele>1529.6</ele>
        <time>2021-08-28T08:32:03Z</time>
      </trkpt>
      <trkpt lat="42.98273" lon="-0.24065">
        <ele>1529.6</ele>
        <time>2021-08-28T08:32:04Z</time>
      </trkpt>
      <trkpt lat="42.98273" lon="-0.24068">
        <ele>1529.8</ele>
        <time>2021-08-28T08:32:05Z</time>
      </trkpt>
      <trkpt lat="42.98273" lon="-0.24071">
        <ele>1529.8</ele>
        <time>2021-08-28T08:32:06Z</time>
      </trkpt>
      <trkpt lat="42.98274" lon="-0.24073">
        <ele>1530.2</ele>
        <time>2021-08-28T08:32:07Z</time>
      </trkpt>
      <trkpt lat="42.98274" lon="-0.24076">
        <ele>1530.4</ele>
        <time>2021-08-28T08:32:08Z</time>
      </trkpt>
      <trkpt lat="42.98275" lon="-0.24079">
        <ele>1530.8</ele>
        <time>2021-08-28T08:32:09Z</time>
      </trkpt>
      <trkpt lat="42.98276" lon="-0.24082">
        <ele>1531</ele>
        <time>2021-08-28T08:32:10Z</time>
      </trkpt>
      <trkpt lat="42.98277" lon="-0.24086">
        <ele>1531</ele>
        <time>2021-08-28T08:32:11Z</time>
      </trkpt>
      <trkpt lat="42.98277" lon="-0.24088">
        <ele>1531.2</ele>
        <time>2021-08-28T08:32:12Z</time>
      </trkpt>
      <trkpt lat="42.98277" lon="-0.24091">
        <ele>1531.2</ele>
        <time>2021-08-28T08:32:13Z</time>
      </trkpt>
      <trkpt lat="42.98278" lon="-0.24093">
        <ele>1531.4</ele>
        <time>2021-08-28T08:32:14Z</time>
      </trkpt>
      <trkpt lat="42.98278" lon="-0.24095">
        <ele>1531.6</ele>
        <time>2021-08-28T08:32:15Z</time>
      </trkpt>
      <trkpt lat="42.98279" lon="-0.24097">
        <ele>1531.6</ele>
        <time>2021-08-28T08:32:16Z</time>
      </trkpt>
      <trkpt lat="42.98279" lon="-0.24099">
        <ele>1531.8</ele>
        <time>2021-08-28T08:32:17Z</time>
      </trkpt>
      <trkpt lat="42.98279" lon="-0.24101">
        <ele>1532</ele>
        <time>2021-08-28T08:32:18Z</time>
      </trkpt>
      <trkpt lat="42.9828" lon="-0.24103">
        <ele>1532</ele>
        <time>2021-08-28T08:32:19Z</time>
      </trkpt>
      <trkpt lat="42.9828" lon="-0.24105">
        <ele>1532.2</ele>
        <time>2021-08-28T08:32:20Z</time>
      </trkpt>
      <trkpt lat="42.98281" lon="-0.24107">
        <ele>1532.4</ele>
        <time>2021-08-28T08:32:21Z</time>
      </trkpt>
      <trkpt lat="42.98281" lon="-0.2411">
        <ele>1532.4</ele>
        <time>2021-08-28T08:32:22Z</time>
      </trkpt>
      <trkpt lat="42.98282" lon="-0.24112">
        <ele>1532.4</ele>
        <time>2021-08-28T08:32:23Z</time>
      </trkpt>
      <trkpt lat="42.98282" lon="-0.24115">
        <ele>1532.6</ele>
        <time>2021-08-28T08:32:24Z</time>
      </trkpt>
      <trkpt lat="42.98281" lon="-0.24118">
        <ele>1532.6</ele>
        <time>2021-08-28T08:32:25Z</time>
      </trkpt>
      <trkpt lat="42.9828" lon="-0.24122">
        <ele>1532.6</ele>
        <time>2021-08-28T08:32:26Z</time>
      </trkpt>
      <trkpt lat="42.98279" lon="-0.24127">
        <ele>1532.6</ele>
        <time>2021-08-28T08:32:27Z</time>
      </trkpt>
      <trkpt lat="42.98277" lon="-0.24132">
        <ele>1532.6</ele>
        <time>2021-08-28T08:32:28Z</time>
      </trkpt>
      <trkpt lat="42.98275" lon="-0.24137">
        <ele>1532.4</ele>
        <time>2021-08-28T08:32:29Z</time>
      </trkpt>
      <trkpt lat="42.98273" lon="-0.24141">
        <ele>1532.2</ele>
        <time>2021-08-28T08:32:30Z</time>
      </trkpt>
      <trkpt lat="42.9827" lon="-0.24146">
        <ele>1532</ele>
        <time>2021-08-28T08:32:31Z</time>
      </trkpt>
      <trkpt lat="42.98267" lon="-0.24151">
        <ele>1531.8</ele>
        <time>2021-08-28T08:32:32Z</time>
      </trkpt>
      <trkpt lat="42.98264" lon="-0.24157">
        <ele>1531.6</ele>
        <time>2021-08-28T08:32:33Z</time>
      </trkpt>
      <trkpt lat="42.98257" lon="-0.24176">
        <ele>1530.8</ele>
        <time>2021-08-28T08:32:36Z</time>
      </trkpt>
      <trkpt lat="42.98247" lon="-0.242">
        <ele>1529.4</ele>
        <time>2021-08-28T08:32:39Z</time>
      </trkpt>
      <trkpt lat="42.98241" lon="-0.24219">
        <ele>1528.2</ele>
        <time>2021-08-28T08:32:41Z</time>
      </trkpt>
      <trkpt lat="42.98236" lon="-0.24239">
        <ele>1527.6</ele>
        <time>2021-08-28T08:32:43Z</time>
      </trkpt>
      <trkpt lat="42.98232" lon="-0.24257">
        <ele>1526.6</ele>
        <time>2021-08-28T08:32:45Z</time>
      </trkpt>
      <trkpt lat="42.98228" lon="-0.24272">
        <ele>1525.8</ele>
        <time>2021-08-28T08:32:47Z</time>
      </trkpt>
      <trkpt lat="42.98225" lon="-0.2428">
        <ele>1524.8</ele>
        <time>2021-08-28T08:32:48Z</time>
      </trkpt>
      <trkpt lat="42.98222" lon="-0.24288">
        <ele>1524.4</ele>
        <time>2021-08-28T08:32:49Z</time>
      </trkpt>
      <trkpt lat="42.98217" lon="-0.24295">
        <ele>1523.6</ele>
        <time>2021-08-28T08:32:50Z</time>
      </trkpt>
      <trkpt lat="42.98212" lon="-0.24302">
        <ele>1523.4</ele>
        <time>2021-08-28T08:32:51Z</time>
      </trkpt>
      <trkpt lat="42.982" lon="-0.24314">
        <ele>1522.4</ele>
        <time>2021-08-28T08:32:53Z</time>
      </trkpt>
      <trkpt lat="42.98187" lon="-0.24325">
        <ele>1521.4</ele>
        <time>2021-08-28T08:32:55Z</time>
      </trkpt>
      <trkpt lat="42.9818" lon="-0.24331">
        <ele>1520.8</ele>
        <time>2021-08-28T08:32:56Z</time>
      </trkpt>
      <trkpt lat="42.98172" lon="-0.24339">
        <ele>1520.6</ele>
        <time>2021-08-28T08:32:57Z</time>
      </trkpt>
      <trkpt lat="42.98166" lon="-0.24348">
        <ele>1520.2</ele>
        <time>2021-08-28T08:32:58Z</time>
      </trkpt>
      <trkpt lat="42.98161" lon="-0.24354">
        <ele>1520</ele>
        <time>2021-08-28T08:32:59Z</time>
      </trkpt>
      <trkpt lat="42.98156" lon="-0.24362">
        <ele>1519.8</ele>
        <time>2021-08-28T08:33:00Z</time>
      </trkpt>
      <trkpt lat="42.98151" lon="-0.24369">
        <ele>1519.4</ele>
        <time>2021-08-28T08:33:01Z</time>
      </trkpt>
      <trkpt lat="42.98146" lon="-0.24379">
        <ele>1519</ele>
        <time>2021-08-28T08:33:02Z</time>
      </trkpt>
      <trkpt lat="42.98145" lon="-0.24386">
        <ele>1518.2</ele>
        <time>2021-08-28T08:33:03Z</time>
      </trkpt>
      <trkpt lat="42.98144" lon="-0.24396">
        <ele>1517.2</ele>
        <time>2021-08-28T08:33:04Z</time>
      </trkpt>
      <trkpt lat="42.98144" lon="-0.24403">
        <ele>1516.2</ele>
        <time>2021-08-28T08:33:05Z</time>
      </trkpt>
      <trkpt lat="42.98143" lon="-0.24411">
        <ele>1515.8</ele>
        <time>2021-08-28T08:33:06Z</time>
      </trkpt>
      <trkpt lat="42.98142" lon="-0.24419">
        <ele>1515.6</ele>
        <time>2021-08-28T08:33:07Z</time>
      </trkpt>
      <trkpt lat="42.98139" lon="-0.24425">
        <ele>1515.4</ele>
        <time>2021-08-28T08:33:08Z</time>
      </trkpt>
      <trkpt lat="42.98135" lon="-0.2443">
        <ele>1514.4</ele>
        <time>2021-08-28T08:33:09Z</time>
      </trkpt>
      <trkpt lat="42.9813" lon="-0.24434">
        <ele>1514</ele>
        <time>2021-08-28T08:33:10Z</time>
      </trkpt>
      <trkpt lat="42.98124" lon="-0.24437">
        <ele>1513.6</ele>
        <time>2021-08-28T08:33:11Z</time>
      </trkpt>
      <trkpt lat="42.98117" lon="-0.24441">
        <ele>1513.4</ele>
        <time>2021-08-28T08:33:12Z</time>
      </trkpt>
      <trkpt lat="42.9811" lon="-0.24444">
        <ele>1512.6</ele>
        <time>2021-08-28T08:33:13Z</time>
      </trkpt>
      <trkpt lat="42.98095" lon="-0.24451">
        <ele>1511.4</ele>
        <time>2021-08-28T08:33:15Z</time>
      </trkpt>
      <trkpt lat="42.98088" lon="-0.24456">
        <ele>1511</ele>
        <time>2021-08-28T08:33:16Z</time>
      </trkpt>
      <trkpt lat="42.98074" lon="-0.24465">
        <ele>1510.2</ele>
        <time>2021-08-28T08:33:18Z</time>
      </trkpt>
      <trkpt lat="42.98068" lon="-0.24471">
        <ele>1509.8</ele>
        <time>2021-08-28T08:33:19Z</time>
      </trkpt>
      <trkpt lat="42.98064" lon="-0.24476">
        <ele>1509.6</ele>
        <time>2021-08-28T08:33:20Z</time>
      </trkpt>
      <trkpt lat="42.9806" lon="-0.24483">
        <ele>1508.8</ele>
        <time>2021-08-28T08:33:21Z</time>
      </trkpt>
      <trkpt lat="42.98058" lon="-0.24493">
        <ele>1508.4</ele>
        <time>2021-08-28T08:33:22Z</time>
      </trkpt>
      <trkpt lat="42.98058" lon="-0.24501">
        <ele>1507.8</ele>
        <time>2021-08-28T08:33:23Z</time>
      </trkpt>
      <trkpt lat="42.98065" lon="-0.24528">
        <ele>1506.6</ele>
        <time>2021-08-28T08:33:26Z</time>
      </trkpt>
      <trkpt lat="42.98066" lon="-0.24535">
        <ele>1506</ele>
        <time>2021-08-28T08:33:27Z</time>
      </trkpt>
      <trkpt lat="42.98066" lon="-0.24543">
        <ele>1505.2</ele>
        <time>2021-08-28T08:33:28Z</time>
      </trkpt>
      <trkpt lat="42.98064" lon="-0.24553">
        <ele>1505</ele>
        <time>2021-08-28T08:33:29Z</time>
      </trkpt>
      <trkpt lat="42.98061" lon="-0.2456">
        <ele>1504.6</ele>
        <time>2021-08-28T08:33:30Z</time>
      </trkpt>
      <trkpt lat="42.98058" lon="-0.24567">
        <ele>1504.4</ele>
        <time>2021-08-28T08:33:31Z</time>
      </trkpt>
      <trkpt lat="42.98055" lon="-0.24575">
        <ele>1503.6</ele>
        <time>2021-08-28T08:33:32Z</time>
      </trkpt>
      <trkpt lat="42.9805" lon="-0.24594">
        <ele>1502.6</ele>
        <time>2021-08-28T08:33:34Z</time>
      </trkpt>
      <trkpt lat="42.98048" lon="-0.24603">
        <ele>1502</ele>
        <time>2021-08-28T08:33:35Z</time>
      </trkpt>
      <trkpt lat="42.98047" lon="-0.24615">
        <ele>1501.2</ele>
        <time>2021-08-28T08:33:36Z</time>
      </trkpt>
      <trkpt lat="42.98048" lon="-0.24622">
        <ele>1501</ele>
        <time>2021-08-28T08:33:37Z</time>
      </trkpt>
      <trkpt lat="42.98048" lon="-0.2463">
        <ele>1500.6</ele>
        <time>2021-08-28T08:33:38Z</time>
      </trkpt>
      <trkpt lat="42.98049" lon="-0.24639">
        <ele>1500.4</ele>
        <time>2021-08-28T08:33:39Z</time>
      </trkpt>
      <trkpt lat="42.98049" lon="-0.24647">
        <ele>1500</ele>
        <time>2021-08-28T08:33:40Z</time>
      </trkpt>
      <trkpt lat="42.9805" lon="-0.24656">
        <ele>1499.6</ele>
        <time>2021-08-28T08:33:41Z</time>
      </trkpt>
      <trkpt lat="42.98053" lon="-0.24672">
        <ele>1499</ele>
        <time>2021-08-28T08:33:43Z</time>
      </trkpt>
      <trkpt lat="42.98054" lon="-0.24681">
        <ele>1498.8</ele>
        <time>2021-08-28T08:33:44Z</time>
      </trkpt>
      <trkpt lat="42.98055" lon="-0.24689">
        <ele>1498.2</ele>
        <time>2021-08-28T08:33:45Z</time>
      </trkpt>
      <trkpt lat="42.98056" lon="-0.24698">
        <ele>1497.8</ele>
        <time>2021-08-28T08:33:46Z</time>
      </trkpt>
      <trkpt lat="42.98057" lon="-0.24703">
        <ele>1497</ele>
        <time>2021-08-28T08:33:47Z</time>
      </trkpt>
      <trkpt lat="42.9806" lon="-0.24706">
        <ele>1496.8</ele>
        <time>2021-08-28T08:33:48Z</time>
      </trkpt>
      <trkpt lat="42.98063" lon="-0.24707">
        <ele>1495.8</ele>
        <time>2021-08-28T08:33:49Z</time>
      </trkpt>
      <trkpt lat="42.98065" lon="-0.24704">
        <ele>1495.4</ele>
        <time>2021-08-28T08:33:50Z</time>
      </trkpt>
      <trkpt lat="42.98065" lon="-0.24699">
        <ele>1494.4</ele>
        <time>2021-08-28T08:33:51Z</time>
      </trkpt>
      <trkpt lat="42.98066" lon="-0.24693">
        <ele>1494</ele>
        <time>2021-08-28T08:33:52Z</time>
      </trkpt>
      <trkpt lat="42.98066" lon="-0.24687">
        <ele>1493.6</ele>
        <time>2021-08-28T08:33:53Z</time>
      </trkpt>
      <trkpt lat="42.98066" lon="-0.24681">
        <ele>1493.2</ele>
        <time>2021-08-28T08:33:54Z</time>
      </trkpt>
      <trkpt lat="42.98066" lon="-0.24675">
        <ele>1492.6</ele>
        <time>2021-08-28T08:33:55Z</time>
      </trkpt>
      <trkpt lat="42.98067" lon="-0.24664">
        <ele>1491.2</ele>
        <time>2021-08-28T08:33:57Z</time>
      </trkpt>
      <trkpt lat="42.98068" lon="-0.24653">
        <ele>1490</ele>
        <time>2021-08-28T08:33:59Z</time>
      </trkpt>
      <trkpt lat="42.98068" lon="-0.24649">
        <ele>1489.4</ele>
        <time>2021-08-28T08:34:00Z</time>
      </trkpt>
      <trkpt lat="42.98068" lon="-0.24643">
        <ele>1489.2</ele>
        <time>2021-08-28T08:34:01Z</time>
      </trkpt>
      <trkpt lat="42.98069" lon="-0.24639">
        <ele>1488.4</ele>
        <time>2021-08-28T08:34:02Z</time>
      </trkpt>
      <trkpt lat="42.98069" lon="-0.24636">
        <ele>1488.2</ele>
        <time>2021-08-28T08:34:03Z</time>
      </trkpt>
      <trkpt lat="42.9807" lon="-0.24632">
        <ele>1487.6</ele>
        <time>2021-08-28T08:34:04Z</time>
      </trkpt>
      <trkpt lat="42.98072" lon="-0.24627">
        <ele>1487.4</ele>
        <time>2021-08-28T08:34:05Z</time>
      </trkpt>
      <trkpt lat="42.98078" lon="-0.24612">
        <ele>1486</ele>
        <time>2021-08-28T08:34:09Z</time>
      </trkpt>
      <trkpt lat="42.98082" lon="-0.24604">
        <ele>1485.4</ele>
        <time>2021-08-28T08:34:11Z</time>
      </trkpt>
      <trkpt lat="42.98085" lon="-0.24599">
        <ele>1485</ele>
        <time>2021-08-28T08:34:13Z</time>
      </trkpt>
      <trkpt lat="42.98096" lon="-0.2458">
        <ele>1483.8</ele>
        <time>2021-08-28T08:34:18Z</time>
      </trkpt>
      <trkpt lat="42.98101" lon="-0.24572">
        <ele>1483.6</ele>
        <time>2021-08-28T08:34:20Z</time>
      </trkpt>
      <trkpt lat="42.98118" lon="-0.24544">
        <ele>1482.8</ele>
        <time>2021-08-28T08:34:25Z</time>
      </trkpt>
      <trkpt lat="42.98133" lon="-0.24523">
        <ele>1482.4</ele>
        <time>2021-08-28T08:34:28Z</time>
      </trkpt>
      <trkpt lat="42.98137" lon="-0.24519">
        <ele>1482</ele>
        <time>2021-08-28T08:34:29Z</time>
      </trkpt>
      <trkpt lat="42.98142" lon="-0.24514">
        <ele>1481.8</ele>
        <time>2021-08-28T08:34:30Z</time>
      </trkpt>
      <trkpt lat="42.98147" lon="-0.24508">
        <ele>1481.4</ele>
        <time>2021-08-28T08:34:31Z</time>
      </trkpt>
      <trkpt lat="42.98152" lon="-0.24505">
        <ele>1480.8</ele>
        <time>2021-08-28T08:34:32Z</time>
      </trkpt>
      <trkpt lat="42.98157" lon="-0.24502">
        <ele>1479.8</ele>
        <time>2021-08-28T08:34:33Z</time>
      </trkpt>
      <trkpt lat="42.98163" lon="-0.24499">
        <ele>1479.2</ele>
        <time>2021-08-28T08:34:34Z</time>
      </trkpt>
      <trkpt lat="42.98169" lon="-0.24497">
        <ele>1478.6</ele>
        <time>2021-08-28T08:34:35Z</time>
      </trkpt>
      <trkpt lat="42.9818" lon="-0.24491">
        <ele>1477.8</ele>
        <time>2021-08-28T08:34:37Z</time>
      </trkpt>
      <trkpt lat="42.98186" lon="-0.24488">
        <ele>1477.4</ele>
        <time>2021-08-28T08:34:38Z</time>
      </trkpt>
      <trkpt lat="42.98192" lon="-0.24484">
        <ele>1477.2</ele>
        <time>2021-08-28T08:34:39Z</time>
      </trkpt>
      <trkpt lat="42.98198" lon="-0.2448">
        <ele>1476.8</ele>
        <time>2021-08-28T08:34:40Z</time>
      </trkpt>
      <trkpt lat="42.98211" lon="-0.24474">
        <ele>1476</ele>
        <time>2021-08-28T08:34:42Z</time>
      </trkpt>
      <trkpt lat="42.98219" lon="-0.24473">
        <ele>1475.6</ele>
        <time>2021-08-28T08:34:43Z</time>
      </trkpt>
      <trkpt lat="42.98234" lon="-0.24472">
        <ele>1475.2</ele>
        <time>2021-08-28T08:34:45Z</time>
      </trkpt>
      <trkpt lat="42.98241" lon="-0.24472">
        <ele>1474.8</ele>
        <time>2021-08-28T08:34:46Z</time>
      </trkpt>
      <trkpt lat="42.98249" lon="-0.2447">
        <ele>1474.6</ele>
        <time>2021-08-28T08:34:47Z</time>
      </trkpt>
      <trkpt lat="42.98253" lon="-0.24465">
        <ele>1474</ele>
        <time>2021-08-28T08:34:48Z</time>
      </trkpt>
      <trkpt lat="42.98258" lon="-0.24459">
        <ele>1473.8</ele>
        <time>2021-08-28T08:34:49Z</time>
      </trkpt>
      <trkpt lat="42.98264" lon="-0.24452">
        <ele>1473.2</ele>
        <time>2021-08-28T08:34:50Z</time>
      </trkpt>
      <trkpt lat="42.98269" lon="-0.24443">
        <ele>1473</ele>
        <time>2021-08-28T08:34:51Z</time>
      </trkpt>
      <trkpt lat="42.98272" lon="-0.24438">
        <ele>1472.2</ele>
        <time>2021-08-28T08:34:52Z</time>
      </trkpt>
      <trkpt lat="42.98275" lon="-0.2443">
        <ele>1471.8</ele>
        <time>2021-08-28T08:34:53Z</time>
      </trkpt>
      <trkpt lat="42.98279" lon="-0.24424">
        <ele>1471.2</ele>
        <time>2021-08-28T08:34:54Z</time>
      </trkpt>
      <trkpt lat="42.98284" lon="-0.2442">
        <ele>1470.8</ele>
        <time>2021-08-28T08:34:55Z</time>
      </trkpt>
      <trkpt lat="42.98289" lon="-0.24418">
        <ele>1470.6</ele>
        <time>2021-08-28T08:34:56Z</time>
      </trkpt>
      <trkpt lat="42.98294" lon="-0.24419">
        <ele>1470.6</ele>
        <time>2021-08-28T08:34:57Z</time>
      </trkpt>
      <trkpt lat="42.983" lon="-0.24421">
        <ele>1470.4</ele>
        <time>2021-08-28T08:34:58Z</time>
      </trkpt>
      <trkpt lat="42.98304" lon="-0.24426">
        <ele>1470.2</ele>
        <time>2021-08-28T08:34:59Z</time>
      </trkpt>
      <trkpt lat="42.98308" lon="-0.24431">
        <ele>1470</ele>
        <time>2021-08-28T08:35:00Z</time>
      </trkpt>
      <trkpt lat="42.98311" lon="-0.24435">
        <ele>1469.4</ele>
        <time>2021-08-28T08:35:01Z</time>
      </trkpt>
      <trkpt lat="42.98314" lon="-0.24439">
        <ele>1469.2</ele>
        <time>2021-08-28T08:35:02Z</time>
      </trkpt>
      <trkpt lat="42.98317" lon="-0.24443">
        <ele>1468.6</ele>
        <time>2021-08-28T08:35:03Z</time>
      </trkpt>
      <trkpt lat="42.9832" lon="-0.24445">
        <ele>1468.4</ele>
        <time>2021-08-28T08:35:04Z</time>
      </trkpt>
      <trkpt lat="42.98323" lon="-0.24447">
        <ele>1468.2</ele>
        <time>2021-08-28T08:35:05Z</time>
      </trkpt>
      <trkpt lat="42.98327" lon="-0.24448">
        <ele>1468.2</ele>
        <time>2021-08-28T08:35:06Z</time>
      </trkpt>
      <trkpt lat="42.98331" lon="-0.24449">
        <ele>1468.2</ele>
        <time>2021-08-28T08:35:07Z</time>
      </trkpt>
      <trkpt lat="42.98336" lon="-0.24449">
        <ele>1468</ele>
        <time>2021-08-28T08:35:08Z</time>
      </trkpt>
      <trkpt lat="42.98351" lon="-0.24447">
        <ele>1467.8</ele>
        <time>2021-08-28T08:35:11Z</time>
      </trkpt>
      <trkpt lat="42.98361" lon="-0.24447">
        <ele>1467.6</ele>
        <time>2021-08-28T08:35:13Z</time>
      </trkpt>
      <trkpt lat="42.98377" lon="-0.24452">
        <ele>1467.4</ele>
        <time>2021-08-28T08:35:16Z</time>
      </trkpt>
      <trkpt lat="42.98392" lon="-0.24456">
        <ele>1467</ele>
        <time>2021-08-28T08:35:19Z</time>
      </trkpt>
      <trkpt lat="42.98402" lon="-0.24461">
        <ele>1466.8</ele>
        <time>2021-08-28T08:35:21Z</time>
      </trkpt>
      <trkpt lat="42.98407" lon="-0.24463">
        <ele>1466.6</ele>
        <time>2021-08-28T08:35:22Z</time>
      </trkpt>
      <trkpt lat="42.98429" lon="-0.24474">
        <ele>1465.8</ele>
        <time>2021-08-28T08:35:26Z</time>
      </trkpt>
      <trkpt lat="42.98439" lon="-0.24482">
        <ele>1465.4</ele>
        <time>2021-08-28T08:35:28Z</time>
      </trkpt>
      <trkpt lat="42.98453" lon="-0.24496">
        <ele>1464.8</ele>
        <time>2021-08-28T08:35:31Z</time>
      </trkpt>
      <trkpt lat="42.98463" lon="-0.24506">
        <ele>1464.4</ele>
        <time>2021-08-28T08:35:33Z</time>
      </trkpt>
      <trkpt lat="42.98476" lon="-0.24519">
        <ele>1463.8</ele>
        <time>2021-08-28T08:35:36Z</time>
      </trkpt>
      <trkpt lat="42.9848" lon="-0.24523">
        <ele>1463.6</ele>
        <time>2021-08-28T08:35:37Z</time>
      </trkpt>
      <trkpt lat="42.98484" lon="-0.24527">
        <ele>1463.4</ele>
        <time>2021-08-28T08:35:38Z</time>
      </trkpt>
      <trkpt lat="42.98487" lon="-0.24531">
        <ele>1463</ele>
        <time>2021-08-28T08:35:39Z</time>
      </trkpt>
      <trkpt lat="42.9849" lon="-0.24535">
        <ele>1462.8</ele>
        <time>2021-08-28T08:35:40Z</time>
      </trkpt>
      <trkpt lat="42.98494" lon="-0.24539">
        <ele>1462.6</ele>
        <time>2021-08-28T08:35:41Z</time>
      </trkpt>
      <trkpt lat="42.98497" lon="-0.24544">
        <ele>1462.6</ele>
        <time>2021-08-28T08:35:42Z</time>
      </trkpt>
      <trkpt lat="42.985" lon="-0.24548">
        <ele>1462.2</ele>
        <time>2021-08-28T08:35:43Z</time>
      </trkpt>
      <trkpt lat="42.98506" lon="-0.24557">
        <ele>1461.8</ele>
        <time>2021-08-28T08:35:45Z</time>
      </trkpt>
      <trkpt lat="42.98509" lon="-0.24561">
        <ele>1461.4</ele>
        <time>2021-08-28T08:35:46Z</time>
      </trkpt>
      <trkpt lat="42.98511" lon="-0.24565">
        <ele>1460.4</ele>
        <time>2021-08-28T08:35:47Z</time>
      </trkpt>
      <trkpt lat="42.98517" lon="-0.24574">
        <ele>1459.4</ele>
        <time>2021-08-28T08:35:49Z</time>
      </trkpt>
      <trkpt lat="42.98522" lon="-0.24584">
        <ele>1458.4</ele>
        <time>2021-08-28T08:35:51Z</time>
      </trkpt>
      <trkpt lat="42.98526" lon="-0.24589">
        <ele>1457.8</ele>
        <time>2021-08-28T08:35:52Z</time>
      </trkpt>
      <trkpt lat="42.9853" lon="-0.24594">
        <ele>1457.4</ele>
        <time>2021-08-28T08:35:53Z</time>
      </trkpt>
      <trkpt lat="42.98541" lon="-0.24602">
        <ele>1456.6</ele>
        <time>2021-08-28T08:35:55Z</time>
      </trkpt>
      <trkpt lat="42.98548" lon="-0.24605">
        <ele>1456</ele>
        <time>2021-08-28T08:35:56Z</time>
      </trkpt>
      <trkpt lat="42.98555" lon="-0.24606">
        <ele>1455.8</ele>
        <time>2021-08-28T08:35:57Z</time>
      </trkpt>
      <trkpt lat="42.98562" lon="-0.24606">
        <ele>1455.2</ele>
        <time>2021-08-28T08:35:58Z</time>
      </trkpt>
      <trkpt lat="42.98576" lon="-0.24605">
        <ele>1454.4</ele>
        <time>2021-08-28T08:36:00Z</time>
      </trkpt>
      <trkpt lat="42.98583" lon="-0.24603">
        <ele>1454.2</ele>
        <time>2021-08-28T08:36:01Z</time>
      </trkpt>
      <trkpt lat="42.98589" lon="-0.24601">
        <ele>1453.8</ele>
        <time>2021-08-28T08:36:02Z</time>
      </trkpt>
      <trkpt lat="42.98595" lon="-0.246">
        <ele>1453.4</ele>
        <time>2021-08-28T08:36:03Z</time>
      </trkpt>
      <trkpt lat="42.98601" lon="-0.24598">
        <ele>1453</ele>
        <time>2021-08-28T08:36:04Z</time>
      </trkpt>
      <trkpt lat="42.98607" lon="-0.24596">
        <ele>1453</ele>
        <time>2021-08-28T08:36:05Z</time>
      </trkpt>
      <trkpt lat="42.98613" lon="-0.24593">
        <ele>1452.6</ele>
        <time>2021-08-28T08:36:06Z</time>
      </trkpt>
      <trkpt lat="42.98619" lon="-0.2459">
        <ele>1452.4</ele>
        <time>2021-08-28T08:36:07Z</time>
      </trkpt>
      <trkpt lat="42.98624" lon="-0.24586">
        <ele>1451.8</ele>
        <time>2021-08-28T08:36:08Z</time>
      </trkpt>
      <trkpt lat="42.98628" lon="-0.2458">
        <ele>1451.4</ele>
        <time>2021-08-28T08:36:09Z</time>
      </trkpt>
      <trkpt lat="42.9863" lon="-0.24574">
        <ele>1451.2</ele>
        <time>2021-08-28T08:36:10Z</time>
      </trkpt>
      <trkpt lat="42.98632" lon="-0.24566">
        <ele>1450.8</ele>
        <time>2021-08-28T08:36:11Z</time>
      </trkpt>
      <trkpt lat="42.98633" lon="-0.24557">
        <ele>1450.6</ele>
        <time>2021-08-28T08:36:12Z</time>
      </trkpt>
      <trkpt lat="42.98634" lon="-0.24548">
        <ele>1450.2</ele>
        <time>2021-08-28T08:36:13Z</time>
      </trkpt>
      <trkpt lat="42.98633" lon="-0.24539">
        <ele>1450</ele>
        <time>2021-08-28T08:36:14Z</time>
      </trkpt>
      <trkpt lat="42.98632" lon="-0.2453">
        <ele>1449</ele>
        <time>2021-08-28T08:36:15Z</time>
      </trkpt>
      <trkpt lat="42.9863" lon="-0.2452">
        <ele>1448.4</ele>
        <time>2021-08-28T08:36:16Z</time>
      </trkpt>
      <trkpt lat="42.98629" lon="-0.24511">
        <ele>1447.6</ele>
        <time>2021-08-28T08:36:17Z</time>
      </trkpt>
      <trkpt lat="42.98625" lon="-0.2447">
        <ele>1446.2</ele>
        <time>2021-08-28T08:36:21Z</time>
      </trkpt>
      <trkpt lat="42.98624" lon="-0.24458">
        <ele>1445.8</ele>
        <time>2021-08-28T08:36:22Z</time>
      </trkpt>
      <trkpt lat="42.98622" lon="-0.24437">
        <ele>1445.2</ele>
        <time>2021-08-28T08:36:24Z</time>
      </trkpt>
      <trkpt lat="42.98621" lon="-0.24429">
        <ele>1444.8</ele>
        <time>2021-08-28T08:36:25Z</time>
      </trkpt>
      <trkpt lat="42.98621" lon="-0.24407">
        <ele>1444.4</ele>
        <time>2021-08-28T08:36:27Z</time>
      </trkpt>
      <trkpt lat="42.9862" lon="-0.24398">
        <ele>1444</ele>
        <time>2021-08-28T08:36:28Z</time>
      </trkpt>
      <trkpt lat="42.9862" lon="-0.24388">
        <ele>1443.8</ele>
        <time>2021-08-28T08:36:29Z</time>
      </trkpt>
      <trkpt lat="42.9862" lon="-0.2438">
        <ele>1443.6</ele>
        <time>2021-08-28T08:36:30Z</time>
      </trkpt>
      <trkpt lat="42.98621" lon="-0.24371">
        <ele>1443.4</ele>
        <time>2021-08-28T08:36:31Z</time>
      </trkpt>
      <trkpt lat="42.98622" lon="-0.24363">
        <ele>1443</ele>
        <time>2021-08-28T08:36:32Z</time>
      </trkpt>
      <trkpt lat="42.98622" lon="-0.24357">
        <ele>1443</ele>
        <time>2021-08-28T08:36:33Z</time>
      </trkpt>
      <trkpt lat="42.98621" lon="-0.2435">
        <ele>1443</ele>
        <time>2021-08-28T08:36:34Z</time>
      </trkpt>
      <trkpt lat="42.9862" lon="-0.24344">
        <ele>1443</ele>
        <time>2021-08-28T08:36:35Z</time>
      </trkpt>
      <trkpt lat="42.98619" lon="-0.24336">
        <ele>1442.8</ele>
        <time>2021-08-28T08:36:36Z</time>
      </trkpt>
      <trkpt lat="42.98619" lon="-0.24331">
        <ele>1442.8</ele>
        <time>2021-08-28T08:36:37Z</time>
      </trkpt>
      <trkpt lat="42.9862" lon="-0.24325">
        <ele>1442.8</ele>
        <time>2021-08-28T08:36:38Z</time>
      </trkpt>
      <trkpt lat="42.9862" lon="-0.2432">
        <ele>1442.8</ele>
        <time>2021-08-28T08:36:39Z</time>
      </trkpt>
      <trkpt lat="42.98621" lon="-0.24315">
        <ele>1443.6</ele>
        <time>2021-08-28T08:36:40Z</time>
      </trkpt>
      <trkpt lat="42.98621" lon="-0.24312">
        <ele>1443.6</ele>
        <time>2021-08-28T08:36:41Z</time>
      </trkpt>
      <trkpt lat="42.98622" lon="-0.24308">
        <ele>1443.8</ele>
        <time>2021-08-28T08:36:42Z</time>
      </trkpt>
      <trkpt lat="42.98622" lon="-0.24304">
        <ele>1444</ele>
        <time>2021-08-28T08:36:43Z</time>
      </trkpt>
      <trkpt lat="42.98623" lon="-0.243">
        <ele>1444</ele>
        <time>2021-08-28T08:36:44Z</time>
      </trkpt>
      <trkpt lat="42.98623" lon="-0.24296">
        <ele>1444.2</ele>
        <time>2021-08-28T08:36:45Z</time>
      </trkpt>
      <trkpt lat="42.98625" lon="-0.24292">
        <ele>1444.8</ele>
        <time>2021-08-28T08:36:46Z</time>
      </trkpt>
      <trkpt lat="42.98627" lon="-0.24289">
        <ele>1445.2</ele>
        <time>2021-08-28T08:36:47Z</time>
      </trkpt>
      <trkpt lat="42.9863" lon="-0.24286">
        <ele>1445.4</ele>
        <time>2021-08-28T08:36:48Z</time>
      </trkpt>
      <trkpt lat="42.9863" lon="-0.24283">
        <ele>1445.8</ele>
        <time>2021-08-28T08:36:49Z</time>
      </trkpt>
      <trkpt lat="42.9863" lon="-0.24279">
        <ele>1445.8</ele>
        <time>2021-08-28T08:36:50Z</time>
      </trkpt>
      <trkpt lat="42.98629" lon="-0.24275">
        <ele>1446.2</ele>
        <time>2021-08-28T08:36:51Z</time>
      </trkpt>
      <trkpt lat="42.98628" lon="-0.24272">
        <ele>1446.2</ele>
        <time>2021-08-28T08:36:52Z</time>
      </trkpt>
      <trkpt lat="42.98629" lon="-0.24269">
        <ele>1446.4</ele>
        <time>2021-08-28T08:36:53Z</time>
      </trkpt>
      <trkpt lat="42.98629" lon="-0.24266">
        <ele>1446.6</ele>
        <time>2021-08-28T08:36:54Z</time>
      </trkpt>
      <trkpt lat="42.98628" lon="-0.24261">
        <ele>1446.8</ele>
        <time>2021-08-28T08:36:55Z</time>
      </trkpt>
      <trkpt lat="42.98629" lon="-0.24258">
        <ele>1447</ele>
        <time>2021-08-28T08:36:56Z</time>
      </trkpt>
      <trkpt lat="42.9863" lon="-0.24255">
        <ele>1447.4</ele>
        <time>2021-08-28T08:36:57Z</time>
      </trkpt>
      <trkpt lat="42.98628" lon="-0.24252">
        <ele>1447.6</ele>
        <time>2021-08-28T08:36:58Z</time>
      </trkpt>
      <trkpt lat="42.98629" lon="-0.2425">
        <ele>1448.2</ele>
        <time>2021-08-28T08:36:59Z</time>
      </trkpt>
      <trkpt lat="42.98628" lon="-0.24247">
        <ele>1448.4</ele>
        <time>2021-08-28T08:37:00Z</time>
      </trkpt>
      <trkpt lat="42.98628" lon="-0.24244">
        <ele>1448.8</ele>
        <time>2021-08-28T08:37:01Z</time>
      </trkpt>
      <trkpt lat="42.98629" lon="-0.24239">
        <ele>1448.8</ele>
        <time>2021-08-28T08:37:02Z</time>
      </trkpt>
      <trkpt lat="42.98629" lon="-0.24236">
        <ele>1449</ele>
        <time>2021-08-28T08:37:03Z</time>
      </trkpt>
      <trkpt lat="42.98628" lon="-0.24233">
        <ele>1449.2</ele>
        <time>2021-08-28T08:37:04Z</time>
      </trkpt>
      <trkpt lat="42.98626" lon="-0.2423">
        <ele>1449.2</ele>
        <time>2021-08-28T08:37:05Z</time>
      </trkpt>
      <trkpt lat="42.98625" lon="-0.24227">
        <ele>1449.4</ele>
        <time>2021-08-28T08:37:06Z</time>
      </trkpt>
      <trkpt lat="42.98624" lon="-0.24225">
        <ele>1449.6</ele>
        <time>2021-08-28T08:37:07Z</time>
      </trkpt>
      <trkpt lat="42.98623" lon="-0.24223">
        <ele>1450</ele>
        <time>2021-08-28T08:37:08Z</time>
      </trkpt>
      <trkpt lat="42.98623" lon="-0.24221">
        <ele>1450.2</ele>
        <time>2021-08-28T08:37:09Z</time>
      </trkpt>
      <trkpt lat="42.98623" lon="-0.24217">
        <ele>1450.4</ele>
        <time>2021-08-28T08:37:10Z</time>
      </trkpt>
      <trkpt lat="42.98623" lon="-0.24214">
        <ele>1450.6</ele>
        <time>2021-08-28T08:37:11Z</time>
      </trkpt>
      <trkpt lat="42.98624" lon="-0.24211">
        <ele>1450.6</ele>
        <time>2021-08-28T08:37:12Z</time>
      </trkpt>
      <trkpt lat="42.98626" lon="-0.24208">
        <ele>1450.6</ele>
        <time>2021-08-28T08:37:13Z</time>
      </trkpt>
      <trkpt lat="42.98626" lon="-0.24205">
        <ele>1450.8</ele>
        <time>2021-08-28T08:37:14Z</time>
      </trkpt>
      <trkpt lat="42.98627" lon="-0.24202">
        <ele>1451</ele>
        <time>2021-08-28T08:37:15Z</time>
      </trkpt>
      <trkpt lat="42.98627" lon="-0.24199">
        <ele>1451.2</ele>
        <time>2021-08-28T08:37:16Z</time>
      </trkpt>
      <trkpt lat="42.98628" lon="-0.24196">
        <ele>1451.2</ele>
        <time>2021-08-28T08:37:17Z</time>
      </trkpt>
      <trkpt lat="42.98629" lon="-0.24194">
        <ele>1451.4</ele>
        <time>2021-08-28T08:37:18Z</time>
      </trkpt>
      <trkpt lat="42.9863" lon="-0.24192">
        <ele>1451.4</ele>
        <time>2021-08-28T08:37:19Z</time>
      </trkpt>
      <trkpt lat="42.98632" lon="-0.2419">
        <ele>1451.6</ele>
        <time>2021-08-28T08:37:20Z</time>
      </trkpt>
      <trkpt lat="42.98632" lon="-0.24189">
        <ele>1451.8</ele>
        <time>2021-08-28T08:37:21Z</time>
      </trkpt>
      <trkpt lat="42.98632" lon="-0.24187">
        <ele>1452</ele>
        <time>2021-08-28T08:37:22Z</time>
      </trkpt>
      <trkpt lat="42.98632" lon="-0.24184">
        <ele>1452</ele>
        <time>2021-08-28T08:37:23Z</time>
      </trkpt>
      <trkpt lat="42.98631" lon="-0.2418">
        <ele>1452.2</ele>
        <time>2021-08-28T08:37:24Z</time>
      </trkpt>
      <trkpt lat="42.98631" lon="-0.24177">
        <ele>1452.4</ele>
        <time>2021-08-28T08:37:25Z</time>
      </trkpt>
      <trkpt lat="42.98631" lon="-0.24175">
        <ele>1452.6</ele>
        <time>2021-08-28T08:37:26Z</time>
      </trkpt>
      <trkpt lat="42.98632" lon="-0.24173">
        <ele>1452.6</ele>
        <time>2021-08-28T08:37:27Z</time>
      </trkpt>
      <trkpt lat="42.98633" lon="-0.24171">
        <ele>1452.8</ele>
        <time>2021-08-28T08:37:28Z</time>
      </trkpt>
      <trkpt lat="42.98634" lon="-0.24169">
        <ele>1452.8</ele>
        <time>2021-08-28T08:37:29Z</time>
      </trkpt>
      <trkpt lat="42.98636" lon="-0.24167">
        <ele>1453</ele>
        <time>2021-08-28T08:37:30Z</time>
      </trkpt>
      <trkpt lat="42.98637" lon="-0.24165">
        <ele>1453.2</ele>
        <time>2021-08-28T08:37:31Z</time>
      </trkpt>
      <trkpt lat="42.98639" lon="-0.24162">
        <ele>1453.4</ele>
        <time>2021-08-28T08:37:32Z</time>
      </trkpt>
      <trkpt lat="42.98641" lon="-0.24161">
        <ele>1453.4</ele>
        <time>2021-08-28T08:37:33Z</time>
      </trkpt>
      <trkpt lat="42.98642" lon="-0.24158">
        <ele>1453.6</ele>
        <time>2021-08-28T08:37:34Z</time>
      </trkpt>
      <trkpt lat="42.98644" lon="-0.24156">
        <ele>1454</ele>
        <time>2021-08-28T08:37:35Z</time>
      </trkpt>
      <trkpt lat="42.98644" lon="-0.24153">
        <ele>1454</ele>
        <time>2021-08-28T08:37:36Z</time>
      </trkpt>
      <trkpt lat="42.98644" lon="-0.24151">
        <ele>1454.2</ele>
        <time>2021-08-28T08:37:37Z</time>
      </trkpt>
      <trkpt lat="42.98644" lon="-0.24149">
        <ele>1454.4</ele>
        <time>2021-08-28T08:37:38Z</time>
      </trkpt>
      <trkpt lat="42.98644" lon="-0.24146">
        <ele>1454.4</ele>
        <time>2021-08-28T08:37:39Z</time>
      </trkpt>
      <trkpt lat="42.98644" lon="-0.24143">
        <ele>1454.6</ele>
        <time>2021-08-28T08:37:40Z</time>
      </trkpt>
      <trkpt lat="42.98644" lon="-0.24141">
        <ele>1454.8</ele>
        <time>2021-08-28T08:37:41Z</time>
      </trkpt>
      <trkpt lat="42.98643" lon="-0.24139">
        <ele>1454.8</ele>
        <time>2021-08-28T08:37:42Z</time>
      </trkpt>
      <trkpt lat="42.98642" lon="-0.24136">
        <ele>1455.2</ele>
        <time>2021-08-28T08:37:43Z</time>
      </trkpt>
      <trkpt lat="42.98643" lon="-0.24134">
        <ele>1455.2</ele>
        <time>2021-08-28T08:37:44Z</time>
      </trkpt>
      <trkpt lat="42.98643" lon="-0.24132">
        <ele>1455.4</ele>
        <time>2021-08-28T08:37:45Z</time>
      </trkpt>
      <trkpt lat="42.98642" lon="-0.24129">
        <ele>1455.6</ele>
        <time>2021-08-28T08:37:46Z</time>
      </trkpt>
      <trkpt lat="42.98642" lon="-0.24127">
        <ele>1455.6</ele>
        <time>2021-08-28T08:37:47Z</time>
      </trkpt>
      <trkpt lat="42.98643" lon="-0.24124">
        <ele>1456</ele>
        <time>2021-08-28T08:37:48Z</time>
      </trkpt>
      <trkpt lat="42.98644" lon="-0.24122">
        <ele>1456.2</ele>
        <time>2021-08-28T08:37:49Z</time>
      </trkpt>
      <trkpt lat="42.98644" lon="-0.24119">
        <ele>1456.6</ele>
        <time>2021-08-28T08:37:50Z</time>
      </trkpt>
      <trkpt lat="42.98645" lon="-0.24117">
        <ele>1456.6</ele>
        <time>2021-08-28T08:37:51Z</time>
      </trkpt>
      <trkpt lat="42.98645" lon="-0.24114">
        <ele>1456.8</ele>
        <time>2021-08-28T08:37:52Z</time>
      </trkpt>
      <trkpt lat="42.98645" lon="-0.24111">
        <ele>1457</ele>
        <time>2021-08-28T08:37:53Z</time>
      </trkpt>
      <trkpt lat="42.98645" lon="-0.24108">
        <ele>1457.2</ele>
        <time>2021-08-28T08:37:54Z</time>
      </trkpt>
      <trkpt lat="42.98645" lon="-0.24105">
        <ele>1457.2</ele>
        <time>2021-08-28T08:37:55Z</time>
      </trkpt>
      <trkpt lat="42.98645" lon="-0.24103">
        <ele>1457.4</ele>
        <time>2021-08-28T08:37:56Z</time>
      </trkpt>
      <trkpt lat="42.98645" lon="-0.24101">
        <ele>1457.4</ele>
        <time>2021-08-28T08:37:57Z</time>
      </trkpt>
      <trkpt lat="42.98645" lon="-0.24098">
        <ele>1457.6</ele>
        <time>2021-08-28T08:37:58Z</time>
      </trkpt>
      <trkpt lat="42.98645" lon="-0.24095">
        <ele>1457.8</ele>
        <time>2021-08-28T08:37:59Z</time>
      </trkpt>
      <trkpt lat="42.98645" lon="-0.24094">
        <ele>1458</ele>
        <time>2021-08-28T08:38:00Z</time>
      </trkpt>
      <trkpt lat="42.98646" lon="-0.24092">
        <ele>1458</ele>
        <time>2021-08-28T08:38:01Z</time>
      </trkpt>
      <trkpt lat="42.98647" lon="-0.24091">
        <ele>1458.2</ele>
        <time>2021-08-28T08:38:02Z</time>
      </trkpt>
      <trkpt lat="42.98649" lon="-0.24089">
        <ele>1458.4</ele>
        <time>2021-08-28T08:38:03Z</time>
      </trkpt>
      <trkpt lat="42.9865" lon="-0.24087">
        <ele>1458.6</ele>
        <time>2021-08-28T08:38:04Z</time>
      </trkpt>
      <trkpt lat="42.98651" lon="-0.24085">
        <ele>1458.6</ele>
        <time>2021-08-28T08:38:05Z</time>
      </trkpt>
      <trkpt lat="42.98651" lon="-0.24082">
        <ele>1459</ele>
        <time>2021-08-28T08:38:06Z</time>
      </trkpt>
      <trkpt lat="42.98652" lon="-0.24079">
        <ele>1459.2</ele>
        <time>2021-08-28T08:38:07Z</time>
      </trkpt>
      <trkpt lat="42.98652" lon="-0.24076">
        <ele>1459.2</ele>
        <time>2021-08-28T08:38:08Z</time>
      </trkpt>
      <trkpt lat="42.98652" lon="-0.24073">
        <ele>1459.4</ele>
        <time>2021-08-28T08:38:09Z</time>
      </trkpt>
      <trkpt lat="42.98653" lon="-0.2407">
        <ele>1459.6</ele>
        <time>2021-08-28T08:38:10Z</time>
      </trkpt>
      <trkpt lat="42.98653" lon="-0.24068">
        <ele>1459.8</ele>
        <time>2021-08-28T08:38:11Z</time>
      </trkpt>
      <trkpt lat="42.98653" lon="-0.24065">
        <ele>1460</ele>
        <time>2021-08-28T08:38:12Z</time>
      </trkpt>
      <trkpt lat="42.98653" lon="-0.24062">
        <ele>1460</ele>
        <time>2021-08-28T08:38:13Z</time>
      </trkpt>
      <trkpt lat="42.98653" lon="-0.2406">
        <ele>1460.2</ele>
        <time>2021-08-28T08:38:14Z</time>
      </trkpt>
      <trkpt lat="42.98654" lon="-0.24058">
        <ele>1460.2</ele>
        <time>2021-08-28T08:38:15Z</time>
      </trkpt>
      <trkpt lat="42.98654" lon="-0.24055">
        <ele>1460.4</ele>
        <time>2021-08-28T08:38:16Z</time>
      </trkpt>
      <trkpt lat="42.98655" lon="-0.24053">
        <ele>1460.6</ele>
        <time>2021-08-28T08:38:17Z</time>
      </trkpt>
      <trkpt lat="42.98656" lon="-0.2405">
        <ele>1460.8</ele>
        <time>2021-08-28T08:38:18Z</time>
      </trkpt>
      <trkpt lat="42.98656" lon="-0.24048">
        <ele>1461</ele>
        <time>2021-08-28T08:38:19Z</time>
      </trkpt>
      <trkpt lat="42.98657" lon="-0.24047">
        <ele>1461</ele>
        <time>2021-08-28T08:38:20Z</time>
      </trkpt>
      <trkpt lat="42.98657" lon="-0.24044">
        <ele>1461.2</ele>
        <time>2021-08-28T08:38:21Z</time>
      </trkpt>
      <trkpt lat="42.98658" lon="-0.24041">
        <ele>1461.2</ele>
        <time>2021-08-28T08:38:22Z</time>
      </trkpt>
      <trkpt lat="42.98658" lon="-0.24039">
        <ele>1461.4</ele>
        <time>2021-08-28T08:38:23Z</time>
      </trkpt>
      <trkpt lat="42.98659" lon="-0.24037">
        <ele>1461.6</ele>
        <time>2021-08-28T08:38:24Z</time>
      </trkpt>
      <trkpt lat="42.98659" lon="-0.24035">
        <ele>1461.8</ele>
        <time>2021-08-28T08:38:25Z</time>
      </trkpt>
      <trkpt lat="42.9866" lon="-0.24032">
        <ele>1462</ele>
        <time>2021-08-28T08:38:26Z</time>
      </trkpt>
      <trkpt lat="42.9866" lon="-0.24029">
        <ele>1462.2</ele>
        <time>2021-08-28T08:38:27Z</time>
      </trkpt>
      <trkpt lat="42.9866" lon="-0.24027">
        <ele>1462.4</ele>
        <time>2021-08-28T08:38:28Z</time>
      </trkpt>
      <trkpt lat="42.98659" lon="-0.24024">
        <ele>1462.4</ele>
        <time>2021-08-28T08:38:29Z</time>
      </trkpt>
      <trkpt lat="42.98659" lon="-0.24022">
        <ele>1462.6</ele>
        <time>2021-08-28T08:38:30Z</time>
      </trkpt>
      <trkpt lat="42.98659" lon="-0.24019">
        <ele>1462.8</ele>
        <time>2021-08-28T08:38:31Z</time>
      </trkpt>
      <trkpt lat="42.98659" lon="-0.24017">
        <ele>1463</ele>
        <time>2021-08-28T08:38:32Z</time>
      </trkpt>
      <trkpt lat="42.9866" lon="-0.24015">
        <ele>1463.2</ele>
        <time>2021-08-28T08:38:33Z</time>
      </trkpt>
      <trkpt lat="42.9866" lon="-0.24013">
        <ele>1463.2</ele>
        <time>2021-08-28T08:38:34Z</time>
      </trkpt>
      <trkpt lat="42.98661" lon="-0.2401">
        <ele>1463.4</ele>
        <time>2021-08-28T08:38:35Z</time>
      </trkpt>
      <trkpt lat="42.9866" lon="-0.24006">
        <ele>1463.4</ele>
        <time>2021-08-28T08:38:36Z</time>
      </trkpt>
      <trkpt lat="42.98661" lon="-0.24003">
        <ele>1463.4</ele>
        <time>2021-08-28T08:38:37Z</time>
      </trkpt>
      <trkpt lat="42.98661" lon="-0.24001">
        <ele>1463.6</ele>
        <time>2021-08-28T08:38:38Z</time>
      </trkpt>
      <trkpt lat="42.98661" lon="-0.23998">
        <ele>1463.6</ele>
        <time>2021-08-28T08:38:39Z</time>
      </trkpt>
      <trkpt lat="42.98661" lon="-0.23995">
        <ele>1463.8</ele>
        <time>2021-08-28T08:38:40Z</time>
      </trkpt>
      <trkpt lat="42.98661" lon="-0.23993">
        <ele>1464</ele>
        <time>2021-08-28T08:38:41Z</time>
      </trkpt>
      <trkpt lat="42.98662" lon="-0.2399">
        <ele>1464.2</ele>
        <time>2021-08-28T08:38:42Z</time>
      </trkpt>
      <trkpt lat="42.98662" lon="-0.23987">
        <ele>1464.2</ele>
        <time>2021-08-28T08:38:43Z</time>
      </trkpt>
      <trkpt lat="42.98663" lon="-0.23984">
        <ele>1464.4</ele>
        <time>2021-08-28T08:38:44Z</time>
      </trkpt>
      <trkpt lat="42.98663" lon="-0.23982">
        <ele>1464.4</ele>
        <time>2021-08-28T08:38:45Z</time>
      </trkpt>
      <trkpt lat="42.98663" lon="-0.23979">
        <ele>1464.4</ele>
        <time>2021-08-28T08:38:46Z</time>
      </trkpt>
      <trkpt lat="42.98662" lon="-0.23976">
        <ele>1464.6</ele>
        <time>2021-08-28T08:38:47Z</time>
      </trkpt>
      <trkpt lat="42.98663" lon="-0.23974">
        <ele>1464.6</ele>
        <time>2021-08-28T08:38:48Z</time>
      </trkpt>
      <trkpt lat="42.98663" lon="-0.23971">
        <ele>1464.8</ele>
        <time>2021-08-28T08:38:49Z</time>
      </trkpt>
      <trkpt lat="42.98663" lon="-0.23969">
        <ele>1465</ele>
        <time>2021-08-28T08:38:50Z</time>
      </trkpt>
      <trkpt lat="42.98664" lon="-0.23967">
        <ele>1465</ele>
        <time>2021-08-28T08:38:51Z</time>
      </trkpt>
      <trkpt lat="42.98664" lon="-0.23965">
        <ele>1465</ele>
        <time>2021-08-28T08:38:52Z</time>
      </trkpt>
      <trkpt lat="42.98664" lon="-0.23963">
        <ele>1465.2</ele>
        <time>2021-08-28T08:38:53Z</time>
      </trkpt>
      <trkpt lat="42.98664" lon="-0.23961">
        <ele>1465.4</ele>
        <time>2021-08-28T08:38:54Z</time>
      </trkpt>
      <trkpt lat="42.98663" lon="-0.23959">
        <ele>1465.4</ele>
        <time>2021-08-28T08:38:55Z</time>
      </trkpt>
      <trkpt lat="42.98663" lon="-0.23956">
        <ele>1465.6</ele>
        <time>2021-08-28T08:38:56Z</time>
      </trkpt>
      <trkpt lat="42.98663" lon="-0.23953">
        <ele>1465.8</ele>
        <time>2021-08-28T08:38:57Z</time>
      </trkpt>
      <trkpt lat="42.98663" lon="-0.2395">
        <ele>1465.8</ele>
        <time>2021-08-28T08:38:58Z</time>
      </trkpt>
      <trkpt lat="42.98664" lon="-0.23947">
        <ele>1466</ele>
        <time>2021-08-28T08:38:59Z</time>
      </trkpt>
      <trkpt lat="42.98664" lon="-0.23944">
        <ele>1466</ele>
        <time>2021-08-28T08:39:00Z</time>
      </trkpt>
      <trkpt lat="42.98663" lon="-0.23942">
        <ele>1466.2</ele>
        <time>2021-08-28T08:39:01Z</time>
      </trkpt>
      <trkpt lat="42.98663" lon="-0.23939">
        <ele>1466.2</ele>
        <time>2021-08-28T08:39:02Z</time>
      </trkpt>
      <trkpt lat="42.98663" lon="-0.23936">
        <ele>1466.4</ele>
        <time>2021-08-28T08:39:03Z</time>
      </trkpt>
      <trkpt lat="42.98663" lon="-0.23934">
        <ele>1466.4</ele>
        <time>2021-08-28T08:39:04Z</time>
      </trkpt>
      <trkpt lat="42.98663" lon="-0.23932">
        <ele>1466.4</ele>
        <time>2021-08-28T08:39:05Z</time>
      </trkpt>
      <trkpt lat="42.98663" lon="-0.23929">
        <ele>1466.6</ele>
        <time>2021-08-28T08:39:06Z</time>
      </trkpt>
      <trkpt lat="42.98663" lon="-0.23927">
        <ele>1466.6</ele>
        <time>2021-08-28T08:39:07Z</time>
      </trkpt>
      <trkpt lat="42.98662" lon="-0.23924">
        <ele>1466.8</ele>
        <time>2021-08-28T08:39:08Z</time>
      </trkpt>
      <trkpt lat="42.98661" lon="-0.23921">
        <ele>1466.8</ele>
        <time>2021-08-28T08:39:09Z</time>
      </trkpt>
      <trkpt lat="42.9866" lon="-0.23918">
        <ele>1466.8</ele>
        <time>2021-08-28T08:39:10Z</time>
      </trkpt>
      <trkpt lat="42.9866" lon="-0.23915">
        <ele>1467</ele>
        <time>2021-08-28T08:39:11Z</time>
      </trkpt>
      <trkpt lat="42.98659" lon="-0.23912">
        <ele>1467</ele>
        <time>2021-08-28T08:39:12Z</time>
      </trkpt>
      <trkpt lat="42.98658" lon="-0.23909">
        <ele>1467</ele>
        <time>2021-08-28T08:39:13Z</time>
      </trkpt>
      <trkpt lat="42.98657" lon="-0.23907">
        <ele>1467</ele>
        <time>2021-08-28T08:39:14Z</time>
      </trkpt>
      <trkpt lat="42.98651" lon="-0.23894">
        <ele>1467.2</ele>
        <time>2021-08-28T08:39:19Z</time>
      </trkpt>
      <trkpt lat="42.98649" lon="-0.23892">
        <ele>1467.2</ele>
        <time>2021-08-28T08:39:20Z</time>
      </trkpt>
      <trkpt lat="42.98646" lon="-0.23888">
        <ele>1467.4</ele>
        <time>2021-08-28T08:39:22Z</time>
      </trkpt>
      <trkpt lat="42.98645" lon="-0.23886">
        <ele>1467.4</ele>
        <time>2021-08-28T08:39:23Z</time>
      </trkpt>
      <trkpt lat="42.98643" lon="-0.23884">
        <ele>1467.4</ele>
        <time>2021-08-28T08:39:24Z</time>
      </trkpt>
      <trkpt lat="42.98642" lon="-0.23882">
        <ele>1467.4</ele>
        <time>2021-08-28T08:39:25Z</time>
      </trkpt>
      <trkpt lat="42.9864" lon="-0.23881">
        <ele>1467.6</ele>
        <time>2021-08-28T08:39:26Z</time>
      </trkpt>
      <trkpt lat="42.98638" lon="-0.2388">
        <ele>1467.6</ele>
        <time>2021-08-28T08:39:27Z</time>
      </trkpt>
      <trkpt lat="42.98632" lon="-0.23875">
        <ele>1467.8</ele>
        <time>2021-08-28T08:39:30Z</time>
      </trkpt>
      <trkpt lat="42.98631" lon="-0.23874">
        <ele>1468</ele>
        <time>2021-08-28T08:39:31Z</time>
      </trkpt>
      <trkpt lat="42.98628" lon="-0.23872">
        <ele>1468.2</ele>
        <time>2021-08-28T08:39:33Z</time>
      </trkpt>
      <trkpt lat="42.98626" lon="-0.23871">
        <ele>1468.2</ele>
        <time>2021-08-28T08:39:34Z</time>
      </trkpt>
      <trkpt lat="42.98623" lon="-0.23868">
        <ele>1468.4</ele>
        <time>2021-08-28T08:39:36Z</time>
      </trkpt>
      <trkpt lat="42.98622" lon="-0.23866">
        <ele>1468.6</ele>
        <time>2021-08-28T08:39:37Z</time>
      </trkpt>
      <trkpt lat="42.9862" lon="-0.23865">
        <ele>1468.6</ele>
        <time>2021-08-28T08:39:38Z</time>
      </trkpt>
      <trkpt lat="42.98619" lon="-0.23864">
        <ele>1468.6</ele>
        <time>2021-08-28T08:39:39Z</time>
      </trkpt>
      <trkpt lat="42.98617" lon="-0.23862">
        <ele>1468.8</ele>
        <time>2021-08-28T08:39:40Z</time>
      </trkpt>
      <trkpt lat="42.98616" lon="-0.23861">
        <ele>1469</ele>
        <time>2021-08-28T08:39:41Z</time>
      </trkpt>
      <trkpt lat="42.98611" lon="-0.23855">
        <ele>1469.4</ele>
        <time>2021-08-28T08:39:44Z</time>
      </trkpt>
      <trkpt lat="42.986" lon="-0.23845">
        <ele>1470.2</ele>
        <time>2021-08-28T08:39:50Z</time>
      </trkpt>
      <trkpt lat="42.98599" lon="-0.23844">
        <ele>1470.2</ele>
        <time>2021-08-28T08:39:51Z</time>
      </trkpt>
      <trkpt lat="42.98592" lon="-0.23837">
        <ele>1470.2</ele>
        <time>2021-08-28T08:39:54Z</time>
      </trkpt>
      <trkpt lat="42.98591" lon="-0.23835">
        <ele>1470.4</ele>
        <time>2021-08-28T08:39:55Z</time>
      </trkpt>
      <trkpt lat="42.98589" lon="-0.23833">
        <ele>1470.4</ele>
        <time>2021-08-28T08:39:56Z</time>
      </trkpt>
      <trkpt lat="42.98588" lon="-0.23831">
        <ele>1470.4</ele>
        <time>2021-08-28T08:39:57Z</time>
      </trkpt>
      <trkpt lat="42.98587" lon="-0.23829">
        <ele>1470.4</ele>
        <time>2021-08-28T08:39:58Z</time>
      </trkpt>
      <trkpt lat="42.98586" lon="-0.23826">
        <ele>1470.6</ele>
        <time>2021-08-28T08:39:59Z</time>
      </trkpt>
      <trkpt lat="42.98585" lon="-0.23824">
        <ele>1470.6</ele>
        <time>2021-08-28T08:40:00Z</time>
      </trkpt>
      <trkpt lat="42.98583" lon="-0.23819">
        <ele>1470.8</ele>
        <time>2021-08-28T08:40:02Z</time>
      </trkpt>
      <trkpt lat="42.98581" lon="-0.23816">
        <ele>1470.8</ele>
        <time>2021-08-28T08:40:03Z</time>
      </trkpt>
      <trkpt lat="42.9858" lon="-0.23814">
        <ele>1471</ele>
        <time>2021-08-28T08:40:04Z</time>
      </trkpt>
      <trkpt lat="42.98578" lon="-0.23809">
        <ele>1471</ele>
        <time>2021-08-28T08:40:06Z</time>
      </trkpt>
      <trkpt lat="42.98578" lon="-0.23806">
        <ele>1471.2</ele>
        <time>2021-08-28T08:40:07Z</time>
      </trkpt>
      <trkpt lat="42.98578" lon="-0.23804">
        <ele>1471.2</ele>
        <time>2021-08-28T08:40:08Z</time>
      </trkpt>
      <trkpt lat="42.98577" lon="-0.23801">
        <ele>1471.4</ele>
        <time>2021-08-28T08:40:09Z</time>
      </trkpt>
      <trkpt lat="42.98577" lon="-0.23798">
        <ele>1471.6</ele>
        <time>2021-08-28T08:40:10Z</time>
      </trkpt>
      <trkpt lat="42.98576" lon="-0.23796">
        <ele>1471.8</ele>
        <time>2021-08-28T08:40:11Z</time>
      </trkpt>
      <trkpt lat="42.98576" lon="-0.23793">
        <ele>1471.8</ele>
        <time>2021-08-28T08:40:12Z</time>
      </trkpt>
      <trkpt lat="42.98576" lon="-0.23791">
        <ele>1472</ele>
        <time>2021-08-28T08:40:13Z</time>
      </trkpt>
      <trkpt lat="42.98576" lon="-0.23788">
        <ele>1472</ele>
        <time>2021-08-28T08:40:14Z</time>
      </trkpt>
      <trkpt lat="42.98574" lon="-0.23785">
        <ele>1472.2</ele>
        <time>2021-08-28T08:40:15Z</time>
      </trkpt>
      <trkpt lat="42.98574" lon="-0.23776">
        <ele>1472.4</ele>
        <time>2021-08-28T08:40:18Z</time>
      </trkpt>
      <trkpt lat="42.98575" lon="-0.23774">
        <ele>1472.4</ele>
        <time>2021-08-28T08:40:19Z</time>
      </trkpt>
      <trkpt lat="42.98574" lon="-0.23771">
        <ele>1472.4</ele>
        <time>2021-08-28T08:40:20Z</time>
      </trkpt>
      <trkpt lat="42.98574" lon="-0.23769">
        <ele>1472.6</ele>
        <time>2021-08-28T08:40:21Z</time>
      </trkpt>
      <trkpt lat="42.98575" lon="-0.23766">
        <ele>1472.6</ele>
        <time>2021-08-28T08:40:22Z</time>
      </trkpt>
      <trkpt lat="42.98575" lon="-0.23764">
        <ele>1472.8</ele>
        <time>2021-08-28T08:40:23Z</time>
      </trkpt>
      <trkpt lat="42.98574" lon="-0.23761">
        <ele>1472.8</ele>
        <time>2021-08-28T08:40:24Z</time>
      </trkpt>
      <trkpt lat="42.98575" lon="-0.23759">
        <ele>1473</ele>
        <time>2021-08-28T08:40:25Z</time>
      </trkpt>
      <trkpt lat="42.98574" lon="-0.23757">
        <ele>1473.2</ele>
        <time>2021-08-28T08:40:26Z</time>
      </trkpt>
      <trkpt lat="42.98573" lon="-0.23755">
        <ele>1473.2</ele>
        <time>2021-08-28T08:40:27Z</time>
      </trkpt>
      <trkpt lat="42.9857" lon="-0.23753">
        <ele>1473.6</ele>
        <time>2021-08-28T08:40:28Z</time>
      </trkpt>
      <trkpt lat="42.98569" lon="-0.23751">
        <ele>1473.6</ele>
        <time>2021-08-28T08:40:29Z</time>
      </trkpt>
      <trkpt lat="42.98568" lon="-0.23748">
        <ele>1473.8</ele>
        <time>2021-08-28T08:40:30Z</time>
      </trkpt>
      <trkpt lat="42.98567" lon="-0.23746">
        <ele>1474</ele>
        <time>2021-08-28T08:40:31Z</time>
      </trkpt>
      <trkpt lat="42.98565" lon="-0.23743">
        <ele>1474.2</ele>
        <time>2021-08-28T08:40:32Z</time>
      </trkpt>
      <trkpt lat="42.98564" lon="-0.23741">
        <ele>1474.2</ele>
        <time>2021-08-28T08:40:33Z</time>
      </trkpt>
      <trkpt lat="42.98563" lon="-0.23738">
        <ele>1474.2</ele>
        <time>2021-08-28T08:40:34Z</time>
      </trkpt>
      <trkpt lat="42.98562" lon="-0.23735">
        <ele>1474.4</ele>
        <time>2021-08-28T08:40:35Z</time>
      </trkpt>
      <trkpt lat="42.98561" lon="-0.23733">
        <ele>1474.4</ele>
        <time>2021-08-28T08:40:36Z</time>
      </trkpt>
      <trkpt lat="42.98561" lon="-0.2373">
        <ele>1474.4</ele>
        <time>2021-08-28T08:40:37Z</time>
      </trkpt>
      <trkpt lat="42.98561" lon="-0.23727">
        <ele>1474.4</ele>
        <time>2021-08-28T08:40:38Z</time>
      </trkpt>
      <trkpt lat="42.9856" lon="-0.23723">
        <ele>1474.4</ele>
        <time>2021-08-28T08:40:39Z</time>
      </trkpt>
      <trkpt lat="42.9856" lon="-0.23721">
        <ele>1474.6</ele>
        <time>2021-08-28T08:40:40Z</time>
      </trkpt>
      <trkpt lat="42.98559" lon="-0.23718">
        <ele>1474.8</ele>
        <time>2021-08-28T08:40:41Z</time>
      </trkpt>
      <trkpt lat="42.98559" lon="-0.23716">
        <ele>1475</ele>
        <time>2021-08-28T08:40:42Z</time>
      </trkpt>
      <trkpt lat="42.98559" lon="-0.23714">
        <ele>1475</ele>
        <time>2021-08-28T08:40:43Z</time>
      </trkpt>
      <trkpt lat="42.98559" lon="-0.23711">
        <ele>1475.4</ele>
        <time>2021-08-28T08:40:44Z</time>
      </trkpt>
      <trkpt lat="42.98559" lon="-0.23709">
        <ele>1475.6</ele>
        <time>2021-08-28T08:40:45Z</time>
      </trkpt>
      <trkpt lat="42.98559" lon="-0.23707">
        <ele>1475.8</ele>
        <time>2021-08-28T08:40:46Z</time>
      </trkpt>
      <trkpt lat="42.98559" lon="-0.23704">
        <ele>1476</ele>
        <time>2021-08-28T08:40:47Z</time>
      </trkpt>
      <trkpt lat="42.98559" lon="-0.23702">
        <ele>1476.2</ele>
        <time>2021-08-28T08:40:48Z</time>
      </trkpt>
      <trkpt lat="42.98558" lon="-0.237">
        <ele>1476.6</ele>
        <time>2021-08-28T08:40:49Z</time>
      </trkpt>
      <trkpt lat="42.98558" lon="-0.23698">
        <ele>1476.6</ele>
        <time>2021-08-28T08:40:50Z</time>
      </trkpt>
      <trkpt lat="42.98557" lon="-0.23696">
        <ele>1476.6</ele>
        <time>2021-08-28T08:40:51Z</time>
      </trkpt>
      <trkpt lat="42.98557" lon="-0.23693">
        <ele>1476.8</ele>
        <time>2021-08-28T08:40:52Z</time>
      </trkpt>
      <trkpt lat="42.98557" lon="-0.23691">
        <ele>1477</ele>
        <time>2021-08-28T08:40:53Z</time>
      </trkpt>
      <trkpt lat="42.98557" lon="-0.23689">
        <ele>1477</ele>
        <time>2021-08-28T08:40:54Z</time>
      </trkpt>
      <trkpt lat="42.98556" lon="-0.23687">
        <ele>1477.4</ele>
        <time>2021-08-28T08:40:55Z</time>
      </trkpt>
      <trkpt lat="42.98556" lon="-0.23684">
        <ele>1477.6</ele>
        <time>2021-08-28T08:40:56Z</time>
      </trkpt>
      <trkpt lat="42.98555" lon="-0.23682">
        <ele>1477.8</ele>
        <time>2021-08-28T08:40:57Z</time>
      </trkpt>
      <trkpt lat="42.98555" lon="-0.23679">
        <ele>1478</ele>
        <time>2021-08-28T08:40:58Z</time>
      </trkpt>
      <trkpt lat="42.98555" lon="-0.23677">
        <ele>1478.2</ele>
        <time>2021-08-28T08:40:59Z</time>
      </trkpt>
      <trkpt lat="42.98555" lon="-0.23675">
        <ele>1478.4</ele>
        <time>2021-08-28T08:41:00Z</time>
      </trkpt>
      <trkpt lat="42.98555" lon="-0.23673">
        <ele>1478.8</ele>
        <time>2021-08-28T08:41:01Z</time>
      </trkpt>
      <trkpt lat="42.98556" lon="-0.23671">
        <ele>1479</ele>
        <time>2021-08-28T08:41:02Z</time>
      </trkpt>
      <trkpt lat="42.98557" lon="-0.23668">
        <ele>1479.2</ele>
        <time>2021-08-28T08:41:03Z</time>
      </trkpt>
      <trkpt lat="42.98558" lon="-0.23665">
        <ele>1479.2</ele>
        <time>2021-08-28T08:41:04Z</time>
      </trkpt>
      <trkpt lat="42.98558" lon="-0.23663">
        <ele>1479.4</ele>
        <time>2021-08-28T08:41:05Z</time>
      </trkpt>
      <trkpt lat="42.98558" lon="-0.23661">
        <ele>1479.4</ele>
        <time>2021-08-28T08:41:06Z</time>
      </trkpt>
      <trkpt lat="42.98558" lon="-0.23658">
        <ele>1479.6</ele>
        <time>2021-08-28T08:41:07Z</time>
      </trkpt>
      <trkpt lat="42.98557" lon="-0.23656">
        <ele>1480</ele>
        <time>2021-08-28T08:41:08Z</time>
      </trkpt>
      <trkpt lat="42.98556" lon="-0.23654">
        <ele>1480</ele>
        <time>2021-08-28T08:41:09Z</time>
      </trkpt>
      <trkpt lat="42.98556" lon="-0.23651">
        <ele>1480.2</ele>
        <time>2021-08-28T08:41:10Z</time>
      </trkpt>
      <trkpt lat="42.98556" lon="-0.23649">
        <ele>1480.4</ele>
        <time>2021-08-28T08:41:11Z</time>
      </trkpt>
      <trkpt lat="42.98556" lon="-0.23646">
        <ele>1480.8</ele>
        <time>2021-08-28T08:41:12Z</time>
      </trkpt>
      <trkpt lat="42.98557" lon="-0.23643">
        <ele>1480.8</ele>
        <time>2021-08-28T08:41:13Z</time>
      </trkpt>
      <trkpt lat="42.98557" lon="-0.2364">
        <ele>1481.2</ele>
        <time>2021-08-28T08:41:14Z</time>
      </trkpt>
      <trkpt lat="42.98556" lon="-0.23637">
        <ele>1481.2</ele>
        <time>2021-08-28T08:41:15Z</time>
      </trkpt>
      <trkpt lat="42.98557" lon="-0.23635">
        <ele>1481.6</ele>
        <time>2021-08-28T08:41:16Z</time>
      </trkpt>
      <trkpt lat="42.98556" lon="-0.23632">
        <ele>1481.6</ele>
        <time>2021-08-28T08:41:17Z</time>
      </trkpt>
      <trkpt lat="42.98555" lon="-0.2363">
        <ele>1481.8</ele>
        <time>2021-08-28T08:41:18Z</time>
      </trkpt>
      <trkpt lat="42.98554" lon="-0.23628">
        <ele>1482</ele>
        <time>2021-08-28T08:41:19Z</time>
      </trkpt>
      <trkpt lat="42.98553" lon="-0.23626">
        <ele>1482.2</ele>
        <time>2021-08-28T08:41:20Z</time>
      </trkpt>
      <trkpt lat="42.98552" lon="-0.23624">
        <ele>1482.2</ele>
        <time>2021-08-28T08:41:21Z</time>
      </trkpt>
      <trkpt lat="42.98551" lon="-0.23621">
        <ele>1482.4</ele>
        <time>2021-08-28T08:41:22Z</time>
      </trkpt>
      <trkpt lat="42.98551" lon="-0.23618">
        <ele>1482.6</ele>
        <time>2021-08-28T08:41:23Z</time>
      </trkpt>
      <trkpt lat="42.98551" lon="-0.23616">
        <ele>1482.8</ele>
        <time>2021-08-28T08:41:24Z</time>
      </trkpt>
      <trkpt lat="42.98551" lon="-0.23613">
        <ele>1483</ele>
        <time>2021-08-28T08:41:25Z</time>
      </trkpt>
      <trkpt lat="42.98552" lon="-0.23611">
        <ele>1483</ele>
        <time>2021-08-28T08:41:26Z</time>
      </trkpt>
      <trkpt lat="42.98552" lon="-0.23609">
        <ele>1483.4</ele>
        <time>2021-08-28T08:41:27Z</time>
      </trkpt>
      <trkpt lat="42.98552" lon="-0.23606">
        <ele>1483.6</ele>
        <time>2021-08-28T08:41:28Z</time>
      </trkpt>
      <trkpt lat="42.98552" lon="-0.23604">
        <ele>1483.8</ele>
        <time>2021-08-28T08:41:29Z</time>
      </trkpt>
      <trkpt lat="42.98551" lon="-0.23602">
        <ele>1484</ele>
        <time>2021-08-28T08:41:30Z</time>
      </trkpt>
      <trkpt lat="42.98552" lon="-0.23599">
        <ele>1484.2</ele>
        <time>2021-08-28T08:41:31Z</time>
      </trkpt>
      <trkpt lat="42.98552" lon="-0.23597">
        <ele>1484.4</ele>
        <time>2021-08-28T08:41:32Z</time>
      </trkpt>
      <trkpt lat="42.98551" lon="-0.23594">
        <ele>1484.6</ele>
        <time>2021-08-28T08:41:33Z</time>
      </trkpt>
      <trkpt lat="42.98551" lon="-0.23591">
        <ele>1484.4</ele>
        <time>2021-08-28T08:41:34Z</time>
      </trkpt>
      <trkpt lat="42.98551" lon="-0.23588">
        <ele>1484.6</ele>
        <time>2021-08-28T08:41:35Z</time>
      </trkpt>
      <trkpt lat="42.98551" lon="-0.23585">
        <ele>1484.8</ele>
        <time>2021-08-28T08:41:36Z</time>
      </trkpt>
      <trkpt lat="42.98551" lon="-0.23583">
        <ele>1484.8</ele>
        <time>2021-08-28T08:41:37Z</time>
      </trkpt>
      <trkpt lat="42.98551" lon="-0.2358">
        <ele>1485</ele>
        <time>2021-08-28T08:41:38Z</time>
      </trkpt>
      <trkpt lat="42.98551" lon="-0.23578">
        <ele>1485.2</ele>
        <time>2021-08-28T08:41:39Z</time>
      </trkpt>
      <trkpt lat="42.98551" lon="-0.23575">
        <ele>1485.4</ele>
        <time>2021-08-28T08:41:40Z</time>
      </trkpt>
      <trkpt lat="42.98552" lon="-0.23573">
        <ele>1485.6</ele>
        <time>2021-08-28T08:41:41Z</time>
      </trkpt>
      <trkpt lat="42.98552" lon="-0.2357">
        <ele>1485.6</ele>
        <time>2021-08-28T08:41:42Z</time>
      </trkpt>
      <trkpt lat="42.98552" lon="-0.23567">
        <ele>1485.8</ele>
        <time>2021-08-28T08:41:43Z</time>
      </trkpt>
      <trkpt lat="42.98551" lon="-0.23565">
        <ele>1485.8</ele>
        <time>2021-08-28T08:41:44Z</time>
      </trkpt>
      <trkpt lat="42.98551" lon="-0.23562">
        <ele>1486</ele>
        <time>2021-08-28T08:41:45Z</time>
      </trkpt>
      <trkpt lat="42.9855" lon="-0.2356">
        <ele>1486.2</ele>
        <time>2021-08-28T08:41:46Z</time>
      </trkpt>
      <trkpt lat="42.98551" lon="-0.23557">
        <ele>1486.4</ele>
        <time>2021-08-28T08:41:47Z</time>
      </trkpt>
      <trkpt lat="42.98551" lon="-0.23555">
        <ele>1486.6</ele>
        <time>2021-08-28T08:41:48Z</time>
      </trkpt>
      <trkpt lat="42.98551" lon="-0.23553">
        <ele>1486.8</ele>
        <time>2021-08-28T08:41:49Z</time>
      </trkpt>
      <trkpt lat="42.98551" lon="-0.2355">
        <ele>1486.8</ele>
        <time>2021-08-28T08:41:50Z</time>
      </trkpt>
      <trkpt lat="42.98551" lon="-0.23548">
        <ele>1487</ele>
        <time>2021-08-28T08:41:51Z</time>
      </trkpt>
      <trkpt lat="42.98551" lon="-0.23545">
        <ele>1487.2</ele>
        <time>2021-08-28T08:41:52Z</time>
      </trkpt>
      <trkpt lat="42.9855" lon="-0.23542">
        <ele>1487.2</ele>
        <time>2021-08-28T08:41:53Z</time>
      </trkpt>
      <trkpt lat="42.9855" lon="-0.23539">
        <ele>1487.4</ele>
        <time>2021-08-28T08:41:54Z</time>
      </trkpt>
      <trkpt lat="42.9855" lon="-0.23537">
        <ele>1487.4</ele>
        <time>2021-08-28T08:41:55Z</time>
      </trkpt>
      <trkpt lat="42.98549" lon="-0.23534">
        <ele>1487.6</ele>
        <time>2021-08-28T08:41:56Z</time>
      </trkpt>
      <trkpt lat="42.98549" lon="-0.23531">
        <ele>1487.8</ele>
        <time>2021-08-28T08:41:57Z</time>
      </trkpt>
      <trkpt lat="42.98548" lon="-0.23529">
        <ele>1487.8</ele>
        <time>2021-08-28T08:41:58Z</time>
      </trkpt>
      <trkpt lat="42.98548" lon="-0.23525">
        <ele>1488</ele>
        <time>2021-08-28T08:41:59Z</time>
      </trkpt>
      <trkpt lat="42.98549" lon="-0.23522">
        <ele>1488</ele>
        <time>2021-08-28T08:42:00Z</time>
      </trkpt>
      <trkpt lat="42.98549" lon="-0.23519">
        <ele>1488.2</ele>
        <time>2021-08-28T08:42:01Z</time>
      </trkpt>
      <trkpt lat="42.98551" lon="-0.23517">
        <ele>1488.2</ele>
        <time>2021-08-28T08:42:02Z</time>
      </trkpt>
      <trkpt lat="42.98552" lon="-0.23514">
        <ele>1488.2</ele>
        <time>2021-08-28T08:42:03Z</time>
      </trkpt>
      <trkpt lat="42.98554" lon="-0.23512">
        <ele>1488.4</ele>
        <time>2021-08-28T08:42:04Z</time>
      </trkpt>
      <trkpt lat="42.98555" lon="-0.23511">
        <ele>1488.4</ele>
        <time>2021-08-28T08:42:05Z</time>
      </trkpt>
      <trkpt lat="42.98556" lon="-0.23509">
        <ele>1488.6</ele>
        <time>2021-08-28T08:42:06Z</time>
      </trkpt>
      <trkpt lat="42.98558" lon="-0.23507">
        <ele>1488.6</ele>
        <time>2021-08-28T08:42:07Z</time>
      </trkpt>
      <trkpt lat="42.98559" lon="-0.23504">
        <ele>1488.8</ele>
        <time>2021-08-28T08:42:08Z</time>
      </trkpt>
      <trkpt lat="42.98559" lon="-0.23502">
        <ele>1488.8</ele>
        <time>2021-08-28T08:42:09Z</time>
      </trkpt>
      <trkpt lat="42.98561" lon="-0.23501">
        <ele>1488.8</ele>
        <time>2021-08-28T08:42:10Z</time>
      </trkpt>
      <trkpt lat="42.98562" lon="-0.23499">
        <ele>1489</ele>
        <time>2021-08-28T08:42:11Z</time>
      </trkpt>
      <trkpt lat="42.98564" lon="-0.23497">
        <ele>1489.2</ele>
        <time>2021-08-28T08:42:12Z</time>
      </trkpt>
      <trkpt lat="42.98565" lon="-0.23495">
        <ele>1489.2</ele>
        <time>2021-08-28T08:42:13Z</time>
      </trkpt>
      <trkpt lat="42.98566" lon="-0.23494">
        <ele>1489.4</ele>
        <time>2021-08-28T08:42:14Z</time>
      </trkpt>
      <trkpt lat="42.98566" lon="-0.23492">
        <ele>1489.6</ele>
        <time>2021-08-28T08:42:15Z</time>
      </trkpt>
      <trkpt lat="42.98567" lon="-0.2349">
        <ele>1489.6</ele>
        <time>2021-08-28T08:42:16Z</time>
      </trkpt>
      <trkpt lat="42.98568" lon="-0.23487">
        <ele>1490</ele>
        <time>2021-08-28T08:42:17Z</time>
      </trkpt>
      <trkpt lat="42.98568" lon="-0.23485">
        <ele>1490.2</ele>
        <time>2021-08-28T08:42:18Z</time>
      </trkpt>
      <trkpt lat="42.98569" lon="-0.23484">
        <ele>1490.4</ele>
        <time>2021-08-28T08:42:19Z</time>
      </trkpt>
      <trkpt lat="42.9857" lon="-0.23482">
        <ele>1490.4</ele>
        <time>2021-08-28T08:42:20Z</time>
      </trkpt>
      <trkpt lat="42.9857" lon="-0.2348">
        <ele>1490.6</ele>
        <time>2021-08-28T08:42:21Z</time>
      </trkpt>
      <trkpt lat="42.9857" lon="-0.23477">
        <ele>1490.8</ele>
        <time>2021-08-28T08:42:22Z</time>
      </trkpt>
      <trkpt lat="42.98571" lon="-0.23475">
        <ele>1491.2</ele>
        <time>2021-08-28T08:42:23Z</time>
      </trkpt>
      <trkpt lat="42.98572" lon="-0.23473">
        <ele>1491.2</ele>
        <time>2021-08-28T08:42:24Z</time>
      </trkpt>
      <trkpt lat="42.98572" lon="-0.23471">
        <ele>1491.4</ele>
        <time>2021-08-28T08:42:25Z</time>
      </trkpt>
      <trkpt lat="42.98573" lon="-0.23468">
        <ele>1491.6</ele>
        <time>2021-08-28T08:42:26Z</time>
      </trkpt>
      <trkpt lat="42.98573" lon="-0.23465">
        <ele>1491.8</ele>
        <time>2021-08-28T08:42:27Z</time>
      </trkpt>
      <trkpt lat="42.98574" lon="-0.23463">
        <ele>1491.8</ele>
        <time>2021-08-28T08:42:28Z</time>
      </trkpt>
      <trkpt lat="42.98575" lon="-0.2346">
        <ele>1492</ele>
        <time>2021-08-28T08:42:29Z</time>
      </trkpt>
      <trkpt lat="42.98576" lon="-0.23458">
        <ele>1492.2</ele>
        <time>2021-08-28T08:42:30Z</time>
      </trkpt>
      <trkpt lat="42.98576" lon="-0.23455">
        <ele>1492.2</ele>
        <time>2021-08-28T08:42:31Z</time>
      </trkpt>
      <trkpt lat="42.98577" lon="-0.23453">
        <ele>1492.4</ele>
        <time>2021-08-28T08:42:32Z</time>
      </trkpt>
      <trkpt lat="42.98578" lon="-0.2345">
        <ele>1492.6</ele>
        <time>2021-08-28T08:42:33Z</time>
      </trkpt>
      <trkpt lat="42.98579" lon="-0.23448">
        <ele>1492.6</ele>
        <time>2021-08-28T08:42:34Z</time>
      </trkpt>
      <trkpt lat="42.9858" lon="-0.23445">
        <ele>1492.8</ele>
        <time>2021-08-28T08:42:35Z</time>
      </trkpt>
      <trkpt lat="42.9858" lon="-0.23443">
        <ele>1492.8</ele>
        <time>2021-08-28T08:42:36Z</time>
      </trkpt>
      <trkpt lat="42.98581" lon="-0.23441">
        <ele>1493</ele>
        <time>2021-08-28T08:42:37Z</time>
      </trkpt>
      <trkpt lat="42.98582" lon="-0.23439">
        <ele>1493</ele>
        <time>2021-08-28T08:42:38Z</time>
      </trkpt>
      <trkpt lat="42.98583" lon="-0.23436">
        <ele>1493.2</ele>
        <time>2021-08-28T08:42:39Z</time>
      </trkpt>
      <trkpt lat="42.98584" lon="-0.23434">
        <ele>1493.2</ele>
        <time>2021-08-28T08:42:40Z</time>
      </trkpt>
      <trkpt lat="42.98584" lon="-0.23432">
        <ele>1493.4</ele>
        <time>2021-08-28T08:42:41Z</time>
      </trkpt>
      <trkpt lat="42.98584" lon="-0.23429">
        <ele>1493.4</ele>
        <time>2021-08-28T08:42:42Z</time>
      </trkpt>
      <trkpt lat="42.98584" lon="-0.23427">
        <ele>1493.6</ele>
        <time>2021-08-28T08:42:43Z</time>
      </trkpt>
      <trkpt lat="42.98584" lon="-0.23425">
        <ele>1493.6</ele>
        <time>2021-08-28T08:42:44Z</time>
      </trkpt>
      <trkpt lat="42.98584" lon="-0.23422">
        <ele>1493.6</ele>
        <time>2021-08-28T08:42:45Z</time>
      </trkpt>
      <trkpt lat="42.98584" lon="-0.2342">
        <ele>1493.8</ele>
        <time>2021-08-28T08:42:46Z</time>
      </trkpt>
      <trkpt lat="42.98584" lon="-0.23417">
        <ele>1494</ele>
        <time>2021-08-28T08:42:47Z</time>
      </trkpt>
      <trkpt lat="42.98585" lon="-0.23415">
        <ele>1494.2</ele>
        <time>2021-08-28T08:42:48Z</time>
      </trkpt>
      <trkpt lat="42.98585" lon="-0.23413">
        <ele>1494.4</ele>
        <time>2021-08-28T08:42:49Z</time>
      </trkpt>
      <trkpt lat="42.98585" lon="-0.23411">
        <ele>1494.4</ele>
        <time>2021-08-28T08:42:50Z</time>
      </trkpt>
      <trkpt lat="42.98585" lon="-0.23408">
        <ele>1494.6</ele>
        <time>2021-08-28T08:42:51Z</time>
      </trkpt>
      <trkpt lat="42.98585" lon="-0.23406">
        <ele>1494.8</ele>
        <time>2021-08-28T08:42:52Z</time>
      </trkpt>
      <trkpt lat="42.98585" lon="-0.23404">
        <ele>1495</ele>
        <time>2021-08-28T08:42:53Z</time>
      </trkpt>
      <trkpt lat="42.98585" lon="-0.23401">
        <ele>1495</ele>
        <time>2021-08-28T08:42:54Z</time>
      </trkpt>
      <trkpt lat="42.98585" lon="-0.23398">
        <ele>1495.4</ele>
        <time>2021-08-28T08:42:55Z</time>
      </trkpt>
      <trkpt lat="42.98585" lon="-0.23395">
        <ele>1495.4</ele>
        <time>2021-08-28T08:42:56Z</time>
      </trkpt>
      <trkpt lat="42.98585" lon="-0.23393">
        <ele>1495.6</ele>
        <time>2021-08-28T08:42:57Z</time>
      </trkpt>
      <trkpt lat="42.98585" lon="-0.23391">
        <ele>1495.6</ele>
        <time>2021-08-28T08:42:58Z</time>
      </trkpt>
      <trkpt lat="42.98584" lon="-0.23387">
        <ele>1495.8</ele>
        <time>2021-08-28T08:42:59Z</time>
      </trkpt>
      <trkpt lat="42.98585" lon="-0.23385">
        <ele>1496</ele>
        <time>2021-08-28T08:43:00Z</time>
      </trkpt>
      <trkpt lat="42.98585" lon="-0.23382">
        <ele>1496.2</ele>
        <time>2021-08-28T08:43:01Z</time>
      </trkpt>
      <trkpt lat="42.98585" lon="-0.23379">
        <ele>1496.6</ele>
        <time>2021-08-28T08:43:02Z</time>
      </trkpt>
      <trkpt lat="42.98585" lon="-0.23376">
        <ele>1497</ele>
        <time>2021-08-28T08:43:03Z</time>
      </trkpt>
      <trkpt lat="42.98585" lon="-0.23373">
        <ele>1497.2</ele>
        <time>2021-08-28T08:43:04Z</time>
      </trkpt>
      <trkpt lat="42.98585" lon="-0.2337">
        <ele>1497.4</ele>
        <time>2021-08-28T08:43:05Z</time>
      </trkpt>
      <trkpt lat="42.98585" lon="-0.23368">
        <ele>1497.4</ele>
        <time>2021-08-28T08:43:06Z</time>
      </trkpt>
      <trkpt lat="42.98585" lon="-0.23365">
        <ele>1497.6</ele>
        <time>2021-08-28T08:43:07Z</time>
      </trkpt>
      <trkpt lat="42.98585" lon="-0.23361">
        <ele>1497.8</ele>
        <time>2021-08-28T08:43:08Z</time>
      </trkpt>
      <trkpt lat="42.98585" lon="-0.23359">
        <ele>1498</ele>
        <time>2021-08-28T08:43:09Z</time>
      </trkpt>
      <trkpt lat="42.98584" lon="-0.23356">
        <ele>1498</ele>
        <time>2021-08-28T08:43:10Z</time>
      </trkpt>
      <trkpt lat="42.98584" lon="-0.23353">
        <ele>1498.2</ele>
        <time>2021-08-28T08:43:11Z</time>
      </trkpt>
      <trkpt lat="42.98584" lon="-0.2335">
        <ele>1498.4</ele>
        <time>2021-08-28T08:43:12Z</time>
      </trkpt>
      <trkpt lat="42.98583" lon="-0.23348">
        <ele>1498.4</ele>
        <time>2021-08-28T08:43:13Z</time>
      </trkpt>
      <trkpt lat="42.98582" lon="-0.23345">
        <ele>1498.6</ele>
        <time>2021-08-28T08:43:14Z</time>
      </trkpt>
      <trkpt lat="42.98581" lon="-0.23343">
        <ele>1498.6</ele>
        <time>2021-08-28T08:43:15Z</time>
      </trkpt>
      <trkpt lat="42.9858" lon="-0.2334">
        <ele>1498.8</ele>
        <time>2021-08-28T08:43:16Z</time>
      </trkpt>
      <trkpt lat="42.98578" lon="-0.23337">
        <ele>1498.8</ele>
        <time>2021-08-28T08:43:17Z</time>
      </trkpt>
      <trkpt lat="42.98577" lon="-0.23334">
        <ele>1499</ele>
        <time>2021-08-28T08:43:18Z</time>
      </trkpt>
      <trkpt lat="42.98576" lon="-0.23332">
        <ele>1499</ele>
        <time>2021-08-28T08:43:19Z</time>
      </trkpt>
      <trkpt lat="42.98574" lon="-0.2333">
        <ele>1499.2</ele>
        <time>2021-08-28T08:43:20Z</time>
      </trkpt>
      <trkpt lat="42.98573" lon="-0.23327">
        <ele>1499.4</ele>
        <time>2021-08-28T08:43:21Z</time>
      </trkpt>
      <trkpt lat="42.98572" lon="-0.23325">
        <ele>1499.6</ele>
        <time>2021-08-28T08:43:22Z</time>
      </trkpt>
      <trkpt lat="42.98571" lon="-0.23322">
        <ele>1499.6</ele>
        <time>2021-08-28T08:43:23Z</time>
      </trkpt>
      <trkpt lat="42.9857" lon="-0.2332">
        <ele>1499.8</ele>
        <time>2021-08-28T08:43:24Z</time>
      </trkpt>
      <trkpt lat="42.98569" lon="-0.23317">
        <ele>1499.8</ele>
        <time>2021-08-28T08:43:25Z</time>
      </trkpt>
      <trkpt lat="42.98568" lon="-0.23314">
        <ele>1500</ele>
        <time>2021-08-28T08:43:26Z</time>
      </trkpt>
      <trkpt lat="42.98567" lon="-0.23311">
        <ele>1500</ele>
        <time>2021-08-28T08:43:27Z</time>
      </trkpt>
      <trkpt lat="42.98566" lon="-0.23308">
        <ele>1500</ele>
        <time>2021-08-28T08:43:28Z</time>
      </trkpt>
      <trkpt lat="42.98565" lon="-0.23305">
        <ele>1500</ele>
        <time>2021-08-28T08:43:29Z</time>
      </trkpt>
      <trkpt lat="42.98565" lon="-0.23302">
        <ele>1500.2</ele>
        <time>2021-08-28T08:43:30Z</time>
      </trkpt>
      <trkpt lat="42.98565" lon="-0.23299">
        <ele>1500.4</ele>
        <time>2021-08-28T08:43:31Z</time>
      </trkpt>
      <trkpt lat="42.98565" lon="-0.23295">
        <ele>1500.6</ele>
        <time>2021-08-28T08:43:32Z</time>
      </trkpt>
      <trkpt lat="42.98565" lon="-0.23292">
        <ele>1500.6</ele>
        <time>2021-08-28T08:43:33Z</time>
      </trkpt>
      <trkpt lat="42.98565" lon="-0.2329">
        <ele>1500.6</ele>
        <time>2021-08-28T08:43:34Z</time>
      </trkpt>
      <trkpt lat="42.98565" lon="-0.23286">
        <ele>1500.8</ele>
        <time>2021-08-28T08:43:35Z</time>
      </trkpt>
      <trkpt lat="42.98566" lon="-0.23283">
        <ele>1500.8</ele>
        <time>2021-08-28T08:43:36Z</time>
      </trkpt>
      <trkpt lat="42.98566" lon="-0.2328">
        <ele>1500.6</ele>
        <time>2021-08-28T08:43:37Z</time>
      </trkpt>
      <trkpt lat="42.98567" lon="-0.23275">
        <ele>1500.6</ele>
        <time>2021-08-28T08:43:38Z</time>
      </trkpt>
      <trkpt lat="42.98568" lon="-0.2327">
        <ele>1500.6</ele>
        <time>2021-08-28T08:43:39Z</time>
      </trkpt>
      <trkpt lat="42.98569" lon="-0.23265">
        <ele>1500.6</ele>
        <time>2021-08-28T08:43:40Z</time>
      </trkpt>
      <trkpt lat="42.9857" lon="-0.2326">
        <ele>1500.6</ele>
        <time>2021-08-28T08:43:41Z</time>
      </trkpt>
      <trkpt lat="42.98571" lon="-0.23253">
        <ele>1500.6</ele>
        <time>2021-08-28T08:43:42Z</time>
      </trkpt>
      <trkpt lat="42.98574" lon="-0.2323">
        <ele>1500.2</ele>
        <time>2021-08-28T08:43:46Z</time>
      </trkpt>
      <trkpt lat="42.98578" lon="-0.23203">
        <ele>1499.4</ele>
        <time>2021-08-28T08:43:51Z</time>
      </trkpt>
      <trkpt lat="42.98578" lon="-0.23199">
        <ele>1499.2</ele>
        <time>2021-08-28T08:43:52Z</time>
      </trkpt>
      <trkpt lat="42.98578" lon="-0.23195">
        <ele>1499.2</ele>
        <time>2021-08-28T08:43:53Z</time>
      </trkpt>
      <trkpt lat="42.98579" lon="-0.23191">
        <ele>1499.2</ele>
        <time>2021-08-28T08:43:54Z</time>
      </trkpt>
      <trkpt lat="42.98579" lon="-0.23187">
        <ele>1499.2</ele>
        <time>2021-08-28T08:43:55Z</time>
      </trkpt>
      <trkpt lat="42.98579" lon="-0.23184">
        <ele>1499.2</ele>
        <time>2021-08-28T08:43:56Z</time>
      </trkpt>
      <trkpt lat="42.98579" lon="-0.23181">
        <ele>1499.4</ele>
        <time>2021-08-28T08:43:57Z</time>
      </trkpt>
      <trkpt lat="42.9858" lon="-0.23178">
        <ele>1499.4</ele>
        <time>2021-08-28T08:43:58Z</time>
      </trkpt>
      <trkpt lat="42.9858" lon="-0.23175">
        <ele>1499.4</ele>
        <time>2021-08-28T08:43:59Z</time>
      </trkpt>
      <trkpt lat="42.9858" lon="-0.23172">
        <ele>1499.6</ele>
        <time>2021-08-28T08:44:00Z</time>
      </trkpt>
      <trkpt lat="42.9858" lon="-0.23169">
        <ele>1499.6</ele>
        <time>2021-08-28T08:44:01Z</time>
      </trkpt>
      <trkpt lat="42.9858" lon="-0.23167">
        <ele>1499.8</ele>
        <time>2021-08-28T08:44:02Z</time>
      </trkpt>
      <trkpt lat="42.98581" lon="-0.23164">
        <ele>1499.8</ele>
        <time>2021-08-28T08:44:03Z</time>
      </trkpt>
      <trkpt lat="42.98581" lon="-0.23161">
        <ele>1500</ele>
        <time>2021-08-28T08:44:04Z</time>
      </trkpt>
      <trkpt lat="42.98581" lon="-0.23159">
        <ele>1500</ele>
        <time>2021-08-28T08:44:05Z</time>
      </trkpt>
      <trkpt lat="42.98581" lon="-0.23156">
        <ele>1500.2</ele>
        <time>2021-08-28T08:44:06Z</time>
      </trkpt>
      <trkpt lat="42.98581" lon="-0.23153">
        <ele>1500.2</ele>
        <time>2021-08-28T08:44:07Z</time>
      </trkpt>
      <trkpt lat="42.98581" lon="-0.2315">
        <ele>1500.4</ele>
        <time>2021-08-28T08:44:08Z</time>
      </trkpt>
      <trkpt lat="42.98581" lon="-0.23148">
        <ele>1500.4</ele>
        <time>2021-08-28T08:44:09Z</time>
      </trkpt>
      <trkpt lat="42.98581" lon="-0.23144">
        <ele>1500.6</ele>
        <time>2021-08-28T08:44:10Z</time>
      </trkpt>
      <trkpt lat="42.9858" lon="-0.23141">
        <ele>1500.8</ele>
        <time>2021-08-28T08:44:11Z</time>
      </trkpt>
      <trkpt lat="42.98579" lon="-0.23133">
        <ele>1501.2</ele>
        <time>2021-08-28T08:44:14Z</time>
      </trkpt>
      <trkpt lat="42.9858" lon="-0.23131">
        <ele>1501.4</ele>
        <time>2021-08-28T08:44:15Z</time>
      </trkpt>
      <trkpt lat="42.98579" lon="-0.23125">
        <ele>1501.8</ele>
        <time>2021-08-28T08:44:17Z</time>
      </trkpt>
      <trkpt lat="42.98579" lon="-0.23121">
        <ele>1502</ele>
        <time>2021-08-28T08:44:19Z</time>
      </trkpt>
      <trkpt lat="42.98578" lon="-0.23119">
        <ele>1502</ele>
        <time>2021-08-28T08:44:20Z</time>
      </trkpt>
      <trkpt lat="42.98578" lon="-0.23116">
        <ele>1502.4</ele>
        <time>2021-08-28T08:44:21Z</time>
      </trkpt>
      <trkpt lat="42.98578" lon="-0.23114">
        <ele>1502.6</ele>
        <time>2021-08-28T08:44:22Z</time>
      </trkpt>
      <trkpt lat="42.98578" lon="-0.23112">
        <ele>1502.8</ele>
        <time>2021-08-28T08:44:23Z</time>
      </trkpt>
      <trkpt lat="42.98578" lon="-0.23109">
        <ele>1502.8</ele>
        <time>2021-08-28T08:44:24Z</time>
      </trkpt>
      <trkpt lat="42.98577" lon="-0.23107">
        <ele>1503</ele>
        <time>2021-08-28T08:44:25Z</time>
      </trkpt>
      <trkpt lat="42.98577" lon="-0.23104">
        <ele>1503.2</ele>
        <time>2021-08-28T08:44:26Z</time>
      </trkpt>
      <trkpt lat="42.98576" lon="-0.23102">
        <ele>1503.4</ele>
        <time>2021-08-28T08:44:27Z</time>
      </trkpt>
      <trkpt lat="42.98576" lon="-0.231">
        <ele>1503.6</ele>
        <time>2021-08-28T08:44:28Z</time>
      </trkpt>
      <trkpt lat="42.98575" lon="-0.23097">
        <ele>1503.8</ele>
        <time>2021-08-28T08:44:29Z</time>
      </trkpt>
      <trkpt lat="42.98575" lon="-0.23095">
        <ele>1503.8</ele>
        <time>2021-08-28T08:44:30Z</time>
      </trkpt>
      <trkpt lat="42.98575" lon="-0.23092">
        <ele>1504</ele>
        <time>2021-08-28T08:44:31Z</time>
      </trkpt>
      <trkpt lat="42.98574" lon="-0.2309">
        <ele>1504.2</ele>
        <time>2021-08-28T08:44:32Z</time>
      </trkpt>
      <trkpt lat="42.98573" lon="-0.23087">
        <ele>1504.4</ele>
        <time>2021-08-28T08:44:33Z</time>
      </trkpt>
      <trkpt lat="42.98573" lon="-0.23085">
        <ele>1504.6</ele>
        <time>2021-08-28T08:44:34Z</time>
      </trkpt>
      <trkpt lat="42.98572" lon="-0.23082">
        <ele>1504.8</ele>
        <time>2021-08-28T08:44:35Z</time>
      </trkpt>
      <trkpt lat="42.98571" lon="-0.2308">
        <ele>1505</ele>
        <time>2021-08-28T08:44:36Z</time>
      </trkpt>
      <trkpt lat="42.98571" lon="-0.23077">
        <ele>1505.2</ele>
        <time>2021-08-28T08:44:37Z</time>
      </trkpt>
      <trkpt lat="42.9857" lon="-0.23075">
        <ele>1505.4</ele>
        <time>2021-08-28T08:44:38Z</time>
      </trkpt>
      <trkpt lat="42.9857" lon="-0.23071">
        <ele>1505.4</ele>
        <time>2021-08-28T08:44:39Z</time>
      </trkpt>
      <trkpt lat="42.98569" lon="-0.23069">
        <ele>1505.6</ele>
        <time>2021-08-28T08:44:40Z</time>
      </trkpt>
      <trkpt lat="42.98569" lon="-0.23066">
        <ele>1505.8</ele>
        <time>2021-08-28T08:44:41Z</time>
      </trkpt>
      <trkpt lat="42.98568" lon="-0.23064">
        <ele>1505.8</ele>
        <time>2021-08-28T08:44:42Z</time>
      </trkpt>
      <trkpt lat="42.98567" lon="-0.23061">
        <ele>1505.8</ele>
        <time>2021-08-28T08:44:43Z</time>
      </trkpt>
      <trkpt lat="42.98567" lon="-0.23059">
        <ele>1506</ele>
        <time>2021-08-28T08:44:44Z</time>
      </trkpt>
      <trkpt lat="42.98566" lon="-0.23056">
        <ele>1506.2</ele>
        <time>2021-08-28T08:44:45Z</time>
      </trkpt>
      <trkpt lat="42.98565" lon="-0.23054">
        <ele>1506.4</ele>
        <time>2021-08-28T08:44:46Z</time>
      </trkpt>
      <trkpt lat="42.98564" lon="-0.23051">
        <ele>1506.6</ele>
        <time>2021-08-28T08:44:47Z</time>
      </trkpt>
      <trkpt lat="42.98564" lon="-0.23049">
        <ele>1506.8</ele>
        <time>2021-08-28T08:44:48Z</time>
      </trkpt>
      <trkpt lat="42.98563" lon="-0.23047">
        <ele>1506.8</ele>
        <time>2021-08-28T08:44:49Z</time>
      </trkpt>
      <trkpt lat="42.98562" lon="-0.23044">
        <ele>1507.2</ele>
        <time>2021-08-28T08:44:50Z</time>
      </trkpt>
      <trkpt lat="42.98561" lon="-0.23041">
        <ele>1507.4</ele>
        <time>2021-08-28T08:44:51Z</time>
      </trkpt>
      <trkpt lat="42.9856" lon="-0.23039">
        <ele>1507.4</ele>
        <time>2021-08-28T08:44:52Z</time>
      </trkpt>
      <trkpt lat="42.9856" lon="-0.23036">
        <ele>1507.6</ele>
        <time>2021-08-28T08:44:53Z</time>
      </trkpt>
      <trkpt lat="42.98559" lon="-0.23035">
        <ele>1507.6</ele>
        <time>2021-08-28T08:44:54Z</time>
      </trkpt>
      <trkpt lat="42.98558" lon="-0.23032">
        <ele>1508</ele>
        <time>2021-08-28T08:44:55Z</time>
      </trkpt>
      <trkpt lat="42.98558" lon="-0.2303">
        <ele>1508</ele>
        <time>2021-08-28T08:44:56Z</time>
      </trkpt>
      <trkpt lat="42.98557" lon="-0.23028">
        <ele>1508.2</ele>
        <time>2021-08-28T08:44:57Z</time>
      </trkpt>
      <trkpt lat="42.98556" lon="-0.23025">
        <ele>1508.4</ele>
        <time>2021-08-28T08:44:58Z</time>
      </trkpt>
      <trkpt lat="42.98555" lon="-0.23023">
        <ele>1508.6</ele>
        <time>2021-08-28T08:44:59Z</time>
      </trkpt>
      <trkpt lat="42.98554" lon="-0.23021">
        <ele>1508.8</ele>
        <time>2021-08-28T08:45:00Z</time>
      </trkpt>
      <trkpt lat="42.98552" lon="-0.23019">
        <ele>1509</ele>
        <time>2021-08-28T08:45:01Z</time>
      </trkpt>
      <trkpt lat="42.9855" lon="-0.23017">
        <ele>1509.2</ele>
        <time>2021-08-28T08:45:02Z</time>
      </trkpt>
      <trkpt lat="42.98549" lon="-0.23015">
        <ele>1509.4</ele>
        <time>2021-08-28T08:45:03Z</time>
      </trkpt>
      <trkpt lat="42.98547" lon="-0.23013">
        <ele>1509.4</ele>
        <time>2021-08-28T08:45:04Z</time>
      </trkpt>
      <trkpt lat="42.98546" lon="-0.23011">
        <ele>1509.6</ele>
        <time>2021-08-28T08:45:05Z</time>
      </trkpt>
      <trkpt lat="42.98544" lon="-0.23009">
        <ele>1509.6</ele>
        <time>2021-08-28T08:45:06Z</time>
      </trkpt>
      <trkpt lat="42.98543" lon="-0.23007">
        <ele>1509.6</ele>
        <time>2021-08-28T08:45:07Z</time>
      </trkpt>
      <trkpt lat="42.98541" lon="-0.23005">
        <ele>1509.8</ele>
        <time>2021-08-28T08:45:08Z</time>
      </trkpt>
      <trkpt lat="42.98539" lon="-0.23003">
        <ele>1510</ele>
        <time>2021-08-28T08:45:09Z</time>
      </trkpt>
      <trkpt lat="42.98538" lon="-0.23001">
        <ele>1510</ele>
        <time>2021-08-28T08:45:10Z</time>
      </trkpt>
      <trkpt lat="42.98537" lon="-0.22999">
        <ele>1510.2</ele>
        <time>2021-08-28T08:45:11Z</time>
      </trkpt>
      <trkpt lat="42.98536" lon="-0.22997">
        <ele>1510.4</ele>
        <time>2021-08-28T08:45:12Z</time>
      </trkpt>
      <trkpt lat="42.98535" lon="-0.22996">
        <ele>1510.6</ele>
        <time>2021-08-28T08:45:13Z</time>
      </trkpt>
      <trkpt lat="42.98534" lon="-0.22994">
        <ele>1510.8</ele>
        <time>2021-08-28T08:45:14Z</time>
      </trkpt>
      <trkpt lat="42.98532" lon="-0.22992">
        <ele>1511</ele>
        <time>2021-08-28T08:45:15Z</time>
      </trkpt>
      <trkpt lat="42.98531" lon="-0.2299">
        <ele>1511.2</ele>
        <time>2021-08-28T08:45:16Z</time>
      </trkpt>
      <trkpt lat="42.9853" lon="-0.22988">
        <ele>1511.4</ele>
        <time>2021-08-28T08:45:17Z</time>
      </trkpt>
      <trkpt lat="42.98529" lon="-0.22986">
        <ele>1511.6</ele>
        <time>2021-08-28T08:45:18Z</time>
      </trkpt>
      <trkpt lat="42.98528" lon="-0.22984">
        <ele>1511.8</ele>
        <time>2021-08-28T08:45:19Z</time>
      </trkpt>
      <trkpt lat="42.98527" lon="-0.22982">
        <ele>1512</ele>
        <time>2021-08-28T08:45:20Z</time>
      </trkpt>
      <trkpt lat="42.98526" lon="-0.2298">
        <ele>1512</ele>
        <time>2021-08-28T08:45:21Z</time>
      </trkpt>
      <trkpt lat="42.98526" lon="-0.22978">
        <ele>1512.2</ele>
        <time>2021-08-28T08:45:22Z</time>
      </trkpt>
      <trkpt lat="42.98525" lon="-0.22976">
        <ele>1512.4</ele>
        <time>2021-08-28T08:45:23Z</time>
      </trkpt>
      <trkpt lat="42.98525" lon="-0.22973">
        <ele>1512.6</ele>
        <time>2021-08-28T08:45:24Z</time>
      </trkpt>
      <trkpt lat="42.98525" lon="-0.22971">
        <ele>1512.6</ele>
        <time>2021-08-28T08:45:25Z</time>
      </trkpt>
      <trkpt lat="42.98524" lon="-0.22969">
        <ele>1513</ele>
        <time>2021-08-28T08:45:26Z</time>
      </trkpt>
      <trkpt lat="42.98524" lon="-0.22967">
        <ele>1513</ele>
        <time>2021-08-28T08:45:27Z</time>
      </trkpt>
      <trkpt lat="42.98524" lon="-0.22965">
        <ele>1513.2</ele>
        <time>2021-08-28T08:45:28Z</time>
      </trkpt>
      <trkpt lat="42.98523" lon="-0.22963">
        <ele>1513.4</ele>
        <time>2021-08-28T08:45:29Z</time>
      </trkpt>
      <trkpt lat="42.98523" lon="-0.22961">
        <ele>1513.8</ele>
        <time>2021-08-28T08:45:30Z</time>
      </trkpt>
      <trkpt lat="42.98523" lon="-0.22958">
        <ele>1514</ele>
        <time>2021-08-28T08:45:31Z</time>
      </trkpt>
      <trkpt lat="42.98522" lon="-0.22956">
        <ele>1514.2</ele>
        <time>2021-08-28T08:45:32Z</time>
      </trkpt>
      <trkpt lat="42.98522" lon="-0.22954">
        <ele>1514.4</ele>
        <time>2021-08-28T08:45:33Z</time>
      </trkpt>
      <trkpt lat="42.98521" lon="-0.22951">
        <ele>1514.4</ele>
        <time>2021-08-28T08:45:34Z</time>
      </trkpt>
      <trkpt lat="42.98521" lon="-0.22949">
        <ele>1514.6</ele>
        <time>2021-08-28T08:45:35Z</time>
      </trkpt>
      <trkpt lat="42.98521" lon="-0.22947">
        <ele>1514.6</ele>
        <time>2021-08-28T08:45:36Z</time>
      </trkpt>
      <trkpt lat="42.98521" lon="-0.22945">
        <ele>1515.2</ele>
        <time>2021-08-28T08:45:37Z</time>
      </trkpt>
      <trkpt lat="42.98521" lon="-0.22943">
        <ele>1515.4</ele>
        <time>2021-08-28T08:45:38Z</time>
      </trkpt>
      <trkpt lat="42.9852" lon="-0.2294">
        <ele>1515.6</ele>
        <time>2021-08-28T08:45:39Z</time>
      </trkpt>
      <trkpt lat="42.9852" lon="-0.22938">
        <ele>1515.6</ele>
        <time>2021-08-28T08:45:40Z</time>
      </trkpt>
      <trkpt lat="42.98519" lon="-0.22936">
        <ele>1515.8</ele>
        <time>2021-08-28T08:45:41Z</time>
      </trkpt>
      <trkpt lat="42.98519" lon="-0.22934">
        <ele>1516</ele>
        <time>2021-08-28T08:45:42Z</time>
      </trkpt>
      <trkpt lat="42.98519" lon="-0.22931">
        <ele>1516.2</ele>
        <time>2021-08-28T08:45:43Z</time>
      </trkpt>
      <trkpt lat="42.98519" lon="-0.22929">
        <ele>1516.2</ele>
        <time>2021-08-28T08:45:44Z</time>
      </trkpt>
      <trkpt lat="42.98519" lon="-0.22926">
        <ele>1516.4</ele>
        <time>2021-08-28T08:45:45Z</time>
      </trkpt>
      <trkpt lat="42.98519" lon="-0.22924">
        <ele>1516.4</ele>
        <time>2021-08-28T08:45:46Z</time>
      </trkpt>
      <trkpt lat="42.9852" lon="-0.22922">
        <ele>1516.6</ele>
        <time>2021-08-28T08:45:47Z</time>
      </trkpt>
      <trkpt lat="42.9852" lon="-0.22919">
        <ele>1516.6</ele>
        <time>2021-08-28T08:45:48Z</time>
      </trkpt>
      <trkpt lat="42.98521" lon="-0.22917">
        <ele>1516.8</ele>
        <time>2021-08-28T08:45:49Z</time>
      </trkpt>
      <trkpt lat="42.98521" lon="-0.22914">
        <ele>1516.8</ele>
        <time>2021-08-28T08:45:50Z</time>
      </trkpt>
      <trkpt lat="42.98521" lon="-0.22912">
        <ele>1517</ele>
        <time>2021-08-28T08:45:51Z</time>
      </trkpt>
      <trkpt lat="42.98522" lon="-0.22909">
        <ele>1517</ele>
        <time>2021-08-28T08:45:52Z</time>
      </trkpt>
      <trkpt lat="42.98523" lon="-0.22907">
        <ele>1517.2</ele>
        <time>2021-08-28T08:45:53Z</time>
      </trkpt>
      <trkpt lat="42.98523" lon="-0.22905">
        <ele>1517.2</ele>
        <time>2021-08-28T08:45:54Z</time>
      </trkpt>
      <trkpt lat="42.98523" lon="-0.22902">
        <ele>1517.4</ele>
        <time>2021-08-28T08:45:55Z</time>
      </trkpt>
      <trkpt lat="42.98523" lon="-0.229">
        <ele>1517.6</ele>
        <time>2021-08-28T08:45:56Z</time>
      </trkpt>
      <trkpt lat="42.98524" lon="-0.22897">
        <ele>1517.6</ele>
        <time>2021-08-28T08:45:57Z</time>
      </trkpt>
      <trkpt lat="42.98524" lon="-0.22895">
        <ele>1517.8</ele>
        <time>2021-08-28T08:45:58Z</time>
      </trkpt>
      <trkpt lat="42.98525" lon="-0.22892">
        <ele>1518</ele>
        <time>2021-08-28T08:45:59Z</time>
      </trkpt>
      <trkpt lat="42.98525" lon="-0.2289">
        <ele>1518.2</ele>
        <time>2021-08-28T08:46:00Z</time>
      </trkpt>
      <trkpt lat="42.98527" lon="-0.22888">
        <ele>1518.2</ele>
        <time>2021-08-28T08:46:01Z</time>
      </trkpt>
      <trkpt lat="42.98527" lon="-0.22886">
        <ele>1518.6</ele>
        <time>2021-08-28T08:46:02Z</time>
      </trkpt>
      <trkpt lat="42.98529" lon="-0.22884">
        <ele>1518.6</ele>
        <time>2021-08-28T08:46:03Z</time>
      </trkpt>
      <trkpt lat="42.9853" lon="-0.22882">
        <ele>1518.8</ele>
        <time>2021-08-28T08:46:04Z</time>
      </trkpt>
      <trkpt lat="42.98531" lon="-0.22879">
        <ele>1518.8</ele>
        <time>2021-08-28T08:46:05Z</time>
      </trkpt>
      <trkpt lat="42.98533" lon="-0.22877">
        <ele>1519</ele>
        <time>2021-08-28T08:46:06Z</time>
      </trkpt>
      <trkpt lat="42.98534" lon="-0.22875">
        <ele>1519.2</ele>
        <time>2021-08-28T08:46:07Z</time>
      </trkpt>
      <trkpt lat="42.98536" lon="-0.22873">
        <ele>1519.4</ele>
        <time>2021-08-28T08:46:08Z</time>
      </trkpt>
      <trkpt lat="42.98538" lon="-0.22871">
        <ele>1519.4</ele>
        <time>2021-08-28T08:46:09Z</time>
      </trkpt>
      <trkpt lat="42.9854" lon="-0.2287">
        <ele>1519.4</ele>
        <time>2021-08-28T08:46:10Z</time>
      </trkpt>
      <trkpt lat="42.98541" lon="-0.22868">
        <ele>1519.6</ele>
        <time>2021-08-28T08:46:11Z</time>
      </trkpt>
      <trkpt lat="42.98543" lon="-0.22867">
        <ele>1519.8</ele>
        <time>2021-08-28T08:46:12Z</time>
      </trkpt>
      <trkpt lat="42.98545" lon="-0.22865">
        <ele>1519.8</ele>
        <time>2021-08-28T08:46:13Z</time>
      </trkpt>
      <trkpt lat="42.98547" lon="-0.22864">
        <ele>1519.8</ele>
        <time>2021-08-28T08:46:14Z</time>
      </trkpt>
      <trkpt lat="42.98548" lon="-0.22862">
        <ele>1520</ele>
        <time>2021-08-28T08:46:15Z</time>
      </trkpt>
      <trkpt lat="42.9855" lon="-0.22861">
        <ele>1520</ele>
        <time>2021-08-28T08:46:16Z</time>
      </trkpt>
      <trkpt lat="42.98552" lon="-0.2286">
        <ele>1520</ele>
        <time>2021-08-28T08:46:17Z</time>
      </trkpt>
      <trkpt lat="42.98554" lon="-0.22858">
        <ele>1520</ele>
        <time>2021-08-28T08:46:18Z</time>
      </trkpt>
      <trkpt lat="42.98556" lon="-0.22856">
        <ele>1520</ele>
        <time>2021-08-28T08:46:19Z</time>
      </trkpt>
      <trkpt lat="42.98558" lon="-0.22855">
        <ele>1520</ele>
        <time>2021-08-28T08:46:20Z</time>
      </trkpt>
      <trkpt lat="42.9856" lon="-0.22853">
        <ele>1520</ele>
        <time>2021-08-28T08:46:21Z</time>
      </trkpt>
      <trkpt lat="42.98562" lon="-0.22852">
        <ele>1520</ele>
        <time>2021-08-28T08:46:22Z</time>
      </trkpt>
      <trkpt lat="42.98564" lon="-0.22851">
        <ele>1520.2</ele>
        <time>2021-08-28T08:46:23Z</time>
      </trkpt>
      <trkpt lat="42.98566" lon="-0.22849">
        <ele>1520.2</ele>
        <time>2021-08-28T08:46:24Z</time>
      </trkpt>
      <trkpt lat="42.98568" lon="-0.22848">
        <ele>1520.4</ele>
        <time>2021-08-28T08:46:25Z</time>
      </trkpt>
      <trkpt lat="42.98574" lon="-0.22845">
        <ele>1520.4</ele>
        <time>2021-08-28T08:46:28Z</time>
      </trkpt>
      <trkpt lat="42.98575" lon="-0.22845">
        <ele>1520.4</ele>
        <time>2021-08-28T08:46:29Z</time>
      </trkpt>
      <trkpt lat="42.98576" lon="-0.22844">
        <ele>1520.4</ele>
        <time>2021-08-28T08:46:30Z</time>
      </trkpt>
      <trkpt lat="42.98577" lon="-0.22844">
        <ele>1520.4</ele>
        <time>2021-08-28T08:46:31Z</time>
      </trkpt>
      <trkpt lat="42.98578" lon="-0.22843">
        <ele>1520.4</ele>
        <time>2021-08-28T08:46:32Z</time>
      </trkpt>
      <trkpt lat="42.98578" lon="-0.22843">
        <ele>1520.6</ele>
        <time>2021-08-28T08:46:37Z</time>
      </trkpt>
      <trkpt lat="42.98584" lon="-0.22839">
        <ele>1520.4</ele>
        <time>2021-08-28T08:47:07Z</time>
      </trkpt>
      <trkpt lat="42.98587" lon="-0.22837">
        <ele>1520.4</ele>
        <time>2021-08-28T08:47:09Z</time>
      </trkpt>
      <trkpt lat="42.98598" lon="-0.22833">
        <ele>1520.4</ele>
        <time>2021-08-28T08:47:15Z</time>
      </trkpt>
      <trkpt lat="42.98612" lon="-0.22828">
        <ele>1521</ele>
        <time>2021-08-28T08:47:22Z</time>
      </trkpt>
      <trkpt lat="42.98614" lon="-0.22827">
        <ele>1521.2</ele>
        <time>2021-08-28T08:47:23Z</time>
      </trkpt>
      <trkpt lat="42.98621" lon="-0.22826">
        <ele>1521.6</ele>
        <time>2021-08-28T08:47:27Z</time>
      </trkpt>
      <trkpt lat="42.98624" lon="-0.22826">
        <ele>1521.8</ele>
        <time>2021-08-28T08:47:29Z</time>
      </trkpt>
      <trkpt lat="42.98626" lon="-0.22826">
        <ele>1522</ele>
        <time>2021-08-28T08:47:30Z</time>
      </trkpt>
      <trkpt lat="42.98632" lon="-0.22825">
        <ele>1522.2</ele>
        <time>2021-08-28T08:47:33Z</time>
      </trkpt>
      <trkpt lat="42.98638" lon="-0.22825">
        <ele>1522.4</ele>
        <time>2021-08-28T08:47:36Z</time>
      </trkpt>
      <trkpt lat="42.98644" lon="-0.22825">
        <ele>1522.6</ele>
        <time>2021-08-28T08:47:39Z</time>
      </trkpt>
      <trkpt lat="42.98647" lon="-0.22825">
        <ele>1522.8</ele>
        <time>2021-08-28T08:47:41Z</time>
      </trkpt>
      <trkpt lat="42.98656" lon="-0.22825">
        <ele>1523.2</ele>
        <time>2021-08-28T08:47:45Z</time>
      </trkpt>
      <trkpt lat="42.98662" lon="-0.22825">
        <ele>1523.6</ele>
        <time>2021-08-28T08:47:48Z</time>
      </trkpt>
      <trkpt lat="42.98678" lon="-0.22822">
        <ele>1524</ele>
        <time>2021-08-28T08:47:55Z</time>
      </trkpt>
      <trkpt lat="42.98693" lon="-0.2281">
        <ele>1524</ele>
        <time>2021-08-28T08:48:02Z</time>
      </trkpt>
      <trkpt lat="42.98695" lon="-0.22807">
        <ele>1524</ele>
        <time>2021-08-28T08:48:03Z</time>
      </trkpt>
      <trkpt lat="42.98696" lon="-0.22805">
        <ele>1524</ele>
        <time>2021-08-28T08:48:04Z</time>
      </trkpt>
      <trkpt lat="42.98704" lon="-0.22782">
        <ele>1524</ele>
        <time>2021-08-28T08:48:10Z</time>
      </trkpt>
      <trkpt lat="42.98709" lon="-0.22775">
        <ele>1524</ele>
        <time>2021-08-28T08:48:12Z</time>
      </trkpt>
      <trkpt lat="42.98711" lon="-0.22773">
        <ele>1524</ele>
        <time>2021-08-28T08:48:13Z</time>
      </trkpt>
      <trkpt lat="42.9872" lon="-0.22764">
        <ele>1523.8</ele>
        <time>2021-08-28T08:48:16Z</time>
      </trkpt>
      <trkpt lat="42.98741" lon="-0.22753">
        <ele>1523.6</ele>
        <time>2021-08-28T08:48:21Z</time>
      </trkpt>
      <trkpt lat="42.98745" lon="-0.22752">
        <ele>1523.6</ele>
        <time>2021-08-28T08:48:22Z</time>
      </trkpt>
      <trkpt lat="42.98767" lon="-0.22748">
        <ele>1523.4</ele>
        <time>2021-08-28T08:48:27Z</time>
      </trkpt>
      <trkpt lat="42.98779" lon="-0.22742">
        <ele>1523.2</ele>
        <time>2021-08-28T08:48:30Z</time>
      </trkpt>
      <trkpt lat="42.98787" lon="-0.22737">
        <ele>1523.2</ele>
        <time>2021-08-28T08:48:32Z</time>
      </trkpt>
      <trkpt lat="42.98791" lon="-0.22735">
        <ele>1523.2</ele>
        <time>2021-08-28T08:48:33Z</time>
      </trkpt>
      <trkpt lat="42.98818" lon="-0.22719">
        <ele>1522.8</ele>
        <time>2021-08-28T08:48:39Z</time>
      </trkpt>
      <trkpt lat="42.98842" lon="-0.22704">
        <ele>1522.6</ele>
        <time>2021-08-28T08:48:45Z</time>
      </trkpt>
      <trkpt lat="42.98857" lon="-0.22699">
        <ele>1522.4</ele>
        <time>2021-08-28T08:48:48Z</time>
      </trkpt>
      <trkpt lat="42.98872" lon="-0.22695">
        <ele>1522.4</ele>
        <time>2021-08-28T08:48:51Z</time>
      </trkpt>
      <trkpt lat="42.98888" lon="-0.22691">
        <ele>1522.2</ele>
        <time>2021-08-28T08:48:54Z</time>
      </trkpt>
      <trkpt lat="42.98909" lon="-0.22683">
        <ele>1521.8</ele>
        <time>2021-08-28T08:48:58Z</time>
      </trkpt>
      <trkpt lat="42.98924" lon="-0.22676">
        <ele>1521.2</ele>
        <time>2021-08-28T08:49:01Z</time>
      </trkpt>
      <trkpt lat="42.98939" lon="-0.2267">
        <ele>1520.6</ele>
        <time>2021-08-28T08:49:04Z</time>
      </trkpt>
      <trkpt lat="42.98944" lon="-0.2267">
        <ele>1520.4</ele>
        <time>2021-08-28T08:49:05Z</time>
      </trkpt>
      <trkpt lat="42.9895" lon="-0.2267">
        <ele>1520.4</ele>
        <time>2021-08-28T08:49:06Z</time>
      </trkpt>
      <trkpt lat="42.98955" lon="-0.22671">
        <ele>1520.4</ele>
        <time>2021-08-28T08:49:07Z</time>
      </trkpt>
      <trkpt lat="42.9896" lon="-0.22672">
        <ele>1520.2</ele>
        <time>2021-08-28T08:49:08Z</time>
      </trkpt>
      <trkpt lat="42.98965" lon="-0.22674">
        <ele>1520</ele>
        <time>2021-08-28T08:49:09Z</time>
      </trkpt>
      <trkpt lat="42.9897" lon="-0.22675">
        <ele>1520.2</ele>
        <time>2021-08-28T08:49:10Z</time>
      </trkpt>
      <trkpt lat="42.98993" lon="-0.22688">
        <ele>1519.4</ele>
        <time>2021-08-28T08:49:14Z</time>
      </trkpt>
      <trkpt lat="42.98998" lon="-0.22692">
        <ele>1519.2</ele>
        <time>2021-08-28T08:49:15Z</time>
      </trkpt>
      <trkpt lat="42.99004" lon="-0.22696">
        <ele>1519.2</ele>
        <time>2021-08-28T08:49:16Z</time>
      </trkpt>
      <trkpt lat="42.9901" lon="-0.22701">
        <ele>1519</ele>
        <time>2021-08-28T08:49:17Z</time>
      </trkpt>
      <trkpt lat="42.99029" lon="-0.22711">
        <ele>1518.6</ele>
        <time>2021-08-28T08:49:20Z</time>
      </trkpt>
      <trkpt lat="42.99036" lon="-0.22713">
        <ele>1518</ele>
        <time>2021-08-28T08:49:21Z</time>
      </trkpt>
      <trkpt lat="42.99045" lon="-0.22715">
        <ele>1517.8</ele>
        <time>2021-08-28T08:49:22Z</time>
      </trkpt>
      <trkpt lat="42.99051" lon="-0.22714">
        <ele>1517.6</ele>
        <time>2021-08-28T08:49:23Z</time>
      </trkpt>
      <trkpt lat="42.99059" lon="-0.22712">
        <ele>1517.4</ele>
        <time>2021-08-28T08:49:24Z</time>
      </trkpt>
      <trkpt lat="42.99066" lon="-0.22709">
        <ele>1516.8</ele>
        <time>2021-08-28T08:49:25Z</time>
      </trkpt>
      <trkpt lat="42.99073" lon="-0.22704">
        <ele>1516.6</ele>
        <time>2021-08-28T08:49:26Z</time>
      </trkpt>
      <trkpt lat="42.99084" lon="-0.22696">
        <ele>1515.4</ele>
        <time>2021-08-28T08:49:28Z</time>
      </trkpt>
      <trkpt lat="42.99096" lon="-0.22686">
        <ele>1514.8</ele>
        <time>2021-08-28T08:49:30Z</time>
      </trkpt>
      <trkpt lat="42.99101" lon="-0.22681">
        <ele>1514.8</ele>
        <time>2021-08-28T08:49:31Z</time>
      </trkpt>
      <trkpt lat="42.99106" lon="-0.22676">
        <ele>1514.8</ele>
        <time>2021-08-28T08:49:32Z</time>
      </trkpt>
      <trkpt lat="42.99111" lon="-0.22672">
        <ele>1514.6</ele>
        <time>2021-08-28T08:49:33Z</time>
      </trkpt>
      <trkpt lat="42.99115" lon="-0.22667">
        <ele>1514.4</ele>
        <time>2021-08-28T08:49:34Z</time>
      </trkpt>
      <trkpt lat="42.99119" lon="-0.22663">
        <ele>1514.4</ele>
        <time>2021-08-28T08:49:35Z</time>
      </trkpt>
      <trkpt lat="42.99123" lon="-0.22659">
        <ele>1514.6</ele>
        <time>2021-08-28T08:49:36Z</time>
      </trkpt>
      <trkpt lat="42.99127" lon="-0.22655">
        <ele>1514.6</ele>
        <time>2021-08-28T08:49:37Z</time>
      </trkpt>
      <trkpt lat="42.9913" lon="-0.22651">
        <ele>1514.6</ele>
        <time>2021-08-28T08:49:38Z</time>
      </trkpt>
      <trkpt lat="42.99132" lon="-0.22648">
        <ele>1514.8</ele>
        <time>2021-08-28T08:49:39Z</time>
      </trkpt>
      <trkpt lat="42.99134" lon="-0.22645">
        <ele>1514.8</ele>
        <time>2021-08-28T08:49:40Z</time>
      </trkpt>
      <trkpt lat="42.99136" lon="-0.22642">
        <ele>1514.8</ele>
        <time>2021-08-28T08:49:41Z</time>
      </trkpt>
      <trkpt lat="42.99139" lon="-0.22639">
        <ele>1515</ele>
        <time>2021-08-28T08:49:42Z</time>
      </trkpt>
      <trkpt lat="42.99141" lon="-0.22636">
        <ele>1515</ele>
        <time>2021-08-28T08:49:43Z</time>
      </trkpt>
      <trkpt lat="42.99145" lon="-0.22625">
        <ele>1515.4</ele>
        <time>2021-08-28T08:49:46Z</time>
      </trkpt>
      <trkpt lat="42.99147" lon="-0.22621">
        <ele>1515.4</ele>
        <time>2021-08-28T08:49:47Z</time>
      </trkpt>
      <trkpt lat="42.99147" lon="-0.22616">
        <ele>1515.6</ele>
        <time>2021-08-28T08:49:48Z</time>
      </trkpt>
      <trkpt lat="42.99149" lon="-0.22604">
        <ele>1516.2</ele>
        <time>2021-08-28T08:49:51Z</time>
      </trkpt>
      <trkpt lat="42.99149" lon="-0.22599">
        <ele>1516.4</ele>
        <time>2021-08-28T08:49:52Z</time>
      </trkpt>
      <trkpt lat="42.99148" lon="-0.2259">
        <ele>1517</ele>
        <time>2021-08-28T08:49:54Z</time>
      </trkpt>
      <trkpt lat="42.99145" lon="-0.22576">
        <ele>1517.6</ele>
        <time>2021-08-28T08:49:57Z</time>
      </trkpt>
      <trkpt lat="42.99137" lon="-0.22561">
        <ele>1517.8</ele>
        <time>2021-08-28T08:50:00Z</time>
      </trkpt>
      <trkpt lat="42.99135" lon="-0.22556">
        <ele>1518</ele>
        <time>2021-08-28T08:50:01Z</time>
      </trkpt>
      <trkpt lat="42.9912" lon="-0.22537">
        <ele>1518</ele>
        <time>2021-08-28T08:50:06Z</time>
      </trkpt>
      <trkpt lat="42.99117" lon="-0.22534">
        <ele>1518</ele>
        <time>2021-08-28T08:50:07Z</time>
      </trkpt>
      <trkpt lat="42.99114" lon="-0.2253">
        <ele>1518</ele>
        <time>2021-08-28T08:50:08Z</time>
      </trkpt>
      <trkpt lat="42.99111" lon="-0.22526">
        <ele>1518.2</ele>
        <time>2021-08-28T08:50:09Z</time>
      </trkpt>
      <trkpt lat="42.99104" lon="-0.22513">
        <ele>1518.2</ele>
        <time>2021-08-28T08:50:12Z</time>
      </trkpt>
      <trkpt lat="42.99102" lon="-0.22508">
        <ele>1518.2</ele>
        <time>2021-08-28T08:50:13Z</time>
      </trkpt>
      <trkpt lat="42.99097" lon="-0.22483">
        <ele>1518.2</ele>
        <time>2021-08-28T08:50:17Z</time>
      </trkpt>
      <trkpt lat="42.9909" lon="-0.22454">
        <ele>1518.2</ele>
        <time>2021-08-28T08:50:22Z</time>
      </trkpt>
      <trkpt lat="42.99089" lon="-0.22449">
        <ele>1518.2</ele>
        <time>2021-08-28T08:50:23Z</time>
      </trkpt>
      <trkpt lat="42.99087" lon="-0.22444">
        <ele>1518.2</ele>
        <time>2021-08-28T08:50:24Z</time>
      </trkpt>
      <trkpt lat="42.99086" lon="-0.2244">
        <ele>1518.4</ele>
        <time>2021-08-28T08:50:25Z</time>
      </trkpt>
      <trkpt lat="42.99084" lon="-0.22437">
        <ele>1518.4</ele>
        <time>2021-08-28T08:50:26Z</time>
      </trkpt>
      <trkpt lat="42.99083" lon="-0.22434">
        <ele>1518.6</ele>
        <time>2021-08-28T08:50:27Z</time>
      </trkpt>
      <trkpt lat="42.99081" lon="-0.22429">
        <ele>1518.8</ele>
        <time>2021-08-28T08:50:28Z</time>
      </trkpt>
      <trkpt lat="42.9908" lon="-0.22426">
        <ele>1519</ele>
        <time>2021-08-28T08:50:29Z</time>
      </trkpt>
      <trkpt lat="42.99077" lon="-0.22419">
        <ele>1519.8</ele>
        <time>2021-08-28T08:50:31Z</time>
      </trkpt>
      <trkpt lat="42.99076" lon="-0.22416">
        <ele>1520</ele>
        <time>2021-08-28T08:50:32Z</time>
      </trkpt>
      <trkpt lat="42.99073" lon="-0.22408">
        <ele>1520.6</ele>
        <time>2021-08-28T08:50:34Z</time>
      </trkpt>
      <trkpt lat="42.99072" lon="-0.22405">
        <ele>1520.8</ele>
        <time>2021-08-28T08:50:35Z</time>
      </trkpt>
      <trkpt lat="42.99068" lon="-0.22393">
        <ele>1521.2</ele>
        <time>2021-08-28T08:50:38Z</time>
      </trkpt>
      <trkpt lat="42.99067" lon="-0.2239">
        <ele>1521.4</ele>
        <time>2021-08-28T08:50:39Z</time>
      </trkpt>
      <trkpt lat="42.99066" lon="-0.22388">
        <ele>1521.4</ele>
        <time>2021-08-28T08:50:40Z</time>
      </trkpt>
      <trkpt lat="42.99066" lon="-0.22387">
        <ele>1521.6</ele>
        <time>2021-08-28T08:50:41Z</time>
      </trkpt>
      <trkpt lat="42.99066" lon="-0.22387">
        <ele>1521.8</ele>
        <time>2021-08-28T08:50:49Z</time>
      </trkpt>
      <trkpt lat="42.99066" lon="-0.22387">
        <ele>1521.8</ele>
        <time>2021-08-28T08:50:50Z</time>
      </trkpt>
      <trkpt lat="42.99066" lon="-0.22387">
        <ele>1521.8</ele>
        <time>2021-08-28T08:51:02Z</time>
      </trkpt>
      <trkpt lat="42.99066" lon="-0.22385">
        <ele>1522</ele>
        <time>2021-08-28T08:51:03Z</time>
      </trkpt>
      <trkpt lat="42.99065" lon="-0.22381">
        <ele>1522</ele>
        <time>2021-08-28T08:51:05Z</time>
      </trkpt>
      <trkpt lat="42.9906" lon="-0.22362">
        <ele>1521.8</ele>
        <time>2021-08-28T08:51:10Z</time>
      </trkpt>
      <trkpt lat="42.99059" lon="-0.22358">
        <ele>1521.8</ele>
        <time>2021-08-28T08:51:11Z</time>
      </trkpt>
      <trkpt lat="42.99051" lon="-0.22341">
        <ele>1521.6</ele>
        <time>2021-08-28T08:51:16Z</time>
      </trkpt>
      <trkpt lat="42.99043" lon="-0.22318">
        <ele>1521.8</ele>
        <time>2021-08-28T08:51:21Z</time>
      </trkpt>
      <trkpt lat="42.99042" lon="-0.22314">
        <ele>1521.8</ele>
        <time>2021-08-28T08:51:22Z</time>
      </trkpt>
      <trkpt lat="42.99033" lon="-0.22303">
        <ele>1521.8</ele>
        <time>2021-08-28T08:51:24Z</time>
      </trkpt>
      <trkpt lat="42.99029" lon="-0.22298">
        <ele>1521.8</ele>
        <time>2021-08-28T08:51:25Z</time>
      </trkpt>
      <trkpt lat="42.99025" lon="-0.22295">
        <ele>1521.8</ele>
        <time>2021-08-28T08:51:26Z</time>
      </trkpt>
      <trkpt lat="42.99021" lon="-0.22291">
        <ele>1521.4</ele>
        <time>2021-08-28T08:51:27Z</time>
      </trkpt>
      <trkpt lat="42.99013" lon="-0.22281">
        <ele>1521.2</ele>
        <time>2021-08-28T08:51:29Z</time>
      </trkpt>
      <trkpt lat="42.99006" lon="-0.22276">
        <ele>1521</ele>
        <time>2021-08-28T08:51:30Z</time>
      </trkpt>
      <trkpt lat="42.98998" lon="-0.22273">
        <ele>1521</ele>
        <time>2021-08-28T08:51:31Z</time>
      </trkpt>
      <trkpt lat="42.98993" lon="-0.22268">
        <ele>1520.8</ele>
        <time>2021-08-28T08:51:32Z</time>
      </trkpt>
      <trkpt lat="42.9899" lon="-0.22263">
        <ele>1520.8</ele>
        <time>2021-08-28T08:51:33Z</time>
      </trkpt>
      <trkpt lat="42.98988" lon="-0.22259">
        <ele>1520.8</ele>
        <time>2021-08-28T08:51:34Z</time>
      </trkpt>
      <trkpt lat="42.98986" lon="-0.22254">
        <ele>1520.8</ele>
        <time>2021-08-28T08:51:35Z</time>
      </trkpt>
      <trkpt lat="42.98984" lon="-0.2225">
        <ele>1520.8</ele>
        <time>2021-08-28T08:51:36Z</time>
      </trkpt>
      <trkpt lat="42.9898" lon="-0.22243">
        <ele>1521</ele>
        <time>2021-08-28T08:51:37Z</time>
      </trkpt>
      <trkpt lat="42.98966" lon="-0.22226">
        <ele>1521.2</ele>
        <time>2021-08-28T08:51:40Z</time>
      </trkpt>
      <trkpt lat="42.98963" lon="-0.22223">
        <ele>1521.2</ele>
        <time>2021-08-28T08:51:41Z</time>
      </trkpt>
      <trkpt lat="42.9896" lon="-0.22218">
        <ele>1521.2</ele>
        <time>2021-08-28T08:51:42Z</time>
      </trkpt>
      <trkpt lat="42.98955" lon="-0.22212">
        <ele>1521.2</ele>
        <time>2021-08-28T08:51:43Z</time>
      </trkpt>
      <trkpt lat="42.98939" lon="-0.22201">
        <ele>1521.4</ele>
        <time>2021-08-28T08:51:46Z</time>
      </trkpt>
      <trkpt lat="42.98925" lon="-0.22194">
        <ele>1521.2</ele>
        <time>2021-08-28T08:51:48Z</time>
      </trkpt>
      <trkpt lat="42.98911" lon="-0.22189">
        <ele>1521.2</ele>
        <time>2021-08-28T08:51:50Z</time>
      </trkpt>
      <trkpt lat="42.98899" lon="-0.22187">
        <ele>1521</ele>
        <time>2021-08-28T08:51:52Z</time>
      </trkpt>
      <trkpt lat="42.98895" lon="-0.22186">
        <ele>1521</ele>
        <time>2021-08-28T08:51:53Z</time>
      </trkpt>
      <trkpt lat="42.98889" lon="-0.22184">
        <ele>1520.8</ele>
        <time>2021-08-28T08:51:54Z</time>
      </trkpt>
      <trkpt lat="42.98884" lon="-0.22181">
        <ele>1520.6</ele>
        <time>2021-08-28T08:51:55Z</time>
      </trkpt>
      <trkpt lat="42.9888" lon="-0.22176">
        <ele>1520.6</ele>
        <time>2021-08-28T08:51:56Z</time>
      </trkpt>
      <trkpt lat="42.98875" lon="-0.22168">
        <ele>1520.4</ele>
        <time>2021-08-28T08:51:57Z</time>
      </trkpt>
      <trkpt lat="42.98872" lon="-0.2216">
        <ele>1520.4</ele>
        <time>2021-08-28T08:51:58Z</time>
      </trkpt>
      <trkpt lat="42.98871" lon="-0.22153">
        <ele>1520.4</ele>
        <time>2021-08-28T08:51:59Z</time>
      </trkpt>
      <trkpt lat="42.98868" lon="-0.22144">
        <ele>1520.4</ele>
        <time>2021-08-28T08:52:00Z</time>
      </trkpt>
      <trkpt lat="42.98866" lon="-0.22135">
        <ele>1520</ele>
        <time>2021-08-28T08:52:01Z</time>
      </trkpt>
      <trkpt lat="42.98866" lon="-0.22106">
        <ele>1520</ele>
        <time>2021-08-28T08:52:04Z</time>
      </trkpt>
      <trkpt lat="42.98865" lon="-0.22096">
        <ele>1520</ele>
        <time>2021-08-28T08:52:05Z</time>
      </trkpt>
      <trkpt lat="42.98861" lon="-0.22072">
        <ele>1519.8</ele>
        <time>2021-08-28T08:52:08Z</time>
      </trkpt>
      <trkpt lat="42.9886" lon="-0.22063">
        <ele>1520</ele>
        <time>2021-08-28T08:52:09Z</time>
      </trkpt>
      <trkpt lat="42.98859" lon="-0.22055">
        <ele>1520.2</ele>
        <time>2021-08-28T08:52:10Z</time>
      </trkpt>
      <trkpt lat="42.98859" lon="-0.22047">
        <ele>1520</ele>
        <time>2021-08-28T08:52:11Z</time>
      </trkpt>
      <trkpt lat="42.98859" lon="-0.2204">
        <ele>1520.2</ele>
        <time>2021-08-28T08:52:12Z</time>
      </trkpt>
      <trkpt lat="42.98859" lon="-0.22032">
        <ele>1520.2</ele>
        <time>2021-08-28T08:52:13Z</time>
      </trkpt>
      <trkpt lat="42.98859" lon="-0.22025">
        <ele>1520.2</ele>
        <time>2021-08-28T08:52:14Z</time>
      </trkpt>
      <trkpt lat="42.9886" lon="-0.22017">
        <ele>1520.2</ele>
        <time>2021-08-28T08:52:15Z</time>
      </trkpt>
      <trkpt lat="42.98861" lon="-0.22011">
        <ele>1520.4</ele>
        <time>2021-08-28T08:52:16Z</time>
      </trkpt>
      <trkpt lat="42.98862" lon="-0.22003">
        <ele>1520.4</ele>
        <time>2021-08-28T08:52:17Z</time>
      </trkpt>
      <trkpt lat="42.98871" lon="-0.21955">
        <ele>1520.4</ele>
        <time>2021-08-28T08:52:22Z</time>
      </trkpt>
      <trkpt lat="42.98883" lon="-0.21898">
        <ele>1518.8</ele>
        <time>2021-08-28T08:52:27Z</time>
      </trkpt>
      <trkpt lat="42.98886" lon="-0.21887">
        <ele>1518</ele>
        <time>2021-08-28T08:52:28Z</time>
      </trkpt>
      <trkpt lat="42.98889" lon="-0.21877">
        <ele>1517.4</ele>
        <time>2021-08-28T08:52:29Z</time>
      </trkpt>
      <trkpt lat="42.98894" lon="-0.21859">
        <ele>1516.4</ele>
        <time>2021-08-28T08:52:31Z</time>
      </trkpt>
      <trkpt lat="42.98895" lon="-0.21847">
        <ele>1516.2</ele>
        <time>2021-08-28T08:52:32Z</time>
      </trkpt>
      <trkpt lat="42.98895" lon="-0.21836">
        <ele>1515.2</ele>
        <time>2021-08-28T08:52:33Z</time>
      </trkpt>
      <trkpt lat="42.98894" lon="-0.21828">
        <ele>1514.8</ele>
        <time>2021-08-28T08:52:34Z</time>
      </trkpt>
      <trkpt lat="42.98892" lon="-0.21817">
        <ele>1514.2</ele>
        <time>2021-08-28T08:52:35Z</time>
      </trkpt>
      <trkpt lat="42.98891" lon="-0.21807">
        <ele>1513.8</ele>
        <time>2021-08-28T08:52:36Z</time>
      </trkpt>
      <trkpt lat="42.98889" lon="-0.21786">
        <ele>1512.2</ele>
        <time>2021-08-28T08:52:38Z</time>
      </trkpt>
      <trkpt lat="42.98887" lon="-0.21751">
        <ele>1511.2</ele>
        <time>2021-08-28T08:52:41Z</time>
      </trkpt>
      <trkpt lat="42.98888" lon="-0.21739">
        <ele>1510.8</ele>
        <time>2021-08-28T08:52:42Z</time>
      </trkpt>
      <trkpt lat="42.98887" lon="-0.21725">
        <ele>1510.6</ele>
        <time>2021-08-28T08:52:43Z</time>
      </trkpt>
      <trkpt lat="42.98886" lon="-0.21715">
        <ele>1509.8</ele>
        <time>2021-08-28T08:52:44Z</time>
      </trkpt>
      <trkpt lat="42.98883" lon="-0.21703">
        <ele>1509.4</ele>
        <time>2021-08-28T08:52:45Z</time>
      </trkpt>
      <trkpt lat="42.98878" lon="-0.21689">
        <ele>1508.6</ele>
        <time>2021-08-28T08:52:46Z</time>
      </trkpt>
      <trkpt lat="42.98869" lon="-0.21668">
        <ele>1507.6</ele>
        <time>2021-08-28T08:52:48Z</time>
      </trkpt>
      <trkpt lat="42.98864" lon="-0.21661">
        <ele>1507.2</ele>
        <time>2021-08-28T08:52:49Z</time>
      </trkpt>
      <trkpt lat="42.98858" lon="-0.21653">
        <ele>1506.4</ele>
        <time>2021-08-28T08:52:50Z</time>
      </trkpt>
      <trkpt lat="42.98852" lon="-0.21649">
        <ele>1505.8</ele>
        <time>2021-08-28T08:52:51Z</time>
      </trkpt>
      <trkpt lat="42.98845" lon="-0.21649">
        <ele>1505</ele>
        <time>2021-08-28T08:52:52Z</time>
      </trkpt>
      <trkpt lat="42.98838" lon="-0.21652">
        <ele>1504.8</ele>
        <time>2021-08-28T08:52:53Z</time>
      </trkpt>
      <trkpt lat="42.98824" lon="-0.21658">
        <ele>1504.4</ele>
        <time>2021-08-28T08:52:55Z</time>
      </trkpt>
      <trkpt lat="42.98816" lon="-0.21663">
        <ele>1504</ele>
        <time>2021-08-28T08:52:56Z</time>
      </trkpt>
      <trkpt lat="42.9881" lon="-0.21666">
        <ele>1503.2</ele>
        <time>2021-08-28T08:52:57Z</time>
      </trkpt>
      <trkpt lat="42.98794" lon="-0.21672">
        <ele>1502.4</ele>
        <time>2021-08-28T08:52:59Z</time>
      </trkpt>
      <trkpt lat="42.98775" lon="-0.21675">
        <ele>1500.8</ele>
        <time>2021-08-28T08:53:01Z</time>
      </trkpt>
      <trkpt lat="42.98738" lon="-0.21671">
        <ele>1499.2</ele>
        <time>2021-08-28T08:53:05Z</time>
      </trkpt>
      <trkpt lat="42.98729" lon="-0.21669">
        <ele>1498.8</ele>
        <time>2021-08-28T08:53:06Z</time>
      </trkpt>
      <trkpt lat="42.98719" lon="-0.21664">
        <ele>1498.2</ele>
        <time>2021-08-28T08:53:07Z</time>
      </trkpt>
      <trkpt lat="42.98693" lon="-0.21652">
        <ele>1497.2</ele>
        <time>2021-08-28T08:53:10Z</time>
      </trkpt>
      <trkpt lat="42.98684" lon="-0.2165">
        <ele>1496.4</ele>
        <time>2021-08-28T08:53:11Z</time>
      </trkpt>
      <trkpt lat="42.98677" lon="-0.2165">
        <ele>1496</ele>
        <time>2021-08-28T08:53:12Z</time>
      </trkpt>
      <trkpt lat="42.98666" lon="-0.21652">
        <ele>1494</ele>
        <time>2021-08-28T08:53:13Z</time>
      </trkpt>
      <trkpt lat="42.98655" lon="-0.21654">
        <ele>1493.6</ele>
        <time>2021-08-28T08:53:14Z</time>
      </trkpt>
      <trkpt lat="42.98647" lon="-0.21657">
        <ele>1492.8</ele>
        <time>2021-08-28T08:53:15Z</time>
      </trkpt>
      <trkpt lat="42.9864" lon="-0.2166">
        <ele>1492.2</ele>
        <time>2021-08-28T08:53:16Z</time>
      </trkpt>
      <trkpt lat="42.98634" lon="-0.21662">
        <ele>1491.8</ele>
        <time>2021-08-28T08:53:17Z</time>
      </trkpt>
      <trkpt lat="42.98629" lon="-0.21663">
        <ele>1490.8</ele>
        <time>2021-08-28T08:53:18Z</time>
      </trkpt>
      <trkpt lat="42.98625" lon="-0.21664">
        <ele>1490.2</ele>
        <time>2021-08-28T08:53:19Z</time>
      </trkpt>
      <trkpt lat="42.98622" lon="-0.21662">
        <ele>1489.6</ele>
        <time>2021-08-28T08:53:20Z</time>
      </trkpt>
      <trkpt lat="42.98619" lon="-0.21659">
        <ele>1489.2</ele>
        <time>2021-08-28T08:53:21Z</time>
      </trkpt>
      <trkpt lat="42.98618" lon="-0.21653">
        <ele>1488.8</ele>
        <time>2021-08-28T08:53:22Z</time>
      </trkpt>
      <trkpt lat="42.98619" lon="-0.21648">
        <ele>1488.6</ele>
        <time>2021-08-28T08:53:23Z</time>
      </trkpt>
      <trkpt lat="42.98622" lon="-0.21645">
        <ele>1488.2</ele>
        <time>2021-08-28T08:53:24Z</time>
      </trkpt>
      <trkpt lat="42.98638" lon="-0.21639">
        <ele>1486.8</ele>
        <time>2021-08-28T08:53:27Z</time>
      </trkpt>
      <trkpt lat="42.98643" lon="-0.21635">
        <ele>1486.4</ele>
        <time>2021-08-28T08:53:28Z</time>
      </trkpt>
      <trkpt lat="42.98663" lon="-0.21627">
        <ele>1485.6</ele>
        <time>2021-08-28T08:53:31Z</time>
      </trkpt>
      <trkpt lat="42.98668" lon="-0.21626">
        <ele>1485.2</ele>
        <time>2021-08-28T08:53:32Z</time>
      </trkpt>
      <trkpt lat="42.98676" lon="-0.21625">
        <ele>1485.2</ele>
        <time>2021-08-28T08:53:33Z</time>
      </trkpt>
      <trkpt lat="42.98682" lon="-0.21625">
        <ele>1485</ele>
        <time>2021-08-28T08:53:34Z</time>
      </trkpt>
      <trkpt lat="42.98686" lon="-0.21624">
        <ele>1485</ele>
        <time>2021-08-28T08:53:35Z</time>
      </trkpt>
      <trkpt lat="42.98692" lon="-0.21625">
        <ele>1485</ele>
        <time>2021-08-28T08:53:36Z</time>
      </trkpt>
      <trkpt lat="42.98697" lon="-0.21627">
        <ele>1485</ele>
        <time>2021-08-28T08:53:37Z</time>
      </trkpt>
      <trkpt lat="42.98719" lon="-0.21634">
        <ele>1485.8</ele>
        <time>2021-08-28T08:53:41Z</time>
      </trkpt>
      <trkpt lat="42.98726" lon="-0.21634">
        <ele>1485.8</ele>
        <time>2021-08-28T08:53:42Z</time>
      </trkpt>
      <trkpt lat="42.98766" lon="-0.21634">
        <ele>1485.4</ele>
        <time>2021-08-28T08:53:47Z</time>
      </trkpt>
      <trkpt lat="42.98775" lon="-0.2163">
        <ele>1485.2</ele>
        <time>2021-08-28T08:53:48Z</time>
      </trkpt>
      <trkpt lat="42.98792" lon="-0.21626">
        <ele>1484.6</ele>
        <time>2021-08-28T08:53:50Z</time>
      </trkpt>
      <trkpt lat="42.98801" lon="-0.21621">
        <ele>1483.8</ele>
        <time>2021-08-28T08:53:51Z</time>
      </trkpt>
      <trkpt lat="42.98809" lon="-0.21617">
        <ele>1483.4</ele>
        <time>2021-08-28T08:53:52Z</time>
      </trkpt>
      <trkpt lat="42.9883" lon="-0.21597">
        <ele>1482.4</ele>
        <time>2021-08-28T08:53:55Z</time>
      </trkpt>
      <trkpt lat="42.98836" lon="-0.2159">
        <ele>1481.6</ele>
        <time>2021-08-28T08:53:56Z</time>
      </trkpt>
      <trkpt lat="42.98841" lon="-0.21584">
        <ele>1481.2</ele>
        <time>2021-08-28T08:53:57Z</time>
      </trkpt>
      <trkpt lat="42.98846" lon="-0.21581">
        <ele>1481</ele>
        <time>2021-08-28T08:53:58Z</time>
      </trkpt>
      <trkpt lat="42.98853" lon="-0.21576">
        <ele>1480.8</ele>
        <time>2021-08-28T08:53:59Z</time>
      </trkpt>
      <trkpt lat="42.98859" lon="-0.21571">
        <ele>1480</ele>
        <time>2021-08-28T08:54:00Z</time>
      </trkpt>
      <trkpt lat="42.98872" lon="-0.21561">
        <ele>1478.8</ele>
        <time>2021-08-28T08:54:02Z</time>
      </trkpt>
      <trkpt lat="42.98877" lon="-0.21553">
        <ele>1478.4</ele>
        <time>2021-08-28T08:54:03Z</time>
      </trkpt>
      <trkpt lat="42.98881" lon="-0.21543">
        <ele>1477.6</ele>
        <time>2021-08-28T08:54:04Z</time>
      </trkpt>
      <trkpt lat="42.98885" lon="-0.21532">
        <ele>1477.2</ele>
        <time>2021-08-28T08:54:05Z</time>
      </trkpt>
      <trkpt lat="42.98889" lon="-0.2152">
        <ele>1476.8</ele>
        <time>2021-08-28T08:54:06Z</time>
      </trkpt>
      <trkpt lat="42.98891" lon="-0.21511">
        <ele>1476.4</ele>
        <time>2021-08-28T08:54:07Z</time>
      </trkpt>
      <trkpt lat="42.98895" lon="-0.21498">
        <ele>1475.2</ele>
        <time>2021-08-28T08:54:08Z</time>
      </trkpt>
      <trkpt lat="42.98899" lon="-0.21487">
        <ele>1474.4</ele>
        <time>2021-08-28T08:54:09Z</time>
      </trkpt>
      <trkpt lat="42.98903" lon="-0.21476">
        <ele>1473.4</ele>
        <time>2021-08-28T08:54:10Z</time>
      </trkpt>
      <trkpt lat="42.98907" lon="-0.21468">
        <ele>1472.8</ele>
        <time>2021-08-28T08:54:11Z</time>
      </trkpt>
      <trkpt lat="42.98912" lon="-0.21456">
        <ele>1472</ele>
        <time>2021-08-28T08:54:12Z</time>
      </trkpt>
      <trkpt lat="42.98924" lon="-0.21422">
        <ele>1471</ele>
        <time>2021-08-28T08:54:15Z</time>
      </trkpt>
      <trkpt lat="42.98927" lon="-0.21413">
        <ele>1470.4</ele>
        <time>2021-08-28T08:54:16Z</time>
      </trkpt>
      <trkpt lat="42.98931" lon="-0.214">
        <ele>1470.2</ele>
        <time>2021-08-28T08:54:17Z</time>
      </trkpt>
      <trkpt lat="42.98936" lon="-0.21391">
        <ele>1470</ele>
        <time>2021-08-28T08:54:18Z</time>
      </trkpt>
      <trkpt lat="42.98943" lon="-0.21384">
        <ele>1469.2</ele>
        <time>2021-08-28T08:54:19Z</time>
      </trkpt>
      <trkpt lat="42.9895" lon="-0.21379">
        <ele>1469</ele>
        <time>2021-08-28T08:54:20Z</time>
      </trkpt>
      <trkpt lat="42.98959" lon="-0.21375">
        <ele>1468.4</ele>
        <time>2021-08-28T08:54:21Z</time>
      </trkpt>
      <trkpt lat="42.98967" lon="-0.21372">
        <ele>1468</ele>
        <time>2021-08-28T08:54:22Z</time>
      </trkpt>
      <trkpt lat="42.98974" lon="-0.21369">
        <ele>1466.8</ele>
        <time>2021-08-28T08:54:23Z</time>
      </trkpt>
      <trkpt lat="42.9898" lon="-0.21366">
        <ele>1466.4</ele>
        <time>2021-08-28T08:54:24Z</time>
      </trkpt>
      <trkpt lat="42.98986" lon="-0.21361">
        <ele>1465.4</ele>
        <time>2021-08-28T08:54:25Z</time>
      </trkpt>
      <trkpt lat="42.98992" lon="-0.21352">
        <ele>1465</ele>
        <time>2021-08-28T08:54:26Z</time>
      </trkpt>
      <trkpt lat="42.98996" lon="-0.21343">
        <ele>1464.6</ele>
        <time>2021-08-28T08:54:27Z</time>
      </trkpt>
      <trkpt lat="42.99" lon="-0.21332">
        <ele>1464.2</ele>
        <time>2021-08-28T08:54:28Z</time>
      </trkpt>
      <trkpt lat="42.99003" lon="-0.21322">
        <ele>1463.4</ele>
        <time>2021-08-28T08:54:29Z</time>
      </trkpt>
      <trkpt lat="42.99007" lon="-0.21307">
        <ele>1462.8</ele>
        <time>2021-08-28T08:54:30Z</time>
      </trkpt>
      <trkpt lat="42.99009" lon="-0.21293">
        <ele>1462</ele>
        <time>2021-08-28T08:54:31Z</time>
      </trkpt>
      <trkpt lat="42.99013" lon="-0.21281">
        <ele>1461.6</ele>
        <time>2021-08-28T08:54:32Z</time>
      </trkpt>
      <trkpt lat="42.99017" lon="-0.2127">
        <ele>1460.6</ele>
        <time>2021-08-28T08:54:33Z</time>
      </trkpt>
      <trkpt lat="42.99021" lon="-0.21259">
        <ele>1460</ele>
        <time>2021-08-28T08:54:34Z</time>
      </trkpt>
      <trkpt lat="42.99025" lon="-0.21248">
        <ele>1458.4</ele>
        <time>2021-08-28T08:54:35Z</time>
      </trkpt>
      <trkpt lat="42.99029" lon="-0.2124">
        <ele>1457.4</ele>
        <time>2021-08-28T08:54:36Z</time>
      </trkpt>
      <trkpt lat="42.99034" lon="-0.21231">
        <ele>1457</ele>
        <time>2021-08-28T08:54:37Z</time>
      </trkpt>
      <trkpt lat="42.99038" lon="-0.21224">
        <ele>1456.6</ele>
        <time>2021-08-28T08:54:38Z</time>
      </trkpt>
      <trkpt lat="42.99043" lon="-0.21216">
        <ele>1456.4</ele>
        <time>2021-08-28T08:54:39Z</time>
      </trkpt>
      <trkpt lat="42.99047" lon="-0.21209">
        <ele>1456.2</ele>
        <time>2021-08-28T08:54:40Z</time>
      </trkpt>
      <trkpt lat="42.99057" lon="-0.21192">
        <ele>1456.2</ele>
        <time>2021-08-28T08:54:42Z</time>
      </trkpt>
      <trkpt lat="42.9907" lon="-0.21174">
        <ele>1455.4</ele>
        <time>2021-08-28T08:54:44Z</time>
      </trkpt>
      <trkpt lat="42.99076" lon="-0.21165">
        <ele>1455</ele>
        <time>2021-08-28T08:54:45Z</time>
      </trkpt>
      <trkpt lat="42.99081" lon="-0.21157">
        <ele>1454.4</ele>
        <time>2021-08-28T08:54:46Z</time>
      </trkpt>
      <trkpt lat="42.99086" lon="-0.21148">
        <ele>1453.8</ele>
        <time>2021-08-28T08:54:47Z</time>
      </trkpt>
      <trkpt lat="42.9909" lon="-0.21139">
        <ele>1452.8</ele>
        <time>2021-08-28T08:54:48Z</time>
      </trkpt>
      <trkpt lat="42.99094" lon="-0.21131">
        <ele>1452.2</ele>
        <time>2021-08-28T08:54:49Z</time>
      </trkpt>
      <trkpt lat="42.99098" lon="-0.21122">
        <ele>1450.8</ele>
        <time>2021-08-28T08:54:50Z</time>
      </trkpt>
      <trkpt lat="42.991" lon="-0.21113">
        <ele>1450.4</ele>
        <time>2021-08-28T08:54:51Z</time>
      </trkpt>
      <trkpt lat="42.99102" lon="-0.21104">
        <ele>1449.8</ele>
        <time>2021-08-28T08:54:52Z</time>
      </trkpt>
      <trkpt lat="42.99102" lon="-0.21094">
        <ele>1449.2</ele>
        <time>2021-08-28T08:54:53Z</time>
      </trkpt>
      <trkpt lat="42.99102" lon="-0.21085">
        <ele>1448.2</ele>
        <time>2021-08-28T08:54:54Z</time>
      </trkpt>
      <trkpt lat="42.99104" lon="-0.21064">
        <ele>1447</ele>
        <time>2021-08-28T08:54:56Z</time>
      </trkpt>
      <trkpt lat="42.99105" lon="-0.21042">
        <ele>1445.8</ele>
        <time>2021-08-28T08:54:58Z</time>
      </trkpt>
      <trkpt lat="42.99107" lon="-0.2102">
        <ele>1444.4</ele>
        <time>2021-08-28T08:55:00Z</time>
      </trkpt>
      <trkpt lat="42.99107" lon="-0.2101">
        <ele>1443.8</ele>
        <time>2021-08-28T08:55:01Z</time>
      </trkpt>
      <trkpt lat="42.99107" lon="-0.20999">
        <ele>1443.4</ele>
        <time>2021-08-28T08:55:02Z</time>
      </trkpt>
      <trkpt lat="42.99106" lon="-0.2099">
        <ele>1442.6</ele>
        <time>2021-08-28T08:55:03Z</time>
      </trkpt>
      <trkpt lat="42.99104" lon="-0.20981">
        <ele>1442.4</ele>
        <time>2021-08-28T08:55:04Z</time>
      </trkpt>
      <trkpt lat="42.991" lon="-0.20974">
        <ele>1441.8</ele>
        <time>2021-08-28T08:55:05Z</time>
      </trkpt>
      <trkpt lat="42.99096" lon="-0.20968">
        <ele>1441.2</ele>
        <time>2021-08-28T08:55:06Z</time>
      </trkpt>
      <trkpt lat="42.99089" lon="-0.2096">
        <ele>1440</ele>
        <time>2021-08-28T08:55:07Z</time>
      </trkpt>
      <trkpt lat="42.99082" lon="-0.20953">
        <ele>1439.4</ele>
        <time>2021-08-28T08:55:08Z</time>
      </trkpt>
      <trkpt lat="42.99076" lon="-0.20947">
        <ele>1438</ele>
        <time>2021-08-28T08:55:09Z</time>
      </trkpt>
      <trkpt lat="42.99071" lon="-0.20941">
        <ele>1437.2</ele>
        <time>2021-08-28T08:55:10Z</time>
      </trkpt>
      <trkpt lat="42.99066" lon="-0.20933">
        <ele>1436</ele>
        <time>2021-08-28T08:55:11Z</time>
      </trkpt>
      <trkpt lat="42.99061" lon="-0.20924">
        <ele>1435.2</ele>
        <time>2021-08-28T08:55:12Z</time>
      </trkpt>
      <trkpt lat="42.99055" lon="-0.20916">
        <ele>1434</ele>
        <time>2021-08-28T08:55:13Z</time>
      </trkpt>
      <trkpt lat="42.9905" lon="-0.20906">
        <ele>1432.8</ele>
        <time>2021-08-28T08:55:14Z</time>
      </trkpt>
      <trkpt lat="42.99045" lon="-0.20895">
        <ele>1431</ele>
        <time>2021-08-28T08:55:15Z</time>
      </trkpt>
      <trkpt lat="42.99041" lon="-0.20885">
        <ele>1429.8</ele>
        <time>2021-08-28T08:55:16Z</time>
      </trkpt>
      <trkpt lat="42.99037" lon="-0.20874">
        <ele>1428.6</ele>
        <time>2021-08-28T08:55:17Z</time>
      </trkpt>
      <trkpt lat="42.99032" lon="-0.20864">
        <ele>1426.8</ele>
        <time>2021-08-28T08:55:18Z</time>
      </trkpt>
      <trkpt lat="42.99022" lon="-0.20846">
        <ele>1424.2</ele>
        <time>2021-08-28T08:55:20Z</time>
      </trkpt>
      <trkpt lat="42.9902" lon="-0.20838">
        <ele>1423.4</ele>
        <time>2021-08-28T08:55:21Z</time>
      </trkpt>
      <trkpt lat="42.99018" lon="-0.2083">
        <ele>1421.8</ele>
        <time>2021-08-28T08:55:22Z</time>
      </trkpt>
      <trkpt lat="42.99018" lon="-0.20822">
        <ele>1420.6</ele>
        <time>2021-08-28T08:55:23Z</time>
      </trkpt>
      <trkpt lat="42.99018" lon="-0.20813">
        <ele>1418.8</ele>
        <time>2021-08-28T08:55:24Z</time>
      </trkpt>
      <trkpt lat="42.99018" lon="-0.20807">
        <ele>1417.8</ele>
        <time>2021-08-28T08:55:25Z</time>
      </trkpt>
      <trkpt lat="42.99018" lon="-0.20795">
        <ele>1416</ele>
        <time>2021-08-28T08:55:26Z</time>
      </trkpt>
      <trkpt lat="42.99018" lon="-0.20786">
        <ele>1415.6</ele>
        <time>2021-08-28T08:55:27Z</time>
      </trkpt>
      <trkpt lat="42.9902" lon="-0.20773">
        <ele>1414.8</ele>
        <time>2021-08-28T08:55:28Z</time>
      </trkpt>
      <trkpt lat="42.99021" lon="-0.20761">
        <ele>1414.2</ele>
        <time>2021-08-28T08:55:29Z</time>
      </trkpt>
      <trkpt lat="42.99022" lon="-0.20746">
        <ele>1412.8</ele>
        <time>2021-08-28T08:55:30Z</time>
      </trkpt>
      <trkpt lat="42.99023" lon="-0.20733">
        <ele>1412.4</ele>
        <time>2021-08-28T08:55:31Z</time>
      </trkpt>
      <trkpt lat="42.99024" lon="-0.20723">
        <ele>1411.4</ele>
        <time>2021-08-28T08:55:32Z</time>
      </trkpt>
      <trkpt lat="42.99024" lon="-0.2071">
        <ele>1410.2</ele>
        <time>2021-08-28T08:55:33Z</time>
      </trkpt>
      <trkpt lat="42.99024" lon="-0.20697">
        <ele>1408.4</ele>
        <time>2021-08-28T08:55:34Z</time>
      </trkpt>
      <trkpt lat="42.99023" lon="-0.20678">
        <ele>1405.6</ele>
        <time>2021-08-28T08:55:36Z</time>
      </trkpt>
      <trkpt lat="42.99023" lon="-0.20668">
        <ele>1404</ele>
        <time>2021-08-28T08:55:37Z</time>
      </trkpt>
      <trkpt lat="42.99025" lon="-0.2066">
        <ele>1403.6</ele>
        <time>2021-08-28T08:55:38Z</time>
      </trkpt>
      <trkpt lat="42.99028" lon="-0.20653">
        <ele>1402.2</ele>
        <time>2021-08-28T08:55:39Z</time>
      </trkpt>
      <trkpt lat="42.99033" lon="-0.20648">
        <ele>1401.8</ele>
        <time>2021-08-28T08:55:40Z</time>
      </trkpt>
      <trkpt lat="42.99039" lon="-0.20646">
        <ele>1399.8</ele>
        <time>2021-08-28T08:55:41Z</time>
      </trkpt>
      <trkpt lat="42.99047" lon="-0.20645">
        <ele>1399</ele>
        <time>2021-08-28T08:55:42Z</time>
      </trkpt>
      <trkpt lat="42.99052" lon="-0.20645">
        <ele>1398.2</ele>
        <time>2021-08-28T08:55:43Z</time>
      </trkpt>
      <trkpt lat="42.9906" lon="-0.20645">
        <ele>1397.4</ele>
        <time>2021-08-28T08:55:44Z</time>
      </trkpt>
      <trkpt lat="42.99065" lon="-0.20642">
        <ele>1395.8</ele>
        <time>2021-08-28T08:55:45Z</time>
      </trkpt>
      <trkpt lat="42.99071" lon="-0.20639">
        <ele>1395.2</ele>
        <time>2021-08-28T08:55:46Z</time>
      </trkpt>
      <trkpt lat="42.99078" lon="-0.20635">
        <ele>1394</ele>
        <time>2021-08-28T08:55:47Z</time>
      </trkpt>
      <trkpt lat="42.99082" lon="-0.20628">
        <ele>1393.4</ele>
        <time>2021-08-28T08:55:48Z</time>
      </trkpt>
      <trkpt lat="42.99083" lon="-0.2062">
        <ele>1392.8</ele>
        <time>2021-08-28T08:55:49Z</time>
      </trkpt>
      <trkpt lat="42.99085" lon="-0.20607">
        <ele>1392.6</ele>
        <time>2021-08-28T08:55:50Z</time>
      </trkpt>
      <trkpt lat="42.99086" lon="-0.20593">
        <ele>1391.8</ele>
        <time>2021-08-28T08:55:51Z</time>
      </trkpt>
      <trkpt lat="42.99086" lon="-0.20571">
        <ele>1391</ele>
        <time>2021-08-28T08:55:53Z</time>
      </trkpt>
      <trkpt lat="42.99087" lon="-0.20563">
        <ele>1390.8</ele>
        <time>2021-08-28T08:55:54Z</time>
      </trkpt>
      <trkpt lat="42.99087" lon="-0.20555">
        <ele>1389.8</ele>
        <time>2021-08-28T08:55:55Z</time>
      </trkpt>
      <trkpt lat="42.99088" lon="-0.20545">
        <ele>1389</ele>
        <time>2021-08-28T08:55:56Z</time>
      </trkpt>
      <trkpt lat="42.99087" lon="-0.20536">
        <ele>1388.8</ele>
        <time>2021-08-28T08:55:57Z</time>
      </trkpt>
      <trkpt lat="42.99087" lon="-0.20525">
        <ele>1387.8</ele>
        <time>2021-08-28T08:55:58Z</time>
      </trkpt>
      <trkpt lat="42.99088" lon="-0.20516">
        <ele>1387.2</ele>
        <time>2021-08-28T08:55:59Z</time>
      </trkpt>
      <trkpt lat="42.99088" lon="-0.20502">
        <ele>1385.6</ele>
        <time>2021-08-28T08:56:00Z</time>
      </trkpt>
      <trkpt lat="42.99087" lon="-0.20478">
        <ele>1384</ele>
        <time>2021-08-28T08:56:02Z</time>
      </trkpt>
      <trkpt lat="42.99087" lon="-0.2047">
        <ele>1383.4</ele>
        <time>2021-08-28T08:56:03Z</time>
      </trkpt>
      <trkpt lat="42.99089" lon="-0.20457">
        <ele>1381.6</ele>
        <time>2021-08-28T08:56:04Z</time>
      </trkpt>
      <trkpt lat="42.99092" lon="-0.20449">
        <ele>1380.8</ele>
        <time>2021-08-28T08:56:05Z</time>
      </trkpt>
      <trkpt lat="42.99097" lon="-0.20436">
        <ele>1379.4</ele>
        <time>2021-08-28T08:56:06Z</time>
      </trkpt>
      <trkpt lat="42.99101" lon="-0.20417">
        <ele>1378.2</ele>
        <time>2021-08-28T08:56:08Z</time>
      </trkpt>
      <trkpt lat="42.99104" lon="-0.20395">
        <ele>1375.6</ele>
        <time>2021-08-28T08:56:10Z</time>
      </trkpt>
      <trkpt lat="42.99104" lon="-0.20386">
        <ele>1374.8</ele>
        <time>2021-08-28T08:56:11Z</time>
      </trkpt>
      <trkpt lat="42.99105" lon="-0.20377">
        <ele>1372.8</ele>
        <time>2021-08-28T08:56:12Z</time>
      </trkpt>
      <trkpt lat="42.99107" lon="-0.20371">
        <ele>1371.8</ele>
        <time>2021-08-28T08:56:13Z</time>
      </trkpt>
      <trkpt lat="42.99111" lon="-0.20367">
        <ele>1370</ele>
        <time>2021-08-28T08:56:14Z</time>
      </trkpt>
      <trkpt lat="42.99114" lon="-0.20362">
        <ele>1369</ele>
        <time>2021-08-28T08:56:15Z</time>
      </trkpt>
      <trkpt lat="42.99116" lon="-0.20357">
        <ele>1368</ele>
        <time>2021-08-28T08:56:16Z</time>
      </trkpt>
      <trkpt lat="42.99118" lon="-0.20351">
        <ele>1367</ele>
        <time>2021-08-28T08:56:17Z</time>
      </trkpt>
      <trkpt lat="42.99119" lon="-0.20344">
        <ele>1366.2</ele>
        <time>2021-08-28T08:56:18Z</time>
      </trkpt>
      <trkpt lat="42.9912" lon="-0.20334">
        <ele>1365.2</ele>
        <time>2021-08-28T08:56:19Z</time>
      </trkpt>
      <trkpt lat="42.99121" lon="-0.20327">
        <ele>1364.6</ele>
        <time>2021-08-28T08:56:20Z</time>
      </trkpt>
      <trkpt lat="42.99121" lon="-0.20319">
        <ele>1363.8</ele>
        <time>2021-08-28T08:56:21Z</time>
      </trkpt>
      <trkpt lat="42.9912" lon="-0.2031">
        <ele>1363.6</ele>
        <time>2021-08-28T08:56:22Z</time>
      </trkpt>
      <trkpt lat="42.99118" lon="-0.20306">
        <ele>1363.2</ele>
        <time>2021-08-28T08:56:23Z</time>
      </trkpt>
      <trkpt lat="42.99114" lon="-0.20299">
        <ele>1363.2</ele>
        <time>2021-08-28T08:56:24Z</time>
      </trkpt>
      <trkpt lat="42.9911" lon="-0.20296">
        <ele>1362</ele>
        <time>2021-08-28T08:56:25Z</time>
      </trkpt>
      <trkpt lat="42.99106" lon="-0.20293">
        <ele>1361.2</ele>
        <time>2021-08-28T08:56:26Z</time>
      </trkpt>
      <trkpt lat="42.99102" lon="-0.20288">
        <ele>1360</ele>
        <time>2021-08-28T08:56:27Z</time>
      </trkpt>
      <trkpt lat="42.99099" lon="-0.20285">
        <ele>1359.6</ele>
        <time>2021-08-28T08:56:28Z</time>
      </trkpt>
      <trkpt lat="42.99096" lon="-0.20283">
        <ele>1359.2</ele>
        <time>2021-08-28T08:56:29Z</time>
      </trkpt>
      <trkpt lat="42.99092" lon="-0.20279">
        <ele>1359</ele>
        <time>2021-08-28T08:56:30Z</time>
      </trkpt>
      <trkpt lat="42.99086" lon="-0.20269">
        <ele>1358.6</ele>
        <time>2021-08-28T08:56:32Z</time>
      </trkpt>
      <trkpt lat="42.99079" lon="-0.20262">
        <ele>1358.2</ele>
        <time>2021-08-28T08:56:34Z</time>
      </trkpt>
      <trkpt lat="42.99071" lon="-0.20255">
        <ele>1358.2</ele>
        <time>2021-08-28T08:56:36Z</time>
      </trkpt>
      <trkpt lat="42.99066" lon="-0.20245">
        <ele>1358.4</ele>
        <time>2021-08-28T08:56:38Z</time>
      </trkpt>
      <trkpt lat="42.99065" lon="-0.20241">
        <ele>1358.4</ele>
        <time>2021-08-28T08:56:39Z</time>
      </trkpt>
      <trkpt lat="42.99064" lon="-0.20235">
        <ele>1358.4</ele>
        <time>2021-08-28T08:56:40Z</time>
      </trkpt>
      <trkpt lat="42.99062" lon="-0.20232">
        <ele>1358.4</ele>
        <time>2021-08-28T08:56:41Z</time>
      </trkpt>
      <trkpt lat="42.99062" lon="-0.20228">
        <ele>1358.4</ele>
        <time>2021-08-28T08:56:42Z</time>
      </trkpt>
      <trkpt lat="42.99062" lon="-0.20226">
        <ele>1358.4</ele>
        <time>2021-08-28T08:56:43Z</time>
      </trkpt>
      <trkpt lat="42.99063" lon="-0.20223">
        <ele>1358.6</ele>
        <time>2021-08-28T08:56:44Z</time>
      </trkpt>
      <trkpt lat="42.99063" lon="-0.20223">
        <ele>1358.6</ele>
        <time>2021-08-28T08:56:46Z</time>
      </trkpt>
      <trkpt lat="42.99063" lon="-0.20223">
        <ele>1359.2</ele>
        <time>2021-08-28T08:56:54Z</time>
      </trkpt>
      <trkpt lat="42.99063" lon="-0.20223">
        <ele>1359.2</ele>
        <time>2021-08-28T08:57:12Z</time>
      </trkpt>
    </trkseg>
  </trk>
</gpx>